<?xml version="1.0" encoding="UTF-8" standalone="no" ?>
<gpx xmlns="http://www.topografix.com/GPX/1/1" xmlns:xsi="http://www.w3.org/2001/XMLSchema-instance" xsi:schemaLocation="http://www.topografix.com/GPX/1/1 http://www.topografix.com/GPX/1/1/gpx.xsd" version="1.1" creator="VisuGPX - https://www.visugpx.com">
  <metadata>
    <name>VILLARS SUR VAR BAIROLS</name>
    <desc><![CDATA[Depart du Parking haut de Villard, Au bout du parking prendre à gauche apres les poubelles escalie; en haut poursuivre sur la gauche grosse montée sur 100m puis départ du sentier à droite ; montée par le vallon.
Sentier qui retombe pour finir sur une piste qui amené au col. La boucle qui va suir Théry est en face, pour le Lac il faut prendre la piste à droite,
Attention après la fin de la piste le sentier n'est pas toujours évident; il faut toujours le chercher plus à gauche que ce qui parait naturel.
Arrivée au Lac la boucle de Bairol n'est pas indispensable. elle rajoute D 500m avec une descente très caillouteuse et une remontée éprouvante.
Sans cette boucle le tour fait D 1000m et se boucle dans la matinée pour profiter du resto à Villards
Très belle descente, se méfier quand même qq passage piègeux au début avec du gaz.]]></desc>
  </metadata>
  <trk>
    <name><![CDATA[20180722082832-HtAHM]]></name>
    <trkseg>
      <trkpt lat="43.93762" lon="7.09673">
        <ele>426</ele>
        <time>2018-07-21T07:14:00.000Z</time>
      </trkpt>
      <trkpt lat="43.93762" lon="7.09674">
        <ele>427</ele>
        <time>2018-07-21T07:14:05.000Z</time>
      </trkpt>
      <trkpt lat="43.93763" lon="7.09678">
        <ele>427</ele>
        <time>2018-07-21T07:14:10.000Z</time>
      </trkpt>
      <trkpt lat="43.93767" lon="7.09681">
        <ele>428</ele>
        <time>2018-07-21T07:14:16.000Z</time>
      </trkpt>
      <trkpt lat="43.93769" lon="7.0968">
        <ele>429</ele>
        <time>2018-07-21T07:14:18.000Z</time>
      </trkpt>
      <trkpt lat="43.93772" lon="7.0968">
        <ele>429</ele>
        <time>2018-07-21T07:14:23.000Z</time>
      </trkpt>
      <trkpt lat="43.93775" lon="7.09684">
        <ele>430</ele>
        <time>2018-07-21T07:14:29.000Z</time>
      </trkpt>
      <trkpt lat="43.93777" lon="7.09686">
        <ele>430</ele>
        <time>2018-07-21T07:14:32.000Z</time>
      </trkpt>
      <trkpt lat="43.93779" lon="7.09687">
        <ele>431</ele>
        <time>2018-07-21T07:14:35.000Z</time>
      </trkpt>
      <trkpt lat="43.93781" lon="7.09689">
        <ele>431</ele>
        <time>2018-07-21T07:14:39.000Z</time>
      </trkpt>
      <trkpt lat="43.93782" lon="7.0969">
        <ele>431</ele>
        <time>2018-07-21T07:14:42.000Z</time>
      </trkpt>
      <trkpt lat="43.93784" lon="7.09691">
        <ele>431</ele>
        <time>2018-07-21T07:14:45.000Z</time>
      </trkpt>
      <trkpt lat="43.93785" lon="7.0969">
        <ele>431</ele>
        <time>2018-07-21T07:14:48.000Z</time>
      </trkpt>
      <trkpt lat="43.93786" lon="7.09688">
        <ele>431</ele>
        <time>2018-07-21T07:14:51.000Z</time>
      </trkpt>
      <trkpt lat="43.93787" lon="7.09687">
        <ele>432</ele>
        <time>2018-07-21T07:14:52.000Z</time>
      </trkpt>
      <trkpt lat="43.93787" lon="7.09686">
        <ele>432</ele>
        <time>2018-07-21T07:14:53.000Z</time>
      </trkpt>
      <trkpt lat="43.93786" lon="7.09675">
        <ele>431</ele>
        <time>2018-07-21T07:14:57.000Z</time>
      </trkpt>
      <trkpt lat="43.93785" lon="7.09671">
        <ele>431</ele>
        <time>2018-07-21T07:14:58.000Z</time>
      </trkpt>
      <trkpt lat="43.93784" lon="7.09661">
        <ele>431</ele>
        <time>2018-07-21T07:15:00.000Z</time>
      </trkpt>
      <trkpt lat="43.93785" lon="7.09655">
        <ele>432</ele>
        <time>2018-07-21T07:15:01.000Z</time>
      </trkpt>
      <trkpt lat="43.93788" lon="7.0964">
        <ele>432</ele>
        <time>2018-07-21T07:15:04.000Z</time>
      </trkpt>
      <trkpt lat="43.93789" lon="7.09633">
        <ele>432</ele>
        <time>2018-07-21T07:15:06.000Z</time>
      </trkpt>
      <trkpt lat="43.9379" lon="7.09628">
        <ele>432</ele>
        <time>2018-07-21T07:15:10.000Z</time>
      </trkpt>
      <trkpt lat="43.9379" lon="7.09628">
        <ele>432</ele>
        <time>2018-07-21T07:15:11.000Z</time>
      </trkpt>
      <trkpt lat="43.93789" lon="7.09628">
        <ele>432</ele>
        <time>2018-07-21T07:15:23.000Z</time>
      </trkpt>
      <trkpt lat="43.93789" lon="7.09629">
        <ele>432</ele>
        <time>2018-07-21T07:15:35.000Z</time>
      </trkpt>
      <trkpt lat="43.93788" lon="7.0963">
        <ele>432</ele>
        <time>2018-07-21T07:15:47.000Z</time>
      </trkpt>
      <trkpt lat="43.93788" lon="7.09639">
        <ele>432</ele>
        <time>2018-07-21T07:15:52.000Z</time>
      </trkpt>
      <trkpt lat="43.93788" lon="7.09641">
        <ele>432</ele>
        <time>2018-07-21T07:15:53.000Z</time>
      </trkpt>
      <trkpt lat="43.93785" lon="7.09659">
        <ele>432</ele>
        <time>2018-07-21T07:16:01.000Z</time>
      </trkpt>
      <trkpt lat="43.93784" lon="7.09672">
        <ele>431</ele>
        <time>2018-07-21T07:16:06.000Z</time>
      </trkpt>
      <trkpt lat="43.93787" lon="7.09688">
        <ele>432</ele>
        <time>2018-07-21T07:16:13.000Z</time>
      </trkpt>
      <trkpt lat="43.93785" lon="7.09691">
        <ele>431</ele>
        <time>2018-07-21T07:16:16.000Z</time>
      </trkpt>
      <trkpt lat="43.93785" lon="7.09692">
        <ele>431</ele>
        <time>2018-07-21T07:16:17.000Z</time>
      </trkpt>
      <trkpt lat="43.93784" lon="7.09692">
        <ele>431</ele>
        <time>2018-07-21T07:16:23.000Z</time>
      </trkpt>
      <trkpt lat="43.93786" lon="7.09695">
        <ele>432</ele>
        <time>2018-07-21T07:16:31.000Z</time>
      </trkpt>
      <trkpt lat="43.93787" lon="7.09696">
        <ele>432</ele>
        <time>2018-07-21T07:16:34.000Z</time>
      </trkpt>
      <trkpt lat="43.93789" lon="7.09699">
        <ele>432</ele>
        <time>2018-07-21T07:16:40.000Z</time>
      </trkpt>
      <trkpt lat="43.93791" lon="7.09702">
        <ele>432</ele>
        <time>2018-07-21T07:16:45.000Z</time>
      </trkpt>
      <trkpt lat="43.93792" lon="7.09703">
        <ele>432</ele>
        <time>2018-07-21T07:16:47.000Z</time>
      </trkpt>
      <trkpt lat="43.93792" lon="7.09704">
        <ele>432</ele>
        <time>2018-07-21T07:16:50.000Z</time>
      </trkpt>
      <trkpt lat="43.93793" lon="7.09705">
        <ele>432</ele>
        <time>2018-07-21T07:16:52.000Z</time>
      </trkpt>
      <trkpt lat="43.93794" lon="7.09707">
        <ele>432</ele>
        <time>2018-07-21T07:16:56.000Z</time>
      </trkpt>
      <trkpt lat="43.93796" lon="7.09708">
        <ele>432</ele>
        <time>2018-07-21T07:16:59.000Z</time>
      </trkpt>
      <trkpt lat="43.93797" lon="7.09709">
        <ele>432</ele>
        <time>2018-07-21T07:17:01.000Z</time>
      </trkpt>
      <trkpt lat="43.93799" lon="7.09712">
        <ele>432</ele>
        <time>2018-07-21T07:17:05.000Z</time>
      </trkpt>
      <trkpt lat="43.938" lon="7.09712">
        <ele>433</ele>
        <time>2018-07-21T07:17:07.000Z</time>
      </trkpt>
      <trkpt lat="43.93804" lon="7.09711">
        <ele>433</ele>
        <time>2018-07-21T07:17:13.000Z</time>
      </trkpt>
      <trkpt lat="43.93808" lon="7.09711">
        <ele>433</ele>
        <time>2018-07-21T07:17:19.000Z</time>
      </trkpt>
      <trkpt lat="43.9381" lon="7.09712">
        <ele>433</ele>
        <time>2018-07-21T07:17:23.000Z</time>
      </trkpt>
      <trkpt lat="43.93811" lon="7.09712">
        <ele>433</ele>
        <time>2018-07-21T07:17:25.000Z</time>
      </trkpt>
      <trkpt lat="43.93814" lon="7.09714">
        <ele>433</ele>
        <time>2018-07-21T07:17:31.000Z</time>
      </trkpt>
      <trkpt lat="43.93815" lon="7.09714">
        <ele>433</ele>
        <time>2018-07-21T07:17:32.000Z</time>
      </trkpt>
      <trkpt lat="43.93818" lon="7.09716">
        <ele>433</ele>
        <time>2018-07-21T07:17:38.000Z</time>
      </trkpt>
      <trkpt lat="43.93819" lon="7.09716">
        <ele>433</ele>
        <time>2018-07-21T07:17:39.000Z</time>
      </trkpt>
      <trkpt lat="43.93823" lon="7.09717">
        <ele>434</ele>
        <time>2018-07-21T07:17:45.000Z</time>
      </trkpt>
      <trkpt lat="43.93824" lon="7.09718">
        <ele>434</ele>
        <time>2018-07-21T07:17:48.000Z</time>
      </trkpt>
      <trkpt lat="43.93826" lon="7.09719">
        <ele>434</ele>
        <time>2018-07-21T07:17:51.000Z</time>
      </trkpt>
      <trkpt lat="43.93828" lon="7.0972">
        <ele>434</ele>
        <time>2018-07-21T07:17:55.000Z</time>
      </trkpt>
      <trkpt lat="43.93829" lon="7.09721">
        <ele>434</ele>
        <time>2018-07-21T07:17:57.000Z</time>
      </trkpt>
      <trkpt lat="43.93829" lon="7.09725">
        <ele>433</ele>
        <time>2018-07-21T07:18:02.000Z</time>
      </trkpt>
      <trkpt lat="43.93829" lon="7.09726">
        <ele>433</ele>
        <time>2018-07-21T07:18:03.000Z</time>
      </trkpt>
      <trkpt lat="43.9383" lon="7.09727">
        <ele>433</ele>
        <time>2018-07-21T07:18:08.000Z</time>
      </trkpt>
      <trkpt lat="43.9383" lon="7.09727">
        <ele>433</ele>
        <time>2018-07-21T07:18:11.000Z</time>
      </trkpt>
      <trkpt lat="43.93831" lon="7.09728">
        <ele>433</ele>
        <time>2018-07-21T07:18:23.000Z</time>
      </trkpt>
      <trkpt lat="43.93835" lon="7.09732">
        <ele>434</ele>
        <time>2018-07-21T07:18:31.000Z</time>
      </trkpt>
      <trkpt lat="43.9384" lon="7.0973">
        <ele>435</ele>
        <time>2018-07-21T07:18:37.000Z</time>
      </trkpt>
      <trkpt lat="43.93841" lon="7.0973">
        <ele>435</ele>
        <time>2018-07-21T07:18:38.000Z</time>
      </trkpt>
      <trkpt lat="43.93847" lon="7.09728">
        <ele>435</ele>
        <time>2018-07-21T07:18:45.000Z</time>
      </trkpt>
      <trkpt lat="43.93849" lon="7.09728">
        <ele>435</ele>
        <time>2018-07-21T07:18:47.000Z</time>
      </trkpt>
      <trkpt lat="43.93853" lon="7.09728">
        <ele>435</ele>
        <time>2018-07-21T07:18:51.000Z</time>
      </trkpt>
      <trkpt lat="43.93855" lon="7.09727">
        <ele>435</ele>
        <time>2018-07-21T07:18:54.000Z</time>
      </trkpt>
      <trkpt lat="43.93864" lon="7.09723">
        <ele>435</ele>
        <time>2018-07-21T07:19:01.000Z</time>
      </trkpt>
      <trkpt lat="43.93866" lon="7.09722">
        <ele>435</ele>
        <time>2018-07-21T07:19:02.000Z</time>
      </trkpt>
      <trkpt lat="43.93874" lon="7.09712">
        <ele>436</ele>
        <time>2018-07-21T07:19:08.000Z</time>
      </trkpt>
      <trkpt lat="43.93875" lon="7.0971">
        <ele>436</ele>
        <time>2018-07-21T07:19:09.000Z</time>
      </trkpt>
      <trkpt lat="43.93883" lon="7.09696">
        <ele>438</ele>
        <time>2018-07-21T07:19:17.000Z</time>
      </trkpt>
      <trkpt lat="43.93885" lon="7.09688">
        <ele>439</ele>
        <time>2018-07-21T07:19:22.000Z</time>
      </trkpt>
      <trkpt lat="43.93886" lon="7.09687">
        <ele>439</ele>
        <time>2018-07-21T07:19:23.000Z</time>
      </trkpt>
      <trkpt lat="43.93887" lon="7.09686">
        <ele>439</ele>
        <time>2018-07-21T07:19:24.000Z</time>
      </trkpt>
      <trkpt lat="43.93887" lon="7.09685">
        <ele>440</ele>
        <time>2018-07-21T07:19:25.000Z</time>
      </trkpt>
      <trkpt lat="43.93887" lon="7.09684">
        <ele>440</ele>
        <time>2018-07-21T07:19:26.000Z</time>
      </trkpt>
      <trkpt lat="43.93889" lon="7.09682">
        <ele>440</ele>
        <time>2018-07-21T07:19:28.000Z</time>
      </trkpt>
      <trkpt lat="43.9389" lon="7.0968">
        <ele>440</ele>
        <time>2018-07-21T07:19:30.000Z</time>
      </trkpt>
      <trkpt lat="43.93891" lon="7.09677">
        <ele>441</ele>
        <time>2018-07-21T07:19:33.000Z</time>
      </trkpt>
      <trkpt lat="43.9389" lon="7.09673">
        <ele>441</ele>
        <time>2018-07-21T07:19:36.000Z</time>
      </trkpt>
      <trkpt lat="43.93889" lon="7.09667">
        <ele>453</ele>
        <time>2018-07-21T07:19:40.000Z</time>
      </trkpt>
      <trkpt lat="43.9389" lon="7.09661">
        <ele>453</ele>
        <time>2018-07-21T07:19:44.000Z</time>
      </trkpt>
      <trkpt lat="43.93889" lon="7.09655">
        <ele>454</ele>
        <time>2018-07-21T07:19:48.000Z</time>
      </trkpt>
      <trkpt lat="43.93888" lon="7.09652">
        <ele>454</ele>
        <time>2018-07-21T07:19:50.000Z</time>
      </trkpt>
      <trkpt lat="43.93888" lon="7.09644">
        <ele>455</ele>
        <time>2018-07-21T07:19:55.000Z</time>
      </trkpt>
      <trkpt lat="43.93888" lon="7.09638">
        <ele>455</ele>
        <time>2018-07-21T07:19:59.000Z</time>
      </trkpt>
      <trkpt lat="43.93888" lon="7.0963">
        <ele>456</ele>
        <time>2018-07-21T07:20:04.000Z</time>
      </trkpt>
      <trkpt lat="43.93886" lon="7.09623">
        <ele>457</ele>
        <time>2018-07-21T07:20:09.000Z</time>
      </trkpt>
      <trkpt lat="43.93886" lon="7.09621">
        <ele>457</ele>
        <time>2018-07-21T07:20:10.000Z</time>
      </trkpt>
      <trkpt lat="43.93887" lon="7.09615">
        <ele>458</ele>
        <time>2018-07-21T07:20:14.000Z</time>
      </trkpt>
      <trkpt lat="43.93887" lon="7.09614">
        <ele>458</ele>
        <time>2018-07-21T07:20:15.000Z</time>
      </trkpt>
      <trkpt lat="43.93887" lon="7.09613">
        <ele>459</ele>
        <time>2018-07-21T07:20:16.000Z</time>
      </trkpt>
      <trkpt lat="43.93887" lon="7.09608">
        <ele>459</ele>
        <time>2018-07-21T07:20:19.000Z</time>
      </trkpt>
      <trkpt lat="43.93888" lon="7.09604">
        <ele>460</ele>
        <time>2018-07-21T07:20:22.000Z</time>
      </trkpt>
      <trkpt lat="43.93888" lon="7.09604">
        <ele>460</ele>
        <time>2018-07-21T07:20:24.000Z</time>
      </trkpt>
      <trkpt lat="43.93889" lon="7.09602">
        <ele>461</ele>
        <time>2018-07-21T07:20:27.000Z</time>
      </trkpt>
      <trkpt lat="43.93891" lon="7.09595">
        <ele>463</ele>
        <time>2018-07-21T07:20:34.000Z</time>
      </trkpt>
      <trkpt lat="43.93891" lon="7.09594">
        <ele>463</ele>
        <time>2018-07-21T07:20:35.000Z</time>
      </trkpt>
      <trkpt lat="43.93892" lon="7.09589">
        <ele>464</ele>
        <time>2018-07-21T07:20:40.000Z</time>
      </trkpt>
      <trkpt lat="43.93893" lon="7.09587">
        <ele>464</ele>
        <time>2018-07-21T07:20:43.000Z</time>
      </trkpt>
      <trkpt lat="43.93893" lon="7.09584">
        <ele>464</ele>
        <time>2018-07-21T07:20:46.000Z</time>
      </trkpt>
      <trkpt lat="43.93893" lon="7.0958">
        <ele>471</ele>
        <time>2018-07-21T07:20:51.000Z</time>
      </trkpt>
      <trkpt lat="43.93893" lon="7.0958">
        <ele>471</ele>
        <time>2018-07-21T07:20:52.000Z</time>
      </trkpt>
      <trkpt lat="43.93893" lon="7.09574">
        <ele>471</ele>
        <time>2018-07-21T07:20:59.000Z</time>
      </trkpt>
      <trkpt lat="43.93894" lon="7.09572">
        <ele>471</ele>
        <time>2018-07-21T07:21:01.000Z</time>
      </trkpt>
      <trkpt lat="43.93894" lon="7.0957">
        <ele>471</ele>
        <time>2018-07-21T07:21:04.000Z</time>
      </trkpt>
      <trkpt lat="43.93895" lon="7.09566">
        <ele>471</ele>
        <time>2018-07-21T07:21:10.000Z</time>
      </trkpt>
      <trkpt lat="43.93895" lon="7.09565">
        <ele>471</ele>
        <time>2018-07-21T07:21:11.000Z</time>
      </trkpt>
      <trkpt lat="43.93896" lon="7.09561">
        <ele>471</ele>
        <time>2018-07-21T07:21:15.000Z</time>
      </trkpt>
      <trkpt lat="43.93898" lon="7.09556">
        <ele>472</ele>
        <time>2018-07-21T07:21:21.000Z</time>
      </trkpt>
      <trkpt lat="43.93898" lon="7.09555">
        <ele>472</ele>
        <time>2018-07-21T07:21:22.000Z</time>
      </trkpt>
      <trkpt lat="43.93899" lon="7.09551">
        <ele>472</ele>
        <time>2018-07-21T07:21:27.000Z</time>
      </trkpt>
      <trkpt lat="43.939" lon="7.09547">
        <ele>472</ele>
        <time>2018-07-21T07:21:32.000Z</time>
      </trkpt>
      <trkpt lat="43.939" lon="7.09546">
        <ele>472</ele>
        <time>2018-07-21T07:21:33.000Z</time>
      </trkpt>
      <trkpt lat="43.93903" lon="7.09542">
        <ele>473</ele>
        <time>2018-07-21T07:21:39.000Z</time>
      </trkpt>
      <trkpt lat="43.93904" lon="7.09541">
        <ele>473</ele>
        <time>2018-07-21T07:21:40.000Z</time>
      </trkpt>
      <trkpt lat="43.93905" lon="7.09538">
        <ele>474</ele>
        <time>2018-07-21T07:21:44.000Z</time>
      </trkpt>
      <trkpt lat="43.93907" lon="7.09532">
        <ele>475</ele>
        <time>2018-07-21T07:21:50.000Z</time>
      </trkpt>
      <trkpt lat="43.93907" lon="7.09531">
        <ele>475</ele>
        <time>2018-07-21T07:21:51.000Z</time>
      </trkpt>
      <trkpt lat="43.93908" lon="7.09528">
        <ele>477</ele>
        <time>2018-07-21T07:21:55.000Z</time>
      </trkpt>
      <trkpt lat="43.93908" lon="7.09524">
        <ele>478</ele>
        <time>2018-07-21T07:22:00.000Z</time>
      </trkpt>
      <trkpt lat="43.93908" lon="7.09524">
        <ele>478</ele>
        <time>2018-07-21T07:22:02.000Z</time>
      </trkpt>
      <trkpt lat="43.93908" lon="7.09523">
        <ele>478</ele>
        <time>2018-07-21T07:22:06.000Z</time>
      </trkpt>
      <trkpt lat="43.93908" lon="7.09521">
        <ele>479</ele>
        <time>2018-07-21T07:22:12.000Z</time>
      </trkpt>
      <trkpt lat="43.93909" lon="7.09518">
        <ele>480</ele>
        <time>2018-07-21T07:22:15.000Z</time>
      </trkpt>
      <trkpt lat="43.9391" lon="7.09515">
        <ele>482</ele>
        <time>2018-07-21T07:22:18.000Z</time>
      </trkpt>
      <trkpt lat="43.93911" lon="7.09509">
        <ele>485</ele>
        <time>2018-07-21T07:22:23.000Z</time>
      </trkpt>
      <trkpt lat="43.93912" lon="7.09506">
        <ele>487</ele>
        <time>2018-07-21T07:22:25.000Z</time>
      </trkpt>
      <trkpt lat="43.93914" lon="7.095">
        <ele>491</ele>
        <time>2018-07-21T07:22:31.000Z</time>
      </trkpt>
      <trkpt lat="43.93915" lon="7.09494">
        <ele>489</ele>
        <time>2018-07-21T07:22:38.000Z</time>
      </trkpt>
      <trkpt lat="43.93918" lon="7.09485">
        <ele>501</ele>
        <time>2018-07-21T07:22:44.000Z</time>
      </trkpt>
      <trkpt lat="43.9392" lon="7.09479">
        <ele>502</ele>
        <time>2018-07-21T07:22:48.000Z</time>
      </trkpt>
      <trkpt lat="43.93924" lon="7.09471">
        <ele>504</ele>
        <time>2018-07-21T07:22:54.000Z</time>
      </trkpt>
      <trkpt lat="43.93924" lon="7.0947">
        <ele>504</ele>
        <time>2018-07-21T07:22:55.000Z</time>
      </trkpt>
      <trkpt lat="43.93928" lon="7.09464">
        <ele>504</ele>
        <time>2018-07-21T07:23:01.000Z</time>
      </trkpt>
      <trkpt lat="43.93929" lon="7.09463">
        <ele>504</ele>
        <time>2018-07-21T07:23:02.000Z</time>
      </trkpt>
      <trkpt lat="43.93929" lon="7.09463">
        <ele>504</ele>
        <time>2018-07-21T07:23:04.000Z</time>
      </trkpt>
      <trkpt lat="43.9393" lon="7.09462">
        <ele>504</ele>
        <time>2018-07-21T07:23:08.000Z</time>
      </trkpt>
      <trkpt lat="43.93932" lon="7.09457">
        <ele>504</ele>
        <time>2018-07-21T07:23:15.000Z</time>
      </trkpt>
      <trkpt lat="43.93933" lon="7.09456">
        <ele>504</ele>
        <time>2018-07-21T07:23:17.000Z</time>
      </trkpt>
      <trkpt lat="43.93936" lon="7.09449">
        <ele>504</ele>
        <time>2018-07-21T07:23:25.000Z</time>
      </trkpt>
      <trkpt lat="43.93937" lon="7.09448">
        <ele>504</ele>
        <time>2018-07-21T07:23:26.000Z</time>
      </trkpt>
      <trkpt lat="43.93939" lon="7.09442">
        <ele>504</ele>
        <time>2018-07-21T07:23:32.000Z</time>
      </trkpt>
      <trkpt lat="43.9394" lon="7.0944">
        <ele>504</ele>
        <time>2018-07-21T07:23:34.000Z</time>
      </trkpt>
      <trkpt lat="43.93943" lon="7.09436">
        <ele>504</ele>
        <time>2018-07-21T07:23:39.000Z</time>
      </trkpt>
      <trkpt lat="43.93945" lon="7.09431">
        <ele>505</ele>
        <time>2018-07-21T07:23:44.000Z</time>
      </trkpt>
      <trkpt lat="43.93946" lon="7.09429">
        <ele>505</ele>
        <time>2018-07-21T07:23:46.000Z</time>
      </trkpt>
      <trkpt lat="43.93948" lon="7.09425">
        <ele>506</ele>
        <time>2018-07-21T07:23:51.000Z</time>
      </trkpt>
      <trkpt lat="43.93949" lon="7.09424">
        <ele>506</ele>
        <time>2018-07-21T07:23:52.000Z</time>
      </trkpt>
      <trkpt lat="43.93953" lon="7.09416">
        <ele>500</ele>
        <time>2018-07-21T07:23:59.000Z</time>
      </trkpt>
      <trkpt lat="43.93953" lon="7.09415">
        <ele>501</ele>
        <time>2018-07-21T07:24:00.000Z</time>
      </trkpt>
      <trkpt lat="43.93957" lon="7.09407">
        <ele>502</ele>
        <time>2018-07-21T07:24:07.000Z</time>
      </trkpt>
      <trkpt lat="43.93958" lon="7.09406">
        <ele>502</ele>
        <time>2018-07-21T07:24:08.000Z</time>
      </trkpt>
      <trkpt lat="43.93959" lon="7.09403">
        <ele>503</ele>
        <time>2018-07-21T07:24:13.000Z</time>
      </trkpt>
      <trkpt lat="43.93962" lon="7.094">
        <ele>503</ele>
        <time>2018-07-21T07:24:16.000Z</time>
      </trkpt>
      <trkpt lat="43.93965" lon="7.09394">
        <ele>504</ele>
        <time>2018-07-21T07:24:22.000Z</time>
      </trkpt>
      <trkpt lat="43.93966" lon="7.09391">
        <ele>504</ele>
        <time>2018-07-21T07:24:25.000Z</time>
      </trkpt>
      <trkpt lat="43.93967" lon="7.09388">
        <ele>504</ele>
        <time>2018-07-21T07:24:28.000Z</time>
      </trkpt>
      <trkpt lat="43.93968" lon="7.09387">
        <ele>504</ele>
        <time>2018-07-21T07:24:29.000Z</time>
      </trkpt>
      <trkpt lat="43.93972" lon="7.09381">
        <ele>505</ele>
        <time>2018-07-21T07:24:36.000Z</time>
      </trkpt>
      <trkpt lat="43.93974" lon="7.09378">
        <ele>505</ele>
        <time>2018-07-21T07:24:38.000Z</time>
      </trkpt>
      <trkpt lat="43.93976" lon="7.09374">
        <ele>505</ele>
        <time>2018-07-21T07:24:42.000Z</time>
      </trkpt>
      <trkpt lat="43.93978" lon="7.09372">
        <ele>505</ele>
        <time>2018-07-21T07:24:45.000Z</time>
      </trkpt>
      <trkpt lat="43.9398" lon="7.09369">
        <ele>505</ele>
        <time>2018-07-21T07:24:48.000Z</time>
      </trkpt>
      <trkpt lat="43.93983" lon="7.09366">
        <ele>506</ele>
        <time>2018-07-21T07:24:53.000Z</time>
      </trkpt>
      <trkpt lat="43.93984" lon="7.09365">
        <ele>506</ele>
        <time>2018-07-21T07:24:54.000Z</time>
      </trkpt>
      <trkpt lat="43.93986" lon="7.09361">
        <ele>506</ele>
        <time>2018-07-21T07:24:59.000Z</time>
      </trkpt>
      <trkpt lat="43.93987" lon="7.09359">
        <ele>507</ele>
        <time>2018-07-21T07:25:01.000Z</time>
      </trkpt>
      <trkpt lat="43.93989" lon="7.09357">
        <ele>507</ele>
        <time>2018-07-21T07:25:05.000Z</time>
      </trkpt>
      <trkpt lat="43.93993" lon="7.09353">
        <ele>508</ele>
        <time>2018-07-21T07:25:11.000Z</time>
      </trkpt>
      <trkpt lat="43.93993" lon="7.09353">
        <ele>509</ele>
        <time>2018-07-21T07:25:12.000Z</time>
      </trkpt>
      <trkpt lat="43.93997" lon="7.09348">
        <ele>510</ele>
        <time>2018-07-21T07:25:18.000Z</time>
      </trkpt>
      <trkpt lat="43.93998" lon="7.09346">
        <ele>511</ele>
        <time>2018-07-21T07:25:20.000Z</time>
      </trkpt>
      <trkpt lat="43.94002" lon="7.09342">
        <ele>525</ele>
        <time>2018-07-21T07:25:25.000Z</time>
      </trkpt>
      <trkpt lat="43.94004" lon="7.09339">
        <ele>524</ele>
        <time>2018-07-21T07:25:29.000Z</time>
      </trkpt>
      <trkpt lat="43.94007" lon="7.09335">
        <ele>524</ele>
        <time>2018-07-21T07:25:34.000Z</time>
      </trkpt>
      <trkpt lat="43.94009" lon="7.09333">
        <ele>520</ele>
        <time>2018-07-21T07:25:38.000Z</time>
      </trkpt>
      <trkpt lat="43.94011" lon="7.0933">
        <ele>521</ele>
        <time>2018-07-21T07:25:41.000Z</time>
      </trkpt>
      <trkpt lat="43.94014" lon="7.09325">
        <ele>522</ele>
        <time>2018-07-21T07:25:47.000Z</time>
      </trkpt>
      <trkpt lat="43.94015" lon="7.09323">
        <ele>523</ele>
        <time>2018-07-21T07:25:49.000Z</time>
      </trkpt>
      <trkpt lat="43.94017" lon="7.09321">
        <ele>523</ele>
        <time>2018-07-21T07:25:52.000Z</time>
      </trkpt>
      <trkpt lat="43.94021" lon="7.09317">
        <ele>524</ele>
        <time>2018-07-21T07:25:58.000Z</time>
      </trkpt>
      <trkpt lat="43.94021" lon="7.09316">
        <ele>524</ele>
        <time>2018-07-21T07:25:59.000Z</time>
      </trkpt>
      <trkpt lat="43.94025" lon="7.09312">
        <ele>525</ele>
        <time>2018-07-21T07:26:06.000Z</time>
      </trkpt>
      <trkpt lat="43.94028" lon="7.0931">
        <ele>526</ele>
        <time>2018-07-21T07:26:10.000Z</time>
      </trkpt>
      <trkpt lat="43.94029" lon="7.09308">
        <ele>526</ele>
        <time>2018-07-21T07:26:12.000Z</time>
      </trkpt>
      <trkpt lat="43.94033" lon="7.09304">
        <ele>526</ele>
        <time>2018-07-21T07:26:18.000Z</time>
      </trkpt>
      <trkpt lat="43.94034" lon="7.09304">
        <ele>527</ele>
        <time>2018-07-21T07:26:19.000Z</time>
      </trkpt>
      <trkpt lat="43.94037" lon="7.093">
        <ele>527</ele>
        <time>2018-07-21T07:26:25.000Z</time>
      </trkpt>
      <trkpt lat="43.94039" lon="7.09299">
        <ele>527</ele>
        <time>2018-07-21T07:26:28.000Z</time>
      </trkpt>
      <trkpt lat="43.94041" lon="7.09297">
        <ele>528</ele>
        <time>2018-07-21T07:26:30.000Z</time>
      </trkpt>
      <trkpt lat="43.94045" lon="7.09294">
        <ele>528</ele>
        <time>2018-07-21T07:26:37.000Z</time>
      </trkpt>
      <trkpt lat="43.94046" lon="7.09294">
        <ele>528</ele>
        <time>2018-07-21T07:26:38.000Z</time>
      </trkpt>
      <trkpt lat="43.94049" lon="7.09291">
        <ele>529</ele>
        <time>2018-07-21T07:26:44.000Z</time>
      </trkpt>
      <trkpt lat="43.9405" lon="7.0929">
        <ele>529</ele>
        <time>2018-07-21T07:26:45.000Z</time>
      </trkpt>
      <trkpt lat="43.94052" lon="7.09287">
        <ele>529</ele>
        <time>2018-07-21T07:26:49.000Z</time>
      </trkpt>
      <trkpt lat="43.94056" lon="7.09285">
        <ele>530</ele>
        <time>2018-07-21T07:26:54.000Z</time>
      </trkpt>
      <trkpt lat="43.94057" lon="7.09284">
        <ele>530</ele>
        <time>2018-07-21T07:26:56.000Z</time>
      </trkpt>
      <trkpt lat="43.94062" lon="7.0928">
        <ele>531</ele>
        <time>2018-07-21T07:27:03.000Z</time>
      </trkpt>
      <trkpt lat="43.94063" lon="7.09279">
        <ele>531</ele>
        <time>2018-07-21T07:27:04.000Z</time>
      </trkpt>
      <trkpt lat="43.94068" lon="7.09275">
        <ele>532</ele>
        <time>2018-07-21T07:27:10.000Z</time>
      </trkpt>
      <trkpt lat="43.94069" lon="7.09274">
        <ele>532</ele>
        <time>2018-07-21T07:27:12.000Z</time>
      </trkpt>
      <trkpt lat="43.94075" lon="7.09271">
        <ele>533</ele>
        <time>2018-07-21T07:27:19.000Z</time>
      </trkpt>
      <trkpt lat="43.94075" lon="7.0927">
        <ele>533</ele>
        <time>2018-07-21T07:27:20.000Z</time>
      </trkpt>
      <trkpt lat="43.94078" lon="7.09268">
        <ele>533</ele>
        <time>2018-07-21T07:27:24.000Z</time>
      </trkpt>
      <trkpt lat="43.94083" lon="7.09265">
        <ele>534</ele>
        <time>2018-07-21T07:27:30.000Z</time>
      </trkpt>
      <trkpt lat="43.94088" lon="7.09261">
        <ele>549</ele>
        <time>2018-07-21T07:27:37.000Z</time>
      </trkpt>
      <trkpt lat="43.94089" lon="7.0926">
        <ele>549</ele>
        <time>2018-07-21T07:27:39.000Z</time>
      </trkpt>
      <trkpt lat="43.94092" lon="7.09258">
        <ele>549</ele>
        <time>2018-07-21T07:27:42.000Z</time>
      </trkpt>
      <trkpt lat="43.94097" lon="7.09254">
        <ele>551</ele>
        <time>2018-07-21T07:27:49.000Z</time>
      </trkpt>
      <trkpt lat="43.94098" lon="7.09253">
        <ele>551</ele>
        <time>2018-07-21T07:27:50.000Z</time>
      </trkpt>
      <trkpt lat="43.94103" lon="7.0925">
        <ele>542</ele>
        <time>2018-07-21T07:27:57.000Z</time>
      </trkpt>
      <trkpt lat="43.94106" lon="7.09248">
        <ele>543</ele>
        <time>2018-07-21T07:28:01.000Z</time>
      </trkpt>
      <trkpt lat="43.94108" lon="7.09247">
        <ele>543</ele>
        <time>2018-07-21T07:28:03.000Z</time>
      </trkpt>
      <trkpt lat="43.94111" lon="7.09244">
        <ele>544</ele>
        <time>2018-07-21T07:28:08.000Z</time>
      </trkpt>
      <trkpt lat="43.94112" lon="7.09244">
        <ele>544</ele>
        <time>2018-07-21T07:28:09.000Z</time>
      </trkpt>
      <trkpt lat="43.94117" lon="7.09241">
        <ele>546</ele>
        <time>2018-07-21T07:28:16.000Z</time>
      </trkpt>
      <trkpt lat="43.94119" lon="7.09239">
        <ele>546</ele>
        <time>2018-07-21T07:28:19.000Z</time>
      </trkpt>
      <trkpt lat="43.94123" lon="7.09236">
        <ele>547</ele>
        <time>2018-07-21T07:28:24.000Z</time>
      </trkpt>
      <trkpt lat="43.94126" lon="7.09233">
        <ele>548</ele>
        <time>2018-07-21T07:28:29.000Z</time>
      </trkpt>
      <trkpt lat="43.94127" lon="7.09231">
        <ele>548</ele>
        <time>2018-07-21T07:28:31.000Z</time>
      </trkpt>
      <trkpt lat="43.9413" lon="7.09228">
        <ele>548</ele>
        <time>2018-07-21T07:28:35.000Z</time>
      </trkpt>
      <trkpt lat="43.94133" lon="7.09225">
        <ele>549</ele>
        <time>2018-07-21T07:28:39.000Z</time>
      </trkpt>
      <trkpt lat="43.94135" lon="7.09224">
        <ele>549</ele>
        <time>2018-07-21T07:28:41.000Z</time>
      </trkpt>
      <trkpt lat="43.94138" lon="7.0922">
        <ele>549</ele>
        <time>2018-07-21T07:28:47.000Z</time>
      </trkpt>
      <trkpt lat="43.9414" lon="7.09218">
        <ele>549</ele>
        <time>2018-07-21T07:28:50.000Z</time>
      </trkpt>
      <trkpt lat="43.94144" lon="7.09215">
        <ele>550</ele>
        <time>2018-07-21T07:28:56.000Z</time>
      </trkpt>
      <trkpt lat="43.94146" lon="7.09213">
        <ele>550</ele>
        <time>2018-07-21T07:28:58.000Z</time>
      </trkpt>
      <trkpt lat="43.94151" lon="7.0921">
        <ele>550</ele>
        <time>2018-07-21T07:29:05.000Z</time>
      </trkpt>
      <trkpt lat="43.94152" lon="7.0921">
        <ele>550</ele>
        <time>2018-07-21T07:29:06.000Z</time>
      </trkpt>
      <trkpt lat="43.94155" lon="7.09208">
        <ele>551</ele>
        <time>2018-07-21T07:29:10.000Z</time>
      </trkpt>
      <trkpt lat="43.94158" lon="7.09207">
        <ele>551</ele>
        <time>2018-07-21T07:29:16.000Z</time>
      </trkpt>
      <trkpt lat="43.9416" lon="7.09205">
        <ele>551</ele>
        <time>2018-07-21T07:29:24.000Z</time>
      </trkpt>
      <trkpt lat="43.94163" lon="7.09203">
        <ele>551</ele>
        <time>2018-07-21T07:29:28.000Z</time>
      </trkpt>
      <trkpt lat="43.94167" lon="7.09202">
        <ele>577</ele>
        <time>2018-07-21T07:29:33.000Z</time>
      </trkpt>
      <trkpt lat="43.94168" lon="7.09201">
        <ele>577</ele>
        <time>2018-07-21T07:29:34.000Z</time>
      </trkpt>
      <trkpt lat="43.94172" lon="7.09199">
        <ele>577</ele>
        <time>2018-07-21T07:29:39.000Z</time>
      </trkpt>
      <trkpt lat="43.94174" lon="7.09198">
        <ele>577</ele>
        <time>2018-07-21T07:29:42.000Z</time>
      </trkpt>
      <trkpt lat="43.94176" lon="7.09197">
        <ele>577</ele>
        <time>2018-07-21T07:29:45.000Z</time>
      </trkpt>
      <trkpt lat="43.94178" lon="7.09196">
        <ele>577</ele>
        <time>2018-07-21T07:29:49.000Z</time>
      </trkpt>
      <trkpt lat="43.94179" lon="7.09196">
        <ele>577</ele>
        <time>2018-07-21T07:29:52.000Z</time>
      </trkpt>
      <trkpt lat="43.94179" lon="7.09196">
        <ele>577</ele>
        <time>2018-07-21T07:29:56.000Z</time>
      </trkpt>
      <trkpt lat="43.9418" lon="7.09195">
        <ele>577</ele>
        <time>2018-07-21T07:29:58.000Z</time>
      </trkpt>
      <trkpt lat="43.94184" lon="7.09193">
        <ele>577</ele>
        <time>2018-07-21T07:30:01.000Z</time>
      </trkpt>
      <trkpt lat="43.94191" lon="7.09191">
        <ele>579</ele>
        <time>2018-07-21T07:30:06.000Z</time>
      </trkpt>
      <trkpt lat="43.94193" lon="7.09191">
        <ele>580</ele>
        <time>2018-07-21T07:30:08.000Z</time>
      </trkpt>
      <trkpt lat="43.94197" lon="7.09187">
        <ele>581</ele>
        <time>2018-07-21T07:30:11.000Z</time>
      </trkpt>
      <trkpt lat="43.942" lon="7.09183">
        <ele>581</ele>
        <time>2018-07-21T07:30:14.000Z</time>
      </trkpt>
      <trkpt lat="43.94202" lon="7.09181">
        <ele>582</ele>
        <time>2018-07-21T07:30:16.000Z</time>
      </trkpt>
      <trkpt lat="43.94203" lon="7.0918">
        <ele>582</ele>
        <time>2018-07-21T07:30:19.000Z</time>
      </trkpt>
      <trkpt lat="43.94203" lon="7.0918">
        <ele>582</ele>
        <time>2018-07-21T07:30:20.000Z</time>
      </trkpt>
      <trkpt lat="43.94205" lon="7.09177">
        <ele>583</ele>
        <time>2018-07-21T07:30:25.000Z</time>
      </trkpt>
      <trkpt lat="43.94206" lon="7.09171">
        <ele>583</ele>
        <time>2018-07-21T07:30:29.000Z</time>
      </trkpt>
      <trkpt lat="43.94206" lon="7.09167">
        <ele>583</ele>
        <time>2018-07-21T07:30:31.000Z</time>
      </trkpt>
      <trkpt lat="43.94206" lon="7.09165">
        <ele>576</ele>
        <time>2018-07-21T07:30:32.000Z</time>
      </trkpt>
      <trkpt lat="43.94207" lon="7.09158">
        <ele>576</ele>
        <time>2018-07-21T07:30:37.000Z</time>
      </trkpt>
      <trkpt lat="43.94207" lon="7.09157">
        <ele>576</ele>
        <time>2018-07-21T07:30:38.000Z</time>
      </trkpt>
      <trkpt lat="43.94207" lon="7.09156">
        <ele>576</ele>
        <time>2018-07-21T07:30:42.000Z</time>
      </trkpt>
      <trkpt lat="43.94207" lon="7.09155">
        <ele>576</ele>
        <time>2018-07-21T07:30:43.000Z</time>
      </trkpt>
      <trkpt lat="43.94206" lon="7.09148">
        <ele>576</ele>
        <time>2018-07-21T07:30:51.000Z</time>
      </trkpt>
      <trkpt lat="43.94206" lon="7.09146">
        <ele>576</ele>
        <time>2018-07-21T07:30:52.000Z</time>
      </trkpt>
      <trkpt lat="43.94207" lon="7.0914">
        <ele>575</ele>
        <time>2018-07-21T07:30:59.000Z</time>
      </trkpt>
      <trkpt lat="43.94206" lon="7.0914">
        <ele>575</ele>
        <time>2018-07-21T07:31:00.000Z</time>
      </trkpt>
      <trkpt lat="43.94207" lon="7.09134">
        <ele>575</ele>
        <time>2018-07-21T07:31:06.000Z</time>
      </trkpt>
      <trkpt lat="43.94207" lon="7.09132">
        <ele>575</ele>
        <time>2018-07-21T07:31:07.000Z</time>
      </trkpt>
      <trkpt lat="43.94208" lon="7.09124">
        <ele>575</ele>
        <time>2018-07-21T07:31:11.000Z</time>
      </trkpt>
      <trkpt lat="43.94209" lon="7.09123">
        <ele>575</ele>
        <time>2018-07-21T07:31:12.000Z</time>
      </trkpt>
      <trkpt lat="43.9421" lon="7.09116">
        <ele>575</ele>
        <time>2018-07-21T07:31:16.000Z</time>
      </trkpt>
      <trkpt lat="43.94211" lon="7.09114">
        <ele>576</ele>
        <time>2018-07-21T07:31:17.000Z</time>
      </trkpt>
      <trkpt lat="43.94213" lon="7.0911">
        <ele>576</ele>
        <time>2018-07-21T07:31:22.000Z</time>
      </trkpt>
      <trkpt lat="43.94214" lon="7.0911">
        <ele>576</ele>
        <time>2018-07-21T07:31:23.000Z</time>
      </trkpt>
      <trkpt lat="43.94215" lon="7.09107">
        <ele>577</ele>
        <time>2018-07-21T07:31:27.000Z</time>
      </trkpt>
      <trkpt lat="43.94216" lon="7.09102">
        <ele>578</ele>
        <time>2018-07-21T07:31:31.000Z</time>
      </trkpt>
      <trkpt lat="43.94218" lon="7.09098">
        <ele>578</ele>
        <time>2018-07-21T07:31:35.000Z</time>
      </trkpt>
      <trkpt lat="43.94219" lon="7.09096">
        <ele>579</ele>
        <time>2018-07-21T07:31:37.000Z</time>
      </trkpt>
      <trkpt lat="43.94222" lon="7.09089">
        <ele>581</ele>
        <time>2018-07-21T07:31:44.000Z</time>
      </trkpt>
      <trkpt lat="43.94222" lon="7.09088">
        <ele>581</ele>
        <time>2018-07-21T07:31:46.000Z</time>
      </trkpt>
      <trkpt lat="43.94222" lon="7.09088">
        <ele>581</ele>
        <time>2018-07-21T07:31:49.000Z</time>
      </trkpt>
      <trkpt lat="43.94223" lon="7.09087">
        <ele>581</ele>
        <time>2018-07-21T07:31:51.000Z</time>
      </trkpt>
      <trkpt lat="43.94225" lon="7.09083">
        <ele>583</ele>
        <time>2018-07-21T07:31:54.000Z</time>
      </trkpt>
      <trkpt lat="43.94227" lon="7.0908">
        <ele>576</ele>
        <time>2018-07-21T07:31:57.000Z</time>
      </trkpt>
      <trkpt lat="43.94229" lon="7.09076">
        <ele>577</ele>
        <time>2018-07-21T07:32:00.000Z</time>
      </trkpt>
      <trkpt lat="43.9423" lon="7.09075">
        <ele>577</ele>
        <time>2018-07-21T07:32:01.000Z</time>
      </trkpt>
      <trkpt lat="43.94232" lon="7.09069">
        <ele>577</ele>
        <time>2018-07-21T07:32:05.000Z</time>
      </trkpt>
      <trkpt lat="43.94233" lon="7.09066">
        <ele>577</ele>
        <time>2018-07-21T07:32:07.000Z</time>
      </trkpt>
      <trkpt lat="43.94234" lon="7.09063">
        <ele>576</ele>
        <time>2018-07-21T07:32:09.000Z</time>
      </trkpt>
      <trkpt lat="43.94238" lon="7.09057">
        <ele>575</ele>
        <time>2018-07-21T07:32:14.000Z</time>
      </trkpt>
      <trkpt lat="43.94239" lon="7.09052">
        <ele>574</ele>
        <time>2018-07-21T07:32:19.000Z</time>
      </trkpt>
      <trkpt lat="43.9424" lon="7.09052">
        <ele>574</ele>
        <time>2018-07-21T07:32:20.000Z</time>
      </trkpt>
      <trkpt lat="43.94241" lon="7.09046">
        <ele>573</ele>
        <time>2018-07-21T07:32:26.000Z</time>
      </trkpt>
      <trkpt lat="43.94241" lon="7.09045">
        <ele>573</ele>
        <time>2018-07-21T07:32:27.000Z</time>
      </trkpt>
      <trkpt lat="43.94242" lon="7.09041">
        <ele>572</ele>
        <time>2018-07-21T07:32:31.000Z</time>
      </trkpt>
      <trkpt lat="43.94245" lon="7.09035">
        <ele>572</ele>
        <time>2018-07-21T07:32:37.000Z</time>
      </trkpt>
      <trkpt lat="43.94245" lon="7.09032">
        <ele>572</ele>
        <time>2018-07-21T07:32:42.000Z</time>
      </trkpt>
      <trkpt lat="43.94246" lon="7.09031">
        <ele>572</ele>
        <time>2018-07-21T07:32:43.000Z</time>
      </trkpt>
      <trkpt lat="43.94246" lon="7.09027">
        <ele>572</ele>
        <time>2018-07-21T07:32:48.000Z</time>
      </trkpt>
      <trkpt lat="43.94246" lon="7.09024">
        <ele>573</ele>
        <time>2018-07-21T07:32:51.000Z</time>
      </trkpt>
      <trkpt lat="43.94247" lon="7.09021">
        <ele>573</ele>
        <time>2018-07-21T07:32:57.000Z</time>
      </trkpt>
      <trkpt lat="43.94248" lon="7.09016">
        <ele>575</ele>
        <time>2018-07-21T07:33:03.000Z</time>
      </trkpt>
      <trkpt lat="43.94248" lon="7.09015">
        <ele>575</ele>
        <time>2018-07-21T07:33:04.000Z</time>
      </trkpt>
      <trkpt lat="43.94249" lon="7.09012">
        <ele>576</ele>
        <time>2018-07-21T07:33:10.000Z</time>
      </trkpt>
      <trkpt lat="43.94249" lon="7.09012">
        <ele>577</ele>
        <time>2018-07-21T07:33:12.000Z</time>
      </trkpt>
      <trkpt lat="43.94252" lon="7.09008">
        <ele>590</ele>
        <time>2018-07-21T07:33:19.000Z</time>
      </trkpt>
      <trkpt lat="43.94253" lon="7.09006">
        <ele>589</ele>
        <time>2018-07-21T07:33:22.000Z</time>
      </trkpt>
      <trkpt lat="43.94255" lon="7.09002">
        <ele>588</ele>
        <time>2018-07-21T07:33:27.000Z</time>
      </trkpt>
      <trkpt lat="43.94255" lon="7.09001">
        <ele>588</ele>
        <time>2018-07-21T07:33:29.000Z</time>
      </trkpt>
      <trkpt lat="43.94255" lon="7.09001">
        <ele>588</ele>
        <time>2018-07-21T07:33:32.000Z</time>
      </trkpt>
      <trkpt lat="43.94258" lon="7.08994">
        <ele>588</ele>
        <time>2018-07-21T07:33:37.000Z</time>
      </trkpt>
      <trkpt lat="43.94262" lon="7.08988">
        <ele>590</ele>
        <time>2018-07-21T07:33:41.000Z</time>
      </trkpt>
      <trkpt lat="43.94263" lon="7.08987">
        <ele>590</ele>
        <time>2018-07-21T07:33:42.000Z</time>
      </trkpt>
      <trkpt lat="43.94266" lon="7.08985">
        <ele>591</ele>
        <time>2018-07-21T07:33:45.000Z</time>
      </trkpt>
      <trkpt lat="43.94269" lon="7.08982">
        <ele>592</ele>
        <time>2018-07-21T07:33:48.000Z</time>
      </trkpt>
      <trkpt lat="43.94273" lon="7.0898">
        <ele>593</ele>
        <time>2018-07-21T07:33:51.000Z</time>
      </trkpt>
      <trkpt lat="43.94277" lon="7.08977">
        <ele>594</ele>
        <time>2018-07-21T07:33:55.000Z</time>
      </trkpt>
      <trkpt lat="43.94279" lon="7.08975">
        <ele>595</ele>
        <time>2018-07-21T07:33:57.000Z</time>
      </trkpt>
      <trkpt lat="43.94285" lon="7.0897">
        <ele>596</ele>
        <time>2018-07-21T07:34:03.000Z</time>
      </trkpt>
      <trkpt lat="43.94286" lon="7.0897">
        <ele>596</ele>
        <time>2018-07-21T07:34:04.000Z</time>
      </trkpt>
      <trkpt lat="43.94292" lon="7.08966">
        <ele>598</ele>
        <time>2018-07-21T07:34:10.000Z</time>
      </trkpt>
      <trkpt lat="43.94293" lon="7.08965">
        <ele>598</ele>
        <time>2018-07-21T07:34:11.000Z</time>
      </trkpt>
      <trkpt lat="43.94299" lon="7.08961">
        <ele>599</ele>
        <time>2018-07-21T07:34:16.000Z</time>
      </trkpt>
      <trkpt lat="43.94302" lon="7.08958">
        <ele>600</ele>
        <time>2018-07-21T07:34:20.000Z</time>
      </trkpt>
      <trkpt lat="43.94304" lon="7.08956">
        <ele>600</ele>
        <time>2018-07-21T07:34:23.000Z</time>
      </trkpt>
      <trkpt lat="43.94305" lon="7.08955">
        <ele>600</ele>
        <time>2018-07-21T07:34:25.000Z</time>
      </trkpt>
      <trkpt lat="43.94306" lon="7.08954">
        <ele>600</ele>
        <time>2018-07-21T07:34:28.000Z</time>
      </trkpt>
      <trkpt lat="43.94309" lon="7.08952">
        <ele>601</ele>
        <time>2018-07-21T07:34:33.000Z</time>
      </trkpt>
      <trkpt lat="43.94311" lon="7.08949">
        <ele>601</ele>
        <time>2018-07-21T07:34:38.000Z</time>
      </trkpt>
      <trkpt lat="43.94312" lon="7.08948">
        <ele>602</ele>
        <time>2018-07-21T07:34:39.000Z</time>
      </trkpt>
      <trkpt lat="43.94316" lon="7.08945">
        <ele>602</ele>
        <time>2018-07-21T07:34:44.000Z</time>
      </trkpt>
      <trkpt lat="43.94317" lon="7.08943">
        <ele>603</ele>
        <time>2018-07-21T07:34:47.000Z</time>
      </trkpt>
      <trkpt lat="43.9432" lon="7.0894">
        <ele>603</ele>
        <time>2018-07-21T07:34:51.000Z</time>
      </trkpt>
      <trkpt lat="43.94322" lon="7.08937">
        <ele>604</ele>
        <time>2018-07-21T07:34:55.000Z</time>
      </trkpt>
      <trkpt lat="43.94325" lon="7.08935">
        <ele>605</ele>
        <time>2018-07-21T07:34:59.000Z</time>
      </trkpt>
      <trkpt lat="43.94328" lon="7.08932">
        <ele>606</ele>
        <time>2018-07-21T07:35:05.000Z</time>
      </trkpt>
      <trkpt lat="43.94328" lon="7.08931">
        <ele>607</ele>
        <time>2018-07-21T07:35:06.000Z</time>
      </trkpt>
      <trkpt lat="43.94332" lon="7.08928">
        <ele>608</ele>
        <time>2018-07-21T07:35:13.000Z</time>
      </trkpt>
      <trkpt lat="43.94332" lon="7.08927">
        <ele>608</ele>
        <time>2018-07-21T07:35:14.000Z</time>
      </trkpt>
      <trkpt lat="43.94335" lon="7.08923">
        <ele>615</ele>
        <time>2018-07-21T07:35:20.000Z</time>
      </trkpt>
      <trkpt lat="43.94337" lon="7.08922">
        <ele>615</ele>
        <time>2018-07-21T07:35:23.000Z</time>
      </trkpt>
      <trkpt lat="43.94338" lon="7.0892">
        <ele>615</ele>
        <time>2018-07-21T07:35:26.000Z</time>
      </trkpt>
      <trkpt lat="43.94341" lon="7.08917">
        <ele>615</ele>
        <time>2018-07-21T07:35:32.000Z</time>
      </trkpt>
      <trkpt lat="43.94344" lon="7.08913">
        <ele>616</ele>
        <time>2018-07-21T07:35:38.000Z</time>
      </trkpt>
      <trkpt lat="43.94345" lon="7.08911">
        <ele>616</ele>
        <time>2018-07-21T07:35:41.000Z</time>
      </trkpt>
      <trkpt lat="43.94346" lon="7.08911">
        <ele>617</ele>
        <time>2018-07-21T07:35:43.000Z</time>
      </trkpt>
      <trkpt lat="43.94349" lon="7.08907">
        <ele>617</ele>
        <time>2018-07-21T07:35:49.000Z</time>
      </trkpt>
      <trkpt lat="43.9435" lon="7.08906">
        <ele>617</ele>
        <time>2018-07-21T07:35:50.000Z</time>
      </trkpt>
      <trkpt lat="43.94353" lon="7.08903">
        <ele>618</ele>
        <time>2018-07-21T07:35:55.000Z</time>
      </trkpt>
      <trkpt lat="43.94353" lon="7.08903">
        <ele>618</ele>
        <time>2018-07-21T07:35:58.000Z</time>
      </trkpt>
      <trkpt lat="43.94353" lon="7.08901">
        <ele>618</ele>
        <time>2018-07-21T07:36:02.000Z</time>
      </trkpt>
      <trkpt lat="43.94356" lon="7.08898">
        <ele>618</ele>
        <time>2018-07-21T07:36:05.000Z</time>
      </trkpt>
      <trkpt lat="43.94357" lon="7.08896">
        <ele>618</ele>
        <time>2018-07-21T07:36:06.000Z</time>
      </trkpt>
      <trkpt lat="43.94362" lon="7.08889">
        <ele>619</ele>
        <time>2018-07-21T07:36:12.000Z</time>
      </trkpt>
      <trkpt lat="43.94363" lon="7.08888">
        <ele>619</ele>
        <time>2018-07-21T07:36:13.000Z</time>
      </trkpt>
      <trkpt lat="43.94366" lon="7.08884">
        <ele>620</ele>
        <time>2018-07-21T07:36:17.000Z</time>
      </trkpt>
      <trkpt lat="43.94367" lon="7.08883">
        <ele>620</ele>
        <time>2018-07-21T07:36:18.000Z</time>
      </trkpt>
      <trkpt lat="43.94371" lon="7.08878">
        <ele>620</ele>
        <time>2018-07-21T07:36:22.000Z</time>
      </trkpt>
      <trkpt lat="43.94372" lon="7.08877">
        <ele>620</ele>
        <time>2018-07-21T07:36:23.000Z</time>
      </trkpt>
      <trkpt lat="43.94372" lon="7.08875">
        <ele>620</ele>
        <time>2018-07-21T07:36:24.000Z</time>
      </trkpt>
      <trkpt lat="43.94373" lon="7.08873">
        <ele>620</ele>
        <time>2018-07-21T07:36:26.000Z</time>
      </trkpt>
      <trkpt lat="43.94376" lon="7.08869">
        <ele>621</ele>
        <time>2018-07-21T07:36:30.000Z</time>
      </trkpt>
      <trkpt lat="43.94377" lon="7.08869">
        <ele>621</ele>
        <time>2018-07-21T07:36:32.000Z</time>
      </trkpt>
      <trkpt lat="43.94378" lon="7.08868">
        <ele>621</ele>
        <time>2018-07-21T07:36:34.000Z</time>
      </trkpt>
      <trkpt lat="43.94377" lon="7.08867">
        <ele>621</ele>
        <time>2018-07-21T07:36:40.000Z</time>
      </trkpt>
      <trkpt lat="43.9438" lon="7.08863">
        <ele>621</ele>
        <time>2018-07-21T07:36:49.000Z</time>
      </trkpt>
      <trkpt lat="43.94383" lon="7.08859">
        <ele>622</ele>
        <time>2018-07-21T07:36:53.000Z</time>
      </trkpt>
      <trkpt lat="43.94385" lon="7.08857">
        <ele>623</ele>
        <time>2018-07-21T07:36:55.000Z</time>
      </trkpt>
      <trkpt lat="43.94388" lon="7.08854">
        <ele>624</ele>
        <time>2018-07-21T07:36:58.000Z</time>
      </trkpt>
      <trkpt lat="43.9439" lon="7.08851">
        <ele>625</ele>
        <time>2018-07-21T07:37:02.000Z</time>
      </trkpt>
      <trkpt lat="43.94396" lon="7.08846">
        <ele>627</ele>
        <time>2018-07-21T07:37:07.000Z</time>
      </trkpt>
      <trkpt lat="43.94398" lon="7.08844">
        <ele>628</ele>
        <time>2018-07-21T07:37:09.000Z</time>
      </trkpt>
      <trkpt lat="43.94401" lon="7.08839">
        <ele>630</ele>
        <time>2018-07-21T07:37:12.000Z</time>
      </trkpt>
      <trkpt lat="43.94403" lon="7.08838">
        <ele>632</ele>
        <time>2018-07-21T07:37:14.000Z</time>
      </trkpt>
      <trkpt lat="43.94406" lon="7.08836">
        <ele>633</ele>
        <time>2018-07-21T07:37:17.000Z</time>
      </trkpt>
      <trkpt lat="43.9441" lon="7.08833">
        <ele>632</ele>
        <time>2018-07-21T07:37:20.000Z</time>
      </trkpt>
      <trkpt lat="43.94411" lon="7.08832">
        <ele>633</ele>
        <time>2018-07-21T07:37:21.000Z</time>
      </trkpt>
      <trkpt lat="43.94415" lon="7.08826">
        <ele>632</ele>
        <time>2018-07-21T07:37:25.000Z</time>
      </trkpt>
      <trkpt lat="43.94417" lon="7.08825">
        <ele>642</ele>
        <time>2018-07-21T07:37:27.000Z</time>
      </trkpt>
      <trkpt lat="43.9442" lon="7.08823">
        <ele>642</ele>
        <time>2018-07-21T07:37:29.000Z</time>
      </trkpt>
      <trkpt lat="43.94422" lon="7.0882">
        <ele>642</ele>
        <time>2018-07-21T07:37:32.000Z</time>
      </trkpt>
      <trkpt lat="43.94424" lon="7.08818">
        <ele>642</ele>
        <time>2018-07-21T07:37:34.000Z</time>
      </trkpt>
      <trkpt lat="43.94427" lon="7.08817">
        <ele>642</ele>
        <time>2018-07-21T07:37:37.000Z</time>
      </trkpt>
      <trkpt lat="43.94427" lon="7.08817">
        <ele>642</ele>
        <time>2018-07-21T07:37:39.000Z</time>
      </trkpt>
      <trkpt lat="43.9443" lon="7.08815">
        <ele>643</ele>
        <time>2018-07-21T07:37:43.000Z</time>
      </trkpt>
      <trkpt lat="43.94432" lon="7.08814">
        <ele>643</ele>
        <time>2018-07-21T07:37:46.000Z</time>
      </trkpt>
      <trkpt lat="43.94434" lon="7.08813">
        <ele>643</ele>
        <time>2018-07-21T07:37:50.000Z</time>
      </trkpt>
      <trkpt lat="43.94436" lon="7.08812">
        <ele>643</ele>
        <time>2018-07-21T07:37:53.000Z</time>
      </trkpt>
      <trkpt lat="43.94439" lon="7.08812">
        <ele>643</ele>
        <time>2018-07-21T07:37:58.000Z</time>
      </trkpt>
      <trkpt lat="43.94444" lon="7.0881">
        <ele>644</ele>
        <time>2018-07-21T07:38:04.000Z</time>
      </trkpt>
      <trkpt lat="43.94446" lon="7.08809">
        <ele>644</ele>
        <time>2018-07-21T07:38:06.000Z</time>
      </trkpt>
      <trkpt lat="43.94452" lon="7.08807">
        <ele>645</ele>
        <time>2018-07-21T07:38:11.000Z</time>
      </trkpt>
      <trkpt lat="43.94454" lon="7.08806">
        <ele>645</ele>
        <time>2018-07-21T07:38:12.000Z</time>
      </trkpt>
      <trkpt lat="43.9446" lon="7.08804">
        <ele>646</ele>
        <time>2018-07-21T07:38:17.000Z</time>
      </trkpt>
      <trkpt lat="43.94462" lon="7.08804">
        <ele>646</ele>
        <time>2018-07-21T07:38:19.000Z</time>
      </trkpt>
      <trkpt lat="43.94467" lon="7.08804">
        <ele>647</ele>
        <time>2018-07-21T07:38:23.000Z</time>
      </trkpt>
      <trkpt lat="43.9447" lon="7.08805">
        <ele>647</ele>
        <time>2018-07-21T07:38:25.000Z</time>
      </trkpt>
      <trkpt lat="43.9447" lon="7.08805">
        <ele>647</ele>
        <time>2018-07-21T07:38:26.000Z</time>
      </trkpt>
      <trkpt lat="43.94471" lon="7.08805">
        <ele>647</ele>
        <time>2018-07-21T07:38:31.000Z</time>
      </trkpt>
      <trkpt lat="43.9447" lon="7.08807">
        <ele>647</ele>
        <time>2018-07-21T07:38:42.000Z</time>
      </trkpt>
      <trkpt lat="43.94471" lon="7.08807">
        <ele>647</ele>
        <time>2018-07-21T07:38:49.000Z</time>
      </trkpt>
      <trkpt lat="43.94472" lon="7.08807">
        <ele>647</ele>
        <time>2018-07-21T07:39:03.000Z</time>
      </trkpt>
      <trkpt lat="43.94475" lon="7.08808">
        <ele>647</ele>
        <time>2018-07-21T07:39:10.000Z</time>
      </trkpt>
      <trkpt lat="43.94477" lon="7.08808">
        <ele>647</ele>
        <time>2018-07-21T07:39:11.000Z</time>
      </trkpt>
      <trkpt lat="43.94482" lon="7.08805">
        <ele>648</ele>
        <time>2018-07-21T07:39:15.000Z</time>
      </trkpt>
      <trkpt lat="43.94486" lon="7.08803">
        <ele>649</ele>
        <time>2018-07-21T07:39:17.000Z</time>
      </trkpt>
      <trkpt lat="43.94488" lon="7.08803">
        <ele>649</ele>
        <time>2018-07-21T07:39:18.000Z</time>
      </trkpt>
      <trkpt lat="43.94491" lon="7.08804">
        <ele>649</ele>
        <time>2018-07-21T07:39:21.000Z</time>
      </trkpt>
      <trkpt lat="43.94499" lon="7.08804">
        <ele>649</ele>
        <time>2018-07-21T07:39:25.000Z</time>
      </trkpt>
      <trkpt lat="43.94501" lon="7.08804">
        <ele>656</ele>
        <time>2018-07-21T07:39:26.000Z</time>
      </trkpt>
      <trkpt lat="43.94505" lon="7.08805">
        <ele>656</ele>
        <time>2018-07-21T07:39:29.000Z</time>
      </trkpt>
      <trkpt lat="43.94508" lon="7.08805">
        <ele>656</ele>
        <time>2018-07-21T07:39:30.000Z</time>
      </trkpt>
      <trkpt lat="43.94513" lon="7.08807">
        <ele>655</ele>
        <time>2018-07-21T07:39:33.000Z</time>
      </trkpt>
      <trkpt lat="43.94515" lon="7.0881">
        <ele>654</ele>
        <time>2018-07-21T07:39:35.000Z</time>
      </trkpt>
      <trkpt lat="43.94518" lon="7.08811">
        <ele>654</ele>
        <time>2018-07-21T07:39:37.000Z</time>
      </trkpt>
      <trkpt lat="43.94524" lon="7.08812">
        <ele>654</ele>
        <time>2018-07-21T07:39:40.000Z</time>
      </trkpt>
      <trkpt lat="43.9453" lon="7.08817">
        <ele>653</ele>
        <time>2018-07-21T07:39:44.000Z</time>
      </trkpt>
      <trkpt lat="43.94532" lon="7.08817">
        <ele>653</ele>
        <time>2018-07-21T07:39:45.000Z</time>
      </trkpt>
      <trkpt lat="43.94541" lon="7.0882">
        <ele>652</ele>
        <time>2018-07-21T07:39:51.000Z</time>
      </trkpt>
      <trkpt lat="43.94542" lon="7.08819">
        <ele>652</ele>
        <time>2018-07-21T07:39:52.000Z</time>
      </trkpt>
      <trkpt lat="43.94545" lon="7.08812">
        <ele>653</ele>
        <time>2018-07-21T07:39:55.000Z</time>
      </trkpt>
      <trkpt lat="43.94548" lon="7.08804">
        <ele>654</ele>
        <time>2018-07-21T07:39:59.000Z</time>
      </trkpt>
      <trkpt lat="43.94549" lon="7.08801">
        <ele>655</ele>
        <time>2018-07-21T07:40:01.000Z</time>
      </trkpt>
      <trkpt lat="43.94551" lon="7.08789">
        <ele>659</ele>
        <time>2018-07-21T07:40:07.000Z</time>
      </trkpt>
      <trkpt lat="43.94551" lon="7.08787">
        <ele>660</ele>
        <time>2018-07-21T07:40:08.000Z</time>
      </trkpt>
      <trkpt lat="43.94555" lon="7.08775">
        <ele>663</ele>
        <time>2018-07-21T07:40:14.000Z</time>
      </trkpt>
      <trkpt lat="43.94555" lon="7.08773">
        <ele>664</ele>
        <time>2018-07-21T07:40:15.000Z</time>
      </trkpt>
      <trkpt lat="43.94556" lon="7.0877">
        <ele>665</ele>
        <time>2018-07-21T07:40:17.000Z</time>
      </trkpt>
      <trkpt lat="43.94557" lon="7.08765">
        <ele>666</ele>
        <time>2018-07-21T07:40:20.000Z</time>
      </trkpt>
      <trkpt lat="43.9456" lon="7.08758">
        <ele>669</ele>
        <time>2018-07-21T07:40:25.000Z</time>
      </trkpt>
      <trkpt lat="43.94563" lon="7.08754">
        <ele>671</ele>
        <time>2018-07-21T07:40:29.000Z</time>
      </trkpt>
      <trkpt lat="43.94564" lon="7.08753">
        <ele>671</ele>
        <time>2018-07-21T07:40:30.000Z</time>
      </trkpt>
      <trkpt lat="43.94566" lon="7.08752">
        <ele>672</ele>
        <time>2018-07-21T07:40:31.000Z</time>
      </trkpt>
      <trkpt lat="43.94566" lon="7.08752">
        <ele>673</ele>
        <time>2018-07-21T07:40:33.000Z</time>
      </trkpt>
      <trkpt lat="43.94574" lon="7.08748">
        <ele>689</ele>
        <time>2018-07-21T07:40:37.000Z</time>
      </trkpt>
      <trkpt lat="43.94578" lon="7.08746">
        <ele>688</ele>
        <time>2018-07-21T07:40:40.000Z</time>
      </trkpt>
      <trkpt lat="43.94582" lon="7.08745">
        <ele>688</ele>
        <time>2018-07-21T07:40:44.000Z</time>
      </trkpt>
      <trkpt lat="43.94583" lon="7.08745">
        <ele>688</ele>
        <time>2018-07-21T07:40:45.000Z</time>
      </trkpt>
      <trkpt lat="43.94589" lon="7.08744">
        <ele>687</ele>
        <time>2018-07-21T07:40:50.000Z</time>
      </trkpt>
      <trkpt lat="43.94591" lon="7.08743">
        <ele>688</ele>
        <time>2018-07-21T07:40:51.000Z</time>
      </trkpt>
      <trkpt lat="43.94595" lon="7.08742">
        <ele>688</ele>
        <time>2018-07-21T07:40:54.000Z</time>
      </trkpt>
      <trkpt lat="43.94596" lon="7.08742">
        <ele>688</ele>
        <time>2018-07-21T07:40:55.000Z</time>
      </trkpt>
      <trkpt lat="43.94603" lon="7.08743">
        <ele>687</ele>
        <time>2018-07-21T07:41:00.000Z</time>
      </trkpt>
      <trkpt lat="43.94604" lon="7.08744">
        <ele>687</ele>
        <time>2018-07-21T07:41:01.000Z</time>
      </trkpt>
      <trkpt lat="43.94612" lon="7.08745">
        <ele>686</ele>
        <time>2018-07-21T07:41:07.000Z</time>
      </trkpt>
      <trkpt lat="43.94622" lon="7.0874">
        <ele>684</ele>
        <time>2018-07-21T07:41:12.000Z</time>
      </trkpt>
      <trkpt lat="43.94631" lon="7.08725">
        <ele>685</ele>
        <time>2018-07-21T07:41:19.000Z</time>
      </trkpt>
      <trkpt lat="43.94637" lon="7.08721">
        <ele>684</ele>
        <time>2018-07-21T07:41:21.000Z</time>
      </trkpt>
      <trkpt lat="43.94639" lon="7.08718">
        <ele>685</ele>
        <time>2018-07-21T07:41:22.000Z</time>
      </trkpt>
      <trkpt lat="43.94641" lon="7.08709">
        <ele>688</ele>
        <time>2018-07-21T07:41:25.000Z</time>
      </trkpt>
      <trkpt lat="43.94642" lon="7.08706">
        <ele>689</ele>
        <time>2018-07-21T07:41:26.000Z</time>
      </trkpt>
      <trkpt lat="43.94644" lon="7.08701">
        <ele>691</ele>
        <time>2018-07-21T07:41:28.000Z</time>
      </trkpt>
      <trkpt lat="43.94644" lon="7.08694">
        <ele>693</ele>
        <time>2018-07-21T07:41:31.000Z</time>
      </trkpt>
      <trkpt lat="43.94644" lon="7.08692">
        <ele>694</ele>
        <time>2018-07-21T07:41:32.000Z</time>
      </trkpt>
      <trkpt lat="43.94649" lon="7.08688">
        <ele>695</ele>
        <time>2018-07-21T07:41:35.000Z</time>
      </trkpt>
      <trkpt lat="43.94651" lon="7.08685">
        <ele>696</ele>
        <time>2018-07-21T07:41:37.000Z</time>
      </trkpt>
      <trkpt lat="43.94653" lon="7.08684">
        <ele>696</ele>
        <time>2018-07-21T07:41:38.000Z</time>
      </trkpt>
      <trkpt lat="43.94655" lon="7.08683">
        <ele>697</ele>
        <time>2018-07-21T07:41:39.000Z</time>
      </trkpt>
      <trkpt lat="43.94664" lon="7.08688">
        <ele>695</ele>
        <time>2018-07-21T07:41:43.000Z</time>
      </trkpt>
      <trkpt lat="43.94678" lon="7.08699">
        <ele>670</ele>
        <time>2018-07-21T07:41:49.000Z</time>
      </trkpt>
      <trkpt lat="43.94687" lon="7.08702">
        <ele>667</ele>
        <time>2018-07-21T07:41:53.000Z</time>
      </trkpt>
      <trkpt lat="43.947" lon="7.08698">
        <ele>665</ele>
        <time>2018-07-21T07:41:58.000Z</time>
      </trkpt>
      <trkpt lat="43.94707" lon="7.08688">
        <ele>666</ele>
        <time>2018-07-21T07:42:02.000Z</time>
      </trkpt>
      <trkpt lat="43.94708" lon="7.08686">
        <ele>666</ele>
        <time>2018-07-21T07:42:03.000Z</time>
      </trkpt>
      <trkpt lat="43.9471" lon="7.08681">
        <ele>667</ele>
        <time>2018-07-21T07:42:05.000Z</time>
      </trkpt>
      <trkpt lat="43.94713" lon="7.08674">
        <ele>667</ele>
        <time>2018-07-21T07:42:08.000Z</time>
      </trkpt>
      <trkpt lat="43.94714" lon="7.08671">
        <ele>667</ele>
        <time>2018-07-21T07:42:09.000Z</time>
      </trkpt>
      <trkpt lat="43.94719" lon="7.08661">
        <ele>692</ele>
        <time>2018-07-21T07:42:13.000Z</time>
      </trkpt>
      <trkpt lat="43.94723" lon="7.08652">
        <ele>691</ele>
        <time>2018-07-21T07:42:17.000Z</time>
      </trkpt>
      <trkpt lat="43.94725" lon="7.08648">
        <ele>692</ele>
        <time>2018-07-21T07:42:19.000Z</time>
      </trkpt>
      <trkpt lat="43.94731" lon="7.08636">
        <ele>694</ele>
        <time>2018-07-21T07:42:25.000Z</time>
      </trkpt>
      <trkpt lat="43.94732" lon="7.08634">
        <ele>694</ele>
        <time>2018-07-21T07:42:26.000Z</time>
      </trkpt>
      <trkpt lat="43.94733" lon="7.08629">
        <ele>695</ele>
        <time>2018-07-21T07:42:28.000Z</time>
      </trkpt>
      <trkpt lat="43.94736" lon="7.08623">
        <ele>696</ele>
        <time>2018-07-21T07:42:31.000Z</time>
      </trkpt>
      <trkpt lat="43.94738" lon="7.08618">
        <ele>697</ele>
        <time>2018-07-21T07:42:33.000Z</time>
      </trkpt>
      <trkpt lat="43.94744" lon="7.08609">
        <ele>698</ele>
        <time>2018-07-21T07:42:37.000Z</time>
      </trkpt>
      <trkpt lat="43.9475" lon="7.08597">
        <ele>698</ele>
        <time>2018-07-21T07:42:42.000Z</time>
      </trkpt>
      <trkpt lat="43.94757" lon="7.08585">
        <ele>688</ele>
        <time>2018-07-21T07:42:47.000Z</time>
      </trkpt>
      <trkpt lat="43.94765" lon="7.08576">
        <ele>696</ele>
        <time>2018-07-21T07:42:52.000Z</time>
      </trkpt>
      <trkpt lat="43.94766" lon="7.08575">
        <ele>696</ele>
        <time>2018-07-21T07:42:53.000Z</time>
      </trkpt>
      <trkpt lat="43.94767" lon="7.08573">
        <ele>696</ele>
        <time>2018-07-21T07:42:54.000Z</time>
      </trkpt>
      <trkpt lat="43.94771" lon="7.08568">
        <ele>696</ele>
        <time>2018-07-21T07:42:56.000Z</time>
      </trkpt>
      <trkpt lat="43.94778" lon="7.08558">
        <ele>696</ele>
        <time>2018-07-21T07:43:01.000Z</time>
      </trkpt>
      <trkpt lat="43.94779" lon="7.08556">
        <ele>696</ele>
        <time>2018-07-21T07:43:02.000Z</time>
      </trkpt>
      <trkpt lat="43.94783" lon="7.08551">
        <ele>696</ele>
        <time>2018-07-21T07:43:05.000Z</time>
      </trkpt>
      <trkpt lat="43.94788" lon="7.08545">
        <ele>697</ele>
        <time>2018-07-21T07:43:09.000Z</time>
      </trkpt>
      <trkpt lat="43.9479" lon="7.08544">
        <ele>697</ele>
        <time>2018-07-21T07:43:10.000Z</time>
      </trkpt>
      <trkpt lat="43.94801" lon="7.08536">
        <ele>697</ele>
        <time>2018-07-21T07:43:17.000Z</time>
      </trkpt>
      <trkpt lat="43.94805" lon="7.08533">
        <ele>697</ele>
        <time>2018-07-21T07:43:19.000Z</time>
      </trkpt>
      <trkpt lat="43.94811" lon="7.08529">
        <ele>697</ele>
        <time>2018-07-21T07:43:23.000Z</time>
      </trkpt>
      <trkpt lat="43.94814" lon="7.08527">
        <ele>697</ele>
        <time>2018-07-21T07:43:25.000Z</time>
      </trkpt>
      <trkpt lat="43.9482" lon="7.08523">
        <ele>698</ele>
        <time>2018-07-21T07:43:29.000Z</time>
      </trkpt>
      <trkpt lat="43.94822" lon="7.08521">
        <ele>698</ele>
        <time>2018-07-21T07:43:31.000Z</time>
      </trkpt>
      <trkpt lat="43.94828" lon="7.08518">
        <ele>699</ele>
        <time>2018-07-21T07:43:36.000Z</time>
      </trkpt>
      <trkpt lat="43.9483" lon="7.08517">
        <ele>699</ele>
        <time>2018-07-21T07:43:38.000Z</time>
      </trkpt>
      <trkpt lat="43.94835" lon="7.08514">
        <ele>692</ele>
        <time>2018-07-21T07:43:42.000Z</time>
      </trkpt>
      <trkpt lat="43.94838" lon="7.08511">
        <ele>693</ele>
        <time>2018-07-21T07:43:44.000Z</time>
      </trkpt>
      <trkpt lat="43.94842" lon="7.08509">
        <ele>693</ele>
        <time>2018-07-21T07:43:47.000Z</time>
      </trkpt>
      <trkpt lat="43.94847" lon="7.08506">
        <ele>692</ele>
        <time>2018-07-21T07:43:51.000Z</time>
      </trkpt>
      <trkpt lat="43.9485" lon="7.08502">
        <ele>691</ele>
        <time>2018-07-21T07:43:54.000Z</time>
      </trkpt>
      <trkpt lat="43.94853" lon="7.08496">
        <ele>711</ele>
        <time>2018-07-21T07:43:57.000Z</time>
      </trkpt>
      <trkpt lat="43.94855" lon="7.08495">
        <ele>711</ele>
        <time>2018-07-21T07:43:58.000Z</time>
      </trkpt>
      <trkpt lat="43.94857" lon="7.08492">
        <ele>711</ele>
        <time>2018-07-21T07:44:00.000Z</time>
      </trkpt>
      <trkpt lat="43.94859" lon="7.08489">
        <ele>712</ele>
        <time>2018-07-21T07:44:02.000Z</time>
      </trkpt>
      <trkpt lat="43.94863" lon="7.08487">
        <ele>712</ele>
        <time>2018-07-21T07:44:05.000Z</time>
      </trkpt>
      <trkpt lat="43.94869" lon="7.08484">
        <ele>713</ele>
        <time>2018-07-21T07:44:07.000Z</time>
      </trkpt>
      <trkpt lat="43.94877" lon="7.08479">
        <ele>713</ele>
        <time>2018-07-21T07:44:10.000Z</time>
      </trkpt>
      <trkpt lat="43.94882" lon="7.08478">
        <ele>713</ele>
        <time>2018-07-21T07:44:12.000Z</time>
      </trkpt>
      <trkpt lat="43.94894" lon="7.08471">
        <ele>713</ele>
        <time>2018-07-21T07:44:17.000Z</time>
      </trkpt>
      <trkpt lat="43.94908" lon="7.0847">
        <ele>712</ele>
        <time>2018-07-21T07:44:22.000Z</time>
      </trkpt>
      <trkpt lat="43.94914" lon="7.08472">
        <ele>710</ele>
        <time>2018-07-21T07:44:26.000Z</time>
      </trkpt>
      <trkpt lat="43.94918" lon="7.08473">
        <ele>709</ele>
        <time>2018-07-21T07:44:28.000Z</time>
      </trkpt>
      <trkpt lat="43.94924" lon="7.08477">
        <ele>708</ele>
        <time>2018-07-21T07:44:31.000Z</time>
      </trkpt>
      <trkpt lat="43.94936" lon="7.08483">
        <ele>708</ele>
        <time>2018-07-21T07:44:35.000Z</time>
      </trkpt>
      <trkpt lat="43.94942" lon="7.08485">
        <ele>709</ele>
        <time>2018-07-21T07:44:38.000Z</time>
      </trkpt>
      <trkpt lat="43.94945" lon="7.08486">
        <ele>709</ele>
        <time>2018-07-21T07:44:39.000Z</time>
      </trkpt>
      <trkpt lat="43.94956" lon="7.0849">
        <ele>710</ele>
        <time>2018-07-21T07:44:44.000Z</time>
      </trkpt>
      <trkpt lat="43.94967" lon="7.08497">
        <ele>710</ele>
        <time>2018-07-21T07:44:49.000Z</time>
      </trkpt>
      <trkpt lat="43.94969" lon="7.08496">
        <ele>710</ele>
        <time>2018-07-21T07:44:50.000Z</time>
      </trkpt>
      <trkpt lat="43.94977" lon="7.08498">
        <ele>709</ele>
        <time>2018-07-21T07:44:53.000Z</time>
      </trkpt>
      <trkpt lat="43.94979" lon="7.08499">
        <ele>709</ele>
        <time>2018-07-21T07:44:54.000Z</time>
      </trkpt>
      <trkpt lat="43.9499" lon="7.08502">
        <ele>692</ele>
        <time>2018-07-21T07:44:58.000Z</time>
      </trkpt>
      <trkpt lat="43.94992" lon="7.085">
        <ele>705</ele>
        <time>2018-07-21T07:44:59.000Z</time>
      </trkpt>
      <trkpt lat="43.95003" lon="7.0849">
        <ele>712</ele>
        <time>2018-07-21T07:45:04.000Z</time>
      </trkpt>
      <trkpt lat="43.95015" lon="7.08475">
        <ele>723</ele>
        <time>2018-07-21T07:45:10.000Z</time>
      </trkpt>
      <trkpt lat="43.95024" lon="7.08469">
        <ele>727</ele>
        <time>2018-07-21T07:45:14.000Z</time>
      </trkpt>
      <trkpt lat="43.95029" lon="7.08476">
        <ele>726</ele>
        <time>2018-07-21T07:45:17.000Z</time>
      </trkpt>
      <trkpt lat="43.95033" lon="7.08482">
        <ele>725</ele>
        <time>2018-07-21T07:45:19.000Z</time>
      </trkpt>
      <trkpt lat="43.95039" lon="7.08493">
        <ele>725</ele>
        <time>2018-07-21T07:45:23.000Z</time>
      </trkpt>
      <trkpt lat="43.95044" lon="7.08494">
        <ele>726</ele>
        <time>2018-07-21T07:45:25.000Z</time>
      </trkpt>
      <trkpt lat="43.95049" lon="7.08496">
        <ele>727</ele>
        <time>2018-07-21T07:45:27.000Z</time>
      </trkpt>
      <trkpt lat="43.95054" lon="7.08499">
        <ele>727</ele>
        <time>2018-07-21T07:45:29.000Z</time>
      </trkpt>
      <trkpt lat="43.9506" lon="7.08506">
        <ele>705</ele>
        <time>2018-07-21T07:45:32.000Z</time>
      </trkpt>
      <trkpt lat="43.95063" lon="7.08508">
        <ele>706</ele>
        <time>2018-07-21T07:45:33.000Z</time>
      </trkpt>
      <trkpt lat="43.95078" lon="7.08523">
        <ele>705</ele>
        <time>2018-07-21T07:45:40.000Z</time>
      </trkpt>
      <trkpt lat="43.95086" lon="7.08531">
        <ele>715</ele>
        <time>2018-07-21T07:45:44.000Z</time>
      </trkpt>
      <trkpt lat="43.95092" lon="7.08538">
        <ele>713</ele>
        <time>2018-07-21T07:45:47.000Z</time>
      </trkpt>
      <trkpt lat="43.95104" lon="7.08552">
        <ele>710</ele>
        <time>2018-07-21T07:45:53.000Z</time>
      </trkpt>
      <trkpt lat="43.95119" lon="7.08562">
        <ele>710</ele>
        <time>2018-07-21T07:45:59.000Z</time>
      </trkpt>
      <trkpt lat="43.95136" lon="7.08566">
        <ele>712</ele>
        <time>2018-07-21T07:46:05.000Z</time>
      </trkpt>
      <trkpt lat="43.95149" lon="7.08567">
        <ele>712</ele>
        <time>2018-07-21T07:46:10.000Z</time>
      </trkpt>
      <trkpt lat="43.95166" lon="7.0857">
        <ele>711</ele>
        <time>2018-07-21T07:46:15.000Z</time>
      </trkpt>
      <trkpt lat="43.95183" lon="7.08572">
        <ele>721</ele>
        <time>2018-07-21T07:46:20.000Z</time>
      </trkpt>
      <trkpt lat="43.95184" lon="7.08572">
        <ele>722</ele>
        <time>2018-07-21T07:46:21.000Z</time>
      </trkpt>
      <trkpt lat="43.95201" lon="7.08575">
        <ele>726</ele>
        <time>2018-07-21T07:46:26.000Z</time>
      </trkpt>
      <trkpt lat="43.95214" lon="7.08575">
        <ele>728</ele>
        <time>2018-07-21T07:46:30.000Z</time>
      </trkpt>
      <trkpt lat="43.95221" lon="7.08575">
        <ele>729</ele>
        <time>2018-07-21T07:46:32.000Z</time>
      </trkpt>
      <trkpt lat="43.95234" lon="7.08573">
        <ele>729</ele>
        <time>2018-07-21T07:46:36.000Z</time>
      </trkpt>
      <trkpt lat="43.95246" lon="7.08579">
        <ele>727</ele>
        <time>2018-07-21T07:46:40.000Z</time>
      </trkpt>
      <trkpt lat="43.95247" lon="7.08584">
        <ele>723</ele>
        <time>2018-07-21T07:46:41.000Z</time>
      </trkpt>
      <trkpt lat="43.95249" lon="7.08588">
        <ele>721</ele>
        <time>2018-07-21T07:46:42.000Z</time>
      </trkpt>
      <trkpt lat="43.9525" lon="7.08598">
        <ele>721</ele>
        <time>2018-07-21T07:46:44.000Z</time>
      </trkpt>
      <trkpt lat="43.95251" lon="7.08607">
        <ele>719</ele>
        <time>2018-07-21T07:46:46.000Z</time>
      </trkpt>
      <trkpt lat="43.95252" lon="7.0861">
        <ele>718</ele>
        <time>2018-07-21T07:46:47.000Z</time>
      </trkpt>
      <trkpt lat="43.95255" lon="7.08616">
        <ele>717</ele>
        <time>2018-07-21T07:46:49.000Z</time>
      </trkpt>
      <trkpt lat="43.95265" lon="7.08636">
        <ele>713</ele>
        <time>2018-07-21T07:46:54.000Z</time>
      </trkpt>
      <trkpt lat="43.95268" lon="7.08645">
        <ele>711</ele>
        <time>2018-07-21T07:46:56.000Z</time>
      </trkpt>
      <trkpt lat="43.95274" lon="7.0866">
        <ele>709</ele>
        <time>2018-07-21T07:47:00.000Z</time>
      </trkpt>
      <trkpt lat="43.95275" lon="7.08663">
        <ele>709</ele>
        <time>2018-07-21T07:47:01.000Z</time>
      </trkpt>
      <trkpt lat="43.95277" lon="7.08674">
        <ele>690</ele>
        <time>2018-07-21T07:47:05.000Z</time>
      </trkpt>
      <trkpt lat="43.95279" lon="7.08676">
        <ele>690</ele>
        <time>2018-07-21T07:47:06.000Z</time>
      </trkpt>
      <trkpt lat="43.9528" lon="7.08677">
        <ele>689</ele>
        <time>2018-07-21T07:47:07.000Z</time>
      </trkpt>
      <trkpt lat="43.95289" lon="7.08676">
        <ele>688</ele>
        <time>2018-07-21T07:47:10.000Z</time>
      </trkpt>
      <trkpt lat="43.95299" lon="7.08666">
        <ele>708</ele>
        <time>2018-07-21T07:47:14.000Z</time>
      </trkpt>
      <trkpt lat="43.95307" lon="7.08656">
        <ele>708</ele>
        <time>2018-07-21T07:47:19.000Z</time>
      </trkpt>
      <trkpt lat="43.95312" lon="7.08652">
        <ele>708</ele>
        <time>2018-07-21T07:47:24.000Z</time>
      </trkpt>
      <trkpt lat="43.95317" lon="7.08649">
        <ele>708</ele>
        <time>2018-07-21T07:47:27.000Z</time>
      </trkpt>
      <trkpt lat="43.95322" lon="7.08647">
        <ele>708</ele>
        <time>2018-07-21T07:47:30.000Z</time>
      </trkpt>
      <trkpt lat="43.95334" lon="7.08638">
        <ele>702</ele>
        <time>2018-07-21T07:47:35.000Z</time>
      </trkpt>
      <trkpt lat="43.9534" lon="7.08632">
        <ele>704</ele>
        <time>2018-07-21T07:47:38.000Z</time>
      </trkpt>
      <trkpt lat="43.95344" lon="7.08624">
        <ele>707</ele>
        <time>2018-07-21T07:47:40.000Z</time>
      </trkpt>
      <trkpt lat="43.95358" lon="7.08608">
        <ele>711</ele>
        <time>2018-07-21T07:47:46.000Z</time>
      </trkpt>
      <trkpt lat="43.95368" lon="7.08601">
        <ele>711</ele>
        <time>2018-07-21T07:47:51.000Z</time>
      </trkpt>
      <trkpt lat="43.95369" lon="7.08599">
        <ele>711</ele>
        <time>2018-07-21T07:47:52.000Z</time>
      </trkpt>
      <trkpt lat="43.95377" lon="7.08595">
        <ele>710</ele>
        <time>2018-07-21T07:47:55.000Z</time>
      </trkpt>
      <trkpt lat="43.95386" lon="7.08593">
        <ele>710</ele>
        <time>2018-07-21T07:47:58.000Z</time>
      </trkpt>
      <trkpt lat="43.95398" lon="7.08588">
        <ele>711</ele>
        <time>2018-07-21T07:48:02.000Z</time>
      </trkpt>
      <trkpt lat="43.95413" lon="7.0858">
        <ele>726</ele>
        <time>2018-07-21T07:48:07.000Z</time>
      </trkpt>
      <trkpt lat="43.95421" lon="7.08569">
        <ele>727</ele>
        <time>2018-07-21T07:48:12.000Z</time>
      </trkpt>
      <trkpt lat="43.95422" lon="7.08568">
        <ele>727</ele>
        <time>2018-07-21T07:48:13.000Z</time>
      </trkpt>
      <trkpt lat="43.95429" lon="7.08567">
        <ele>728</ele>
        <time>2018-07-21T07:48:16.000Z</time>
      </trkpt>
      <trkpt lat="43.95431" lon="7.08567">
        <ele>728</ele>
        <time>2018-07-21T07:48:17.000Z</time>
      </trkpt>
      <trkpt lat="43.95436" lon="7.08567">
        <ele>728</ele>
        <time>2018-07-21T07:48:19.000Z</time>
      </trkpt>
      <trkpt lat="43.95447" lon="7.08563">
        <ele>729</ele>
        <time>2018-07-21T07:48:23.000Z</time>
      </trkpt>
      <trkpt lat="43.95464" lon="7.08558">
        <ele>727</ele>
        <time>2018-07-21T07:48:28.000Z</time>
      </trkpt>
      <trkpt lat="43.95478" lon="7.0855">
        <ele>727</ele>
        <time>2018-07-21T07:48:33.000Z</time>
      </trkpt>
      <trkpt lat="43.95487" lon="7.08537">
        <ele>731</ele>
        <time>2018-07-21T07:48:37.000Z</time>
      </trkpt>
      <trkpt lat="43.95491" lon="7.08532">
        <ele>732</ele>
        <time>2018-07-21T07:48:39.000Z</time>
      </trkpt>
      <trkpt lat="43.95496" lon="7.08525">
        <ele>735</ele>
        <time>2018-07-21T07:48:42.000Z</time>
      </trkpt>
      <trkpt lat="43.95502" lon="7.08517">
        <ele>730</ele>
        <time>2018-07-21T07:48:46.000Z</time>
      </trkpt>
      <trkpt lat="43.95505" lon="7.08514">
        <ele>731</ele>
        <time>2018-07-21T07:48:48.000Z</time>
      </trkpt>
      <trkpt lat="43.95509" lon="7.0851">
        <ele>732</ele>
        <time>2018-07-21T07:48:51.000Z</time>
      </trkpt>
      <trkpt lat="43.95519" lon="7.08511">
        <ele>728</ele>
        <time>2018-07-21T07:48:56.000Z</time>
      </trkpt>
      <trkpt lat="43.95522" lon="7.08509">
        <ele>728</ele>
        <time>2018-07-21T07:48:58.000Z</time>
      </trkpt>
      <trkpt lat="43.95526" lon="7.08507">
        <ele>727</ele>
        <time>2018-07-21T07:49:00.000Z</time>
      </trkpt>
      <trkpt lat="43.95536" lon="7.08502">
        <ele>726</ele>
        <time>2018-07-21T07:49:05.000Z</time>
      </trkpt>
      <trkpt lat="43.95542" lon="7.08499">
        <ele>758</ele>
        <time>2018-07-21T07:49:10.000Z</time>
      </trkpt>
      <trkpt lat="43.95552" lon="7.08495">
        <ele>757</ele>
        <time>2018-07-21T07:49:15.000Z</time>
      </trkpt>
      <trkpt lat="43.95564" lon="7.08496">
        <ele>753</ele>
        <time>2018-07-21T07:49:20.000Z</time>
      </trkpt>
      <trkpt lat="43.95573" lon="7.08494">
        <ele>747</ele>
        <time>2018-07-21T07:49:25.000Z</time>
      </trkpt>
      <trkpt lat="43.95575" lon="7.08497">
        <ele>745</ele>
        <time>2018-07-21T07:49:26.000Z</time>
      </trkpt>
      <trkpt lat="43.95579" lon="7.08503">
        <ele>731</ele>
        <time>2018-07-21T07:49:28.000Z</time>
      </trkpt>
      <trkpt lat="43.9558" lon="7.08506">
        <ele>730</ele>
        <time>2018-07-21T07:49:29.000Z</time>
      </trkpt>
      <trkpt lat="43.95585" lon="7.08522">
        <ele>722</ele>
        <time>2018-07-21T07:49:34.000Z</time>
      </trkpt>
      <trkpt lat="43.95584" lon="7.08535">
        <ele>716</ele>
        <time>2018-07-21T07:49:38.000Z</time>
      </trkpt>
      <trkpt lat="43.9558" lon="7.08539">
        <ele>716</ele>
        <time>2018-07-21T07:49:40.000Z</time>
      </trkpt>
      <trkpt lat="43.95575" lon="7.08546">
        <ele>714</ele>
        <time>2018-07-21T07:49:43.000Z</time>
      </trkpt>
      <trkpt lat="43.95576" lon="7.08546">
        <ele>714</ele>
        <time>2018-07-21T07:49:46.000Z</time>
      </trkpt>
      <trkpt lat="43.95578" lon="7.08546">
        <ele>714</ele>
        <time>2018-07-21T07:49:47.000Z</time>
      </trkpt>
      <trkpt lat="43.95586" lon="7.08547">
        <ele>712</ele>
        <time>2018-07-21T07:49:51.000Z</time>
      </trkpt>
      <trkpt lat="43.95589" lon="7.08544">
        <ele>713</ele>
        <time>2018-07-21T07:49:52.000Z</time>
      </trkpt>
      <trkpt lat="43.95602" lon="7.0853">
        <ele>717</ele>
        <time>2018-07-21T07:49:57.000Z</time>
      </trkpt>
      <trkpt lat="43.95605" lon="7.08527">
        <ele>718</ele>
        <time>2018-07-21T07:49:58.000Z</time>
      </trkpt>
      <trkpt lat="43.95618" lon="7.08517">
        <ele>720</ele>
        <time>2018-07-21T07:50:03.000Z</time>
      </trkpt>
      <trkpt lat="43.95634" lon="7.08513">
        <ele>721</ele>
        <time>2018-07-21T07:50:08.000Z</time>
      </trkpt>
      <trkpt lat="43.9564" lon="7.08513">
        <ele>723</ele>
        <time>2018-07-21T07:50:10.000Z</time>
      </trkpt>
      <trkpt lat="43.95648" lon="7.08509">
        <ele>725</ele>
        <time>2018-07-21T07:50:13.000Z</time>
      </trkpt>
      <trkpt lat="43.95658" lon="7.08503">
        <ele>732</ele>
        <time>2018-07-21T07:50:17.000Z</time>
      </trkpt>
      <trkpt lat="43.95673" lon="7.08504">
        <ele>731</ele>
        <time>2018-07-21T07:50:22.000Z</time>
      </trkpt>
      <trkpt lat="43.9569" lon="7.08504">
        <ele>719</ele>
        <time>2018-07-21T07:50:28.000Z</time>
      </trkpt>
      <trkpt lat="43.95704" lon="7.08506">
        <ele>713</ele>
        <time>2018-07-21T07:50:33.000Z</time>
      </trkpt>
      <trkpt lat="43.95709" lon="7.08504">
        <ele>712</ele>
        <time>2018-07-21T07:50:35.000Z</time>
      </trkpt>
      <trkpt lat="43.95714" lon="7.08501">
        <ele>712</ele>
        <time>2018-07-21T07:50:37.000Z</time>
      </trkpt>
      <trkpt lat="43.95716" lon="7.08499">
        <ele>738</ele>
        <time>2018-07-21T07:50:38.000Z</time>
      </trkpt>
      <trkpt lat="43.95719" lon="7.08496">
        <ele>737</ele>
        <time>2018-07-21T07:50:39.000Z</time>
      </trkpt>
      <trkpt lat="43.95732" lon="7.08483">
        <ele>735</ele>
        <time>2018-07-21T07:50:43.000Z</time>
      </trkpt>
      <trkpt lat="43.95745" lon="7.08466">
        <ele>740</ele>
        <time>2018-07-21T07:50:49.000Z</time>
      </trkpt>
      <trkpt lat="43.95753" lon="7.08453">
        <ele>723</ele>
        <time>2018-07-21T07:50:54.000Z</time>
      </trkpt>
      <trkpt lat="43.95758" lon="7.08431">
        <ele>733</ele>
        <time>2018-07-21T07:51:00.000Z</time>
      </trkpt>
      <trkpt lat="43.95759" lon="7.08428">
        <ele>735</ele>
        <time>2018-07-21T07:51:01.000Z</time>
      </trkpt>
      <trkpt lat="43.95766" lon="7.08415">
        <ele>748</ele>
        <time>2018-07-21T07:51:05.000Z</time>
      </trkpt>
      <trkpt lat="43.95771" lon="7.08396">
        <ele>747</ele>
        <time>2018-07-21T07:51:11.000Z</time>
      </trkpt>
      <trkpt lat="43.95772" lon="7.08384">
        <ele>749</ele>
        <time>2018-07-21T07:51:14.000Z</time>
      </trkpt>
      <trkpt lat="43.95775" lon="7.08378">
        <ele>749</ele>
        <time>2018-07-21T07:51:16.000Z</time>
      </trkpt>
      <trkpt lat="43.95783" lon="7.08366">
        <ele>750</ele>
        <time>2018-07-21T07:51:21.000Z</time>
      </trkpt>
      <trkpt lat="43.95785" lon="7.08366">
        <ele>749</ele>
        <time>2018-07-21T07:51:22.000Z</time>
      </trkpt>
      <trkpt lat="43.95789" lon="7.08368">
        <ele>748</ele>
        <time>2018-07-21T07:51:24.000Z</time>
      </trkpt>
      <trkpt lat="43.95799" lon="7.08374">
        <ele>745</ele>
        <time>2018-07-21T07:51:28.000Z</time>
      </trkpt>
      <trkpt lat="43.95801" lon="7.08375">
        <ele>744</ele>
        <time>2018-07-21T07:51:29.000Z</time>
      </trkpt>
      <trkpt lat="43.9581" lon="7.08371">
        <ele>744</ele>
        <time>2018-07-21T07:51:32.000Z</time>
      </trkpt>
      <trkpt lat="43.95813" lon="7.08369">
        <ele>744</ele>
        <time>2018-07-21T07:51:33.000Z</time>
      </trkpt>
      <trkpt lat="43.95829" lon="7.08353">
        <ele>745</ele>
        <time>2018-07-21T07:51:40.000Z</time>
      </trkpt>
      <trkpt lat="43.95835" lon="7.08348">
        <ele>735</ele>
        <time>2018-07-21T07:51:43.000Z</time>
      </trkpt>
      <trkpt lat="43.95842" lon="7.08338">
        <ele>739</ele>
        <time>2018-07-21T07:51:48.000Z</time>
      </trkpt>
      <trkpt lat="43.95842" lon="7.08336">
        <ele>739</ele>
        <time>2018-07-21T07:51:49.000Z</time>
      </trkpt>
      <trkpt lat="43.95845" lon="7.08332">
        <ele>752</ele>
        <time>2018-07-21T07:51:52.000Z</time>
      </trkpt>
      <trkpt lat="43.95847" lon="7.08331">
        <ele>752</ele>
        <time>2018-07-21T07:51:53.000Z</time>
      </trkpt>
      <trkpt lat="43.95851" lon="7.08332">
        <ele>753</ele>
        <time>2018-07-21T07:51:55.000Z</time>
      </trkpt>
      <trkpt lat="43.95856" lon="7.08333">
        <ele>732</ele>
        <time>2018-07-21T07:51:57.000Z</time>
      </trkpt>
      <trkpt lat="43.95863" lon="7.08341">
        <ele>729</ele>
        <time>2018-07-21T07:52:00.000Z</time>
      </trkpt>
      <trkpt lat="43.95874" lon="7.08355">
        <ele>725</ele>
        <time>2018-07-21T07:52:06.000Z</time>
      </trkpt>
      <trkpt lat="43.95882" lon="7.0835">
        <ele>725</ele>
        <time>2018-07-21T07:52:10.000Z</time>
      </trkpt>
      <trkpt lat="43.95884" lon="7.08348">
        <ele>725</ele>
        <time>2018-07-21T07:52:11.000Z</time>
      </trkpt>
      <trkpt lat="43.95887" lon="7.08343">
        <ele>725</ele>
        <time>2018-07-21T07:52:13.000Z</time>
      </trkpt>
      <trkpt lat="43.95893" lon="7.08334">
        <ele>726</ele>
        <time>2018-07-21T07:52:16.000Z</time>
      </trkpt>
      <trkpt lat="43.959" lon="7.08322">
        <ele>748</ele>
        <time>2018-07-21T07:52:20.000Z</time>
      </trkpt>
      <trkpt lat="43.95903" lon="7.08318">
        <ele>749</ele>
        <time>2018-07-21T07:52:22.000Z</time>
      </trkpt>
      <trkpt lat="43.95912" lon="7.08313">
        <ele>749</ele>
        <time>2018-07-21T07:52:26.000Z</time>
      </trkpt>
      <trkpt lat="43.95915" lon="7.08314">
        <ele>749</ele>
        <time>2018-07-21T07:52:27.000Z</time>
      </trkpt>
      <trkpt lat="43.95921" lon="7.08316">
        <ele>745</ele>
        <time>2018-07-21T07:52:30.000Z</time>
      </trkpt>
      <trkpt lat="43.95925" lon="7.08315">
        <ele>746</ele>
        <time>2018-07-21T07:52:32.000Z</time>
      </trkpt>
      <trkpt lat="43.9593" lon="7.08313">
        <ele>748</ele>
        <time>2018-07-21T07:52:34.000Z</time>
      </trkpt>
      <trkpt lat="43.95935" lon="7.08314">
        <ele>749</ele>
        <time>2018-07-21T07:52:36.000Z</time>
      </trkpt>
      <trkpt lat="43.95937" lon="7.08315">
        <ele>749</ele>
        <time>2018-07-21T07:52:37.000Z</time>
      </trkpt>
      <trkpt lat="43.9595" lon="7.08316">
        <ele>751</ele>
        <time>2018-07-21T07:52:42.000Z</time>
      </trkpt>
      <trkpt lat="43.95952" lon="7.08315">
        <ele>751</ele>
        <time>2018-07-21T07:52:43.000Z</time>
      </trkpt>
      <trkpt lat="43.95964" lon="7.08308">
        <ele>753</ele>
        <time>2018-07-21T07:52:47.000Z</time>
      </trkpt>
      <trkpt lat="43.95973" lon="7.08305">
        <ele>754</ele>
        <time>2018-07-21T07:52:51.000Z</time>
      </trkpt>
      <trkpt lat="43.95982" lon="7.08306">
        <ele>753</ele>
        <time>2018-07-21T07:52:55.000Z</time>
      </trkpt>
      <trkpt lat="43.95985" lon="7.08307">
        <ele>753</ele>
        <time>2018-07-21T07:52:56.000Z</time>
      </trkpt>
      <trkpt lat="43.95997" lon="7.08304">
        <ele>753</ele>
        <time>2018-07-21T07:53:00.000Z</time>
      </trkpt>
      <trkpt lat="43.96004" lon="7.08307">
        <ele>760</ele>
        <time>2018-07-21T07:53:02.000Z</time>
      </trkpt>
      <trkpt lat="43.96006" lon="7.08309">
        <ele>759</ele>
        <time>2018-07-21T07:53:03.000Z</time>
      </trkpt>
      <trkpt lat="43.96006" lon="7.08319">
        <ele>753</ele>
        <time>2018-07-21T07:53:07.000Z</time>
      </trkpt>
      <trkpt lat="43.96006" lon="7.08321">
        <ele>752</ele>
        <time>2018-07-21T07:53:08.000Z</time>
      </trkpt>
      <trkpt lat="43.96006" lon="7.08327">
        <ele>749</ele>
        <time>2018-07-21T07:53:10.000Z</time>
      </trkpt>
      <trkpt lat="43.96008" lon="7.08331">
        <ele>748</ele>
        <time>2018-07-21T07:53:12.000Z</time>
      </trkpt>
      <trkpt lat="43.96007" lon="7.08336">
        <ele>737</ele>
        <time>2018-07-21T07:53:15.000Z</time>
      </trkpt>
      <trkpt lat="43.96005" lon="7.08343">
        <ele>736</ele>
        <time>2018-07-21T07:53:17.000Z</time>
      </trkpt>
      <trkpt lat="43.95998" lon="7.08349">
        <ele>728</ele>
        <time>2018-07-21T07:53:21.000Z</time>
      </trkpt>
      <trkpt lat="43.95998" lon="7.08349">
        <ele>728</ele>
        <time>2018-07-21T07:53:23.000Z</time>
      </trkpt>
      <trkpt lat="43.95998" lon="7.08349">
        <ele>728</ele>
        <time>2018-07-21T07:53:24.000Z</time>
      </trkpt>
      <trkpt lat="43.95998" lon="7.08349">
        <ele>727</ele>
        <time>2018-07-21T07:53:25.000Z</time>
      </trkpt>
      <trkpt lat="43.95999" lon="7.0835">
        <ele>727</ele>
        <time>2018-07-21T07:53:26.000Z</time>
      </trkpt>
      <trkpt lat="43.96002" lon="7.08352">
        <ele>734</ele>
        <time>2018-07-21T07:53:28.000Z</time>
      </trkpt>
      <trkpt lat="43.96017" lon="7.0836">
        <ele>732</ele>
        <time>2018-07-21T07:53:32.000Z</time>
      </trkpt>
      <trkpt lat="43.96021" lon="7.08361">
        <ele>732</ele>
        <time>2018-07-21T07:53:33.000Z</time>
      </trkpt>
      <trkpt lat="43.96026" lon="7.08363">
        <ele>732</ele>
        <time>2018-07-21T07:53:34.000Z</time>
      </trkpt>
      <trkpt lat="43.96029" lon="7.08366">
        <ele>732</ele>
        <time>2018-07-21T07:53:35.000Z</time>
      </trkpt>
      <trkpt lat="43.96031" lon="7.08368">
        <ele>732</ele>
        <time>2018-07-21T07:53:36.000Z</time>
      </trkpt>
      <trkpt lat="43.96033" lon="7.08369">
        <ele>731</ele>
        <time>2018-07-21T07:53:38.000Z</time>
      </trkpt>
      <trkpt lat="43.96035" lon="7.0837">
        <ele>731</ele>
        <time>2018-07-21T07:53:39.000Z</time>
      </trkpt>
      <trkpt lat="43.96041" lon="7.08376">
        <ele>731</ele>
        <time>2018-07-21T07:53:41.000Z</time>
      </trkpt>
      <trkpt lat="43.96048" lon="7.08384">
        <ele>730</ele>
        <time>2018-07-21T07:53:43.000Z</time>
      </trkpt>
      <trkpt lat="43.96058" lon="7.0839">
        <ele>730</ele>
        <time>2018-07-21T07:53:45.000Z</time>
      </trkpt>
      <trkpt lat="43.96066" lon="7.08398">
        <ele>728</ele>
        <time>2018-07-21T07:53:47.000Z</time>
      </trkpt>
      <trkpt lat="43.96074" lon="7.08403">
        <ele>727</ele>
        <time>2018-07-21T07:53:49.000Z</time>
      </trkpt>
      <trkpt lat="43.96078" lon="7.08406">
        <ele>726</ele>
        <time>2018-07-21T07:53:50.000Z</time>
      </trkpt>
      <trkpt lat="43.96083" lon="7.08409">
        <ele>725</ele>
        <time>2018-07-21T07:53:51.000Z</time>
      </trkpt>
      <trkpt lat="43.96087" lon="7.08413">
        <ele>728</ele>
        <time>2018-07-21T07:53:52.000Z</time>
      </trkpt>
      <trkpt lat="43.96097" lon="7.08426">
        <ele>723</ele>
        <time>2018-07-21T07:53:55.000Z</time>
      </trkpt>
      <trkpt lat="43.96099" lon="7.08432">
        <ele>722</ele>
        <time>2018-07-21T07:53:56.000Z</time>
      </trkpt>
      <trkpt lat="43.961" lon="7.08443">
        <ele>721</ele>
        <time>2018-07-21T07:53:58.000Z</time>
      </trkpt>
      <trkpt lat="43.96099" lon="7.08449">
        <ele>721</ele>
        <time>2018-07-21T07:53:59.000Z</time>
      </trkpt>
      <trkpt lat="43.96101" lon="7.08459">
        <ele>719</ele>
        <time>2018-07-21T07:54:01.000Z</time>
      </trkpt>
      <trkpt lat="43.96103" lon="7.08467">
        <ele>718</ele>
        <time>2018-07-21T07:54:03.000Z</time>
      </trkpt>
      <trkpt lat="43.96111" lon="7.08475">
        <ele>718</ele>
        <time>2018-07-21T07:54:05.000Z</time>
      </trkpt>
      <trkpt lat="43.96116" lon="7.08478">
        <ele>718</ele>
        <time>2018-07-21T07:54:06.000Z</time>
      </trkpt>
      <trkpt lat="43.9612" lon="7.08479">
        <ele>719</ele>
        <time>2018-07-21T07:54:07.000Z</time>
      </trkpt>
      <trkpt lat="43.96126" lon="7.08478">
        <ele>719</ele>
        <time>2018-07-21T07:54:09.000Z</time>
      </trkpt>
      <trkpt lat="43.96138" lon="7.08475">
        <ele>721</ele>
        <time>2018-07-21T07:54:12.000Z</time>
      </trkpt>
      <trkpt lat="43.96143" lon="7.08477">
        <ele>721</ele>
        <time>2018-07-21T07:54:13.000Z</time>
      </trkpt>
      <trkpt lat="43.96147" lon="7.08481">
        <ele>721</ele>
        <time>2018-07-21T07:54:14.000Z</time>
      </trkpt>
      <trkpt lat="43.96152" lon="7.08486">
        <ele>721</ele>
        <time>2018-07-21T07:54:15.000Z</time>
      </trkpt>
      <trkpt lat="43.96156" lon="7.08491">
        <ele>720</ele>
        <time>2018-07-21T07:54:16.000Z</time>
      </trkpt>
      <trkpt lat="43.9616" lon="7.08495">
        <ele>720</ele>
        <time>2018-07-21T07:54:17.000Z</time>
      </trkpt>
      <trkpt lat="43.96164" lon="7.08501">
        <ele>719</ele>
        <time>2018-07-21T07:54:18.000Z</time>
      </trkpt>
      <trkpt lat="43.96169" lon="7.08507">
        <ele>721</ele>
        <time>2018-07-21T07:54:19.000Z</time>
      </trkpt>
      <trkpt lat="43.96174" lon="7.08511">
        <ele>722</ele>
        <time>2018-07-21T07:54:20.000Z</time>
      </trkpt>
      <trkpt lat="43.96178" lon="7.08514">
        <ele>723</ele>
        <time>2018-07-21T07:54:21.000Z</time>
      </trkpt>
      <trkpt lat="43.96182" lon="7.08517">
        <ele>724</ele>
        <time>2018-07-21T07:54:22.000Z</time>
      </trkpt>
      <trkpt lat="43.96186" lon="7.08516">
        <ele>724</ele>
        <time>2018-07-21T07:54:23.000Z</time>
      </trkpt>
      <trkpt lat="43.96189" lon="7.08515">
        <ele>724</ele>
        <time>2018-07-21T07:54:24.000Z</time>
      </trkpt>
      <trkpt lat="43.96201" lon="7.08513">
        <ele>725</ele>
        <time>2018-07-21T07:54:26.000Z</time>
      </trkpt>
      <trkpt lat="43.96209" lon="7.08513">
        <ele>726</ele>
        <time>2018-07-21T07:54:28.000Z</time>
      </trkpt>
      <trkpt lat="43.9622" lon="7.08515">
        <ele>726</ele>
        <time>2018-07-21T07:54:30.000Z</time>
      </trkpt>
      <trkpt lat="43.96223" lon="7.08517">
        <ele>727</ele>
        <time>2018-07-21T07:54:31.000Z</time>
      </trkpt>
      <trkpt lat="43.96228" lon="7.08518">
        <ele>727</ele>
        <time>2018-07-21T07:54:32.000Z</time>
      </trkpt>
      <trkpt lat="43.96292" lon="7.08506">
        <ele>749</ele>
        <time>2018-07-21T07:58:00.000Z</time>
      </trkpt>
      <trkpt lat="43.96293" lon="7.08506">
        <ele>749</ele>
        <time>2018-07-21T07:58:01.000Z</time>
      </trkpt>
      <trkpt lat="43.96295" lon="7.08505">
        <ele>749</ele>
        <time>2018-07-21T07:58:06.000Z</time>
      </trkpt>
      <trkpt lat="43.96296" lon="7.08503">
        <ele>749</ele>
        <time>2018-07-21T07:58:09.000Z</time>
      </trkpt>
      <trkpt lat="43.96296" lon="7.08502">
        <ele>750</ele>
        <time>2018-07-21T07:58:12.000Z</time>
      </trkpt>
      <trkpt lat="43.96297" lon="7.08498">
        <ele>745</ele>
        <time>2018-07-21T07:58:33.000Z</time>
      </trkpt>
      <trkpt lat="43.96297" lon="7.08496">
        <ele>745</ele>
        <time>2018-07-21T07:58:35.000Z</time>
      </trkpt>
      <trkpt lat="43.96298" lon="7.08495">
        <ele>745</ele>
        <time>2018-07-21T07:58:38.000Z</time>
      </trkpt>
      <trkpt lat="43.96299" lon="7.08492">
        <ele>745</ele>
        <time>2018-07-21T07:58:41.000Z</time>
      </trkpt>
      <trkpt lat="43.96301" lon="7.08489">
        <ele>746</ele>
        <time>2018-07-21T07:58:46.000Z</time>
      </trkpt>
      <trkpt lat="43.96299" lon="7.08489">
        <ele>745</ele>
        <time>2018-07-21T07:58:49.000Z</time>
      </trkpt>
      <trkpt lat="43.96299" lon="7.08489">
        <ele>745</ele>
        <time>2018-07-21T07:58:50.000Z</time>
      </trkpt>
      <trkpt lat="43.96297" lon="7.0849">
        <ele>745</ele>
        <time>2018-07-21T07:58:51.000Z</time>
      </trkpt>
      <trkpt lat="43.96294" lon="7.08492">
        <ele>744</ele>
        <time>2018-07-21T07:58:53.000Z</time>
      </trkpt>
      <trkpt lat="43.96291" lon="7.08494">
        <ele>743</ele>
        <time>2018-07-21T07:58:55.000Z</time>
      </trkpt>
      <trkpt lat="43.96288" lon="7.08496">
        <ele>742</ele>
        <time>2018-07-21T07:58:59.000Z</time>
      </trkpt>
      <trkpt lat="43.96285" lon="7.08494">
        <ele>741</ele>
        <time>2018-07-21T07:59:04.000Z</time>
      </trkpt>
      <trkpt lat="43.96285" lon="7.08493">
        <ele>741</ele>
        <time>2018-07-21T07:59:05.000Z</time>
      </trkpt>
      <trkpt lat="43.96283" lon="7.0849">
        <ele>741</ele>
        <time>2018-07-21T07:59:11.000Z</time>
      </trkpt>
      <trkpt lat="43.96283" lon="7.0849">
        <ele>741</ele>
        <time>2018-07-21T07:59:12.000Z</time>
      </trkpt>
      <trkpt lat="43.96283" lon="7.08486">
        <ele>741</ele>
        <time>2018-07-21T07:59:17.000Z</time>
      </trkpt>
      <trkpt lat="43.96283" lon="7.08485">
        <ele>741</ele>
        <time>2018-07-21T07:59:19.000Z</time>
      </trkpt>
      <trkpt lat="43.96283" lon="7.08482">
        <ele>741</ele>
        <time>2018-07-21T07:59:22.000Z</time>
      </trkpt>
      <trkpt lat="43.96284" lon="7.08478">
        <ele>742</ele>
        <time>2018-07-21T07:59:26.000Z</time>
      </trkpt>
      <trkpt lat="43.96285" lon="7.08476">
        <ele>742</ele>
        <time>2018-07-21T07:59:29.000Z</time>
      </trkpt>
      <trkpt lat="43.96285" lon="7.08475">
        <ele>742</ele>
        <time>2018-07-21T07:59:31.000Z</time>
      </trkpt>
      <trkpt lat="43.96286" lon="7.08469">
        <ele>742</ele>
        <time>2018-07-21T07:59:36.000Z</time>
      </trkpt>
      <trkpt lat="43.96287" lon="7.08466">
        <ele>742</ele>
        <time>2018-07-21T07:59:39.000Z</time>
      </trkpt>
      <trkpt lat="43.96288" lon="7.08464">
        <ele>742</ele>
        <time>2018-07-21T07:59:42.000Z</time>
      </trkpt>
      <trkpt lat="43.9629" lon="7.08458">
        <ele>743</ele>
        <time>2018-07-21T07:59:48.000Z</time>
      </trkpt>
      <trkpt lat="43.9629" lon="7.08459">
        <ele>743</ele>
        <time>2018-07-21T07:59:49.000Z</time>
      </trkpt>
      <trkpt lat="43.96293" lon="7.08453">
        <ele>743</ele>
        <time>2018-07-21T07:59:54.000Z</time>
      </trkpt>
      <trkpt lat="43.96294" lon="7.08451">
        <ele>744</ele>
        <time>2018-07-21T07:59:56.000Z</time>
      </trkpt>
      <trkpt lat="43.96295" lon="7.08449">
        <ele>744</ele>
        <time>2018-07-21T07:59:58.000Z</time>
      </trkpt>
      <trkpt lat="43.96296" lon="7.08448">
        <ele>744</ele>
        <time>2018-07-21T07:59:59.000Z</time>
      </trkpt>
      <trkpt lat="43.96297" lon="7.08446">
        <ele>744</ele>
        <time>2018-07-21T08:00:03.000Z</time>
      </trkpt>
      <trkpt lat="43.96299" lon="7.08446">
        <ele>744</ele>
        <time>2018-07-21T08:00:09.000Z</time>
      </trkpt>
      <trkpt lat="43.96299" lon="7.08445">
        <ele>745</ele>
        <time>2018-07-21T08:00:15.000Z</time>
      </trkpt>
      <trkpt lat="43.96301" lon="7.08441">
        <ele>745</ele>
        <time>2018-07-21T08:00:25.000Z</time>
      </trkpt>
      <trkpt lat="43.96302" lon="7.08437">
        <ele>745</ele>
        <time>2018-07-21T08:00:32.000Z</time>
      </trkpt>
      <trkpt lat="43.96305" lon="7.08431">
        <ele>746</ele>
        <time>2018-07-21T08:00:38.000Z</time>
      </trkpt>
      <trkpt lat="43.96306" lon="7.08429">
        <ele>746</ele>
        <time>2018-07-21T08:00:40.000Z</time>
      </trkpt>
      <trkpt lat="43.96307" lon="7.08428">
        <ele>746</ele>
        <time>2018-07-21T08:00:41.000Z</time>
      </trkpt>
      <trkpt lat="43.96311" lon="7.08423">
        <ele>747</ele>
        <time>2018-07-21T08:00:46.000Z</time>
      </trkpt>
      <trkpt lat="43.96311" lon="7.08422">
        <ele>748</ele>
        <time>2018-07-21T08:00:47.000Z</time>
      </trkpt>
      <trkpt lat="43.96316" lon="7.08416">
        <ele>749</ele>
        <time>2018-07-21T08:00:52.000Z</time>
      </trkpt>
      <trkpt lat="43.96318" lon="7.08413">
        <ele>749</ele>
        <time>2018-07-21T08:00:54.000Z</time>
      </trkpt>
      <trkpt lat="43.96323" lon="7.08407">
        <ele>750</ele>
        <time>2018-07-21T08:00:59.000Z</time>
      </trkpt>
      <trkpt lat="43.96326" lon="7.08404">
        <ele>750</ele>
        <time>2018-07-21T08:01:02.000Z</time>
      </trkpt>
      <trkpt lat="43.96328" lon="7.08402">
        <ele>749</ele>
        <time>2018-07-21T08:01:04.000Z</time>
      </trkpt>
      <trkpt lat="43.9633" lon="7.08401">
        <ele>749</ele>
        <time>2018-07-21T08:01:07.000Z</time>
      </trkpt>
      <trkpt lat="43.9633" lon="7.084">
        <ele>749</ele>
        <time>2018-07-21T08:01:08.000Z</time>
      </trkpt>
      <trkpt lat="43.96331" lon="7.084">
        <ele>749</ele>
        <time>2018-07-21T08:01:09.000Z</time>
      </trkpt>
      <trkpt lat="43.96335" lon="7.08395">
        <ele>757</ele>
        <time>2018-07-21T08:01:14.000Z</time>
      </trkpt>
      <trkpt lat="43.96336" lon="7.08393">
        <ele>758</ele>
        <time>2018-07-21T08:01:16.000Z</time>
      </trkpt>
      <trkpt lat="43.96338" lon="7.0839">
        <ele>758</ele>
        <time>2018-07-21T08:01:19.000Z</time>
      </trkpt>
      <trkpt lat="43.9634" lon="7.08385">
        <ele>757</ele>
        <time>2018-07-21T08:01:23.000Z</time>
      </trkpt>
      <trkpt lat="43.9634" lon="7.08384">
        <ele>757</ele>
        <time>2018-07-21T08:01:24.000Z</time>
      </trkpt>
      <trkpt lat="43.96341" lon="7.08383">
        <ele>757</ele>
        <time>2018-07-21T08:01:25.000Z</time>
      </trkpt>
      <trkpt lat="43.96344" lon="7.08381">
        <ele>757</ele>
        <time>2018-07-21T08:01:28.000Z</time>
      </trkpt>
      <trkpt lat="43.96345" lon="7.08381">
        <ele>757</ele>
        <time>2018-07-21T08:01:29.000Z</time>
      </trkpt>
      <trkpt lat="43.96348" lon="7.08378">
        <ele>757</ele>
        <time>2018-07-21T08:01:33.000Z</time>
      </trkpt>
      <trkpt lat="43.96349" lon="7.08378">
        <ele>757</ele>
        <time>2018-07-21T08:01:35.000Z</time>
      </trkpt>
      <trkpt lat="43.96352" lon="7.08378">
        <ele>758</ele>
        <time>2018-07-21T08:01:38.000Z</time>
      </trkpt>
      <trkpt lat="43.96353" lon="7.08377">
        <ele>758</ele>
        <time>2018-07-21T08:01:39.000Z</time>
      </trkpt>
      <trkpt lat="43.96354" lon="7.08377">
        <ele>758</ele>
        <time>2018-07-21T08:01:40.000Z</time>
      </trkpt>
      <trkpt lat="43.96359" lon="7.08375">
        <ele>758</ele>
        <time>2018-07-21T08:01:45.000Z</time>
      </trkpt>
      <trkpt lat="43.96362" lon="7.08374">
        <ele>758</ele>
        <time>2018-07-21T08:01:48.000Z</time>
      </trkpt>
      <trkpt lat="43.96364" lon="7.08372">
        <ele>758</ele>
        <time>2018-07-21T08:01:50.000Z</time>
      </trkpt>
      <trkpt lat="43.96369" lon="7.0837">
        <ele>759</ele>
        <time>2018-07-21T08:01:55.000Z</time>
      </trkpt>
      <trkpt lat="43.96373" lon="7.08368">
        <ele>759</ele>
        <time>2018-07-21T08:01:58.000Z</time>
      </trkpt>
      <trkpt lat="43.96377" lon="7.08367">
        <ele>760</ele>
        <time>2018-07-21T08:02:02.000Z</time>
      </trkpt>
      <trkpt lat="43.9638" lon="7.08366">
        <ele>760</ele>
        <time>2018-07-21T08:02:05.000Z</time>
      </trkpt>
      <trkpt lat="43.96385" lon="7.08364">
        <ele>760</ele>
        <time>2018-07-21T08:02:09.000Z</time>
      </trkpt>
      <trkpt lat="43.9639" lon="7.08362">
        <ele>760</ele>
        <time>2018-07-21T08:02:13.000Z</time>
      </trkpt>
      <trkpt lat="43.96395" lon="7.08359">
        <ele>760</ele>
        <time>2018-07-21T08:02:17.000Z</time>
      </trkpt>
      <trkpt lat="43.96403" lon="7.08353">
        <ele>758</ele>
        <time>2018-07-21T08:02:24.000Z</time>
      </trkpt>
      <trkpt lat="43.96406" lon="7.08351">
        <ele>758</ele>
        <time>2018-07-21T08:02:26.000Z</time>
      </trkpt>
      <trkpt lat="43.9641" lon="7.08351">
        <ele>758</ele>
        <time>2018-07-21T08:02:29.000Z</time>
      </trkpt>
      <trkpt lat="43.96417" lon="7.08353">
        <ele>771</ele>
        <time>2018-07-21T08:02:35.000Z</time>
      </trkpt>
      <trkpt lat="43.96418" lon="7.08354">
        <ele>772</ele>
        <time>2018-07-21T08:02:36.000Z</time>
      </trkpt>
      <trkpt lat="43.96424" lon="7.08357">
        <ele>775</ele>
        <time>2018-07-21T08:02:41.000Z</time>
      </trkpt>
      <trkpt lat="43.96425" lon="7.08359">
        <ele>775</ele>
        <time>2018-07-21T08:02:42.000Z</time>
      </trkpt>
      <trkpt lat="43.96427" lon="7.0836">
        <ele>777</ele>
        <time>2018-07-21T08:02:45.000Z</time>
      </trkpt>
      <trkpt lat="43.96428" lon="7.08361">
        <ele>777</ele>
        <time>2018-07-21T08:02:47.000Z</time>
      </trkpt>
      <trkpt lat="43.96429" lon="7.08361">
        <ele>777</ele>
        <time>2018-07-21T08:02:50.000Z</time>
      </trkpt>
      <trkpt lat="43.96429" lon="7.0836">
        <ele>777</ele>
        <time>2018-07-21T08:02:54.000Z</time>
      </trkpt>
      <trkpt lat="43.96435" lon="7.0836">
        <ele>778</ele>
        <time>2018-07-21T08:03:00.000Z</time>
      </trkpt>
      <trkpt lat="43.96439" lon="7.08358">
        <ele>779</ele>
        <time>2018-07-21T08:03:03.000Z</time>
      </trkpt>
      <trkpt lat="43.96445" lon="7.08357">
        <ele>780</ele>
        <time>2018-07-21T08:03:08.000Z</time>
      </trkpt>
      <trkpt lat="43.96446" lon="7.08357">
        <ele>780</ele>
        <time>2018-07-21T08:03:09.000Z</time>
      </trkpt>
      <trkpt lat="43.96458" lon="7.08352">
        <ele>782</ele>
        <time>2018-07-21T08:03:17.000Z</time>
      </trkpt>
      <trkpt lat="43.96463" lon="7.08351">
        <ele>783</ele>
        <time>2018-07-21T08:03:20.000Z</time>
      </trkpt>
      <trkpt lat="43.96468" lon="7.0835">
        <ele>783</ele>
        <time>2018-07-21T08:03:23.000Z</time>
      </trkpt>
      <trkpt lat="43.96475" lon="7.08348">
        <ele>783</ele>
        <time>2018-07-21T08:03:28.000Z</time>
      </trkpt>
      <trkpt lat="43.96478" lon="7.08348">
        <ele>783</ele>
        <time>2018-07-21T08:03:30.000Z</time>
      </trkpt>
      <trkpt lat="43.96483" lon="7.08347">
        <ele>783</ele>
        <time>2018-07-21T08:03:34.000Z</time>
      </trkpt>
      <trkpt lat="43.96488" lon="7.08345">
        <ele>782</ele>
        <time>2018-07-21T08:03:38.000Z</time>
      </trkpt>
      <trkpt lat="43.96489" lon="7.08344">
        <ele>782</ele>
        <time>2018-07-21T08:03:39.000Z</time>
      </trkpt>
      <trkpt lat="43.96497" lon="7.08343">
        <ele>781</ele>
        <time>2018-07-21T08:03:45.000Z</time>
      </trkpt>
      <trkpt lat="43.965" lon="7.08343">
        <ele>781</ele>
        <time>2018-07-21T08:03:47.000Z</time>
      </trkpt>
      <trkpt lat="43.965" lon="7.08342">
        <ele>788</ele>
        <time>2018-07-21T08:03:48.000Z</time>
      </trkpt>
      <trkpt lat="43.96505" lon="7.08342">
        <ele>788</ele>
        <time>2018-07-21T08:03:52.000Z</time>
      </trkpt>
      <trkpt lat="43.9651" lon="7.08341">
        <ele>791</ele>
        <time>2018-07-21T08:03:57.000Z</time>
      </trkpt>
      <trkpt lat="43.9651" lon="7.08341">
        <ele>791</ele>
        <time>2018-07-21T08:03:58.000Z</time>
      </trkpt>
      <trkpt lat="43.96513" lon="7.08341">
        <ele>792</ele>
        <time>2018-07-21T08:04:03.000Z</time>
      </trkpt>
      <trkpt lat="43.96514" lon="7.08341">
        <ele>793</ele>
        <time>2018-07-21T08:04:06.000Z</time>
      </trkpt>
      <trkpt lat="43.96516" lon="7.0834">
        <ele>794</ele>
        <time>2018-07-21T08:04:10.000Z</time>
      </trkpt>
      <trkpt lat="43.96516" lon="7.08341">
        <ele>794</ele>
        <time>2018-07-21T08:04:12.000Z</time>
      </trkpt>
      <trkpt lat="43.96516" lon="7.08341">
        <ele>794</ele>
        <time>2018-07-21T08:04:14.000Z</time>
      </trkpt>
      <trkpt lat="43.96517" lon="7.0834">
        <ele>795</ele>
        <time>2018-07-21T08:04:18.000Z</time>
      </trkpt>
      <trkpt lat="43.96518" lon="7.0834">
        <ele>795</ele>
        <time>2018-07-21T08:04:19.000Z</time>
      </trkpt>
      <trkpt lat="43.96519" lon="7.08341">
        <ele>796</ele>
        <time>2018-07-21T08:04:24.000Z</time>
      </trkpt>
      <trkpt lat="43.96519" lon="7.08341">
        <ele>796</ele>
        <time>2018-07-21T08:04:25.000Z</time>
      </trkpt>
      <trkpt lat="43.96523" lon="7.08344">
        <ele>798</ele>
        <time>2018-07-21T08:04:30.000Z</time>
      </trkpt>
      <trkpt lat="43.96524" lon="7.08344">
        <ele>799</ele>
        <time>2018-07-21T08:04:33.000Z</time>
      </trkpt>
      <trkpt lat="43.96526" lon="7.08345">
        <ele>800</ele>
        <time>2018-07-21T08:04:37.000Z</time>
      </trkpt>
      <trkpt lat="43.96525" lon="7.08349">
        <ele>801</ele>
        <time>2018-07-21T08:04:49.000Z</time>
      </trkpt>
      <trkpt lat="43.96546" lon="7.08352">
        <ele>806</ele>
        <time>2018-07-21T08:05:41.000Z</time>
      </trkpt>
      <trkpt lat="43.96548" lon="7.08351">
        <ele>806</ele>
        <time>2018-07-21T08:05:44.000Z</time>
      </trkpt>
      <trkpt lat="43.96551" lon="7.0835">
        <ele>806</ele>
        <time>2018-07-21T08:05:49.000Z</time>
      </trkpt>
      <trkpt lat="43.96551" lon="7.08351">
        <ele>806</ele>
        <time>2018-07-21T08:05:50.000Z</time>
      </trkpt>
      <trkpt lat="43.96552" lon="7.08351">
        <ele>806</ele>
        <time>2018-07-21T08:05:52.000Z</time>
      </trkpt>
      <trkpt lat="43.96555" lon="7.08351">
        <ele>807</ele>
        <time>2018-07-21T08:05:55.000Z</time>
      </trkpt>
      <trkpt lat="43.96556" lon="7.08352">
        <ele>807</ele>
        <time>2018-07-21T08:05:56.000Z</time>
      </trkpt>
      <trkpt lat="43.96561" lon="7.08353">
        <ele>807</ele>
        <time>2018-07-21T08:06:03.000Z</time>
      </trkpt>
      <trkpt lat="43.96565" lon="7.08352">
        <ele>807</ele>
        <time>2018-07-21T08:06:09.000Z</time>
      </trkpt>
      <trkpt lat="43.96567" lon="7.08352">
        <ele>807</ele>
        <time>2018-07-21T08:06:16.000Z</time>
      </trkpt>
      <trkpt lat="43.96571" lon="7.08353">
        <ele>807</ele>
        <time>2018-07-21T08:06:23.000Z</time>
      </trkpt>
      <trkpt lat="43.96574" lon="7.08354">
        <ele>807</ele>
        <time>2018-07-21T08:06:26.000Z</time>
      </trkpt>
      <trkpt lat="43.96577" lon="7.08355">
        <ele>807</ele>
        <time>2018-07-21T08:06:29.000Z</time>
      </trkpt>
      <trkpt lat="43.96585" lon="7.08357">
        <ele>814</ele>
        <time>2018-07-21T08:06:35.000Z</time>
      </trkpt>
      <trkpt lat="43.9659" lon="7.08359">
        <ele>815</ele>
        <time>2018-07-21T08:06:38.000Z</time>
      </trkpt>
      <trkpt lat="43.96593" lon="7.0836">
        <ele>816</ele>
        <time>2018-07-21T08:06:40.000Z</time>
      </trkpt>
      <trkpt lat="43.96598" lon="7.08361">
        <ele>816</ele>
        <time>2018-07-21T08:06:43.000Z</time>
      </trkpt>
      <trkpt lat="43.96602" lon="7.08362">
        <ele>817</ele>
        <time>2018-07-21T08:06:46.000Z</time>
      </trkpt>
      <trkpt lat="43.96614" lon="7.08363">
        <ele>818</ele>
        <time>2018-07-21T08:06:52.000Z</time>
      </trkpt>
      <trkpt lat="43.96629" lon="7.08365">
        <ele>819</ele>
        <time>2018-07-21T08:06:57.000Z</time>
      </trkpt>
      <trkpt lat="43.96636" lon="7.08365">
        <ele>819</ele>
        <time>2018-07-21T08:06:59.000Z</time>
      </trkpt>
      <trkpt lat="43.96658" lon="7.08366">
        <ele>819</ele>
        <time>2018-07-21T08:07:05.000Z</time>
      </trkpt>
      <trkpt lat="43.96676" lon="7.0837">
        <ele>822</ele>
        <time>2018-07-21T08:07:10.000Z</time>
      </trkpt>
      <trkpt lat="43.96681" lon="7.0837">
        <ele>822</ele>
        <time>2018-07-21T08:07:12.000Z</time>
      </trkpt>
      <trkpt lat="43.96687" lon="7.08368">
        <ele>822</ele>
        <time>2018-07-21T08:07:14.000Z</time>
      </trkpt>
      <trkpt lat="43.96707" lon="7.08366">
        <ele>822</ele>
        <time>2018-07-21T08:07:21.000Z</time>
      </trkpt>
      <trkpt lat="43.96709" lon="7.08366">
        <ele>822</ele>
        <time>2018-07-21T08:07:22.000Z</time>
      </trkpt>
      <trkpt lat="43.9672" lon="7.08364">
        <ele>822</ele>
        <time>2018-07-21T08:07:27.000Z</time>
      </trkpt>
      <trkpt lat="43.96738" lon="7.08359">
        <ele>820</ele>
        <time>2018-07-21T08:07:35.000Z</time>
      </trkpt>
      <trkpt lat="43.9674" lon="7.08358">
        <ele>819</ele>
        <time>2018-07-21T08:07:36.000Z</time>
      </trkpt>
      <trkpt lat="43.96753" lon="7.08353">
        <ele>816</ele>
        <time>2018-07-21T08:07:41.000Z</time>
      </trkpt>
      <trkpt lat="43.96754" lon="7.08353">
        <ele>815</ele>
        <time>2018-07-21T08:07:42.000Z</time>
      </trkpt>
      <trkpt lat="43.9677" lon="7.08351">
        <ele>816</ele>
        <time>2018-07-21T08:07:48.000Z</time>
      </trkpt>
      <trkpt lat="43.96773" lon="7.08351">
        <ele>816</ele>
        <time>2018-07-21T08:07:49.000Z</time>
      </trkpt>
      <trkpt lat="43.96789" lon="7.08356">
        <ele>818</ele>
        <time>2018-07-21T08:07:56.000Z</time>
      </trkpt>
      <trkpt lat="43.96804" lon="7.0837">
        <ele>819</ele>
        <time>2018-07-21T08:08:03.000Z</time>
      </trkpt>
      <trkpt lat="43.96805" lon="7.08372">
        <ele>819</ele>
        <time>2018-07-21T08:08:04.000Z</time>
      </trkpt>
      <trkpt lat="43.96812" lon="7.08389">
        <ele>822</ele>
        <time>2018-07-21T08:08:10.000Z</time>
      </trkpt>
      <trkpt lat="43.96813" lon="7.08396">
        <ele>823</ele>
        <time>2018-07-21T08:08:15.000Z</time>
      </trkpt>
      <trkpt lat="43.96814" lon="7.08401">
        <ele>824</ele>
        <time>2018-07-21T08:08:21.000Z</time>
      </trkpt>
      <trkpt lat="43.96816" lon="7.08403">
        <ele>825</ele>
        <time>2018-07-21T08:08:23.000Z</time>
      </trkpt>
      <trkpt lat="43.96817" lon="7.08402">
        <ele>825</ele>
        <time>2018-07-21T08:08:30.000Z</time>
      </trkpt>
      <trkpt lat="43.96821" lon="7.08398">
        <ele>824</ele>
        <time>2018-07-21T08:08:37.000Z</time>
      </trkpt>
      <trkpt lat="43.96825" lon="7.08392">
        <ele>823</ele>
        <time>2018-07-21T08:08:43.000Z</time>
      </trkpt>
      <trkpt lat="43.96829" lon="7.08386">
        <ele>822</ele>
        <time>2018-07-21T08:08:47.000Z</time>
      </trkpt>
      <trkpt lat="43.96832" lon="7.08385">
        <ele>821</ele>
        <time>2018-07-21T08:08:49.000Z</time>
      </trkpt>
      <trkpt lat="43.96843" lon="7.08389">
        <ele>822</ele>
        <time>2018-07-21T08:08:55.000Z</time>
      </trkpt>
      <trkpt lat="43.96855" lon="7.08403">
        <ele>823</ele>
        <time>2018-07-21T08:09:03.000Z</time>
      </trkpt>
      <trkpt lat="43.96857" lon="7.08406">
        <ele>823</ele>
        <time>2018-07-21T08:09:06.000Z</time>
      </trkpt>
      <trkpt lat="43.96858" lon="7.08407">
        <ele>823</ele>
        <time>2018-07-21T08:09:07.000Z</time>
      </trkpt>
      <trkpt lat="43.9686" lon="7.08408">
        <ele>823</ele>
        <time>2018-07-21T08:09:09.000Z</time>
      </trkpt>
      <trkpt lat="43.96873" lon="7.08412">
        <ele>823</ele>
        <time>2018-07-21T08:09:16.000Z</time>
      </trkpt>
      <trkpt lat="43.96885" lon="7.08418">
        <ele>837</ele>
        <time>2018-07-21T08:09:20.000Z</time>
      </trkpt>
      <trkpt lat="43.96888" lon="7.08418">
        <ele>836</ele>
        <time>2018-07-21T08:09:21.000Z</time>
      </trkpt>
      <trkpt lat="43.96901" lon="7.08421">
        <ele>833</ele>
        <time>2018-07-21T08:09:25.000Z</time>
      </trkpt>
      <trkpt lat="43.96919" lon="7.08427">
        <ele>832</ele>
        <time>2018-07-21T08:09:31.000Z</time>
      </trkpt>
      <trkpt lat="43.96936" lon="7.08426">
        <ele>836</ele>
        <time>2018-07-21T08:09:37.000Z</time>
      </trkpt>
      <trkpt lat="43.9695" lon="7.08418">
        <ele>838</ele>
        <time>2018-07-21T08:09:42.000Z</time>
      </trkpt>
      <trkpt lat="43.96957" lon="7.08417">
        <ele>839</ele>
        <time>2018-07-21T08:09:46.000Z</time>
      </trkpt>
      <trkpt lat="43.9696" lon="7.08415">
        <ele>833</ele>
        <time>2018-07-21T08:09:48.000Z</time>
      </trkpt>
      <trkpt lat="43.96965" lon="7.08411">
        <ele>834</ele>
        <time>2018-07-21T08:09:51.000Z</time>
      </trkpt>
      <trkpt lat="43.96969" lon="7.08408">
        <ele>834</ele>
        <time>2018-07-21T08:09:53.000Z</time>
      </trkpt>
      <trkpt lat="43.96972" lon="7.08406">
        <ele>835</ele>
        <time>2018-07-21T08:09:55.000Z</time>
      </trkpt>
      <trkpt lat="43.96975" lon="7.08403">
        <ele>835</ele>
        <time>2018-07-21T08:09:58.000Z</time>
      </trkpt>
      <trkpt lat="43.9698" lon="7.08398">
        <ele>836</ele>
        <time>2018-07-21T08:10:02.000Z</time>
      </trkpt>
      <trkpt lat="43.96984" lon="7.08395">
        <ele>836</ele>
        <time>2018-07-21T08:10:05.000Z</time>
      </trkpt>
      <trkpt lat="43.96992" lon="7.08393">
        <ele>836</ele>
        <time>2018-07-21T08:10:09.000Z</time>
      </trkpt>
      <trkpt lat="43.96995" lon="7.08393">
        <ele>837</ele>
        <time>2018-07-21T08:10:11.000Z</time>
      </trkpt>
      <trkpt lat="43.96996" lon="7.08394">
        <ele>837</ele>
        <time>2018-07-21T08:10:12.000Z</time>
      </trkpt>
      <trkpt lat="43.97005" lon="7.08395">
        <ele>846</ele>
        <time>2018-07-21T08:10:18.000Z</time>
      </trkpt>
      <trkpt lat="43.97008" lon="7.08397">
        <ele>846</ele>
        <time>2018-07-21T08:10:20.000Z</time>
      </trkpt>
      <trkpt lat="43.97009" lon="7.08399">
        <ele>846</ele>
        <time>2018-07-21T08:10:21.000Z</time>
      </trkpt>
      <trkpt lat="43.97011" lon="7.08401">
        <ele>846</ele>
        <time>2018-07-21T08:10:23.000Z</time>
      </trkpt>
      <trkpt lat="43.97012" lon="7.08403">
        <ele>845</ele>
        <time>2018-07-21T08:10:24.000Z</time>
      </trkpt>
      <trkpt lat="43.97014" lon="7.08408">
        <ele>845</ele>
        <time>2018-07-21T08:10:27.000Z</time>
      </trkpt>
      <trkpt lat="43.97018" lon="7.08415">
        <ele>845</ele>
        <time>2018-07-21T08:10:31.000Z</time>
      </trkpt>
      <trkpt lat="43.97026" lon="7.08429">
        <ele>845</ele>
        <time>2018-07-21T08:10:37.000Z</time>
      </trkpt>
      <trkpt lat="43.97038" lon="7.08447">
        <ele>848</ele>
        <time>2018-07-21T08:10:45.000Z</time>
      </trkpt>
      <trkpt lat="43.9704" lon="7.08449">
        <ele>848</ele>
        <time>2018-07-21T08:10:46.000Z</time>
      </trkpt>
      <trkpt lat="43.97048" lon="7.08456">
        <ele>849</ele>
        <time>2018-07-21T08:10:51.000Z</time>
      </trkpt>
      <trkpt lat="43.97053" lon="7.08458">
        <ele>849</ele>
        <time>2018-07-21T08:10:54.000Z</time>
      </trkpt>
      <trkpt lat="43.97056" lon="7.08459">
        <ele>849</ele>
        <time>2018-07-21T08:10:56.000Z</time>
      </trkpt>
      <trkpt lat="43.97062" lon="7.08464">
        <ele>850</ele>
        <time>2018-07-21T08:10:59.000Z</time>
      </trkpt>
      <trkpt lat="43.97064" lon="7.08466">
        <ele>850</ele>
        <time>2018-07-21T08:11:00.000Z</time>
      </trkpt>
      <trkpt lat="43.97067" lon="7.08469">
        <ele>850</ele>
        <time>2018-07-21T08:11:03.000Z</time>
      </trkpt>
      <trkpt lat="43.97069" lon="7.08469">
        <ele>850</ele>
        <time>2018-07-21T08:11:04.000Z</time>
      </trkpt>
      <trkpt lat="43.97078" lon="7.08474">
        <ele>850</ele>
        <time>2018-07-21T08:11:12.000Z</time>
      </trkpt>
      <trkpt lat="43.97085" lon="7.08476">
        <ele>857</ele>
        <time>2018-07-21T08:11:18.000Z</time>
      </trkpt>
      <trkpt lat="43.97086" lon="7.08476">
        <ele>857</ele>
        <time>2018-07-21T08:11:19.000Z</time>
      </trkpt>
      <trkpt lat="43.97091" lon="7.08478">
        <ele>857</ele>
        <time>2018-07-21T08:11:24.000Z</time>
      </trkpt>
      <trkpt lat="43.97092" lon="7.08478">
        <ele>857</ele>
        <time>2018-07-21T08:11:25.000Z</time>
      </trkpt>
      <trkpt lat="43.97101" lon="7.08481">
        <ele>857</ele>
        <time>2018-07-21T08:11:31.000Z</time>
      </trkpt>
      <trkpt lat="43.97105" lon="7.08481">
        <ele>858</ele>
        <time>2018-07-21T08:11:33.000Z</time>
      </trkpt>
      <trkpt lat="43.97108" lon="7.08482">
        <ele>858</ele>
        <time>2018-07-21T08:11:35.000Z</time>
      </trkpt>
      <trkpt lat="43.97112" lon="7.08479">
        <ele>859</ele>
        <time>2018-07-21T08:11:38.000Z</time>
      </trkpt>
      <trkpt lat="43.97116" lon="7.08479">
        <ele>859</ele>
        <time>2018-07-21T08:11:40.000Z</time>
      </trkpt>
      <trkpt lat="43.9712" lon="7.0848">
        <ele>860</ele>
        <time>2018-07-21T08:11:43.000Z</time>
      </trkpt>
      <trkpt lat="43.97125" lon="7.0848">
        <ele>860</ele>
        <time>2018-07-21T08:11:47.000Z</time>
      </trkpt>
      <trkpt lat="43.97125" lon="7.0848">
        <ele>861</ele>
        <time>2018-07-21T08:11:49.000Z</time>
      </trkpt>
      <trkpt lat="43.97125" lon="7.08479">
        <ele>860</ele>
        <time>2018-07-21T08:11:50.000Z</time>
      </trkpt>
      <trkpt lat="43.97125" lon="7.08477">
        <ele>861</ele>
        <time>2018-07-21T08:11:54.000Z</time>
      </trkpt>
      <trkpt lat="43.97126" lon="7.08476">
        <ele>861</ele>
        <time>2018-07-21T08:11:55.000Z</time>
      </trkpt>
      <trkpt lat="43.97127" lon="7.08473">
        <ele>861</ele>
        <time>2018-07-21T08:11:59.000Z</time>
      </trkpt>
      <trkpt lat="43.97128" lon="7.08471">
        <ele>861</ele>
        <time>2018-07-21T08:12:06.000Z</time>
      </trkpt>
      <trkpt lat="43.9713" lon="7.08471">
        <ele>861</ele>
        <time>2018-07-21T08:12:18.000Z</time>
      </trkpt>
      <trkpt lat="43.97132" lon="7.08469">
        <ele>861</ele>
        <time>2018-07-21T08:12:28.000Z</time>
      </trkpt>
      <trkpt lat="43.97131" lon="7.08463">
        <ele>861</ele>
        <time>2018-07-21T08:12:40.000Z</time>
      </trkpt>
      <trkpt lat="43.97132" lon="7.08461">
        <ele>861</ele>
        <time>2018-07-21T08:12:51.000Z</time>
      </trkpt>
      <trkpt lat="43.97134" lon="7.08461">
        <ele>861</ele>
        <time>2018-07-21T08:12:56.000Z</time>
      </trkpt>
      <trkpt lat="43.97135" lon="7.0846">
        <ele>862</ele>
        <time>2018-07-21T08:13:04.000Z</time>
      </trkpt>
      <trkpt lat="43.97135" lon="7.0846">
        <ele>862</ele>
        <time>2018-07-21T08:13:05.000Z</time>
      </trkpt>
      <trkpt lat="43.97137" lon="7.08457">
        <ele>862</ele>
        <time>2018-07-21T08:13:11.000Z</time>
      </trkpt>
      <trkpt lat="43.97137" lon="7.08457">
        <ele>862</ele>
        <time>2018-07-21T08:13:12.000Z</time>
      </trkpt>
      <trkpt lat="43.97138" lon="7.08456">
        <ele>862</ele>
        <time>2018-07-21T08:13:22.000Z</time>
      </trkpt>
      <trkpt lat="43.9714" lon="7.08457">
        <ele>862</ele>
        <time>2018-07-21T08:13:32.000Z</time>
      </trkpt>
      <trkpt lat="43.97142" lon="7.08458">
        <ele>862</ele>
        <time>2018-07-21T08:13:34.000Z</time>
      </trkpt>
      <trkpt lat="43.97146" lon="7.08457">
        <ele>863</ele>
        <time>2018-07-21T08:13:37.000Z</time>
      </trkpt>
      <trkpt lat="43.97147" lon="7.08456">
        <ele>863</ele>
        <time>2018-07-21T08:13:38.000Z</time>
      </trkpt>
      <trkpt lat="43.97149" lon="7.08455">
        <ele>863</ele>
        <time>2018-07-21T08:13:42.000Z</time>
      </trkpt>
      <trkpt lat="43.9715" lon="7.08454">
        <ele>863</ele>
        <time>2018-07-21T08:13:43.000Z</time>
      </trkpt>
      <trkpt lat="43.97152" lon="7.08452">
        <ele>863</ele>
        <time>2018-07-21T08:13:48.000Z</time>
      </trkpt>
      <trkpt lat="43.97154" lon="7.08451">
        <ele>863</ele>
        <time>2018-07-21T08:13:53.000Z</time>
      </trkpt>
      <trkpt lat="43.97158" lon="7.0845">
        <ele>864</ele>
        <time>2018-07-21T08:13:57.000Z</time>
      </trkpt>
      <trkpt lat="43.97159" lon="7.0845">
        <ele>864</ele>
        <time>2018-07-21T08:13:58.000Z</time>
      </trkpt>
      <trkpt lat="43.97161" lon="7.0845">
        <ele>864</ele>
        <time>2018-07-21T08:13:59.000Z</time>
      </trkpt>
      <trkpt lat="43.97164" lon="7.08449">
        <ele>864</ele>
        <time>2018-07-21T08:14:01.000Z</time>
      </trkpt>
      <trkpt lat="43.97165" lon="7.08446">
        <ele>864</ele>
        <time>2018-07-21T08:14:04.000Z</time>
      </trkpt>
      <trkpt lat="43.97167" lon="7.08443">
        <ele>875</ele>
        <time>2018-07-21T08:14:07.000Z</time>
      </trkpt>
      <trkpt lat="43.9717" lon="7.08439">
        <ele>875</ele>
        <time>2018-07-21T08:14:11.000Z</time>
      </trkpt>
      <trkpt lat="43.97173" lon="7.08438">
        <ele>875</ele>
        <time>2018-07-21T08:14:14.000Z</time>
      </trkpt>
      <trkpt lat="43.97175" lon="7.08438">
        <ele>875</ele>
        <time>2018-07-21T08:14:16.000Z</time>
      </trkpt>
      <trkpt lat="43.97177" lon="7.08438">
        <ele>875</ele>
        <time>2018-07-21T08:14:18.000Z</time>
      </trkpt>
      <trkpt lat="43.9718" lon="7.08439">
        <ele>876</ele>
        <time>2018-07-21T08:14:21.000Z</time>
      </trkpt>
      <trkpt lat="43.97184" lon="7.0844">
        <ele>876</ele>
        <time>2018-07-21T08:14:24.000Z</time>
      </trkpt>
      <trkpt lat="43.97186" lon="7.0844">
        <ele>877</ele>
        <time>2018-07-21T08:14:26.000Z</time>
      </trkpt>
      <trkpt lat="43.97189" lon="7.08441">
        <ele>877</ele>
        <time>2018-07-21T08:14:30.000Z</time>
      </trkpt>
      <trkpt lat="43.97198" lon="7.08442">
        <ele>878</ele>
        <time>2018-07-21T08:14:36.000Z</time>
      </trkpt>
      <trkpt lat="43.97199" lon="7.08443">
        <ele>878</ele>
        <time>2018-07-21T08:14:37.000Z</time>
      </trkpt>
      <trkpt lat="43.97202" lon="7.08445">
        <ele>879</ele>
        <time>2018-07-21T08:14:40.000Z</time>
      </trkpt>
      <trkpt lat="43.97203" lon="7.08445">
        <ele>879</ele>
        <time>2018-07-21T08:14:41.000Z</time>
      </trkpt>
      <trkpt lat="43.97204" lon="7.08446">
        <ele>879</ele>
        <time>2018-07-21T08:14:42.000Z</time>
      </trkpt>
      <trkpt lat="43.97206" lon="7.08446">
        <ele>879</ele>
        <time>2018-07-21T08:14:43.000Z</time>
      </trkpt>
      <trkpt lat="43.97208" lon="7.08447">
        <ele>879</ele>
        <time>2018-07-21T08:14:46.000Z</time>
      </trkpt>
      <trkpt lat="43.97209" lon="7.08448">
        <ele>879</ele>
        <time>2018-07-21T08:14:49.000Z</time>
      </trkpt>
      <trkpt lat="43.9721" lon="7.08448">
        <ele>880</ele>
        <time>2018-07-21T08:14:51.000Z</time>
      </trkpt>
      <trkpt lat="43.97212" lon="7.08448">
        <ele>880</ele>
        <time>2018-07-21T08:14:54.000Z</time>
      </trkpt>
      <trkpt lat="43.97213" lon="7.08448">
        <ele>880</ele>
        <time>2018-07-21T08:14:56.000Z</time>
      </trkpt>
      <trkpt lat="43.97217" lon="7.08448">
        <ele>880</ele>
        <time>2018-07-21T08:15:00.000Z</time>
      </trkpt>
      <trkpt lat="43.97218" lon="7.08448">
        <ele>880</ele>
        <time>2018-07-21T08:15:01.000Z</time>
      </trkpt>
      <trkpt lat="43.9722" lon="7.08446">
        <ele>881</ele>
        <time>2018-07-21T08:15:05.000Z</time>
      </trkpt>
      <trkpt lat="43.97222" lon="7.08445">
        <ele>881</ele>
        <time>2018-07-21T08:15:08.000Z</time>
      </trkpt>
      <trkpt lat="43.97224" lon="7.08443">
        <ele>881</ele>
        <time>2018-07-21T08:15:11.000Z</time>
      </trkpt>
      <trkpt lat="43.97227" lon="7.08441">
        <ele>881</ele>
        <time>2018-07-21T08:15:15.000Z</time>
      </trkpt>
      <trkpt lat="43.97235" lon="7.08436">
        <ele>881</ele>
        <time>2018-07-21T08:15:20.000Z</time>
      </trkpt>
      <trkpt lat="43.97236" lon="7.08435">
        <ele>881</ele>
        <time>2018-07-21T08:15:21.000Z</time>
      </trkpt>
      <trkpt lat="43.97238" lon="7.08432">
        <ele>881</ele>
        <time>2018-07-21T08:15:24.000Z</time>
      </trkpt>
      <trkpt lat="43.97242" lon="7.08429">
        <ele>881</ele>
        <time>2018-07-21T08:15:26.000Z</time>
      </trkpt>
      <trkpt lat="43.97246" lon="7.08427">
        <ele>881</ele>
        <time>2018-07-21T08:15:29.000Z</time>
      </trkpt>
      <trkpt lat="43.97252" lon="7.08426">
        <ele>886</ele>
        <time>2018-07-21T08:15:33.000Z</time>
      </trkpt>
      <trkpt lat="43.9726" lon="7.08424">
        <ele>887</ele>
        <time>2018-07-21T08:15:38.000Z</time>
      </trkpt>
      <trkpt lat="43.97262" lon="7.08424">
        <ele>887</ele>
        <time>2018-07-21T08:15:40.000Z</time>
      </trkpt>
      <trkpt lat="43.97266" lon="7.08423">
        <ele>888</ele>
        <time>2018-07-21T08:15:43.000Z</time>
      </trkpt>
      <trkpt lat="43.97268" lon="7.08423">
        <ele>889</ele>
        <time>2018-07-21T08:15:44.000Z</time>
      </trkpt>
      <trkpt lat="43.97273" lon="7.08422">
        <ele>890</ele>
        <time>2018-07-21T08:15:49.000Z</time>
      </trkpt>
      <trkpt lat="43.97278" lon="7.08421">
        <ele>891</ele>
        <time>2018-07-21T08:15:54.000Z</time>
      </trkpt>
      <trkpt lat="43.97281" lon="7.0842">
        <ele>892</ele>
        <time>2018-07-21T08:15:59.000Z</time>
      </trkpt>
      <trkpt lat="43.97285" lon="7.08419">
        <ele>892</ele>
        <time>2018-07-21T08:16:00.000Z</time>
      </trkpt>
      <trkpt lat="43.97288" lon="7.08414">
        <ele>892</ele>
        <time>2018-07-21T08:16:06.000Z</time>
      </trkpt>
      <trkpt lat="43.97289" lon="7.08414">
        <ele>893</ele>
        <time>2018-07-21T08:16:07.000Z</time>
      </trkpt>
      <trkpt lat="43.97295" lon="7.08409">
        <ele>893</ele>
        <time>2018-07-21T08:16:12.000Z</time>
      </trkpt>
      <trkpt lat="43.97295" lon="7.08408">
        <ele>894</ele>
        <time>2018-07-21T08:16:14.000Z</time>
      </trkpt>
      <trkpt lat="43.97299" lon="7.08404">
        <ele>894</ele>
        <time>2018-07-21T08:16:17.000Z</time>
      </trkpt>
      <trkpt lat="43.97301" lon="7.08402">
        <ele>894</ele>
        <time>2018-07-21T08:16:19.000Z</time>
      </trkpt>
      <trkpt lat="43.97304" lon="7.08398">
        <ele>895</ele>
        <time>2018-07-21T08:16:22.000Z</time>
      </trkpt>
      <trkpt lat="43.97305" lon="7.08397">
        <ele>895</ele>
        <time>2018-07-21T08:16:23.000Z</time>
      </trkpt>
      <trkpt lat="43.97309" lon="7.08391">
        <ele>895</ele>
        <time>2018-07-21T08:16:27.000Z</time>
      </trkpt>
      <trkpt lat="43.97311" lon="7.08388">
        <ele>895</ele>
        <time>2018-07-21T08:16:29.000Z</time>
      </trkpt>
      <trkpt lat="43.97312" lon="7.08385">
        <ele>895</ele>
        <time>2018-07-21T08:16:31.000Z</time>
      </trkpt>
      <trkpt lat="43.97314" lon="7.08381">
        <ele>896</ele>
        <time>2018-07-21T08:16:34.000Z</time>
      </trkpt>
      <trkpt lat="43.97314" lon="7.08379">
        <ele>896</ele>
        <time>2018-07-21T08:16:36.000Z</time>
      </trkpt>
      <trkpt lat="43.97314" lon="7.08374">
        <ele>896</ele>
        <time>2018-07-21T08:16:40.000Z</time>
      </trkpt>
      <trkpt lat="43.97315" lon="7.08371">
        <ele>896</ele>
        <time>2018-07-21T08:16:42.000Z</time>
      </trkpt>
      <trkpt lat="43.97317" lon="7.08368">
        <ele>896</ele>
        <time>2018-07-21T08:16:45.000Z</time>
      </trkpt>
      <trkpt lat="43.97319" lon="7.0836">
        <ele>897</ele>
        <time>2018-07-21T08:16:50.000Z</time>
      </trkpt>
      <trkpt lat="43.9732" lon="7.08358">
        <ele>897</ele>
        <time>2018-07-21T08:16:51.000Z</time>
      </trkpt>
      <trkpt lat="43.9732" lon="7.08351">
        <ele>897</ele>
        <time>2018-07-21T08:16:54.000Z</time>
      </trkpt>
      <trkpt lat="43.97321" lon="7.0835">
        <ele>897</ele>
        <time>2018-07-21T08:16:55.000Z</time>
      </trkpt>
      <trkpt lat="43.97321" lon="7.08348">
        <ele>898</ele>
        <time>2018-07-21T08:16:56.000Z</time>
      </trkpt>
      <trkpt lat="43.97322" lon="7.08344">
        <ele>898</ele>
        <time>2018-07-21T08:16:59.000Z</time>
      </trkpt>
      <trkpt lat="43.97323" lon="7.08341">
        <ele>898</ele>
        <time>2018-07-21T08:17:01.000Z</time>
      </trkpt>
      <trkpt lat="43.97324" lon="7.0834">
        <ele>898</ele>
        <time>2018-07-21T08:17:02.000Z</time>
      </trkpt>
      <trkpt lat="43.97325" lon="7.08338">
        <ele>898</ele>
        <time>2018-07-21T08:17:03.000Z</time>
      </trkpt>
      <trkpt lat="43.97327" lon="7.08334">
        <ele>898</ele>
        <time>2018-07-21T08:17:06.000Z</time>
      </trkpt>
      <trkpt lat="43.97328" lon="7.08332">
        <ele>902</ele>
        <time>2018-07-21T08:17:08.000Z</time>
      </trkpt>
      <trkpt lat="43.9733" lon="7.08326">
        <ele>903</ele>
        <time>2018-07-21T08:17:11.000Z</time>
      </trkpt>
      <trkpt lat="43.97333" lon="7.0832">
        <ele>904</ele>
        <time>2018-07-21T08:17:16.000Z</time>
      </trkpt>
      <trkpt lat="43.97333" lon="7.08318">
        <ele>905</ele>
        <time>2018-07-21T08:17:21.000Z</time>
      </trkpt>
      <trkpt lat="43.97334" lon="7.08313">
        <ele>909</ele>
        <time>2018-07-21T08:17:26.000Z</time>
      </trkpt>
      <trkpt lat="43.97334" lon="7.08311">
        <ele>909</ele>
        <time>2018-07-21T08:17:29.000Z</time>
      </trkpt>
      <trkpt lat="43.97335" lon="7.08308">
        <ele>910</ele>
        <time>2018-07-21T08:17:33.000Z</time>
      </trkpt>
      <trkpt lat="43.97335" lon="7.08306">
        <ele>911</ele>
        <time>2018-07-21T08:17:36.000Z</time>
      </trkpt>
      <trkpt lat="43.97334" lon="7.08303">
        <ele>911</ele>
        <time>2018-07-21T08:17:39.000Z</time>
      </trkpt>
      <trkpt lat="43.97334" lon="7.083">
        <ele>912</ele>
        <time>2018-07-21T08:17:42.000Z</time>
      </trkpt>
      <trkpt lat="43.97335" lon="7.08298">
        <ele>912</ele>
        <time>2018-07-21T08:17:46.000Z</time>
      </trkpt>
      <trkpt lat="43.97337" lon="7.08295">
        <ele>913</ele>
        <time>2018-07-21T08:17:50.000Z</time>
      </trkpt>
      <trkpt lat="43.97337" lon="7.08292">
        <ele>913</ele>
        <time>2018-07-21T08:17:54.000Z</time>
      </trkpt>
      <trkpt lat="43.97338" lon="7.08291">
        <ele>913</ele>
        <time>2018-07-21T08:17:56.000Z</time>
      </trkpt>
      <trkpt lat="43.97339" lon="7.08289">
        <ele>914</ele>
        <time>2018-07-21T08:17:59.000Z</time>
      </trkpt>
      <trkpt lat="43.9734" lon="7.08285">
        <ele>914</ele>
        <time>2018-07-21T08:18:04.000Z</time>
      </trkpt>
      <trkpt lat="43.9734" lon="7.08284">
        <ele>914</ele>
        <time>2018-07-21T08:18:06.000Z</time>
      </trkpt>
      <trkpt lat="43.97342" lon="7.08281">
        <ele>915</ele>
        <time>2018-07-21T08:18:12.000Z</time>
      </trkpt>
      <trkpt lat="43.97343" lon="7.0828">
        <ele>915</ele>
        <time>2018-07-21T08:18:13.000Z</time>
      </trkpt>
      <trkpt lat="43.97345" lon="7.08277">
        <ele>915</ele>
        <time>2018-07-21T08:18:20.000Z</time>
      </trkpt>
      <trkpt lat="43.97346" lon="7.08276">
        <ele>915</ele>
        <time>2018-07-21T08:18:21.000Z</time>
      </trkpt>
      <trkpt lat="43.97348" lon="7.08272">
        <ele>916</ele>
        <time>2018-07-21T08:18:26.000Z</time>
      </trkpt>
      <trkpt lat="43.97348" lon="7.08271">
        <ele>916</ele>
        <time>2018-07-21T08:18:27.000Z</time>
      </trkpt>
      <trkpt lat="43.97349" lon="7.08269">
        <ele>916</ele>
        <time>2018-07-21T08:18:32.000Z</time>
      </trkpt>
      <trkpt lat="43.97349" lon="7.08269">
        <ele>916</ele>
        <time>2018-07-21T08:18:33.000Z</time>
      </trkpt>
      <trkpt lat="43.9735" lon="7.08265">
        <ele>916</ele>
        <time>2018-07-21T08:18:39.000Z</time>
      </trkpt>
      <trkpt lat="43.97352" lon="7.08262">
        <ele>916</ele>
        <time>2018-07-21T08:18:45.000Z</time>
      </trkpt>
      <trkpt lat="43.97352" lon="7.08261">
        <ele>916</ele>
        <time>2018-07-21T08:18:46.000Z</time>
      </trkpt>
      <trkpt lat="43.97353" lon="7.08257">
        <ele>916</ele>
        <time>2018-07-21T08:18:52.000Z</time>
      </trkpt>
      <trkpt lat="43.97354" lon="7.08255">
        <ele>916</ele>
        <time>2018-07-21T08:18:55.000Z</time>
      </trkpt>
      <trkpt lat="43.97355" lon="7.08252">
        <ele>916</ele>
        <time>2018-07-21T08:18:57.000Z</time>
      </trkpt>
      <trkpt lat="43.97355" lon="7.08253">
        <ele>916</ele>
        <time>2018-07-21T08:18:58.000Z</time>
      </trkpt>
      <trkpt lat="43.97356" lon="7.08252">
        <ele>916</ele>
        <time>2018-07-21T08:19:00.000Z</time>
      </trkpt>
      <trkpt lat="43.97358" lon="7.08248">
        <ele>925</ele>
        <time>2018-07-21T08:19:05.000Z</time>
      </trkpt>
      <trkpt lat="43.9736" lon="7.08244">
        <ele>925</ele>
        <time>2018-07-21T08:19:10.000Z</time>
      </trkpt>
      <trkpt lat="43.97362" lon="7.0824">
        <ele>926</ele>
        <time>2018-07-21T08:19:16.000Z</time>
      </trkpt>
      <trkpt lat="43.97363" lon="7.08237">
        <ele>926</ele>
        <time>2018-07-21T08:19:20.000Z</time>
      </trkpt>
      <trkpt lat="43.97362" lon="7.08237">
        <ele>926</ele>
        <time>2018-07-21T08:19:21.000Z</time>
      </trkpt>
      <trkpt lat="43.97361" lon="7.08237">
        <ele>926</ele>
        <time>2018-07-21T08:19:23.000Z</time>
      </trkpt>
      <trkpt lat="43.97361" lon="7.08237">
        <ele>926</ele>
        <time>2018-07-21T08:19:25.000Z</time>
      </trkpt>
      <trkpt lat="43.97356" lon="7.08242">
        <ele>925</ele>
        <time>2018-07-21T08:19:32.000Z</time>
      </trkpt>
      <trkpt lat="43.97349" lon="7.08248">
        <ele>923</ele>
        <time>2018-07-21T08:19:39.000Z</time>
      </trkpt>
      <trkpt lat="43.97348" lon="7.08249">
        <ele>922</ele>
        <time>2018-07-21T08:19:40.000Z</time>
      </trkpt>
      <trkpt lat="43.97344" lon="7.08254">
        <ele>916</ele>
        <time>2018-07-21T08:19:46.000Z</time>
      </trkpt>
      <trkpt lat="43.97343" lon="7.08254">
        <ele>916</ele>
        <time>2018-07-21T08:19:47.000Z</time>
      </trkpt>
      <trkpt lat="43.97344" lon="7.08256">
        <ele>916</ele>
        <time>2018-07-21T08:19:50.000Z</time>
      </trkpt>
      <trkpt lat="43.97344" lon="7.08257">
        <ele>916</ele>
        <time>2018-07-21T08:19:57.000Z</time>
      </trkpt>
      <trkpt lat="43.97344" lon="7.08257">
        <ele>916</ele>
        <time>2018-07-21T08:19:59.000Z</time>
      </trkpt>
      <trkpt lat="43.97344" lon="7.08257">
        <ele>916</ele>
        <time>2018-07-21T08:20:01.000Z</time>
      </trkpt>
      <trkpt lat="43.97345" lon="7.08257">
        <ele>916</ele>
        <time>2018-07-21T08:20:03.000Z</time>
      </trkpt>
      <trkpt lat="43.97345" lon="7.08257">
        <ele>916</ele>
        <time>2018-07-21T08:20:04.000Z</time>
      </trkpt>
      <trkpt lat="43.97345" lon="7.08257">
        <ele>916</ele>
        <time>2018-07-21T08:20:08.000Z</time>
      </trkpt>
      <trkpt lat="43.97345" lon="7.08257">
        <ele>916</ele>
        <time>2018-07-21T08:20:09.000Z</time>
      </trkpt>
      <trkpt lat="43.97345" lon="7.08257">
        <ele>916</ele>
        <time>2018-07-21T08:20:10.000Z</time>
      </trkpt>
      <trkpt lat="43.97345" lon="7.08257">
        <ele>916</ele>
        <time>2018-07-21T08:20:12.000Z</time>
      </trkpt>
      <trkpt lat="43.97345" lon="7.08257">
        <ele>916</ele>
        <time>2018-07-21T08:20:22.000Z</time>
      </trkpt>
      <trkpt lat="43.97344" lon="7.08256">
        <ele>916</ele>
        <time>2018-07-21T08:20:31.000Z</time>
      </trkpt>
      <trkpt lat="43.97344" lon="7.08256">
        <ele>916</ele>
        <time>2018-07-21T08:20:34.000Z</time>
      </trkpt>
      <trkpt lat="43.97344" lon="7.08255">
        <ele>916</ele>
        <time>2018-07-21T08:20:43.000Z</time>
      </trkpt>
      <trkpt lat="43.97344" lon="7.08255">
        <ele>916</ele>
        <time>2018-07-21T08:20:45.000Z</time>
      </trkpt>
      <trkpt lat="43.97347" lon="7.08254">
        <ele>916</ele>
        <time>2018-07-21T08:20:59.000Z</time>
      </trkpt>
      <trkpt lat="43.97348" lon="7.08254">
        <ele>916</ele>
        <time>2018-07-21T08:21:02.000Z</time>
      </trkpt>
      <trkpt lat="43.97349" lon="7.08253">
        <ele>916</ele>
        <time>2018-07-21T08:21:06.000Z</time>
      </trkpt>
      <trkpt lat="43.97351" lon="7.08253">
        <ele>916</ele>
        <time>2018-07-21T08:21:10.000Z</time>
      </trkpt>
      <trkpt lat="43.97351" lon="7.08253">
        <ele>916</ele>
        <time>2018-07-21T08:21:13.000Z</time>
      </trkpt>
      <trkpt lat="43.9735" lon="7.08253">
        <ele>916</ele>
        <time>2018-07-21T08:21:15.000Z</time>
      </trkpt>
      <trkpt lat="43.9735" lon="7.08253">
        <ele>916</ele>
        <time>2018-07-21T08:21:16.000Z</time>
      </trkpt>
      <trkpt lat="43.9735" lon="7.08253">
        <ele>916</ele>
        <time>2018-07-21T08:21:17.000Z</time>
      </trkpt>
      <trkpt lat="43.9735" lon="7.08253">
        <ele>916</ele>
        <time>2018-07-21T08:21:18.000Z</time>
      </trkpt>
      <trkpt lat="43.9735" lon="7.08253">
        <ele>916</ele>
        <time>2018-07-21T08:21:19.000Z</time>
      </trkpt>
      <trkpt lat="43.97351" lon="7.08253">
        <ele>916</ele>
        <time>2018-07-21T08:21:20.000Z</time>
      </trkpt>
      <trkpt lat="43.97351" lon="7.08253">
        <ele>916</ele>
        <time>2018-07-21T08:21:21.000Z</time>
      </trkpt>
      <trkpt lat="43.97351" lon="7.08253">
        <ele>916</ele>
        <time>2018-07-21T08:21:22.000Z</time>
      </trkpt>
      <trkpt lat="43.97352" lon="7.08252">
        <ele>916</ele>
        <time>2018-07-21T08:21:24.000Z</time>
      </trkpt>
      <trkpt lat="43.97352" lon="7.08252">
        <ele>916</ele>
        <time>2018-07-21T08:21:26.000Z</time>
      </trkpt>
      <trkpt lat="43.97352" lon="7.08252">
        <ele>916</ele>
        <time>2018-07-21T08:21:28.000Z</time>
      </trkpt>
      <trkpt lat="43.97353" lon="7.08252">
        <ele>916</ele>
        <time>2018-07-21T08:21:30.000Z</time>
      </trkpt>
      <trkpt lat="43.97353" lon="7.08252">
        <ele>916</ele>
        <time>2018-07-21T08:21:31.000Z</time>
      </trkpt>
      <trkpt lat="43.97353" lon="7.08252">
        <ele>916</ele>
        <time>2018-07-21T08:21:32.000Z</time>
      </trkpt>
      <trkpt lat="43.97354" lon="7.08251">
        <ele>916</ele>
        <time>2018-07-21T08:21:33.000Z</time>
      </trkpt>
      <trkpt lat="43.97353" lon="7.08251">
        <ele>916</ele>
        <time>2018-07-21T08:21:34.000Z</time>
      </trkpt>
      <trkpt lat="43.97353" lon="7.08252">
        <ele>916</ele>
        <time>2018-07-21T08:21:35.000Z</time>
      </trkpt>
      <trkpt lat="43.97353" lon="7.08252">
        <ele>916</ele>
        <time>2018-07-21T08:21:36.000Z</time>
      </trkpt>
      <trkpt lat="43.97353" lon="7.08252">
        <ele>916</ele>
        <time>2018-07-21T08:21:38.000Z</time>
      </trkpt>
      <trkpt lat="43.97353" lon="7.08252">
        <ele>916</ele>
        <time>2018-07-21T08:21:40.000Z</time>
      </trkpt>
      <trkpt lat="43.97353" lon="7.08252">
        <ele>916</ele>
        <time>2018-07-21T08:21:42.000Z</time>
      </trkpt>
      <trkpt lat="43.97353" lon="7.08252">
        <ele>916</ele>
        <time>2018-07-21T08:21:43.000Z</time>
      </trkpt>
      <trkpt lat="43.97353" lon="7.08252">
        <ele>916</ele>
        <time>2018-07-21T08:21:44.000Z</time>
      </trkpt>
      <trkpt lat="43.97353" lon="7.08252">
        <ele>916</ele>
        <time>2018-07-21T08:21:45.000Z</time>
      </trkpt>
      <trkpt lat="43.97353" lon="7.08252">
        <ele>916</ele>
        <time>2018-07-21T08:21:46.000Z</time>
      </trkpt>
      <trkpt lat="43.97352" lon="7.08252">
        <ele>916</ele>
        <time>2018-07-21T08:21:47.000Z</time>
      </trkpt>
      <trkpt lat="43.97352" lon="7.08252">
        <ele>916</ele>
        <time>2018-07-21T08:21:48.000Z</time>
      </trkpt>
      <trkpt lat="43.97352" lon="7.08252">
        <ele>916</ele>
        <time>2018-07-21T08:21:51.000Z</time>
      </trkpt>
      <trkpt lat="43.97352" lon="7.08252">
        <ele>916</ele>
        <time>2018-07-21T08:21:52.000Z</time>
      </trkpt>
      <trkpt lat="43.97352" lon="7.08251">
        <ele>916</ele>
        <time>2018-07-21T08:21:55.000Z</time>
      </trkpt>
      <trkpt lat="43.97351" lon="7.08251">
        <ele>916</ele>
        <time>2018-07-21T08:21:57.000Z</time>
      </trkpt>
      <trkpt lat="43.97351" lon="7.08251">
        <ele>916</ele>
        <time>2018-07-21T08:21:59.000Z</time>
      </trkpt>
      <trkpt lat="43.97352" lon="7.08251">
        <ele>916</ele>
        <time>2018-07-21T08:22:00.000Z</time>
      </trkpt>
      <trkpt lat="43.97352" lon="7.08252">
        <ele>916</ele>
        <time>2018-07-21T08:22:02.000Z</time>
      </trkpt>
      <trkpt lat="43.97352" lon="7.08252">
        <ele>916</ele>
        <time>2018-07-21T08:22:04.000Z</time>
      </trkpt>
      <trkpt lat="43.97352" lon="7.08252">
        <ele>916</ele>
        <time>2018-07-21T08:22:06.000Z</time>
      </trkpt>
      <trkpt lat="43.97352" lon="7.08253">
        <ele>916</ele>
        <time>2018-07-21T08:22:08.000Z</time>
      </trkpt>
      <trkpt lat="43.97353" lon="7.08253">
        <ele>916</ele>
        <time>2018-07-21T08:22:10.000Z</time>
      </trkpt>
      <trkpt lat="43.97353" lon="7.08253">
        <ele>916</ele>
        <time>2018-07-21T08:22:12.000Z</time>
      </trkpt>
      <trkpt lat="43.97354" lon="7.08253">
        <ele>916</ele>
        <time>2018-07-21T08:22:14.000Z</time>
      </trkpt>
      <trkpt lat="43.97355" lon="7.08254">
        <ele>916</ele>
        <time>2018-07-21T08:22:16.000Z</time>
      </trkpt>
      <trkpt lat="43.97355" lon="7.08254">
        <ele>916</ele>
        <time>2018-07-21T08:22:17.000Z</time>
      </trkpt>
      <trkpt lat="43.97355" lon="7.08254">
        <ele>916</ele>
        <time>2018-07-21T08:22:18.000Z</time>
      </trkpt>
      <trkpt lat="43.97356" lon="7.08255">
        <ele>916</ele>
        <time>2018-07-21T08:22:20.000Z</time>
      </trkpt>
      <trkpt lat="43.97356" lon="7.08255">
        <ele>916</ele>
        <time>2018-07-21T08:22:23.000Z</time>
      </trkpt>
      <trkpt lat="43.97356" lon="7.08255">
        <ele>916</ele>
        <time>2018-07-21T08:22:24.000Z</time>
      </trkpt>
      <trkpt lat="43.97356" lon="7.08255">
        <ele>916</ele>
        <time>2018-07-21T08:22:25.000Z</time>
      </trkpt>
      <trkpt lat="43.97356" lon="7.08255">
        <ele>916</ele>
        <time>2018-07-21T08:22:26.000Z</time>
      </trkpt>
      <trkpt lat="43.97356" lon="7.08254">
        <ele>916</ele>
        <time>2018-07-21T08:22:27.000Z</time>
      </trkpt>
      <trkpt lat="43.97356" lon="7.08254">
        <ele>916</ele>
        <time>2018-07-21T08:22:28.000Z</time>
      </trkpt>
      <trkpt lat="43.97357" lon="7.08254">
        <ele>916</ele>
        <time>2018-07-21T08:22:30.000Z</time>
      </trkpt>
      <trkpt lat="43.97357" lon="7.08254">
        <ele>916</ele>
        <time>2018-07-21T08:22:34.000Z</time>
      </trkpt>
      <trkpt lat="43.97357" lon="7.08254">
        <ele>917</ele>
        <time>2018-07-21T08:22:35.000Z</time>
      </trkpt>
      <trkpt lat="43.97357" lon="7.08254">
        <ele>917</ele>
        <time>2018-07-21T08:22:36.000Z</time>
      </trkpt>
      <trkpt lat="43.97357" lon="7.08255">
        <ele>916</ele>
        <time>2018-07-21T08:22:38.000Z</time>
      </trkpt>
      <trkpt lat="43.97357" lon="7.08255">
        <ele>916</ele>
        <time>2018-07-21T08:22:40.000Z</time>
      </trkpt>
      <trkpt lat="43.97357" lon="7.08255">
        <ele>916</ele>
        <time>2018-07-21T08:22:42.000Z</time>
      </trkpt>
      <trkpt lat="43.97356" lon="7.08255">
        <ele>916</ele>
        <time>2018-07-21T08:22:44.000Z</time>
      </trkpt>
      <trkpt lat="43.97356" lon="7.08255">
        <ele>916</ele>
        <time>2018-07-21T08:22:45.000Z</time>
      </trkpt>
      <trkpt lat="43.97356" lon="7.08255">
        <ele>916</ele>
        <time>2018-07-21T08:22:47.000Z</time>
      </trkpt>
      <trkpt lat="43.97355" lon="7.08255">
        <ele>916</ele>
        <time>2018-07-21T08:22:49.000Z</time>
      </trkpt>
      <trkpt lat="43.97355" lon="7.08255">
        <ele>916</ele>
        <time>2018-07-21T08:22:51.000Z</time>
      </trkpt>
      <trkpt lat="43.97355" lon="7.08255">
        <ele>916</ele>
        <time>2018-07-21T08:22:53.000Z</time>
      </trkpt>
      <trkpt lat="43.97355" lon="7.08255">
        <ele>916</ele>
        <time>2018-07-21T08:22:55.000Z</time>
      </trkpt>
      <trkpt lat="43.97355" lon="7.08255">
        <ele>916</ele>
        <time>2018-07-21T08:22:58.000Z</time>
      </trkpt>
      <trkpt lat="43.97355" lon="7.08256">
        <ele>916</ele>
        <time>2018-07-21T08:23:02.000Z</time>
      </trkpt>
      <trkpt lat="43.97355" lon="7.08256">
        <ele>916</ele>
        <time>2018-07-21T08:23:04.000Z</time>
      </trkpt>
      <trkpt lat="43.97355" lon="7.08256">
        <ele>916</ele>
        <time>2018-07-21T08:23:05.000Z</time>
      </trkpt>
      <trkpt lat="43.97355" lon="7.08256">
        <ele>916</ele>
        <time>2018-07-21T08:23:06.000Z</time>
      </trkpt>
      <trkpt lat="43.97354" lon="7.08256">
        <ele>916</ele>
        <time>2018-07-21T08:23:09.000Z</time>
      </trkpt>
      <trkpt lat="43.97354" lon="7.08256">
        <ele>916</ele>
        <time>2018-07-21T08:23:12.000Z</time>
      </trkpt>
      <trkpt lat="43.97354" lon="7.08256">
        <ele>916</ele>
        <time>2018-07-21T08:23:13.000Z</time>
      </trkpt>
      <trkpt lat="43.97354" lon="7.08256">
        <ele>916</ele>
        <time>2018-07-21T08:23:15.000Z</time>
      </trkpt>
      <trkpt lat="43.97354" lon="7.08256">
        <ele>916</ele>
        <time>2018-07-21T08:23:16.000Z</time>
      </trkpt>
      <trkpt lat="43.97354" lon="7.08256">
        <ele>916</ele>
        <time>2018-07-21T08:23:17.000Z</time>
      </trkpt>
      <trkpt lat="43.97354" lon="7.08256">
        <ele>916</ele>
        <time>2018-07-21T08:23:18.000Z</time>
      </trkpt>
      <trkpt lat="43.97354" lon="7.08256">
        <ele>916</ele>
        <time>2018-07-21T08:23:19.000Z</time>
      </trkpt>
      <trkpt lat="43.97354" lon="7.08256">
        <ele>916</ele>
        <time>2018-07-21T08:23:20.000Z</time>
      </trkpt>
      <trkpt lat="43.97354" lon="7.08256">
        <ele>916</ele>
        <time>2018-07-21T08:23:21.000Z</time>
      </trkpt>
      <trkpt lat="43.97354" lon="7.08256">
        <ele>916</ele>
        <time>2018-07-21T08:23:22.000Z</time>
      </trkpt>
      <trkpt lat="43.97354" lon="7.08256">
        <ele>916</ele>
        <time>2018-07-21T08:23:23.000Z</time>
      </trkpt>
      <trkpt lat="43.97354" lon="7.08256">
        <ele>916</ele>
        <time>2018-07-21T08:23:24.000Z</time>
      </trkpt>
      <trkpt lat="43.97354" lon="7.08256">
        <ele>916</ele>
        <time>2018-07-21T08:23:25.000Z</time>
      </trkpt>
      <trkpt lat="43.97354" lon="7.08256">
        <ele>916</ele>
        <time>2018-07-21T08:23:26.000Z</time>
      </trkpt>
      <trkpt lat="43.97354" lon="7.08256">
        <ele>916</ele>
        <time>2018-07-21T08:23:27.000Z</time>
      </trkpt>
      <trkpt lat="43.97354" lon="7.08256">
        <ele>916</ele>
        <time>2018-07-21T08:23:30.000Z</time>
      </trkpt>
      <trkpt lat="43.97354" lon="7.08255">
        <ele>916</ele>
        <time>2018-07-21T08:23:45.000Z</time>
      </trkpt>
      <trkpt lat="43.97354" lon="7.08255">
        <ele>916</ele>
        <time>2018-07-21T08:23:49.000Z</time>
      </trkpt>
      <trkpt lat="43.97353" lon="7.08255">
        <ele>916</ele>
        <time>2018-07-21T08:23:55.000Z</time>
      </trkpt>
      <trkpt lat="43.97353" lon="7.08255">
        <ele>916</ele>
        <time>2018-07-21T08:23:56.000Z</time>
      </trkpt>
      <trkpt lat="43.97352" lon="7.08254">
        <ele>916</ele>
        <time>2018-07-21T08:24:02.000Z</time>
      </trkpt>
      <trkpt lat="43.97351" lon="7.08253">
        <ele>916</ele>
        <time>2018-07-21T08:24:05.000Z</time>
      </trkpt>
      <trkpt lat="43.97351" lon="7.08253">
        <ele>916</ele>
        <time>2018-07-21T08:24:06.000Z</time>
      </trkpt>
      <trkpt lat="43.97351" lon="7.08253">
        <ele>916</ele>
        <time>2018-07-21T08:24:08.000Z</time>
      </trkpt>
      <trkpt lat="43.97351" lon="7.08253">
        <ele>916</ele>
        <time>2018-07-21T08:24:10.000Z</time>
      </trkpt>
      <trkpt lat="43.97351" lon="7.08253">
        <ele>916</ele>
        <time>2018-07-21T08:24:11.000Z</time>
      </trkpt>
      <trkpt lat="43.97351" lon="7.08253">
        <ele>916</ele>
        <time>2018-07-21T08:24:15.000Z</time>
      </trkpt>
      <trkpt lat="43.9735" lon="7.08253">
        <ele>916</ele>
        <time>2018-07-21T08:24:39.000Z</time>
      </trkpt>
      <trkpt lat="43.9735" lon="7.08253">
        <ele>916</ele>
        <time>2018-07-21T08:25:01.000Z</time>
      </trkpt>
      <trkpt lat="43.97349" lon="7.08253">
        <ele>916</ele>
        <time>2018-07-21T08:25:26.000Z</time>
      </trkpt>
      <trkpt lat="43.97349" lon="7.08253">
        <ele>916</ele>
        <time>2018-07-21T08:25:46.000Z</time>
      </trkpt>
      <trkpt lat="43.97349" lon="7.08253">
        <ele>916</ele>
        <time>2018-07-21T08:25:59.000Z</time>
      </trkpt>
      <trkpt lat="43.97349" lon="7.08253">
        <ele>916</ele>
        <time>2018-07-21T08:26:12.000Z</time>
      </trkpt>
      <trkpt lat="43.97348" lon="7.08254">
        <ele>916</ele>
        <time>2018-07-21T08:26:20.000Z</time>
      </trkpt>
      <trkpt lat="43.97345" lon="7.08253">
        <ele>916</ele>
        <time>2018-07-21T08:26:32.000Z</time>
      </trkpt>
      <trkpt lat="43.97344" lon="7.08252">
        <ele>916</ele>
        <time>2018-07-21T08:26:40.000Z</time>
      </trkpt>
      <trkpt lat="43.97342" lon="7.08254">
        <ele>916</ele>
        <time>2018-07-21T08:26:50.000Z</time>
      </trkpt>
      <trkpt lat="43.97341" lon="7.08255">
        <ele>916</ele>
        <time>2018-07-21T08:26:51.000Z</time>
      </trkpt>
      <trkpt lat="43.97334" lon="7.08255">
        <ele>916</ele>
        <time>2018-07-21T08:26:56.000Z</time>
      </trkpt>
      <trkpt lat="43.97332" lon="7.08255">
        <ele>915</ele>
        <time>2018-07-21T08:26:57.000Z</time>
      </trkpt>
      <trkpt lat="43.9733" lon="7.08255">
        <ele>915</ele>
        <time>2018-07-21T08:26:58.000Z</time>
      </trkpt>
      <trkpt lat="43.97326" lon="7.08256">
        <ele>915</ele>
        <time>2018-07-21T08:27:01.000Z</time>
      </trkpt>
      <trkpt lat="43.97325" lon="7.08257">
        <ele>915</ele>
        <time>2018-07-21T08:27:02.000Z</time>
      </trkpt>
      <trkpt lat="43.97322" lon="7.08257">
        <ele>915</ele>
        <time>2018-07-21T08:27:05.000Z</time>
      </trkpt>
      <trkpt lat="43.97319" lon="7.08257">
        <ele>914</ele>
        <time>2018-07-21T08:27:08.000Z</time>
      </trkpt>
      <trkpt lat="43.97316" lon="7.08258">
        <ele>914</ele>
        <time>2018-07-21T08:27:13.000Z</time>
      </trkpt>
      <trkpt lat="43.97319" lon="7.08261">
        <ele>914</ele>
        <time>2018-07-21T08:27:18.000Z</time>
      </trkpt>
      <trkpt lat="43.97321" lon="7.08264">
        <ele>914</ele>
        <time>2018-07-21T08:27:26.000Z</time>
      </trkpt>
      <trkpt lat="43.97321" lon="7.08268">
        <ele>914</ele>
        <time>2018-07-21T08:27:35.000Z</time>
      </trkpt>
      <trkpt lat="43.97322" lon="7.08269">
        <ele>913</ele>
        <time>2018-07-21T08:27:42.000Z</time>
      </trkpt>
      <trkpt lat="43.9732" lon="7.0827">
        <ele>913</ele>
        <time>2018-07-21T08:27:47.000Z</time>
      </trkpt>
      <trkpt lat="43.97315" lon="7.0827">
        <ele>913</ele>
        <time>2018-07-21T08:27:51.000Z</time>
      </trkpt>
      <trkpt lat="43.97312" lon="7.08271">
        <ele>913</ele>
        <time>2018-07-21T08:27:53.000Z</time>
      </trkpt>
      <trkpt lat="43.9731" lon="7.08272">
        <ele>913</ele>
        <time>2018-07-21T08:27:54.000Z</time>
      </trkpt>
      <trkpt lat="43.97306" lon="7.08276">
        <ele>913</ele>
        <time>2018-07-21T08:27:57.000Z</time>
      </trkpt>
      <trkpt lat="43.97302" lon="7.0828">
        <ele>913</ele>
        <time>2018-07-21T08:28:01.000Z</time>
      </trkpt>
      <trkpt lat="43.97296" lon="7.08288">
        <ele>912</ele>
        <time>2018-07-21T08:28:06.000Z</time>
      </trkpt>
      <trkpt lat="43.97295" lon="7.0829">
        <ele>912</ele>
        <time>2018-07-21T08:28:07.000Z</time>
      </trkpt>
      <trkpt lat="43.97292" lon="7.08297">
        <ele>911</ele>
        <time>2018-07-21T08:28:10.000Z</time>
      </trkpt>
      <trkpt lat="43.9729" lon="7.08302">
        <ele>911</ele>
        <time>2018-07-21T08:28:12.000Z</time>
      </trkpt>
      <trkpt lat="43.97287" lon="7.08307">
        <ele>911</ele>
        <time>2018-07-21T08:28:15.000Z</time>
      </trkpt>
      <trkpt lat="43.97285" lon="7.08308">
        <ele>911</ele>
        <time>2018-07-21T08:28:16.000Z</time>
      </trkpt>
      <trkpt lat="43.97284" lon="7.08307">
        <ele>911</ele>
        <time>2018-07-21T08:28:17.000Z</time>
      </trkpt>
      <trkpt lat="43.97283" lon="7.08299">
        <ele>912</ele>
        <time>2018-07-21T08:28:21.000Z</time>
      </trkpt>
      <trkpt lat="43.97284" lon="7.08292">
        <ele>912</ele>
        <time>2018-07-21T08:28:25.000Z</time>
      </trkpt>
      <trkpt lat="43.97284" lon="7.0829">
        <ele>913</ele>
        <time>2018-07-21T08:28:26.000Z</time>
      </trkpt>
      <trkpt lat="43.97284" lon="7.08289">
        <ele>913</ele>
        <time>2018-07-21T08:28:27.000Z</time>
      </trkpt>
      <trkpt lat="43.97285" lon="7.08282">
        <ele>914</ele>
        <time>2018-07-21T08:28:31.000Z</time>
      </trkpt>
      <trkpt lat="43.97285" lon="7.08278">
        <ele>914</ele>
        <time>2018-07-21T08:28:33.000Z</time>
      </trkpt>
      <trkpt lat="43.97286" lon="7.08274">
        <ele>914</ele>
        <time>2018-07-21T08:28:36.000Z</time>
      </trkpt>
      <trkpt lat="43.97286" lon="7.08272">
        <ele>915</ele>
        <time>2018-07-21T08:28:37.000Z</time>
      </trkpt>
      <trkpt lat="43.97286" lon="7.08268">
        <ele>915</ele>
        <time>2018-07-21T08:28:39.000Z</time>
      </trkpt>
      <trkpt lat="43.97286" lon="7.08264">
        <ele>915</ele>
        <time>2018-07-21T08:28:42.000Z</time>
      </trkpt>
      <trkpt lat="43.97287" lon="7.08259">
        <ele>916</ele>
        <time>2018-07-21T08:28:45.000Z</time>
      </trkpt>
      <trkpt lat="43.97287" lon="7.08256">
        <ele>916</ele>
        <time>2018-07-21T08:28:47.000Z</time>
      </trkpt>
      <trkpt lat="43.9729" lon="7.08248">
        <ele>929</ele>
        <time>2018-07-21T08:28:53.000Z</time>
      </trkpt>
      <trkpt lat="43.97291" lon="7.08242">
        <ele>929</ele>
        <time>2018-07-21T08:28:57.000Z</time>
      </trkpt>
      <trkpt lat="43.97292" lon="7.08238">
        <ele>929</ele>
        <time>2018-07-21T08:28:59.000Z</time>
      </trkpt>
      <trkpt lat="43.97293" lon="7.08235">
        <ele>930</ele>
        <time>2018-07-21T08:29:01.000Z</time>
      </trkpt>
      <trkpt lat="43.97294" lon="7.08232">
        <ele>930</ele>
        <time>2018-07-21T08:29:04.000Z</time>
      </trkpt>
      <trkpt lat="43.97294" lon="7.08231">
        <ele>930</ele>
        <time>2018-07-21T08:29:05.000Z</time>
      </trkpt>
      <trkpt lat="43.97294" lon="7.08229">
        <ele>930</ele>
        <time>2018-07-21T08:29:06.000Z</time>
      </trkpt>
      <trkpt lat="43.97294" lon="7.08224">
        <ele>931</ele>
        <time>2018-07-21T08:29:10.000Z</time>
      </trkpt>
      <trkpt lat="43.97295" lon="7.08223">
        <ele>931</ele>
        <time>2018-07-21T08:29:11.000Z</time>
      </trkpt>
      <trkpt lat="43.97296" lon="7.08218">
        <ele>932</ele>
        <time>2018-07-21T08:29:15.000Z</time>
      </trkpt>
      <trkpt lat="43.97296" lon="7.08215">
        <ele>932</ele>
        <time>2018-07-21T08:29:16.000Z</time>
      </trkpt>
      <trkpt lat="43.97297" lon="7.08212">
        <ele>932</ele>
        <time>2018-07-21T08:29:19.000Z</time>
      </trkpt>
      <trkpt lat="43.97297" lon="7.08209">
        <ele>933</ele>
        <time>2018-07-21T08:29:21.000Z</time>
      </trkpt>
      <trkpt lat="43.97296" lon="7.08207">
        <ele>933</ele>
        <time>2018-07-21T08:29:22.000Z</time>
      </trkpt>
      <trkpt lat="43.97296" lon="7.08206">
        <ele>933</ele>
        <time>2018-07-21T08:29:23.000Z</time>
      </trkpt>
      <trkpt lat="43.97294" lon="7.08202">
        <ele>934</ele>
        <time>2018-07-21T08:29:25.000Z</time>
      </trkpt>
      <trkpt lat="43.97293" lon="7.08193">
        <ele>935</ele>
        <time>2018-07-21T08:29:30.000Z</time>
      </trkpt>
      <trkpt lat="43.97293" lon="7.08191">
        <ele>935</ele>
        <time>2018-07-21T08:29:31.000Z</time>
      </trkpt>
      <trkpt lat="43.97293" lon="7.0819">
        <ele>935</ele>
        <time>2018-07-21T08:29:32.000Z</time>
      </trkpt>
      <trkpt lat="43.97296" lon="7.08183">
        <ele>936</ele>
        <time>2018-07-21T08:29:36.000Z</time>
      </trkpt>
      <trkpt lat="43.97297" lon="7.08182">
        <ele>937</ele>
        <time>2018-07-21T08:29:37.000Z</time>
      </trkpt>
      <trkpt lat="43.97296" lon="7.08179">
        <ele>937</ele>
        <time>2018-07-21T08:29:38.000Z</time>
      </trkpt>
      <trkpt lat="43.97295" lon="7.08172">
        <ele>937</ele>
        <time>2018-07-21T08:29:42.000Z</time>
      </trkpt>
      <trkpt lat="43.97286" lon="7.08169">
        <ele>937</ele>
        <time>2018-07-21T08:29:47.000Z</time>
      </trkpt>
      <trkpt lat="43.97279" lon="7.0817">
        <ele>937</ele>
        <time>2018-07-21T08:29:51.000Z</time>
      </trkpt>
      <trkpt lat="43.97278" lon="7.08168">
        <ele>937</ele>
        <time>2018-07-21T08:29:52.000Z</time>
      </trkpt>
      <trkpt lat="43.97277" lon="7.08158">
        <ele>949</ele>
        <time>2018-07-21T08:29:56.000Z</time>
      </trkpt>
      <trkpt lat="43.97278" lon="7.08156">
        <ele>950</ele>
        <time>2018-07-21T08:29:57.000Z</time>
      </trkpt>
      <trkpt lat="43.97282" lon="7.08147">
        <ele>951</ele>
        <time>2018-07-21T08:30:01.000Z</time>
      </trkpt>
      <trkpt lat="43.97283" lon="7.08145">
        <ele>951</ele>
        <time>2018-07-21T08:30:02.000Z</time>
      </trkpt>
      <trkpt lat="43.97285" lon="7.0814">
        <ele>952</ele>
        <time>2018-07-21T08:30:04.000Z</time>
      </trkpt>
      <trkpt lat="43.97288" lon="7.08133">
        <ele>953</ele>
        <time>2018-07-21T08:30:08.000Z</time>
      </trkpt>
      <trkpt lat="43.97291" lon="7.0813">
        <ele>953</ele>
        <time>2018-07-21T08:30:10.000Z</time>
      </trkpt>
      <trkpt lat="43.97297" lon="7.08131">
        <ele>953</ele>
        <time>2018-07-21T08:30:13.000Z</time>
      </trkpt>
      <trkpt lat="43.973" lon="7.08135">
        <ele>953</ele>
        <time>2018-07-21T08:30:17.000Z</time>
      </trkpt>
      <trkpt lat="43.97302" lon="7.08135">
        <ele>953</ele>
        <time>2018-07-21T08:30:18.000Z</time>
      </trkpt>
      <trkpt lat="43.97304" lon="7.08138">
        <ele>953</ele>
        <time>2018-07-21T08:30:20.000Z</time>
      </trkpt>
      <trkpt lat="43.97304" lon="7.08139">
        <ele>953</ele>
        <time>2018-07-21T08:30:21.000Z</time>
      </trkpt>
      <trkpt lat="43.97309" lon="7.08146">
        <ele>952</ele>
        <time>2018-07-21T08:30:26.000Z</time>
      </trkpt>
      <trkpt lat="43.9731" lon="7.08147">
        <ele>952</ele>
        <time>2018-07-21T08:30:27.000Z</time>
      </trkpt>
      <trkpt lat="43.97313" lon="7.08149">
        <ele>952</ele>
        <time>2018-07-21T08:30:29.000Z</time>
      </trkpt>
      <trkpt lat="43.97317" lon="7.0815">
        <ele>952</ele>
        <time>2018-07-21T08:30:32.000Z</time>
      </trkpt>
      <trkpt lat="43.97323" lon="7.08152">
        <ele>951</ele>
        <time>2018-07-21T08:30:37.000Z</time>
      </trkpt>
      <trkpt lat="43.97326" lon="7.08153">
        <ele>951</ele>
        <time>2018-07-21T08:30:39.000Z</time>
      </trkpt>
      <trkpt lat="43.97333" lon="7.08157">
        <ele>950</ele>
        <time>2018-07-21T08:30:44.000Z</time>
      </trkpt>
      <trkpt lat="43.97336" lon="7.08166">
        <ele>948</ele>
        <time>2018-07-21T08:30:49.000Z</time>
      </trkpt>
      <trkpt lat="43.97337" lon="7.08168">
        <ele>945</ele>
        <time>2018-07-21T08:30:50.000Z</time>
      </trkpt>
      <trkpt lat="43.97339" lon="7.0817">
        <ele>944</ele>
        <time>2018-07-21T08:30:51.000Z</time>
      </trkpt>
      <trkpt lat="43.97342" lon="7.08174">
        <ele>941</ele>
        <time>2018-07-21T08:30:54.000Z</time>
      </trkpt>
      <trkpt lat="43.97343" lon="7.08175">
        <ele>941</ele>
        <time>2018-07-21T08:30:55.000Z</time>
      </trkpt>
      <trkpt lat="43.97347" lon="7.08168">
        <ele>941</ele>
        <time>2018-07-21T08:30:59.000Z</time>
      </trkpt>
      <trkpt lat="43.97346" lon="7.08163">
        <ele>949</ele>
        <time>2018-07-21T08:31:02.000Z</time>
      </trkpt>
      <trkpt lat="43.97347" lon="7.08158">
        <ele>950</ele>
        <time>2018-07-21T08:31:05.000Z</time>
      </trkpt>
      <trkpt lat="43.97347" lon="7.08152">
        <ele>950</ele>
        <time>2018-07-21T08:31:08.000Z</time>
      </trkpt>
      <trkpt lat="43.97348" lon="7.0814">
        <ele>951</ele>
        <time>2018-07-21T08:31:13.000Z</time>
      </trkpt>
      <trkpt lat="43.97347" lon="7.08136">
        <ele>952</ele>
        <time>2018-07-21T08:31:15.000Z</time>
      </trkpt>
      <trkpt lat="43.97347" lon="7.08131">
        <ele>952</ele>
        <time>2018-07-21T08:31:18.000Z</time>
      </trkpt>
      <trkpt lat="43.97347" lon="7.08129">
        <ele>953</ele>
        <time>2018-07-21T08:31:19.000Z</time>
      </trkpt>
      <trkpt lat="43.97348" lon="7.08128">
        <ele>953</ele>
        <time>2018-07-21T08:31:20.000Z</time>
      </trkpt>
      <trkpt lat="43.97349" lon="7.08124">
        <ele>953</ele>
        <time>2018-07-21T08:31:23.000Z</time>
      </trkpt>
      <trkpt lat="43.97349" lon="7.08119">
        <ele>954</ele>
        <time>2018-07-21T08:31:25.000Z</time>
      </trkpt>
      <trkpt lat="43.9735" lon="7.08116">
        <ele>954</ele>
        <time>2018-07-21T08:31:28.000Z</time>
      </trkpt>
      <trkpt lat="43.9735" lon="7.08112">
        <ele>955</ele>
        <time>2018-07-21T08:31:30.000Z</time>
      </trkpt>
      <trkpt lat="43.9735" lon="7.08106">
        <ele>956</ele>
        <time>2018-07-21T08:31:35.000Z</time>
      </trkpt>
      <trkpt lat="43.9735" lon="7.08096">
        <ele>957</ele>
        <time>2018-07-21T08:31:41.000Z</time>
      </trkpt>
      <trkpt lat="43.9735" lon="7.08095">
        <ele>958</ele>
        <time>2018-07-21T08:31:42.000Z</time>
      </trkpt>
      <trkpt lat="43.9735" lon="7.08089">
        <ele>959</ele>
        <time>2018-07-21T08:31:46.000Z</time>
      </trkpt>
      <trkpt lat="43.97349" lon="7.08086">
        <ele>959</ele>
        <time>2018-07-21T08:31:48.000Z</time>
      </trkpt>
      <trkpt lat="43.97349" lon="7.08083">
        <ele>970</ele>
        <time>2018-07-21T08:31:50.000Z</time>
      </trkpt>
      <trkpt lat="43.97348" lon="7.08079">
        <ele>970</ele>
        <time>2018-07-21T08:31:53.000Z</time>
      </trkpt>
      <trkpt lat="43.97346" lon="7.08074">
        <ele>970</ele>
        <time>2018-07-21T08:31:56.000Z</time>
      </trkpt>
      <trkpt lat="43.97345" lon="7.08068">
        <ele>971</ele>
        <time>2018-07-21T08:32:01.000Z</time>
      </trkpt>
      <trkpt lat="43.97345" lon="7.08064">
        <ele>972</ele>
        <time>2018-07-21T08:32:03.000Z</time>
      </trkpt>
      <trkpt lat="43.97345" lon="7.08058">
        <ele>974</ele>
        <time>2018-07-21T08:32:07.000Z</time>
      </trkpt>
      <trkpt lat="43.97346" lon="7.08057">
        <ele>974</ele>
        <time>2018-07-21T08:32:08.000Z</time>
      </trkpt>
      <trkpt lat="43.97348" lon="7.08054">
        <ele>975</ele>
        <time>2018-07-21T08:32:10.000Z</time>
      </trkpt>
      <trkpt lat="43.97351" lon="7.08052">
        <ele>975</ele>
        <time>2018-07-21T08:32:13.000Z</time>
      </trkpt>
      <trkpt lat="43.97354" lon="7.08055">
        <ele>975</ele>
        <time>2018-07-21T08:32:17.000Z</time>
      </trkpt>
      <trkpt lat="43.97355" lon="7.08056">
        <ele>975</ele>
        <time>2018-07-21T08:32:18.000Z</time>
      </trkpt>
      <trkpt lat="43.97357" lon="7.08063">
        <ele>974</ele>
        <time>2018-07-21T08:32:23.000Z</time>
      </trkpt>
      <trkpt lat="43.97358" lon="7.08064">
        <ele>974</ele>
        <time>2018-07-21T08:32:24.000Z</time>
      </trkpt>
      <trkpt lat="43.97364" lon="7.08074">
        <ele>973</ele>
        <time>2018-07-21T08:32:31.000Z</time>
      </trkpt>
      <trkpt lat="43.97366" lon="7.08075">
        <ele>973</ele>
        <time>2018-07-21T08:32:33.000Z</time>
      </trkpt>
      <trkpt lat="43.9737" lon="7.08078">
        <ele>973</ele>
        <time>2018-07-21T08:32:37.000Z</time>
      </trkpt>
      <trkpt lat="43.97372" lon="7.0808">
        <ele>973</ele>
        <time>2018-07-21T08:32:39.000Z</time>
      </trkpt>
      <trkpt lat="43.97374" lon="7.08082">
        <ele>973</ele>
        <time>2018-07-21T08:32:41.000Z</time>
      </trkpt>
      <trkpt lat="43.9738" lon="7.08086">
        <ele>956</ele>
        <time>2018-07-21T08:32:46.000Z</time>
      </trkpt>
      <trkpt lat="43.97383" lon="7.08088">
        <ele>956</ele>
        <time>2018-07-21T08:32:48.000Z</time>
      </trkpt>
      <trkpt lat="43.97387" lon="7.08089">
        <ele>956</ele>
        <time>2018-07-21T08:32:51.000Z</time>
      </trkpt>
      <trkpt lat="43.97388" lon="7.08089">
        <ele>956</ele>
        <time>2018-07-21T08:32:52.000Z</time>
      </trkpt>
      <trkpt lat="43.97392" lon="7.08089">
        <ele>956</ele>
        <time>2018-07-21T08:32:55.000Z</time>
      </trkpt>
      <trkpt lat="43.97393" lon="7.08089">
        <ele>956</ele>
        <time>2018-07-21T08:32:56.000Z</time>
      </trkpt>
      <trkpt lat="43.97395" lon="7.08088">
        <ele>957</ele>
        <time>2018-07-21T08:32:58.000Z</time>
      </trkpt>
      <trkpt lat="43.97396" lon="7.08083">
        <ele>970</ele>
        <time>2018-07-21T08:33:02.000Z</time>
      </trkpt>
      <trkpt lat="43.97391" lon="7.08079">
        <ele>972</ele>
        <time>2018-07-21T08:33:05.000Z</time>
      </trkpt>
      <trkpt lat="43.97386" lon="7.08076">
        <ele>973</ele>
        <time>2018-07-21T08:33:08.000Z</time>
      </trkpt>
      <trkpt lat="43.9738" lon="7.0807">
        <ele>974</ele>
        <time>2018-07-21T08:33:12.000Z</time>
      </trkpt>
      <trkpt lat="43.97378" lon="7.08066">
        <ele>974</ele>
        <time>2018-07-21T08:33:15.000Z</time>
      </trkpt>
      <trkpt lat="43.97377" lon="7.08063">
        <ele>975</ele>
        <time>2018-07-21T08:33:17.000Z</time>
      </trkpt>
      <trkpt lat="43.97377" lon="7.08059">
        <ele>975</ele>
        <time>2018-07-21T08:33:19.000Z</time>
      </trkpt>
      <trkpt lat="43.97377" lon="7.08059">
        <ele>975</ele>
        <time>2018-07-21T08:33:20.000Z</time>
      </trkpt>
      <trkpt lat="43.97376" lon="7.08056">
        <ele>976</ele>
        <time>2018-07-21T08:33:22.000Z</time>
      </trkpt>
      <trkpt lat="43.97375" lon="7.08047">
        <ele>977</ele>
        <time>2018-07-21T08:33:27.000Z</time>
      </trkpt>
      <trkpt lat="43.97375" lon="7.08046">
        <ele>977</ele>
        <time>2018-07-21T08:33:28.000Z</time>
      </trkpt>
      <trkpt lat="43.97374" lon="7.08039">
        <ele>979</ele>
        <time>2018-07-21T08:33:32.000Z</time>
      </trkpt>
      <trkpt lat="43.97374" lon="7.08034">
        <ele>980</ele>
        <time>2018-07-21T08:33:35.000Z</time>
      </trkpt>
      <trkpt lat="43.97373" lon="7.08029">
        <ele>980</ele>
        <time>2018-07-21T08:33:38.000Z</time>
      </trkpt>
      <trkpt lat="43.97373" lon="7.08021">
        <ele>982</ele>
        <time>2018-07-21T08:33:43.000Z</time>
      </trkpt>
      <trkpt lat="43.97373" lon="7.08019">
        <ele>982</ele>
        <time>2018-07-21T08:33:44.000Z</time>
      </trkpt>
      <trkpt lat="43.97372" lon="7.08011">
        <ele>983</ele>
        <time>2018-07-21T08:33:49.000Z</time>
      </trkpt>
      <trkpt lat="43.97372" lon="7.08009">
        <ele>983</ele>
        <time>2018-07-21T08:33:50.000Z</time>
      </trkpt>
      <trkpt lat="43.97371" lon="7.08001">
        <ele>984</ele>
        <time>2018-07-21T08:33:55.000Z</time>
      </trkpt>
      <trkpt lat="43.97371" lon="7.07997">
        <ele>1001</ele>
        <time>2018-07-21T08:33:57.000Z</time>
      </trkpt>
      <trkpt lat="43.97369" lon="7.07987">
        <ele>1002</ele>
        <time>2018-07-21T08:34:02.000Z</time>
      </trkpt>
      <trkpt lat="43.9737" lon="7.07984">
        <ele>1002</ele>
        <time>2018-07-21T08:34:04.000Z</time>
      </trkpt>
      <trkpt lat="43.9737" lon="7.0798">
        <ele>1003</ele>
        <time>2018-07-21T08:34:06.000Z</time>
      </trkpt>
      <trkpt lat="43.97371" lon="7.07974">
        <ele>1004</ele>
        <time>2018-07-21T08:34:10.000Z</time>
      </trkpt>
      <trkpt lat="43.9737" lon="7.07971">
        <ele>1004</ele>
        <time>2018-07-21T08:34:12.000Z</time>
      </trkpt>
      <trkpt lat="43.9737" lon="7.07967">
        <ele>1005</ele>
        <time>2018-07-21T08:34:14.000Z</time>
      </trkpt>
      <trkpt lat="43.9737" lon="7.07966">
        <ele>1005</ele>
        <time>2018-07-21T08:34:15.000Z</time>
      </trkpt>
      <trkpt lat="43.9737" lon="7.07964">
        <ele>1005</ele>
        <time>2018-07-21T08:34:16.000Z</time>
      </trkpt>
      <trkpt lat="43.97369" lon="7.07963">
        <ele>1006</ele>
        <time>2018-07-21T08:34:17.000Z</time>
      </trkpt>
      <trkpt lat="43.97368" lon="7.07957">
        <ele>1006</ele>
        <time>2018-07-21T08:34:20.000Z</time>
      </trkpt>
      <trkpt lat="43.97368" lon="7.07956">
        <ele>1007</ele>
        <time>2018-07-21T08:34:21.000Z</time>
      </trkpt>
      <trkpt lat="43.97368" lon="7.07954">
        <ele>1007</ele>
        <time>2018-07-21T08:34:22.000Z</time>
      </trkpt>
      <trkpt lat="43.97368" lon="7.0795">
        <ele>1008</ele>
        <time>2018-07-21T08:34:25.000Z</time>
      </trkpt>
      <trkpt lat="43.97368" lon="7.07947">
        <ele>1008</ele>
        <time>2018-07-21T08:34:27.000Z</time>
      </trkpt>
      <trkpt lat="43.97368" lon="7.07945">
        <ele>1008</ele>
        <time>2018-07-21T08:34:28.000Z</time>
      </trkpt>
      <trkpt lat="43.97368" lon="7.07939">
        <ele>1009</ele>
        <time>2018-07-21T08:34:33.000Z</time>
      </trkpt>
      <trkpt lat="43.97368" lon="7.07937">
        <ele>1009</ele>
        <time>2018-07-21T08:34:34.000Z</time>
      </trkpt>
      <trkpt lat="43.97367" lon="7.07934">
        <ele>1010</ele>
        <time>2018-07-21T08:34:36.000Z</time>
      </trkpt>
      <trkpt lat="43.97365" lon="7.07933">
        <ele>1010</ele>
        <time>2018-07-21T08:34:38.000Z</time>
      </trkpt>
      <trkpt lat="43.97362" lon="7.07932">
        <ele>1010</ele>
        <time>2018-07-21T08:34:40.000Z</time>
      </trkpt>
      <trkpt lat="43.97361" lon="7.07932">
        <ele>1010</ele>
        <time>2018-07-21T08:34:41.000Z</time>
      </trkpt>
      <trkpt lat="43.97359" lon="7.07932">
        <ele>1010</ele>
        <time>2018-07-21T08:34:42.000Z</time>
      </trkpt>
      <trkpt lat="43.97356" lon="7.07934">
        <ele>1009</ele>
        <time>2018-07-21T08:34:45.000Z</time>
      </trkpt>
      <trkpt lat="43.97354" lon="7.07935">
        <ele>1009</ele>
        <time>2018-07-21T08:34:47.000Z</time>
      </trkpt>
      <trkpt lat="43.97349" lon="7.07936">
        <ele>1009</ele>
        <time>2018-07-21T08:34:51.000Z</time>
      </trkpt>
      <trkpt lat="43.97348" lon="7.07935">
        <ele>1009</ele>
        <time>2018-07-21T08:34:52.000Z</time>
      </trkpt>
      <trkpt lat="43.97344" lon="7.07937">
        <ele>1009</ele>
        <time>2018-07-21T08:34:57.000Z</time>
      </trkpt>
      <trkpt lat="43.9734" lon="7.07936">
        <ele>1009</ele>
        <time>2018-07-21T08:34:59.000Z</time>
      </trkpt>
      <trkpt lat="43.97338" lon="7.07936">
        <ele>1009</ele>
        <time>2018-07-21T08:35:01.000Z</time>
      </trkpt>
      <trkpt lat="43.97336" lon="7.07937">
        <ele>1009</ele>
        <time>2018-07-21T08:35:03.000Z</time>
      </trkpt>
      <trkpt lat="43.97333" lon="7.07937">
        <ele>1009</ele>
        <time>2018-07-21T08:35:06.000Z</time>
      </trkpt>
      <trkpt lat="43.97332" lon="7.07939">
        <ele>1009</ele>
        <time>2018-07-21T08:35:07.000Z</time>
      </trkpt>
      <trkpt lat="43.97331" lon="7.0794">
        <ele>1009</ele>
        <time>2018-07-21T08:35:08.000Z</time>
      </trkpt>
      <trkpt lat="43.97329" lon="7.07941">
        <ele>1009</ele>
        <time>2018-07-21T08:35:10.000Z</time>
      </trkpt>
      <trkpt lat="43.97326" lon="7.07943">
        <ele>1008</ele>
        <time>2018-07-21T08:35:12.000Z</time>
      </trkpt>
      <trkpt lat="43.97325" lon="7.07945">
        <ele>1008</ele>
        <time>2018-07-21T08:35:13.000Z</time>
      </trkpt>
      <trkpt lat="43.9732" lon="7.07944">
        <ele>1008</ele>
        <time>2018-07-21T08:35:16.000Z</time>
      </trkpt>
      <trkpt lat="43.97319" lon="7.07941">
        <ele>1009</ele>
        <time>2018-07-21T08:35:17.000Z</time>
      </trkpt>
      <trkpt lat="43.9732" lon="7.07937">
        <ele>1009</ele>
        <time>2018-07-21T08:35:20.000Z</time>
      </trkpt>
      <trkpt lat="43.97321" lon="7.07936">
        <ele>1010</ele>
        <time>2018-07-21T08:35:21.000Z</time>
      </trkpt>
      <trkpt lat="43.97323" lon="7.07933">
        <ele>1010</ele>
        <time>2018-07-21T08:35:24.000Z</time>
      </trkpt>
      <trkpt lat="43.97323" lon="7.07932">
        <ele>1010</ele>
        <time>2018-07-21T08:35:25.000Z</time>
      </trkpt>
      <trkpt lat="43.97323" lon="7.0793">
        <ele>1011</ele>
        <time>2018-07-21T08:35:27.000Z</time>
      </trkpt>
      <trkpt lat="43.97323" lon="7.0793">
        <ele>1011</ele>
        <time>2018-07-21T08:35:29.000Z</time>
      </trkpt>
      <trkpt lat="43.97323" lon="7.07927">
        <ele>1011</ele>
        <time>2018-07-21T08:35:30.000Z</time>
      </trkpt>
      <trkpt lat="43.97325" lon="7.07923">
        <ele>1012</ele>
        <time>2018-07-21T08:35:33.000Z</time>
      </trkpt>
      <trkpt lat="43.97328" lon="7.07918">
        <ele>1013</ele>
        <time>2018-07-21T08:35:36.000Z</time>
      </trkpt>
      <trkpt lat="43.97328" lon="7.07916">
        <ele>1018</ele>
        <time>2018-07-21T08:35:37.000Z</time>
      </trkpt>
      <trkpt lat="43.97328" lon="7.07915">
        <ele>1019</ele>
        <time>2018-07-21T08:35:38.000Z</time>
      </trkpt>
      <trkpt lat="43.97329" lon="7.07909">
        <ele>1021</ele>
        <time>2018-07-21T08:35:43.000Z</time>
      </trkpt>
      <trkpt lat="43.9733" lon="7.07905">
        <ele>1023</ele>
        <time>2018-07-21T08:35:47.000Z</time>
      </trkpt>
      <trkpt lat="43.9733" lon="7.07903">
        <ele>1024</ele>
        <time>2018-07-21T08:35:50.000Z</time>
      </trkpt>
      <trkpt lat="43.97331" lon="7.07901">
        <ele>1025</ele>
        <time>2018-07-21T08:35:53.000Z</time>
      </trkpt>
      <trkpt lat="43.97332" lon="7.07897">
        <ele>1027</ele>
        <time>2018-07-21T08:35:55.000Z</time>
      </trkpt>
      <trkpt lat="43.97331" lon="7.07895">
        <ele>1028</ele>
        <time>2018-07-21T08:35:57.000Z</time>
      </trkpt>
      <trkpt lat="43.97331" lon="7.07893">
        <ele>1029</ele>
        <time>2018-07-21T08:35:59.000Z</time>
      </trkpt>
      <trkpt lat="43.97331" lon="7.07891">
        <ele>1029</ele>
        <time>2018-07-21T08:36:00.000Z</time>
      </trkpt>
      <trkpt lat="43.97331" lon="7.07888">
        <ele>1031</ele>
        <time>2018-07-21T08:36:03.000Z</time>
      </trkpt>
      <trkpt lat="43.97332" lon="7.07885">
        <ele>1031</ele>
        <time>2018-07-21T08:36:05.000Z</time>
      </trkpt>
      <trkpt lat="43.97333" lon="7.07882">
        <ele>1032</ele>
        <time>2018-07-21T08:36:08.000Z</time>
      </trkpt>
      <trkpt lat="43.97334" lon="7.07881">
        <ele>1031</ele>
        <time>2018-07-21T08:36:09.000Z</time>
      </trkpt>
      <trkpt lat="43.97335" lon="7.07879">
        <ele>1032</ele>
        <time>2018-07-21T08:36:12.000Z</time>
      </trkpt>
      <trkpt lat="43.97336" lon="7.07874">
        <ele>1033</ele>
        <time>2018-07-21T08:36:16.000Z</time>
      </trkpt>
      <trkpt lat="43.97337" lon="7.07873">
        <ele>1034</ele>
        <time>2018-07-21T08:36:17.000Z</time>
      </trkpt>
      <trkpt lat="43.97337" lon="7.07871">
        <ele>1034</ele>
        <time>2018-07-21T08:36:18.000Z</time>
      </trkpt>
      <trkpt lat="43.97339" lon="7.07867">
        <ele>1035</ele>
        <time>2018-07-21T08:36:21.000Z</time>
      </trkpt>
      <trkpt lat="43.97341" lon="7.07864">
        <ele>1036</ele>
        <time>2018-07-21T08:36:23.000Z</time>
      </trkpt>
      <trkpt lat="43.97345" lon="7.07862">
        <ele>1036</ele>
        <time>2018-07-21T08:36:27.000Z</time>
      </trkpt>
      <trkpt lat="43.97346" lon="7.07862">
        <ele>1036</ele>
        <time>2018-07-21T08:36:28.000Z</time>
      </trkpt>
      <trkpt lat="43.97351" lon="7.07862">
        <ele>1036</ele>
        <time>2018-07-21T08:36:31.000Z</time>
      </trkpt>
      <trkpt lat="43.97354" lon="7.07863">
        <ele>1036</ele>
        <time>2018-07-21T08:36:33.000Z</time>
      </trkpt>
      <trkpt lat="43.97357" lon="7.07867">
        <ele>1036</ele>
        <time>2018-07-21T08:36:36.000Z</time>
      </trkpt>
      <trkpt lat="43.97361" lon="7.07874">
        <ele>1034</ele>
        <time>2018-07-21T08:36:41.000Z</time>
      </trkpt>
      <trkpt lat="43.97362" lon="7.07876">
        <ele>1034</ele>
        <time>2018-07-21T08:36:43.000Z</time>
      </trkpt>
      <trkpt lat="43.97365" lon="7.07878">
        <ele>1034</ele>
        <time>2018-07-21T08:36:46.000Z</time>
      </trkpt>
      <trkpt lat="43.97366" lon="7.07879">
        <ele>1034</ele>
        <time>2018-07-21T08:36:47.000Z</time>
      </trkpt>
      <trkpt lat="43.97372" lon="7.07884">
        <ele>1033</ele>
        <time>2018-07-21T08:36:52.000Z</time>
      </trkpt>
      <trkpt lat="43.97375" lon="7.07886">
        <ele>1033</ele>
        <time>2018-07-21T08:36:54.000Z</time>
      </trkpt>
      <trkpt lat="43.97381" lon="7.07888">
        <ele>1033</ele>
        <time>2018-07-21T08:36:58.000Z</time>
      </trkpt>
      <trkpt lat="43.97385" lon="7.0789">
        <ele>1033</ele>
        <time>2018-07-21T08:37:02.000Z</time>
      </trkpt>
      <trkpt lat="43.97392" lon="7.07896">
        <ele>1032</ele>
        <time>2018-07-21T08:37:09.000Z</time>
      </trkpt>
      <trkpt lat="43.97397" lon="7.07904">
        <ele>1031</ele>
        <time>2018-07-21T08:37:16.000Z</time>
      </trkpt>
      <trkpt lat="43.97398" lon="7.07905">
        <ele>1031</ele>
        <time>2018-07-21T08:37:17.000Z</time>
      </trkpt>
      <trkpt lat="43.97401" lon="7.07909">
        <ele>1030</ele>
        <time>2018-07-21T08:37:22.000Z</time>
      </trkpt>
      <trkpt lat="43.97402" lon="7.0791">
        <ele>1030</ele>
        <time>2018-07-21T08:37:23.000Z</time>
      </trkpt>
      <trkpt lat="43.97409" lon="7.07915">
        <ele>1028</ele>
        <time>2018-07-21T08:37:29.000Z</time>
      </trkpt>
      <trkpt lat="43.97411" lon="7.07917">
        <ele>1022</ele>
        <time>2018-07-21T08:37:31.000Z</time>
      </trkpt>
      <trkpt lat="43.97415" lon="7.07921">
        <ele>1023</ele>
        <time>2018-07-21T08:37:35.000Z</time>
      </trkpt>
      <trkpt lat="43.97416" lon="7.07922">
        <ele>1022</ele>
        <time>2018-07-21T08:37:36.000Z</time>
      </trkpt>
      <trkpt lat="43.97421" lon="7.07928">
        <ele>1021</ele>
        <time>2018-07-21T08:37:41.000Z</time>
      </trkpt>
      <trkpt lat="43.97423" lon="7.07931">
        <ele>1020</ele>
        <time>2018-07-21T08:37:44.000Z</time>
      </trkpt>
      <trkpt lat="43.97425" lon="7.07934">
        <ele>1019</ele>
        <time>2018-07-21T08:37:47.000Z</time>
      </trkpt>
      <trkpt lat="43.97429" lon="7.07939">
        <ele>1017</ele>
        <time>2018-07-21T08:37:52.000Z</time>
      </trkpt>
      <trkpt lat="43.97435" lon="7.07945">
        <ele>1016</ele>
        <time>2018-07-21T08:37:59.000Z</time>
      </trkpt>
      <trkpt lat="43.97436" lon="7.07945">
        <ele>1015</ele>
        <time>2018-07-21T08:38:00.000Z</time>
      </trkpt>
      <trkpt lat="43.97438" lon="7.07946">
        <ele>1015</ele>
        <time>2018-07-21T08:38:03.000Z</time>
      </trkpt>
      <trkpt lat="43.97442" lon="7.07946">
        <ele>1015</ele>
        <time>2018-07-21T08:38:06.000Z</time>
      </trkpt>
      <trkpt lat="43.97449" lon="7.07942">
        <ele>1016</ele>
        <time>2018-07-21T08:38:13.000Z</time>
      </trkpt>
      <trkpt lat="43.97454" lon="7.0794">
        <ele>1016</ele>
        <time>2018-07-21T08:38:18.000Z</time>
      </trkpt>
      <trkpt lat="43.97455" lon="7.07939">
        <ele>1016</ele>
        <time>2018-07-21T08:38:19.000Z</time>
      </trkpt>
      <trkpt lat="43.97459" lon="7.07936">
        <ele>1017</ele>
        <time>2018-07-21T08:38:23.000Z</time>
      </trkpt>
      <trkpt lat="43.97461" lon="7.07935">
        <ele>1017</ele>
        <time>2018-07-21T08:38:25.000Z</time>
      </trkpt>
      <trkpt lat="43.97462" lon="7.07934">
        <ele>1017</ele>
        <time>2018-07-21T08:38:26.000Z</time>
      </trkpt>
      <trkpt lat="43.97465" lon="7.07931">
        <ele>1018</ele>
        <time>2018-07-21T08:38:30.000Z</time>
      </trkpt>
      <trkpt lat="43.97468" lon="7.07929">
        <ele>1019</ele>
        <time>2018-07-21T08:38:32.000Z</time>
      </trkpt>
      <trkpt lat="43.9747" lon="7.07927">
        <ele>1019</ele>
        <time>2018-07-21T08:38:34.000Z</time>
      </trkpt>
      <trkpt lat="43.97476" lon="7.07922">
        <ele>1021</ele>
        <time>2018-07-21T08:38:39.000Z</time>
      </trkpt>
      <trkpt lat="43.97477" lon="7.07921">
        <ele>1022</ele>
        <time>2018-07-21T08:38:40.000Z</time>
      </trkpt>
      <trkpt lat="43.97482" lon="7.07919">
        <ele>1023</ele>
        <time>2018-07-21T08:38:44.000Z</time>
      </trkpt>
      <trkpt lat="43.97486" lon="7.07917">
        <ele>1040</ele>
        <time>2018-07-21T08:38:47.000Z</time>
      </trkpt>
      <trkpt lat="43.97488" lon="7.07914">
        <ele>1040</ele>
        <time>2018-07-21T08:38:49.000Z</time>
      </trkpt>
      <trkpt lat="43.97493" lon="7.07909">
        <ele>1039</ele>
        <time>2018-07-21T08:38:54.000Z</time>
      </trkpt>
      <trkpt lat="43.97499" lon="7.079">
        <ele>1042</ele>
        <time>2018-07-21T08:39:00.000Z</time>
      </trkpt>
      <trkpt lat="43.975" lon="7.07899">
        <ele>1043</ele>
        <time>2018-07-21T08:39:01.000Z</time>
      </trkpt>
      <trkpt lat="43.97505" lon="7.07891">
        <ele>1050</ele>
        <time>2018-07-21T08:39:07.000Z</time>
      </trkpt>
      <trkpt lat="43.97506" lon="7.0789">
        <ele>1051</ele>
        <time>2018-07-21T08:39:08.000Z</time>
      </trkpt>
      <trkpt lat="43.97516" lon="7.07885">
        <ele>1053</ele>
        <time>2018-07-21T08:39:13.000Z</time>
      </trkpt>
      <trkpt lat="43.97518" lon="7.07883">
        <ele>1054</ele>
        <time>2018-07-21T08:39:14.000Z</time>
      </trkpt>
      <trkpt lat="43.97533" lon="7.07872">
        <ele>1057</ele>
        <time>2018-07-21T08:39:21.000Z</time>
      </trkpt>
      <trkpt lat="43.97541" lon="7.07869">
        <ele>1058</ele>
        <time>2018-07-21T08:39:25.000Z</time>
      </trkpt>
      <trkpt lat="43.97542" lon="7.07869">
        <ele>1058</ele>
        <time>2018-07-21T08:39:26.000Z</time>
      </trkpt>
      <trkpt lat="43.97549" lon="7.07867">
        <ele>1059</ele>
        <time>2018-07-21T08:39:30.000Z</time>
      </trkpt>
      <trkpt lat="43.97552" lon="7.07868">
        <ele>1058</ele>
        <time>2018-07-21T08:39:32.000Z</time>
      </trkpt>
      <trkpt lat="43.97557" lon="7.0787">
        <ele>1058</ele>
        <time>2018-07-21T08:39:35.000Z</time>
      </trkpt>
      <trkpt lat="43.97558" lon="7.07873">
        <ele>1057</ele>
        <time>2018-07-21T08:39:38.000Z</time>
      </trkpt>
      <trkpt lat="43.9756" lon="7.07875">
        <ele>1056</ele>
        <time>2018-07-21T08:39:40.000Z</time>
      </trkpt>
      <trkpt lat="43.97562" lon="7.07877">
        <ele>1056</ele>
        <time>2018-07-21T08:39:43.000Z</time>
      </trkpt>
      <trkpt lat="43.97565" lon="7.07877">
        <ele>1056</ele>
        <time>2018-07-21T08:39:45.000Z</time>
      </trkpt>
      <trkpt lat="43.97571" lon="7.07877">
        <ele>1056</ele>
        <time>2018-07-21T08:39:49.000Z</time>
      </trkpt>
      <trkpt lat="43.97573" lon="7.07876">
        <ele>1056</ele>
        <time>2018-07-21T08:39:51.000Z</time>
      </trkpt>
      <trkpt lat="43.97578" lon="7.07875">
        <ele>1057</ele>
        <time>2018-07-21T08:39:55.000Z</time>
      </trkpt>
      <trkpt lat="43.97579" lon="7.07874">
        <ele>1057</ele>
        <time>2018-07-21T08:39:56.000Z</time>
      </trkpt>
      <trkpt lat="43.97582" lon="7.07872">
        <ele>1057</ele>
        <time>2018-07-21T08:39:59.000Z</time>
      </trkpt>
      <trkpt lat="43.97583" lon="7.07872">
        <ele>1058</ele>
        <time>2018-07-21T08:40:00.000Z</time>
      </trkpt>
      <trkpt lat="43.97584" lon="7.07871">
        <ele>1056</ele>
        <time>2018-07-21T08:40:01.000Z</time>
      </trkpt>
      <trkpt lat="43.97587" lon="7.07866">
        <ele>1058</ele>
        <time>2018-07-21T08:40:05.000Z</time>
      </trkpt>
      <trkpt lat="43.9759" lon="7.07864">
        <ele>1059</ele>
        <time>2018-07-21T08:40:08.000Z</time>
      </trkpt>
      <trkpt lat="43.9759" lon="7.07863">
        <ele>1059</ele>
        <time>2018-07-21T08:40:10.000Z</time>
      </trkpt>
      <trkpt lat="43.97594" lon="7.07861">
        <ele>1060</ele>
        <time>2018-07-21T08:40:13.000Z</time>
      </trkpt>
      <trkpt lat="43.97595" lon="7.0786">
        <ele>1060</ele>
        <time>2018-07-21T08:40:14.000Z</time>
      </trkpt>
      <trkpt lat="43.97598" lon="7.07858">
        <ele>1060</ele>
        <time>2018-07-21T08:40:18.000Z</time>
      </trkpt>
      <trkpt lat="43.97599" lon="7.07856">
        <ele>1061</ele>
        <time>2018-07-21T08:40:20.000Z</time>
      </trkpt>
      <trkpt lat="43.97601" lon="7.07854">
        <ele>1061</ele>
        <time>2018-07-21T08:40:23.000Z</time>
      </trkpt>
      <trkpt lat="43.97604" lon="7.07852">
        <ele>1061</ele>
        <time>2018-07-21T08:40:25.000Z</time>
      </trkpt>
      <trkpt lat="43.97608" lon="7.07845">
        <ele>1062</ele>
        <time>2018-07-21T08:40:31.000Z</time>
      </trkpt>
      <trkpt lat="43.97609" lon="7.07843">
        <ele>1062</ele>
        <time>2018-07-21T08:40:32.000Z</time>
      </trkpt>
      <trkpt lat="43.97612" lon="7.07839">
        <ele>1062</ele>
        <time>2018-07-21T08:40:36.000Z</time>
      </trkpt>
      <trkpt lat="43.97613" lon="7.07838">
        <ele>1062</ele>
        <time>2018-07-21T08:40:38.000Z</time>
      </trkpt>
      <trkpt lat="43.97615" lon="7.07835">
        <ele>1062</ele>
        <time>2018-07-21T08:40:42.000Z</time>
      </trkpt>
      <trkpt lat="43.97618" lon="7.07831">
        <ele>1083</ele>
        <time>2018-07-21T08:40:46.000Z</time>
      </trkpt>
      <trkpt lat="43.97621" lon="7.07827">
        <ele>1083</ele>
        <time>2018-07-21T08:40:50.000Z</time>
      </trkpt>
      <trkpt lat="43.97623" lon="7.07824">
        <ele>1083</ele>
        <time>2018-07-21T08:40:53.000Z</time>
      </trkpt>
      <trkpt lat="43.97624" lon="7.07823">
        <ele>1083</ele>
        <time>2018-07-21T08:40:54.000Z</time>
      </trkpt>
      <trkpt lat="43.97625" lon="7.07823">
        <ele>1083</ele>
        <time>2018-07-21T08:40:55.000Z</time>
      </trkpt>
      <trkpt lat="43.97626" lon="7.0782">
        <ele>1084</ele>
        <time>2018-07-21T08:40:58.000Z</time>
      </trkpt>
      <trkpt lat="43.97628" lon="7.07817">
        <ele>1084</ele>
        <time>2018-07-21T08:41:01.000Z</time>
      </trkpt>
      <trkpt lat="43.9763" lon="7.07814">
        <ele>1084</ele>
        <time>2018-07-21T08:41:04.000Z</time>
      </trkpt>
      <trkpt lat="43.97633" lon="7.0781">
        <ele>1084</ele>
        <time>2018-07-21T08:41:07.000Z</time>
      </trkpt>
      <trkpt lat="43.97639" lon="7.07804">
        <ele>1085</ele>
        <time>2018-07-21T08:41:12.000Z</time>
      </trkpt>
      <trkpt lat="43.97646" lon="7.07797">
        <ele>1086</ele>
        <time>2018-07-21T08:41:18.000Z</time>
      </trkpt>
      <trkpt lat="43.97647" lon="7.07796">
        <ele>1086</ele>
        <time>2018-07-21T08:41:19.000Z</time>
      </trkpt>
      <trkpt lat="43.97648" lon="7.07795">
        <ele>1086</ele>
        <time>2018-07-21T08:41:20.000Z</time>
      </trkpt>
      <trkpt lat="43.97651" lon="7.07793">
        <ele>1086</ele>
        <time>2018-07-21T08:41:23.000Z</time>
      </trkpt>
      <trkpt lat="43.97657" lon="7.07789">
        <ele>1087</ele>
        <time>2018-07-21T08:41:26.000Z</time>
      </trkpt>
      <trkpt lat="43.97661" lon="7.07786">
        <ele>1088</ele>
        <time>2018-07-21T08:41:30.000Z</time>
      </trkpt>
      <trkpt lat="43.97669" lon="7.0778">
        <ele>1082</ele>
        <time>2018-07-21T08:41:36.000Z</time>
      </trkpt>
      <trkpt lat="43.97669" lon="7.07779">
        <ele>1082</ele>
        <time>2018-07-21T08:41:37.000Z</time>
      </trkpt>
      <trkpt lat="43.97671" lon="7.07777">
        <ele>1083</ele>
        <time>2018-07-21T08:41:40.000Z</time>
      </trkpt>
      <trkpt lat="43.97673" lon="7.07776">
        <ele>1083</ele>
        <time>2018-07-21T08:41:41.000Z</time>
      </trkpt>
      <trkpt lat="43.97675" lon="7.07775">
        <ele>1083</ele>
        <time>2018-07-21T08:41:45.000Z</time>
      </trkpt>
      <trkpt lat="43.97677" lon="7.07774">
        <ele>1084</ele>
        <time>2018-07-21T08:41:46.000Z</time>
      </trkpt>
      <trkpt lat="43.9768" lon="7.07771">
        <ele>1084</ele>
        <time>2018-07-21T08:41:49.000Z</time>
      </trkpt>
      <trkpt lat="43.97683" lon="7.07768">
        <ele>1084</ele>
        <time>2018-07-21T08:41:53.000Z</time>
      </trkpt>
      <trkpt lat="43.97686" lon="7.07766">
        <ele>1084</ele>
        <time>2018-07-21T08:41:56.000Z</time>
      </trkpt>
      <trkpt lat="43.97691" lon="7.07762">
        <ele>1084</ele>
        <time>2018-07-21T08:42:01.000Z</time>
      </trkpt>
      <trkpt lat="43.97692" lon="7.0776">
        <ele>1084</ele>
        <time>2018-07-21T08:42:02.000Z</time>
      </trkpt>
      <trkpt lat="43.97695" lon="7.07756">
        <ele>1084</ele>
        <time>2018-07-21T08:42:04.000Z</time>
      </trkpt>
      <trkpt lat="43.97696" lon="7.07753">
        <ele>1084</ele>
        <time>2018-07-21T08:42:06.000Z</time>
      </trkpt>
      <trkpt lat="43.97697" lon="7.07751">
        <ele>1083</ele>
        <time>2018-07-21T08:42:07.000Z</time>
      </trkpt>
      <trkpt lat="43.97703" lon="7.07746">
        <ele>1097</ele>
        <time>2018-07-21T08:42:11.000Z</time>
      </trkpt>
      <trkpt lat="43.97703" lon="7.07745">
        <ele>1097</ele>
        <time>2018-07-21T08:42:12.000Z</time>
      </trkpt>
      <trkpt lat="43.97708" lon="7.07741">
        <ele>1097</ele>
        <time>2018-07-21T08:42:15.000Z</time>
      </trkpt>
      <trkpt lat="43.9771" lon="7.07738">
        <ele>1097</ele>
        <time>2018-07-21T08:42:17.000Z</time>
      </trkpt>
      <trkpt lat="43.97717" lon="7.07732">
        <ele>1096</ele>
        <time>2018-07-21T08:42:21.000Z</time>
      </trkpt>
      <trkpt lat="43.97719" lon="7.07731">
        <ele>1096</ele>
        <time>2018-07-21T08:42:22.000Z</time>
      </trkpt>
      <trkpt lat="43.97724" lon="7.07726">
        <ele>1096</ele>
        <time>2018-07-21T08:42:25.000Z</time>
      </trkpt>
      <trkpt lat="43.97728" lon="7.07722">
        <ele>1096</ele>
        <time>2018-07-21T08:42:27.000Z</time>
      </trkpt>
      <trkpt lat="43.97739" lon="7.07711">
        <ele>1097</ele>
        <time>2018-07-21T08:42:33.000Z</time>
      </trkpt>
      <trkpt lat="43.97752" lon="7.077">
        <ele>1092</ele>
        <time>2018-07-21T08:42:40.000Z</time>
      </trkpt>
      <trkpt lat="43.97761" lon="7.07693">
        <ele>1093</ele>
        <time>2018-07-21T08:42:45.000Z</time>
      </trkpt>
      <trkpt lat="43.97775" lon="7.07685">
        <ele>1094</ele>
        <time>2018-07-21T08:42:51.000Z</time>
      </trkpt>
      <trkpt lat="43.97777" lon="7.07685">
        <ele>1094</ele>
        <time>2018-07-21T08:42:52.000Z</time>
      </trkpt>
      <trkpt lat="43.97787" lon="7.07683">
        <ele>1093</ele>
        <time>2018-07-21T08:42:57.000Z</time>
      </trkpt>
      <trkpt lat="43.9779" lon="7.07682">
        <ele>1093</ele>
        <time>2018-07-21T08:42:59.000Z</time>
      </trkpt>
      <trkpt lat="43.97796" lon="7.07681">
        <ele>1093</ele>
        <time>2018-07-21T08:43:02.000Z</time>
      </trkpt>
      <trkpt lat="43.97801" lon="7.07679">
        <ele>1093</ele>
        <time>2018-07-21T08:43:05.000Z</time>
      </trkpt>
      <trkpt lat="43.97802" lon="7.07678">
        <ele>1094</ele>
        <time>2018-07-21T08:43:06.000Z</time>
      </trkpt>
      <trkpt lat="43.97807" lon="7.07675">
        <ele>1094</ele>
        <time>2018-07-21T08:43:09.000Z</time>
      </trkpt>
      <trkpt lat="43.9781" lon="7.07672">
        <ele>1095</ele>
        <time>2018-07-21T08:43:11.000Z</time>
      </trkpt>
      <trkpt lat="43.97814" lon="7.07668">
        <ele>1095</ele>
        <time>2018-07-21T08:43:14.000Z</time>
      </trkpt>
      <trkpt lat="43.97819" lon="7.07663">
        <ele>1103</ele>
        <time>2018-07-21T08:43:17.000Z</time>
      </trkpt>
      <trkpt lat="43.97823" lon="7.0766">
        <ele>1103</ele>
        <time>2018-07-21T08:43:21.000Z</time>
      </trkpt>
      <trkpt lat="43.97825" lon="7.07658">
        <ele>1103</ele>
        <time>2018-07-21T08:43:22.000Z</time>
      </trkpt>
      <trkpt lat="43.97826" lon="7.07657">
        <ele>1103</ele>
        <time>2018-07-21T08:43:23.000Z</time>
      </trkpt>
      <trkpt lat="43.97833" lon="7.07653">
        <ele>1103</ele>
        <time>2018-07-21T08:43:26.000Z</time>
      </trkpt>
      <trkpt lat="43.97835" lon="7.07651">
        <ele>1102</ele>
        <time>2018-07-21T08:43:28.000Z</time>
      </trkpt>
      <trkpt lat="43.97839" lon="7.07649">
        <ele>1102</ele>
        <time>2018-07-21T08:43:31.000Z</time>
      </trkpt>
      <trkpt lat="43.9784" lon="7.07648">
        <ele>1102</ele>
        <time>2018-07-21T08:43:32.000Z</time>
      </trkpt>
      <trkpt lat="43.97841" lon="7.07647">
        <ele>1102</ele>
        <time>2018-07-21T08:43:33.000Z</time>
      </trkpt>
      <trkpt lat="43.9785" lon="7.07644">
        <ele>1102</ele>
        <time>2018-07-21T08:43:37.000Z</time>
      </trkpt>
      <trkpt lat="43.97867" lon="7.07639">
        <ele>1103</ele>
        <time>2018-07-21T08:43:43.000Z</time>
      </trkpt>
      <trkpt lat="43.97886" lon="7.07634">
        <ele>1103</ele>
        <time>2018-07-21T08:43:48.000Z</time>
      </trkpt>
      <trkpt lat="43.97907" lon="7.07632">
        <ele>1102</ele>
        <time>2018-07-21T08:43:54.000Z</time>
      </trkpt>
      <trkpt lat="43.97921" lon="7.07634">
        <ele>1106</ele>
        <time>2018-07-21T08:43:59.000Z</time>
      </trkpt>
      <trkpt lat="43.97935" lon="7.07637">
        <ele>1107</ele>
        <time>2018-07-21T08:44:04.000Z</time>
      </trkpt>
      <trkpt lat="43.97942" lon="7.07639">
        <ele>1108</ele>
        <time>2018-07-21T08:44:07.000Z</time>
      </trkpt>
      <trkpt lat="43.97947" lon="7.07641">
        <ele>1108</ele>
        <time>2018-07-21T08:44:09.000Z</time>
      </trkpt>
      <trkpt lat="43.97953" lon="7.07642">
        <ele>1109</ele>
        <time>2018-07-21T08:44:12.000Z</time>
      </trkpt>
      <trkpt lat="43.97959" lon="7.07643">
        <ele>1109</ele>
        <time>2018-07-21T08:44:15.000Z</time>
      </trkpt>
      <trkpt lat="43.97964" lon="7.07645">
        <ele>1110</ele>
        <time>2018-07-21T08:44:18.000Z</time>
      </trkpt>
      <trkpt lat="43.97966" lon="7.07646">
        <ele>1110</ele>
        <time>2018-07-21T08:44:19.000Z</time>
      </trkpt>
      <trkpt lat="43.97971" lon="7.07648">
        <ele>1111</ele>
        <time>2018-07-21T08:44:22.000Z</time>
      </trkpt>
      <trkpt lat="43.97972" lon="7.07647">
        <ele>1111</ele>
        <time>2018-07-21T08:44:23.000Z</time>
      </trkpt>
      <trkpt lat="43.97973" lon="7.07646">
        <ele>1111</ele>
        <time>2018-07-21T08:44:24.000Z</time>
      </trkpt>
      <trkpt lat="43.97973" lon="7.07642">
        <ele>1111</ele>
        <time>2018-07-21T08:44:26.000Z</time>
      </trkpt>
      <trkpt lat="43.97973" lon="7.0764">
        <ele>1111</ele>
        <time>2018-07-21T08:44:27.000Z</time>
      </trkpt>
      <trkpt lat="43.97972" lon="7.07638">
        <ele>1111</ele>
        <time>2018-07-21T08:44:28.000Z</time>
      </trkpt>
      <trkpt lat="43.97968" lon="7.07629">
        <ele>1111</ele>
        <time>2018-07-21T08:44:32.000Z</time>
      </trkpt>
      <trkpt lat="43.97966" lon="7.07622">
        <ele>1111</ele>
        <time>2018-07-21T08:44:35.000Z</time>
      </trkpt>
      <trkpt lat="43.97965" lon="7.0762">
        <ele>1111</ele>
        <time>2018-07-21T08:44:36.000Z</time>
      </trkpt>
      <trkpt lat="43.97962" lon="7.07613">
        <ele>1110</ele>
        <time>2018-07-21T08:44:40.000Z</time>
      </trkpt>
      <trkpt lat="43.97961" lon="7.07611">
        <ele>1110</ele>
        <time>2018-07-21T08:44:41.000Z</time>
      </trkpt>
      <trkpt lat="43.97954" lon="7.07603">
        <ele>1110</ele>
        <time>2018-07-21T08:44:45.000Z</time>
      </trkpt>
      <trkpt lat="43.97952" lon="7.07601">
        <ele>1110</ele>
        <time>2018-07-21T08:44:46.000Z</time>
      </trkpt>
      <trkpt lat="43.97947" lon="7.07597">
        <ele>1109</ele>
        <time>2018-07-21T08:44:49.000Z</time>
      </trkpt>
      <trkpt lat="43.97943" lon="7.07595">
        <ele>1109</ele>
        <time>2018-07-21T08:44:52.000Z</time>
      </trkpt>
      <trkpt lat="43.97942" lon="7.07595">
        <ele>1109</ele>
        <time>2018-07-21T08:44:53.000Z</time>
      </trkpt>
      <trkpt lat="43.9794" lon="7.07593">
        <ele>1109</ele>
        <time>2018-07-21T08:44:58.000Z</time>
      </trkpt>
      <trkpt lat="43.97938" lon="7.07592">
        <ele>1108</ele>
        <time>2018-07-21T08:45:03.000Z</time>
      </trkpt>
      <trkpt lat="43.97936" lon="7.07594">
        <ele>1108</ele>
        <time>2018-07-21T08:45:08.000Z</time>
      </trkpt>
      <trkpt lat="43.97935" lon="7.07594">
        <ele>1108</ele>
        <time>2018-07-21T08:45:09.000Z</time>
      </trkpt>
      <trkpt lat="43.97933" lon="7.07593">
        <ele>1108</ele>
        <time>2018-07-21T08:45:12.000Z</time>
      </trkpt>
      <trkpt lat="43.97929" lon="7.0759">
        <ele>1108</ele>
        <time>2018-07-21T08:45:18.000Z</time>
      </trkpt>
      <trkpt lat="43.97927" lon="7.07592">
        <ele>1107</ele>
        <time>2018-07-21T08:45:25.000Z</time>
      </trkpt>
      <trkpt lat="43.97926" lon="7.07591">
        <ele>1107</ele>
        <time>2018-07-21T08:45:32.000Z</time>
      </trkpt>
      <trkpt lat="43.97927" lon="7.07591">
        <ele>1107</ele>
        <time>2018-07-21T08:45:38.000Z</time>
      </trkpt>
      <trkpt lat="43.97927" lon="7.0759">
        <ele>1107</ele>
        <time>2018-07-21T08:45:54.000Z</time>
      </trkpt>
      <trkpt lat="43.97928" lon="7.07591">
        <ele>1108</ele>
        <time>2018-07-21T08:46:10.000Z</time>
      </trkpt>
      <trkpt lat="43.97927" lon="7.07591">
        <ele>1108</ele>
        <time>2018-07-21T08:46:17.000Z</time>
      </trkpt>
      <trkpt lat="43.97927" lon="7.07592">
        <ele>1107</ele>
        <time>2018-07-21T08:46:24.000Z</time>
      </trkpt>
      <trkpt lat="43.97926" lon="7.07592">
        <ele>1107</ele>
        <time>2018-07-21T08:46:33.000Z</time>
      </trkpt>
      <trkpt lat="43.97925" lon="7.07593">
        <ele>1107</ele>
        <time>2018-07-21T08:46:44.000Z</time>
      </trkpt>
      <trkpt lat="43.97924" lon="7.07592">
        <ele>1107</ele>
        <time>2018-07-21T08:46:57.000Z</time>
      </trkpt>
      <trkpt lat="43.97923" lon="7.07593">
        <ele>1107</ele>
        <time>2018-07-21T08:47:11.000Z</time>
      </trkpt>
      <trkpt lat="43.97922" lon="7.07593">
        <ele>1107</ele>
        <time>2018-07-21T08:47:24.000Z</time>
      </trkpt>
      <trkpt lat="43.97922" lon="7.07592">
        <ele>1107</ele>
        <time>2018-07-21T08:47:38.000Z</time>
      </trkpt>
      <trkpt lat="43.97921" lon="7.07592">
        <ele>1107</ele>
        <time>2018-07-21T08:47:48.000Z</time>
      </trkpt>
      <trkpt lat="43.97921" lon="7.07592">
        <ele>1107</ele>
        <time>2018-07-21T08:47:50.000Z</time>
      </trkpt>
      <trkpt lat="43.9792" lon="7.07592">
        <ele>1107</ele>
        <time>2018-07-21T08:47:58.000Z</time>
      </trkpt>
      <trkpt lat="43.9792" lon="7.07591">
        <ele>1107</ele>
        <time>2018-07-21T08:48:03.000Z</time>
      </trkpt>
      <trkpt lat="43.9792" lon="7.07591">
        <ele>1107</ele>
        <time>2018-07-21T08:48:08.000Z</time>
      </trkpt>
      <trkpt lat="43.97919" lon="7.07592">
        <ele>1107</ele>
        <time>2018-07-21T08:48:16.000Z</time>
      </trkpt>
      <trkpt lat="43.9792" lon="7.07592">
        <ele>1107</ele>
        <time>2018-07-21T08:48:29.000Z</time>
      </trkpt>
      <trkpt lat="43.9792" lon="7.07592">
        <ele>1107</ele>
        <time>2018-07-21T08:48:38.000Z</time>
      </trkpt>
      <trkpt lat="43.97921" lon="7.0759">
        <ele>1107</ele>
        <time>2018-07-21T08:48:49.000Z</time>
      </trkpt>
      <trkpt lat="43.97922" lon="7.0759">
        <ele>1107</ele>
        <time>2018-07-21T08:48:50.000Z</time>
      </trkpt>
      <trkpt lat="43.97925" lon="7.07593">
        <ele>1107</ele>
        <time>2018-07-21T08:48:56.000Z</time>
      </trkpt>
      <trkpt lat="43.97925" lon="7.07594">
        <ele>1107</ele>
        <time>2018-07-21T08:49:02.000Z</time>
      </trkpt>
      <trkpt lat="43.97925" lon="7.07595">
        <ele>1107</ele>
        <time>2018-07-21T08:49:11.000Z</time>
      </trkpt>
      <trkpt lat="43.97929" lon="7.07594">
        <ele>1108</ele>
        <time>2018-07-21T08:49:19.000Z</time>
      </trkpt>
      <trkpt lat="43.97932" lon="7.07595">
        <ele>1108</ele>
        <time>2018-07-21T08:49:22.000Z</time>
      </trkpt>
      <trkpt lat="43.97931" lon="7.07596">
        <ele>1108</ele>
        <time>2018-07-21T08:49:24.000Z</time>
      </trkpt>
      <trkpt lat="43.97928" lon="7.07595">
        <ele>1108</ele>
        <time>2018-07-21T08:49:32.000Z</time>
      </trkpt>
      <trkpt lat="43.97929" lon="7.07595">
        <ele>1108</ele>
        <time>2018-07-21T08:49:59.000Z</time>
      </trkpt>
      <trkpt lat="43.97929" lon="7.07594">
        <ele>1108</ele>
        <time>2018-07-21T08:50:14.000Z</time>
      </trkpt>
      <trkpt lat="43.97929" lon="7.07594">
        <ele>1108</ele>
        <time>2018-07-21T08:50:16.000Z</time>
      </trkpt>
      <trkpt lat="43.9793" lon="7.07591">
        <ele>1108</ele>
        <time>2018-07-21T08:50:19.000Z</time>
      </trkpt>
      <trkpt lat="43.97932" lon="7.07589">
        <ele>1108</ele>
        <time>2018-07-21T08:50:21.000Z</time>
      </trkpt>
      <trkpt lat="43.97937" lon="7.07589">
        <ele>1108</ele>
        <time>2018-07-21T08:50:24.000Z</time>
      </trkpt>
      <trkpt lat="43.9794" lon="7.0759">
        <ele>1109</ele>
        <time>2018-07-21T08:50:26.000Z</time>
      </trkpt>
      <trkpt lat="43.97952" lon="7.07594">
        <ele>1110</ele>
        <time>2018-07-21T08:50:34.000Z</time>
      </trkpt>
      <trkpt lat="43.97957" lon="7.07596">
        <ele>1110</ele>
        <time>2018-07-21T08:50:37.000Z</time>
      </trkpt>
      <trkpt lat="43.97963" lon="7.07599">
        <ele>1111</ele>
        <time>2018-07-21T08:50:41.000Z</time>
      </trkpt>
      <trkpt lat="43.97967" lon="7.07602">
        <ele>1111</ele>
        <time>2018-07-21T08:50:44.000Z</time>
      </trkpt>
      <trkpt lat="43.97972" lon="7.07607">
        <ele>1112</ele>
        <time>2018-07-21T08:50:48.000Z</time>
      </trkpt>
      <trkpt lat="43.9798" lon="7.07614">
        <ele>1112</ele>
        <time>2018-07-21T08:50:54.000Z</time>
      </trkpt>
      <trkpt lat="43.97982" lon="7.07616">
        <ele>1112</ele>
        <time>2018-07-21T08:50:56.000Z</time>
      </trkpt>
      <trkpt lat="43.9799" lon="7.07622">
        <ele>1112</ele>
        <time>2018-07-21T08:51:02.000Z</time>
      </trkpt>
      <trkpt lat="43.97997" lon="7.07627">
        <ele>1113</ele>
        <time>2018-07-21T08:51:08.000Z</time>
      </trkpt>
      <trkpt lat="43.97999" lon="7.07628">
        <ele>1113</ele>
        <time>2018-07-21T08:51:09.000Z</time>
      </trkpt>
      <trkpt lat="43.9801" lon="7.07634">
        <ele>1130</ele>
        <time>2018-07-21T08:51:16.000Z</time>
      </trkpt>
      <trkpt lat="43.98016" lon="7.07642">
        <ele>1130</ele>
        <time>2018-07-21T08:51:21.000Z</time>
      </trkpt>
      <trkpt lat="43.98016" lon="7.07643">
        <ele>1130</ele>
        <time>2018-07-21T08:51:22.000Z</time>
      </trkpt>
      <trkpt lat="43.98024" lon="7.07663">
        <ele>1129</ele>
        <time>2018-07-21T08:51:31.000Z</time>
      </trkpt>
      <trkpt lat="43.9803" lon="7.07681">
        <ele>1130</ele>
        <time>2018-07-21T08:51:39.000Z</time>
      </trkpt>
      <trkpt lat="43.98033" lon="7.07694">
        <ele>1131</ele>
        <time>2018-07-21T08:51:44.000Z</time>
      </trkpt>
      <trkpt lat="43.98035" lon="7.077">
        <ele>1131</ele>
        <time>2018-07-21T08:51:46.000Z</time>
      </trkpt>
      <trkpt lat="43.98042" lon="7.07723">
        <ele>1132</ele>
        <time>2018-07-21T08:51:54.000Z</time>
      </trkpt>
      <trkpt lat="43.98043" lon="7.07726">
        <ele>1133</ele>
        <time>2018-07-21T08:51:55.000Z</time>
      </trkpt>
      <trkpt lat="43.98048" lon="7.07742">
        <ele>1134</ele>
        <time>2018-07-21T08:52:01.000Z</time>
      </trkpt>
      <trkpt lat="43.9805" lon="7.07748">
        <ele>1135</ele>
        <time>2018-07-21T08:52:03.000Z</time>
      </trkpt>
      <trkpt lat="43.98053" lon="7.07767">
        <ele>1131</ele>
        <time>2018-07-21T08:52:10.000Z</time>
      </trkpt>
      <trkpt lat="43.98054" lon="7.07775">
        <ele>1131</ele>
        <time>2018-07-21T08:52:13.000Z</time>
      </trkpt>
      <trkpt lat="43.98054" lon="7.07781">
        <ele>1130</ele>
        <time>2018-07-21T08:52:15.000Z</time>
      </trkpt>
      <trkpt lat="43.98056" lon="7.07787">
        <ele>1130</ele>
        <time>2018-07-21T08:52:17.000Z</time>
      </trkpt>
      <trkpt lat="43.98058" lon="7.07803">
        <ele>1130</ele>
        <time>2018-07-21T08:52:22.000Z</time>
      </trkpt>
      <trkpt lat="43.98065" lon="7.07831">
        <ele>1133</ele>
        <time>2018-07-21T08:52:29.000Z</time>
      </trkpt>
      <trkpt lat="43.98067" lon="7.07839">
        <ele>1131</ele>
        <time>2018-07-21T08:52:31.000Z</time>
      </trkpt>
      <trkpt lat="43.98069" lon="7.07853">
        <ele>1130</ele>
        <time>2018-07-21T08:52:34.000Z</time>
      </trkpt>
      <trkpt lat="43.98073" lon="7.07878">
        <ele>1129</ele>
        <time>2018-07-21T08:52:40.000Z</time>
      </trkpt>
      <trkpt lat="43.98076" lon="7.079">
        <ele>1131</ele>
        <time>2018-07-21T08:52:45.000Z</time>
      </trkpt>
      <trkpt lat="43.98076" lon="7.07909">
        <ele>1133</ele>
        <time>2018-07-21T08:52:47.000Z</time>
      </trkpt>
      <trkpt lat="43.98074" lon="7.07938">
        <ele>1130</ele>
        <time>2018-07-21T08:52:53.000Z</time>
      </trkpt>
      <trkpt lat="43.98074" lon="7.07979">
        <ele>1129</ele>
        <time>2018-07-21T08:53:01.000Z</time>
      </trkpt>
      <trkpt lat="43.98071" lon="7.08025">
        <ele>1128</ele>
        <time>2018-07-21T08:53:10.000Z</time>
      </trkpt>
      <trkpt lat="43.98064" lon="7.08058">
        <ele>1128</ele>
        <time>2018-07-21T08:53:17.000Z</time>
      </trkpt>
      <trkpt lat="43.98065" lon="7.08062">
        <ele>1128</ele>
        <time>2018-07-21T08:53:18.000Z</time>
      </trkpt>
      <trkpt lat="43.9807" lon="7.08074">
        <ele>1132</ele>
        <time>2018-07-21T08:53:21.000Z</time>
      </trkpt>
      <trkpt lat="43.98075" lon="7.08082">
        <ele>1136</ele>
        <time>2018-07-21T08:53:23.000Z</time>
      </trkpt>
      <trkpt lat="43.98078" lon="7.08095">
        <ele>1133</ele>
        <time>2018-07-21T08:53:26.000Z</time>
      </trkpt>
      <trkpt lat="43.98084" lon="7.0811">
        <ele>1152</ele>
        <time>2018-07-21T08:53:30.000Z</time>
      </trkpt>
      <trkpt lat="43.98088" lon="7.08118">
        <ele>1153</ele>
        <time>2018-07-21T08:53:32.000Z</time>
      </trkpt>
      <trkpt lat="43.98094" lon="7.08134">
        <ele>1153</ele>
        <time>2018-07-21T08:53:36.000Z</time>
      </trkpt>
      <trkpt lat="43.98097" lon="7.08142">
        <ele>1152</ele>
        <time>2018-07-21T08:53:38.000Z</time>
      </trkpt>
      <trkpt lat="43.98098" lon="7.08149">
        <ele>1150</ele>
        <time>2018-07-21T08:53:40.000Z</time>
      </trkpt>
      <trkpt lat="43.98101" lon="7.08163">
        <ele>1148</ele>
        <time>2018-07-21T08:53:44.000Z</time>
      </trkpt>
      <trkpt lat="43.98102" lon="7.08167">
        <ele>1144</ele>
        <time>2018-07-21T08:53:45.000Z</time>
      </trkpt>
      <trkpt lat="43.98105" lon="7.08188">
        <ele>1148</ele>
        <time>2018-07-21T08:53:50.000Z</time>
      </trkpt>
      <trkpt lat="43.98105" lon="7.08199">
        <ele>1149</ele>
        <time>2018-07-21T08:53:53.000Z</time>
      </trkpt>
      <trkpt lat="43.98106" lon="7.08214">
        <ele>1149</ele>
        <time>2018-07-21T08:53:57.000Z</time>
      </trkpt>
      <trkpt lat="43.98106" lon="7.08222">
        <ele>1149</ele>
        <time>2018-07-21T08:53:59.000Z</time>
      </trkpt>
      <trkpt lat="43.98106" lon="7.08243">
        <ele>1147</ele>
        <time>2018-07-21T08:54:04.000Z</time>
      </trkpt>
      <trkpt lat="43.98105" lon="7.08247">
        <ele>1146</ele>
        <time>2018-07-21T08:54:05.000Z</time>
      </trkpt>
      <trkpt lat="43.98104" lon="7.08266">
        <ele>1146</ele>
        <time>2018-07-21T08:54:10.000Z</time>
      </trkpt>
      <trkpt lat="43.98104" lon="7.08274">
        <ele>1147</ele>
        <time>2018-07-21T08:54:12.000Z</time>
      </trkpt>
      <trkpt lat="43.98104" lon="7.08285">
        <ele>1147</ele>
        <time>2018-07-21T08:54:15.000Z</time>
      </trkpt>
      <trkpt lat="43.98107" lon="7.08293">
        <ele>1148</ele>
        <time>2018-07-21T08:54:17.000Z</time>
      </trkpt>
      <trkpt lat="43.98119" lon="7.0831">
        <ele>1150</ele>
        <time>2018-07-21T08:54:23.000Z</time>
      </trkpt>
      <trkpt lat="43.98123" lon="7.08316">
        <ele>1150</ele>
        <time>2018-07-21T08:54:26.000Z</time>
      </trkpt>
      <trkpt lat="43.98129" lon="7.08323">
        <ele>1151</ele>
        <time>2018-07-21T08:54:29.000Z</time>
      </trkpt>
      <trkpt lat="43.98136" lon="7.08329">
        <ele>1153</ele>
        <time>2018-07-21T08:54:33.000Z</time>
      </trkpt>
      <trkpt lat="43.98141" lon="7.08333">
        <ele>1154</ele>
        <time>2018-07-21T08:54:35.000Z</time>
      </trkpt>
      <trkpt lat="43.98144" lon="7.08336">
        <ele>1154</ele>
        <time>2018-07-21T08:54:37.000Z</time>
      </trkpt>
      <trkpt lat="43.98152" lon="7.08342">
        <ele>1155</ele>
        <time>2018-07-21T08:54:42.000Z</time>
      </trkpt>
      <trkpt lat="43.9816" lon="7.0835">
        <ele>1156</ele>
        <time>2018-07-21T08:54:47.000Z</time>
      </trkpt>
      <trkpt lat="43.98162" lon="7.08351">
        <ele>1156</ele>
        <time>2018-07-21T08:54:48.000Z</time>
      </trkpt>
      <trkpt lat="43.98172" lon="7.08357">
        <ele>1166</ele>
        <time>2018-07-21T08:54:53.000Z</time>
      </trkpt>
      <trkpt lat="43.98174" lon="7.08358">
        <ele>1166</ele>
        <time>2018-07-21T08:54:54.000Z</time>
      </trkpt>
      <trkpt lat="43.98181" lon="7.08363">
        <ele>1167</ele>
        <time>2018-07-21T08:54:58.000Z</time>
      </trkpt>
      <trkpt lat="43.98184" lon="7.08367">
        <ele>1168</ele>
        <time>2018-07-21T08:55:00.000Z</time>
      </trkpt>
      <trkpt lat="43.98187" lon="7.08371">
        <ele>1168</ele>
        <time>2018-07-21T08:55:02.000Z</time>
      </trkpt>
      <trkpt lat="43.98189" lon="7.08372">
        <ele>1168</ele>
        <time>2018-07-21T08:55:03.000Z</time>
      </trkpt>
      <trkpt lat="43.982" lon="7.08379">
        <ele>1170</ele>
        <time>2018-07-21T08:55:07.000Z</time>
      </trkpt>
      <trkpt lat="43.9821" lon="7.08386">
        <ele>1171</ele>
        <time>2018-07-21T08:55:11.000Z</time>
      </trkpt>
      <trkpt lat="43.9822" lon="7.08394">
        <ele>1172</ele>
        <time>2018-07-21T08:55:15.000Z</time>
      </trkpt>
      <trkpt lat="43.98223" lon="7.084">
        <ele>1173</ele>
        <time>2018-07-21T08:55:17.000Z</time>
      </trkpt>
      <trkpt lat="43.98222" lon="7.08407">
        <ele>1173</ele>
        <time>2018-07-21T08:55:19.000Z</time>
      </trkpt>
      <trkpt lat="43.98221" lon="7.08412">
        <ele>1172</ele>
        <time>2018-07-21T08:55:21.000Z</time>
      </trkpt>
      <trkpt lat="43.98217" lon="7.08415">
        <ele>1172</ele>
        <time>2018-07-21T08:55:23.000Z</time>
      </trkpt>
      <trkpt lat="43.98211" lon="7.08421">
        <ele>1171</ele>
        <time>2018-07-21T08:55:27.000Z</time>
      </trkpt>
      <trkpt lat="43.98202" lon="7.08425">
        <ele>1170</ele>
        <time>2018-07-21T08:55:32.000Z</time>
      </trkpt>
      <trkpt lat="43.98194" lon="7.0843">
        <ele>1168</ele>
        <time>2018-07-21T08:55:36.000Z</time>
      </trkpt>
      <trkpt lat="43.98191" lon="7.08431">
        <ele>1167</ele>
        <time>2018-07-21T08:55:37.000Z</time>
      </trkpt>
      <trkpt lat="43.98185" lon="7.08435">
        <ele>1167</ele>
        <time>2018-07-21T08:55:39.000Z</time>
      </trkpt>
      <trkpt lat="43.98179" lon="7.0844">
        <ele>1166</ele>
        <time>2018-07-21T08:55:41.000Z</time>
      </trkpt>
      <trkpt lat="43.98161" lon="7.08452">
        <ele>1155</ele>
        <time>2018-07-21T08:55:48.000Z</time>
      </trkpt>
      <trkpt lat="43.98161" lon="7.0847">
        <ele>1155</ele>
        <time>2018-07-21T08:55:53.000Z</time>
      </trkpt>
      <trkpt lat="43.98164" lon="7.0848">
        <ele>1156</ele>
        <time>2018-07-21T08:55:56.000Z</time>
      </trkpt>
      <trkpt lat="43.98165" lon="7.08484">
        <ele>1157</ele>
        <time>2018-07-21T08:55:57.000Z</time>
      </trkpt>
      <trkpt lat="43.98166" lon="7.08487">
        <ele>1157</ele>
        <time>2018-07-21T08:55:58.000Z</time>
      </trkpt>
      <trkpt lat="43.98173" lon="7.085">
        <ele>1163</ele>
        <time>2018-07-21T08:56:02.000Z</time>
      </trkpt>
      <trkpt lat="43.98175" lon="7.08502">
        <ele>1167</ele>
        <time>2018-07-21T08:56:03.000Z</time>
      </trkpt>
      <trkpt lat="43.98182" lon="7.08512">
        <ele>1173</ele>
        <time>2018-07-21T08:56:08.000Z</time>
      </trkpt>
      <trkpt lat="43.98183" lon="7.08516">
        <ele>1175</ele>
        <time>2018-07-21T08:56:10.000Z</time>
      </trkpt>
      <trkpt lat="43.98184" lon="7.08523">
        <ele>1177</ele>
        <time>2018-07-21T08:56:13.000Z</time>
      </trkpt>
      <trkpt lat="43.98184" lon="7.08529">
        <ele>1178</ele>
        <time>2018-07-21T08:56:16.000Z</time>
      </trkpt>
      <trkpt lat="43.98182" lon="7.08533">
        <ele>1178</ele>
        <time>2018-07-21T08:56:19.000Z</time>
      </trkpt>
      <trkpt lat="43.98181" lon="7.08536">
        <ele>1179</ele>
        <time>2018-07-21T08:56:21.000Z</time>
      </trkpt>
      <trkpt lat="43.9818" lon="7.08537">
        <ele>1179</ele>
        <time>2018-07-21T08:56:25.000Z</time>
      </trkpt>
      <trkpt lat="43.98178" lon="7.08538">
        <ele>1179</ele>
        <time>2018-07-21T08:56:27.000Z</time>
      </trkpt>
      <trkpt lat="43.98177" lon="7.0854">
        <ele>1179</ele>
        <time>2018-07-21T08:56:29.000Z</time>
      </trkpt>
      <trkpt lat="43.98172" lon="7.08545">
        <ele>1179</ele>
        <time>2018-07-21T08:56:34.000Z</time>
      </trkpt>
      <trkpt lat="43.98171" lon="7.08546">
        <ele>1179</ele>
        <time>2018-07-21T08:56:35.000Z</time>
      </trkpt>
      <trkpt lat="43.9817" lon="7.08547">
        <ele>1179</ele>
        <time>2018-07-21T08:56:36.000Z</time>
      </trkpt>
      <trkpt lat="43.9817" lon="7.08549">
        <ele>1179</ele>
        <time>2018-07-21T08:56:40.000Z</time>
      </trkpt>
      <trkpt lat="43.98169" lon="7.08549">
        <ele>1179</ele>
        <time>2018-07-21T08:56:42.000Z</time>
      </trkpt>
      <trkpt lat="43.98168" lon="7.08552">
        <ele>1179</ele>
        <time>2018-07-21T08:56:47.000Z</time>
      </trkpt>
      <trkpt lat="43.98168" lon="7.08554">
        <ele>1179</ele>
        <time>2018-07-21T08:56:49.000Z</time>
      </trkpt>
      <trkpt lat="43.98165" lon="7.08556">
        <ele>1162</ele>
        <time>2018-07-21T08:56:55.000Z</time>
      </trkpt>
      <trkpt lat="43.98165" lon="7.08555">
        <ele>1162</ele>
        <time>2018-07-21T08:56:56.000Z</time>
      </trkpt>
      <trkpt lat="43.98164" lon="7.08554">
        <ele>1161</ele>
        <time>2018-07-21T08:56:57.000Z</time>
      </trkpt>
      <trkpt lat="43.98162" lon="7.08556">
        <ele>1162</ele>
        <time>2018-07-21T08:56:59.000Z</time>
      </trkpt>
      <trkpt lat="43.98162" lon="7.08557">
        <ele>1162</ele>
        <time>2018-07-21T08:57:02.000Z</time>
      </trkpt>
      <trkpt lat="43.98161" lon="7.08558">
        <ele>1162</ele>
        <time>2018-07-21T08:57:04.000Z</time>
      </trkpt>
      <trkpt lat="43.98159" lon="7.08561">
        <ele>1162</ele>
        <time>2018-07-21T08:57:08.000Z</time>
      </trkpt>
      <trkpt lat="43.98158" lon="7.08564">
        <ele>1163</ele>
        <time>2018-07-21T08:57:12.000Z</time>
      </trkpt>
      <trkpt lat="43.98158" lon="7.08567">
        <ele>1164</ele>
        <time>2018-07-21T08:57:16.000Z</time>
      </trkpt>
      <trkpt lat="43.98159" lon="7.0857">
        <ele>1165</ele>
        <time>2018-07-21T08:57:20.000Z</time>
      </trkpt>
      <trkpt lat="43.98159" lon="7.0857">
        <ele>1165</ele>
        <time>2018-07-21T08:57:21.000Z</time>
      </trkpt>
      <trkpt lat="43.98159" lon="7.08576">
        <ele>1168</ele>
        <time>2018-07-21T08:57:27.000Z</time>
      </trkpt>
      <trkpt lat="43.98159" lon="7.08578">
        <ele>1168</ele>
        <time>2018-07-21T08:57:29.000Z</time>
      </trkpt>
      <trkpt lat="43.9816" lon="7.0858">
        <ele>1169</ele>
        <time>2018-07-21T08:57:33.000Z</time>
      </trkpt>
      <trkpt lat="43.98161" lon="7.08583">
        <ele>1171</ele>
        <time>2018-07-21T08:57:37.000Z</time>
      </trkpt>
      <trkpt lat="43.98161" lon="7.08584">
        <ele>1174</ele>
        <time>2018-07-21T08:57:38.000Z</time>
      </trkpt>
      <trkpt lat="43.98163" lon="7.08589">
        <ele>1174</ele>
        <time>2018-07-21T08:57:44.000Z</time>
      </trkpt>
      <trkpt lat="43.98163" lon="7.0859">
        <ele>1174</ele>
        <time>2018-07-21T08:57:46.000Z</time>
      </trkpt>
      <trkpt lat="43.98164" lon="7.08594">
        <ele>1173</ele>
        <time>2018-07-21T08:57:50.000Z</time>
      </trkpt>
      <trkpt lat="43.98164" lon="7.08595">
        <ele>1173</ele>
        <time>2018-07-21T08:57:54.000Z</time>
      </trkpt>
      <trkpt lat="43.98164" lon="7.08597">
        <ele>1173</ele>
        <time>2018-07-21T08:57:55.000Z</time>
      </trkpt>
      <trkpt lat="43.98165" lon="7.08599">
        <ele>1173</ele>
        <time>2018-07-21T08:58:01.000Z</time>
      </trkpt>
      <trkpt lat="43.98166" lon="7.08605">
        <ele>1173</ele>
        <time>2018-07-21T08:58:08.000Z</time>
      </trkpt>
      <trkpt lat="43.98167" lon="7.08609">
        <ele>1193</ele>
        <time>2018-07-21T08:58:14.000Z</time>
      </trkpt>
      <trkpt lat="43.98167" lon="7.0861">
        <ele>1174</ele>
        <time>2018-07-21T08:58:16.000Z</time>
      </trkpt>
      <trkpt lat="43.98166" lon="7.08613">
        <ele>1174</ele>
        <time>2018-07-21T08:58:20.000Z</time>
      </trkpt>
      <trkpt lat="43.98166" lon="7.08616">
        <ele>1174</ele>
        <time>2018-07-21T08:58:24.000Z</time>
      </trkpt>
      <trkpt lat="43.98167" lon="7.08617">
        <ele>1175</ele>
        <time>2018-07-21T08:58:26.000Z</time>
      </trkpt>
      <trkpt lat="43.98167" lon="7.08622">
        <ele>1197</ele>
        <time>2018-07-21T08:58:32.000Z</time>
      </trkpt>
      <trkpt lat="43.98167" lon="7.08627">
        <ele>1199</ele>
        <time>2018-07-21T08:58:37.000Z</time>
      </trkpt>
      <trkpt lat="43.98166" lon="7.0863">
        <ele>1177</ele>
        <time>2018-07-21T08:58:41.000Z</time>
      </trkpt>
      <trkpt lat="43.98166" lon="7.08633">
        <ele>1178</ele>
        <time>2018-07-21T08:58:44.000Z</time>
      </trkpt>
      <trkpt lat="43.98165" lon="7.08638">
        <ele>1180</ele>
        <time>2018-07-21T08:58:49.000Z</time>
      </trkpt>
      <trkpt lat="43.98165" lon="7.08639">
        <ele>1180</ele>
        <time>2018-07-21T08:58:50.000Z</time>
      </trkpt>
      <trkpt lat="43.98164" lon="7.08644">
        <ele>1182</ele>
        <time>2018-07-21T08:58:57.000Z</time>
      </trkpt>
      <trkpt lat="43.98163" lon="7.08645">
        <ele>1183</ele>
        <time>2018-07-21T08:59:01.000Z</time>
      </trkpt>
      <trkpt lat="43.98162" lon="7.08646">
        <ele>1183</ele>
        <time>2018-07-21T08:59:02.000Z</time>
      </trkpt>
      <trkpt lat="43.98158" lon="7.08651">
        <ele>1184</ele>
        <time>2018-07-21T08:59:06.000Z</time>
      </trkpt>
      <trkpt lat="43.98157" lon="7.08652">
        <ele>1184</ele>
        <time>2018-07-21T08:59:07.000Z</time>
      </trkpt>
      <trkpt lat="43.98155" lon="7.08655">
        <ele>1185</ele>
        <time>2018-07-21T08:59:09.000Z</time>
      </trkpt>
      <trkpt lat="43.98148" lon="7.08665">
        <ele>1184</ele>
        <time>2018-07-21T08:59:16.000Z</time>
      </trkpt>
      <trkpt lat="43.98143" lon="7.08668">
        <ele>1195</ele>
        <time>2018-07-21T08:59:19.000Z</time>
      </trkpt>
      <trkpt lat="43.9814" lon="7.08671">
        <ele>1194</ele>
        <time>2018-07-21T08:59:22.000Z</time>
      </trkpt>
      <trkpt lat="43.9814" lon="7.08672">
        <ele>1194</ele>
        <time>2018-07-21T08:59:23.000Z</time>
      </trkpt>
      <trkpt lat="43.98133" lon="7.08678">
        <ele>1193</ele>
        <time>2018-07-21T08:59:30.000Z</time>
      </trkpt>
      <trkpt lat="43.98126" lon="7.08687">
        <ele>1192</ele>
        <time>2018-07-21T08:59:37.000Z</time>
      </trkpt>
      <trkpt lat="43.98125" lon="7.08688">
        <ele>1192</ele>
        <time>2018-07-21T08:59:38.000Z</time>
      </trkpt>
      <trkpt lat="43.98117" lon="7.08695">
        <ele>1190</ele>
        <time>2018-07-21T08:59:44.000Z</time>
      </trkpt>
      <trkpt lat="43.98112" lon="7.08697">
        <ele>1190</ele>
        <time>2018-07-21T08:59:47.000Z</time>
      </trkpt>
      <trkpt lat="43.98108" lon="7.08703">
        <ele>1190</ele>
        <time>2018-07-21T08:59:50.000Z</time>
      </trkpt>
      <trkpt lat="43.98096" lon="7.08726">
        <ele>1190</ele>
        <time>2018-07-21T08:59:57.000Z</time>
      </trkpt>
      <trkpt lat="43.98083" lon="7.0875">
        <ele>1183</ele>
        <time>2018-07-21T09:00:03.000Z</time>
      </trkpt>
      <trkpt lat="43.98065" lon="7.08771">
        <ele>1173</ele>
        <time>2018-07-21T09:00:09.000Z</time>
      </trkpt>
      <trkpt lat="43.9806" lon="7.08786">
        <ele>1171</ele>
        <time>2018-07-21T09:00:14.000Z</time>
      </trkpt>
      <trkpt lat="43.98061" lon="7.0879">
        <ele>1172</ele>
        <time>2018-07-21T09:00:15.000Z</time>
      </trkpt>
      <trkpt lat="43.98063" lon="7.08809">
        <ele>1176</ele>
        <time>2018-07-21T09:00:19.000Z</time>
      </trkpt>
      <trkpt lat="43.98064" lon="7.08816">
        <ele>1178</ele>
        <time>2018-07-21T09:00:20.000Z</time>
      </trkpt>
      <trkpt lat="43.98067" lon="7.0883">
        <ele>1184</ele>
        <time>2018-07-21T09:00:22.000Z</time>
      </trkpt>
      <trkpt lat="43.98068" lon="7.08836">
        <ele>1192</ele>
        <time>2018-07-21T09:00:23.000Z</time>
      </trkpt>
      <trkpt lat="43.98069" lon="7.0885">
        <ele>1191</ele>
        <time>2018-07-21T09:00:27.000Z</time>
      </trkpt>
      <trkpt lat="43.98069" lon="7.0885">
        <ele>1191</ele>
        <time>2018-07-21T09:00:29.000Z</time>
      </trkpt>
      <trkpt lat="43.98069" lon="7.0885">
        <ele>1190</ele>
        <time>2018-07-21T09:00:31.000Z</time>
      </trkpt>
      <trkpt lat="43.98069" lon="7.08852">
        <ele>1190</ele>
        <time>2018-07-21T09:00:32.000Z</time>
      </trkpt>
      <trkpt lat="43.98068" lon="7.08857">
        <ele>1190</ele>
        <time>2018-07-21T09:00:36.000Z</time>
      </trkpt>
      <trkpt lat="43.98068" lon="7.08858">
        <ele>1189</ele>
        <time>2018-07-21T09:00:37.000Z</time>
      </trkpt>
      <trkpt lat="43.98069" lon="7.08863">
        <ele>1189</ele>
        <time>2018-07-21T09:00:42.000Z</time>
      </trkpt>
      <trkpt lat="43.98069" lon="7.08862">
        <ele>1189</ele>
        <time>2018-07-21T09:00:43.000Z</time>
      </trkpt>
      <trkpt lat="43.98069" lon="7.08868">
        <ele>1189</ele>
        <time>2018-07-21T09:00:49.000Z</time>
      </trkpt>
      <trkpt lat="43.9807" lon="7.08872">
        <ele>1190</ele>
        <time>2018-07-21T09:00:56.000Z</time>
      </trkpt>
      <trkpt lat="43.9807" lon="7.08873">
        <ele>1190</ele>
        <time>2018-07-21T09:00:57.000Z</time>
      </trkpt>
      <trkpt lat="43.98071" lon="7.08873">
        <ele>1190</ele>
        <time>2018-07-21T09:01:02.000Z</time>
      </trkpt>
      <trkpt lat="43.98071" lon="7.08875">
        <ele>1190</ele>
        <time>2018-07-21T09:01:07.000Z</time>
      </trkpt>
      <trkpt lat="43.98072" lon="7.08878">
        <ele>1191</ele>
        <time>2018-07-21T09:01:12.000Z</time>
      </trkpt>
      <trkpt lat="43.98073" lon="7.08881">
        <ele>1192</ele>
        <time>2018-07-21T09:01:18.000Z</time>
      </trkpt>
      <trkpt lat="43.98075" lon="7.08886">
        <ele>1193</ele>
        <time>2018-07-21T09:01:24.000Z</time>
      </trkpt>
      <trkpt lat="43.98075" lon="7.08887">
        <ele>1193</ele>
        <time>2018-07-21T09:01:25.000Z</time>
      </trkpt>
      <trkpt lat="43.98077" lon="7.08893">
        <ele>1196</ele>
        <time>2018-07-21T09:01:32.000Z</time>
      </trkpt>
      <trkpt lat="43.98078" lon="7.089">
        <ele>1199</ele>
        <time>2018-07-21T09:01:39.000Z</time>
      </trkpt>
      <trkpt lat="43.98079" lon="7.089">
        <ele>1199</ele>
        <time>2018-07-21T09:01:40.000Z</time>
      </trkpt>
      <trkpt lat="43.98079" lon="7.08906">
        <ele>1203</ele>
        <time>2018-07-21T09:01:46.000Z</time>
      </trkpt>
      <trkpt lat="43.9808" lon="7.08907">
        <ele>1204</ele>
        <time>2018-07-21T09:01:47.000Z</time>
      </trkpt>
      <trkpt lat="43.98081" lon="7.08914">
        <ele>1210</ele>
        <time>2018-07-21T09:01:54.000Z</time>
      </trkpt>
      <trkpt lat="43.98081" lon="7.08918">
        <ele>1213</ele>
        <time>2018-07-21T09:01:56.000Z</time>
      </trkpt>
      <trkpt lat="43.98081" lon="7.08932">
        <ele>1211</ele>
        <time>2018-07-21T09:02:03.000Z</time>
      </trkpt>
      <trkpt lat="43.9808" lon="7.08949">
        <ele>1211</ele>
        <time>2018-07-21T09:02:10.000Z</time>
      </trkpt>
      <trkpt lat="43.98075" lon="7.08969">
        <ele>1215</ele>
        <time>2018-07-21T09:02:17.000Z</time>
      </trkpt>
      <trkpt lat="43.98071" lon="7.08983">
        <ele>1219</ele>
        <time>2018-07-21T09:02:21.000Z</time>
      </trkpt>
      <trkpt lat="43.98071" lon="7.08985">
        <ele>1220</ele>
        <time>2018-07-21T09:02:22.000Z</time>
      </trkpt>
      <trkpt lat="43.98069" lon="7.08986">
        <ele>1220</ele>
        <time>2018-07-21T09:02:23.000Z</time>
      </trkpt>
      <trkpt lat="43.98065" lon="7.08993">
        <ele>1220</ele>
        <time>2018-07-21T09:02:27.000Z</time>
      </trkpt>
      <trkpt lat="43.98064" lon="7.08996">
        <ele>1220</ele>
        <time>2018-07-21T09:02:29.000Z</time>
      </trkpt>
      <trkpt lat="43.98059" lon="7.09003">
        <ele>1233</ele>
        <time>2018-07-21T09:02:34.000Z</time>
      </trkpt>
      <trkpt lat="43.98058" lon="7.09004">
        <ele>1233</ele>
        <time>2018-07-21T09:02:35.000Z</time>
      </trkpt>
      <trkpt lat="43.98055" lon="7.09009">
        <ele>1232</ele>
        <time>2018-07-21T09:02:38.000Z</time>
      </trkpt>
      <trkpt lat="43.98054" lon="7.09009">
        <ele>1232</ele>
        <time>2018-07-21T09:02:39.000Z</time>
      </trkpt>
      <trkpt lat="43.98053" lon="7.09009">
        <ele>1232</ele>
        <time>2018-07-21T09:02:40.000Z</time>
      </trkpt>
      <trkpt lat="43.98051" lon="7.09011">
        <ele>1231</ele>
        <time>2018-07-21T09:02:44.000Z</time>
      </trkpt>
      <trkpt lat="43.9805" lon="7.09014">
        <ele>1231</ele>
        <time>2018-07-21T09:02:46.000Z</time>
      </trkpt>
      <trkpt lat="43.9805" lon="7.09014">
        <ele>1231</ele>
        <time>2018-07-21T09:02:48.000Z</time>
      </trkpt>
      <trkpt lat="43.98049" lon="7.09014">
        <ele>1231</ele>
        <time>2018-07-21T09:02:51.000Z</time>
      </trkpt>
      <trkpt lat="43.98047" lon="7.09014">
        <ele>1230</ele>
        <time>2018-07-21T09:02:58.000Z</time>
      </trkpt>
      <trkpt lat="43.98045" lon="7.09017">
        <ele>1230</ele>
        <time>2018-07-21T09:03:01.000Z</time>
      </trkpt>
      <trkpt lat="43.98043" lon="7.0902">
        <ele>1230</ele>
        <time>2018-07-21T09:03:03.000Z</time>
      </trkpt>
      <trkpt lat="43.98042" lon="7.09021">
        <ele>1230</ele>
        <time>2018-07-21T09:03:05.000Z</time>
      </trkpt>
      <trkpt lat="43.98039" lon="7.09025">
        <ele>1230</ele>
        <time>2018-07-21T09:03:09.000Z</time>
      </trkpt>
      <trkpt lat="43.98038" lon="7.09027">
        <ele>1230</ele>
        <time>2018-07-21T09:03:12.000Z</time>
      </trkpt>
      <trkpt lat="43.98034" lon="7.09033">
        <ele>1230</ele>
        <time>2018-07-21T09:03:16.000Z</time>
      </trkpt>
      <trkpt lat="43.98033" lon="7.09034">
        <ele>1230</ele>
        <time>2018-07-21T09:03:18.000Z</time>
      </trkpt>
      <trkpt lat="43.98032" lon="7.09035">
        <ele>1229</ele>
        <time>2018-07-21T09:03:22.000Z</time>
      </trkpt>
      <trkpt lat="43.98028" lon="7.09041">
        <ele>1230</ele>
        <time>2018-07-21T09:03:28.000Z</time>
      </trkpt>
      <trkpt lat="43.98028" lon="7.09041">
        <ele>1230</ele>
        <time>2018-07-21T09:03:30.000Z</time>
      </trkpt>
      <trkpt lat="43.98027" lon="7.09041">
        <ele>1230</ele>
        <time>2018-07-21T09:03:33.000Z</time>
      </trkpt>
      <trkpt lat="43.98026" lon="7.09044">
        <ele>1230</ele>
        <time>2018-07-21T09:03:40.000Z</time>
      </trkpt>
      <trkpt lat="43.98024" lon="7.0905">
        <ele>1230</ele>
        <time>2018-07-21T09:03:45.000Z</time>
      </trkpt>
      <trkpt lat="43.98022" lon="7.09057">
        <ele>1231</ele>
        <time>2018-07-21T09:03:49.000Z</time>
      </trkpt>
      <trkpt lat="43.98021" lon="7.0906">
        <ele>1231</ele>
        <time>2018-07-21T09:03:51.000Z</time>
      </trkpt>
      <trkpt lat="43.98015" lon="7.09066">
        <ele>1230</ele>
        <time>2018-07-21T09:03:56.000Z</time>
      </trkpt>
      <trkpt lat="43.98015" lon="7.09067">
        <ele>1230</ele>
        <time>2018-07-21T09:03:57.000Z</time>
      </trkpt>
      <trkpt lat="43.9801" lon="7.09073">
        <ele>1229</ele>
        <time>2018-07-21T09:04:02.000Z</time>
      </trkpt>
      <trkpt lat="43.98008" lon="7.09075">
        <ele>1229</ele>
        <time>2018-07-21T09:04:04.000Z</time>
      </trkpt>
      <trkpt lat="43.98007" lon="7.09076">
        <ele>1228</ele>
        <time>2018-07-21T09:04:05.000Z</time>
      </trkpt>
      <trkpt lat="43.98005" lon="7.09077">
        <ele>1228</ele>
        <time>2018-07-21T09:04:06.000Z</time>
      </trkpt>
      <trkpt lat="43.98004" lon="7.09079">
        <ele>1228</ele>
        <time>2018-07-21T09:04:10.000Z</time>
      </trkpt>
      <trkpt lat="43.98003" lon="7.09084">
        <ele>1230</ele>
        <time>2018-07-21T09:04:16.000Z</time>
      </trkpt>
      <trkpt lat="43.98002" lon="7.09085">
        <ele>1230</ele>
        <time>2018-07-21T09:04:18.000Z</time>
      </trkpt>
      <trkpt lat="43.98" lon="7.09089">
        <ele>1233</ele>
        <time>2018-07-21T09:04:23.000Z</time>
      </trkpt>
      <trkpt lat="43.97999" lon="7.0909">
        <ele>1223</ele>
        <time>2018-07-21T09:04:25.000Z</time>
      </trkpt>
      <trkpt lat="43.98" lon="7.09092">
        <ele>1223</ele>
        <time>2018-07-21T09:04:29.000Z</time>
      </trkpt>
      <trkpt lat="43.98002" lon="7.09094">
        <ele>1238</ele>
        <time>2018-07-21T09:04:33.000Z</time>
      </trkpt>
      <trkpt lat="43.98003" lon="7.09095">
        <ele>1239</ele>
        <time>2018-07-21T09:04:36.000Z</time>
      </trkpt>
      <trkpt lat="43.98005" lon="7.09096">
        <ele>1240</ele>
        <time>2018-07-21T09:04:39.000Z</time>
      </trkpt>
      <trkpt lat="43.98008" lon="7.09095">
        <ele>1241</ele>
        <time>2018-07-21T09:04:43.000Z</time>
      </trkpt>
      <trkpt lat="43.98009" lon="7.09095">
        <ele>1242</ele>
        <time>2018-07-21T09:04:45.000Z</time>
      </trkpt>
      <trkpt lat="43.98013" lon="7.09095">
        <ele>1243</ele>
        <time>2018-07-21T09:04:51.000Z</time>
      </trkpt>
      <trkpt lat="43.98012" lon="7.09095">
        <ele>1243</ele>
        <time>2018-07-21T09:04:52.000Z</time>
      </trkpt>
      <trkpt lat="43.98016" lon="7.09095">
        <ele>1245</ele>
        <time>2018-07-21T09:04:56.000Z</time>
      </trkpt>
      <trkpt lat="43.98017" lon="7.09096">
        <ele>1246</ele>
        <time>2018-07-21T09:04:58.000Z</time>
      </trkpt>
      <trkpt lat="43.98019" lon="7.09096">
        <ele>1247</ele>
        <time>2018-07-21T09:05:03.000Z</time>
      </trkpt>
      <trkpt lat="43.9802" lon="7.09096">
        <ele>1247</ele>
        <time>2018-07-21T09:05:04.000Z</time>
      </trkpt>
      <trkpt lat="43.98022" lon="7.09095">
        <ele>1249</ele>
        <time>2018-07-21T09:05:11.000Z</time>
      </trkpt>
      <trkpt lat="43.98024" lon="7.09097">
        <ele>1250</ele>
        <time>2018-07-21T09:05:17.000Z</time>
      </trkpt>
      <trkpt lat="43.98024" lon="7.09098">
        <ele>1250</ele>
        <time>2018-07-21T09:05:18.000Z</time>
      </trkpt>
      <trkpt lat="43.98022" lon="7.091">
        <ele>1250</ele>
        <time>2018-07-21T09:05:23.000Z</time>
      </trkpt>
      <trkpt lat="43.98022" lon="7.09103">
        <ele>1251</ele>
        <time>2018-07-21T09:05:28.000Z</time>
      </trkpt>
      <trkpt lat="43.98022" lon="7.09105">
        <ele>1251</ele>
        <time>2018-07-21T09:05:30.000Z</time>
      </trkpt>
      <trkpt lat="43.9802" lon="7.09108">
        <ele>1252</ele>
        <time>2018-07-21T09:05:36.000Z</time>
      </trkpt>
      <trkpt lat="43.98019" lon="7.09112">
        <ele>1252</ele>
        <time>2018-07-21T09:05:42.000Z</time>
      </trkpt>
      <trkpt lat="43.98018" lon="7.09114">
        <ele>1253</ele>
        <time>2018-07-21T09:05:46.000Z</time>
      </trkpt>
      <trkpt lat="43.98018" lon="7.09114">
        <ele>1253</ele>
        <time>2018-07-21T09:05:48.000Z</time>
      </trkpt>
      <trkpt lat="43.98016" lon="7.09118">
        <ele>1253</ele>
        <time>2018-07-21T09:05:54.000Z</time>
      </trkpt>
      <trkpt lat="43.98016" lon="7.09118">
        <ele>1253</ele>
        <time>2018-07-21T09:05:55.000Z</time>
      </trkpt>
      <trkpt lat="43.98014" lon="7.09121">
        <ele>1254</ele>
        <time>2018-07-21T09:06:00.000Z</time>
      </trkpt>
      <trkpt lat="43.98014" lon="7.09124">
        <ele>1254</ele>
        <time>2018-07-21T09:06:05.000Z</time>
      </trkpt>
      <trkpt lat="43.98013" lon="7.09125">
        <ele>1254</ele>
        <time>2018-07-21T09:06:07.000Z</time>
      </trkpt>
      <trkpt lat="43.98012" lon="7.09126">
        <ele>1254</ele>
        <time>2018-07-21T09:06:14.000Z</time>
      </trkpt>
      <trkpt lat="43.98012" lon="7.09126">
        <ele>1254</ele>
        <time>2018-07-21T09:06:23.000Z</time>
      </trkpt>
      <trkpt lat="43.9801" lon="7.0913">
        <ele>1255</ele>
        <time>2018-07-21T09:06:35.000Z</time>
      </trkpt>
      <trkpt lat="43.98008" lon="7.09135">
        <ele>1255</ele>
        <time>2018-07-21T09:06:40.000Z</time>
      </trkpt>
      <trkpt lat="43.98007" lon="7.09137">
        <ele>1256</ele>
        <time>2018-07-21T09:06:43.000Z</time>
      </trkpt>
      <trkpt lat="43.98007" lon="7.09139">
        <ele>1256</ele>
        <time>2018-07-21T09:06:47.000Z</time>
      </trkpt>
      <trkpt lat="43.98007" lon="7.09143">
        <ele>1256</ele>
        <time>2018-07-21T09:06:50.000Z</time>
      </trkpt>
      <trkpt lat="43.98006" lon="7.09145">
        <ele>1256</ele>
        <time>2018-07-21T09:06:52.000Z</time>
      </trkpt>
      <trkpt lat="43.98006" lon="7.09149">
        <ele>1256</ele>
        <time>2018-07-21T09:06:57.000Z</time>
      </trkpt>
      <trkpt lat="43.98006" lon="7.0915">
        <ele>1256</ele>
        <time>2018-07-21T09:06:58.000Z</time>
      </trkpt>
      <trkpt lat="43.98005" lon="7.09154">
        <ele>1256</ele>
        <time>2018-07-21T09:07:02.000Z</time>
      </trkpt>
      <trkpt lat="43.98005" lon="7.09157">
        <ele>1255</ele>
        <time>2018-07-21T09:07:07.000Z</time>
      </trkpt>
      <trkpt lat="43.98005" lon="7.09158">
        <ele>1255</ele>
        <time>2018-07-21T09:07:08.000Z</time>
      </trkpt>
      <trkpt lat="43.98004" lon="7.09165">
        <ele>1254</ele>
        <time>2018-07-21T09:07:14.000Z</time>
      </trkpt>
      <trkpt lat="43.98004" lon="7.09168">
        <ele>1258</ele>
        <time>2018-07-21T09:07:17.000Z</time>
      </trkpt>
      <trkpt lat="43.98004" lon="7.09172">
        <ele>1260</ele>
        <time>2018-07-21T09:07:20.000Z</time>
      </trkpt>
      <trkpt lat="43.98003" lon="7.09179">
        <ele>1267</ele>
        <time>2018-07-21T09:07:28.000Z</time>
      </trkpt>
      <trkpt lat="43.98003" lon="7.0918">
        <ele>1268</ele>
        <time>2018-07-21T09:07:29.000Z</time>
      </trkpt>
      <trkpt lat="43.98003" lon="7.09187">
        <ele>1272</ele>
        <time>2018-07-21T09:07:37.000Z</time>
      </trkpt>
      <trkpt lat="43.98003" lon="7.09187">
        <ele>1273</ele>
        <time>2018-07-21T09:07:38.000Z</time>
      </trkpt>
      <trkpt lat="43.98004" lon="7.0919">
        <ele>1275</ele>
        <time>2018-07-21T09:07:42.000Z</time>
      </trkpt>
      <trkpt lat="43.98005" lon="7.09192">
        <ele>1276</ele>
        <time>2018-07-21T09:07:46.000Z</time>
      </trkpt>
      <trkpt lat="43.98005" lon="7.09194">
        <ele>1277</ele>
        <time>2018-07-21T09:07:49.000Z</time>
      </trkpt>
      <trkpt lat="43.98005" lon="7.09197">
        <ele>1278</ele>
        <time>2018-07-21T09:07:53.000Z</time>
      </trkpt>
      <trkpt lat="43.98004" lon="7.09199">
        <ele>1279</ele>
        <time>2018-07-21T09:07:55.000Z</time>
      </trkpt>
      <trkpt lat="43.98004" lon="7.09204">
        <ele>1280</ele>
        <time>2018-07-21T09:08:00.000Z</time>
      </trkpt>
      <trkpt lat="43.98004" lon="7.09206">
        <ele>1281</ele>
        <time>2018-07-21T09:08:02.000Z</time>
      </trkpt>
      <trkpt lat="43.98004" lon="7.09211">
        <ele>1282</ele>
        <time>2018-07-21T09:08:07.000Z</time>
      </trkpt>
      <trkpt lat="43.98004" lon="7.09212">
        <ele>1282</ele>
        <time>2018-07-21T09:08:08.000Z</time>
      </trkpt>
      <trkpt lat="43.98004" lon="7.09216">
        <ele>1283</ele>
        <time>2018-07-21T09:08:13.000Z</time>
      </trkpt>
      <trkpt lat="43.98004" lon="7.09221">
        <ele>1283</ele>
        <time>2018-07-21T09:08:18.000Z</time>
      </trkpt>
      <trkpt lat="43.98005" lon="7.09228">
        <ele>1283</ele>
        <time>2018-07-21T09:08:25.000Z</time>
      </trkpt>
      <trkpt lat="43.98005" lon="7.0923">
        <ele>1283</ele>
        <time>2018-07-21T09:08:27.000Z</time>
      </trkpt>
      <trkpt lat="43.98004" lon="7.09232">
        <ele>1283</ele>
        <time>2018-07-21T09:08:31.000Z</time>
      </trkpt>
      <trkpt lat="43.98004" lon="7.09236">
        <ele>1282</ele>
        <time>2018-07-21T09:08:36.000Z</time>
      </trkpt>
      <trkpt lat="43.98003" lon="7.09236">
        <ele>1282</ele>
        <time>2018-07-21T09:08:37.000Z</time>
      </trkpt>
      <trkpt lat="43.98004" lon="7.0924">
        <ele>1281</ele>
        <time>2018-07-21T09:08:43.000Z</time>
      </trkpt>
      <trkpt lat="43.98004" lon="7.0924">
        <ele>1281</ele>
        <time>2018-07-21T09:08:44.000Z</time>
      </trkpt>
      <trkpt lat="43.98003" lon="7.09244">
        <ele>1280</ele>
        <time>2018-07-21T09:08:50.000Z</time>
      </trkpt>
      <trkpt lat="43.98003" lon="7.09249">
        <ele>1278</ele>
        <time>2018-07-21T09:08:57.000Z</time>
      </trkpt>
      <trkpt lat="43.98002" lon="7.09257">
        <ele>1287</ele>
        <time>2018-07-21T09:09:04.000Z</time>
      </trkpt>
      <trkpt lat="43.98003" lon="7.09259">
        <ele>1290</ele>
        <time>2018-07-21T09:09:06.000Z</time>
      </trkpt>
      <trkpt lat="43.98003" lon="7.09261">
        <ele>1293</ele>
        <time>2018-07-21T09:09:08.000Z</time>
      </trkpt>
      <trkpt lat="43.98004" lon="7.09264">
        <ele>1296</ele>
        <time>2018-07-21T09:09:12.000Z</time>
      </trkpt>
      <trkpt lat="43.98004" lon="7.09272">
        <ele>1302</ele>
        <time>2018-07-21T09:09:17.000Z</time>
      </trkpt>
      <trkpt lat="43.98008" lon="7.09289">
        <ele>1310</ele>
        <time>2018-07-21T09:09:24.000Z</time>
      </trkpt>
      <trkpt lat="43.98008" lon="7.09291">
        <ele>1311</ele>
        <time>2018-07-21T09:09:25.000Z</time>
      </trkpt>
      <trkpt lat="43.98007" lon="7.09295">
        <ele>1312</ele>
        <time>2018-07-21T09:09:28.000Z</time>
      </trkpt>
      <trkpt lat="43.98007" lon="7.09299">
        <ele>1312</ele>
        <time>2018-07-21T09:09:30.000Z</time>
      </trkpt>
      <trkpt lat="43.98006" lon="7.09305">
        <ele>1313</ele>
        <time>2018-07-21T09:09:36.000Z</time>
      </trkpt>
      <trkpt lat="43.98006" lon="7.09309">
        <ele>1313</ele>
        <time>2018-07-21T09:09:41.000Z</time>
      </trkpt>
      <trkpt lat="43.98007" lon="7.0931">
        <ele>1313</ele>
        <time>2018-07-21T09:09:44.000Z</time>
      </trkpt>
      <trkpt lat="43.98007" lon="7.09311">
        <ele>1313</ele>
        <time>2018-07-21T09:09:48.000Z</time>
      </trkpt>
      <trkpt lat="43.98007" lon="7.09315">
        <ele>1313</ele>
        <time>2018-07-21T09:09:53.000Z</time>
      </trkpt>
      <trkpt lat="43.98007" lon="7.09314">
        <ele>1313</ele>
        <time>2018-07-21T09:09:54.000Z</time>
      </trkpt>
      <trkpt lat="43.98005" lon="7.09318">
        <ele>1312</ele>
        <time>2018-07-21T09:09:59.000Z</time>
      </trkpt>
      <trkpt lat="43.98004" lon="7.0932">
        <ele>1311</ele>
        <time>2018-07-21T09:10:02.000Z</time>
      </trkpt>
      <trkpt lat="43.98" lon="7.09323">
        <ele>1310</ele>
        <time>2018-07-21T09:10:08.000Z</time>
      </trkpt>
      <trkpt lat="43.98" lon="7.09323">
        <ele>1293</ele>
        <time>2018-07-21T09:10:09.000Z</time>
      </trkpt>
      <trkpt lat="43.97998" lon="7.09325">
        <ele>1294</ele>
        <time>2018-07-21T09:10:14.000Z</time>
      </trkpt>
      <trkpt lat="43.97997" lon="7.09326">
        <ele>1294</ele>
        <time>2018-07-21T09:10:16.000Z</time>
      </trkpt>
      <trkpt lat="43.97996" lon="7.09324">
        <ele>1292</ele>
        <time>2018-07-21T09:10:21.000Z</time>
      </trkpt>
      <trkpt lat="43.97996" lon="7.09323">
        <ele>1292</ele>
        <time>2018-07-21T09:10:28.000Z</time>
      </trkpt>
      <trkpt lat="43.97993" lon="7.09326">
        <ele>1292</ele>
        <time>2018-07-21T09:10:34.000Z</time>
      </trkpt>
      <trkpt lat="43.97991" lon="7.09326">
        <ele>1292</ele>
        <time>2018-07-21T09:10:35.000Z</time>
      </trkpt>
      <trkpt lat="43.9799" lon="7.09328">
        <ele>1291</ele>
        <time>2018-07-21T09:10:39.000Z</time>
      </trkpt>
      <trkpt lat="43.97988" lon="7.09332">
        <ele>1291</ele>
        <time>2018-07-21T09:10:45.000Z</time>
      </trkpt>
      <trkpt lat="43.97988" lon="7.09332">
        <ele>1291</ele>
        <time>2018-07-21T09:10:46.000Z</time>
      </trkpt>
      <trkpt lat="43.97991" lon="7.09334">
        <ele>1303</ele>
        <time>2018-07-21T09:10:51.000Z</time>
      </trkpt>
      <trkpt lat="43.97992" lon="7.09335">
        <ele>1303</ele>
        <time>2018-07-21T09:10:53.000Z</time>
      </trkpt>
      <trkpt lat="43.97994" lon="7.09336">
        <ele>1304</ele>
        <time>2018-07-21T09:10:57.000Z</time>
      </trkpt>
      <trkpt lat="43.97997" lon="7.09337">
        <ele>1304</ele>
        <time>2018-07-21T09:11:01.000Z</time>
      </trkpt>
      <trkpt lat="43.97998" lon="7.09337">
        <ele>1304</ele>
        <time>2018-07-21T09:11:04.000Z</time>
      </trkpt>
      <trkpt lat="43.98001" lon="7.09338">
        <ele>1312</ele>
        <time>2018-07-21T09:11:08.000Z</time>
      </trkpt>
      <trkpt lat="43.98002" lon="7.09339">
        <ele>1314</ele>
        <time>2018-07-21T09:11:11.000Z</time>
      </trkpt>
      <trkpt lat="43.98003" lon="7.0934">
        <ele>1315</ele>
        <time>2018-07-21T09:11:15.000Z</time>
      </trkpt>
      <trkpt lat="43.98004" lon="7.09341">
        <ele>1318</ele>
        <time>2018-07-21T09:11:19.000Z</time>
      </trkpt>
      <trkpt lat="43.98005" lon="7.09342">
        <ele>1320</ele>
        <time>2018-07-21T09:11:23.000Z</time>
      </trkpt>
      <trkpt lat="43.98005" lon="7.09342">
        <ele>1319</ele>
        <time>2018-07-21T09:11:25.000Z</time>
      </trkpt>
      <trkpt lat="43.98005" lon="7.09342">
        <ele>1320</ele>
        <time>2018-07-21T09:11:30.000Z</time>
      </trkpt>
      <trkpt lat="43.98007" lon="7.09343">
        <ele>1322</ele>
        <time>2018-07-21T09:11:38.000Z</time>
      </trkpt>
      <trkpt lat="43.98005" lon="7.09345">
        <ele>1323</ele>
        <time>2018-07-21T09:11:42.000Z</time>
      </trkpt>
      <trkpt lat="43.98003" lon="7.09346">
        <ele>1323</ele>
        <time>2018-07-21T09:11:45.000Z</time>
      </trkpt>
      <trkpt lat="43.98003" lon="7.09346">
        <ele>1323</ele>
        <time>2018-07-21T09:11:47.000Z</time>
      </trkpt>
      <trkpt lat="43.98001" lon="7.09346">
        <ele>1323</ele>
        <time>2018-07-21T09:11:53.000Z</time>
      </trkpt>
      <trkpt lat="43.98" lon="7.09347">
        <ele>1304</ele>
        <time>2018-07-21T09:11:54.000Z</time>
      </trkpt>
      <trkpt lat="43.97997" lon="7.0935">
        <ele>1304</ele>
        <time>2018-07-21T09:11:59.000Z</time>
      </trkpt>
      <trkpt lat="43.97996" lon="7.09352">
        <ele>1305</ele>
        <time>2018-07-21T09:12:03.000Z</time>
      </trkpt>
      <trkpt lat="43.97996" lon="7.09352">
        <ele>1305</ele>
        <time>2018-07-21T09:12:05.000Z</time>
      </trkpt>
      <trkpt lat="43.97996" lon="7.09353">
        <ele>1305</ele>
        <time>2018-07-21T09:12:11.000Z</time>
      </trkpt>
      <trkpt lat="43.97994" lon="7.09356">
        <ele>1305</ele>
        <time>2018-07-21T09:12:16.000Z</time>
      </trkpt>
      <trkpt lat="43.97993" lon="7.09356">
        <ele>1305</ele>
        <time>2018-07-21T09:12:19.000Z</time>
      </trkpt>
      <trkpt lat="43.97992" lon="7.09356">
        <ele>1305</ele>
        <time>2018-07-21T09:12:22.000Z</time>
      </trkpt>
      <trkpt lat="43.9799" lon="7.09358">
        <ele>1305</ele>
        <time>2018-07-21T09:12:26.000Z</time>
      </trkpt>
      <trkpt lat="43.97987" lon="7.0936">
        <ele>1305</ele>
        <time>2018-07-21T09:12:30.000Z</time>
      </trkpt>
      <trkpt lat="43.97985" lon="7.09361">
        <ele>1305</ele>
        <time>2018-07-21T09:12:34.000Z</time>
      </trkpt>
      <trkpt lat="43.97984" lon="7.09362">
        <ele>1305</ele>
        <time>2018-07-21T09:12:36.000Z</time>
      </trkpt>
      <trkpt lat="43.97981" lon="7.09366">
        <ele>1305</ele>
        <time>2018-07-21T09:12:41.000Z</time>
      </trkpt>
      <trkpt lat="43.97979" lon="7.09368">
        <ele>1305</ele>
        <time>2018-07-21T09:12:44.000Z</time>
      </trkpt>
      <trkpt lat="43.97977" lon="7.09371">
        <ele>1305</ele>
        <time>2018-07-21T09:12:47.000Z</time>
      </trkpt>
      <trkpt lat="43.97975" lon="7.09375">
        <ele>1306</ele>
        <time>2018-07-21T09:12:52.000Z</time>
      </trkpt>
      <trkpt lat="43.97974" lon="7.09375">
        <ele>1306</ele>
        <time>2018-07-21T09:12:53.000Z</time>
      </trkpt>
      <trkpt lat="43.97973" lon="7.09377">
        <ele>1306</ele>
        <time>2018-07-21T09:12:59.000Z</time>
      </trkpt>
      <trkpt lat="43.97973" lon="7.09378">
        <ele>1306</ele>
        <time>2018-07-21T09:13:16.000Z</time>
      </trkpt>
      <trkpt lat="43.97972" lon="7.0938">
        <ele>1307</ele>
        <time>2018-07-21T09:13:35.000Z</time>
      </trkpt>
      <trkpt lat="43.97971" lon="7.09382">
        <ele>1307</ele>
        <time>2018-07-21T09:13:42.000Z</time>
      </trkpt>
      <trkpt lat="43.97969" lon="7.09383">
        <ele>1307</ele>
        <time>2018-07-21T09:13:48.000Z</time>
      </trkpt>
      <trkpt lat="43.97969" lon="7.09385">
        <ele>1307</ele>
        <time>2018-07-21T09:13:49.000Z</time>
      </trkpt>
      <trkpt lat="43.97964" lon="7.0939">
        <ele>1307</ele>
        <time>2018-07-21T09:13:53.000Z</time>
      </trkpt>
      <trkpt lat="43.97953" lon="7.09401">
        <ele>1306</ele>
        <time>2018-07-21T09:13:59.000Z</time>
      </trkpt>
      <trkpt lat="43.97944" lon="7.09409">
        <ele>1305</ele>
        <time>2018-07-21T09:14:04.000Z</time>
      </trkpt>
      <trkpt lat="43.97939" lon="7.09411">
        <ele>1304</ele>
        <time>2018-07-21T09:14:06.000Z</time>
      </trkpt>
      <trkpt lat="43.97933" lon="7.09418">
        <ele>1328</ele>
        <time>2018-07-21T09:14:10.000Z</time>
      </trkpt>
      <trkpt lat="43.97931" lon="7.0942">
        <ele>1326</ele>
        <time>2018-07-21T09:14:11.000Z</time>
      </trkpt>
      <trkpt lat="43.97924" lon="7.09425">
        <ele>1322</ele>
        <time>2018-07-21T09:14:14.000Z</time>
      </trkpt>
      <trkpt lat="43.97914" lon="7.09433">
        <ele>1318</ele>
        <time>2018-07-21T09:14:19.000Z</time>
      </trkpt>
      <trkpt lat="43.97909" lon="7.09437">
        <ele>1321</ele>
        <time>2018-07-21T09:14:21.000Z</time>
      </trkpt>
      <trkpt lat="43.97897" lon="7.09445">
        <ele>1327</ele>
        <time>2018-07-21T09:14:26.000Z</time>
      </trkpt>
      <trkpt lat="43.97892" lon="7.09447">
        <ele>1328</ele>
        <time>2018-07-21T09:14:28.000Z</time>
      </trkpt>
      <trkpt lat="43.97883" lon="7.09453">
        <ele>1330</ele>
        <time>2018-07-21T09:14:32.000Z</time>
      </trkpt>
      <trkpt lat="43.97871" lon="7.09455">
        <ele>1330</ele>
        <time>2018-07-21T09:14:37.000Z</time>
      </trkpt>
      <trkpt lat="43.9785" lon="7.09456">
        <ele>1329</ele>
        <time>2018-07-21T09:14:44.000Z</time>
      </trkpt>
      <trkpt lat="43.97835" lon="7.09458">
        <ele>1329</ele>
        <time>2018-07-21T09:14:50.000Z</time>
      </trkpt>
      <trkpt lat="43.9782" lon="7.09459">
        <ele>1324</ele>
        <time>2018-07-21T09:14:55.000Z</time>
      </trkpt>
      <trkpt lat="43.97806" lon="7.09458">
        <ele>1323</ele>
        <time>2018-07-21T09:14:59.000Z</time>
      </trkpt>
      <trkpt lat="43.97798" lon="7.09458">
        <ele>1323</ele>
        <time>2018-07-21T09:15:01.000Z</time>
      </trkpt>
      <trkpt lat="43.97784" lon="7.09457">
        <ele>1322</ele>
        <time>2018-07-21T09:15:04.000Z</time>
      </trkpt>
      <trkpt lat="43.97775" lon="7.09457">
        <ele>1322</ele>
        <time>2018-07-21T09:15:06.000Z</time>
      </trkpt>
      <trkpt lat="43.97766" lon="7.09457">
        <ele>1321</ele>
        <time>2018-07-21T09:15:08.000Z</time>
      </trkpt>
      <trkpt lat="43.97762" lon="7.09458">
        <ele>1321</ele>
        <time>2018-07-21T09:15:09.000Z</time>
      </trkpt>
      <trkpt lat="43.97758" lon="7.09458">
        <ele>1322</ele>
        <time>2018-07-21T09:15:10.000Z</time>
      </trkpt>
      <trkpt lat="43.97738" lon="7.09461">
        <ele>1321</ele>
        <time>2018-07-21T09:15:15.000Z</time>
      </trkpt>
      <trkpt lat="43.97726" lon="7.09464">
        <ele>1322</ele>
        <time>2018-07-21T09:15:20.000Z</time>
      </trkpt>
      <trkpt lat="43.97724" lon="7.09464">
        <ele>1322</ele>
        <time>2018-07-21T09:15:21.000Z</time>
      </trkpt>
      <trkpt lat="43.97715" lon="7.09466">
        <ele>1322</ele>
        <time>2018-07-21T09:15:25.000Z</time>
      </trkpt>
      <trkpt lat="43.97705" lon="7.09467">
        <ele>1323</ele>
        <time>2018-07-21T09:15:30.000Z</time>
      </trkpt>
      <trkpt lat="43.97699" lon="7.09467">
        <ele>1323</ele>
        <time>2018-07-21T09:15:33.000Z</time>
      </trkpt>
      <trkpt lat="43.97688" lon="7.09468">
        <ele>1324</ele>
        <time>2018-07-21T09:15:37.000Z</time>
      </trkpt>
      <trkpt lat="43.97683" lon="7.09469">
        <ele>1324</ele>
        <time>2018-07-21T09:15:40.000Z</time>
      </trkpt>
      <trkpt lat="43.97679" lon="7.09467">
        <ele>1324</ele>
        <time>2018-07-21T09:15:42.000Z</time>
      </trkpt>
      <trkpt lat="43.97667" lon="7.09459">
        <ele>1320</ele>
        <time>2018-07-21T09:15:46.000Z</time>
      </trkpt>
      <trkpt lat="43.97659" lon="7.09457">
        <ele>1315</ele>
        <time>2018-07-21T09:15:48.000Z</time>
      </trkpt>
      <trkpt lat="43.97654" lon="7.09457">
        <ele>1314</ele>
        <time>2018-07-21T09:15:49.000Z</time>
      </trkpt>
      <trkpt lat="43.97646" lon="7.09456">
        <ele>1313</ele>
        <time>2018-07-21T09:15:51.000Z</time>
      </trkpt>
      <trkpt lat="43.9764" lon="7.09454">
        <ele>1313</ele>
        <time>2018-07-21T09:15:53.000Z</time>
      </trkpt>
      <trkpt lat="43.97634" lon="7.09453">
        <ele>1312</ele>
        <time>2018-07-21T09:15:54.000Z</time>
      </trkpt>
      <trkpt lat="43.97626" lon="7.09451">
        <ele>1311</ele>
        <time>2018-07-21T09:15:56.000Z</time>
      </trkpt>
      <trkpt lat="43.97622" lon="7.09452">
        <ele>1311</ele>
        <time>2018-07-21T09:15:57.000Z</time>
      </trkpt>
      <trkpt lat="43.97619" lon="7.09452">
        <ele>1311</ele>
        <time>2018-07-21T09:15:58.000Z</time>
      </trkpt>
      <trkpt lat="43.97612" lon="7.09453">
        <ele>1310</ele>
        <time>2018-07-21T09:16:01.000Z</time>
      </trkpt>
      <trkpt lat="43.97593" lon="7.09451">
        <ele>1308</ele>
        <time>2018-07-21T09:16:07.000Z</time>
      </trkpt>
      <trkpt lat="43.97575" lon="7.09448">
        <ele>1290</ele>
        <time>2018-07-21T09:16:12.000Z</time>
      </trkpt>
      <trkpt lat="43.97566" lon="7.09447">
        <ele>1289</ele>
        <time>2018-07-21T09:16:16.000Z</time>
      </trkpt>
      <trkpt lat="43.97563" lon="7.09451">
        <ele>1289</ele>
        <time>2018-07-21T09:16:17.000Z</time>
      </trkpt>
      <trkpt lat="43.97554" lon="7.09471">
        <ele>1293</ele>
        <time>2018-07-21T09:16:21.000Z</time>
      </trkpt>
      <trkpt lat="43.97553" lon="7.09478">
        <ele>1295</ele>
        <time>2018-07-21T09:16:22.000Z</time>
      </trkpt>
      <trkpt lat="43.97554" lon="7.09492">
        <ele>1298</ele>
        <time>2018-07-21T09:16:24.000Z</time>
      </trkpt>
      <trkpt lat="43.97546" lon="7.09501">
        <ele>1322</ele>
        <time>2018-07-21T09:16:26.000Z</time>
      </trkpt>
      <trkpt lat="43.97539" lon="7.09511">
        <ele>1321</ele>
        <time>2018-07-21T09:16:28.000Z</time>
      </trkpt>
      <trkpt lat="43.97535" lon="7.09516">
        <ele>1320</ele>
        <time>2018-07-21T09:16:29.000Z</time>
      </trkpt>
      <trkpt lat="43.97532" lon="7.09519">
        <ele>1320</ele>
        <time>2018-07-21T09:16:30.000Z</time>
      </trkpt>
      <trkpt lat="43.97523" lon="7.09529">
        <ele>1320</ele>
        <time>2018-07-21T09:16:32.000Z</time>
      </trkpt>
      <trkpt lat="43.97519" lon="7.09531">
        <ele>1319</ele>
        <time>2018-07-21T09:16:33.000Z</time>
      </trkpt>
      <trkpt lat="43.97515" lon="7.09533">
        <ele>1319</ele>
        <time>2018-07-21T09:16:34.000Z</time>
      </trkpt>
      <trkpt lat="43.97507" lon="7.09532">
        <ele>1317</ele>
        <time>2018-07-21T09:16:36.000Z</time>
      </trkpt>
      <trkpt lat="43.97502" lon="7.09532">
        <ele>1316</ele>
        <time>2018-07-21T09:16:37.000Z</time>
      </trkpt>
      <trkpt lat="43.97497" lon="7.09534">
        <ele>1285</ele>
        <time>2018-07-21T09:16:38.000Z</time>
      </trkpt>
      <trkpt lat="43.97488" lon="7.09535">
        <ele>1284</ele>
        <time>2018-07-21T09:16:40.000Z</time>
      </trkpt>
      <trkpt lat="43.97484" lon="7.09538">
        <ele>1284</ele>
        <time>2018-07-21T09:16:41.000Z</time>
      </trkpt>
      <trkpt lat="43.9748" lon="7.09541">
        <ele>1284</ele>
        <time>2018-07-21T09:16:42.000Z</time>
      </trkpt>
      <trkpt lat="43.97473" lon="7.09547">
        <ele>1284</ele>
        <time>2018-07-21T09:16:44.000Z</time>
      </trkpt>
      <trkpt lat="43.97468" lon="7.09551">
        <ele>1283</ele>
        <time>2018-07-21T09:16:45.000Z</time>
      </trkpt>
      <trkpt lat="43.97462" lon="7.0957">
        <ele>1285</ele>
        <time>2018-07-21T09:16:48.000Z</time>
      </trkpt>
      <trkpt lat="43.9746" lon="7.09579">
        <ele>1285</ele>
        <time>2018-07-21T09:16:49.000Z</time>
      </trkpt>
      <trkpt lat="43.97458" lon="7.09588">
        <ele>1308</ele>
        <time>2018-07-21T09:16:50.000Z</time>
      </trkpt>
      <trkpt lat="43.97454" lon="7.09604">
        <ele>1308</ele>
        <time>2018-07-21T09:16:52.000Z</time>
      </trkpt>
      <trkpt lat="43.9745" lon="7.09613">
        <ele>1309</ele>
        <time>2018-07-21T09:16:53.000Z</time>
      </trkpt>
      <trkpt lat="43.97444" lon="7.09621">
        <ele>1310</ele>
        <time>2018-07-21T09:16:54.000Z</time>
      </trkpt>
      <trkpt lat="43.97435" lon="7.09635">
        <ele>1311</ele>
        <time>2018-07-21T09:16:56.000Z</time>
      </trkpt>
      <trkpt lat="43.97421" lon="7.09641">
        <ele>1310</ele>
        <time>2018-07-21T09:16:59.000Z</time>
      </trkpt>
      <trkpt lat="43.97414" lon="7.09654">
        <ele>1298</ele>
        <time>2018-07-21T09:17:02.000Z</time>
      </trkpt>
      <trkpt lat="43.97406" lon="7.0966">
        <ele>1298</ele>
        <time>2018-07-21T09:17:05.000Z</time>
      </trkpt>
      <trkpt lat="43.97404" lon="7.09663">
        <ele>1298</ele>
        <time>2018-07-21T09:17:06.000Z</time>
      </trkpt>
      <trkpt lat="43.974" lon="7.09676">
        <ele>1315</ele>
        <time>2018-07-21T09:17:09.000Z</time>
      </trkpt>
      <trkpt lat="43.97398" lon="7.09678">
        <ele>1315</ele>
        <time>2018-07-21T09:17:10.000Z</time>
      </trkpt>
      <trkpt lat="43.97392" lon="7.09682">
        <ele>1316</ele>
        <time>2018-07-21T09:17:12.000Z</time>
      </trkpt>
      <trkpt lat="43.97389" lon="7.0968">
        <ele>1315</ele>
        <time>2018-07-21T09:17:14.000Z</time>
      </trkpt>
      <trkpt lat="43.97388" lon="7.0968">
        <ele>1315</ele>
        <time>2018-07-21T09:17:15.000Z</time>
      </trkpt>
      <trkpt lat="43.97383" lon="7.09678">
        <ele>1315</ele>
        <time>2018-07-21T09:17:18.000Z</time>
      </trkpt>
      <trkpt lat="43.9738" lon="7.09676">
        <ele>1314</ele>
        <time>2018-07-21T09:17:20.000Z</time>
      </trkpt>
      <trkpt lat="43.97373" lon="7.09672">
        <ele>1313</ele>
        <time>2018-07-21T09:17:24.000Z</time>
      </trkpt>
      <trkpt lat="43.97361" lon="7.09666">
        <ele>1287</ele>
        <time>2018-07-21T09:17:29.000Z</time>
      </trkpt>
      <trkpt lat="43.97351" lon="7.09664">
        <ele>1288</ele>
        <time>2018-07-21T09:17:33.000Z</time>
      </trkpt>
      <trkpt lat="43.97348" lon="7.09664">
        <ele>1289</ele>
        <time>2018-07-21T09:17:35.000Z</time>
      </trkpt>
      <trkpt lat="43.97345" lon="7.09665">
        <ele>1290</ele>
        <time>2018-07-21T09:17:37.000Z</time>
      </trkpt>
      <trkpt lat="43.9734" lon="7.09667">
        <ele>1301</ele>
        <time>2018-07-21T09:17:41.000Z</time>
      </trkpt>
      <trkpt lat="43.97338" lon="7.09667">
        <ele>1300</ele>
        <time>2018-07-21T09:17:42.000Z</time>
      </trkpt>
      <trkpt lat="43.97334" lon="7.0967">
        <ele>1299</ele>
        <time>2018-07-21T09:17:45.000Z</time>
      </trkpt>
      <trkpt lat="43.97328" lon="7.09672">
        <ele>1299</ele>
        <time>2018-07-21T09:17:50.000Z</time>
      </trkpt>
      <trkpt lat="43.97327" lon="7.09673">
        <ele>1299</ele>
        <time>2018-07-21T09:17:51.000Z</time>
      </trkpt>
      <trkpt lat="43.97323" lon="7.09675">
        <ele>1301</ele>
        <time>2018-07-21T09:17:55.000Z</time>
      </trkpt>
      <trkpt lat="43.9732" lon="7.09675">
        <ele>1301</ele>
        <time>2018-07-21T09:17:57.000Z</time>
      </trkpt>
      <trkpt lat="43.97315" lon="7.09675">
        <ele>1301</ele>
        <time>2018-07-21T09:18:01.000Z</time>
      </trkpt>
      <trkpt lat="43.97307" lon="7.09676">
        <ele>1302</ele>
        <time>2018-07-21T09:18:05.000Z</time>
      </trkpt>
      <trkpt lat="43.97304" lon="7.09677">
        <ele>1302</ele>
        <time>2018-07-21T09:18:07.000Z</time>
      </trkpt>
      <trkpt lat="43.97299" lon="7.0968">
        <ele>1302</ele>
        <time>2018-07-21T09:18:11.000Z</time>
      </trkpt>
      <trkpt lat="43.97297" lon="7.09681">
        <ele>1302</ele>
        <time>2018-07-21T09:18:12.000Z</time>
      </trkpt>
      <trkpt lat="43.97287" lon="7.09684">
        <ele>1302</ele>
        <time>2018-07-21T09:18:18.000Z</time>
      </trkpt>
      <trkpt lat="43.97282" lon="7.09684">
        <ele>1301</ele>
        <time>2018-07-21T09:18:22.000Z</time>
      </trkpt>
      <trkpt lat="43.97277" lon="7.09684">
        <ele>1301</ele>
        <time>2018-07-21T09:18:24.000Z</time>
      </trkpt>
      <trkpt lat="43.9727" lon="7.09686">
        <ele>1300</ele>
        <time>2018-07-21T09:18:28.000Z</time>
      </trkpt>
      <trkpt lat="43.97264" lon="7.09689">
        <ele>1300</ele>
        <time>2018-07-21T09:18:31.000Z</time>
      </trkpt>
      <trkpt lat="43.97251" lon="7.09691">
        <ele>1299</ele>
        <time>2018-07-21T09:18:37.000Z</time>
      </trkpt>
      <trkpt lat="43.97245" lon="7.09692">
        <ele>1295</ele>
        <time>2018-07-21T09:18:40.000Z</time>
      </trkpt>
      <trkpt lat="43.97234" lon="7.09694">
        <ele>1295</ele>
        <time>2018-07-21T09:18:46.000Z</time>
      </trkpt>
      <trkpt lat="43.97227" lon="7.09696">
        <ele>1296</ele>
        <time>2018-07-21T09:18:51.000Z</time>
      </trkpt>
      <trkpt lat="43.97223" lon="7.09698">
        <ele>1296</ele>
        <time>2018-07-21T09:18:54.000Z</time>
      </trkpt>
      <trkpt lat="43.97222" lon="7.09699">
        <ele>1296</ele>
        <time>2018-07-21T09:18:55.000Z</time>
      </trkpt>
      <trkpt lat="43.97211" lon="7.09703">
        <ele>1297</ele>
        <time>2018-07-21T09:19:01.000Z</time>
      </trkpt>
      <trkpt lat="43.97205" lon="7.09707">
        <ele>1297</ele>
        <time>2018-07-21T09:19:04.000Z</time>
      </trkpt>
      <trkpt lat="43.97203" lon="7.09708">
        <ele>1297</ele>
        <time>2018-07-21T09:19:05.000Z</time>
      </trkpt>
      <trkpt lat="43.972" lon="7.0971">
        <ele>1297</ele>
        <time>2018-07-21T09:19:07.000Z</time>
      </trkpt>
      <trkpt lat="43.97196" lon="7.09717">
        <ele>1297</ele>
        <time>2018-07-21T09:19:11.000Z</time>
      </trkpt>
      <trkpt lat="43.97197" lon="7.09721">
        <ele>1297</ele>
        <time>2018-07-21T09:19:13.000Z</time>
      </trkpt>
      <trkpt lat="43.972" lon="7.09727">
        <ele>1298</ele>
        <time>2018-07-21T09:19:16.000Z</time>
      </trkpt>
      <trkpt lat="43.97202" lon="7.09731">
        <ele>1298</ele>
        <time>2018-07-21T09:19:19.000Z</time>
      </trkpt>
      <trkpt lat="43.97203" lon="7.09739">
        <ele>1299</ele>
        <time>2018-07-21T09:19:24.000Z</time>
      </trkpt>
      <trkpt lat="43.97204" lon="7.09742">
        <ele>1299</ele>
        <time>2018-07-21T09:19:26.000Z</time>
      </trkpt>
      <trkpt lat="43.97205" lon="7.09757">
        <ele>1302</ele>
        <time>2018-07-21T09:19:32.000Z</time>
      </trkpt>
      <trkpt lat="43.97204" lon="7.09762">
        <ele>1301</ele>
        <time>2018-07-21T09:19:35.000Z</time>
      </trkpt>
      <trkpt lat="43.97203" lon="7.09765">
        <ele>1301</ele>
        <time>2018-07-21T09:19:37.000Z</time>
      </trkpt>
      <trkpt lat="43.97203" lon="7.09768">
        <ele>1301</ele>
        <time>2018-07-21T09:19:39.000Z</time>
      </trkpt>
      <trkpt lat="43.97205" lon="7.09774">
        <ele>1301</ele>
        <time>2018-07-21T09:19:43.000Z</time>
      </trkpt>
      <trkpt lat="43.97207" lon="7.09779">
        <ele>1301</ele>
        <time>2018-07-21T09:19:46.000Z</time>
      </trkpt>
      <trkpt lat="43.97211" lon="7.09785">
        <ele>1302</ele>
        <time>2018-07-21T09:19:50.000Z</time>
      </trkpt>
      <trkpt lat="43.97218" lon="7.09792">
        <ele>1302</ele>
        <time>2018-07-21T09:19:56.000Z</time>
      </trkpt>
      <trkpt lat="43.9722" lon="7.09795">
        <ele>1302</ele>
        <time>2018-07-21T09:19:58.000Z</time>
      </trkpt>
      <trkpt lat="43.97227" lon="7.09805">
        <ele>1302</ele>
        <time>2018-07-21T09:20:03.000Z</time>
      </trkpt>
      <trkpt lat="43.97227" lon="7.09805">
        <ele>1302</ele>
        <time>2018-07-21T09:20:04.000Z</time>
      </trkpt>
      <trkpt lat="43.97229" lon="7.09805">
        <ele>1303</ele>
        <time>2018-07-21T09:20:07.000Z</time>
      </trkpt>
      <trkpt lat="43.97229" lon="7.09806">
        <ele>1303</ele>
        <time>2018-07-21T09:20:12.000Z</time>
      </trkpt>
      <trkpt lat="43.9723" lon="7.09807">
        <ele>1303</ele>
        <time>2018-07-21T09:20:20.000Z</time>
      </trkpt>
      <trkpt lat="43.97231" lon="7.09808">
        <ele>1303</ele>
        <time>2018-07-21T09:20:21.000Z</time>
      </trkpt>
      <trkpt lat="43.97236" lon="7.09816">
        <ele>1303</ele>
        <time>2018-07-21T09:20:25.000Z</time>
      </trkpt>
      <trkpt lat="43.97236" lon="7.09816">
        <ele>1303</ele>
        <time>2018-07-21T09:20:26.000Z</time>
      </trkpt>
      <trkpt lat="43.97241" lon="7.09818">
        <ele>1304</ele>
        <time>2018-07-21T09:20:31.000Z</time>
      </trkpt>
      <trkpt lat="43.97251" lon="7.09825">
        <ele>1309</ele>
        <time>2018-07-21T09:20:37.000Z</time>
      </trkpt>
      <trkpt lat="43.97261" lon="7.09831">
        <ele>1310</ele>
        <time>2018-07-21T09:20:40.000Z</time>
      </trkpt>
      <trkpt lat="43.97265" lon="7.09833">
        <ele>1311</ele>
        <time>2018-07-21T09:20:41.000Z</time>
      </trkpt>
      <trkpt lat="43.97284" lon="7.09843">
        <ele>1303</ele>
        <time>2018-07-21T09:20:45.000Z</time>
      </trkpt>
      <trkpt lat="43.97289" lon="7.09848">
        <ele>1303</ele>
        <time>2018-07-21T09:20:46.000Z</time>
      </trkpt>
      <trkpt lat="43.97294" lon="7.09852">
        <ele>1303</ele>
        <time>2018-07-21T09:20:47.000Z</time>
      </trkpt>
      <trkpt lat="43.97299" lon="7.09855">
        <ele>1303</ele>
        <time>2018-07-21T09:20:48.000Z</time>
      </trkpt>
      <trkpt lat="43.97317" lon="7.09867">
        <ele>1303</ele>
        <time>2018-07-21T09:20:51.000Z</time>
      </trkpt>
      <trkpt lat="43.97323" lon="7.0987">
        <ele>1303</ele>
        <time>2018-07-21T09:20:52.000Z</time>
      </trkpt>
      <trkpt lat="43.97334" lon="7.09875">
        <ele>1311</ele>
        <time>2018-07-21T09:20:54.000Z</time>
      </trkpt>
      <trkpt lat="43.97339" lon="7.09877">
        <ele>1310</ele>
        <time>2018-07-21T09:20:55.000Z</time>
      </trkpt>
      <trkpt lat="43.9735" lon="7.09884">
        <ele>1310</ele>
        <time>2018-07-21T09:20:59.000Z</time>
      </trkpt>
      <trkpt lat="43.97366" lon="7.09892">
        <ele>1310</ele>
        <time>2018-07-21T09:21:04.000Z</time>
      </trkpt>
      <trkpt lat="43.97369" lon="7.09892">
        <ele>1310</ele>
        <time>2018-07-21T09:21:05.000Z</time>
      </trkpt>
      <trkpt lat="43.97379" lon="7.09898">
        <ele>1311</ele>
        <time>2018-07-21T09:21:09.000Z</time>
      </trkpt>
      <trkpt lat="43.97381" lon="7.09901">
        <ele>1311</ele>
        <time>2018-07-21T09:21:10.000Z</time>
      </trkpt>
      <trkpt lat="43.97391" lon="7.09909">
        <ele>1311</ele>
        <time>2018-07-21T09:21:13.000Z</time>
      </trkpt>
      <trkpt lat="43.97395" lon="7.09912">
        <ele>1311</ele>
        <time>2018-07-21T09:21:14.000Z</time>
      </trkpt>
      <trkpt lat="43.97407" lon="7.0992">
        <ele>1302</ele>
        <time>2018-07-21T09:21:17.000Z</time>
      </trkpt>
      <trkpt lat="43.97418" lon="7.09924">
        <ele>1309</ele>
        <time>2018-07-21T09:21:20.000Z</time>
      </trkpt>
      <trkpt lat="43.97432" lon="7.0992">
        <ele>1308</ele>
        <time>2018-07-21T09:21:24.000Z</time>
      </trkpt>
      <trkpt lat="43.97444" lon="7.09924">
        <ele>1308</ele>
        <time>2018-07-21T09:21:28.000Z</time>
      </trkpt>
      <trkpt lat="43.97446" lon="7.09926">
        <ele>1308</ele>
        <time>2018-07-21T09:21:29.000Z</time>
      </trkpt>
      <trkpt lat="43.97455" lon="7.09936">
        <ele>1308</ele>
        <time>2018-07-21T09:21:33.000Z</time>
      </trkpt>
      <trkpt lat="43.97458" lon="7.09938">
        <ele>1308</ele>
        <time>2018-07-21T09:21:34.000Z</time>
      </trkpt>
      <trkpt lat="43.97463" lon="7.09942">
        <ele>1308</ele>
        <time>2018-07-21T09:21:38.000Z</time>
      </trkpt>
      <trkpt lat="43.97463" lon="7.09943">
        <ele>1308</ele>
        <time>2018-07-21T09:21:39.000Z</time>
      </trkpt>
      <trkpt lat="43.97468" lon="7.09945">
        <ele>1308</ele>
        <time>2018-07-21T09:21:44.000Z</time>
      </trkpt>
      <trkpt lat="43.97477" lon="7.09948">
        <ele>1309</ele>
        <time>2018-07-21T09:21:49.000Z</time>
      </trkpt>
      <trkpt lat="43.97479" lon="7.09948">
        <ele>1310</ele>
        <time>2018-07-21T09:21:50.000Z</time>
      </trkpt>
      <trkpt lat="43.97481" lon="7.09949">
        <ele>1310</ele>
        <time>2018-07-21T09:21:51.000Z</time>
      </trkpt>
      <trkpt lat="43.97484" lon="7.09951">
        <ele>1309</ele>
        <time>2018-07-21T09:21:53.000Z</time>
      </trkpt>
      <trkpt lat="43.97486" lon="7.09952">
        <ele>1309</ele>
        <time>2018-07-21T09:21:55.000Z</time>
      </trkpt>
      <trkpt lat="43.97488" lon="7.09954">
        <ele>1309</ele>
        <time>2018-07-21T09:21:56.000Z</time>
      </trkpt>
      <trkpt lat="43.97491" lon="7.09954">
        <ele>1309</ele>
        <time>2018-07-21T09:21:58.000Z</time>
      </trkpt>
      <trkpt lat="43.97492" lon="7.09955">
        <ele>1309</ele>
        <time>2018-07-21T09:21:59.000Z</time>
      </trkpt>
      <trkpt lat="43.97495" lon="7.09956">
        <ele>1309</ele>
        <time>2018-07-21T09:22:01.000Z</time>
      </trkpt>
      <trkpt lat="43.97497" lon="7.09957">
        <ele>1309</ele>
        <time>2018-07-21T09:22:02.000Z</time>
      </trkpt>
      <trkpt lat="43.97506" lon="7.09963">
        <ele>1320</ele>
        <time>2018-07-21T09:22:07.000Z</time>
      </trkpt>
      <trkpt lat="43.97508" lon="7.09965">
        <ele>1320</ele>
        <time>2018-07-21T09:22:09.000Z</time>
      </trkpt>
      <trkpt lat="43.9751" lon="7.09965">
        <ele>1320</ele>
        <time>2018-07-21T09:22:10.000Z</time>
      </trkpt>
      <trkpt lat="43.97512" lon="7.09966">
        <ele>1320</ele>
        <time>2018-07-21T09:22:11.000Z</time>
      </trkpt>
      <trkpt lat="43.97518" lon="7.09968">
        <ele>1320</ele>
        <time>2018-07-21T09:22:14.000Z</time>
      </trkpt>
      <trkpt lat="43.97521" lon="7.0997">
        <ele>1320</ele>
        <time>2018-07-21T09:22:15.000Z</time>
      </trkpt>
      <trkpt lat="43.97532" lon="7.09984">
        <ele>1319</ele>
        <time>2018-07-21T09:22:19.000Z</time>
      </trkpt>
      <trkpt lat="43.97545" lon="7.09998">
        <ele>1320</ele>
        <time>2018-07-21T09:22:23.000Z</time>
      </trkpt>
      <trkpt lat="43.9755" lon="7.10003">
        <ele>1304</ele>
        <time>2018-07-21T09:22:24.000Z</time>
      </trkpt>
      <trkpt lat="43.97559" lon="7.10008">
        <ele>1306</ele>
        <time>2018-07-21T09:22:26.000Z</time>
      </trkpt>
      <trkpt lat="43.97561" lon="7.1001">
        <ele>1307</ele>
        <time>2018-07-21T09:22:27.000Z</time>
      </trkpt>
      <trkpt lat="43.97564" lon="7.10011">
        <ele>1307</ele>
        <time>2018-07-21T09:22:28.000Z</time>
      </trkpt>
      <trkpt lat="43.97568" lon="7.10015">
        <ele>1308</ele>
        <time>2018-07-21T09:22:30.000Z</time>
      </trkpt>
      <trkpt lat="43.9757" lon="7.10017">
        <ele>1307</ele>
        <time>2018-07-21T09:22:32.000Z</time>
      </trkpt>
      <trkpt lat="43.97571" lon="7.10018">
        <ele>1307</ele>
        <time>2018-07-21T09:22:35.000Z</time>
      </trkpt>
      <trkpt lat="43.97572" lon="7.10019">
        <ele>1307</ele>
        <time>2018-07-21T09:22:38.000Z</time>
      </trkpt>
      <trkpt lat="43.97574" lon="7.1002">
        <ele>1307</ele>
        <time>2018-07-21T09:22:39.000Z</time>
      </trkpt>
      <trkpt lat="43.97577" lon="7.10023">
        <ele>1307</ele>
        <time>2018-07-21T09:22:42.000Z</time>
      </trkpt>
      <trkpt lat="43.97578" lon="7.10024">
        <ele>1306</ele>
        <time>2018-07-21T09:22:43.000Z</time>
      </trkpt>
      <trkpt lat="43.97579" lon="7.10026">
        <ele>1306</ele>
        <time>2018-07-21T09:22:44.000Z</time>
      </trkpt>
      <trkpt lat="43.97584" lon="7.10033">
        <ele>1317</ele>
        <time>2018-07-21T09:22:48.000Z</time>
      </trkpt>
      <trkpt lat="43.97585" lon="7.10034">
        <ele>1317</ele>
        <time>2018-07-21T09:22:49.000Z</time>
      </trkpt>
      <trkpt lat="43.97586" lon="7.10036">
        <ele>1317</ele>
        <time>2018-07-21T09:22:50.000Z</time>
      </trkpt>
      <trkpt lat="43.97591" lon="7.10041">
        <ele>1316</ele>
        <time>2018-07-21T09:22:53.000Z</time>
      </trkpt>
      <trkpt lat="43.97601" lon="7.10048">
        <ele>1315</ele>
        <time>2018-07-21T09:22:58.000Z</time>
      </trkpt>
      <trkpt lat="43.97611" lon="7.10058">
        <ele>1315</ele>
        <time>2018-07-21T09:23:01.000Z</time>
      </trkpt>
      <trkpt lat="43.97615" lon="7.10062">
        <ele>1315</ele>
        <time>2018-07-21T09:23:02.000Z</time>
      </trkpt>
      <trkpt lat="43.97623" lon="7.10071">
        <ele>1315</ele>
        <time>2018-07-21T09:23:04.000Z</time>
      </trkpt>
      <trkpt lat="43.9763" lon="7.10082">
        <ele>1315</ele>
        <time>2018-07-21T09:23:06.000Z</time>
      </trkpt>
      <trkpt lat="43.97636" lon="7.10093">
        <ele>1298</ele>
        <time>2018-07-21T09:23:08.000Z</time>
      </trkpt>
      <trkpt lat="43.97642" lon="7.10104">
        <ele>1297</ele>
        <time>2018-07-21T09:23:10.000Z</time>
      </trkpt>
      <trkpt lat="43.97652" lon="7.10116">
        <ele>1296</ele>
        <time>2018-07-21T09:23:13.000Z</time>
      </trkpt>
      <trkpt lat="43.97659" lon="7.10128">
        <ele>1293</ele>
        <time>2018-07-21T09:23:15.000Z</time>
      </trkpt>
      <trkpt lat="43.97662" lon="7.10135">
        <ele>1292</ele>
        <time>2018-07-21T09:23:16.000Z</time>
      </trkpt>
      <trkpt lat="43.97664" lon="7.10141">
        <ele>1290</ele>
        <time>2018-07-21T09:23:17.000Z</time>
      </trkpt>
      <trkpt lat="43.97675" lon="7.10152">
        <ele>1298</ele>
        <time>2018-07-21T09:23:20.000Z</time>
      </trkpt>
      <trkpt lat="43.97683" lon="7.10157">
        <ele>1299</ele>
        <time>2018-07-21T09:23:22.000Z</time>
      </trkpt>
      <trkpt lat="43.97694" lon="7.10166">
        <ele>1302</ele>
        <time>2018-07-21T09:23:24.000Z</time>
      </trkpt>
      <trkpt lat="43.97699" lon="7.10169">
        <ele>1283</ele>
        <time>2018-07-21T09:23:25.000Z</time>
      </trkpt>
      <trkpt lat="43.97714" lon="7.1018">
        <ele>1284</ele>
        <time>2018-07-21T09:23:28.000Z</time>
      </trkpt>
      <trkpt lat="43.97726" lon="7.10193">
        <ele>1284</ele>
        <time>2018-07-21T09:23:30.000Z</time>
      </trkpt>
      <trkpt lat="43.97732" lon="7.10198">
        <ele>1283</ele>
        <time>2018-07-21T09:23:31.000Z</time>
      </trkpt>
      <trkpt lat="43.97738" lon="7.10203">
        <ele>1282</ele>
        <time>2018-07-21T09:23:32.000Z</time>
      </trkpt>
      <trkpt lat="43.97742" lon="7.10208">
        <ele>1281</ele>
        <time>2018-07-21T09:23:33.000Z</time>
      </trkpt>
      <trkpt lat="43.9775" lon="7.10221">
        <ele>1285</ele>
        <time>2018-07-21T09:23:35.000Z</time>
      </trkpt>
      <trkpt lat="43.97755" lon="7.10223">
        <ele>1284</ele>
        <time>2018-07-21T09:23:36.000Z</time>
      </trkpt>
      <trkpt lat="43.97759" lon="7.10222">
        <ele>1284</ele>
        <time>2018-07-21T09:23:37.000Z</time>
      </trkpt>
      <trkpt lat="43.97768" lon="7.10224">
        <ele>1285</ele>
        <time>2018-07-21T09:23:39.000Z</time>
      </trkpt>
      <trkpt lat="43.97778" lon="7.10229">
        <ele>1285</ele>
        <time>2018-07-21T09:23:41.000Z</time>
      </trkpt>
      <trkpt lat="43.97782" lon="7.10232">
        <ele>1284</ele>
        <time>2018-07-21T09:23:42.000Z</time>
      </trkpt>
      <trkpt lat="43.97792" lon="7.10243">
        <ele>1284</ele>
        <time>2018-07-21T09:23:45.000Z</time>
      </trkpt>
      <trkpt lat="43.97796" lon="7.10244">
        <ele>1284</ele>
        <time>2018-07-21T09:23:46.000Z</time>
      </trkpt>
      <trkpt lat="43.97802" lon="7.10245">
        <ele>1283</ele>
        <time>2018-07-21T09:23:48.000Z</time>
      </trkpt>
      <trkpt lat="43.97806" lon="7.10245">
        <ele>1283</ele>
        <time>2018-07-21T09:23:49.000Z</time>
      </trkpt>
      <trkpt lat="43.97806" lon="7.10249">
        <ele>1283</ele>
        <time>2018-07-21T09:23:51.000Z</time>
      </trkpt>
      <trkpt lat="43.97802" lon="7.10255">
        <ele>1262</ele>
        <time>2018-07-21T09:23:53.000Z</time>
      </trkpt>
      <trkpt lat="43.97803" lon="7.10254">
        <ele>1262</ele>
        <time>2018-07-21T09:23:54.000Z</time>
      </trkpt>
      <trkpt lat="43.97806" lon="7.10257">
        <ele>1262</ele>
        <time>2018-07-21T09:23:55.000Z</time>
      </trkpt>
      <trkpt lat="43.97809" lon="7.10261">
        <ele>1262</ele>
        <time>2018-07-21T09:23:56.000Z</time>
      </trkpt>
      <trkpt lat="43.97812" lon="7.10263">
        <ele>1262</ele>
        <time>2018-07-21T09:23:57.000Z</time>
      </trkpt>
      <trkpt lat="43.97818" lon="7.10265">
        <ele>1263</ele>
        <time>2018-07-21T09:23:58.000Z</time>
      </trkpt>
      <trkpt lat="43.97822" lon="7.10266">
        <ele>1264</ele>
        <time>2018-07-21T09:23:59.000Z</time>
      </trkpt>
      <trkpt lat="43.97825" lon="7.10267">
        <ele>1264</ele>
        <time>2018-07-21T09:24:00.000Z</time>
      </trkpt>
      <trkpt lat="43.97827" lon="7.1027">
        <ele>1263</ele>
        <time>2018-07-21T09:24:01.000Z</time>
      </trkpt>
      <trkpt lat="43.97828" lon="7.10273">
        <ele>1262</ele>
        <time>2018-07-21T09:24:02.000Z</time>
      </trkpt>
      <trkpt lat="43.9783" lon="7.10275">
        <ele>1261</ele>
        <time>2018-07-21T09:24:03.000Z</time>
      </trkpt>
      <trkpt lat="43.97833" lon="7.10277">
        <ele>1261</ele>
        <time>2018-07-21T09:24:04.000Z</time>
      </trkpt>
      <trkpt lat="43.97838" lon="7.10279">
        <ele>1262</ele>
        <time>2018-07-21T09:24:05.000Z</time>
      </trkpt>
      <trkpt lat="43.97842" lon="7.10281">
        <ele>1262</ele>
        <time>2018-07-21T09:24:06.000Z</time>
      </trkpt>
      <trkpt lat="43.97845" lon="7.10283">
        <ele>1261</ele>
        <time>2018-07-21T09:24:07.000Z</time>
      </trkpt>
      <trkpt lat="43.97849" lon="7.10284">
        <ele>1261</ele>
        <time>2018-07-21T09:24:08.000Z</time>
      </trkpt>
      <trkpt lat="43.97854" lon="7.10284">
        <ele>1261</ele>
        <time>2018-07-21T09:24:09.000Z</time>
      </trkpt>
      <trkpt lat="43.97859" lon="7.10284">
        <ele>1261</ele>
        <time>2018-07-21T09:24:10.000Z</time>
      </trkpt>
      <trkpt lat="43.97866" lon="7.10286">
        <ele>1261</ele>
        <time>2018-07-21T09:24:11.000Z</time>
      </trkpt>
      <trkpt lat="43.97877" lon="7.10291">
        <ele>1260</ele>
        <time>2018-07-21T09:24:13.000Z</time>
      </trkpt>
      <trkpt lat="43.97883" lon="7.10295">
        <ele>1259</ele>
        <time>2018-07-21T09:24:14.000Z</time>
      </trkpt>
      <trkpt lat="43.97888" lon="7.103">
        <ele>1259</ele>
        <time>2018-07-21T09:24:15.000Z</time>
      </trkpt>
      <trkpt lat="43.97906" lon="7.10304">
        <ele>1258</ele>
        <time>2018-07-21T09:24:18.000Z</time>
      </trkpt>
      <trkpt lat="43.97913" lon="7.10304">
        <ele>1258</ele>
        <time>2018-07-21T09:24:19.000Z</time>
      </trkpt>
      <trkpt lat="43.97924" lon="7.10305">
        <ele>1264</ele>
        <time>2018-07-21T09:24:21.000Z</time>
      </trkpt>
      <trkpt lat="43.97931" lon="7.10307">
        <ele>1265</ele>
        <time>2018-07-21T09:24:23.000Z</time>
      </trkpt>
      <trkpt lat="43.97934" lon="7.10307">
        <ele>1265</ele>
        <time>2018-07-21T09:24:24.000Z</time>
      </trkpt>
      <trkpt lat="43.97938" lon="7.10309">
        <ele>1265</ele>
        <time>2018-07-21T09:24:26.000Z</time>
      </trkpt>
      <trkpt lat="43.97939" lon="7.1031">
        <ele>1265</ele>
        <time>2018-07-21T09:24:27.000Z</time>
      </trkpt>
      <trkpt lat="43.9794" lon="7.1031">
        <ele>1265</ele>
        <time>2018-07-21T09:24:28.000Z</time>
      </trkpt>
      <trkpt lat="43.97941" lon="7.10311">
        <ele>1265</ele>
        <time>2018-07-21T09:24:31.000Z</time>
      </trkpt>
      <trkpt lat="43.97942" lon="7.10312">
        <ele>1265</ele>
        <time>2018-07-21T09:24:32.000Z</time>
      </trkpt>
      <trkpt lat="43.97945" lon="7.10317">
        <ele>1265</ele>
        <time>2018-07-21T09:24:38.000Z</time>
      </trkpt>
      <trkpt lat="43.97946" lon="7.10321">
        <ele>1265</ele>
        <time>2018-07-21T09:24:41.000Z</time>
      </trkpt>
      <trkpt lat="43.97946" lon="7.10323">
        <ele>1264</ele>
        <time>2018-07-21T09:24:43.000Z</time>
      </trkpt>
      <trkpt lat="43.97947" lon="7.10324">
        <ele>1264</ele>
        <time>2018-07-21T09:24:44.000Z</time>
      </trkpt>
      <trkpt lat="43.97947" lon="7.10327">
        <ele>1264</ele>
        <time>2018-07-21T09:24:47.000Z</time>
      </trkpt>
      <trkpt lat="43.97946" lon="7.10328">
        <ele>1264</ele>
        <time>2018-07-21T09:24:48.000Z</time>
      </trkpt>
      <trkpt lat="43.97943" lon="7.10332">
        <ele>1263</ele>
        <time>2018-07-21T09:24:50.000Z</time>
      </trkpt>
      <trkpt lat="43.97939" lon="7.1034">
        <ele>1258</ele>
        <time>2018-07-21T09:24:52.000Z</time>
      </trkpt>
      <trkpt lat="43.97926" lon="7.10361">
        <ele>1258</ele>
        <time>2018-07-21T09:24:57.000Z</time>
      </trkpt>
      <trkpt lat="43.97922" lon="7.10363">
        <ele>1258</ele>
        <time>2018-07-21T09:24:58.000Z</time>
      </trkpt>
      <trkpt lat="43.97919" lon="7.10366">
        <ele>1258</ele>
        <time>2018-07-21T09:24:59.000Z</time>
      </trkpt>
      <trkpt lat="43.97904" lon="7.10383">
        <ele>1242</ele>
        <time>2018-07-21T09:25:04.000Z</time>
      </trkpt>
      <trkpt lat="43.97899" lon="7.10391">
        <ele>1241</ele>
        <time>2018-07-21T09:25:06.000Z</time>
      </trkpt>
      <trkpt lat="43.97896" lon="7.10398">
        <ele>1241</ele>
        <time>2018-07-21T09:25:07.000Z</time>
      </trkpt>
      <trkpt lat="43.97889" lon="7.10409">
        <ele>1240</ele>
        <time>2018-07-21T09:25:09.000Z</time>
      </trkpt>
      <trkpt lat="43.97882" lon="7.10422">
        <ele>1239</ele>
        <time>2018-07-21T09:25:11.000Z</time>
      </trkpt>
      <trkpt lat="43.97878" lon="7.10434">
        <ele>1238</ele>
        <time>2018-07-21T09:25:13.000Z</time>
      </trkpt>
      <trkpt lat="43.97873" lon="7.10456">
        <ele>1238</ele>
        <time>2018-07-21T09:25:17.000Z</time>
      </trkpt>
      <trkpt lat="43.97861" lon="7.10489">
        <ele>1236</ele>
        <time>2018-07-21T09:25:22.000Z</time>
      </trkpt>
      <trkpt lat="43.97858" lon="7.10504">
        <ele>1244</ele>
        <time>2018-07-21T09:25:24.000Z</time>
      </trkpt>
      <trkpt lat="43.97853" lon="7.10519">
        <ele>1245</ele>
        <time>2018-07-21T09:25:26.000Z</time>
      </trkpt>
      <trkpt lat="43.97849" lon="7.10525">
        <ele>1245</ele>
        <time>2018-07-21T09:25:27.000Z</time>
      </trkpt>
      <trkpt lat="43.97837" lon="7.10542">
        <ele>1247</ele>
        <time>2018-07-21T09:25:30.000Z</time>
      </trkpt>
      <trkpt lat="43.97833" lon="7.10548">
        <ele>1226</ele>
        <time>2018-07-21T09:25:31.000Z</time>
      </trkpt>
      <trkpt lat="43.97816" lon="7.10569">
        <ele>1229</ele>
        <time>2018-07-21T09:25:35.000Z</time>
      </trkpt>
      <trkpt lat="43.9781" lon="7.10571">
        <ele>1227</ele>
        <time>2018-07-21T09:25:36.000Z</time>
      </trkpt>
      <trkpt lat="43.97799" lon="7.10572">
        <ele>1224</ele>
        <time>2018-07-21T09:25:38.000Z</time>
      </trkpt>
      <trkpt lat="43.97793" lon="7.10575">
        <ele>1222</ele>
        <time>2018-07-21T09:25:39.000Z</time>
      </trkpt>
      <trkpt lat="43.97787" lon="7.10578">
        <ele>1221</ele>
        <time>2018-07-21T09:25:40.000Z</time>
      </trkpt>
      <trkpt lat="43.97781" lon="7.10583">
        <ele>1220</ele>
        <time>2018-07-21T09:25:41.000Z</time>
      </trkpt>
      <trkpt lat="43.9777" lon="7.10585">
        <ele>1230</ele>
        <time>2018-07-21T09:25:43.000Z</time>
      </trkpt>
      <trkpt lat="43.97758" lon="7.10595">
        <ele>1227</ele>
        <time>2018-07-21T09:25:46.000Z</time>
      </trkpt>
      <trkpt lat="43.97748" lon="7.10614">
        <ele>1223</ele>
        <time>2018-07-21T09:25:49.000Z</time>
      </trkpt>
      <trkpt lat="43.97741" lon="7.10613">
        <ele>1223</ele>
        <time>2018-07-21T09:25:50.000Z</time>
      </trkpt>
      <trkpt lat="43.97736" lon="7.1061">
        <ele>1222</ele>
        <time>2018-07-21T09:25:51.000Z</time>
      </trkpt>
      <trkpt lat="43.97732" lon="7.10608">
        <ele>1221</ele>
        <time>2018-07-21T09:25:52.000Z</time>
      </trkpt>
      <trkpt lat="43.97723" lon="7.10608">
        <ele>1221</ele>
        <time>2018-07-21T09:25:54.000Z</time>
      </trkpt>
      <trkpt lat="43.9772" lon="7.10611">
        <ele>1222</ele>
        <time>2018-07-21T09:25:55.000Z</time>
      </trkpt>
      <trkpt lat="43.97715" lon="7.10624">
        <ele>1224</ele>
        <time>2018-07-21T09:25:58.000Z</time>
      </trkpt>
      <trkpt lat="43.9771" lon="7.10634">
        <ele>1226</ele>
        <time>2018-07-21T09:26:00.000Z</time>
      </trkpt>
      <trkpt lat="43.97705" lon="7.10636">
        <ele>1225</ele>
        <time>2018-07-21T09:26:01.000Z</time>
      </trkpt>
      <trkpt lat="43.97692" lon="7.10636">
        <ele>1225</ele>
        <time>2018-07-21T09:26:04.000Z</time>
      </trkpt>
      <trkpt lat="43.97688" lon="7.10637">
        <ele>1225</ele>
        <time>2018-07-21T09:26:05.000Z</time>
      </trkpt>
      <trkpt lat="43.97675" lon="7.10641">
        <ele>1225</ele>
        <time>2018-07-21T09:26:09.000Z</time>
      </trkpt>
      <trkpt lat="43.9767" lon="7.10643">
        <ele>1226</ele>
        <time>2018-07-21T09:26:11.000Z</time>
      </trkpt>
      <trkpt lat="43.97665" lon="7.10644">
        <ele>1216</ele>
        <time>2018-07-21T09:26:13.000Z</time>
      </trkpt>
      <trkpt lat="43.97658" lon="7.10646">
        <ele>1216</ele>
        <time>2018-07-21T09:26:16.000Z</time>
      </trkpt>
      <trkpt lat="43.97638" lon="7.10657">
        <ele>1213</ele>
        <time>2018-07-21T09:26:23.000Z</time>
      </trkpt>
      <trkpt lat="43.97631" lon="7.10661">
        <ele>1211</ele>
        <time>2018-07-21T09:26:25.000Z</time>
      </trkpt>
      <trkpt lat="43.97616" lon="7.10674">
        <ele>1231</ele>
        <time>2018-07-21T09:26:29.000Z</time>
      </trkpt>
      <trkpt lat="43.97613" lon="7.10678">
        <ele>1231</ele>
        <time>2018-07-21T09:26:30.000Z</time>
      </trkpt>
      <trkpt lat="43.97598" lon="7.10697">
        <ele>1233</ele>
        <time>2018-07-21T09:26:35.000Z</time>
      </trkpt>
      <trkpt lat="43.97588" lon="7.10715">
        <ele>1238</ele>
        <time>2018-07-21T09:26:39.000Z</time>
      </trkpt>
      <trkpt lat="43.9757" lon="7.10737">
        <ele>1231</ele>
        <time>2018-07-21T09:26:45.000Z</time>
      </trkpt>
      <trkpt lat="43.97566" lon="7.10738">
        <ele>1230</ele>
        <time>2018-07-21T09:26:46.000Z</time>
      </trkpt>
      <trkpt lat="43.97554" lon="7.10737">
        <ele>1226</ele>
        <time>2018-07-21T09:26:49.000Z</time>
      </trkpt>
      <trkpt lat="43.97544" lon="7.1074">
        <ele>1225</ele>
        <time>2018-07-21T09:26:52.000Z</time>
      </trkpt>
      <trkpt lat="43.97538" lon="7.10741">
        <ele>1224</ele>
        <time>2018-07-21T09:26:54.000Z</time>
      </trkpt>
      <trkpt lat="43.97532" lon="7.10739">
        <ele>1223</ele>
        <time>2018-07-21T09:26:56.000Z</time>
      </trkpt>
      <trkpt lat="43.97526" lon="7.10739">
        <ele>1223</ele>
        <time>2018-07-21T09:26:58.000Z</time>
      </trkpt>
      <trkpt lat="43.97512" lon="7.10742">
        <ele>1224</ele>
        <time>2018-07-21T09:27:03.000Z</time>
      </trkpt>
      <trkpt lat="43.97509" lon="7.10742">
        <ele>1224</ele>
        <time>2018-07-21T09:27:04.000Z</time>
      </trkpt>
      <trkpt lat="43.97499" lon="7.10747">
        <ele>1224</ele>
        <time>2018-07-21T09:27:09.000Z</time>
      </trkpt>
      <trkpt lat="43.97496" lon="7.10748">
        <ele>1223</ele>
        <time>2018-07-21T09:27:10.000Z</time>
      </trkpt>
      <trkpt lat="43.97488" lon="7.10753">
        <ele>1231</ele>
        <time>2018-07-21T09:27:14.000Z</time>
      </trkpt>
      <trkpt lat="43.97481" lon="7.10756">
        <ele>1233</ele>
        <time>2018-07-21T09:27:18.000Z</time>
      </trkpt>
      <trkpt lat="43.97479" lon="7.10757">
        <ele>1233</ele>
        <time>2018-07-21T09:27:19.000Z</time>
      </trkpt>
      <trkpt lat="43.97471" lon="7.10763">
        <ele>1234</ele>
        <time>2018-07-21T09:27:24.000Z</time>
      </trkpt>
      <trkpt lat="43.97466" lon="7.10766">
        <ele>1234</ele>
        <time>2018-07-21T09:27:26.000Z</time>
      </trkpt>
      <trkpt lat="43.97458" lon="7.1077">
        <ele>1234</ele>
        <time>2018-07-21T09:27:30.000Z</time>
      </trkpt>
      <trkpt lat="43.9745" lon="7.10775">
        <ele>1234</ele>
        <time>2018-07-21T09:27:34.000Z</time>
      </trkpt>
      <trkpt lat="43.97429" lon="7.10785">
        <ele>1233</ele>
        <time>2018-07-21T09:27:40.000Z</time>
      </trkpt>
      <trkpt lat="43.9742" lon="7.10791">
        <ele>1234</ele>
        <time>2018-07-21T09:27:43.000Z</time>
      </trkpt>
      <trkpt lat="43.97417" lon="7.10795">
        <ele>1235</ele>
        <time>2018-07-21T09:27:45.000Z</time>
      </trkpt>
      <trkpt lat="43.97407" lon="7.10803">
        <ele>1225</ele>
        <time>2018-07-21T09:27:50.000Z</time>
      </trkpt>
      <trkpt lat="43.974" lon="7.10809">
        <ele>1226</ele>
        <time>2018-07-21T09:27:53.000Z</time>
      </trkpt>
      <trkpt lat="43.9739" lon="7.1082">
        <ele>1226</ele>
        <time>2018-07-21T09:27:57.000Z</time>
      </trkpt>
      <trkpt lat="43.97389" lon="7.10825">
        <ele>1226</ele>
        <time>2018-07-21T09:27:58.000Z</time>
      </trkpt>
      <trkpt lat="43.9739" lon="7.10832">
        <ele>1227</ele>
        <time>2018-07-21T09:27:59.000Z</time>
      </trkpt>
      <trkpt lat="43.97392" lon="7.10839">
        <ele>1234</ele>
        <time>2018-07-21T09:28:00.000Z</time>
      </trkpt>
      <trkpt lat="43.97396" lon="7.10853">
        <ele>1234</ele>
        <time>2018-07-21T09:28:02.000Z</time>
      </trkpt>
      <trkpt lat="43.97397" lon="7.1086">
        <ele>1234</ele>
        <time>2018-07-21T09:28:03.000Z</time>
      </trkpt>
      <trkpt lat="43.97398" lon="7.10868">
        <ele>1234</ele>
        <time>2018-07-21T09:28:04.000Z</time>
      </trkpt>
      <trkpt lat="43.97397" lon="7.10885">
        <ele>1234</ele>
        <time>2018-07-21T09:28:06.000Z</time>
      </trkpt>
      <trkpt lat="43.97397" lon="7.10894">
        <ele>1235</ele>
        <time>2018-07-21T09:28:07.000Z</time>
      </trkpt>
      <trkpt lat="43.97398" lon="7.10902">
        <ele>1236</ele>
        <time>2018-07-21T09:28:08.000Z</time>
      </trkpt>
      <trkpt lat="43.97403" lon="7.10925">
        <ele>1237</ele>
        <time>2018-07-21T09:28:11.000Z</time>
      </trkpt>
      <trkpt lat="43.97403" lon="7.10933">
        <ele>1235</ele>
        <time>2018-07-21T09:28:12.000Z</time>
      </trkpt>
      <trkpt lat="43.97394" lon="7.10941">
        <ele>1233</ele>
        <time>2018-07-21T09:28:14.000Z</time>
      </trkpt>
      <trkpt lat="43.97382" lon="7.10953">
        <ele>1230</ele>
        <time>2018-07-21T09:28:17.000Z</time>
      </trkpt>
      <trkpt lat="43.97379" lon="7.10958">
        <ele>1230</ele>
        <time>2018-07-21T09:28:18.000Z</time>
      </trkpt>
      <trkpt lat="43.97375" lon="7.10964">
        <ele>1229</ele>
        <time>2018-07-21T09:28:19.000Z</time>
      </trkpt>
      <trkpt lat="43.97374" lon="7.10973">
        <ele>1229</ele>
        <time>2018-07-21T09:28:21.000Z</time>
      </trkpt>
      <trkpt lat="43.97376" lon="7.10979">
        <ele>1229</ele>
        <time>2018-07-21T09:28:22.000Z</time>
      </trkpt>
      <trkpt lat="43.97381" lon="7.10999">
        <ele>1230</ele>
        <time>2018-07-21T09:28:25.000Z</time>
      </trkpt>
      <trkpt lat="43.97384" lon="7.11015">
        <ele>1226</ele>
        <time>2018-07-21T09:28:27.000Z</time>
      </trkpt>
      <trkpt lat="43.97384" lon="7.11023">
        <ele>1225</ele>
        <time>2018-07-21T09:28:28.000Z</time>
      </trkpt>
      <trkpt lat="43.97382" lon="7.11036">
        <ele>1224</ele>
        <time>2018-07-21T09:28:31.000Z</time>
      </trkpt>
      <trkpt lat="43.9738" lon="7.1104">
        <ele>1223</ele>
        <time>2018-07-21T09:28:35.000Z</time>
      </trkpt>
      <trkpt lat="43.9738" lon="7.11041">
        <ele>1223</ele>
        <time>2018-07-21T09:28:44.000Z</time>
      </trkpt>
      <trkpt lat="43.9738" lon="7.11041">
        <ele>1223</ele>
        <time>2018-07-21T09:28:57.000Z</time>
      </trkpt>
      <trkpt lat="43.97374" lon="7.11047">
        <ele>1222</ele>
        <time>2018-07-21T09:29:04.000Z</time>
      </trkpt>
      <trkpt lat="43.9737" lon="7.11049">
        <ele>1221</ele>
        <time>2018-07-21T09:29:07.000Z</time>
      </trkpt>
      <trkpt lat="43.97369" lon="7.1105">
        <ele>1221</ele>
        <time>2018-07-21T09:29:09.000Z</time>
      </trkpt>
      <trkpt lat="43.97368" lon="7.1105">
        <ele>1221</ele>
        <time>2018-07-21T09:29:10.000Z</time>
      </trkpt>
      <trkpt lat="43.97362" lon="7.11059">
        <ele>1219</ele>
        <time>2018-07-21T09:29:13.000Z</time>
      </trkpt>
      <trkpt lat="43.97361" lon="7.11061">
        <ele>1219</ele>
        <time>2018-07-21T09:29:14.000Z</time>
      </trkpt>
      <trkpt lat="43.97358" lon="7.11069">
        <ele>1218</ele>
        <time>2018-07-21T09:29:16.000Z</time>
      </trkpt>
      <trkpt lat="43.97356" lon="7.11075">
        <ele>1217</ele>
        <time>2018-07-21T09:29:17.000Z</time>
      </trkpt>
      <trkpt lat="43.97354" lon="7.11083">
        <ele>1209</ele>
        <time>2018-07-21T09:29:19.000Z</time>
      </trkpt>
      <trkpt lat="43.97355" lon="7.11096">
        <ele>1209</ele>
        <time>2018-07-21T09:29:21.000Z</time>
      </trkpt>
      <trkpt lat="43.97352" lon="7.11109">
        <ele>1208</ele>
        <time>2018-07-21T09:29:23.000Z</time>
      </trkpt>
      <trkpt lat="43.97347" lon="7.11123">
        <ele>1207</ele>
        <time>2018-07-21T09:29:25.000Z</time>
      </trkpt>
      <trkpt lat="43.97343" lon="7.11129">
        <ele>1206</ele>
        <time>2018-07-21T09:29:26.000Z</time>
      </trkpt>
      <trkpt lat="43.97336" lon="7.11139">
        <ele>1204</ele>
        <time>2018-07-21T09:29:28.000Z</time>
      </trkpt>
      <trkpt lat="43.97326" lon="7.11149">
        <ele>1200</ele>
        <time>2018-07-21T09:29:30.000Z</time>
      </trkpt>
      <trkpt lat="43.97321" lon="7.11154">
        <ele>1200</ele>
        <time>2018-07-21T09:29:31.000Z</time>
      </trkpt>
      <trkpt lat="43.97305" lon="7.11164">
        <ele>1201</ele>
        <time>2018-07-21T09:29:34.000Z</time>
      </trkpt>
      <trkpt lat="43.973" lon="7.11167">
        <ele>1193</ele>
        <time>2018-07-21T09:29:35.000Z</time>
      </trkpt>
      <trkpt lat="43.97289" lon="7.11171">
        <ele>1193</ele>
        <time>2018-07-21T09:29:37.000Z</time>
      </trkpt>
      <trkpt lat="43.97285" lon="7.11174">
        <ele>1193</ele>
        <time>2018-07-21T09:29:38.000Z</time>
      </trkpt>
      <trkpt lat="43.97273" lon="7.11178">
        <ele>1194</ele>
        <time>2018-07-21T09:29:40.000Z</time>
      </trkpt>
      <trkpt lat="43.97246" lon="7.11184">
        <ele>1197</ele>
        <time>2018-07-21T09:29:45.000Z</time>
      </trkpt>
      <trkpt lat="43.97235" lon="7.11187">
        <ele>1196</ele>
        <time>2018-07-21T09:29:47.000Z</time>
      </trkpt>
      <trkpt lat="43.9723" lon="7.11188">
        <ele>1196</ele>
        <time>2018-07-21T09:29:48.000Z</time>
      </trkpt>
      <trkpt lat="43.97216" lon="7.11183">
        <ele>1196</ele>
        <time>2018-07-21T09:29:51.000Z</time>
      </trkpt>
      <trkpt lat="43.97205" lon="7.11183">
        <ele>1196</ele>
        <time>2018-07-21T09:29:54.000Z</time>
      </trkpt>
      <trkpt lat="43.97198" lon="7.11183">
        <ele>1197</ele>
        <time>2018-07-21T09:29:56.000Z</time>
      </trkpt>
      <trkpt lat="43.97184" lon="7.1118">
        <ele>1198</ele>
        <time>2018-07-21T09:30:01.000Z</time>
      </trkpt>
      <trkpt lat="43.97167" lon="7.11177">
        <ele>1199</ele>
        <time>2018-07-21T09:30:08.000Z</time>
      </trkpt>
      <trkpt lat="43.97162" lon="7.11177">
        <ele>1200</ele>
        <time>2018-07-21T09:30:10.000Z</time>
      </trkpt>
      <trkpt lat="43.97154" lon="7.11173">
        <ele>1200</ele>
        <time>2018-07-21T09:30:14.000Z</time>
      </trkpt>
      <trkpt lat="43.97138" lon="7.11167">
        <ele>1199</ele>
        <time>2018-07-21T09:30:21.000Z</time>
      </trkpt>
      <trkpt lat="43.97136" lon="7.11165">
        <ele>1200</ele>
        <time>2018-07-21T09:30:22.000Z</time>
      </trkpt>
      <trkpt lat="43.97135" lon="7.11159">
        <ele>1200</ele>
        <time>2018-07-21T09:30:24.000Z</time>
      </trkpt>
      <trkpt lat="43.97136" lon="7.1116">
        <ele>1200</ele>
        <time>2018-07-21T09:30:25.000Z</time>
      </trkpt>
      <trkpt lat="43.97135" lon="7.1116">
        <ele>1200</ele>
        <time>2018-07-21T09:30:27.000Z</time>
      </trkpt>
      <trkpt lat="43.97135" lon="7.11159">
        <ele>1200</ele>
        <time>2018-07-21T09:30:34.000Z</time>
      </trkpt>
      <trkpt lat="43.97135" lon="7.11159">
        <ele>1200</ele>
        <time>2018-07-21T09:30:50.000Z</time>
      </trkpt>
      <trkpt lat="43.97137" lon="7.11161">
        <ele>1200</ele>
        <time>2018-07-21T09:30:59.000Z</time>
      </trkpt>
      <trkpt lat="43.97137" lon="7.1116">
        <ele>1200</ele>
        <time>2018-07-21T09:31:00.000Z</time>
      </trkpt>
      <trkpt lat="43.97139" lon="7.11162">
        <ele>1200</ele>
        <time>2018-07-21T09:31:05.000Z</time>
      </trkpt>
      <trkpt lat="43.97139" lon="7.11161">
        <ele>1200</ele>
        <time>2018-07-21T09:31:26.000Z</time>
      </trkpt>
      <trkpt lat="43.97139" lon="7.11161">
        <ele>1200</ele>
        <time>2018-07-21T09:31:38.000Z</time>
      </trkpt>
      <trkpt lat="43.97138" lon="7.11161">
        <ele>1200</ele>
        <time>2018-07-21T09:31:52.000Z</time>
      </trkpt>
      <trkpt lat="43.97138" lon="7.11161">
        <ele>1200</ele>
        <time>2018-07-21T09:32:01.000Z</time>
      </trkpt>
      <trkpt lat="43.97138" lon="7.11161">
        <ele>1200</ele>
        <time>2018-07-21T09:32:06.000Z</time>
      </trkpt>
      <trkpt lat="43.97138" lon="7.11161">
        <ele>1200</ele>
        <time>2018-07-21T09:32:07.000Z</time>
      </trkpt>
      <trkpt lat="43.97137" lon="7.11162">
        <ele>1200</ele>
        <time>2018-07-21T09:32:20.000Z</time>
      </trkpt>
      <trkpt lat="43.97138" lon="7.11161">
        <ele>1200</ele>
        <time>2018-07-21T09:32:28.000Z</time>
      </trkpt>
      <trkpt lat="43.97138" lon="7.11162">
        <ele>1200</ele>
        <time>2018-07-21T09:32:38.000Z</time>
      </trkpt>
      <trkpt lat="43.97138" lon="7.11161">
        <ele>1200</ele>
        <time>2018-07-21T09:32:44.000Z</time>
      </trkpt>
      <trkpt lat="43.97138" lon="7.11162">
        <ele>1200</ele>
        <time>2018-07-21T09:32:51.000Z</time>
      </trkpt>
      <trkpt lat="43.97137" lon="7.11161">
        <ele>1200</ele>
        <time>2018-07-21T09:32:58.000Z</time>
      </trkpt>
      <trkpt lat="43.97137" lon="7.11161">
        <ele>1200</ele>
        <time>2018-07-21T09:33:04.000Z</time>
      </trkpt>
      <trkpt lat="43.97137" lon="7.11161">
        <ele>1200</ele>
        <time>2018-07-21T09:33:12.000Z</time>
      </trkpt>
      <trkpt lat="43.97135" lon="7.1116">
        <ele>1200</ele>
        <time>2018-07-21T09:33:18.000Z</time>
      </trkpt>
      <trkpt lat="43.97134" lon="7.11157">
        <ele>1200</ele>
        <time>2018-07-21T09:33:20.000Z</time>
      </trkpt>
      <trkpt lat="43.97135" lon="7.11156">
        <ele>1200</ele>
        <time>2018-07-21T09:33:22.000Z</time>
      </trkpt>
      <trkpt lat="43.97135" lon="7.11157">
        <ele>1200</ele>
        <time>2018-07-21T09:33:25.000Z</time>
      </trkpt>
      <trkpt lat="43.97135" lon="7.11157">
        <ele>1200</ele>
        <time>2018-07-21T09:33:28.000Z</time>
      </trkpt>
      <trkpt lat="43.97135" lon="7.11161">
        <ele>1200</ele>
        <time>2018-07-21T09:33:32.000Z</time>
      </trkpt>
      <trkpt lat="43.97137" lon="7.11162">
        <ele>1200</ele>
        <time>2018-07-21T09:33:34.000Z</time>
      </trkpt>
      <trkpt lat="43.97138" lon="7.11162">
        <ele>1200</ele>
        <time>2018-07-21T09:33:41.000Z</time>
      </trkpt>
      <trkpt lat="43.97138" lon="7.11163">
        <ele>1200</ele>
        <time>2018-07-21T09:33:52.000Z</time>
      </trkpt>
      <trkpt lat="43.97138" lon="7.11163">
        <ele>1200</ele>
        <time>2018-07-21T09:34:03.000Z</time>
      </trkpt>
      <trkpt lat="43.97138" lon="7.11164">
        <ele>1200</ele>
        <time>2018-07-21T09:34:12.000Z</time>
      </trkpt>
      <trkpt lat="43.97138" lon="7.11163">
        <ele>1200</ele>
        <time>2018-07-21T09:34:19.000Z</time>
      </trkpt>
      <trkpt lat="43.97138" lon="7.11164">
        <ele>1200</ele>
        <time>2018-07-21T09:34:25.000Z</time>
      </trkpt>
      <trkpt lat="43.97138" lon="7.11164">
        <ele>1200</ele>
        <time>2018-07-21T09:34:31.000Z</time>
      </trkpt>
      <trkpt lat="43.97138" lon="7.11163">
        <ele>1200</ele>
        <time>2018-07-21T09:34:45.000Z</time>
      </trkpt>
      <trkpt lat="43.97138" lon="7.11163">
        <ele>1200</ele>
        <time>2018-07-21T09:35:07.000Z</time>
      </trkpt>
      <trkpt lat="43.97138" lon="7.11164">
        <ele>1200</ele>
        <time>2018-07-21T09:35:34.000Z</time>
      </trkpt>
      <trkpt lat="43.97139" lon="7.11164">
        <ele>1200</ele>
        <time>2018-07-21T09:35:46.000Z</time>
      </trkpt>
      <trkpt lat="43.97139" lon="7.11164">
        <ele>1200</ele>
        <time>2018-07-21T09:35:56.000Z</time>
      </trkpt>
      <trkpt lat="43.97139" lon="7.11164">
        <ele>1200</ele>
        <time>2018-07-21T09:36:09.000Z</time>
      </trkpt>
      <trkpt lat="43.97139" lon="7.11165">
        <ele>1200</ele>
        <time>2018-07-21T09:36:21.000Z</time>
      </trkpt>
      <trkpt lat="43.97139" lon="7.11165">
        <ele>1200</ele>
        <time>2018-07-21T09:36:41.000Z</time>
      </trkpt>
      <trkpt lat="43.97139" lon="7.11166">
        <ele>1200</ele>
        <time>2018-07-21T09:36:54.000Z</time>
      </trkpt>
      <trkpt lat="43.97138" lon="7.11166">
        <ele>1200</ele>
        <time>2018-07-21T09:36:58.000Z</time>
      </trkpt>
      <trkpt lat="43.97138" lon="7.11165">
        <ele>1200</ele>
        <time>2018-07-21T09:37:05.000Z</time>
      </trkpt>
      <trkpt lat="43.97138" lon="7.11165">
        <ele>1200</ele>
        <time>2018-07-21T09:37:22.000Z</time>
      </trkpt>
      <trkpt lat="43.97138" lon="7.11165">
        <ele>1200</ele>
        <time>2018-07-21T09:37:35.000Z</time>
      </trkpt>
      <trkpt lat="43.97137" lon="7.11163">
        <ele>1200</ele>
        <time>2018-07-21T09:37:57.000Z</time>
      </trkpt>
      <trkpt lat="43.97137" lon="7.11164">
        <ele>1200</ele>
        <time>2018-07-21T09:38:08.000Z</time>
      </trkpt>
      <trkpt lat="43.97136" lon="7.11164">
        <ele>1200</ele>
        <time>2018-07-21T09:38:32.000Z</time>
      </trkpt>
      <trkpt lat="43.97136" lon="7.11162">
        <ele>1200</ele>
        <time>2018-07-21T09:38:50.000Z</time>
      </trkpt>
      <trkpt lat="43.97135" lon="7.11161">
        <ele>1200</ele>
        <time>2018-07-21T09:38:57.000Z</time>
      </trkpt>
      <trkpt lat="43.97136" lon="7.11161">
        <ele>1200</ele>
        <time>2018-07-21T09:39:11.000Z</time>
      </trkpt>
      <trkpt lat="43.97136" lon="7.11162">
        <ele>1200</ele>
        <time>2018-07-21T09:39:23.000Z</time>
      </trkpt>
      <trkpt lat="43.97137" lon="7.11162">
        <ele>1200</ele>
        <time>2018-07-21T09:39:30.000Z</time>
      </trkpt>
      <trkpt lat="43.97137" lon="7.11162">
        <ele>1200</ele>
        <time>2018-07-21T09:39:37.000Z</time>
      </trkpt>
      <trkpt lat="43.97137" lon="7.11163">
        <ele>1200</ele>
        <time>2018-07-21T09:39:46.000Z</time>
      </trkpt>
      <trkpt lat="43.97138" lon="7.11163">
        <ele>1200</ele>
        <time>2018-07-21T09:40:10.000Z</time>
      </trkpt>
      <trkpt lat="43.97138" lon="7.11163">
        <ele>1200</ele>
        <time>2018-07-21T09:40:26.000Z</time>
      </trkpt>
      <trkpt lat="43.97138" lon="7.11163">
        <ele>1200</ele>
        <time>2018-07-21T09:40:37.000Z</time>
      </trkpt>
      <trkpt lat="43.97138" lon="7.11163">
        <ele>1200</ele>
        <time>2018-07-21T09:40:52.000Z</time>
      </trkpt>
      <trkpt lat="43.97138" lon="7.11162">
        <ele>1200</ele>
        <time>2018-07-21T09:41:03.000Z</time>
      </trkpt>
      <trkpt lat="43.97138" lon="7.11163">
        <ele>1200</ele>
        <time>2018-07-21T09:41:14.000Z</time>
      </trkpt>
      <trkpt lat="43.97138" lon="7.11162">
        <ele>1200</ele>
        <time>2018-07-21T09:41:32.000Z</time>
      </trkpt>
      <trkpt lat="43.97138" lon="7.11163">
        <ele>1200</ele>
        <time>2018-07-21T09:41:43.000Z</time>
      </trkpt>
      <trkpt lat="43.97138" lon="7.11163">
        <ele>1200</ele>
        <time>2018-07-21T09:41:59.000Z</time>
      </trkpt>
      <trkpt lat="43.97138" lon="7.11163">
        <ele>1200</ele>
        <time>2018-07-21T09:42:15.000Z</time>
      </trkpt>
      <trkpt lat="43.97138" lon="7.11163">
        <ele>1200</ele>
        <time>2018-07-21T09:42:32.000Z</time>
      </trkpt>
      <trkpt lat="43.97137" lon="7.11162">
        <ele>1200</ele>
        <time>2018-07-21T09:42:56.000Z</time>
      </trkpt>
      <trkpt lat="43.97137" lon="7.11162">
        <ele>1200</ele>
        <time>2018-07-21T09:43:17.000Z</time>
      </trkpt>
      <trkpt lat="43.97137" lon="7.11162">
        <ele>1200</ele>
        <time>2018-07-21T09:43:27.000Z</time>
      </trkpt>
      <trkpt lat="43.97136" lon="7.11162">
        <ele>1200</ele>
        <time>2018-07-21T09:43:52.000Z</time>
      </trkpt>
      <trkpt lat="43.97135" lon="7.11161">
        <ele>1200</ele>
        <time>2018-07-21T09:44:01.000Z</time>
      </trkpt>
      <trkpt lat="43.97136" lon="7.11162">
        <ele>1200</ele>
        <time>2018-07-21T09:44:22.000Z</time>
      </trkpt>
      <trkpt lat="43.97137" lon="7.11163">
        <ele>1200</ele>
        <time>2018-07-21T09:44:38.000Z</time>
      </trkpt>
      <trkpt lat="43.97137" lon="7.11163">
        <ele>1200</ele>
        <time>2018-07-21T09:45:03.000Z</time>
      </trkpt>
      <trkpt lat="43.97137" lon="7.11163">
        <ele>1200</ele>
        <time>2018-07-21T09:45:05.000Z</time>
      </trkpt>
      <trkpt lat="43.97137" lon="7.11162">
        <ele>1200</ele>
        <time>2018-07-21T09:45:21.000Z</time>
      </trkpt>
      <trkpt lat="43.97136" lon="7.11162">
        <ele>1200</ele>
        <time>2018-07-21T09:45:37.000Z</time>
      </trkpt>
      <trkpt lat="43.97136" lon="7.11162">
        <ele>1200</ele>
        <time>2018-07-21T09:46:08.000Z</time>
      </trkpt>
      <trkpt lat="43.97135" lon="7.11162">
        <ele>1200</ele>
        <time>2018-07-21T09:46:34.000Z</time>
      </trkpt>
      <trkpt lat="43.97135" lon="7.11163">
        <ele>1200</ele>
        <time>2018-07-21T09:46:54.000Z</time>
      </trkpt>
      <trkpt lat="43.97135" lon="7.11164">
        <ele>1200</ele>
        <time>2018-07-21T09:47:14.000Z</time>
      </trkpt>
      <trkpt lat="43.97136" lon="7.11164">
        <ele>1200</ele>
        <time>2018-07-21T09:47:26.000Z</time>
      </trkpt>
      <trkpt lat="43.97136" lon="7.11164">
        <ele>1200</ele>
        <time>2018-07-21T09:47:36.000Z</time>
      </trkpt>
      <trkpt lat="43.97136" lon="7.11164">
        <ele>1200</ele>
        <time>2018-07-21T09:47:47.000Z</time>
      </trkpt>
      <trkpt lat="43.97136" lon="7.11164">
        <ele>1200</ele>
        <time>2018-07-21T09:47:57.000Z</time>
      </trkpt>
      <trkpt lat="43.97136" lon="7.11163">
        <ele>1200</ele>
        <time>2018-07-21T09:48:05.000Z</time>
      </trkpt>
      <trkpt lat="43.97136" lon="7.11163">
        <ele>1200</ele>
        <time>2018-07-21T09:48:18.000Z</time>
      </trkpt>
      <trkpt lat="43.97136" lon="7.11163">
        <ele>1200</ele>
        <time>2018-07-21T09:48:34.000Z</time>
      </trkpt>
      <trkpt lat="43.97136" lon="7.11163">
        <ele>1200</ele>
        <time>2018-07-21T09:48:43.000Z</time>
      </trkpt>
      <trkpt lat="43.97136" lon="7.11164">
        <ele>1200</ele>
        <time>2018-07-21T09:48:59.000Z</time>
      </trkpt>
      <trkpt lat="43.97136" lon="7.11164">
        <ele>1200</ele>
        <time>2018-07-21T09:49:12.000Z</time>
      </trkpt>
      <trkpt lat="43.97136" lon="7.11163">
        <ele>1200</ele>
        <time>2018-07-21T09:49:29.000Z</time>
      </trkpt>
      <trkpt lat="43.97136" lon="7.11163">
        <ele>1200</ele>
        <time>2018-07-21T09:49:43.000Z</time>
      </trkpt>
      <trkpt lat="43.97136" lon="7.11163">
        <ele>1200</ele>
        <time>2018-07-21T09:49:55.000Z</time>
      </trkpt>
      <trkpt lat="43.97136" lon="7.11163">
        <ele>1200</ele>
        <time>2018-07-21T09:50:03.000Z</time>
      </trkpt>
      <trkpt lat="43.97136" lon="7.11163">
        <ele>1200</ele>
        <time>2018-07-21T09:50:15.000Z</time>
      </trkpt>
      <trkpt lat="43.97136" lon="7.11163">
        <ele>1200</ele>
        <time>2018-07-21T09:50:27.000Z</time>
      </trkpt>
      <trkpt lat="43.97136" lon="7.11163">
        <ele>1200</ele>
        <time>2018-07-21T09:50:40.000Z</time>
      </trkpt>
      <trkpt lat="43.97137" lon="7.11163">
        <ele>1200</ele>
        <time>2018-07-21T09:50:55.000Z</time>
      </trkpt>
      <trkpt lat="43.97137" lon="7.11163">
        <ele>1200</ele>
        <time>2018-07-21T09:51:10.000Z</time>
      </trkpt>
      <trkpt lat="43.97137" lon="7.11164">
        <ele>1200</ele>
        <time>2018-07-21T09:51:21.000Z</time>
      </trkpt>
      <trkpt lat="43.97137" lon="7.11163">
        <ele>1200</ele>
        <time>2018-07-21T09:51:29.000Z</time>
      </trkpt>
      <trkpt lat="43.97137" lon="7.11163">
        <ele>1200</ele>
        <time>2018-07-21T09:51:31.000Z</time>
      </trkpt>
      <trkpt lat="43.97136" lon="7.11163">
        <ele>1200</ele>
        <time>2018-07-21T09:51:41.000Z</time>
      </trkpt>
      <trkpt lat="43.97136" lon="7.11163">
        <ele>1200</ele>
        <time>2018-07-21T09:51:43.000Z</time>
      </trkpt>
      <trkpt lat="43.97137" lon="7.11164">
        <ele>1200</ele>
        <time>2018-07-21T09:51:54.000Z</time>
      </trkpt>
      <trkpt lat="43.97137" lon="7.11165">
        <ele>1200</ele>
        <time>2018-07-21T09:52:11.000Z</time>
      </trkpt>
      <trkpt lat="43.97137" lon="7.11165">
        <ele>1200</ele>
        <time>2018-07-21T09:52:46.000Z</time>
      </trkpt>
      <trkpt lat="43.97137" lon="7.11165">
        <ele>1200</ele>
        <time>2018-07-21T09:53:17.000Z</time>
      </trkpt>
      <trkpt lat="43.97137" lon="7.11164">
        <ele>1200</ele>
        <time>2018-07-21T09:53:27.000Z</time>
      </trkpt>
      <trkpt lat="43.97137" lon="7.11164">
        <ele>1200</ele>
        <time>2018-07-21T09:53:32.000Z</time>
      </trkpt>
      <trkpt lat="43.97135" lon="7.11161">
        <ele>1200</ele>
        <time>2018-07-21T09:53:38.000Z</time>
      </trkpt>
      <trkpt lat="43.97135" lon="7.11161">
        <ele>1200</ele>
        <time>2018-07-21T09:53:43.000Z</time>
      </trkpt>
      <trkpt lat="43.97137" lon="7.11164">
        <ele>1200</ele>
        <time>2018-07-21T09:53:48.000Z</time>
      </trkpt>
      <trkpt lat="43.97137" lon="7.11164">
        <ele>1200</ele>
        <time>2018-07-21T09:53:49.000Z</time>
      </trkpt>
      <trkpt lat="43.97137" lon="7.11164">
        <ele>1200</ele>
        <time>2018-07-21T09:53:56.000Z</time>
      </trkpt>
      <trkpt lat="43.97137" lon="7.11163">
        <ele>1200</ele>
        <time>2018-07-21T09:54:02.000Z</time>
      </trkpt>
      <trkpt lat="43.97137" lon="7.11163">
        <ele>1200</ele>
        <time>2018-07-21T09:54:04.000Z</time>
      </trkpt>
      <trkpt lat="43.97134" lon="7.11162">
        <ele>1200</ele>
        <time>2018-07-21T09:54:09.000Z</time>
      </trkpt>
      <trkpt lat="43.97134" lon="7.11161">
        <ele>1200</ele>
        <time>2018-07-21T09:54:15.000Z</time>
      </trkpt>
      <trkpt lat="43.97134" lon="7.11161">
        <ele>1200</ele>
        <time>2018-07-21T09:54:16.000Z</time>
      </trkpt>
      <trkpt lat="43.97135" lon="7.11162">
        <ele>1200</ele>
        <time>2018-07-21T09:54:24.000Z</time>
      </trkpt>
      <trkpt lat="43.97137" lon="7.11161">
        <ele>1200</ele>
        <time>2018-07-21T09:54:30.000Z</time>
      </trkpt>
      <trkpt lat="43.97137" lon="7.11161">
        <ele>1200</ele>
        <time>2018-07-21T09:54:38.000Z</time>
      </trkpt>
      <trkpt lat="43.97138" lon="7.11162">
        <ele>1200</ele>
        <time>2018-07-21T09:54:51.000Z</time>
      </trkpt>
      <trkpt lat="43.97137" lon="7.11165">
        <ele>1200</ele>
        <time>2018-07-21T09:54:59.000Z</time>
      </trkpt>
      <trkpt lat="43.97136" lon="7.11164">
        <ele>1200</ele>
        <time>2018-07-21T09:55:05.000Z</time>
      </trkpt>
      <trkpt lat="43.97136" lon="7.11164">
        <ele>1200</ele>
        <time>2018-07-21T09:55:11.000Z</time>
      </trkpt>
      <trkpt lat="43.97136" lon="7.11164">
        <ele>1200</ele>
        <time>2018-07-21T09:55:12.000Z</time>
      </trkpt>
      <trkpt lat="43.97136" lon="7.11163">
        <ele>1200</ele>
        <time>2018-07-21T09:55:20.000Z</time>
      </trkpt>
      <trkpt lat="43.97137" lon="7.11163">
        <ele>1200</ele>
        <time>2018-07-21T09:55:28.000Z</time>
      </trkpt>
      <trkpt lat="43.97136" lon="7.11163">
        <ele>1200</ele>
        <time>2018-07-21T09:55:43.000Z</time>
      </trkpt>
      <trkpt lat="43.97136" lon="7.11163">
        <ele>1200</ele>
        <time>2018-07-21T09:55:50.000Z</time>
      </trkpt>
      <trkpt lat="43.97136" lon="7.11161">
        <ele>1200</ele>
        <time>2018-07-21T09:55:58.000Z</time>
      </trkpt>
      <trkpt lat="43.97137" lon="7.11159">
        <ele>1200</ele>
        <time>2018-07-21T09:56:05.000Z</time>
      </trkpt>
      <trkpt lat="43.97137" lon="7.1116">
        <ele>1200</ele>
        <time>2018-07-21T09:56:20.000Z</time>
      </trkpt>
      <trkpt lat="43.97137" lon="7.11158">
        <ele>1200</ele>
        <time>2018-07-21T09:56:29.000Z</time>
      </trkpt>
      <trkpt lat="43.97137" lon="7.11157">
        <ele>1200</ele>
        <time>2018-07-21T09:56:35.000Z</time>
      </trkpt>
      <trkpt lat="43.97138" lon="7.11158">
        <ele>1200</ele>
        <time>2018-07-21T09:56:48.000Z</time>
      </trkpt>
      <trkpt lat="43.97138" lon="7.11157">
        <ele>1200</ele>
        <time>2018-07-21T09:57:02.000Z</time>
      </trkpt>
      <trkpt lat="43.97139" lon="7.11158">
        <ele>1200</ele>
        <time>2018-07-21T09:57:14.000Z</time>
      </trkpt>
      <trkpt lat="43.97139" lon="7.11157">
        <ele>1200</ele>
        <time>2018-07-21T09:57:21.000Z</time>
      </trkpt>
      <trkpt lat="43.97137" lon="7.11158">
        <ele>1200</ele>
        <time>2018-07-21T09:57:38.000Z</time>
      </trkpt>
      <trkpt lat="43.97136" lon="7.11158">
        <ele>1200</ele>
        <time>2018-07-21T09:57:44.000Z</time>
      </trkpt>
      <trkpt lat="43.97136" lon="7.11159">
        <ele>1200</ele>
        <time>2018-07-21T09:57:55.000Z</time>
      </trkpt>
      <trkpt lat="43.97137" lon="7.1116">
        <ele>1200</ele>
        <time>2018-07-21T09:58:01.000Z</time>
      </trkpt>
      <trkpt lat="43.97138" lon="7.11159">
        <ele>1200</ele>
        <time>2018-07-21T09:58:09.000Z</time>
      </trkpt>
      <trkpt lat="43.97138" lon="7.11159">
        <ele>1200</ele>
        <time>2018-07-21T09:58:28.000Z</time>
      </trkpt>
      <trkpt lat="43.97139" lon="7.11158">
        <ele>1200</ele>
        <time>2018-07-21T09:58:42.000Z</time>
      </trkpt>
      <trkpt lat="43.97139" lon="7.11159">
        <ele>1200</ele>
        <time>2018-07-21T09:58:52.000Z</time>
      </trkpt>
      <trkpt lat="43.97139" lon="7.1116">
        <ele>1200</ele>
        <time>2018-07-21T09:59:03.000Z</time>
      </trkpt>
      <trkpt lat="43.9714" lon="7.1116">
        <ele>1200</ele>
        <time>2018-07-21T09:59:15.000Z</time>
      </trkpt>
      <trkpt lat="43.9714" lon="7.11161">
        <ele>1200</ele>
        <time>2018-07-21T09:59:28.000Z</time>
      </trkpt>
      <trkpt lat="43.97139" lon="7.11161">
        <ele>1200</ele>
        <time>2018-07-21T09:59:39.000Z</time>
      </trkpt>
      <trkpt lat="43.97139" lon="7.11161">
        <ele>1200</ele>
        <time>2018-07-21T09:59:53.000Z</time>
      </trkpt>
      <trkpt lat="43.9714" lon="7.11162">
        <ele>1200</ele>
        <time>2018-07-21T10:00:08.000Z</time>
      </trkpt>
      <trkpt lat="43.9714" lon="7.11164">
        <ele>1200</ele>
        <time>2018-07-21T10:00:14.000Z</time>
      </trkpt>
      <trkpt lat="43.9714" lon="7.11164">
        <ele>1200</ele>
        <time>2018-07-21T10:00:22.000Z</time>
      </trkpt>
      <trkpt lat="43.9714" lon="7.11163">
        <ele>1200</ele>
        <time>2018-07-21T10:00:44.000Z</time>
      </trkpt>
      <trkpt lat="43.9714" lon="7.11163">
        <ele>1200</ele>
        <time>2018-07-21T10:01:06.000Z</time>
      </trkpt>
      <trkpt lat="43.9714" lon="7.11163">
        <ele>1200</ele>
        <time>2018-07-21T10:01:26.000Z</time>
      </trkpt>
      <trkpt lat="43.97139" lon="7.11163">
        <ele>1200</ele>
        <time>2018-07-21T10:01:55.000Z</time>
      </trkpt>
      <trkpt lat="43.97137" lon="7.11161">
        <ele>1200</ele>
        <time>2018-07-21T10:02:06.000Z</time>
      </trkpt>
      <trkpt lat="43.97138" lon="7.11162">
        <ele>1200</ele>
        <time>2018-07-21T10:02:10.000Z</time>
      </trkpt>
      <trkpt lat="43.9714" lon="7.11163">
        <ele>1200</ele>
        <time>2018-07-21T10:02:16.000Z</time>
      </trkpt>
      <trkpt lat="43.97139" lon="7.11164">
        <ele>1200</ele>
        <time>2018-07-21T10:02:25.000Z</time>
      </trkpt>
      <trkpt lat="43.97139" lon="7.11163">
        <ele>1200</ele>
        <time>2018-07-21T10:02:30.000Z</time>
      </trkpt>
      <trkpt lat="43.97139" lon="7.11163">
        <ele>1200</ele>
        <time>2018-07-21T10:02:40.000Z</time>
      </trkpt>
      <trkpt lat="43.97138" lon="7.11163">
        <ele>1200</ele>
        <time>2018-07-21T10:02:47.000Z</time>
      </trkpt>
      <trkpt lat="43.97136" lon="7.11162">
        <ele>1200</ele>
        <time>2018-07-21T10:02:50.000Z</time>
      </trkpt>
      <trkpt lat="43.97137" lon="7.11161">
        <ele>1200</ele>
        <time>2018-07-21T10:02:52.000Z</time>
      </trkpt>
      <trkpt lat="43.97137" lon="7.1116">
        <ele>1200</ele>
        <time>2018-07-21T10:02:57.000Z</time>
      </trkpt>
      <trkpt lat="43.97138" lon="7.11161">
        <ele>1200</ele>
        <time>2018-07-21T10:03:03.000Z</time>
      </trkpt>
      <trkpt lat="43.97138" lon="7.11161">
        <ele>1200</ele>
        <time>2018-07-21T10:03:13.000Z</time>
      </trkpt>
      <trkpt lat="43.97138" lon="7.11162">
        <ele>1200</ele>
        <time>2018-07-21T10:03:22.000Z</time>
      </trkpt>
      <trkpt lat="43.97138" lon="7.11162">
        <ele>1200</ele>
        <time>2018-07-21T10:03:28.000Z</time>
      </trkpt>
      <trkpt lat="43.97137" lon="7.11162">
        <ele>1200</ele>
        <time>2018-07-21T10:03:38.000Z</time>
      </trkpt>
      <trkpt lat="43.97137" lon="7.11162">
        <ele>1200</ele>
        <time>2018-07-21T10:03:47.000Z</time>
      </trkpt>
      <trkpt lat="43.97137" lon="7.11162">
        <ele>1200</ele>
        <time>2018-07-21T10:03:55.000Z</time>
      </trkpt>
      <trkpt lat="43.97138" lon="7.11162">
        <ele>1200</ele>
        <time>2018-07-21T10:04:04.000Z</time>
      </trkpt>
      <trkpt lat="43.97137" lon="7.11162">
        <ele>1200</ele>
        <time>2018-07-21T10:04:12.000Z</time>
      </trkpt>
      <trkpt lat="43.97137" lon="7.11161">
        <ele>1200</ele>
        <time>2018-07-21T10:04:19.000Z</time>
      </trkpt>
      <trkpt lat="43.97137" lon="7.11161">
        <ele>1200</ele>
        <time>2018-07-21T10:04:29.000Z</time>
      </trkpt>
      <trkpt lat="43.97137" lon="7.11162">
        <ele>1200</ele>
        <time>2018-07-21T10:04:35.000Z</time>
      </trkpt>
      <trkpt lat="43.97137" lon="7.11162">
        <ele>1200</ele>
        <time>2018-07-21T10:04:49.000Z</time>
      </trkpt>
      <trkpt lat="43.97136" lon="7.11161">
        <ele>1200</ele>
        <time>2018-07-21T10:04:59.000Z</time>
      </trkpt>
      <trkpt lat="43.97136" lon="7.1116">
        <ele>1200</ele>
        <time>2018-07-21T10:05:00.000Z</time>
      </trkpt>
      <trkpt lat="43.97135" lon="7.1116">
        <ele>1200</ele>
        <time>2018-07-21T10:05:06.000Z</time>
      </trkpt>
      <trkpt lat="43.97135" lon="7.11159">
        <ele>1200</ele>
        <time>2018-07-21T10:05:10.000Z</time>
      </trkpt>
      <trkpt lat="43.97135" lon="7.11159">
        <ele>1200</ele>
        <time>2018-07-21T10:05:19.000Z</time>
      </trkpt>
      <trkpt lat="43.97134" lon="7.11161">
        <ele>1200</ele>
        <time>2018-07-21T10:05:26.000Z</time>
      </trkpt>
      <trkpt lat="43.97134" lon="7.1116">
        <ele>1200</ele>
        <time>2018-07-21T10:05:27.000Z</time>
      </trkpt>
      <trkpt lat="43.97134" lon="7.1116">
        <ele>1200</ele>
        <time>2018-07-21T10:05:34.000Z</time>
      </trkpt>
      <trkpt lat="43.97134" lon="7.11161">
        <ele>1200</ele>
        <time>2018-07-21T10:05:41.000Z</time>
      </trkpt>
      <trkpt lat="43.97134" lon="7.11161">
        <ele>1200</ele>
        <time>2018-07-21T10:05:51.000Z</time>
      </trkpt>
      <trkpt lat="43.97135" lon="7.11164">
        <ele>1200</ele>
        <time>2018-07-21T10:05:54.000Z</time>
      </trkpt>
      <trkpt lat="43.97136" lon="7.11166">
        <ele>1200</ele>
        <time>2018-07-21T10:05:56.000Z</time>
      </trkpt>
      <trkpt lat="43.97137" lon="7.11169">
        <ele>1199</ele>
        <time>2018-07-21T10:06:01.000Z</time>
      </trkpt>
      <trkpt lat="43.9714" lon="7.11174">
        <ele>1199</ele>
        <time>2018-07-21T10:06:06.000Z</time>
      </trkpt>
      <trkpt lat="43.97141" lon="7.11176">
        <ele>1199</ele>
        <time>2018-07-21T10:06:07.000Z</time>
      </trkpt>
      <trkpt lat="43.97139" lon="7.11181">
        <ele>1199</ele>
        <time>2018-07-21T10:06:10.000Z</time>
      </trkpt>
      <trkpt lat="43.97143" lon="7.1119">
        <ele>1198</ele>
        <time>2018-07-21T10:06:15.000Z</time>
      </trkpt>
      <trkpt lat="43.97155" lon="7.11193">
        <ele>1198</ele>
        <time>2018-07-21T10:06:20.000Z</time>
      </trkpt>
      <trkpt lat="43.97157" lon="7.11193">
        <ele>1198</ele>
        <time>2018-07-21T10:06:21.000Z</time>
      </trkpt>
      <trkpt lat="43.97175" lon="7.11192">
        <ele>1197</ele>
        <time>2018-07-21T10:06:28.000Z</time>
      </trkpt>
      <trkpt lat="43.97195" lon="7.1119">
        <ele>1196</ele>
        <time>2018-07-21T10:06:36.000Z</time>
      </trkpt>
      <trkpt lat="43.97207" lon="7.11187">
        <ele>1196</ele>
        <time>2018-07-21T10:06:42.000Z</time>
      </trkpt>
      <trkpt lat="43.9722" lon="7.11186">
        <ele>1196</ele>
        <time>2018-07-21T10:06:48.000Z</time>
      </trkpt>
      <trkpt lat="43.97242" lon="7.11188">
        <ele>1197</ele>
        <time>2018-07-21T10:06:57.000Z</time>
      </trkpt>
      <trkpt lat="43.97257" lon="7.11191">
        <ele>1193</ele>
        <time>2018-07-21T10:07:03.000Z</time>
      </trkpt>
      <trkpt lat="43.97274" lon="7.11189">
        <ele>1193</ele>
        <time>2018-07-21T10:07:10.000Z</time>
      </trkpt>
      <trkpt lat="43.97286" lon="7.11186">
        <ele>1192</ele>
        <time>2018-07-21T10:07:16.000Z</time>
      </trkpt>
      <trkpt lat="43.97296" lon="7.11185">
        <ele>1192</ele>
        <time>2018-07-21T10:07:20.000Z</time>
      </trkpt>
      <trkpt lat="43.97303" lon="7.11183">
        <ele>1192</ele>
        <time>2018-07-21T10:07:22.000Z</time>
      </trkpt>
      <trkpt lat="43.9732" lon="7.11176">
        <ele>1194</ele>
        <time>2018-07-21T10:07:26.000Z</time>
      </trkpt>
      <trkpt lat="43.97329" lon="7.1117">
        <ele>1196</ele>
        <time>2018-07-21T10:07:28.000Z</time>
      </trkpt>
      <trkpt lat="43.97339" lon="7.11164">
        <ele>1200</ele>
        <time>2018-07-21T10:07:30.000Z</time>
      </trkpt>
      <trkpt lat="43.97344" lon="7.11161">
        <ele>1201</ele>
        <time>2018-07-21T10:07:31.000Z</time>
      </trkpt>
      <trkpt lat="43.97362" lon="7.11158">
        <ele>1204</ele>
        <time>2018-07-21T10:07:34.000Z</time>
      </trkpt>
      <trkpt lat="43.97368" lon="7.11159">
        <ele>1204</ele>
        <time>2018-07-21T10:07:35.000Z</time>
      </trkpt>
      <trkpt lat="43.97373" lon="7.11159">
        <ele>1205</ele>
        <time>2018-07-21T10:07:36.000Z</time>
      </trkpt>
      <trkpt lat="43.97379" lon="7.11159">
        <ele>1205</ele>
        <time>2018-07-21T10:07:37.000Z</time>
      </trkpt>
      <trkpt lat="43.97385" lon="7.11157">
        <ele>1205</ele>
        <time>2018-07-21T10:07:38.000Z</time>
      </trkpt>
      <trkpt lat="43.97401" lon="7.11153">
        <ele>1205</ele>
        <time>2018-07-21T10:07:41.000Z</time>
      </trkpt>
      <trkpt lat="43.97405" lon="7.11155">
        <ele>1204</ele>
        <time>2018-07-21T10:07:42.000Z</time>
      </trkpt>
      <trkpt lat="43.97413" lon="7.11166">
        <ele>1201</ele>
        <time>2018-07-21T10:07:45.000Z</time>
      </trkpt>
      <trkpt lat="43.97415" lon="7.1117">
        <ele>1198</ele>
        <time>2018-07-21T10:07:46.000Z</time>
      </trkpt>
      <trkpt lat="43.97415" lon="7.11177">
        <ele>1196</ele>
        <time>2018-07-21T10:07:48.000Z</time>
      </trkpt>
      <trkpt lat="43.97416" lon="7.11183">
        <ele>1195</ele>
        <time>2018-07-21T10:07:49.000Z</time>
      </trkpt>
      <trkpt lat="43.97417" lon="7.11187">
        <ele>1194</ele>
        <time>2018-07-21T10:07:50.000Z</time>
      </trkpt>
      <trkpt lat="43.97423" lon="7.112">
        <ele>1196</ele>
        <time>2018-07-21T10:07:53.000Z</time>
      </trkpt>
      <trkpt lat="43.97426" lon="7.11203">
        <ele>1196</ele>
        <time>2018-07-21T10:07:54.000Z</time>
      </trkpt>
      <trkpt lat="43.97433" lon="7.11211">
        <ele>1195</ele>
        <time>2018-07-21T10:07:56.000Z</time>
      </trkpt>
      <trkpt lat="43.97437" lon="7.11215">
        <ele>1194</ele>
        <time>2018-07-21T10:07:57.000Z</time>
      </trkpt>
      <trkpt lat="43.97448" lon="7.11224">
        <ele>1194</ele>
        <time>2018-07-21T10:07:59.000Z</time>
      </trkpt>
      <trkpt lat="43.97453" lon="7.11227">
        <ele>1194</ele>
        <time>2018-07-21T10:08:00.000Z</time>
      </trkpt>
      <trkpt lat="43.97459" lon="7.11229">
        <ele>1194</ele>
        <time>2018-07-21T10:08:01.000Z</time>
      </trkpt>
      <trkpt lat="43.97469" lon="7.11233">
        <ele>1194</ele>
        <time>2018-07-21T10:08:03.000Z</time>
      </trkpt>
      <trkpt lat="43.97474" lon="7.11236">
        <ele>1194</ele>
        <time>2018-07-21T10:08:04.000Z</time>
      </trkpt>
      <trkpt lat="43.97478" lon="7.11237">
        <ele>1193</ele>
        <time>2018-07-21T10:08:05.000Z</time>
      </trkpt>
      <trkpt lat="43.97487" lon="7.11246">
        <ele>1191</ele>
        <time>2018-07-21T10:08:08.000Z</time>
      </trkpt>
      <trkpt lat="43.9749" lon="7.11249">
        <ele>1191</ele>
        <time>2018-07-21T10:08:09.000Z</time>
      </trkpt>
      <trkpt lat="43.97492" lon="7.11252">
        <ele>1184</ele>
        <time>2018-07-21T10:08:11.000Z</time>
      </trkpt>
      <trkpt lat="43.97494" lon="7.11256">
        <ele>1184</ele>
        <time>2018-07-21T10:08:13.000Z</time>
      </trkpt>
      <trkpt lat="43.97497" lon="7.11257">
        <ele>1184</ele>
        <time>2018-07-21T10:08:14.000Z</time>
      </trkpt>
      <trkpt lat="43.975" lon="7.1126">
        <ele>1181</ele>
        <time>2018-07-21T10:08:16.000Z</time>
      </trkpt>
      <trkpt lat="43.97503" lon="7.1126">
        <ele>1181</ele>
        <time>2018-07-21T10:08:17.000Z</time>
      </trkpt>
      <trkpt lat="43.97507" lon="7.1126">
        <ele>1180</ele>
        <time>2018-07-21T10:08:18.000Z</time>
      </trkpt>
      <trkpt lat="43.97513" lon="7.11259">
        <ele>1178</ele>
        <time>2018-07-21T10:08:20.000Z</time>
      </trkpt>
      <trkpt lat="43.97517" lon="7.11257">
        <ele>1177</ele>
        <time>2018-07-21T10:08:22.000Z</time>
      </trkpt>
      <trkpt lat="43.97516" lon="7.11257">
        <ele>1178</ele>
        <time>2018-07-21T10:08:23.000Z</time>
      </trkpt>
      <trkpt lat="43.97517" lon="7.11257">
        <ele>1177</ele>
        <time>2018-07-21T10:08:27.000Z</time>
      </trkpt>
      <trkpt lat="43.97519" lon="7.1126">
        <ele>1176</ele>
        <time>2018-07-21T10:08:33.000Z</time>
      </trkpt>
      <trkpt lat="43.97525" lon="7.11265">
        <ele>1174</ele>
        <time>2018-07-21T10:08:36.000Z</time>
      </trkpt>
      <trkpt lat="43.9753" lon="7.1127">
        <ele>1172</ele>
        <time>2018-07-21T10:08:38.000Z</time>
      </trkpt>
      <trkpt lat="43.97532" lon="7.11272">
        <ele>1171</ele>
        <time>2018-07-21T10:08:39.000Z</time>
      </trkpt>
      <trkpt lat="43.97534" lon="7.11275">
        <ele>1170</ele>
        <time>2018-07-21T10:08:40.000Z</time>
      </trkpt>
      <trkpt lat="43.97537" lon="7.11277">
        <ele>1170</ele>
        <time>2018-07-21T10:08:42.000Z</time>
      </trkpt>
      <trkpt lat="43.9754" lon="7.11277">
        <ele>1170</ele>
        <time>2018-07-21T10:08:43.000Z</time>
      </trkpt>
      <trkpt lat="43.97545" lon="7.11278">
        <ele>1169</ele>
        <time>2018-07-21T10:08:45.000Z</time>
      </trkpt>
      <trkpt lat="43.97548" lon="7.11279">
        <ele>1169</ele>
        <time>2018-07-21T10:08:47.000Z</time>
      </trkpt>
      <trkpt lat="43.97553" lon="7.11278">
        <ele>1168</ele>
        <time>2018-07-21T10:08:49.000Z</time>
      </trkpt>
      <trkpt lat="43.97558" lon="7.11276">
        <ele>1169</ele>
        <time>2018-07-21T10:08:51.000Z</time>
      </trkpt>
      <trkpt lat="43.97559" lon="7.11274">
        <ele>1169</ele>
        <time>2018-07-21T10:08:52.000Z</time>
      </trkpt>
      <trkpt lat="43.97564" lon="7.11272">
        <ele>1169</ele>
        <time>2018-07-21T10:08:54.000Z</time>
      </trkpt>
      <trkpt lat="43.9757" lon="7.1127">
        <ele>1170</ele>
        <time>2018-07-21T10:08:56.000Z</time>
      </trkpt>
      <trkpt lat="43.97583" lon="7.11272">
        <ele>1170</ele>
        <time>2018-07-21T10:08:59.000Z</time>
      </trkpt>
      <trkpt lat="43.97592" lon="7.11272">
        <ele>1157</ele>
        <time>2018-07-21T10:09:03.000Z</time>
      </trkpt>
      <trkpt lat="43.97601" lon="7.11271">
        <ele>1155</ele>
        <time>2018-07-21T10:09:06.000Z</time>
      </trkpt>
      <trkpt lat="43.97606" lon="7.1127">
        <ele>1154</ele>
        <time>2018-07-21T10:09:07.000Z</time>
      </trkpt>
      <trkpt lat="43.9761" lon="7.11268">
        <ele>1153</ele>
        <time>2018-07-21T10:09:08.000Z</time>
      </trkpt>
      <trkpt lat="43.97617" lon="7.11264">
        <ele>1151</ele>
        <time>2018-07-21T10:09:09.000Z</time>
      </trkpt>
      <trkpt lat="43.97622" lon="7.11262">
        <ele>1150</ele>
        <time>2018-07-21T10:09:10.000Z</time>
      </trkpt>
      <trkpt lat="43.97631" lon="7.1126">
        <ele>1148</ele>
        <time>2018-07-21T10:09:12.000Z</time>
      </trkpt>
      <trkpt lat="43.97634" lon="7.11262">
        <ele>1148</ele>
        <time>2018-07-21T10:09:13.000Z</time>
      </trkpt>
      <trkpt lat="43.97637" lon="7.11263">
        <ele>1147</ele>
        <time>2018-07-21T10:09:14.000Z</time>
      </trkpt>
      <trkpt lat="43.97641" lon="7.11262">
        <ele>1146</ele>
        <time>2018-07-21T10:09:15.000Z</time>
      </trkpt>
      <trkpt lat="43.97648" lon="7.1126">
        <ele>1146</ele>
        <time>2018-07-21T10:09:17.000Z</time>
      </trkpt>
      <trkpt lat="43.97653" lon="7.11261">
        <ele>1145</ele>
        <time>2018-07-21T10:09:19.000Z</time>
      </trkpt>
      <trkpt lat="43.97659" lon="7.11257">
        <ele>1145</ele>
        <time>2018-07-21T10:09:21.000Z</time>
      </trkpt>
      <trkpt lat="43.9767" lon="7.11251">
        <ele>1145</ele>
        <time>2018-07-21T10:09:24.000Z</time>
      </trkpt>
      <trkpt lat="43.97675" lon="7.11248">
        <ele>1154</ele>
        <time>2018-07-21T10:09:25.000Z</time>
      </trkpt>
      <trkpt lat="43.97679" lon="7.11249">
        <ele>1157</ele>
        <time>2018-07-21T10:09:26.000Z</time>
      </trkpt>
      <trkpt lat="43.97688" lon="7.11248">
        <ele>1162</ele>
        <time>2018-07-21T10:09:28.000Z</time>
      </trkpt>
      <trkpt lat="43.97703" lon="7.1124">
        <ele>1167</ele>
        <time>2018-07-21T10:09:31.000Z</time>
      </trkpt>
      <trkpt lat="43.97707" lon="7.11242">
        <ele>1167</ele>
        <time>2018-07-21T10:09:32.000Z</time>
      </trkpt>
      <trkpt lat="43.9771" lon="7.11244">
        <ele>1167</ele>
        <time>2018-07-21T10:09:33.000Z</time>
      </trkpt>
      <trkpt lat="43.97715" lon="7.11244">
        <ele>1168</ele>
        <time>2018-07-21T10:09:34.000Z</time>
      </trkpt>
      <trkpt lat="43.97719" lon="7.11251">
        <ele>1145</ele>
        <time>2018-07-21T10:09:36.000Z</time>
      </trkpt>
      <trkpt lat="43.97718" lon="7.11256">
        <ele>1145</ele>
        <time>2018-07-21T10:09:37.000Z</time>
      </trkpt>
      <trkpt lat="43.97719" lon="7.11273">
        <ele>1143</ele>
        <time>2018-07-21T10:09:41.000Z</time>
      </trkpt>
      <trkpt lat="43.97722" lon="7.11293">
        <ele>1140</ele>
        <time>2018-07-21T10:09:45.000Z</time>
      </trkpt>
      <trkpt lat="43.97722" lon="7.11298">
        <ele>1139</ele>
        <time>2018-07-21T10:09:46.000Z</time>
      </trkpt>
      <trkpt lat="43.97725" lon="7.11311">
        <ele>1138</ele>
        <time>2018-07-21T10:09:49.000Z</time>
      </trkpt>
      <trkpt lat="43.97727" lon="7.11313">
        <ele>1137</ele>
        <time>2018-07-21T10:09:50.000Z</time>
      </trkpt>
      <trkpt lat="43.97729" lon="7.11315">
        <ele>1137</ele>
        <time>2018-07-21T10:09:51.000Z</time>
      </trkpt>
      <trkpt lat="43.97732" lon="7.11318">
        <ele>1137</ele>
        <time>2018-07-21T10:09:53.000Z</time>
      </trkpt>
      <trkpt lat="43.97735" lon="7.11319">
        <ele>1138</ele>
        <time>2018-07-21T10:09:55.000Z</time>
      </trkpt>
      <trkpt lat="43.97734" lon="7.11319">
        <ele>1137</ele>
        <time>2018-07-21T10:09:56.000Z</time>
      </trkpt>
      <trkpt lat="43.97735" lon="7.1132">
        <ele>1137</ele>
        <time>2018-07-21T10:09:58.000Z</time>
      </trkpt>
      <trkpt lat="43.97734" lon="7.1132">
        <ele>1137</ele>
        <time>2018-07-21T10:09:59.000Z</time>
      </trkpt>
      <trkpt lat="43.97733" lon="7.11321">
        <ele>1137</ele>
        <time>2018-07-21T10:10:02.000Z</time>
      </trkpt>
      <trkpt lat="43.97729" lon="7.11324">
        <ele>1137</ele>
        <time>2018-07-21T10:10:04.000Z</time>
      </trkpt>
      <trkpt lat="43.9772" lon="7.11329">
        <ele>1135</ele>
        <time>2018-07-21T10:10:07.000Z</time>
      </trkpt>
      <trkpt lat="43.97717" lon="7.1133">
        <ele>1135</ele>
        <time>2018-07-21T10:10:08.000Z</time>
      </trkpt>
      <trkpt lat="43.97713" lon="7.11334">
        <ele>1121</ele>
        <time>2018-07-21T10:10:10.000Z</time>
      </trkpt>
      <trkpt lat="43.97714" lon="7.11335">
        <ele>1122</ele>
        <time>2018-07-21T10:10:11.000Z</time>
      </trkpt>
      <trkpt lat="43.97716" lon="7.11335">
        <ele>1122</ele>
        <time>2018-07-21T10:10:12.000Z</time>
      </trkpt>
      <trkpt lat="43.97724" lon="7.11336">
        <ele>1124</ele>
        <time>2018-07-21T10:10:14.000Z</time>
      </trkpt>
      <trkpt lat="43.97729" lon="7.11337">
        <ele>1126</ele>
        <time>2018-07-21T10:10:15.000Z</time>
      </trkpt>
      <trkpt lat="43.97734" lon="7.11339">
        <ele>1127</ele>
        <time>2018-07-21T10:10:16.000Z</time>
      </trkpt>
      <trkpt lat="43.97739" lon="7.11345">
        <ele>1128</ele>
        <time>2018-07-21T10:10:18.000Z</time>
      </trkpt>
      <trkpt lat="43.97746" lon="7.11354">
        <ele>1127</ele>
        <time>2018-07-21T10:10:20.000Z</time>
      </trkpt>
      <trkpt lat="43.97744" lon="7.11358">
        <ele>1126</ele>
        <time>2018-07-21T10:10:21.000Z</time>
      </trkpt>
      <trkpt lat="43.97742" lon="7.11362">
        <ele>1125</ele>
        <time>2018-07-21T10:10:22.000Z</time>
      </trkpt>
      <trkpt lat="43.97736" lon="7.1137">
        <ele>1123</ele>
        <time>2018-07-21T10:10:24.000Z</time>
      </trkpt>
      <trkpt lat="43.97732" lon="7.11374">
        <ele>1122</ele>
        <time>2018-07-21T10:10:26.000Z</time>
      </trkpt>
      <trkpt lat="43.97729" lon="7.11378">
        <ele>1121</ele>
        <time>2018-07-21T10:10:27.000Z</time>
      </trkpt>
      <trkpt lat="43.97726" lon="7.11384">
        <ele>1120</ele>
        <time>2018-07-21T10:10:28.000Z</time>
      </trkpt>
      <trkpt lat="43.9772" lon="7.11391">
        <ele>1119</ele>
        <time>2018-07-21T10:10:30.000Z</time>
      </trkpt>
      <trkpt lat="43.97718" lon="7.11401">
        <ele>1118</ele>
        <time>2018-07-21T10:10:32.000Z</time>
      </trkpt>
      <trkpt lat="43.97715" lon="7.11406">
        <ele>1117</ele>
        <time>2018-07-21T10:10:33.000Z</time>
      </trkpt>
      <trkpt lat="43.97711" lon="7.11413">
        <ele>1116</ele>
        <time>2018-07-21T10:10:35.000Z</time>
      </trkpt>
      <trkpt lat="43.9771" lon="7.11417">
        <ele>1108</ele>
        <time>2018-07-21T10:10:36.000Z</time>
      </trkpt>
      <trkpt lat="43.97704" lon="7.11426">
        <ele>1105</ele>
        <time>2018-07-21T10:10:38.000Z</time>
      </trkpt>
      <trkpt lat="43.97701" lon="7.11429">
        <ele>1104</ele>
        <time>2018-07-21T10:10:39.000Z</time>
      </trkpt>
      <trkpt lat="43.977" lon="7.11434">
        <ele>1104</ele>
        <time>2018-07-21T10:10:40.000Z</time>
      </trkpt>
      <trkpt lat="43.97699" lon="7.1144">
        <ele>1104</ele>
        <time>2018-07-21T10:10:41.000Z</time>
      </trkpt>
      <trkpt lat="43.97698" lon="7.11446">
        <ele>1103</ele>
        <time>2018-07-21T10:10:42.000Z</time>
      </trkpt>
      <trkpt lat="43.97697" lon="7.11452">
        <ele>1103</ele>
        <time>2018-07-21T10:10:43.000Z</time>
      </trkpt>
      <trkpt lat="43.97697" lon="7.11459">
        <ele>1102</ele>
        <time>2018-07-21T10:10:44.000Z</time>
      </trkpt>
      <trkpt lat="43.97695" lon="7.11465">
        <ele>1101</ele>
        <time>2018-07-21T10:10:45.000Z</time>
      </trkpt>
      <trkpt lat="43.97695" lon="7.11476">
        <ele>1100</ele>
        <time>2018-07-21T10:10:47.000Z</time>
      </trkpt>
      <trkpt lat="43.97694" lon="7.11479">
        <ele>1099</ele>
        <time>2018-07-21T10:10:48.000Z</time>
      </trkpt>
      <trkpt lat="43.97693" lon="7.11486">
        <ele>1098</ele>
        <time>2018-07-21T10:10:50.000Z</time>
      </trkpt>
      <trkpt lat="43.97696" lon="7.11499">
        <ele>1098</ele>
        <time>2018-07-21T10:10:53.000Z</time>
      </trkpt>
      <trkpt lat="43.97697" lon="7.11504">
        <ele>1091</ele>
        <time>2018-07-21T10:10:54.000Z</time>
      </trkpt>
      <trkpt lat="43.97697" lon="7.11515">
        <ele>1091</ele>
        <time>2018-07-21T10:10:56.000Z</time>
      </trkpt>
      <trkpt lat="43.97698" lon="7.11521">
        <ele>1091</ele>
        <time>2018-07-21T10:10:57.000Z</time>
      </trkpt>
      <trkpt lat="43.97698" lon="7.11532">
        <ele>1090</ele>
        <time>2018-07-21T10:11:00.000Z</time>
      </trkpt>
      <trkpt lat="43.977" lon="7.11535">
        <ele>1090</ele>
        <time>2018-07-21T10:11:01.000Z</time>
      </trkpt>
      <trkpt lat="43.97702" lon="7.11539">
        <ele>1091</ele>
        <time>2018-07-21T10:11:02.000Z</time>
      </trkpt>
      <trkpt lat="43.97704" lon="7.11546">
        <ele>1090</ele>
        <time>2018-07-21T10:11:04.000Z</time>
      </trkpt>
      <trkpt lat="43.97703" lon="7.1155">
        <ele>1090</ele>
        <time>2018-07-21T10:11:05.000Z</time>
      </trkpt>
      <trkpt lat="43.97704" lon="7.11554">
        <ele>1090</ele>
        <time>2018-07-21T10:11:06.000Z</time>
      </trkpt>
      <trkpt lat="43.97705" lon="7.11559">
        <ele>1089</ele>
        <time>2018-07-21T10:11:08.000Z</time>
      </trkpt>
      <trkpt lat="43.97707" lon="7.11566">
        <ele>1090</ele>
        <time>2018-07-21T10:11:10.000Z</time>
      </trkpt>
      <trkpt lat="43.97709" lon="7.1157">
        <ele>1090</ele>
        <time>2018-07-21T10:11:11.000Z</time>
      </trkpt>
      <trkpt lat="43.97712" lon="7.11575">
        <ele>1091</ele>
        <time>2018-07-21T10:11:12.000Z</time>
      </trkpt>
      <trkpt lat="43.97714" lon="7.11581">
        <ele>1091</ele>
        <time>2018-07-21T10:11:13.000Z</time>
      </trkpt>
      <trkpt lat="43.97716" lon="7.11588">
        <ele>1083</ele>
        <time>2018-07-21T10:11:14.000Z</time>
      </trkpt>
      <trkpt lat="43.97716" lon="7.11594">
        <ele>1082</ele>
        <time>2018-07-21T10:11:15.000Z</time>
      </trkpt>
      <trkpt lat="43.97717" lon="7.116">
        <ele>1082</ele>
        <time>2018-07-21T10:11:16.000Z</time>
      </trkpt>
      <trkpt lat="43.97718" lon="7.11606">
        <ele>1081</ele>
        <time>2018-07-21T10:11:17.000Z</time>
      </trkpt>
      <trkpt lat="43.97718" lon="7.1161">
        <ele>1081</ele>
        <time>2018-07-21T10:11:18.000Z</time>
      </trkpt>
      <trkpt lat="43.97719" lon="7.11624">
        <ele>1080</ele>
        <time>2018-07-21T10:11:22.000Z</time>
      </trkpt>
      <trkpt lat="43.97722" lon="7.11635">
        <ele>1079</ele>
        <time>2018-07-21T10:11:25.000Z</time>
      </trkpt>
      <trkpt lat="43.97723" lon="7.11647">
        <ele>1079</ele>
        <time>2018-07-21T10:11:28.000Z</time>
      </trkpt>
      <trkpt lat="43.97727" lon="7.11665">
        <ele>1081</ele>
        <time>2018-07-21T10:11:33.000Z</time>
      </trkpt>
      <trkpt lat="43.97732" lon="7.11673">
        <ele>1073</ele>
        <time>2018-07-21T10:11:36.000Z</time>
      </trkpt>
      <trkpt lat="43.97733" lon="7.11674">
        <ele>1074</ele>
        <time>2018-07-21T10:11:37.000Z</time>
      </trkpt>
      <trkpt lat="43.97738" lon="7.1168">
        <ele>1074</ele>
        <time>2018-07-21T10:11:40.000Z</time>
      </trkpt>
      <trkpt lat="43.97742" lon="7.11687">
        <ele>1072</ele>
        <time>2018-07-21T10:11:42.000Z</time>
      </trkpt>
      <trkpt lat="43.97754" lon="7.11712">
        <ele>1086</ele>
        <time>2018-07-21T10:11:46.000Z</time>
      </trkpt>
      <trkpt lat="43.97761" lon="7.11729">
        <ele>1082</ele>
        <time>2018-07-21T10:11:48.000Z</time>
      </trkpt>
      <trkpt lat="43.97765" lon="7.11736">
        <ele>1081</ele>
        <time>2018-07-21T10:11:49.000Z</time>
      </trkpt>
      <trkpt lat="43.9777" lon="7.11743">
        <ele>1081</ele>
        <time>2018-07-21T10:11:50.000Z</time>
      </trkpt>
      <trkpt lat="43.97776" lon="7.11748">
        <ele>1083</ele>
        <time>2018-07-21T10:11:51.000Z</time>
      </trkpt>
      <trkpt lat="43.97788" lon="7.11758">
        <ele>1074</ele>
        <time>2018-07-21T10:11:53.000Z</time>
      </trkpt>
      <trkpt lat="43.97795" lon="7.11763">
        <ele>1075</ele>
        <time>2018-07-21T10:11:54.000Z</time>
      </trkpt>
      <trkpt lat="43.9783" lon="7.11799">
        <ele>1075</ele>
        <time>2018-07-21T10:12:00.000Z</time>
      </trkpt>
      <trkpt lat="43.97839" lon="7.11814">
        <ele>1085</ele>
        <time>2018-07-21T10:12:02.000Z</time>
      </trkpt>
      <trkpt lat="43.97843" lon="7.1183">
        <ele>1081</ele>
        <time>2018-07-21T10:12:04.000Z</time>
      </trkpt>
      <trkpt lat="43.97844" lon="7.11852">
        <ele>1077</ele>
        <time>2018-07-21T10:12:07.000Z</time>
      </trkpt>
      <trkpt lat="43.97845" lon="7.11857">
        <ele>1077</ele>
        <time>2018-07-21T10:12:08.000Z</time>
      </trkpt>
      <trkpt lat="43.97855" lon="7.11881">
        <ele>1077</ele>
        <time>2018-07-21T10:12:13.000Z</time>
      </trkpt>
      <trkpt lat="43.97858" lon="7.11886">
        <ele>1077</ele>
        <time>2018-07-21T10:12:14.000Z</time>
      </trkpt>
      <trkpt lat="43.97875" lon="7.1191">
        <ele>1076</ele>
        <time>2018-07-21T10:12:19.000Z</time>
      </trkpt>
      <trkpt lat="43.97884" lon="7.11921">
        <ele>1070</ele>
        <time>2018-07-21T10:12:21.000Z</time>
      </trkpt>
      <trkpt lat="43.9789" lon="7.11925">
        <ele>1070</ele>
        <time>2018-07-21T10:12:22.000Z</time>
      </trkpt>
      <trkpt lat="43.97901" lon="7.1193">
        <ele>1070</ele>
        <time>2018-07-21T10:12:24.000Z</time>
      </trkpt>
      <trkpt lat="43.97907" lon="7.11929">
        <ele>1070</ele>
        <time>2018-07-21T10:12:25.000Z</time>
      </trkpt>
      <trkpt lat="43.97917" lon="7.11927">
        <ele>1065</ele>
        <time>2018-07-21T10:12:27.000Z</time>
      </trkpt>
      <trkpt lat="43.97924" lon="7.11926">
        <ele>1065</ele>
        <time>2018-07-21T10:12:28.000Z</time>
      </trkpt>
      <trkpt lat="43.97937" lon="7.1192">
        <ele>1062</ele>
        <time>2018-07-21T10:12:30.000Z</time>
      </trkpt>
      <trkpt lat="43.97942" lon="7.11916">
        <ele>1073</ele>
        <time>2018-07-21T10:12:31.000Z</time>
      </trkpt>
      <trkpt lat="43.97947" lon="7.11911">
        <ele>1073</ele>
        <time>2018-07-21T10:12:32.000Z</time>
      </trkpt>
      <trkpt lat="43.97954" lon="7.11897">
        <ele>1073</ele>
        <time>2018-07-21T10:12:34.000Z</time>
      </trkpt>
      <trkpt lat="43.97955" lon="7.11874">
        <ele>1076</ele>
        <time>2018-07-21T10:12:37.000Z</time>
      </trkpt>
      <trkpt lat="43.97956" lon="7.11867">
        <ele>1077</ele>
        <time>2018-07-21T10:12:38.000Z</time>
      </trkpt>
      <trkpt lat="43.97964" lon="7.11859">
        <ele>1078</ele>
        <time>2018-07-21T10:12:40.000Z</time>
      </trkpt>
      <trkpt lat="43.97972" lon="7.11858">
        <ele>1078</ele>
        <time>2018-07-21T10:12:43.000Z</time>
      </trkpt>
      <trkpt lat="43.97976" lon="7.11858">
        <ele>1078</ele>
        <time>2018-07-21T10:12:48.000Z</time>
      </trkpt>
      <trkpt lat="43.97976" lon="7.11859">
        <ele>1078</ele>
        <time>2018-07-21T10:13:00.000Z</time>
      </trkpt>
      <trkpt lat="43.97975" lon="7.11859">
        <ele>1078</ele>
        <time>2018-07-21T10:13:17.000Z</time>
      </trkpt>
      <trkpt lat="43.97975" lon="7.11859">
        <ele>1078</ele>
        <time>2018-07-21T10:13:21.000Z</time>
      </trkpt>
      <trkpt lat="43.97975" lon="7.11859">
        <ele>1078</ele>
        <time>2018-07-21T10:13:26.000Z</time>
      </trkpt>
      <trkpt lat="43.97975" lon="7.11859">
        <ele>1078</ele>
        <time>2018-07-21T10:13:30.000Z</time>
      </trkpt>
      <trkpt lat="43.97975" lon="7.11859">
        <ele>1078</ele>
        <time>2018-07-21T10:13:49.000Z</time>
      </trkpt>
      <trkpt lat="43.97975" lon="7.11858">
        <ele>1078</ele>
        <time>2018-07-21T10:14:01.000Z</time>
      </trkpt>
      <trkpt lat="43.97976" lon="7.11859">
        <ele>1078</ele>
        <time>2018-07-21T10:14:02.000Z</time>
      </trkpt>
      <trkpt lat="43.97976" lon="7.1186">
        <ele>1078</ele>
        <time>2018-07-21T10:14:05.000Z</time>
      </trkpt>
      <trkpt lat="43.97976" lon="7.11861">
        <ele>1077</ele>
        <time>2018-07-21T10:14:11.000Z</time>
      </trkpt>
      <trkpt lat="43.97976" lon="7.11859">
        <ele>1078</ele>
        <time>2018-07-21T10:14:31.000Z</time>
      </trkpt>
      <trkpt lat="43.97976" lon="7.11859">
        <ele>1078</ele>
        <time>2018-07-21T10:14:40.000Z</time>
      </trkpt>
      <trkpt lat="43.97977" lon="7.11858">
        <ele>1078</ele>
        <time>2018-07-21T10:14:48.000Z</time>
      </trkpt>
      <trkpt lat="43.97977" lon="7.11858">
        <ele>1078</ele>
        <time>2018-07-21T10:14:56.000Z</time>
      </trkpt>
      <trkpt lat="43.97978" lon="7.11862">
        <ele>1077</ele>
        <time>2018-07-21T10:15:01.000Z</time>
      </trkpt>
      <trkpt lat="43.9798" lon="7.11864">
        <ele>1077</ele>
        <time>2018-07-21T10:15:02.000Z</time>
      </trkpt>
      <trkpt lat="43.97981" lon="7.11868">
        <ele>1076</ele>
        <time>2018-07-21T10:15:04.000Z</time>
      </trkpt>
      <trkpt lat="43.9798" lon="7.11868">
        <ele>1076</ele>
        <time>2018-07-21T10:15:05.000Z</time>
      </trkpt>
      <trkpt lat="43.9797" lon="7.11866">
        <ele>1077</ele>
        <time>2018-07-21T10:15:08.000Z</time>
      </trkpt>
      <trkpt lat="43.97967" lon="7.11867">
        <ele>1077</ele>
        <time>2018-07-21T10:15:09.000Z</time>
      </trkpt>
      <trkpt lat="43.97965" lon="7.1187">
        <ele>1076</ele>
        <time>2018-07-21T10:15:11.000Z</time>
      </trkpt>
      <trkpt lat="43.97965" lon="7.11869">
        <ele>1077</ele>
        <time>2018-07-21T10:15:12.000Z</time>
      </trkpt>
      <trkpt lat="43.97966" lon="7.1187">
        <ele>1076</ele>
        <time>2018-07-21T10:15:13.000Z</time>
      </trkpt>
      <trkpt lat="43.97972" lon="7.11874">
        <ele>1075</ele>
        <time>2018-07-21T10:15:15.000Z</time>
      </trkpt>
      <trkpt lat="43.97976" lon="7.11877">
        <ele>1075</ele>
        <time>2018-07-21T10:15:16.000Z</time>
      </trkpt>
      <trkpt lat="43.9798" lon="7.11881">
        <ele>1074</ele>
        <time>2018-07-21T10:15:17.000Z</time>
      </trkpt>
      <trkpt lat="43.97988" lon="7.1189">
        <ele>1071</ele>
        <time>2018-07-21T10:15:19.000Z</time>
      </trkpt>
      <trkpt lat="43.97994" lon="7.11892">
        <ele>1070</ele>
        <time>2018-07-21T10:15:20.000Z</time>
      </trkpt>
      <trkpt lat="43.97997" lon="7.11897">
        <ele>1068</ele>
        <time>2018-07-21T10:15:21.000Z</time>
      </trkpt>
      <trkpt lat="43.97999" lon="7.11908">
        <ele>1064</ele>
        <time>2018-07-21T10:15:23.000Z</time>
      </trkpt>
      <trkpt lat="43.98" lon="7.11912">
        <ele>1061</ele>
        <time>2018-07-21T10:15:24.000Z</time>
      </trkpt>
      <trkpt lat="43.98" lon="7.11914">
        <ele>1059</ele>
        <time>2018-07-21T10:15:25.000Z</time>
      </trkpt>
      <trkpt lat="43.98003" lon="7.11926">
        <ele>1055</ele>
        <time>2018-07-21T10:15:27.000Z</time>
      </trkpt>
      <trkpt lat="43.98008" lon="7.11943">
        <ele>1051</ele>
        <time>2018-07-21T10:15:29.000Z</time>
      </trkpt>
      <trkpt lat="43.98012" lon="7.11959">
        <ele>1048</ele>
        <time>2018-07-21T10:15:31.000Z</time>
      </trkpt>
      <trkpt lat="43.98017" lon="7.11972">
        <ele>1045</ele>
        <time>2018-07-21T10:15:33.000Z</time>
      </trkpt>
      <trkpt lat="43.9802" lon="7.11979">
        <ele>1044</ele>
        <time>2018-07-21T10:15:34.000Z</time>
      </trkpt>
      <trkpt lat="43.98024" lon="7.11984">
        <ele>1043</ele>
        <time>2018-07-21T10:15:35.000Z</time>
      </trkpt>
      <trkpt lat="43.98027" lon="7.1199">
        <ele>1043</ele>
        <time>2018-07-21T10:15:36.000Z</time>
      </trkpt>
      <trkpt lat="43.98029" lon="7.11996">
        <ele>1043</ele>
        <time>2018-07-21T10:15:37.000Z</time>
      </trkpt>
      <trkpt lat="43.98032" lon="7.12008">
        <ele>1025</ele>
        <time>2018-07-21T10:15:39.000Z</time>
      </trkpt>
      <trkpt lat="43.98034" lon="7.12013">
        <ele>1024</ele>
        <time>2018-07-21T10:15:40.000Z</time>
      </trkpt>
      <trkpt lat="43.98037" lon="7.12021">
        <ele>1023</ele>
        <time>2018-07-21T10:15:42.000Z</time>
      </trkpt>
      <trkpt lat="43.98038" lon="7.12026">
        <ele>1022</ele>
        <time>2018-07-21T10:15:43.000Z</time>
      </trkpt>
      <trkpt lat="43.98041" lon="7.12037">
        <ele>1020</ele>
        <time>2018-07-21T10:15:45.000Z</time>
      </trkpt>
      <trkpt lat="43.98047" lon="7.12046">
        <ele>1019</ele>
        <time>2018-07-21T10:15:47.000Z</time>
      </trkpt>
      <trkpt lat="43.98053" lon="7.12055">
        <ele>1017</ele>
        <time>2018-07-21T10:15:49.000Z</time>
      </trkpt>
      <trkpt lat="43.98059" lon="7.12058">
        <ele>1017</ele>
        <time>2018-07-21T10:15:51.000Z</time>
      </trkpt>
      <trkpt lat="43.98065" lon="7.12065">
        <ele>1015</ele>
        <time>2018-07-21T10:15:53.000Z</time>
      </trkpt>
      <trkpt lat="43.98063" lon="7.12069">
        <ele>1014</ele>
        <time>2018-07-21T10:15:54.000Z</time>
      </trkpt>
      <trkpt lat="43.98059" lon="7.12071">
        <ele>1014</ele>
        <time>2018-07-21T10:15:55.000Z</time>
      </trkpt>
      <trkpt lat="43.98052" lon="7.12071">
        <ele>1015</ele>
        <time>2018-07-21T10:15:57.000Z</time>
      </trkpt>
      <trkpt lat="43.9805" lon="7.12073">
        <ele>1014</ele>
        <time>2018-07-21T10:15:59.000Z</time>
      </trkpt>
      <trkpt lat="43.98051" lon="7.12075">
        <ele>1014</ele>
        <time>2018-07-21T10:16:00.000Z</time>
      </trkpt>
      <trkpt lat="43.98053" lon="7.12075">
        <ele>1014</ele>
        <time>2018-07-21T10:16:01.000Z</time>
      </trkpt>
      <trkpt lat="43.9806" lon="7.1208">
        <ele>1013</ele>
        <time>2018-07-21T10:16:03.000Z</time>
      </trkpt>
      <trkpt lat="43.98067" lon="7.1209">
        <ele>998</ele>
        <time>2018-07-21T10:16:05.000Z</time>
      </trkpt>
      <trkpt lat="43.98069" lon="7.12092">
        <ele>998</ele>
        <time>2018-07-21T10:16:06.000Z</time>
      </trkpt>
      <trkpt lat="43.98069" lon="7.12096">
        <ele>997</ele>
        <time>2018-07-21T10:16:07.000Z</time>
      </trkpt>
      <trkpt lat="43.98067" lon="7.12096">
        <ele>997</ele>
        <time>2018-07-21T10:16:08.000Z</time>
      </trkpt>
      <trkpt lat="43.98064" lon="7.12095">
        <ele>996</ele>
        <time>2018-07-21T10:16:09.000Z</time>
      </trkpt>
      <trkpt lat="43.9806" lon="7.12092">
        <ele>996</ele>
        <time>2018-07-21T10:16:10.000Z</time>
      </trkpt>
      <trkpt lat="43.98052" lon="7.1209">
        <ele>995</ele>
        <time>2018-07-21T10:16:12.000Z</time>
      </trkpt>
      <trkpt lat="43.98049" lon="7.1209">
        <ele>995</ele>
        <time>2018-07-21T10:16:13.000Z</time>
      </trkpt>
      <trkpt lat="43.98047" lon="7.1209">
        <ele>994</ele>
        <time>2018-07-21T10:16:14.000Z</time>
      </trkpt>
      <trkpt lat="43.98046" lon="7.12089">
        <ele>994</ele>
        <time>2018-07-21T10:16:15.000Z</time>
      </trkpt>
      <trkpt lat="43.98047" lon="7.12089">
        <ele>994</ele>
        <time>2018-07-21T10:16:16.000Z</time>
      </trkpt>
      <trkpt lat="43.98046" lon="7.12088">
        <ele>994</ele>
        <time>2018-07-21T10:16:20.000Z</time>
      </trkpt>
      <trkpt lat="43.98045" lon="7.12088">
        <ele>994</ele>
        <time>2018-07-21T10:16:23.000Z</time>
      </trkpt>
      <trkpt lat="43.98041" lon="7.12089">
        <ele>994</ele>
        <time>2018-07-21T10:16:25.000Z</time>
      </trkpt>
      <trkpt lat="43.98041" lon="7.12092">
        <ele>994</ele>
        <time>2018-07-21T10:16:26.000Z</time>
      </trkpt>
      <trkpt lat="43.98046" lon="7.12096">
        <ele>994</ele>
        <time>2018-07-21T10:16:28.000Z</time>
      </trkpt>
      <trkpt lat="43.98048" lon="7.121">
        <ele>993</ele>
        <time>2018-07-21T10:16:29.000Z</time>
      </trkpt>
      <trkpt lat="43.9805" lon="7.12104">
        <ele>993</ele>
        <time>2018-07-21T10:16:30.000Z</time>
      </trkpt>
      <trkpt lat="43.98053" lon="7.12108">
        <ele>993</ele>
        <time>2018-07-21T10:16:31.000Z</time>
      </trkpt>
      <trkpt lat="43.98055" lon="7.12113">
        <ele>992</ele>
        <time>2018-07-21T10:16:32.000Z</time>
      </trkpt>
      <trkpt lat="43.98057" lon="7.12118">
        <ele>991</ele>
        <time>2018-07-21T10:16:33.000Z</time>
      </trkpt>
      <trkpt lat="43.98058" lon="7.12121">
        <ele>991</ele>
        <time>2018-07-21T10:16:34.000Z</time>
      </trkpt>
      <trkpt lat="43.98058" lon="7.12122">
        <ele>990</ele>
        <time>2018-07-21T10:16:35.000Z</time>
      </trkpt>
      <trkpt lat="43.98057" lon="7.12124">
        <ele>990</ele>
        <time>2018-07-21T10:16:36.000Z</time>
      </trkpt>
      <trkpt lat="43.98056" lon="7.12129">
        <ele>989</ele>
        <time>2018-07-21T10:16:38.000Z</time>
      </trkpt>
      <trkpt lat="43.98057" lon="7.1213">
        <ele>989</ele>
        <time>2018-07-21T10:16:39.000Z</time>
      </trkpt>
      <trkpt lat="43.9806" lon="7.12133">
        <ele>989</ele>
        <time>2018-07-21T10:16:40.000Z</time>
      </trkpt>
      <trkpt lat="43.98064" lon="7.12136">
        <ele>988</ele>
        <time>2018-07-21T10:16:42.000Z</time>
      </trkpt>
      <trkpt lat="43.98069" lon="7.12138">
        <ele>988</ele>
        <time>2018-07-21T10:16:44.000Z</time>
      </trkpt>
      <trkpt lat="43.98072" lon="7.12138">
        <ele>988</ele>
        <time>2018-07-21T10:16:45.000Z</time>
      </trkpt>
      <trkpt lat="43.98075" lon="7.12141">
        <ele>987</ele>
        <time>2018-07-21T10:16:46.000Z</time>
      </trkpt>
      <trkpt lat="43.98076" lon="7.12149">
        <ele>986</ele>
        <time>2018-07-21T10:16:48.000Z</time>
      </trkpt>
      <trkpt lat="43.98079" lon="7.12157">
        <ele>984</ele>
        <time>2018-07-21T10:16:51.000Z</time>
      </trkpt>
      <trkpt lat="43.9808" lon="7.12159">
        <ele>984</ele>
        <time>2018-07-21T10:16:53.000Z</time>
      </trkpt>
      <trkpt lat="43.9808" lon="7.12163">
        <ele>983</ele>
        <time>2018-07-21T10:16:55.000Z</time>
      </trkpt>
      <trkpt lat="43.98083" lon="7.12167">
        <ele>982</ele>
        <time>2018-07-21T10:16:58.000Z</time>
      </trkpt>
      <trkpt lat="43.98088" lon="7.12165">
        <ele>980</ele>
        <time>2018-07-21T10:17:00.000Z</time>
      </trkpt>
      <trkpt lat="43.9809" lon="7.12168">
        <ele>974</ele>
        <time>2018-07-21T10:17:01.000Z</time>
      </trkpt>
      <trkpt lat="43.98091" lon="7.12173">
        <ele>971</ele>
        <time>2018-07-21T10:17:03.000Z</time>
      </trkpt>
      <trkpt lat="43.98093" lon="7.12179">
        <ele>967</ele>
        <time>2018-07-21T10:17:05.000Z</time>
      </trkpt>
      <trkpt lat="43.98092" lon="7.12182">
        <ele>966</ele>
        <time>2018-07-21T10:17:06.000Z</time>
      </trkpt>
      <trkpt lat="43.98088" lon="7.12181">
        <ele>967</ele>
        <time>2018-07-21T10:17:08.000Z</time>
      </trkpt>
      <trkpt lat="43.98085" lon="7.12181">
        <ele>968</ele>
        <time>2018-07-21T10:17:10.000Z</time>
      </trkpt>
      <trkpt lat="43.98085" lon="7.12184">
        <ele>966</ele>
        <time>2018-07-21T10:17:12.000Z</time>
      </trkpt>
      <trkpt lat="43.98089" lon="7.1219">
        <ele>962</ele>
        <time>2018-07-21T10:17:16.000Z</time>
      </trkpt>
      <trkpt lat="43.98087" lon="7.12193">
        <ele>961</ele>
        <time>2018-07-21T10:17:17.000Z</time>
      </trkpt>
      <trkpt lat="43.98082" lon="7.12192">
        <ele>967</ele>
        <time>2018-07-21T10:17:20.000Z</time>
      </trkpt>
      <trkpt lat="43.98081" lon="7.12193">
        <ele>967</ele>
        <time>2018-07-21T10:17:21.000Z</time>
      </trkpt>
      <trkpt lat="43.98081" lon="7.12197">
        <ele>966</ele>
        <time>2018-07-21T10:17:23.000Z</time>
      </trkpt>
      <trkpt lat="43.98083" lon="7.12199">
        <ele>965</ele>
        <time>2018-07-21T10:17:24.000Z</time>
      </trkpt>
      <trkpt lat="43.98088" lon="7.12201">
        <ele>958</ele>
        <time>2018-07-21T10:17:28.000Z</time>
      </trkpt>
      <trkpt lat="43.98091" lon="7.12201">
        <ele>958</ele>
        <time>2018-07-21T10:17:31.000Z</time>
      </trkpt>
      <trkpt lat="43.98098" lon="7.12205">
        <ele>956</ele>
        <time>2018-07-21T10:17:34.000Z</time>
      </trkpt>
      <trkpt lat="43.98106" lon="7.12208">
        <ele>954</ele>
        <time>2018-07-21T10:17:36.000Z</time>
      </trkpt>
      <trkpt lat="43.98115" lon="7.12211">
        <ele>952</ele>
        <time>2018-07-21T10:17:38.000Z</time>
      </trkpt>
      <trkpt lat="43.98119" lon="7.12213">
        <ele>951</ele>
        <time>2018-07-21T10:17:39.000Z</time>
      </trkpt>
      <trkpt lat="43.98122" lon="7.12213">
        <ele>950</ele>
        <time>2018-07-21T10:17:40.000Z</time>
      </trkpt>
      <trkpt lat="43.98125" lon="7.12214">
        <ele>949</ele>
        <time>2018-07-21T10:17:41.000Z</time>
      </trkpt>
      <trkpt lat="43.98126" lon="7.12217">
        <ele>949</ele>
        <time>2018-07-21T10:17:42.000Z</time>
      </trkpt>
      <trkpt lat="43.98125" lon="7.12222">
        <ele>948</ele>
        <time>2018-07-21T10:17:44.000Z</time>
      </trkpt>
      <trkpt lat="43.98122" lon="7.12228">
        <ele>948</ele>
        <time>2018-07-21T10:17:46.000Z</time>
      </trkpt>
      <trkpt lat="43.9812" lon="7.12234">
        <ele>948</ele>
        <time>2018-07-21T10:17:48.000Z</time>
      </trkpt>
      <trkpt lat="43.98118" lon="7.12236">
        <ele>949</ele>
        <time>2018-07-21T10:17:49.000Z</time>
      </trkpt>
      <trkpt lat="43.98117" lon="7.12238">
        <ele>949</ele>
        <time>2018-07-21T10:17:50.000Z</time>
      </trkpt>
      <trkpt lat="43.98118" lon="7.1224">
        <ele>948</ele>
        <time>2018-07-21T10:17:51.000Z</time>
      </trkpt>
      <trkpt lat="43.9812" lon="7.1224">
        <ele>948</ele>
        <time>2018-07-21T10:17:52.000Z</time>
      </trkpt>
      <trkpt lat="43.98125" lon="7.12239">
        <ele>947</ele>
        <time>2018-07-21T10:17:54.000Z</time>
      </trkpt>
      <trkpt lat="43.98129" lon="7.12238">
        <ele>946</ele>
        <time>2018-07-21T10:17:55.000Z</time>
      </trkpt>
      <trkpt lat="43.98134" lon="7.12237">
        <ele>945</ele>
        <time>2018-07-21T10:17:57.000Z</time>
      </trkpt>
      <trkpt lat="43.98138" lon="7.12237">
        <ele>944</ele>
        <time>2018-07-21T10:17:59.000Z</time>
      </trkpt>
      <trkpt lat="43.98139" lon="7.12238">
        <ele>943</ele>
        <time>2018-07-21T10:18:00.000Z</time>
      </trkpt>
      <trkpt lat="43.9814" lon="7.12238">
        <ele>943</ele>
        <time>2018-07-21T10:18:01.000Z</time>
      </trkpt>
      <trkpt lat="43.98142" lon="7.12242">
        <ele>942</ele>
        <time>2018-07-21T10:18:03.000Z</time>
      </trkpt>
      <trkpt lat="43.98141" lon="7.12243">
        <ele>942</ele>
        <time>2018-07-21T10:18:04.000Z</time>
      </trkpt>
      <trkpt lat="43.9814" lon="7.12247">
        <ele>942</ele>
        <time>2018-07-21T10:18:06.000Z</time>
      </trkpt>
      <trkpt lat="43.98139" lon="7.12253">
        <ele>930</ele>
        <time>2018-07-21T10:18:09.000Z</time>
      </trkpt>
      <trkpt lat="43.98138" lon="7.12254">
        <ele>930</ele>
        <time>2018-07-21T10:18:10.000Z</time>
      </trkpt>
      <trkpt lat="43.98135" lon="7.12259">
        <ele>931</ele>
        <time>2018-07-21T10:18:12.000Z</time>
      </trkpt>
      <trkpt lat="43.98128" lon="7.12266">
        <ele>931</ele>
        <time>2018-07-21T10:18:15.000Z</time>
      </trkpt>
      <trkpt lat="43.98127" lon="7.12269">
        <ele>931</ele>
        <time>2018-07-21T10:18:16.000Z</time>
      </trkpt>
      <trkpt lat="43.98129" lon="7.12271">
        <ele>930</ele>
        <time>2018-07-21T10:18:17.000Z</time>
      </trkpt>
      <trkpt lat="43.98134" lon="7.1227">
        <ele>930</ele>
        <time>2018-07-21T10:18:19.000Z</time>
      </trkpt>
      <trkpt lat="43.98138" lon="7.12271">
        <ele>929</ele>
        <time>2018-07-21T10:18:23.000Z</time>
      </trkpt>
      <trkpt lat="43.98139" lon="7.12272">
        <ele>929</ele>
        <time>2018-07-21T10:18:24.000Z</time>
      </trkpt>
      <trkpt lat="43.98141" lon="7.12275">
        <ele>929</ele>
        <time>2018-07-21T10:18:26.000Z</time>
      </trkpt>
      <trkpt lat="43.98142" lon="7.12276">
        <ele>929</ele>
        <time>2018-07-21T10:18:27.000Z</time>
      </trkpt>
      <trkpt lat="43.98145" lon="7.12277">
        <ele>928</ele>
        <time>2018-07-21T10:18:29.000Z</time>
      </trkpt>
      <trkpt lat="43.98145" lon="7.12281">
        <ele>928</ele>
        <time>2018-07-21T10:18:31.000Z</time>
      </trkpt>
      <trkpt lat="43.98144" lon="7.12283">
        <ele>928</ele>
        <time>2018-07-21T10:18:32.000Z</time>
      </trkpt>
      <trkpt lat="43.98143" lon="7.12285">
        <ele>927</ele>
        <time>2018-07-21T10:18:33.000Z</time>
      </trkpt>
      <trkpt lat="43.98145" lon="7.12285">
        <ele>927</ele>
        <time>2018-07-21T10:18:34.000Z</time>
      </trkpt>
      <trkpt lat="43.98146" lon="7.12285">
        <ele>927</ele>
        <time>2018-07-21T10:18:35.000Z</time>
      </trkpt>
      <trkpt lat="43.9815" lon="7.12285">
        <ele>927</ele>
        <time>2018-07-21T10:18:37.000Z</time>
      </trkpt>
      <trkpt lat="43.98151" lon="7.12287">
        <ele>927</ele>
        <time>2018-07-21T10:18:38.000Z</time>
      </trkpt>
      <trkpt lat="43.98146" lon="7.12294">
        <ele>926</ele>
        <time>2018-07-21T10:18:41.000Z</time>
      </trkpt>
      <trkpt lat="43.98138" lon="7.12299">
        <ele>926</ele>
        <time>2018-07-21T10:18:44.000Z</time>
      </trkpt>
      <trkpt lat="43.98133" lon="7.12302">
        <ele>926</ele>
        <time>2018-07-21T10:18:46.000Z</time>
      </trkpt>
      <trkpt lat="43.98132" lon="7.12303">
        <ele>926</ele>
        <time>2018-07-21T10:18:47.000Z</time>
      </trkpt>
      <trkpt lat="43.98133" lon="7.12304">
        <ele>926</ele>
        <time>2018-07-21T10:18:48.000Z</time>
      </trkpt>
      <trkpt lat="43.98134" lon="7.12304">
        <ele>926</ele>
        <time>2018-07-21T10:18:50.000Z</time>
      </trkpt>
      <trkpt lat="43.98135" lon="7.12304">
        <ele>926</ele>
        <time>2018-07-21T10:18:51.000Z</time>
      </trkpt>
      <trkpt lat="43.98139" lon="7.12306">
        <ele>925</ele>
        <time>2018-07-21T10:18:53.000Z</time>
      </trkpt>
      <trkpt lat="43.9814" lon="7.12307">
        <ele>925</ele>
        <time>2018-07-21T10:18:54.000Z</time>
      </trkpt>
      <trkpt lat="43.98145" lon="7.12309">
        <ele>924</ele>
        <time>2018-07-21T10:18:56.000Z</time>
      </trkpt>
      <trkpt lat="43.98147" lon="7.1231">
        <ele>924</ele>
        <time>2018-07-21T10:18:58.000Z</time>
      </trkpt>
      <trkpt lat="43.98148" lon="7.12311">
        <ele>924</ele>
        <time>2018-07-21T10:18:59.000Z</time>
      </trkpt>
      <trkpt lat="43.98149" lon="7.12311">
        <ele>923</ele>
        <time>2018-07-21T10:19:00.000Z</time>
      </trkpt>
      <trkpt lat="43.98151" lon="7.12311">
        <ele>923</ele>
        <time>2018-07-21T10:19:01.000Z</time>
      </trkpt>
      <trkpt lat="43.98158" lon="7.12311">
        <ele>923</ele>
        <time>2018-07-21T10:19:03.000Z</time>
      </trkpt>
      <trkpt lat="43.98161" lon="7.12311">
        <ele>922</ele>
        <time>2018-07-21T10:19:04.000Z</time>
      </trkpt>
      <trkpt lat="43.98169" lon="7.12311">
        <ele>910</ele>
        <time>2018-07-21T10:19:07.000Z</time>
      </trkpt>
      <trkpt lat="43.98174" lon="7.12311">
        <ele>909</ele>
        <time>2018-07-21T10:19:09.000Z</time>
      </trkpt>
      <trkpt lat="43.98176" lon="7.1231">
        <ele>909</ele>
        <time>2018-07-21T10:19:10.000Z</time>
      </trkpt>
      <trkpt lat="43.98179" lon="7.12305">
        <ele>909</ele>
        <time>2018-07-21T10:19:12.000Z</time>
      </trkpt>
      <trkpt lat="43.98182" lon="7.12298">
        <ele>908</ele>
        <time>2018-07-21T10:19:14.000Z</time>
      </trkpt>
      <trkpt lat="43.98184" lon="7.12289">
        <ele>909</ele>
        <time>2018-07-21T10:19:16.000Z</time>
      </trkpt>
      <trkpt lat="43.98186" lon="7.12285">
        <ele>909</ele>
        <time>2018-07-21T10:19:17.000Z</time>
      </trkpt>
      <trkpt lat="43.98188" lon="7.12282">
        <ele>909</ele>
        <time>2018-07-21T10:19:18.000Z</time>
      </trkpt>
      <trkpt lat="43.98196" lon="7.12273">
        <ele>909</ele>
        <time>2018-07-21T10:19:21.000Z</time>
      </trkpt>
      <trkpt lat="43.98197" lon="7.1227">
        <ele>909</ele>
        <time>2018-07-21T10:19:22.000Z</time>
      </trkpt>
      <trkpt lat="43.98198" lon="7.12269">
        <ele>909</ele>
        <time>2018-07-21T10:19:24.000Z</time>
      </trkpt>
      <trkpt lat="43.98199" lon="7.12269">
        <ele>908</ele>
        <time>2018-07-21T10:19:25.000Z</time>
      </trkpt>
      <trkpt lat="43.98204" lon="7.12273">
        <ele>907</ele>
        <time>2018-07-21T10:19:27.000Z</time>
      </trkpt>
      <trkpt lat="43.98206" lon="7.12277">
        <ele>906</ele>
        <time>2018-07-21T10:19:28.000Z</time>
      </trkpt>
      <trkpt lat="43.98209" lon="7.12281">
        <ele>905</ele>
        <time>2018-07-21T10:19:29.000Z</time>
      </trkpt>
      <trkpt lat="43.98214" lon="7.12286">
        <ele>903</ele>
        <time>2018-07-21T10:19:31.000Z</time>
      </trkpt>
      <trkpt lat="43.98216" lon="7.12289">
        <ele>903</ele>
        <time>2018-07-21T10:19:32.000Z</time>
      </trkpt>
      <trkpt lat="43.98217" lon="7.12291">
        <ele>902</ele>
        <time>2018-07-21T10:19:33.000Z</time>
      </trkpt>
      <trkpt lat="43.9822" lon="7.12296">
        <ele>901</ele>
        <time>2018-07-21T10:19:35.000Z</time>
      </trkpt>
      <trkpt lat="43.98221" lon="7.12298">
        <ele>901</ele>
        <time>2018-07-21T10:19:36.000Z</time>
      </trkpt>
      <trkpt lat="43.98223" lon="7.12301">
        <ele>900</ele>
        <time>2018-07-21T10:19:37.000Z</time>
      </trkpt>
      <trkpt lat="43.98224" lon="7.12304">
        <ele>899</ele>
        <time>2018-07-21T10:19:38.000Z</time>
      </trkpt>
      <trkpt lat="43.98224" lon="7.12303">
        <ele>899</ele>
        <time>2018-07-21T10:19:39.000Z</time>
      </trkpt>
      <trkpt lat="43.98224" lon="7.12304">
        <ele>899</ele>
        <time>2018-07-21T10:19:40.000Z</time>
      </trkpt>
      <trkpt lat="43.98224" lon="7.12305">
        <ele>899</ele>
        <time>2018-07-21T10:19:41.000Z</time>
      </trkpt>
      <trkpt lat="43.98225" lon="7.12305">
        <ele>899</ele>
        <time>2018-07-21T10:19:42.000Z</time>
      </trkpt>
      <trkpt lat="43.98229" lon="7.12311">
        <ele>897</ele>
        <time>2018-07-21T10:19:46.000Z</time>
      </trkpt>
      <trkpt lat="43.98236" lon="7.12308">
        <ele>896</ele>
        <time>2018-07-21T10:19:49.000Z</time>
      </trkpt>
      <trkpt lat="43.98238" lon="7.12305">
        <ele>896</ele>
        <time>2018-07-21T10:19:50.000Z</time>
      </trkpt>
      <trkpt lat="43.98241" lon="7.12302">
        <ele>896</ele>
        <time>2018-07-21T10:19:51.000Z</time>
      </trkpt>
      <trkpt lat="43.98245" lon="7.12294">
        <ele>897</ele>
        <time>2018-07-21T10:19:53.000Z</time>
      </trkpt>
      <trkpt lat="43.98246" lon="7.12291">
        <ele>898</ele>
        <time>2018-07-21T10:19:54.000Z</time>
      </trkpt>
      <trkpt lat="43.98245" lon="7.12286">
        <ele>899</ele>
        <time>2018-07-21T10:19:56.000Z</time>
      </trkpt>
      <trkpt lat="43.98246" lon="7.12284">
        <ele>899</ele>
        <time>2018-07-21T10:19:57.000Z</time>
      </trkpt>
      <trkpt lat="43.98246" lon="7.12284">
        <ele>899</ele>
        <time>2018-07-21T10:19:58.000Z</time>
      </trkpt>
      <trkpt lat="43.98247" lon="7.12285">
        <ele>898</ele>
        <time>2018-07-21T10:19:59.000Z</time>
      </trkpt>
      <trkpt lat="43.9825" lon="7.12286">
        <ele>882</ele>
        <time>2018-07-21T10:20:01.000Z</time>
      </trkpt>
      <trkpt lat="43.98255" lon="7.12289">
        <ele>881</ele>
        <time>2018-07-21T10:20:03.000Z</time>
      </trkpt>
      <trkpt lat="43.98257" lon="7.12292">
        <ele>880</ele>
        <time>2018-07-21T10:20:04.000Z</time>
      </trkpt>
      <trkpt lat="43.98257" lon="7.12297">
        <ele>879</ele>
        <time>2018-07-21T10:20:06.000Z</time>
      </trkpt>
      <trkpt lat="43.98257" lon="7.12305">
        <ele>879</ele>
        <time>2018-07-21T10:20:08.000Z</time>
      </trkpt>
      <trkpt lat="43.98255" lon="7.12314">
        <ele>878</ele>
        <time>2018-07-21T10:20:10.000Z</time>
      </trkpt>
      <trkpt lat="43.98254" lon="7.12319">
        <ele>878</ele>
        <time>2018-07-21T10:20:12.000Z</time>
      </trkpt>
      <trkpt lat="43.98254" lon="7.12319">
        <ele>878</ele>
        <time>2018-07-21T10:20:13.000Z</time>
      </trkpt>
      <trkpt lat="43.98257" lon="7.12317">
        <ele>878</ele>
        <time>2018-07-21T10:20:15.000Z</time>
      </trkpt>
      <trkpt lat="43.98261" lon="7.12312">
        <ele>878</ele>
        <time>2018-07-21T10:20:17.000Z</time>
      </trkpt>
      <trkpt lat="43.98263" lon="7.1231">
        <ele>878</ele>
        <time>2018-07-21T10:20:18.000Z</time>
      </trkpt>
      <trkpt lat="43.98268" lon="7.12305">
        <ele>878</ele>
        <time>2018-07-21T10:20:20.000Z</time>
      </trkpt>
      <trkpt lat="43.98274" lon="7.123">
        <ele>878</ele>
        <time>2018-07-21T10:20:22.000Z</time>
      </trkpt>
      <trkpt lat="43.98276" lon="7.12297">
        <ele>878</ele>
        <time>2018-07-21T10:20:23.000Z</time>
      </trkpt>
      <trkpt lat="43.98278" lon="7.12293">
        <ele>878</ele>
        <time>2018-07-21T10:20:24.000Z</time>
      </trkpt>
      <trkpt lat="43.98281" lon="7.12287">
        <ele>879</ele>
        <time>2018-07-21T10:20:26.000Z</time>
      </trkpt>
      <trkpt lat="43.98282" lon="7.12287">
        <ele>879</ele>
        <time>2018-07-21T10:20:27.000Z</time>
      </trkpt>
      <trkpt lat="43.98283" lon="7.12288">
        <ele>878</ele>
        <time>2018-07-21T10:20:28.000Z</time>
      </trkpt>
      <trkpt lat="43.98283" lon="7.12294">
        <ele>878</ele>
        <time>2018-07-21T10:20:31.000Z</time>
      </trkpt>
      <trkpt lat="43.98283" lon="7.12302">
        <ele>877</ele>
        <time>2018-07-21T10:20:33.000Z</time>
      </trkpt>
      <trkpt lat="43.98283" lon="7.12306">
        <ele>876</ele>
        <time>2018-07-21T10:20:34.000Z</time>
      </trkpt>
      <trkpt lat="43.98283" lon="7.12315">
        <ele>875</ele>
        <time>2018-07-21T10:20:36.000Z</time>
      </trkpt>
      <trkpt lat="43.98283" lon="7.12322">
        <ele>875</ele>
        <time>2018-07-21T10:20:38.000Z</time>
      </trkpt>
      <trkpt lat="43.98282" lon="7.1233">
        <ele>874</ele>
        <time>2018-07-21T10:20:40.000Z</time>
      </trkpt>
      <trkpt lat="43.98282" lon="7.12334">
        <ele>860</ele>
        <time>2018-07-21T10:20:41.000Z</time>
      </trkpt>
      <trkpt lat="43.98281" lon="7.12338">
        <ele>860</ele>
        <time>2018-07-21T10:20:42.000Z</time>
      </trkpt>
      <trkpt lat="43.98279" lon="7.1234">
        <ele>860</ele>
        <time>2018-07-21T10:20:43.000Z</time>
      </trkpt>
      <trkpt lat="43.9828" lon="7.1234">
        <ele>860</ele>
        <time>2018-07-21T10:20:44.000Z</time>
      </trkpt>
      <trkpt lat="43.98279" lon="7.12341">
        <ele>860</ele>
        <time>2018-07-21T10:20:45.000Z</time>
      </trkpt>
      <trkpt lat="43.98279" lon="7.12342">
        <ele>860</ele>
        <time>2018-07-21T10:20:50.000Z</time>
      </trkpt>
      <trkpt lat="43.98279" lon="7.12343">
        <ele>860</ele>
        <time>2018-07-21T10:20:52.000Z</time>
      </trkpt>
      <trkpt lat="43.98277" lon="7.12344">
        <ele>861</ele>
        <time>2018-07-21T10:20:59.000Z</time>
      </trkpt>
      <trkpt lat="43.98276" lon="7.12344">
        <ele>861</ele>
        <time>2018-07-21T10:21:09.000Z</time>
      </trkpt>
      <trkpt lat="43.98275" lon="7.12345">
        <ele>861</ele>
        <time>2018-07-21T10:21:16.000Z</time>
      </trkpt>
      <trkpt lat="43.98274" lon="7.12346">
        <ele>861</ele>
        <time>2018-07-21T10:21:36.000Z</time>
      </trkpt>
      <trkpt lat="43.98274" lon="7.12346">
        <ele>861</ele>
        <time>2018-07-21T10:22:03.000Z</time>
      </trkpt>
      <trkpt lat="43.98273" lon="7.12347">
        <ele>861</ele>
        <time>2018-07-21T10:22:20.000Z</time>
      </trkpt>
      <trkpt lat="43.98272" lon="7.12348">
        <ele>862</ele>
        <time>2018-07-21T10:22:29.000Z</time>
      </trkpt>
      <trkpt lat="43.9827" lon="7.12349">
        <ele>862</ele>
        <time>2018-07-21T10:22:34.000Z</time>
      </trkpt>
      <trkpt lat="43.98267" lon="7.12354">
        <ele>861</ele>
        <time>2018-07-21T10:22:36.000Z</time>
      </trkpt>
      <trkpt lat="43.98257" lon="7.12367">
        <ele>859</ele>
        <time>2018-07-21T10:22:40.000Z</time>
      </trkpt>
      <trkpt lat="43.98255" lon="7.1237">
        <ele>858</ele>
        <time>2018-07-21T10:22:42.000Z</time>
      </trkpt>
      <trkpt lat="43.98256" lon="7.12372">
        <ele>858</ele>
        <time>2018-07-21T10:22:43.000Z</time>
      </trkpt>
      <trkpt lat="43.98257" lon="7.12372">
        <ele>858</ele>
        <time>2018-07-21T10:22:44.000Z</time>
      </trkpt>
      <trkpt lat="43.98262" lon="7.12369">
        <ele>858</ele>
        <time>2018-07-21T10:22:46.000Z</time>
      </trkpt>
      <trkpt lat="43.98266" lon="7.12367">
        <ele>858</ele>
        <time>2018-07-21T10:22:47.000Z</time>
      </trkpt>
      <trkpt lat="43.98274" lon="7.12366">
        <ele>857</ele>
        <time>2018-07-21T10:22:49.000Z</time>
      </trkpt>
      <trkpt lat="43.98283" lon="7.12364">
        <ele>856</ele>
        <time>2018-07-21T10:22:51.000Z</time>
      </trkpt>
      <trkpt lat="43.98288" lon="7.12362">
        <ele>855</ele>
        <time>2018-07-21T10:22:52.000Z</time>
      </trkpt>
      <trkpt lat="43.98295" lon="7.12357">
        <ele>855</ele>
        <time>2018-07-21T10:22:54.000Z</time>
      </trkpt>
      <trkpt lat="43.98297" lon="7.12354">
        <ele>855</ele>
        <time>2018-07-21T10:22:55.000Z</time>
      </trkpt>
      <trkpt lat="43.98301" lon="7.12351">
        <ele>854</ele>
        <time>2018-07-21T10:22:57.000Z</time>
      </trkpt>
      <trkpt lat="43.98302" lon="7.12353">
        <ele>854</ele>
        <time>2018-07-21T10:22:58.000Z</time>
      </trkpt>
      <trkpt lat="43.98301" lon="7.1236">
        <ele>853</ele>
        <time>2018-07-21T10:23:00.000Z</time>
      </trkpt>
      <trkpt lat="43.98299" lon="7.1237">
        <ele>852</ele>
        <time>2018-07-21T10:23:02.000Z</time>
      </trkpt>
      <trkpt lat="43.98296" lon="7.12379">
        <ele>851</ele>
        <time>2018-07-21T10:23:04.000Z</time>
      </trkpt>
      <trkpt lat="43.98291" lon="7.12385">
        <ele>851</ele>
        <time>2018-07-21T10:23:06.000Z</time>
      </trkpt>
      <trkpt lat="43.98284" lon="7.12388">
        <ele>852</ele>
        <time>2018-07-21T10:23:08.000Z</time>
      </trkpt>
      <trkpt lat="43.98279" lon="7.12391">
        <ele>852</ele>
        <time>2018-07-21T10:23:10.000Z</time>
      </trkpt>
      <trkpt lat="43.98279" lon="7.12392">
        <ele>852</ele>
        <time>2018-07-21T10:23:11.000Z</time>
      </trkpt>
      <trkpt lat="43.98279" lon="7.12393">
        <ele>852</ele>
        <time>2018-07-21T10:23:12.000Z</time>
      </trkpt>
      <trkpt lat="43.9828" lon="7.12393">
        <ele>852</ele>
        <time>2018-07-21T10:23:13.000Z</time>
      </trkpt>
      <trkpt lat="43.98283" lon="7.12393">
        <ele>852</ele>
        <time>2018-07-21T10:23:15.000Z</time>
      </trkpt>
      <trkpt lat="43.98285" lon="7.12392">
        <ele>851</ele>
        <time>2018-07-21T10:23:16.000Z</time>
      </trkpt>
      <trkpt lat="43.98293" lon="7.1239">
        <ele>850</ele>
        <time>2018-07-21T10:23:19.000Z</time>
      </trkpt>
      <trkpt lat="43.98296" lon="7.12389">
        <ele>850</ele>
        <time>2018-07-21T10:23:20.000Z</time>
      </trkpt>
      <trkpt lat="43.98303" lon="7.1239">
        <ele>849</ele>
        <time>2018-07-21T10:23:23.000Z</time>
      </trkpt>
      <trkpt lat="43.98303" lon="7.12391">
        <ele>848</ele>
        <time>2018-07-21T10:23:24.000Z</time>
      </trkpt>
      <trkpt lat="43.98303" lon="7.12393">
        <ele>848</ele>
        <time>2018-07-21T10:23:25.000Z</time>
      </trkpt>
      <trkpt lat="43.983" lon="7.12395">
        <ele>848</ele>
        <time>2018-07-21T10:23:27.000Z</time>
      </trkpt>
      <trkpt lat="43.98294" lon="7.12399">
        <ele>849</ele>
        <time>2018-07-21T10:23:29.000Z</time>
      </trkpt>
      <trkpt lat="43.98291" lon="7.12402">
        <ele>849</ele>
        <time>2018-07-21T10:23:30.000Z</time>
      </trkpt>
      <trkpt lat="43.98285" lon="7.12405">
        <ele>850</ele>
        <time>2018-07-21T10:23:32.000Z</time>
      </trkpt>
      <trkpt lat="43.98284" lon="7.12407">
        <ele>850</ele>
        <time>2018-07-21T10:23:33.000Z</time>
      </trkpt>
      <trkpt lat="43.98284" lon="7.12408">
        <ele>850</ele>
        <time>2018-07-21T10:23:34.000Z</time>
      </trkpt>
      <trkpt lat="43.98286" lon="7.12408">
        <ele>850</ele>
        <time>2018-07-21T10:23:37.000Z</time>
      </trkpt>
      <trkpt lat="43.9829" lon="7.12407">
        <ele>849</ele>
        <time>2018-07-21T10:23:42.000Z</time>
      </trkpt>
      <trkpt lat="43.98293" lon="7.12406">
        <ele>849</ele>
        <time>2018-07-21T10:23:44.000Z</time>
      </trkpt>
      <trkpt lat="43.98305" lon="7.12408">
        <ele>845</ele>
        <time>2018-07-21T10:23:48.000Z</time>
      </trkpt>
      <trkpt lat="43.98311" lon="7.12407">
        <ele>843</ele>
        <time>2018-07-21T10:23:50.000Z</time>
      </trkpt>
      <trkpt lat="43.98317" lon="7.12403">
        <ele>842</ele>
        <time>2018-07-21T10:23:52.000Z</time>
      </trkpt>
      <trkpt lat="43.9832" lon="7.12401">
        <ele>842</ele>
        <time>2018-07-21T10:23:53.000Z</time>
      </trkpt>
      <trkpt lat="43.98322" lon="7.12398">
        <ele>842</ele>
        <time>2018-07-21T10:23:54.000Z</time>
      </trkpt>
      <trkpt lat="43.98326" lon="7.12393">
        <ele>843</ele>
        <time>2018-07-21T10:23:56.000Z</time>
      </trkpt>
      <trkpt lat="43.98328" lon="7.1239">
        <ele>844</ele>
        <time>2018-07-21T10:23:57.000Z</time>
      </trkpt>
      <trkpt lat="43.98333" lon="7.12384">
        <ele>846</ele>
        <time>2018-07-21T10:23:59.000Z</time>
      </trkpt>
      <trkpt lat="43.98334" lon="7.1238">
        <ele>843</ele>
        <time>2018-07-21T10:24:00.000Z</time>
      </trkpt>
      <trkpt lat="43.98336" lon="7.12378">
        <ele>843</ele>
        <time>2018-07-21T10:24:01.000Z</time>
      </trkpt>
      <trkpt lat="43.9834" lon="7.12379">
        <ele>843</ele>
        <time>2018-07-21T10:24:03.000Z</time>
      </trkpt>
      <trkpt lat="43.98342" lon="7.12382">
        <ele>843</ele>
        <time>2018-07-21T10:24:04.000Z</time>
      </trkpt>
      <trkpt lat="43.98344" lon="7.12393">
        <ele>840</ele>
        <time>2018-07-21T10:24:07.000Z</time>
      </trkpt>
      <trkpt lat="43.98344" lon="7.12397">
        <ele>839</ele>
        <time>2018-07-21T10:24:08.000Z</time>
      </trkpt>
      <trkpt lat="43.98351" lon="7.12403">
        <ele>839</ele>
        <time>2018-07-21T10:24:11.000Z</time>
      </trkpt>
      <trkpt lat="43.98365" lon="7.12398">
        <ele>843</ele>
        <time>2018-07-21T10:24:15.000Z</time>
      </trkpt>
      <trkpt lat="43.9837" lon="7.12396">
        <ele>844</ele>
        <time>2018-07-21T10:24:16.000Z</time>
      </trkpt>
      <trkpt lat="43.98379" lon="7.12393">
        <ele>845</ele>
        <time>2018-07-21T10:24:19.000Z</time>
      </trkpt>
      <trkpt lat="43.9838" lon="7.12393">
        <ele>845</ele>
        <time>2018-07-21T10:24:20.000Z</time>
      </trkpt>
      <trkpt lat="43.98387" lon="7.12398">
        <ele>846</ele>
        <time>2018-07-21T10:24:24.000Z</time>
      </trkpt>
      <trkpt lat="43.98388" lon="7.12398">
        <ele>846</ele>
        <time>2018-07-21T10:24:26.000Z</time>
      </trkpt>
      <trkpt lat="43.98388" lon="7.12398">
        <ele>846</ele>
        <time>2018-07-21T10:24:28.000Z</time>
      </trkpt>
      <trkpt lat="43.98388" lon="7.12398">
        <ele>846</ele>
        <time>2018-07-21T10:24:29.000Z</time>
      </trkpt>
      <trkpt lat="43.9839" lon="7.124">
        <ele>846</ele>
        <time>2018-07-21T10:24:35.000Z</time>
      </trkpt>
      <trkpt lat="43.98395" lon="7.12402">
        <ele>847</ele>
        <time>2018-07-21T10:24:43.000Z</time>
      </trkpt>
      <trkpt lat="43.98395" lon="7.12403">
        <ele>847</ele>
        <time>2018-07-21T10:24:46.000Z</time>
      </trkpt>
      <trkpt lat="43.98394" lon="7.12404">
        <ele>847</ele>
        <time>2018-07-21T10:24:48.000Z</time>
      </trkpt>
      <trkpt lat="43.9839" lon="7.12402">
        <ele>846</ele>
        <time>2018-07-21T10:24:53.000Z</time>
      </trkpt>
      <trkpt lat="43.98388" lon="7.12401">
        <ele>846</ele>
        <time>2018-07-21T10:24:55.000Z</time>
      </trkpt>
      <trkpt lat="43.98383" lon="7.12397">
        <ele>845</ele>
        <time>2018-07-21T10:25:01.000Z</time>
      </trkpt>
      <trkpt lat="43.98377" lon="7.12391">
        <ele>845</ele>
        <time>2018-07-21T10:25:09.000Z</time>
      </trkpt>
      <trkpt lat="43.98373" lon="7.1239">
        <ele>845</ele>
        <time>2018-07-21T10:25:13.000Z</time>
      </trkpt>
      <trkpt lat="43.98372" lon="7.1239">
        <ele>845</ele>
        <time>2018-07-21T10:25:15.000Z</time>
      </trkpt>
      <trkpt lat="43.98367" lon="7.12393">
        <ele>844</ele>
        <time>2018-07-21T10:25:21.000Z</time>
      </trkpt>
      <trkpt lat="43.98363" lon="7.12393">
        <ele>843</ele>
        <time>2018-07-21T10:25:25.000Z</time>
      </trkpt>
      <trkpt lat="43.9836" lon="7.12395">
        <ele>842</ele>
        <time>2018-07-21T10:25:28.000Z</time>
      </trkpt>
      <trkpt lat="43.98354" lon="7.12397">
        <ele>841</ele>
        <time>2018-07-21T10:25:35.000Z</time>
      </trkpt>
      <trkpt lat="43.98351" lon="7.12397">
        <ele>840</ele>
        <time>2018-07-21T10:25:39.000Z</time>
      </trkpt>
      <trkpt lat="43.98349" lon="7.12398">
        <ele>840</ele>
        <time>2018-07-21T10:25:42.000Z</time>
      </trkpt>
      <trkpt lat="43.98345" lon="7.12401">
        <ele>838</ele>
        <time>2018-07-21T10:25:48.000Z</time>
      </trkpt>
      <trkpt lat="43.98344" lon="7.12402">
        <ele>838</ele>
        <time>2018-07-21T10:25:50.000Z</time>
      </trkpt>
      <trkpt lat="43.98343" lon="7.12403">
        <ele>837</ele>
        <time>2018-07-21T10:25:53.000Z</time>
      </trkpt>
      <trkpt lat="43.9834" lon="7.12407">
        <ele>835</ele>
        <time>2018-07-21T10:25:58.000Z</time>
      </trkpt>
      <trkpt lat="43.98339" lon="7.12409">
        <ele>834</ele>
        <time>2018-07-21T10:26:00.000Z</time>
      </trkpt>
      <trkpt lat="43.98336" lon="7.12411">
        <ele>832</ele>
        <time>2018-07-21T10:26:05.000Z</time>
      </trkpt>
      <trkpt lat="43.98335" lon="7.12411">
        <ele>832</ele>
        <time>2018-07-21T10:26:06.000Z</time>
      </trkpt>
      <trkpt lat="43.98333" lon="7.12415">
        <ele>830</ele>
        <time>2018-07-21T10:26:11.000Z</time>
      </trkpt>
      <trkpt lat="43.98333" lon="7.12418">
        <ele>828</ele>
        <time>2018-07-21T10:26:14.000Z</time>
      </trkpt>
      <trkpt lat="43.98333" lon="7.1242">
        <ele>829</ele>
        <time>2018-07-21T10:26:16.000Z</time>
      </trkpt>
      <trkpt lat="43.98334" lon="7.12423">
        <ele>832</ele>
        <time>2018-07-21T10:26:22.000Z</time>
      </trkpt>
      <trkpt lat="43.98335" lon="7.12425">
        <ele>833</ele>
        <time>2018-07-21T10:26:26.000Z</time>
      </trkpt>
      <trkpt lat="43.98335" lon="7.12426">
        <ele>834</ele>
        <time>2018-07-21T10:26:27.000Z</time>
      </trkpt>
      <trkpt lat="43.98336" lon="7.1243">
        <ele>836</ele>
        <time>2018-07-21T10:26:32.000Z</time>
      </trkpt>
      <trkpt lat="43.98331" lon="7.12442">
        <ele>832</ele>
        <time>2018-07-21T10:26:36.000Z</time>
      </trkpt>
      <trkpt lat="43.98327" lon="7.12449">
        <ele>833</ele>
        <time>2018-07-21T10:26:40.000Z</time>
      </trkpt>
      <trkpt lat="43.98326" lon="7.1245">
        <ele>833</ele>
        <time>2018-07-21T10:26:42.000Z</time>
      </trkpt>
      <trkpt lat="43.98326" lon="7.12451">
        <ele>833</ele>
        <time>2018-07-21T10:26:52.000Z</time>
      </trkpt>
      <trkpt lat="43.98327" lon="7.12454">
        <ele>833</ele>
        <time>2018-07-21T10:27:01.000Z</time>
      </trkpt>
      <trkpt lat="43.98327" lon="7.12453">
        <ele>833</ele>
        <time>2018-07-21T10:27:16.000Z</time>
      </trkpt>
      <trkpt lat="43.98327" lon="7.12454">
        <ele>833</ele>
        <time>2018-07-21T10:27:27.000Z</time>
      </trkpt>
      <trkpt lat="43.98324" lon="7.12452">
        <ele>833</ele>
        <time>2018-07-21T10:27:38.000Z</time>
      </trkpt>
      <trkpt lat="43.98324" lon="7.12452">
        <ele>833</ele>
        <time>2018-07-21T10:27:45.000Z</time>
      </trkpt>
      <trkpt lat="43.98323" lon="7.12452">
        <ele>833</ele>
        <time>2018-07-21T10:28:06.000Z</time>
      </trkpt>
      <trkpt lat="43.98322" lon="7.1245">
        <ele>833</ele>
        <time>2018-07-21T10:28:21.000Z</time>
      </trkpt>
      <trkpt lat="43.98322" lon="7.1245">
        <ele>833</ele>
        <time>2018-07-21T10:28:41.000Z</time>
      </trkpt>
      <trkpt lat="43.98321" lon="7.12449">
        <ele>833</ele>
        <time>2018-07-21T10:28:57.000Z</time>
      </trkpt>
      <trkpt lat="43.98318" lon="7.1245">
        <ele>833</ele>
        <time>2018-07-21T10:29:10.000Z</time>
      </trkpt>
      <trkpt lat="43.98307" lon="7.1246">
        <ele>834</ele>
        <time>2018-07-21T10:29:15.000Z</time>
      </trkpt>
      <trkpt lat="43.98291" lon="7.12474">
        <ele>833</ele>
        <time>2018-07-21T10:29:19.000Z</time>
      </trkpt>
      <trkpt lat="43.98287" lon="7.12478">
        <ele>833</ele>
        <time>2018-07-21T10:29:20.000Z</time>
      </trkpt>
      <trkpt lat="43.9828" lon="7.12488">
        <ele>831</ele>
        <time>2018-07-21T10:29:22.000Z</time>
      </trkpt>
      <trkpt lat="43.98277" lon="7.12493">
        <ele>830</ele>
        <time>2018-07-21T10:29:23.000Z</time>
      </trkpt>
      <trkpt lat="43.98274" lon="7.12501">
        <ele>827</ele>
        <time>2018-07-21T10:29:24.000Z</time>
      </trkpt>
      <trkpt lat="43.98272" lon="7.12509">
        <ele>827</ele>
        <time>2018-07-21T10:29:25.000Z</time>
      </trkpt>
      <trkpt lat="43.9827" lon="7.12517">
        <ele>827</ele>
        <time>2018-07-21T10:29:26.000Z</time>
      </trkpt>
      <trkpt lat="43.98267" lon="7.12532">
        <ele>828</ele>
        <time>2018-07-21T10:29:28.000Z</time>
      </trkpt>
      <trkpt lat="43.98262" lon="7.1255">
        <ele>826</ele>
        <time>2018-07-21T10:29:31.000Z</time>
      </trkpt>
      <trkpt lat="43.98259" lon="7.12558">
        <ele>825</ele>
        <time>2018-07-21T10:29:35.000Z</time>
      </trkpt>
      <trkpt lat="43.9826" lon="7.12561">
        <ele>824</ele>
        <time>2018-07-21T10:29:40.000Z</time>
      </trkpt>
      <trkpt lat="43.98258" lon="7.12562">
        <ele>823</ele>
        <time>2018-07-21T10:29:44.000Z</time>
      </trkpt>
      <trkpt lat="43.98258" lon="7.12562">
        <ele>823</ele>
        <time>2018-07-21T10:29:51.000Z</time>
      </trkpt>
      <trkpt lat="43.98258" lon="7.12555">
        <ele>825</ele>
        <time>2018-07-21T10:29:59.000Z</time>
      </trkpt>
      <trkpt lat="43.98258" lon="7.12554">
        <ele>825</ele>
        <time>2018-07-21T10:30:00.000Z</time>
      </trkpt>
      <trkpt lat="43.98259" lon="7.12545">
        <ele>826</ele>
        <time>2018-07-21T10:30:04.000Z</time>
      </trkpt>
      <trkpt lat="43.98259" lon="7.12542">
        <ele>827</ele>
        <time>2018-07-21T10:30:05.000Z</time>
      </trkpt>
      <trkpt lat="43.9826" lon="7.12537">
        <ele>827</ele>
        <time>2018-07-21T10:30:06.000Z</time>
      </trkpt>
      <trkpt lat="43.98261" lon="7.12527">
        <ele>827</ele>
        <time>2018-07-21T10:30:08.000Z</time>
      </trkpt>
      <trkpt lat="43.98262" lon="7.12522">
        <ele>826</ele>
        <time>2018-07-21T10:30:09.000Z</time>
      </trkpt>
      <trkpt lat="43.98262" lon="7.12514">
        <ele>825</ele>
        <time>2018-07-21T10:30:11.000Z</time>
      </trkpt>
      <trkpt lat="43.98262" lon="7.12507">
        <ele>825</ele>
        <time>2018-07-21T10:30:13.000Z</time>
      </trkpt>
      <trkpt lat="43.98264" lon="7.12496">
        <ele>827</ele>
        <time>2018-07-21T10:30:15.000Z</time>
      </trkpt>
      <trkpt lat="43.98265" lon="7.12489">
        <ele>828</ele>
        <time>2018-07-21T10:30:16.000Z</time>
      </trkpt>
      <trkpt lat="43.98266" lon="7.12484">
        <ele>829</ele>
        <time>2018-07-21T10:30:17.000Z</time>
      </trkpt>
      <trkpt lat="43.98267" lon="7.12481">
        <ele>830</ele>
        <time>2018-07-21T10:30:18.000Z</time>
      </trkpt>
      <trkpt lat="43.98268" lon="7.12479">
        <ele>831</ele>
        <time>2018-07-21T10:30:19.000Z</time>
      </trkpt>
      <trkpt lat="43.9827" lon="7.12477">
        <ele>831</ele>
        <time>2018-07-21T10:30:21.000Z</time>
      </trkpt>
      <trkpt lat="43.98271" lon="7.12475">
        <ele>832</ele>
        <time>2018-07-21T10:30:24.000Z</time>
      </trkpt>
      <trkpt lat="43.98273" lon="7.12473">
        <ele>832</ele>
        <time>2018-07-21T10:30:26.000Z</time>
      </trkpt>
      <trkpt lat="43.98272" lon="7.12471">
        <ele>833</ele>
        <time>2018-07-21T10:30:29.000Z</time>
      </trkpt>
      <trkpt lat="43.98272" lon="7.1247">
        <ele>833</ele>
        <time>2018-07-21T10:30:30.000Z</time>
      </trkpt>
      <trkpt lat="43.98272" lon="7.12468">
        <ele>833</ele>
        <time>2018-07-21T10:30:31.000Z</time>
      </trkpt>
      <trkpt lat="43.9827" lon="7.12465">
        <ele>834</ele>
        <time>2018-07-21T10:30:34.000Z</time>
      </trkpt>
      <trkpt lat="43.98264" lon="7.12464">
        <ele>834</ele>
        <time>2018-07-21T10:30:42.000Z</time>
      </trkpt>
      <trkpt lat="43.98264" lon="7.12464">
        <ele>834</ele>
        <time>2018-07-21T10:30:43.000Z</time>
      </trkpt>
      <trkpt lat="43.98262" lon="7.12466">
        <ele>833</ele>
        <time>2018-07-21T10:30:48.000Z</time>
      </trkpt>
      <trkpt lat="43.98257" lon="7.12473">
        <ele>831</ele>
        <time>2018-07-21T10:30:56.000Z</time>
      </trkpt>
      <trkpt lat="43.98253" lon="7.12476">
        <ele>830</ele>
        <time>2018-07-21T10:31:01.000Z</time>
      </trkpt>
      <trkpt lat="43.98252" lon="7.1248">
        <ele>829</ele>
        <time>2018-07-21T10:31:06.000Z</time>
      </trkpt>
      <trkpt lat="43.98251" lon="7.1248">
        <ele>829</ele>
        <time>2018-07-21T10:31:07.000Z</time>
      </trkpt>
      <trkpt lat="43.9825" lon="7.12485">
        <ele>827</ele>
        <time>2018-07-21T10:31:14.000Z</time>
      </trkpt>
      <trkpt lat="43.9825" lon="7.12486">
        <ele>831</ele>
        <time>2018-07-21T10:31:15.000Z</time>
      </trkpt>
      <trkpt lat="43.98249" lon="7.12489">
        <ele>829</ele>
        <time>2018-07-21T10:31:19.000Z</time>
      </trkpt>
      <trkpt lat="43.98247" lon="7.12492">
        <ele>827</ele>
        <time>2018-07-21T10:31:24.000Z</time>
      </trkpt>
      <trkpt lat="43.98246" lon="7.12493">
        <ele>827</ele>
        <time>2018-07-21T10:31:26.000Z</time>
      </trkpt>
      <trkpt lat="43.98246" lon="7.12493">
        <ele>827</ele>
        <time>2018-07-21T10:31:29.000Z</time>
      </trkpt>
      <trkpt lat="43.98246" lon="7.12493">
        <ele>827</ele>
        <time>2018-07-21T10:31:32.000Z</time>
      </trkpt>
      <trkpt lat="43.98246" lon="7.12496">
        <ele>825</ele>
        <time>2018-07-21T10:31:38.000Z</time>
      </trkpt>
      <trkpt lat="43.98245" lon="7.12498">
        <ele>825</ele>
        <time>2018-07-21T10:31:41.000Z</time>
      </trkpt>
      <trkpt lat="43.98244" lon="7.12502">
        <ele>819</ele>
        <time>2018-07-21T10:31:47.000Z</time>
      </trkpt>
      <trkpt lat="43.98243" lon="7.12504">
        <ele>818</ele>
        <time>2018-07-21T10:31:49.000Z</time>
      </trkpt>
      <trkpt lat="43.98242" lon="7.12506">
        <ele>818</ele>
        <time>2018-07-21T10:31:52.000Z</time>
      </trkpt>
      <trkpt lat="43.9824" lon="7.12508">
        <ele>818</ele>
        <time>2018-07-21T10:31:57.000Z</time>
      </trkpt>
      <trkpt lat="43.98239" lon="7.1251">
        <ele>817</ele>
        <time>2018-07-21T10:31:58.000Z</time>
      </trkpt>
      <trkpt lat="43.98238" lon="7.12512">
        <ele>817</ele>
        <time>2018-07-21T10:32:00.000Z</time>
      </trkpt>
      <trkpt lat="43.98237" lon="7.12515">
        <ele>817</ele>
        <time>2018-07-21T10:32:03.000Z</time>
      </trkpt>
      <trkpt lat="43.98236" lon="7.12517">
        <ele>816</ele>
        <time>2018-07-21T10:32:05.000Z</time>
      </trkpt>
      <trkpt lat="43.98232" lon="7.1252">
        <ele>816</ele>
        <time>2018-07-21T10:32:10.000Z</time>
      </trkpt>
      <trkpt lat="43.98231" lon="7.12521">
        <ele>816</ele>
        <time>2018-07-21T10:32:12.000Z</time>
      </trkpt>
      <trkpt lat="43.98228" lon="7.12527">
        <ele>815</ele>
        <time>2018-07-21T10:32:18.000Z</time>
      </trkpt>
      <trkpt lat="43.98227" lon="7.12528">
        <ele>815</ele>
        <time>2018-07-21T10:32:21.000Z</time>
      </trkpt>
      <trkpt lat="43.98228" lon="7.12529">
        <ele>815</ele>
        <time>2018-07-21T10:32:22.000Z</time>
      </trkpt>
      <trkpt lat="43.98227" lon="7.12528">
        <ele>815</ele>
        <time>2018-07-21T10:32:23.000Z</time>
      </trkpt>
      <trkpt lat="43.98227" lon="7.12529">
        <ele>815</ele>
        <time>2018-07-21T10:32:30.000Z</time>
      </trkpt>
      <trkpt lat="43.98227" lon="7.12529">
        <ele>815</ele>
        <time>2018-07-21T10:32:39.000Z</time>
      </trkpt>
      <trkpt lat="43.98227" lon="7.12529">
        <ele>815</ele>
        <time>2018-07-21T10:32:40.000Z</time>
      </trkpt>
      <trkpt lat="43.98226" lon="7.1253">
        <ele>815</ele>
        <time>2018-07-21T10:32:46.000Z</time>
      </trkpt>
      <trkpt lat="43.98225" lon="7.12532">
        <ele>814</ele>
        <time>2018-07-21T10:32:57.000Z</time>
      </trkpt>
      <trkpt lat="43.98225" lon="7.12533">
        <ele>814</ele>
        <time>2018-07-21T10:33:03.000Z</time>
      </trkpt>
      <trkpt lat="43.98225" lon="7.12534">
        <ele>814</ele>
        <time>2018-07-21T10:33:05.000Z</time>
      </trkpt>
      <trkpt lat="43.98225" lon="7.12535">
        <ele>814</ele>
        <time>2018-07-21T10:33:12.000Z</time>
      </trkpt>
      <trkpt lat="43.98225" lon="7.12535">
        <ele>814</ele>
        <time>2018-07-21T10:33:16.000Z</time>
      </trkpt>
      <trkpt lat="43.98225" lon="7.12535">
        <ele>814</ele>
        <time>2018-07-21T10:33:18.000Z</time>
      </trkpt>
      <trkpt lat="43.98225" lon="7.12535">
        <ele>814</ele>
        <time>2018-07-21T10:33:26.000Z</time>
      </trkpt>
      <trkpt lat="43.98225" lon="7.12536">
        <ele>814</ele>
        <time>2018-07-21T10:33:36.000Z</time>
      </trkpt>
      <trkpt lat="43.98224" lon="7.12537">
        <ele>814</ele>
        <time>2018-07-21T10:33:43.000Z</time>
      </trkpt>
      <trkpt lat="43.98222" lon="7.12538">
        <ele>814</ele>
        <time>2018-07-21T10:33:49.000Z</time>
      </trkpt>
      <trkpt lat="43.98222" lon="7.12538">
        <ele>814</ele>
        <time>2018-07-21T10:33:55.000Z</time>
      </trkpt>
      <trkpt lat="43.98223" lon="7.12538">
        <ele>814</ele>
        <time>2018-07-21T10:34:06.000Z</time>
      </trkpt>
      <trkpt lat="43.98222" lon="7.1254">
        <ele>813</ele>
        <time>2018-07-21T10:34:12.000Z</time>
      </trkpt>
      <trkpt lat="43.98215" lon="7.1255">
        <ele>812</ele>
        <time>2018-07-21T10:34:19.000Z</time>
      </trkpt>
      <trkpt lat="43.98213" lon="7.12552">
        <ele>812</ele>
        <time>2018-07-21T10:34:20.000Z</time>
      </trkpt>
      <trkpt lat="43.98206" lon="7.12562">
        <ele>810</ele>
        <time>2018-07-21T10:34:26.000Z</time>
      </trkpt>
      <trkpt lat="43.98201" lon="7.1257">
        <ele>808</ele>
        <time>2018-07-21T10:34:31.000Z</time>
      </trkpt>
      <trkpt lat="43.98198" lon="7.12573">
        <ele>807</ele>
        <time>2018-07-21T10:34:33.000Z</time>
      </trkpt>
      <trkpt lat="43.9819" lon="7.12574">
        <ele>804</ele>
        <time>2018-07-21T10:34:40.000Z</time>
      </trkpt>
      <trkpt lat="43.98183" lon="7.12571">
        <ele>803</ele>
        <time>2018-07-21T10:34:45.000Z</time>
      </trkpt>
      <trkpt lat="43.98174" lon="7.12561">
        <ele>805</ele>
        <time>2018-07-21T10:34:49.000Z</time>
      </trkpt>
      <trkpt lat="43.98172" lon="7.12558">
        <ele>806</ele>
        <time>2018-07-21T10:34:54.000Z</time>
      </trkpt>
      <trkpt lat="43.98166" lon="7.12551">
        <ele>800</ele>
        <time>2018-07-21T10:34:59.000Z</time>
      </trkpt>
      <trkpt lat="43.98157" lon="7.12545">
        <ele>802</ele>
        <time>2018-07-21T10:35:02.000Z</time>
      </trkpt>
      <trkpt lat="43.98154" lon="7.12544">
        <ele>802</ele>
        <time>2018-07-21T10:35:03.000Z</time>
      </trkpt>
      <trkpt lat="43.98145" lon="7.1254">
        <ele>803</ele>
        <time>2018-07-21T10:35:05.000Z</time>
      </trkpt>
      <trkpt lat="43.98142" lon="7.12537">
        <ele>803</ele>
        <time>2018-07-21T10:35:06.000Z</time>
      </trkpt>
      <trkpt lat="43.98139" lon="7.12535">
        <ele>804</ele>
        <time>2018-07-21T10:35:07.000Z</time>
      </trkpt>
      <trkpt lat="43.98136" lon="7.12532">
        <ele>804</ele>
        <time>2018-07-21T10:35:08.000Z</time>
      </trkpt>
      <trkpt lat="43.98124" lon="7.12523">
        <ele>805</ele>
        <time>2018-07-21T10:35:13.000Z</time>
      </trkpt>
      <trkpt lat="43.98106" lon="7.12519">
        <ele>804</ele>
        <time>2018-07-21T10:35:18.000Z</time>
      </trkpt>
      <trkpt lat="43.98083" lon="7.12518">
        <ele>798</ele>
        <time>2018-07-21T10:35:25.000Z</time>
      </trkpt>
      <trkpt lat="43.9808" lon="7.12517">
        <ele>799</ele>
        <time>2018-07-21T10:35:26.000Z</time>
      </trkpt>
      <trkpt lat="43.98071" lon="7.12507">
        <ele>801</ele>
        <time>2018-07-21T10:35:30.000Z</time>
      </trkpt>
      <trkpt lat="43.98069" lon="7.12505">
        <ele>801</ele>
        <time>2018-07-21T10:35:31.000Z</time>
      </trkpt>
      <trkpt lat="43.98064" lon="7.12506">
        <ele>798</ele>
        <time>2018-07-21T10:35:33.000Z</time>
      </trkpt>
      <trkpt lat="43.98043" lon="7.12509">
        <ele>792</ele>
        <time>2018-07-21T10:35:40.000Z</time>
      </trkpt>
      <trkpt lat="43.9804" lon="7.12509">
        <ele>792</ele>
        <time>2018-07-21T10:35:41.000Z</time>
      </trkpt>
      <trkpt lat="43.98032" lon="7.12502">
        <ele>793</ele>
        <time>2018-07-21T10:35:45.000Z</time>
      </trkpt>
      <trkpt lat="43.98015" lon="7.12483">
        <ele>822</ele>
        <time>2018-07-21T10:35:52.000Z</time>
      </trkpt>
      <trkpt lat="43.98011" lon="7.12479">
        <ele>823</ele>
        <time>2018-07-21T10:35:54.000Z</time>
      </trkpt>
      <trkpt lat="43.98003" lon="7.1247">
        <ele>827</ele>
        <time>2018-07-21T10:35:58.000Z</time>
      </trkpt>
      <trkpt lat="43.97992" lon="7.1246">
        <ele>831</ele>
        <time>2018-07-21T10:36:03.000Z</time>
      </trkpt>
      <trkpt lat="43.9799" lon="7.12459">
        <ele>832</ele>
        <time>2018-07-21T10:36:04.000Z</time>
      </trkpt>
      <trkpt lat="43.97982" lon="7.1245">
        <ele>836</ele>
        <time>2018-07-21T10:36:08.000Z</time>
      </trkpt>
      <trkpt lat="43.97981" lon="7.1245">
        <ele>836</ele>
        <time>2018-07-21T10:36:09.000Z</time>
      </trkpt>
      <trkpt lat="43.97978" lon="7.12455">
        <ele>834</ele>
        <time>2018-07-21T10:36:12.000Z</time>
      </trkpt>
      <trkpt lat="43.97977" lon="7.1246">
        <ele>833</ele>
        <time>2018-07-21T10:36:14.000Z</time>
      </trkpt>
      <trkpt lat="43.97972" lon="7.12466">
        <ele>830</ele>
        <time>2018-07-21T10:36:18.000Z</time>
      </trkpt>
      <trkpt lat="43.97971" lon="7.12468">
        <ele>830</ele>
        <time>2018-07-21T10:36:19.000Z</time>
      </trkpt>
      <trkpt lat="43.97967" lon="7.12474">
        <ele>828</ele>
        <time>2018-07-21T10:36:23.000Z</time>
      </trkpt>
      <trkpt lat="43.97963" lon="7.12478">
        <ele>828</ele>
        <time>2018-07-21T10:36:26.000Z</time>
      </trkpt>
      <trkpt lat="43.97962" lon="7.12479">
        <ele>827</ele>
        <time>2018-07-21T10:36:27.000Z</time>
      </trkpt>
      <trkpt lat="43.97958" lon="7.12484">
        <ele>827</ele>
        <time>2018-07-21T10:36:31.000Z</time>
      </trkpt>
      <trkpt lat="43.97954" lon="7.12488">
        <ele>826</ele>
        <time>2018-07-21T10:36:35.000Z</time>
      </trkpt>
      <trkpt lat="43.97953" lon="7.12488">
        <ele>826</ele>
        <time>2018-07-21T10:36:36.000Z</time>
      </trkpt>
      <trkpt lat="43.97948" lon="7.12489">
        <ele>826</ele>
        <time>2018-07-21T10:36:40.000Z</time>
      </trkpt>
      <trkpt lat="43.97947" lon="7.12489">
        <ele>826</ele>
        <time>2018-07-21T10:36:41.000Z</time>
      </trkpt>
      <trkpt lat="43.97943" lon="7.12488">
        <ele>826</ele>
        <time>2018-07-21T10:36:47.000Z</time>
      </trkpt>
      <trkpt lat="43.97943" lon="7.12488">
        <ele>826</ele>
        <time>2018-07-21T10:36:50.000Z</time>
      </trkpt>
      <trkpt lat="43.9794" lon="7.12488">
        <ele>825</ele>
        <time>2018-07-21T10:36:56.000Z</time>
      </trkpt>
      <trkpt lat="43.97939" lon="7.12489">
        <ele>825</ele>
        <time>2018-07-21T10:36:59.000Z</time>
      </trkpt>
      <trkpt lat="43.97939" lon="7.12489">
        <ele>825</ele>
        <time>2018-07-21T10:37:00.000Z</time>
      </trkpt>
      <trkpt lat="43.97936" lon="7.1249">
        <ele>824</ele>
        <time>2018-07-21T10:37:03.000Z</time>
      </trkpt>
      <trkpt lat="43.97933" lon="7.12491">
        <ele>823</ele>
        <time>2018-07-21T10:37:07.000Z</time>
      </trkpt>
      <trkpt lat="43.97931" lon="7.12492">
        <ele>822</ele>
        <time>2018-07-21T10:37:10.000Z</time>
      </trkpt>
      <trkpt lat="43.97927" lon="7.12494">
        <ele>820</ele>
        <time>2018-07-21T10:37:15.000Z</time>
      </trkpt>
      <trkpt lat="43.97926" lon="7.12494">
        <ele>819</ele>
        <time>2018-07-21T10:37:16.000Z</time>
      </trkpt>
      <trkpt lat="43.97921" lon="7.12497">
        <ele>816</ele>
        <time>2018-07-21T10:37:22.000Z</time>
      </trkpt>
      <trkpt lat="43.97919" lon="7.12498">
        <ele>814</ele>
        <time>2018-07-21T10:37:25.000Z</time>
      </trkpt>
      <trkpt lat="43.97918" lon="7.12499">
        <ele>812</ele>
        <time>2018-07-21T10:37:27.000Z</time>
      </trkpt>
      <trkpt lat="43.97912" lon="7.12503">
        <ele>804</ele>
        <time>2018-07-21T10:37:34.000Z</time>
      </trkpt>
      <trkpt lat="43.97905" lon="7.12508">
        <ele>796</ele>
        <time>2018-07-21T10:37:44.000Z</time>
      </trkpt>
      <trkpt lat="43.97901" lon="7.12509">
        <ele>793</ele>
        <time>2018-07-21T10:37:48.000Z</time>
      </trkpt>
      <trkpt lat="43.979" lon="7.12509">
        <ele>793</ele>
        <time>2018-07-21T10:37:49.000Z</time>
      </trkpt>
      <trkpt lat="43.97898" lon="7.12507">
        <ele>792</ele>
        <time>2018-07-21T10:37:52.000Z</time>
      </trkpt>
      <trkpt lat="43.97897" lon="7.12506">
        <ele>792</ele>
        <time>2018-07-21T10:37:57.000Z</time>
      </trkpt>
      <trkpt lat="43.97897" lon="7.12504">
        <ele>792</ele>
        <time>2018-07-21T10:37:59.000Z</time>
      </trkpt>
      <trkpt lat="43.97896" lon="7.12496">
        <ele>822</ele>
        <time>2018-07-21T10:38:02.000Z</time>
      </trkpt>
      <trkpt lat="43.97891" lon="7.12486">
        <ele>826</ele>
        <time>2018-07-21T10:38:05.000Z</time>
      </trkpt>
      <trkpt lat="43.97887" lon="7.12479">
        <ele>828</ele>
        <time>2018-07-21T10:38:07.000Z</time>
      </trkpt>
      <trkpt lat="43.97885" lon="7.12476">
        <ele>829</ele>
        <time>2018-07-21T10:38:08.000Z</time>
      </trkpt>
      <trkpt lat="43.97875" lon="7.12451">
        <ele>837</ele>
        <time>2018-07-21T10:38:13.000Z</time>
      </trkpt>
      <trkpt lat="43.97872" lon="7.12441">
        <ele>840</ele>
        <time>2018-07-21T10:38:16.000Z</time>
      </trkpt>
      <trkpt lat="43.97863" lon="7.1243">
        <ele>843</ele>
        <time>2018-07-21T10:38:20.000Z</time>
      </trkpt>
      <trkpt lat="43.97861" lon="7.1243">
        <ele>843</ele>
        <time>2018-07-21T10:38:21.000Z</time>
      </trkpt>
      <trkpt lat="43.97857" lon="7.12431">
        <ele>843</ele>
        <time>2018-07-21T10:38:23.000Z</time>
      </trkpt>
      <trkpt lat="43.97852" lon="7.12433">
        <ele>843</ele>
        <time>2018-07-21T10:38:28.000Z</time>
      </trkpt>
      <trkpt lat="43.97851" lon="7.12433">
        <ele>843</ele>
        <time>2018-07-21T10:38:30.000Z</time>
      </trkpt>
      <trkpt lat="43.9785" lon="7.12434">
        <ele>843</ele>
        <time>2018-07-21T10:38:33.000Z</time>
      </trkpt>
      <trkpt lat="43.97849" lon="7.12435">
        <ele>843</ele>
        <time>2018-07-21T10:38:34.000Z</time>
      </trkpt>
      <trkpt lat="43.97839" lon="7.12438">
        <ele>843</ele>
        <time>2018-07-21T10:38:41.000Z</time>
      </trkpt>
      <trkpt lat="43.97832" lon="7.1244">
        <ele>830</ele>
        <time>2018-07-21T10:38:45.000Z</time>
      </trkpt>
      <trkpt lat="43.9783" lon="7.12441">
        <ele>829</ele>
        <time>2018-07-21T10:38:46.000Z</time>
      </trkpt>
      <trkpt lat="43.97819" lon="7.1244">
        <ele>828</ele>
        <time>2018-07-21T10:38:50.000Z</time>
      </trkpt>
      <trkpt lat="43.97805" lon="7.1243">
        <ele>827</ele>
        <time>2018-07-21T10:38:56.000Z</time>
      </trkpt>
      <trkpt lat="43.97786" lon="7.12426">
        <ele>822</ele>
        <time>2018-07-21T10:39:03.000Z</time>
      </trkpt>
      <trkpt lat="43.97779" lon="7.12421">
        <ele>822</ele>
        <time>2018-07-21T10:39:06.000Z</time>
      </trkpt>
      <trkpt lat="43.97777" lon="7.12413">
        <ele>860</ele>
        <time>2018-07-21T10:39:08.000Z</time>
      </trkpt>
      <trkpt lat="43.97773" lon="7.12398">
        <ele>864</ele>
        <time>2018-07-21T10:39:12.000Z</time>
      </trkpt>
      <trkpt lat="43.97762" lon="7.12382">
        <ele>871</ele>
        <time>2018-07-21T10:39:17.000Z</time>
      </trkpt>
      <trkpt lat="43.97758" lon="7.12379">
        <ele>872</ele>
        <time>2018-07-21T10:39:19.000Z</time>
      </trkpt>
      <trkpt lat="43.97756" lon="7.12378">
        <ele>872</ele>
        <time>2018-07-21T10:39:20.000Z</time>
      </trkpt>
      <trkpt lat="43.97744" lon="7.12369">
        <ele>875</ele>
        <time>2018-07-21T10:39:25.000Z</time>
      </trkpt>
      <trkpt lat="43.97743" lon="7.12369">
        <ele>875</ele>
        <time>2018-07-21T10:39:26.000Z</time>
      </trkpt>
      <trkpt lat="43.97736" lon="7.12368">
        <ele>876</ele>
        <time>2018-07-21T10:39:31.000Z</time>
      </trkpt>
      <trkpt lat="43.97733" lon="7.12368">
        <ele>876</ele>
        <time>2018-07-21T10:39:33.000Z</time>
      </trkpt>
      <trkpt lat="43.97722" lon="7.12368">
        <ele>876</ele>
        <time>2018-07-21T10:39:39.000Z</time>
      </trkpt>
      <trkpt lat="43.97721" lon="7.12369">
        <ele>876</ele>
        <time>2018-07-21T10:39:40.000Z</time>
      </trkpt>
      <trkpt lat="43.97716" lon="7.12374">
        <ele>874</ele>
        <time>2018-07-21T10:39:44.000Z</time>
      </trkpt>
      <trkpt lat="43.97715" lon="7.12377">
        <ele>873</ele>
        <time>2018-07-21T10:39:46.000Z</time>
      </trkpt>
      <trkpt lat="43.97711" lon="7.12384">
        <ele>871</ele>
        <time>2018-07-21T10:39:50.000Z</time>
      </trkpt>
      <trkpt lat="43.97702" lon="7.12391">
        <ele>869</ele>
        <time>2018-07-21T10:39:56.000Z</time>
      </trkpt>
      <trkpt lat="43.977" lon="7.12393">
        <ele>869</ele>
        <time>2018-07-21T10:39:58.000Z</time>
      </trkpt>
      <trkpt lat="43.97695" lon="7.12397">
        <ele>868</ele>
        <time>2018-07-21T10:40:03.000Z</time>
      </trkpt>
      <trkpt lat="43.97691" lon="7.12399">
        <ele>867</ele>
        <time>2018-07-21T10:40:06.000Z</time>
      </trkpt>
      <trkpt lat="43.97688" lon="7.124">
        <ele>867</ele>
        <time>2018-07-21T10:40:08.000Z</time>
      </trkpt>
      <trkpt lat="43.97684" lon="7.12407">
        <ele>864</ele>
        <time>2018-07-21T10:40:13.000Z</time>
      </trkpt>
      <trkpt lat="43.97683" lon="7.12408">
        <ele>864</ele>
        <time>2018-07-21T10:40:14.000Z</time>
      </trkpt>
      <trkpt lat="43.97682" lon="7.1242">
        <ele>834</ele>
        <time>2018-07-21T10:40:18.000Z</time>
      </trkpt>
      <trkpt lat="43.97675" lon="7.12436">
        <ele>827</ele>
        <time>2018-07-21T10:40:24.000Z</time>
      </trkpt>
      <trkpt lat="43.97673" lon="7.12436">
        <ele>827</ele>
        <time>2018-07-21T10:40:25.000Z</time>
      </trkpt>
      <trkpt lat="43.97665" lon="7.12433">
        <ele>837</ele>
        <time>2018-07-21T10:40:28.000Z</time>
      </trkpt>
      <trkpt lat="43.97652" lon="7.12425">
        <ele>839</ele>
        <time>2018-07-21T10:40:33.000Z</time>
      </trkpt>
      <trkpt lat="43.97635" lon="7.12415">
        <ele>875</ele>
        <time>2018-07-21T10:40:39.000Z</time>
      </trkpt>
      <trkpt lat="43.97625" lon="7.12413">
        <ele>877</ele>
        <time>2018-07-21T10:40:44.000Z</time>
      </trkpt>
      <trkpt lat="43.97608" lon="7.12412">
        <ele>875</ele>
        <time>2018-07-21T10:40:51.000Z</time>
      </trkpt>
      <trkpt lat="43.97607" lon="7.12411">
        <ele>875</ele>
        <time>2018-07-21T10:40:52.000Z</time>
      </trkpt>
      <trkpt lat="43.976" lon="7.12408">
        <ele>874</ele>
        <time>2018-07-21T10:40:56.000Z</time>
      </trkpt>
      <trkpt lat="43.97597" lon="7.12407">
        <ele>873</ele>
        <time>2018-07-21T10:40:58.000Z</time>
      </trkpt>
      <trkpt lat="43.97593" lon="7.12407">
        <ele>871</ele>
        <time>2018-07-21T10:41:02.000Z</time>
      </trkpt>
      <trkpt lat="43.97587" lon="7.12408">
        <ele>869</ele>
        <time>2018-07-21T10:41:06.000Z</time>
      </trkpt>
      <trkpt lat="43.97585" lon="7.12409">
        <ele>868</ele>
        <time>2018-07-21T10:41:07.000Z</time>
      </trkpt>
      <trkpt lat="43.97575" lon="7.12413">
        <ele>873</ele>
        <time>2018-07-21T10:41:12.000Z</time>
      </trkpt>
      <trkpt lat="43.97573" lon="7.12423">
        <ele>851</ele>
        <time>2018-07-21T10:41:16.000Z</time>
      </trkpt>
      <trkpt lat="43.97566" lon="7.12432">
        <ele>846</ele>
        <time>2018-07-21T10:41:22.000Z</time>
      </trkpt>
      <trkpt lat="43.97565" lon="7.12433">
        <ele>845</ele>
        <time>2018-07-21T10:41:23.000Z</time>
      </trkpt>
      <trkpt lat="43.97564" lon="7.12434">
        <ele>844</ele>
        <time>2018-07-21T10:41:24.000Z</time>
      </trkpt>
      <trkpt lat="43.9756" lon="7.12438">
        <ele>842</ele>
        <time>2018-07-21T10:41:28.000Z</time>
      </trkpt>
      <trkpt lat="43.97559" lon="7.1244">
        <ele>842</ele>
        <time>2018-07-21T10:41:29.000Z</time>
      </trkpt>
      <trkpt lat="43.9755" lon="7.12445">
        <ele>840</ele>
        <time>2018-07-21T10:41:36.000Z</time>
      </trkpt>
      <trkpt lat="43.97547" lon="7.12446">
        <ele>840</ele>
        <time>2018-07-21T10:41:38.000Z</time>
      </trkpt>
      <trkpt lat="43.97541" lon="7.12444">
        <ele>841</ele>
        <time>2018-07-21T10:41:42.000Z</time>
      </trkpt>
      <trkpt lat="43.97536" lon="7.12443">
        <ele>843</ele>
        <time>2018-07-21T10:41:45.000Z</time>
      </trkpt>
      <trkpt lat="43.9753" lon="7.12442">
        <ele>845</ele>
        <time>2018-07-21T10:41:49.000Z</time>
      </trkpt>
      <trkpt lat="43.97524" lon="7.12444">
        <ele>845</ele>
        <time>2018-07-21T10:41:53.000Z</time>
      </trkpt>
      <trkpt lat="43.9752" lon="7.12448">
        <ele>844</ele>
        <time>2018-07-21T10:41:56.000Z</time>
      </trkpt>
      <trkpt lat="43.97515" lon="7.12452">
        <ele>842</ele>
        <time>2018-07-21T10:42:00.000Z</time>
      </trkpt>
      <trkpt lat="43.97508" lon="7.12452">
        <ele>843</ele>
        <time>2018-07-21T10:42:04.000Z</time>
      </trkpt>
      <trkpt lat="43.97501" lon="7.12452">
        <ele>843</ele>
        <time>2018-07-21T10:42:09.000Z</time>
      </trkpt>
      <trkpt lat="43.97493" lon="7.12456">
        <ele>854</ele>
        <time>2018-07-21T10:42:16.000Z</time>
      </trkpt>
      <trkpt lat="43.97489" lon="7.12458">
        <ele>853</ele>
        <time>2018-07-21T10:42:19.000Z</time>
      </trkpt>
      <trkpt lat="43.97481" lon="7.12457">
        <ele>854</ele>
        <time>2018-07-21T10:42:24.000Z</time>
      </trkpt>
      <trkpt lat="43.97466" lon="7.1245">
        <ele>860</ele>
        <time>2018-07-21T10:42:32.000Z</time>
      </trkpt>
      <trkpt lat="43.9745" lon="7.12446">
        <ele>865</ele>
        <time>2018-07-21T10:42:40.000Z</time>
      </trkpt>
      <trkpt lat="43.97444" lon="7.12444">
        <ele>867</ele>
        <time>2018-07-21T10:42:43.000Z</time>
      </trkpt>
      <trkpt lat="43.97435" lon="7.1244">
        <ele>873</ele>
        <time>2018-07-21T10:42:48.000Z</time>
      </trkpt>
      <trkpt lat="43.97429" lon="7.12437">
        <ele>878</ele>
        <time>2018-07-21T10:42:52.000Z</time>
      </trkpt>
      <trkpt lat="43.97429" lon="7.12437">
        <ele>878</ele>
        <time>2018-07-21T10:42:53.000Z</time>
      </trkpt>
      <trkpt lat="43.97428" lon="7.12438">
        <ele>878</ele>
        <time>2018-07-21T10:42:54.000Z</time>
      </trkpt>
      <trkpt lat="43.97428" lon="7.12438">
        <ele>877</ele>
        <time>2018-07-21T10:42:55.000Z</time>
      </trkpt>
      <trkpt lat="43.97427" lon="7.12439">
        <ele>877</ele>
        <time>2018-07-21T10:42:58.000Z</time>
      </trkpt>
      <trkpt lat="43.97424" lon="7.12441">
        <ele>875</ele>
        <time>2018-07-21T10:43:04.000Z</time>
      </trkpt>
      <trkpt lat="43.97423" lon="7.12442">
        <ele>875</ele>
        <time>2018-07-21T10:43:06.000Z</time>
      </trkpt>
      <trkpt lat="43.97418" lon="7.12444">
        <ele>873</ele>
        <time>2018-07-21T10:43:12.000Z</time>
      </trkpt>
      <trkpt lat="43.97419" lon="7.12444">
        <ele>873</ele>
        <time>2018-07-21T10:43:13.000Z</time>
      </trkpt>
      <trkpt lat="43.97416" lon="7.12447">
        <ele>876</ele>
        <time>2018-07-21T10:43:20.000Z</time>
      </trkpt>
      <trkpt lat="43.97408" lon="7.12452">
        <ele>871</ele>
        <time>2018-07-21T10:43:26.000Z</time>
      </trkpt>
      <trkpt lat="43.97407" lon="7.12452">
        <ele>871</ele>
        <time>2018-07-21T10:43:27.000Z</time>
      </trkpt>
      <trkpt lat="43.97392" lon="7.12452">
        <ele>869</ele>
        <time>2018-07-21T10:43:35.000Z</time>
      </trkpt>
      <trkpt lat="43.97383" lon="7.12454">
        <ele>868</ele>
        <time>2018-07-21T10:43:40.000Z</time>
      </trkpt>
      <trkpt lat="43.97382" lon="7.12455">
        <ele>867</ele>
        <time>2018-07-21T10:43:41.000Z</time>
      </trkpt>
      <trkpt lat="43.97374" lon="7.12463">
        <ele>863</ele>
        <time>2018-07-21T10:43:47.000Z</time>
      </trkpt>
      <trkpt lat="43.97367" lon="7.12469">
        <ele>860</ele>
        <time>2018-07-21T10:43:51.000Z</time>
      </trkpt>
      <trkpt lat="43.97365" lon="7.12471">
        <ele>860</ele>
        <time>2018-07-21T10:43:52.000Z</time>
      </trkpt>
      <trkpt lat="43.97361" lon="7.12475">
        <ele>858</ele>
        <time>2018-07-21T10:43:55.000Z</time>
      </trkpt>
      <trkpt lat="43.97348" lon="7.12484">
        <ele>852</ele>
        <time>2018-07-21T10:44:02.000Z</time>
      </trkpt>
      <trkpt lat="43.9733" lon="7.1249">
        <ele>838</ele>
        <time>2018-07-21T10:44:10.000Z</time>
      </trkpt>
      <trkpt lat="43.97321" lon="7.12491">
        <ele>838</ele>
        <time>2018-07-21T10:44:14.000Z</time>
      </trkpt>
      <trkpt lat="43.9732" lon="7.12488">
        <ele>839</ele>
        <time>2018-07-21T10:44:15.000Z</time>
      </trkpt>
      <trkpt lat="43.97316" lon="7.12472">
        <ele>842</ele>
        <time>2018-07-21T10:44:19.000Z</time>
      </trkpt>
      <trkpt lat="43.97309" lon="7.12451">
        <ele>847</ele>
        <time>2018-07-21T10:44:25.000Z</time>
      </trkpt>
      <trkpt lat="43.97302" lon="7.12429">
        <ele>851</ele>
        <time>2018-07-21T10:44:30.000Z</time>
      </trkpt>
      <trkpt lat="43.973" lon="7.12424">
        <ele>851</ele>
        <time>2018-07-21T10:44:31.000Z</time>
      </trkpt>
      <trkpt lat="43.97291" lon="7.12408">
        <ele>869</ele>
        <time>2018-07-21T10:44:35.000Z</time>
      </trkpt>
      <trkpt lat="43.97283" lon="7.124">
        <ele>866</ele>
        <time>2018-07-21T10:44:38.000Z</time>
      </trkpt>
      <trkpt lat="43.97278" lon="7.12393">
        <ele>865</ele>
        <time>2018-07-21T10:44:41.000Z</time>
      </trkpt>
      <trkpt lat="43.97274" lon="7.12371">
        <ele>869</ele>
        <time>2018-07-21T10:44:46.000Z</time>
      </trkpt>
      <trkpt lat="43.97272" lon="7.12356">
        <ele>869</ele>
        <time>2018-07-21T10:44:49.000Z</time>
      </trkpt>
      <trkpt lat="43.97267" lon="7.12345">
        <ele>867</ele>
        <time>2018-07-21T10:44:51.000Z</time>
      </trkpt>
      <trkpt lat="43.97263" lon="7.12335">
        <ele>865</ele>
        <time>2018-07-21T10:44:53.000Z</time>
      </trkpt>
      <trkpt lat="43.97259" lon="7.12324">
        <ele>870</ele>
        <time>2018-07-21T10:44:55.000Z</time>
      </trkpt>
      <trkpt lat="43.97257" lon="7.12318">
        <ele>873</ele>
        <time>2018-07-21T10:44:56.000Z</time>
      </trkpt>
      <trkpt lat="43.9726" lon="7.12296">
        <ele>880</ele>
        <time>2018-07-21T10:45:00.000Z</time>
      </trkpt>
      <trkpt lat="43.97262" lon="7.12291">
        <ele>881</ele>
        <time>2018-07-21T10:45:01.000Z</time>
      </trkpt>
      <trkpt lat="43.97267" lon="7.12269">
        <ele>880</ele>
        <time>2018-07-21T10:45:05.000Z</time>
      </trkpt>
      <trkpt lat="43.97267" lon="7.12263">
        <ele>879</ele>
        <time>2018-07-21T10:45:06.000Z</time>
      </trkpt>
      <trkpt lat="43.97266" lon="7.1224">
        <ele>883</ele>
        <time>2018-07-21T10:45:10.000Z</time>
      </trkpt>
      <trkpt lat="43.97266" lon="7.12229">
        <ele>888</ele>
        <time>2018-07-21T10:45:12.000Z</time>
      </trkpt>
      <trkpt lat="43.97268" lon="7.12219">
        <ele>892</ele>
        <time>2018-07-21T10:45:14.000Z</time>
      </trkpt>
      <trkpt lat="43.97269" lon="7.12207">
        <ele>895</ele>
        <time>2018-07-21T10:45:16.000Z</time>
      </trkpt>
      <trkpt lat="43.97269" lon="7.12203">
        <ele>896</ele>
        <time>2018-07-21T10:45:17.000Z</time>
      </trkpt>
      <trkpt lat="43.9727" lon="7.12201">
        <ele>896</ele>
        <time>2018-07-21T10:45:18.000Z</time>
      </trkpt>
      <trkpt lat="43.97272" lon="7.12198">
        <ele>897</ele>
        <time>2018-07-21T10:45:20.000Z</time>
      </trkpt>
      <trkpt lat="43.97273" lon="7.12197">
        <ele>897</ele>
        <time>2018-07-21T10:45:25.000Z</time>
      </trkpt>
      <trkpt lat="43.97272" lon="7.12197">
        <ele>897</ele>
        <time>2018-07-21T10:45:32.000Z</time>
      </trkpt>
      <trkpt lat="43.9727" lon="7.12195">
        <ele>897</ele>
        <time>2018-07-21T10:45:39.000Z</time>
      </trkpt>
      <trkpt lat="43.97266" lon="7.12195">
        <ele>896</ele>
        <time>2018-07-21T10:45:45.000Z</time>
      </trkpt>
      <trkpt lat="43.97263" lon="7.12197">
        <ele>895</ele>
        <time>2018-07-21T10:45:51.000Z</time>
      </trkpt>
      <trkpt lat="43.97256" lon="7.122">
        <ele>894</ele>
        <time>2018-07-21T10:45:54.000Z</time>
      </trkpt>
      <trkpt lat="43.97255" lon="7.122">
        <ele>894</ele>
        <time>2018-07-21T10:45:55.000Z</time>
      </trkpt>
      <trkpt lat="43.97251" lon="7.122">
        <ele>893</ele>
        <time>2018-07-21T10:45:58.000Z</time>
      </trkpt>
      <trkpt lat="43.97248" lon="7.12201">
        <ele>878</ele>
        <time>2018-07-21T10:46:00.000Z</time>
      </trkpt>
      <trkpt lat="43.97239" lon="7.1221">
        <ele>876</ele>
        <time>2018-07-21T10:46:05.000Z</time>
      </trkpt>
      <trkpt lat="43.97228" lon="7.12218">
        <ele>874</ele>
        <time>2018-07-21T10:46:10.000Z</time>
      </trkpt>
      <trkpt lat="43.97218" lon="7.12215">
        <ele>874</ele>
        <time>2018-07-21T10:46:14.000Z</time>
      </trkpt>
      <trkpt lat="43.97207" lon="7.12213">
        <ele>875</ele>
        <time>2018-07-21T10:46:18.000Z</time>
      </trkpt>
      <trkpt lat="43.97204" lon="7.12214">
        <ele>874</ele>
        <time>2018-07-21T10:46:19.000Z</time>
      </trkpt>
      <trkpt lat="43.97197" lon="7.12217">
        <ele>873</ele>
        <time>2018-07-21T10:46:22.000Z</time>
      </trkpt>
      <trkpt lat="43.97195" lon="7.12217">
        <ele>873</ele>
        <time>2018-07-21T10:46:23.000Z</time>
      </trkpt>
      <trkpt lat="43.97189" lon="7.12219">
        <ele>872</ele>
        <time>2018-07-21T10:46:26.000Z</time>
      </trkpt>
      <trkpt lat="43.97185" lon="7.1222">
        <ele>871</ele>
        <time>2018-07-21T10:46:28.000Z</time>
      </trkpt>
      <trkpt lat="43.97179" lon="7.12224">
        <ele>868</ele>
        <time>2018-07-21T10:46:31.000Z</time>
      </trkpt>
      <trkpt lat="43.97168" lon="7.12229">
        <ele>864</ele>
        <time>2018-07-21T10:46:37.000Z</time>
      </trkpt>
      <trkpt lat="43.97156" lon="7.12229">
        <ele>867</ele>
        <time>2018-07-21T10:46:42.000Z</time>
      </trkpt>
      <trkpt lat="43.97145" lon="7.12222">
        <ele>873</ele>
        <time>2018-07-21T10:46:47.000Z</time>
      </trkpt>
      <trkpt lat="43.9714" lon="7.12223">
        <ele>873</ele>
        <time>2018-07-21T10:46:50.000Z</time>
      </trkpt>
      <trkpt lat="43.97137" lon="7.12224">
        <ele>873</ele>
        <time>2018-07-21T10:46:52.000Z</time>
      </trkpt>
      <trkpt lat="43.97133" lon="7.12225">
        <ele>873</ele>
        <time>2018-07-21T10:46:54.000Z</time>
      </trkpt>
      <trkpt lat="43.97125" lon="7.12226">
        <ele>874</ele>
        <time>2018-07-21T10:46:59.000Z</time>
      </trkpt>
      <trkpt lat="43.97123" lon="7.12226">
        <ele>874</ele>
        <time>2018-07-21T10:47:00.000Z</time>
      </trkpt>
      <trkpt lat="43.97111" lon="7.12224">
        <ele>875</ele>
        <time>2018-07-21T10:47:06.000Z</time>
      </trkpt>
      <trkpt lat="43.97097" lon="7.12219">
        <ele>876</ele>
        <time>2018-07-21T10:47:12.000Z</time>
      </trkpt>
      <trkpt lat="43.97092" lon="7.1222">
        <ele>876</ele>
        <time>2018-07-21T10:47:15.000Z</time>
      </trkpt>
      <trkpt lat="43.97091" lon="7.12221">
        <ele>875</ele>
        <time>2018-07-21T10:47:16.000Z</time>
      </trkpt>
      <trkpt lat="43.9709" lon="7.12223">
        <ele>874</ele>
        <time>2018-07-21T10:47:17.000Z</time>
      </trkpt>
      <trkpt lat="43.97087" lon="7.12228">
        <ele>871</ele>
        <time>2018-07-21T10:47:21.000Z</time>
      </trkpt>
      <trkpt lat="43.97084" lon="7.12231">
        <ele>869</ele>
        <time>2018-07-21T10:47:23.000Z</time>
      </trkpt>
      <trkpt lat="43.97081" lon="7.12231">
        <ele>876</ele>
        <time>2018-07-21T10:47:24.000Z</time>
      </trkpt>
      <trkpt lat="43.97076" lon="7.12229">
        <ele>878</ele>
        <time>2018-07-21T10:47:26.000Z</time>
      </trkpt>
      <trkpt lat="43.97058" lon="7.12222">
        <ele>887</ele>
        <time>2018-07-21T10:47:33.000Z</time>
      </trkpt>
      <trkpt lat="43.97057" lon="7.12222">
        <ele>887</ele>
        <time>2018-07-21T10:47:37.000Z</time>
      </trkpt>
      <trkpt lat="43.97056" lon="7.12221">
        <ele>887</ele>
        <time>2018-07-21T10:47:39.000Z</time>
      </trkpt>
      <trkpt lat="43.97055" lon="7.12221">
        <ele>887</ele>
        <time>2018-07-21T10:47:42.000Z</time>
      </trkpt>
      <trkpt lat="43.97052" lon="7.12225">
        <ele>887</ele>
        <time>2018-07-21T10:47:48.000Z</time>
      </trkpt>
      <trkpt lat="43.97051" lon="7.12227">
        <ele>886</ele>
        <time>2018-07-21T10:47:49.000Z</time>
      </trkpt>
      <trkpt lat="43.97053" lon="7.12233">
        <ele>884</ele>
        <time>2018-07-21T10:47:54.000Z</time>
      </trkpt>
      <trkpt lat="43.97054" lon="7.12236">
        <ele>883</ele>
        <time>2018-07-21T10:47:57.000Z</time>
      </trkpt>
      <trkpt lat="43.97054" lon="7.12241">
        <ele>882</ele>
        <time>2018-07-21T10:48:00.000Z</time>
      </trkpt>
      <trkpt lat="43.97053" lon="7.12242">
        <ele>882</ele>
        <time>2018-07-21T10:48:01.000Z</time>
      </trkpt>
      <trkpt lat="43.97052" lon="7.12242">
        <ele>882</ele>
        <time>2018-07-21T10:48:03.000Z</time>
      </trkpt>
      <trkpt lat="43.97049" lon="7.12243">
        <ele>883</ele>
        <time>2018-07-21T10:48:07.000Z</time>
      </trkpt>
      <trkpt lat="43.97047" lon="7.12244">
        <ele>883</ele>
        <time>2018-07-21T10:48:10.000Z</time>
      </trkpt>
      <trkpt lat="43.97045" lon="7.12246">
        <ele>884</ele>
        <time>2018-07-21T10:48:15.000Z</time>
      </trkpt>
      <trkpt lat="43.97044" lon="7.12246">
        <ele>884</ele>
        <time>2018-07-21T10:48:17.000Z</time>
      </trkpt>
      <trkpt lat="43.97041" lon="7.12247">
        <ele>884</ele>
        <time>2018-07-21T10:48:22.000Z</time>
      </trkpt>
      <trkpt lat="43.97041" lon="7.12247">
        <ele>884</ele>
        <time>2018-07-21T10:48:24.000Z</time>
      </trkpt>
      <trkpt lat="43.97037" lon="7.12249">
        <ele>885</ele>
        <time>2018-07-21T10:48:34.000Z</time>
      </trkpt>
      <trkpt lat="43.97036" lon="7.12249">
        <ele>885</ele>
        <time>2018-07-21T10:48:35.000Z</time>
      </trkpt>
      <trkpt lat="43.97031" lon="7.12248">
        <ele>886</ele>
        <time>2018-07-21T10:48:42.000Z</time>
      </trkpt>
      <trkpt lat="43.9703" lon="7.12247">
        <ele>886</ele>
        <time>2018-07-21T10:48:43.000Z</time>
      </trkpt>
      <trkpt lat="43.97027" lon="7.12245">
        <ele>886</ele>
        <time>2018-07-21T10:48:48.000Z</time>
      </trkpt>
      <trkpt lat="43.97025" lon="7.12245">
        <ele>886</ele>
        <time>2018-07-21T10:48:52.000Z</time>
      </trkpt>
      <trkpt lat="43.97024" lon="7.12245">
        <ele>886</ele>
        <time>2018-07-21T10:48:54.000Z</time>
      </trkpt>
      <trkpt lat="43.9702" lon="7.12244">
        <ele>886</ele>
        <time>2018-07-21T10:49:00.000Z</time>
      </trkpt>
      <trkpt lat="43.97019" lon="7.12244">
        <ele>886</ele>
        <time>2018-07-21T10:49:01.000Z</time>
      </trkpt>
      <trkpt lat="43.97015" lon="7.12243">
        <ele>886</ele>
        <time>2018-07-21T10:49:07.000Z</time>
      </trkpt>
      <trkpt lat="43.97014" lon="7.12243">
        <ele>886</ele>
        <time>2018-07-21T10:49:09.000Z</time>
      </trkpt>
      <trkpt lat="43.97012" lon="7.12242">
        <ele>886</ele>
        <time>2018-07-21T10:49:15.000Z</time>
      </trkpt>
      <trkpt lat="43.97006" lon="7.1224">
        <ele>886</ele>
        <time>2018-07-21T10:49:20.000Z</time>
      </trkpt>
      <trkpt lat="43.97005" lon="7.12239">
        <ele>886</ele>
        <time>2018-07-21T10:49:21.000Z</time>
      </trkpt>
      <trkpt lat="43.97003" lon="7.12237">
        <ele>887</ele>
        <time>2018-07-21T10:49:26.000Z</time>
      </trkpt>
      <trkpt lat="43.97001" lon="7.12236">
        <ele>887</ele>
        <time>2018-07-21T10:49:30.000Z</time>
      </trkpt>
      <trkpt lat="43.97001" lon="7.12236">
        <ele>887</ele>
        <time>2018-07-21T10:49:32.000Z</time>
      </trkpt>
      <trkpt lat="43.97002" lon="7.12237">
        <ele>887</ele>
        <time>2018-07-21T10:49:38.000Z</time>
      </trkpt>
      <trkpt lat="43.96998" lon="7.12236">
        <ele>895</ele>
        <time>2018-07-21T10:49:46.000Z</time>
      </trkpt>
      <trkpt lat="43.96998" lon="7.12239">
        <ele>893</ele>
        <time>2018-07-21T10:49:48.000Z</time>
      </trkpt>
      <trkpt lat="43.96998" lon="7.12241">
        <ele>891</ele>
        <time>2018-07-21T10:49:51.000Z</time>
      </trkpt>
      <trkpt lat="43.96997" lon="7.12242">
        <ele>890</ele>
        <time>2018-07-21T10:49:53.000Z</time>
      </trkpt>
      <trkpt lat="43.96996" lon="7.12243">
        <ele>890</ele>
        <time>2018-07-21T10:49:55.000Z</time>
      </trkpt>
      <trkpt lat="43.96995" lon="7.12245">
        <ele>889</ele>
        <time>2018-07-21T10:49:58.000Z</time>
      </trkpt>
      <trkpt lat="43.96994" lon="7.12247">
        <ele>889</ele>
        <time>2018-07-21T10:50:01.000Z</time>
      </trkpt>
      <trkpt lat="43.96993" lon="7.12249">
        <ele>889</ele>
        <time>2018-07-21T10:50:04.000Z</time>
      </trkpt>
      <trkpt lat="43.96991" lon="7.12251">
        <ele>877</ele>
        <time>2018-07-21T10:50:06.000Z</time>
      </trkpt>
      <trkpt lat="43.96987" lon="7.12258">
        <ele>875</ele>
        <time>2018-07-21T10:50:13.000Z</time>
      </trkpt>
      <trkpt lat="43.96986" lon="7.12259">
        <ele>875</ele>
        <time>2018-07-21T10:50:14.000Z</time>
      </trkpt>
      <trkpt lat="43.96983" lon="7.12259">
        <ele>874</ele>
        <time>2018-07-21T10:50:16.000Z</time>
      </trkpt>
      <trkpt lat="43.96983" lon="7.1226">
        <ele>874</ele>
        <time>2018-07-21T10:50:18.000Z</time>
      </trkpt>
      <trkpt lat="43.96982" lon="7.12263">
        <ele>873</ele>
        <time>2018-07-21T10:50:21.000Z</time>
      </trkpt>
      <trkpt lat="43.96982" lon="7.12264">
        <ele>873</ele>
        <time>2018-07-21T10:50:23.000Z</time>
      </trkpt>
      <trkpt lat="43.96982" lon="7.12265">
        <ele>873</ele>
        <time>2018-07-21T10:50:25.000Z</time>
      </trkpt>
      <trkpt lat="43.96981" lon="7.1227">
        <ele>871</ele>
        <time>2018-07-21T10:50:28.000Z</time>
      </trkpt>
      <trkpt lat="43.9698" lon="7.12284">
        <ele>867</ele>
        <time>2018-07-21T10:50:34.000Z</time>
      </trkpt>
      <trkpt lat="43.96978" lon="7.12288">
        <ele>866</ele>
        <time>2018-07-21T10:50:37.000Z</time>
      </trkpt>
      <trkpt lat="43.96976" lon="7.12289">
        <ele>866</ele>
        <time>2018-07-21T10:50:39.000Z</time>
      </trkpt>
      <trkpt lat="43.96972" lon="7.1229">
        <ele>866</ele>
        <time>2018-07-21T10:50:43.000Z</time>
      </trkpt>
      <trkpt lat="43.96969" lon="7.1229">
        <ele>866</ele>
        <time>2018-07-21T10:50:46.000Z</time>
      </trkpt>
      <trkpt lat="43.96967" lon="7.1229">
        <ele>866</ele>
        <time>2018-07-21T10:50:47.000Z</time>
      </trkpt>
      <trkpt lat="43.96957" lon="7.12283">
        <ele>869</ele>
        <time>2018-07-21T10:50:54.000Z</time>
      </trkpt>
      <trkpt lat="43.96956" lon="7.12282">
        <ele>870</ele>
        <time>2018-07-21T10:50:55.000Z</time>
      </trkpt>
      <trkpt lat="43.96949" lon="7.12276">
        <ele>872</ele>
        <time>2018-07-21T10:51:00.000Z</time>
      </trkpt>
      <trkpt lat="43.96938" lon="7.12267">
        <ele>878</ele>
        <time>2018-07-21T10:51:05.000Z</time>
      </trkpt>
      <trkpt lat="43.96935" lon="7.12263">
        <ele>881</ele>
        <time>2018-07-21T10:51:09.000Z</time>
      </trkpt>
      <trkpt lat="43.96933" lon="7.12261">
        <ele>882</ele>
        <time>2018-07-21T10:51:10.000Z</time>
      </trkpt>
      <trkpt lat="43.96926" lon="7.12259">
        <ele>887</ele>
        <time>2018-07-21T10:51:13.000Z</time>
      </trkpt>
      <trkpt lat="43.96918" lon="7.12253">
        <ele>896</ele>
        <time>2018-07-21T10:51:18.000Z</time>
      </trkpt>
      <trkpt lat="43.96916" lon="7.12252">
        <ele>900</ele>
        <time>2018-07-21T10:51:19.000Z</time>
      </trkpt>
      <trkpt lat="43.96914" lon="7.12248">
        <ele>905</ele>
        <time>2018-07-21T10:51:21.000Z</time>
      </trkpt>
      <trkpt lat="43.96911" lon="7.12245">
        <ele>909</ele>
        <time>2018-07-21T10:51:25.000Z</time>
      </trkpt>
      <trkpt lat="43.96909" lon="7.12244">
        <ele>911</ele>
        <time>2018-07-21T10:51:29.000Z</time>
      </trkpt>
      <trkpt lat="43.96907" lon="7.12243">
        <ele>913</ele>
        <time>2018-07-21T10:51:31.000Z</time>
      </trkpt>
      <trkpt lat="43.96906" lon="7.12242">
        <ele>913</ele>
        <time>2018-07-21T10:51:36.000Z</time>
      </trkpt>
      <trkpt lat="43.96906" lon="7.12243">
        <ele>913</ele>
        <time>2018-07-21T10:51:38.000Z</time>
      </trkpt>
      <trkpt lat="43.96904" lon="7.12242">
        <ele>915</ele>
        <time>2018-07-21T10:51:45.000Z</time>
      </trkpt>
      <trkpt lat="43.96899" lon="7.12247">
        <ele>916</ele>
        <time>2018-07-21T10:51:52.000Z</time>
      </trkpt>
      <trkpt lat="43.96893" lon="7.1225">
        <ele>918</ele>
        <time>2018-07-21T10:51:58.000Z</time>
      </trkpt>
      <trkpt lat="43.96888" lon="7.12246">
        <ele>920</ele>
        <time>2018-07-21T10:52:04.000Z</time>
      </trkpt>
      <trkpt lat="43.96887" lon="7.12246">
        <ele>921</ele>
        <time>2018-07-21T10:52:05.000Z</time>
      </trkpt>
      <trkpt lat="43.96881" lon="7.12248">
        <ele>922</ele>
        <time>2018-07-21T10:52:12.000Z</time>
      </trkpt>
      <trkpt lat="43.96879" lon="7.12249">
        <ele>922</ele>
        <time>2018-07-21T10:52:15.000Z</time>
      </trkpt>
      <trkpt lat="43.96878" lon="7.12251">
        <ele>893</ele>
        <time>2018-07-21T10:52:17.000Z</time>
      </trkpt>
      <trkpt lat="43.96878" lon="7.1225">
        <ele>893</ele>
        <time>2018-07-21T10:52:18.000Z</time>
      </trkpt>
      <trkpt lat="43.96876" lon="7.12253">
        <ele>893</ele>
        <time>2018-07-21T10:52:21.000Z</time>
      </trkpt>
      <trkpt lat="43.96875" lon="7.12254">
        <ele>893</ele>
        <time>2018-07-21T10:52:23.000Z</time>
      </trkpt>
      <trkpt lat="43.96874" lon="7.12255">
        <ele>893</ele>
        <time>2018-07-21T10:52:24.000Z</time>
      </trkpt>
      <trkpt lat="43.96872" lon="7.12257">
        <ele>893</ele>
        <time>2018-07-21T10:52:28.000Z</time>
      </trkpt>
      <trkpt lat="43.96868" lon="7.1226">
        <ele>893</ele>
        <time>2018-07-21T10:52:33.000Z</time>
      </trkpt>
      <trkpt lat="43.96868" lon="7.1226">
        <ele>893</ele>
        <time>2018-07-21T10:52:34.000Z</time>
      </trkpt>
      <trkpt lat="43.96864" lon="7.12265">
        <ele>893</ele>
        <time>2018-07-21T10:52:40.000Z</time>
      </trkpt>
      <trkpt lat="43.96862" lon="7.12266">
        <ele>893</ele>
        <time>2018-07-21T10:52:42.000Z</time>
      </trkpt>
      <trkpt lat="43.96862" lon="7.12267">
        <ele>893</ele>
        <time>2018-07-21T10:52:47.000Z</time>
      </trkpt>
      <trkpt lat="43.96859" lon="7.12274">
        <ele>892</ele>
        <time>2018-07-21T10:52:51.000Z</time>
      </trkpt>
      <trkpt lat="43.96856" lon="7.12276">
        <ele>892</ele>
        <time>2018-07-21T10:52:52.000Z</time>
      </trkpt>
      <trkpt lat="43.96846" lon="7.12275">
        <ele>894</ele>
        <time>2018-07-21T10:52:56.000Z</time>
      </trkpt>
      <trkpt lat="43.96844" lon="7.12274">
        <ele>894</ele>
        <time>2018-07-21T10:52:58.000Z</time>
      </trkpt>
      <trkpt lat="43.96837" lon="7.12272">
        <ele>896</ele>
        <time>2018-07-21T10:53:01.000Z</time>
      </trkpt>
      <trkpt lat="43.96827" lon="7.12264">
        <ele>916</ele>
        <time>2018-07-21T10:53:07.000Z</time>
      </trkpt>
      <trkpt lat="43.96825" lon="7.12264">
        <ele>917</ele>
        <time>2018-07-21T10:53:08.000Z</time>
      </trkpt>
      <trkpt lat="43.96818" lon="7.12263">
        <ele>918</ele>
        <time>2018-07-21T10:53:11.000Z</time>
      </trkpt>
      <trkpt lat="43.96813" lon="7.12263">
        <ele>919</ele>
        <time>2018-07-21T10:53:14.000Z</time>
      </trkpt>
      <trkpt lat="43.9681" lon="7.12264">
        <ele>920</ele>
        <time>2018-07-21T10:53:15.000Z</time>
      </trkpt>
      <trkpt lat="43.96808" lon="7.12265">
        <ele>920</ele>
        <time>2018-07-21T10:53:16.000Z</time>
      </trkpt>
      <trkpt lat="43.96805" lon="7.12265">
        <ele>921</ele>
        <time>2018-07-21T10:53:19.000Z</time>
      </trkpt>
      <trkpt lat="43.96804" lon="7.12265">
        <ele>921</ele>
        <time>2018-07-21T10:53:21.000Z</time>
      </trkpt>
      <trkpt lat="43.96804" lon="7.12267">
        <ele>921</ele>
        <time>2018-07-21T10:53:22.000Z</time>
      </trkpt>
      <trkpt lat="43.96805" lon="7.1227">
        <ele>921</ele>
        <time>2018-07-21T10:53:25.000Z</time>
      </trkpt>
      <trkpt lat="43.96809" lon="7.12275">
        <ele>919</ele>
        <time>2018-07-21T10:53:30.000Z</time>
      </trkpt>
      <trkpt lat="43.96811" lon="7.12283">
        <ele>917</ele>
        <time>2018-07-21T10:53:32.000Z</time>
      </trkpt>
      <trkpt lat="43.9681" lon="7.12286">
        <ele>917</ele>
        <time>2018-07-21T10:53:33.000Z</time>
      </trkpt>
      <trkpt lat="43.96809" lon="7.12291">
        <ele>916</ele>
        <time>2018-07-21T10:53:35.000Z</time>
      </trkpt>
      <trkpt lat="43.96808" lon="7.12296">
        <ele>915</ele>
        <time>2018-07-21T10:53:37.000Z</time>
      </trkpt>
      <trkpt lat="43.96802" lon="7.12308">
        <ele>914</ele>
        <time>2018-07-21T10:53:42.000Z</time>
      </trkpt>
      <trkpt lat="43.968" lon="7.12309">
        <ele>915</ele>
        <time>2018-07-21T10:53:43.000Z</time>
      </trkpt>
      <trkpt lat="43.96792" lon="7.12322">
        <ele>916</ele>
        <time>2018-07-21T10:53:48.000Z</time>
      </trkpt>
      <trkpt lat="43.96787" lon="7.12328">
        <ele>918</ele>
        <time>2018-07-21T10:53:52.000Z</time>
      </trkpt>
      <trkpt lat="43.96785" lon="7.1233">
        <ele>919</ele>
        <time>2018-07-21T10:53:54.000Z</time>
      </trkpt>
      <trkpt lat="43.96783" lon="7.12332">
        <ele>920</ele>
        <time>2018-07-21T10:53:59.000Z</time>
      </trkpt>
      <trkpt lat="43.96783" lon="7.12335">
        <ele>906</ele>
        <time>2018-07-21T10:54:01.000Z</time>
      </trkpt>
      <trkpt lat="43.96785" lon="7.12338">
        <ele>905</ele>
        <time>2018-07-21T10:54:04.000Z</time>
      </trkpt>
      <trkpt lat="43.96786" lon="7.12339">
        <ele>904</ele>
        <time>2018-07-21T10:54:05.000Z</time>
      </trkpt>
      <trkpt lat="43.96788" lon="7.12343">
        <ele>903</ele>
        <time>2018-07-21T10:54:09.000Z</time>
      </trkpt>
      <trkpt lat="43.96789" lon="7.12345">
        <ele>903</ele>
        <time>2018-07-21T10:54:10.000Z</time>
      </trkpt>
      <trkpt lat="43.96789" lon="7.12352">
        <ele>902</ele>
        <time>2018-07-21T10:54:14.000Z</time>
      </trkpt>
      <trkpt lat="43.96789" lon="7.12354">
        <ele>902</ele>
        <time>2018-07-21T10:54:15.000Z</time>
      </trkpt>
      <trkpt lat="43.96789" lon="7.12359">
        <ele>901</ele>
        <time>2018-07-21T10:54:19.000Z</time>
      </trkpt>
      <trkpt lat="43.96789" lon="7.1236">
        <ele>901</ele>
        <time>2018-07-21T10:54:20.000Z</time>
      </trkpt>
      <trkpt lat="43.96789" lon="7.12361">
        <ele>901</ele>
        <time>2018-07-21T10:54:26.000Z</time>
      </trkpt>
      <trkpt lat="43.96789" lon="7.12365">
        <ele>901</ele>
        <time>2018-07-21T10:54:29.000Z</time>
      </trkpt>
      <trkpt lat="43.96789" lon="7.12369">
        <ele>900</ele>
        <time>2018-07-21T10:54:34.000Z</time>
      </trkpt>
      <trkpt lat="43.96789" lon="7.1237">
        <ele>900</ele>
        <time>2018-07-21T10:54:35.000Z</time>
      </trkpt>
      <trkpt lat="43.9679" lon="7.12376">
        <ele>899</ele>
        <time>2018-07-21T10:54:40.000Z</time>
      </trkpt>
      <trkpt lat="43.96793" lon="7.12389">
        <ele>897</ele>
        <time>2018-07-21T10:54:46.000Z</time>
      </trkpt>
      <trkpt lat="43.96795" lon="7.12394">
        <ele>896</ele>
        <time>2018-07-21T10:54:48.000Z</time>
      </trkpt>
      <trkpt lat="43.96796" lon="7.12399">
        <ele>895</ele>
        <time>2018-07-21T10:54:50.000Z</time>
      </trkpt>
      <trkpt lat="43.96796" lon="7.1241">
        <ele>894</ele>
        <time>2018-07-21T10:54:55.000Z</time>
      </trkpt>
      <trkpt lat="43.96793" lon="7.12417">
        <ele>886</ele>
        <time>2018-07-21T10:54:59.000Z</time>
      </trkpt>
      <trkpt lat="43.96789" lon="7.12421">
        <ele>887</ele>
        <time>2018-07-21T10:55:01.000Z</time>
      </trkpt>
      <trkpt lat="43.96788" lon="7.12423">
        <ele>888</ele>
        <time>2018-07-21T10:55:03.000Z</time>
      </trkpt>
      <trkpt lat="43.96783" lon="7.12426">
        <ele>890</ele>
        <time>2018-07-21T10:55:06.000Z</time>
      </trkpt>
      <trkpt lat="43.96781" lon="7.12429">
        <ele>892</ele>
        <time>2018-07-21T10:55:07.000Z</time>
      </trkpt>
      <trkpt lat="43.96771" lon="7.12436">
        <ele>895</ele>
        <time>2018-07-21T10:55:10.000Z</time>
      </trkpt>
      <trkpt lat="43.96764" lon="7.12441">
        <ele>896</ele>
        <time>2018-07-21T10:55:13.000Z</time>
      </trkpt>
      <trkpt lat="43.96761" lon="7.12446">
        <ele>896</ele>
        <time>2018-07-21T10:55:15.000Z</time>
      </trkpt>
      <trkpt lat="43.96752" lon="7.12451">
        <ele>895</ele>
        <time>2018-07-21T10:55:20.000Z</time>
      </trkpt>
      <trkpt lat="43.96743" lon="7.12459">
        <ele>932</ele>
        <time>2018-07-21T10:55:25.000Z</time>
      </trkpt>
      <trkpt lat="43.96743" lon="7.12461">
        <ele>931</ele>
        <time>2018-07-21T10:55:27.000Z</time>
      </trkpt>
      <trkpt lat="43.96741" lon="7.12464">
        <ele>931</ele>
        <time>2018-07-21T10:55:29.000Z</time>
      </trkpt>
      <trkpt lat="43.96737" lon="7.12468">
        <ele>931</ele>
        <time>2018-07-21T10:55:32.000Z</time>
      </trkpt>
      <trkpt lat="43.96734" lon="7.1247">
        <ele>931</ele>
        <time>2018-07-21T10:55:34.000Z</time>
      </trkpt>
      <trkpt lat="43.96732" lon="7.12473">
        <ele>931</ele>
        <time>2018-07-21T10:55:39.000Z</time>
      </trkpt>
      <trkpt lat="43.9673" lon="7.12476">
        <ele>931</ele>
        <time>2018-07-21T10:55:43.000Z</time>
      </trkpt>
      <trkpt lat="43.96729" lon="7.12479">
        <ele>930</ele>
        <time>2018-07-21T10:55:45.000Z</time>
      </trkpt>
      <trkpt lat="43.96727" lon="7.12482">
        <ele>931</ele>
        <time>2018-07-21T10:55:50.000Z</time>
      </trkpt>
      <trkpt lat="43.96724" lon="7.12486">
        <ele>931</ele>
        <time>2018-07-21T10:55:57.000Z</time>
      </trkpt>
      <trkpt lat="43.96721" lon="7.1249">
        <ele>932</ele>
        <time>2018-07-21T10:56:03.000Z</time>
      </trkpt>
      <trkpt lat="43.96719" lon="7.12492">
        <ele>933</ele>
        <time>2018-07-21T10:56:09.000Z</time>
      </trkpt>
      <trkpt lat="43.96719" lon="7.12493">
        <ele>933</ele>
        <time>2018-07-21T10:56:10.000Z</time>
      </trkpt>
      <trkpt lat="43.96718" lon="7.12497">
        <ele>934</ele>
        <time>2018-07-21T10:56:15.000Z</time>
      </trkpt>
      <trkpt lat="43.96717" lon="7.12501">
        <ele>928</ele>
        <time>2018-07-21T10:56:18.000Z</time>
      </trkpt>
      <trkpt lat="43.96716" lon="7.12504">
        <ele>929</ele>
        <time>2018-07-21T10:56:22.000Z</time>
      </trkpt>
      <trkpt lat="43.96715" lon="7.12506">
        <ele>929</ele>
        <time>2018-07-21T10:56:26.000Z</time>
      </trkpt>
      <trkpt lat="43.96715" lon="7.12505">
        <ele>929</ele>
        <time>2018-07-21T10:56:27.000Z</time>
      </trkpt>
      <trkpt lat="43.96715" lon="7.12508">
        <ele>929</ele>
        <time>2018-07-21T10:56:31.000Z</time>
      </trkpt>
      <trkpt lat="43.96716" lon="7.12508">
        <ele>929</ele>
        <time>2018-07-21T10:56:33.000Z</time>
      </trkpt>
      <trkpt lat="43.96716" lon="7.12509">
        <ele>929</ele>
        <time>2018-07-21T10:56:40.000Z</time>
      </trkpt>
      <trkpt lat="43.96717" lon="7.12511">
        <ele>928</ele>
        <time>2018-07-21T10:56:44.000Z</time>
      </trkpt>
      <trkpt lat="43.96717" lon="7.12513">
        <ele>928</ele>
        <time>2018-07-21T10:56:45.000Z</time>
      </trkpt>
      <trkpt lat="43.96717" lon="7.12522">
        <ele>929</ele>
        <time>2018-07-21T10:56:49.000Z</time>
      </trkpt>
      <trkpt lat="43.96716" lon="7.12525">
        <ele>929</ele>
        <time>2018-07-21T10:56:50.000Z</time>
      </trkpt>
      <trkpt lat="43.9671" lon="7.12536">
        <ele>932</ele>
        <time>2018-07-21T10:56:55.000Z</time>
      </trkpt>
      <trkpt lat="43.96703" lon="7.12544">
        <ele>935</ele>
        <time>2018-07-21T10:57:00.000Z</time>
      </trkpt>
      <trkpt lat="43.96702" lon="7.12546">
        <ele>935</ele>
        <time>2018-07-21T10:57:01.000Z</time>
      </trkpt>
      <trkpt lat="43.96704" lon="7.12552">
        <ele>935</ele>
        <time>2018-07-21T10:57:05.000Z</time>
      </trkpt>
      <trkpt lat="43.96704" lon="7.12564">
        <ele>935</ele>
        <time>2018-07-21T10:57:09.000Z</time>
      </trkpt>
      <trkpt lat="43.96699" lon="7.12573">
        <ele>938</ele>
        <time>2018-07-21T10:57:14.000Z</time>
      </trkpt>
      <trkpt lat="43.96697" lon="7.12574">
        <ele>939</ele>
        <time>2018-07-21T10:57:19.000Z</time>
      </trkpt>
      <trkpt lat="43.96696" lon="7.12575">
        <ele>940</ele>
        <time>2018-07-21T10:57:21.000Z</time>
      </trkpt>
      <trkpt lat="43.96696" lon="7.12577">
        <ele>940</ele>
        <time>2018-07-21T10:57:25.000Z</time>
      </trkpt>
      <trkpt lat="43.96695" lon="7.12578">
        <ele>941</ele>
        <time>2018-07-21T10:57:33.000Z</time>
      </trkpt>
      <trkpt lat="43.96694" lon="7.12579">
        <ele>942</ele>
        <time>2018-07-21T10:57:38.000Z</time>
      </trkpt>
      <trkpt lat="43.96692" lon="7.12579">
        <ele>942</ele>
        <time>2018-07-21T10:57:40.000Z</time>
      </trkpt>
      <trkpt lat="43.96694" lon="7.12582">
        <ele>941</ele>
        <time>2018-07-21T10:57:45.000Z</time>
      </trkpt>
      <trkpt lat="43.96695" lon="7.12584">
        <ele>945</ele>
        <time>2018-07-21T10:57:47.000Z</time>
      </trkpt>
      <trkpt lat="43.96701" lon="7.12589">
        <ele>942</ele>
        <time>2018-07-21T10:57:51.000Z</time>
      </trkpt>
      <trkpt lat="43.96713" lon="7.126">
        <ele>935</ele>
        <time>2018-07-21T10:57:56.000Z</time>
      </trkpt>
      <trkpt lat="43.96715" lon="7.12603">
        <ele>935</ele>
        <time>2018-07-21T10:57:57.000Z</time>
      </trkpt>
      <trkpt lat="43.96716" lon="7.12607">
        <ele>935</ele>
        <time>2018-07-21T10:57:58.000Z</time>
      </trkpt>
      <trkpt lat="43.96722" lon="7.12613">
        <ele>933</ele>
        <time>2018-07-21T10:58:00.000Z</time>
      </trkpt>
      <trkpt lat="43.96729" lon="7.12614">
        <ele>931</ele>
        <time>2018-07-21T10:58:03.000Z</time>
      </trkpt>
      <trkpt lat="43.9673" lon="7.12615">
        <ele>931</ele>
        <time>2018-07-21T10:58:04.000Z</time>
      </trkpt>
      <trkpt lat="43.96731" lon="7.12627">
        <ele>933</ele>
        <time>2018-07-21T10:58:08.000Z</time>
      </trkpt>
      <trkpt lat="43.96729" lon="7.12636">
        <ele>934</ele>
        <time>2018-07-21T10:58:12.000Z</time>
      </trkpt>
      <trkpt lat="43.96729" lon="7.1264">
        <ele>934</ele>
        <time>2018-07-21T10:58:13.000Z</time>
      </trkpt>
      <trkpt lat="43.96726" lon="7.12646">
        <ele>935</ele>
        <time>2018-07-21T10:58:16.000Z</time>
      </trkpt>
      <trkpt lat="43.96726" lon="7.12648">
        <ele>935</ele>
        <time>2018-07-21T10:58:18.000Z</time>
      </trkpt>
      <trkpt lat="43.96724" lon="7.12657">
        <ele>936</ele>
        <time>2018-07-21T10:58:20.000Z</time>
      </trkpt>
      <trkpt lat="43.96724" lon="7.12669">
        <ele>940</ele>
        <time>2018-07-21T10:58:23.000Z</time>
      </trkpt>
      <trkpt lat="43.96723" lon="7.1267">
        <ele>940</ele>
        <time>2018-07-21T10:58:24.000Z</time>
      </trkpt>
      <trkpt lat="43.96721" lon="7.12673">
        <ele>942</ele>
        <time>2018-07-21T10:58:28.000Z</time>
      </trkpt>
      <trkpt lat="43.96721" lon="7.12676">
        <ele>942</ele>
        <time>2018-07-21T10:58:30.000Z</time>
      </trkpt>
      <trkpt lat="43.96721" lon="7.12681">
        <ele>942</ele>
        <time>2018-07-21T10:58:32.000Z</time>
      </trkpt>
      <trkpt lat="43.96724" lon="7.12689">
        <ele>941</ele>
        <time>2018-07-21T10:58:35.000Z</time>
      </trkpt>
      <trkpt lat="43.96726" lon="7.12699">
        <ele>941</ele>
        <time>2018-07-21T10:58:38.000Z</time>
      </trkpt>
      <trkpt lat="43.96726" lon="7.12704">
        <ele>942</ele>
        <time>2018-07-21T10:58:39.000Z</time>
      </trkpt>
      <trkpt lat="43.96725" lon="7.12713">
        <ele>942</ele>
        <time>2018-07-21T10:58:41.000Z</time>
      </trkpt>
      <trkpt lat="43.96726" lon="7.12724">
        <ele>941</ele>
        <time>2018-07-21T10:58:43.000Z</time>
      </trkpt>
      <trkpt lat="43.96726" lon="7.12728">
        <ele>940</ele>
        <time>2018-07-21T10:58:44.000Z</time>
      </trkpt>
      <trkpt lat="43.96726" lon="7.12732">
        <ele>940</ele>
        <time>2018-07-21T10:58:45.000Z</time>
      </trkpt>
      <trkpt lat="43.96721" lon="7.12742">
        <ele>941</ele>
        <time>2018-07-21T10:58:48.000Z</time>
      </trkpt>
      <trkpt lat="43.96719" lon="7.12746">
        <ele>942</ele>
        <time>2018-07-21T10:58:49.000Z</time>
      </trkpt>
      <trkpt lat="43.96714" lon="7.12751">
        <ele>936</ele>
        <time>2018-07-21T10:58:51.000Z</time>
      </trkpt>
      <trkpt lat="43.96712" lon="7.12754">
        <ele>937</ele>
        <time>2018-07-21T10:58:52.000Z</time>
      </trkpt>
      <trkpt lat="43.9671" lon="7.12755">
        <ele>938</ele>
        <time>2018-07-21T10:58:53.000Z</time>
      </trkpt>
      <trkpt lat="43.96705" lon="7.12757">
        <ele>940</ele>
        <time>2018-07-21T10:58:56.000Z</time>
      </trkpt>
      <trkpt lat="43.96701" lon="7.12767">
        <ele>940</ele>
        <time>2018-07-21T10:59:00.000Z</time>
      </trkpt>
      <trkpt lat="43.96702" lon="7.12771">
        <ele>940</ele>
        <time>2018-07-21T10:59:01.000Z</time>
      </trkpt>
      <trkpt lat="43.96703" lon="7.12774">
        <ele>938</ele>
        <time>2018-07-21T10:59:02.000Z</time>
      </trkpt>
      <trkpt lat="43.96708" lon="7.12787">
        <ele>934</ele>
        <time>2018-07-21T10:59:05.000Z</time>
      </trkpt>
      <trkpt lat="43.96711" lon="7.12804">
        <ele>931</ele>
        <time>2018-07-21T10:59:08.000Z</time>
      </trkpt>
      <trkpt lat="43.9671" lon="7.12809">
        <ele>930</ele>
        <time>2018-07-21T10:59:09.000Z</time>
      </trkpt>
      <trkpt lat="43.96708" lon="7.12816">
        <ele>930</ele>
        <time>2018-07-21T10:59:11.000Z</time>
      </trkpt>
      <trkpt lat="43.96705" lon="7.12823">
        <ele>931</ele>
        <time>2018-07-21T10:59:13.000Z</time>
      </trkpt>
      <trkpt lat="43.96697" lon="7.12842">
        <ele>922</ele>
        <time>2018-07-21T10:59:18.000Z</time>
      </trkpt>
      <trkpt lat="43.96694" lon="7.12848">
        <ele>923</ele>
        <time>2018-07-21T10:59:20.000Z</time>
      </trkpt>
      <trkpt lat="43.96689" lon="7.12859">
        <ele>922</ele>
        <time>2018-07-21T10:59:23.000Z</time>
      </trkpt>
      <trkpt lat="43.96689" lon="7.12865">
        <ele>921</ele>
        <time>2018-07-21T10:59:24.000Z</time>
      </trkpt>
      <trkpt lat="43.96688" lon="7.12879">
        <ele>919</ele>
        <time>2018-07-21T10:59:28.000Z</time>
      </trkpt>
      <trkpt lat="43.96688" lon="7.12879">
        <ele>919</ele>
        <time>2018-07-21T10:59:30.000Z</time>
      </trkpt>
      <trkpt lat="43.96689" lon="7.12881">
        <ele>919</ele>
        <time>2018-07-21T10:59:32.000Z</time>
      </trkpt>
      <trkpt lat="43.96689" lon="7.12882">
        <ele>919</ele>
        <time>2018-07-21T10:59:33.000Z</time>
      </trkpt>
      <trkpt lat="43.9669" lon="7.12885">
        <ele>918</ele>
        <time>2018-07-21T10:59:38.000Z</time>
      </trkpt>
      <trkpt lat="43.9669" lon="7.12886">
        <ele>918</ele>
        <time>2018-07-21T10:59:43.000Z</time>
      </trkpt>
      <trkpt lat="43.96687" lon="7.1289">
        <ele>919</ele>
        <time>2018-07-21T10:59:49.000Z</time>
      </trkpt>
      <trkpt lat="43.96686" lon="7.12892">
        <ele>919</ele>
        <time>2018-07-21T10:59:51.000Z</time>
      </trkpt>
      <trkpt lat="43.96684" lon="7.12893">
        <ele>919</ele>
        <time>2018-07-21T10:59:52.000Z</time>
      </trkpt>
      <trkpt lat="43.96682" lon="7.12895">
        <ele>920</ele>
        <time>2018-07-21T10:59:54.000Z</time>
      </trkpt>
      <trkpt lat="43.9668" lon="7.12897">
        <ele>921</ele>
        <time>2018-07-21T10:59:57.000Z</time>
      </trkpt>
      <trkpt lat="43.9668" lon="7.12897">
        <ele>921</ele>
        <time>2018-07-21T11:00:01.000Z</time>
      </trkpt>
      <trkpt lat="43.96689" lon="7.12907">
        <ele>919</ele>
        <time>2018-07-21T11:00:07.000Z</time>
      </trkpt>
      <trkpt lat="43.96703" lon="7.12924">
        <ele>903</ele>
        <time>2018-07-21T11:00:12.000Z</time>
      </trkpt>
      <trkpt lat="43.96706" lon="7.12926">
        <ele>902</ele>
        <time>2018-07-21T11:00:13.000Z</time>
      </trkpt>
      <trkpt lat="43.96717" lon="7.12937">
        <ele>898</ele>
        <time>2018-07-21T11:00:17.000Z</time>
      </trkpt>
      <trkpt lat="43.96719" lon="7.12939">
        <ele>897</ele>
        <time>2018-07-21T11:00:18.000Z</time>
      </trkpt>
      <trkpt lat="43.96725" lon="7.12949">
        <ele>895</ele>
        <time>2018-07-21T11:00:22.000Z</time>
      </trkpt>
      <trkpt lat="43.96726" lon="7.12951">
        <ele>895</ele>
        <time>2018-07-21T11:00:23.000Z</time>
      </trkpt>
      <trkpt lat="43.96726" lon="7.12953">
        <ele>895</ele>
        <time>2018-07-21T11:00:24.000Z</time>
      </trkpt>
      <trkpt lat="43.96725" lon="7.12955">
        <ele>895</ele>
        <time>2018-07-21T11:00:27.000Z</time>
      </trkpt>
      <trkpt lat="43.96721" lon="7.12961">
        <ele>895</ele>
        <time>2018-07-21T11:00:32.000Z</time>
      </trkpt>
      <trkpt lat="43.96713" lon="7.12966">
        <ele>897</ele>
        <time>2018-07-21T11:00:39.000Z</time>
      </trkpt>
      <trkpt lat="43.9671" lon="7.12967">
        <ele>897</ele>
        <time>2018-07-21T11:00:42.000Z</time>
      </trkpt>
      <trkpt lat="43.96707" lon="7.1297">
        <ele>897</ele>
        <time>2018-07-21T11:00:45.000Z</time>
      </trkpt>
      <trkpt lat="43.96705" lon="7.12971">
        <ele>898</ele>
        <time>2018-07-21T11:00:46.000Z</time>
      </trkpt>
      <trkpt lat="43.96704" lon="7.12973">
        <ele>898</ele>
        <time>2018-07-21T11:00:51.000Z</time>
      </trkpt>
      <trkpt lat="43.96706" lon="7.12974">
        <ele>897</ele>
        <time>2018-07-21T11:00:59.000Z</time>
      </trkpt>
      <trkpt lat="43.96706" lon="7.12975">
        <ele>897</ele>
        <time>2018-07-21T11:01:05.000Z</time>
      </trkpt>
      <trkpt lat="43.96706" lon="7.12977">
        <ele>897</ele>
        <time>2018-07-21T11:01:12.000Z</time>
      </trkpt>
      <trkpt lat="43.96707" lon="7.1298">
        <ele>896</ele>
        <time>2018-07-21T11:01:24.000Z</time>
      </trkpt>
      <trkpt lat="43.96709" lon="7.12981">
        <ele>896</ele>
        <time>2018-07-21T11:01:32.000Z</time>
      </trkpt>
      <trkpt lat="43.96709" lon="7.12983">
        <ele>896</ele>
        <time>2018-07-21T11:01:42.000Z</time>
      </trkpt>
      <trkpt lat="43.96708" lon="7.12984">
        <ele>896</ele>
        <time>2018-07-21T11:01:49.000Z</time>
      </trkpt>
      <trkpt lat="43.96708" lon="7.12985">
        <ele>896</ele>
        <time>2018-07-21T11:01:58.000Z</time>
      </trkpt>
      <trkpt lat="43.96708" lon="7.12985">
        <ele>896</ele>
        <time>2018-07-21T11:02:04.000Z</time>
      </trkpt>
      <trkpt lat="43.96705" lon="7.12987">
        <ele>896</ele>
        <time>2018-07-21T11:02:08.000Z</time>
      </trkpt>
      <trkpt lat="43.96705" lon="7.12988">
        <ele>896</ele>
        <time>2018-07-21T11:02:13.000Z</time>
      </trkpt>
      <trkpt lat="43.96702" lon="7.12989">
        <ele>897</ele>
        <time>2018-07-21T11:02:17.000Z</time>
      </trkpt>
      <trkpt lat="43.96702" lon="7.1299">
        <ele>897</ele>
        <time>2018-07-21T11:02:18.000Z</time>
      </trkpt>
      <trkpt lat="43.96695" lon="7.12998">
        <ele>898</ele>
        <time>2018-07-21T11:02:23.000Z</time>
      </trkpt>
      <trkpt lat="43.96693" lon="7.13002">
        <ele>886</ele>
        <time>2018-07-21T11:02:24.000Z</time>
      </trkpt>
      <trkpt lat="43.96688" lon="7.13007">
        <ele>887</ele>
        <time>2018-07-21T11:02:27.000Z</time>
      </trkpt>
      <trkpt lat="43.96678" lon="7.13012">
        <ele>890</ele>
        <time>2018-07-21T11:02:32.000Z</time>
      </trkpt>
      <trkpt lat="43.96676" lon="7.13014">
        <ele>890</ele>
        <time>2018-07-21T11:02:34.000Z</time>
      </trkpt>
      <trkpt lat="43.96677" lon="7.13015">
        <ele>889</ele>
        <time>2018-07-21T11:02:36.000Z</time>
      </trkpt>
      <trkpt lat="43.96676" lon="7.13019">
        <ele>888</ele>
        <time>2018-07-21T11:02:37.000Z</time>
      </trkpt>
      <trkpt lat="43.96676" lon="7.13022">
        <ele>887</ele>
        <time>2018-07-21T11:02:38.000Z</time>
      </trkpt>
      <trkpt lat="43.96675" lon="7.13025">
        <ele>886</ele>
        <time>2018-07-21T11:02:39.000Z</time>
      </trkpt>
      <trkpt lat="43.96674" lon="7.1304">
        <ele>881</ele>
        <time>2018-07-21T11:02:45.000Z</time>
      </trkpt>
      <trkpt lat="43.9667" lon="7.13047">
        <ele>880</ele>
        <time>2018-07-21T11:02:49.000Z</time>
      </trkpt>
      <trkpt lat="43.9667" lon="7.1305">
        <ele>880</ele>
        <time>2018-07-21T11:02:50.000Z</time>
      </trkpt>
      <trkpt lat="43.96668" lon="7.13061">
        <ele>879</ele>
        <time>2018-07-21T11:02:55.000Z</time>
      </trkpt>
      <trkpt lat="43.96664" lon="7.13067">
        <ele>896</ele>
        <time>2018-07-21T11:02:58.000Z</time>
      </trkpt>
      <trkpt lat="43.96654" lon="7.13078">
        <ele>894</ele>
        <time>2018-07-21T11:03:04.000Z</time>
      </trkpt>
      <trkpt lat="43.96642" lon="7.13089">
        <ele>887</ele>
        <time>2018-07-21T11:03:10.000Z</time>
      </trkpt>
      <trkpt lat="43.96625" lon="7.13106">
        <ele>891</ele>
        <time>2018-07-21T11:03:15.000Z</time>
      </trkpt>
      <trkpt lat="43.96622" lon="7.13109">
        <ele>892</ele>
        <time>2018-07-21T11:03:16.000Z</time>
      </trkpt>
      <trkpt lat="43.96612" lon="7.13117">
        <ele>893</ele>
        <time>2018-07-21T11:03:20.000Z</time>
      </trkpt>
      <trkpt lat="43.96606" lon="7.13126">
        <ele>893</ele>
        <time>2018-07-21T11:03:24.000Z</time>
      </trkpt>
      <trkpt lat="43.96605" lon="7.1313">
        <ele>893</ele>
        <time>2018-07-21T11:03:25.000Z</time>
      </trkpt>
      <trkpt lat="43.96602" lon="7.13133">
        <ele>893</ele>
        <time>2018-07-21T11:03:26.000Z</time>
      </trkpt>
      <trkpt lat="43.96599" lon="7.13138">
        <ele>893</ele>
        <time>2018-07-21T11:03:28.000Z</time>
      </trkpt>
      <trkpt lat="43.96598" lon="7.13148">
        <ele>893</ele>
        <time>2018-07-21T11:03:33.000Z</time>
      </trkpt>
      <trkpt lat="43.96595" lon="7.13154">
        <ele>893</ele>
        <time>2018-07-21T11:03:36.000Z</time>
      </trkpt>
      <trkpt lat="43.96593" lon="7.13165">
        <ele>895</ele>
        <time>2018-07-21T11:03:41.000Z</time>
      </trkpt>
      <trkpt lat="43.96592" lon="7.13166">
        <ele>895</ele>
        <time>2018-07-21T11:03:45.000Z</time>
      </trkpt>
      <trkpt lat="43.96591" lon="7.13168">
        <ele>890</ele>
        <time>2018-07-21T11:03:47.000Z</time>
      </trkpt>
      <trkpt lat="43.9659" lon="7.1317">
        <ele>891</ele>
        <time>2018-07-21T11:03:49.000Z</time>
      </trkpt>
      <trkpt lat="43.96589" lon="7.13172">
        <ele>891</ele>
        <time>2018-07-21T11:03:51.000Z</time>
      </trkpt>
      <trkpt lat="43.96588" lon="7.13174">
        <ele>890</ele>
        <time>2018-07-21T11:03:54.000Z</time>
      </trkpt>
      <trkpt lat="43.96587" lon="7.13176">
        <ele>889</ele>
        <time>2018-07-21T11:03:58.000Z</time>
      </trkpt>
      <trkpt lat="43.96585" lon="7.13181">
        <ele>886</ele>
        <time>2018-07-21T11:04:02.000Z</time>
      </trkpt>
      <trkpt lat="43.96582" lon="7.13186">
        <ele>907</ele>
        <time>2018-07-21T11:04:06.000Z</time>
      </trkpt>
      <trkpt lat="43.96582" lon="7.13188">
        <ele>908</ele>
        <time>2018-07-21T11:04:08.000Z</time>
      </trkpt>
      <trkpt lat="43.96581" lon="7.13192">
        <ele>909</ele>
        <time>2018-07-21T11:04:13.000Z</time>
      </trkpt>
      <trkpt lat="43.96581" lon="7.13198">
        <ele>909</ele>
        <time>2018-07-21T11:04:18.000Z</time>
      </trkpt>
      <trkpt lat="43.96585" lon="7.13222">
        <ele>877</ele>
        <time>2018-07-21T11:04:25.000Z</time>
      </trkpt>
      <trkpt lat="43.96585" lon="7.13248">
        <ele>884</ele>
        <time>2018-07-21T11:04:30.000Z</time>
      </trkpt>
      <trkpt lat="43.96583" lon="7.13258">
        <ele>888</ele>
        <time>2018-07-21T11:04:32.000Z</time>
      </trkpt>
      <trkpt lat="43.96578" lon="7.13264">
        <ele>889</ele>
        <time>2018-07-21T11:04:34.000Z</time>
      </trkpt>
      <trkpt lat="43.96577" lon="7.13266">
        <ele>890</ele>
        <time>2018-07-21T11:04:35.000Z</time>
      </trkpt>
      <trkpt lat="43.9657" lon="7.13272">
        <ele>891</ele>
        <time>2018-07-21T11:04:40.000Z</time>
      </trkpt>
      <trkpt lat="43.96561" lon="7.13281">
        <ele>892</ele>
        <time>2018-07-21T11:04:45.000Z</time>
      </trkpt>
      <trkpt lat="43.96555" lon="7.13285">
        <ele>892</ele>
        <time>2018-07-21T11:04:48.000Z</time>
      </trkpt>
      <trkpt lat="43.96549" lon="7.1329">
        <ele>893</ele>
        <time>2018-07-21T11:04:50.000Z</time>
      </trkpt>
      <trkpt lat="43.96543" lon="7.1329">
        <ele>895</ele>
        <time>2018-07-21T11:04:53.000Z</time>
      </trkpt>
      <trkpt lat="43.9654" lon="7.13291">
        <ele>895</ele>
        <time>2018-07-21T11:04:54.000Z</time>
      </trkpt>
      <trkpt lat="43.96537" lon="7.13294">
        <ele>896</ele>
        <time>2018-07-21T11:04:56.000Z</time>
      </trkpt>
      <trkpt lat="43.96535" lon="7.13297">
        <ele>896</ele>
        <time>2018-07-21T11:04:57.000Z</time>
      </trkpt>
      <trkpt lat="43.96534" lon="7.13299">
        <ele>896</ele>
        <time>2018-07-21T11:04:58.000Z</time>
      </trkpt>
      <trkpt lat="43.96531" lon="7.13303">
        <ele>896</ele>
        <time>2018-07-21T11:05:00.000Z</time>
      </trkpt>
      <trkpt lat="43.9653" lon="7.13305">
        <ele>896</ele>
        <time>2018-07-21T11:05:01.000Z</time>
      </trkpt>
      <trkpt lat="43.96529" lon="7.13312">
        <ele>896</ele>
        <time>2018-07-21T11:05:03.000Z</time>
      </trkpt>
      <trkpt lat="43.96531" lon="7.13327">
        <ele>894</ele>
        <time>2018-07-21T11:05:06.000Z</time>
      </trkpt>
      <trkpt lat="43.96532" lon="7.13334">
        <ele>876</ele>
        <time>2018-07-21T11:05:07.000Z</time>
      </trkpt>
      <trkpt lat="43.96533" lon="7.1334">
        <ele>875</ele>
        <time>2018-07-21T11:05:08.000Z</time>
      </trkpt>
      <trkpt lat="43.96534" lon="7.13346">
        <ele>874</ele>
        <time>2018-07-21T11:05:09.000Z</time>
      </trkpt>
      <trkpt lat="43.96533" lon="7.1335">
        <ele>874</ele>
        <time>2018-07-21T11:05:10.000Z</time>
      </trkpt>
      <trkpt lat="43.96532" lon="7.13355">
        <ele>873</ele>
        <time>2018-07-21T11:05:11.000Z</time>
      </trkpt>
      <trkpt lat="43.96533" lon="7.1336">
        <ele>871</ele>
        <time>2018-07-21T11:05:12.000Z</time>
      </trkpt>
      <trkpt lat="43.96536" lon="7.13364">
        <ele>870</ele>
        <time>2018-07-21T11:05:13.000Z</time>
      </trkpt>
      <trkpt lat="43.96539" lon="7.13368">
        <ele>868</ele>
        <time>2018-07-21T11:05:14.000Z</time>
      </trkpt>
      <trkpt lat="43.96545" lon="7.13374">
        <ele>865</ele>
        <time>2018-07-21T11:05:16.000Z</time>
      </trkpt>
      <trkpt lat="43.96545" lon="7.13379">
        <ele>864</ele>
        <time>2018-07-21T11:05:17.000Z</time>
      </trkpt>
      <trkpt lat="43.96542" lon="7.13391">
        <ele>863</ele>
        <time>2018-07-21T11:05:19.000Z</time>
      </trkpt>
      <trkpt lat="43.9654" lon="7.13397">
        <ele>863</ele>
        <time>2018-07-21T11:05:20.000Z</time>
      </trkpt>
      <trkpt lat="43.96537" lon="7.13402">
        <ele>863</ele>
        <time>2018-07-21T11:05:21.000Z</time>
      </trkpt>
      <trkpt lat="43.96531" lon="7.13414">
        <ele>864</ele>
        <time>2018-07-21T11:05:23.000Z</time>
      </trkpt>
      <trkpt lat="43.96528" lon="7.1342">
        <ele>846</ele>
        <time>2018-07-21T11:05:24.000Z</time>
      </trkpt>
      <trkpt lat="43.96526" lon="7.13425">
        <ele>847</ele>
        <time>2018-07-21T11:05:25.000Z</time>
      </trkpt>
      <trkpt lat="43.96523" lon="7.13431">
        <ele>847</ele>
        <time>2018-07-21T11:05:26.000Z</time>
      </trkpt>
      <trkpt lat="43.9652" lon="7.13436">
        <ele>846</ele>
        <time>2018-07-21T11:05:27.000Z</time>
      </trkpt>
      <trkpt lat="43.96514" lon="7.1345">
        <ele>843</ele>
        <time>2018-07-21T11:05:29.000Z</time>
      </trkpt>
      <trkpt lat="43.96513" lon="7.13455">
        <ele>842</ele>
        <time>2018-07-21T11:05:30.000Z</time>
      </trkpt>
      <trkpt lat="43.96511" lon="7.1346">
        <ele>840</ele>
        <time>2018-07-21T11:05:31.000Z</time>
      </trkpt>
      <trkpt lat="43.96509" lon="7.13466">
        <ele>840</ele>
        <time>2018-07-21T11:05:32.000Z</time>
      </trkpt>
      <trkpt lat="43.96507" lon="7.13471">
        <ele>839</ele>
        <time>2018-07-21T11:05:33.000Z</time>
      </trkpt>
      <trkpt lat="43.96504" lon="7.13476">
        <ele>839</ele>
        <time>2018-07-21T11:05:34.000Z</time>
      </trkpt>
      <trkpt lat="43.96496" lon="7.13485">
        <ele>859</ele>
        <time>2018-07-21T11:05:36.000Z</time>
      </trkpt>
      <trkpt lat="43.96486" lon="7.13491">
        <ele>860</ele>
        <time>2018-07-21T11:05:38.000Z</time>
      </trkpt>
      <trkpt lat="43.96481" lon="7.13495">
        <ele>863</ele>
        <time>2018-07-21T11:05:39.000Z</time>
      </trkpt>
      <trkpt lat="43.96478" lon="7.13498">
        <ele>865</ele>
        <time>2018-07-21T11:05:40.000Z</time>
      </trkpt>
      <trkpt lat="43.96474" lon="7.13502">
        <ele>849</ele>
        <time>2018-07-21T11:05:41.000Z</time>
      </trkpt>
      <trkpt lat="43.96472" lon="7.13506">
        <ele>850</ele>
        <time>2018-07-21T11:05:42.000Z</time>
      </trkpt>
      <trkpt lat="43.96472" lon="7.13517">
        <ele>849</ele>
        <time>2018-07-21T11:05:44.000Z</time>
      </trkpt>
      <trkpt lat="43.96474" lon="7.13528">
        <ele>847</ele>
        <time>2018-07-21T11:05:46.000Z</time>
      </trkpt>
      <trkpt lat="43.96475" lon="7.13536">
        <ele>846</ele>
        <time>2018-07-21T11:05:47.000Z</time>
      </trkpt>
      <trkpt lat="43.96474" lon="7.13542">
        <ele>845</ele>
        <time>2018-07-21T11:05:48.000Z</time>
      </trkpt>
      <trkpt lat="43.96474" lon="7.13546">
        <ele>844</ele>
        <time>2018-07-21T11:05:51.000Z</time>
      </trkpt>
      <trkpt lat="43.96471" lon="7.13549">
        <ele>844</ele>
        <time>2018-07-21T11:05:57.000Z</time>
      </trkpt>
      <trkpt lat="43.9647" lon="7.13553">
        <ele>843</ele>
        <time>2018-07-21T11:06:02.000Z</time>
      </trkpt>
      <trkpt lat="43.96464" lon="7.13556">
        <ele>845</ele>
        <time>2018-07-21T11:06:10.000Z</time>
      </trkpt>
      <trkpt lat="43.96463" lon="7.13557">
        <ele>845</ele>
        <time>2018-07-21T11:06:11.000Z</time>
      </trkpt>
      <trkpt lat="43.9646" lon="7.13558">
        <ele>846</ele>
        <time>2018-07-21T11:06:15.000Z</time>
      </trkpt>
      <trkpt lat="43.9646" lon="7.13558">
        <ele>846</ele>
        <time>2018-07-21T11:06:19.000Z</time>
      </trkpt>
      <trkpt lat="43.9646" lon="7.13558">
        <ele>846</ele>
        <time>2018-07-21T11:06:20.000Z</time>
      </trkpt>
      <trkpt lat="43.96458" lon="7.13558">
        <ele>847</ele>
        <time>2018-07-21T11:06:31.000Z</time>
      </trkpt>
      <trkpt lat="43.96455" lon="7.13563">
        <ele>847</ele>
        <time>2018-07-21T11:06:38.000Z</time>
      </trkpt>
      <trkpt lat="43.96454" lon="7.13564">
        <ele>848</ele>
        <time>2018-07-21T11:06:40.000Z</time>
      </trkpt>
      <trkpt lat="43.96451" lon="7.13567">
        <ele>848</ele>
        <time>2018-07-21T11:06:44.000Z</time>
      </trkpt>
      <trkpt lat="43.96449" lon="7.1357">
        <ele>849</ele>
        <time>2018-07-21T11:06:49.000Z</time>
      </trkpt>
      <trkpt lat="43.96449" lon="7.1357">
        <ele>849</ele>
        <time>2018-07-21T11:06:52.000Z</time>
      </trkpt>
      <trkpt lat="43.96449" lon="7.1357">
        <ele>849</ele>
        <time>2018-07-21T11:06:55.000Z</time>
      </trkpt>
      <trkpt lat="43.96449" lon="7.13571">
        <ele>849</ele>
        <time>2018-07-21T11:07:05.000Z</time>
      </trkpt>
      <trkpt lat="43.96448" lon="7.13572">
        <ele>849</ele>
        <time>2018-07-21T11:07:14.000Z</time>
      </trkpt>
      <trkpt lat="43.96445" lon="7.13572">
        <ele>851</ele>
        <time>2018-07-21T11:07:20.000Z</time>
      </trkpt>
      <trkpt lat="43.96446" lon="7.13568">
        <ele>850</ele>
        <time>2018-07-21T11:07:23.000Z</time>
      </trkpt>
      <trkpt lat="43.96447" lon="7.13564">
        <ele>850</ele>
        <time>2018-07-21T11:07:26.000Z</time>
      </trkpt>
      <trkpt lat="43.96448" lon="7.13559">
        <ele>850</ele>
        <time>2018-07-21T11:07:31.000Z</time>
      </trkpt>
      <trkpt lat="43.96448" lon="7.13555">
        <ele>851</ele>
        <time>2018-07-21T11:07:35.000Z</time>
      </trkpt>
      <trkpt lat="43.96449" lon="7.13553">
        <ele>851</ele>
        <time>2018-07-21T11:07:37.000Z</time>
      </trkpt>
      <trkpt lat="43.96449" lon="7.13548">
        <ele>851</ele>
        <time>2018-07-21T11:07:42.000Z</time>
      </trkpt>
      <trkpt lat="43.9645" lon="7.13545">
        <ele>852</ele>
        <time>2018-07-21T11:07:45.000Z</time>
      </trkpt>
      <trkpt lat="43.9645" lon="7.13544">
        <ele>852</ele>
        <time>2018-07-21T11:07:50.000Z</time>
      </trkpt>
      <trkpt lat="43.9645" lon="7.13544">
        <ele>852</ele>
        <time>2018-07-21T11:07:52.000Z</time>
      </trkpt>
      <trkpt lat="43.96451" lon="7.13539">
        <ele>852</ele>
        <time>2018-07-21T11:08:05.000Z</time>
      </trkpt>
      <trkpt lat="43.96451" lon="7.13537">
        <ele>853</ele>
        <time>2018-07-21T11:08:07.000Z</time>
      </trkpt>
      <trkpt lat="43.96453" lon="7.13531">
        <ele>853</ele>
        <time>2018-07-21T11:08:13.000Z</time>
      </trkpt>
      <trkpt lat="43.96453" lon="7.13529">
        <ele>853</ele>
        <time>2018-07-21T11:08:15.000Z</time>
      </trkpt>
      <trkpt lat="43.96453" lon="7.13526">
        <ele>854</ele>
        <time>2018-07-21T11:08:22.000Z</time>
      </trkpt>
      <trkpt lat="43.9645" lon="7.13531">
        <ele>854</ele>
        <time>2018-07-21T11:08:28.000Z</time>
      </trkpt>
      <trkpt lat="43.96448" lon="7.13533">
        <ele>854</ele>
        <time>2018-07-21T11:08:30.000Z</time>
      </trkpt>
      <trkpt lat="43.96446" lon="7.13536">
        <ele>855</ele>
        <time>2018-07-21T11:08:35.000Z</time>
      </trkpt>
      <trkpt lat="43.96443" lon="7.13539">
        <ele>855</ele>
        <time>2018-07-21T11:08:40.000Z</time>
      </trkpt>
      <trkpt lat="43.96442" lon="7.1354">
        <ele>855</ele>
        <time>2018-07-21T11:08:42.000Z</time>
      </trkpt>
      <trkpt lat="43.9644" lon="7.13544">
        <ele>855</ele>
        <time>2018-07-21T11:08:48.000Z</time>
      </trkpt>
      <trkpt lat="43.96439" lon="7.13545">
        <ele>855</ele>
        <time>2018-07-21T11:08:50.000Z</time>
      </trkpt>
      <trkpt lat="43.96437" lon="7.13548">
        <ele>855</ele>
        <time>2018-07-21T11:08:54.000Z</time>
      </trkpt>
      <trkpt lat="43.96434" lon="7.13552">
        <ele>855</ele>
        <time>2018-07-21T11:09:00.000Z</time>
      </trkpt>
      <trkpt lat="43.96433" lon="7.13554">
        <ele>855</ele>
        <time>2018-07-21T11:09:02.000Z</time>
      </trkpt>
      <trkpt lat="43.96431" lon="7.13556">
        <ele>855</ele>
        <time>2018-07-21T11:09:05.000Z</time>
      </trkpt>
      <trkpt lat="43.96428" lon="7.13559">
        <ele>856</ele>
        <time>2018-07-21T11:09:11.000Z</time>
      </trkpt>
      <trkpt lat="43.96425" lon="7.13558">
        <ele>856</ele>
        <time>2018-07-21T11:09:16.000Z</time>
      </trkpt>
      <trkpt lat="43.96426" lon="7.13556">
        <ele>856</ele>
        <time>2018-07-21T11:09:18.000Z</time>
      </trkpt>
      <trkpt lat="43.96427" lon="7.13554">
        <ele>856</ele>
        <time>2018-07-21T11:09:20.000Z</time>
      </trkpt>
      <trkpt lat="43.96429" lon="7.13549">
        <ele>856</ele>
        <time>2018-07-21T11:09:26.000Z</time>
      </trkpt>
      <trkpt lat="43.96431" lon="7.13545">
        <ele>857</ele>
        <time>2018-07-21T11:09:30.000Z</time>
      </trkpt>
      <trkpt lat="43.96432" lon="7.13536">
        <ele>858</ele>
        <time>2018-07-21T11:09:38.000Z</time>
      </trkpt>
      <trkpt lat="43.96433" lon="7.13534">
        <ele>859</ele>
        <time>2018-07-21T11:09:40.000Z</time>
      </trkpt>
      <trkpt lat="43.96433" lon="7.1353">
        <ele>860</ele>
        <time>2018-07-21T11:09:44.000Z</time>
      </trkpt>
      <trkpt lat="43.96434" lon="7.13525">
        <ele>861</ele>
        <time>2018-07-21T11:09:49.000Z</time>
      </trkpt>
      <trkpt lat="43.96435" lon="7.13523">
        <ele>862</ele>
        <time>2018-07-21T11:09:51.000Z</time>
      </trkpt>
      <trkpt lat="43.96436" lon="7.13518">
        <ele>864</ele>
        <time>2018-07-21T11:09:57.000Z</time>
      </trkpt>
      <trkpt lat="43.96436" lon="7.13516">
        <ele>864</ele>
        <time>2018-07-21T11:09:59.000Z</time>
      </trkpt>
      <trkpt lat="43.96437" lon="7.1351">
        <ele>866</ele>
        <time>2018-07-21T11:10:05.000Z</time>
      </trkpt>
      <trkpt lat="43.96437" lon="7.13506">
        <ele>867</ele>
        <time>2018-07-21T11:10:09.000Z</time>
      </trkpt>
      <trkpt lat="43.96437" lon="7.13503">
        <ele>867</ele>
        <time>2018-07-21T11:10:12.000Z</time>
      </trkpt>
      <trkpt lat="43.96437" lon="7.13498">
        <ele>883</ele>
        <time>2018-07-21T11:10:18.000Z</time>
      </trkpt>
      <trkpt lat="43.96436" lon="7.13495">
        <ele>883</ele>
        <time>2018-07-21T11:10:19.000Z</time>
      </trkpt>
      <trkpt lat="43.96434" lon="7.13489">
        <ele>884</ele>
        <time>2018-07-21T11:10:26.000Z</time>
      </trkpt>
      <trkpt lat="43.96434" lon="7.13488">
        <ele>884</ele>
        <time>2018-07-21T11:10:27.000Z</time>
      </trkpt>
      <trkpt lat="43.96433" lon="7.13483">
        <ele>884</ele>
        <time>2018-07-21T11:10:33.000Z</time>
      </trkpt>
      <trkpt lat="43.96433" lon="7.13479">
        <ele>884</ele>
        <time>2018-07-21T11:10:37.000Z</time>
      </trkpt>
      <trkpt lat="43.96433" lon="7.13479">
        <ele>884</ele>
        <time>2018-07-21T11:10:39.000Z</time>
      </trkpt>
      <trkpt lat="43.96432" lon="7.13472">
        <ele>885</ele>
        <time>2018-07-21T11:10:45.000Z</time>
      </trkpt>
      <trkpt lat="43.96432" lon="7.13471">
        <ele>885</ele>
        <time>2018-07-21T11:10:46.000Z</time>
      </trkpt>
      <trkpt lat="43.96431" lon="7.13464">
        <ele>887</ele>
        <time>2018-07-21T11:10:53.000Z</time>
      </trkpt>
      <trkpt lat="43.96431" lon="7.13462">
        <ele>887</ele>
        <time>2018-07-21T11:10:55.000Z</time>
      </trkpt>
      <trkpt lat="43.96432" lon="7.13455">
        <ele>889</ele>
        <time>2018-07-21T11:11:01.000Z</time>
      </trkpt>
      <trkpt lat="43.96436" lon="7.13453">
        <ele>889</ele>
        <time>2018-07-21T11:11:05.000Z</time>
      </trkpt>
      <trkpt lat="43.96438" lon="7.13452">
        <ele>888</ele>
        <time>2018-07-21T11:11:08.000Z</time>
      </trkpt>
      <trkpt lat="43.96442" lon="7.1345">
        <ele>887</ele>
        <time>2018-07-21T11:11:13.000Z</time>
      </trkpt>
      <trkpt lat="43.96446" lon="7.13448">
        <ele>887</ele>
        <time>2018-07-21T11:11:18.000Z</time>
      </trkpt>
      <trkpt lat="43.96448" lon="7.13447">
        <ele>886</ele>
        <time>2018-07-21T11:11:21.000Z</time>
      </trkpt>
      <trkpt lat="43.96454" lon="7.13443">
        <ele>885</ele>
        <time>2018-07-21T11:11:29.000Z</time>
      </trkpt>
      <trkpt lat="43.96455" lon="7.13442">
        <ele>885</ele>
        <time>2018-07-21T11:11:31.000Z</time>
      </trkpt>
      <trkpt lat="43.96458" lon="7.13438">
        <ele>885</ele>
        <time>2018-07-21T11:11:37.000Z</time>
      </trkpt>
      <trkpt lat="43.96462" lon="7.13435">
        <ele>884</ele>
        <time>2018-07-21T11:11:43.000Z</time>
      </trkpt>
      <trkpt lat="43.96464" lon="7.13433">
        <ele>883</ele>
        <time>2018-07-21T11:11:46.000Z</time>
      </trkpt>
      <trkpt lat="43.96467" lon="7.1343">
        <ele>883</ele>
        <time>2018-07-21T11:11:51.000Z</time>
      </trkpt>
      <trkpt lat="43.96468" lon="7.13427">
        <ele>883</ele>
        <time>2018-07-21T11:11:54.000Z</time>
      </trkpt>
      <trkpt lat="43.96469" lon="7.13425">
        <ele>882</ele>
        <time>2018-07-21T11:11:56.000Z</time>
      </trkpt>
      <trkpt lat="43.96471" lon="7.13419">
        <ele>882</ele>
        <time>2018-07-21T11:12:04.000Z</time>
      </trkpt>
      <trkpt lat="43.96474" lon="7.13412">
        <ele>901</ele>
        <time>2018-07-21T11:12:12.000Z</time>
      </trkpt>
      <trkpt lat="43.96475" lon="7.13409">
        <ele>901</ele>
        <time>2018-07-21T11:12:16.000Z</time>
      </trkpt>
      <trkpt lat="43.96475" lon="7.13407">
        <ele>901</ele>
        <time>2018-07-21T11:12:19.000Z</time>
      </trkpt>
      <trkpt lat="43.96477" lon="7.13403">
        <ele>901</ele>
        <time>2018-07-21T11:12:26.000Z</time>
      </trkpt>
      <trkpt lat="43.96477" lon="7.13402">
        <ele>901</ele>
        <time>2018-07-21T11:12:27.000Z</time>
      </trkpt>
      <trkpt lat="43.96479" lon="7.13396">
        <ele>902</ele>
        <time>2018-07-21T11:12:34.000Z</time>
      </trkpt>
      <trkpt lat="43.96479" lon="7.13395">
        <ele>903</ele>
        <time>2018-07-21T11:12:36.000Z</time>
      </trkpt>
      <trkpt lat="43.96481" lon="7.1339">
        <ele>904</ele>
        <time>2018-07-21T11:12:42.000Z</time>
      </trkpt>
      <trkpt lat="43.96482" lon="7.13389">
        <ele>904</ele>
        <time>2018-07-21T11:12:44.000Z</time>
      </trkpt>
      <trkpt lat="43.96483" lon="7.13385">
        <ele>905</ele>
        <time>2018-07-21T11:12:49.000Z</time>
      </trkpt>
      <trkpt lat="43.96483" lon="7.13385">
        <ele>905</ele>
        <time>2018-07-21T11:12:51.000Z</time>
      </trkpt>
      <trkpt lat="43.96483" lon="7.13385">
        <ele>905</ele>
        <time>2018-07-21T11:12:57.000Z</time>
      </trkpt>
      <trkpt lat="43.96483" lon="7.13384">
        <ele>905</ele>
        <time>2018-07-21T11:13:06.000Z</time>
      </trkpt>
      <trkpt lat="43.96485" lon="7.13377">
        <ele>907</ele>
        <time>2018-07-21T11:13:14.000Z</time>
      </trkpt>
      <trkpt lat="43.96486" lon="7.13375">
        <ele>907</ele>
        <time>2018-07-21T11:13:17.000Z</time>
      </trkpt>
      <trkpt lat="43.96488" lon="7.1337">
        <ele>908</ele>
        <time>2018-07-21T11:13:23.000Z</time>
      </trkpt>
      <trkpt lat="43.96489" lon="7.13364">
        <ele>909</ele>
        <time>2018-07-21T11:13:30.000Z</time>
      </trkpt>
      <trkpt lat="43.96489" lon="7.13363">
        <ele>909</ele>
        <time>2018-07-21T11:13:31.000Z</time>
      </trkpt>
      <trkpt lat="43.9649" lon="7.13359">
        <ele>909</ele>
        <time>2018-07-21T11:13:36.000Z</time>
      </trkpt>
      <trkpt lat="43.96491" lon="7.13355">
        <ele>910</ele>
        <time>2018-07-21T11:13:39.000Z</time>
      </trkpt>
      <trkpt lat="43.96491" lon="7.13352">
        <ele>910</ele>
        <time>2018-07-21T11:13:42.000Z</time>
      </trkpt>
      <trkpt lat="43.96492" lon="7.13346">
        <ele>909</ele>
        <time>2018-07-21T11:13:48.000Z</time>
      </trkpt>
      <trkpt lat="43.96492" lon="7.13345">
        <ele>909</ele>
        <time>2018-07-21T11:13:49.000Z</time>
      </trkpt>
      <trkpt lat="43.96491" lon="7.13337">
        <ele>909</ele>
        <time>2018-07-21T11:13:56.000Z</time>
      </trkpt>
      <trkpt lat="43.96491" lon="7.13336">
        <ele>909</ele>
        <time>2018-07-21T11:13:57.000Z</time>
      </trkpt>
      <trkpt lat="43.96492" lon="7.13332">
        <ele>917</ele>
        <time>2018-07-21T11:14:02.000Z</time>
      </trkpt>
      <trkpt lat="43.96492" lon="7.13329">
        <ele>918</ele>
        <time>2018-07-21T11:14:05.000Z</time>
      </trkpt>
      <trkpt lat="43.96493" lon="7.13324">
        <ele>921</ele>
        <time>2018-07-21T11:14:11.000Z</time>
      </trkpt>
      <trkpt lat="43.96494" lon="7.1332">
        <ele>923</ele>
        <time>2018-07-21T11:14:14.000Z</time>
      </trkpt>
      <trkpt lat="43.96495" lon="7.13312">
        <ele>928</ele>
        <time>2018-07-21T11:14:21.000Z</time>
      </trkpt>
      <trkpt lat="43.96495" lon="7.13311">
        <ele>929</ele>
        <time>2018-07-21T11:14:22.000Z</time>
      </trkpt>
      <trkpt lat="43.96496" lon="7.13305">
        <ele>932</ele>
        <time>2018-07-21T11:14:29.000Z</time>
      </trkpt>
      <trkpt lat="43.96497" lon="7.13304">
        <ele>932</ele>
        <time>2018-07-21T11:14:30.000Z</time>
      </trkpt>
      <trkpt lat="43.96496" lon="7.13296">
        <ele>935</ele>
        <time>2018-07-21T11:14:38.000Z</time>
      </trkpt>
      <trkpt lat="43.96496" lon="7.13295">
        <ele>935</ele>
        <time>2018-07-21T11:14:39.000Z</time>
      </trkpt>
      <trkpt lat="43.96496" lon="7.13287">
        <ele>937</ele>
        <time>2018-07-21T11:14:47.000Z</time>
      </trkpt>
      <trkpt lat="43.96496" lon="7.13286">
        <ele>937</ele>
        <time>2018-07-21T11:14:48.000Z</time>
      </trkpt>
      <trkpt lat="43.96496" lon="7.1328">
        <ele>938</ele>
        <time>2018-07-21T11:14:54.000Z</time>
      </trkpt>
      <trkpt lat="43.96496" lon="7.13276">
        <ele>938</ele>
        <time>2018-07-21T11:14:57.000Z</time>
      </trkpt>
      <trkpt lat="43.96496" lon="7.13274">
        <ele>938</ele>
        <time>2018-07-21T11:15:01.000Z</time>
      </trkpt>
      <trkpt lat="43.96497" lon="7.1327">
        <ele>937</ele>
        <time>2018-07-21T11:15:04.000Z</time>
      </trkpt>
      <trkpt lat="43.96497" lon="7.13266">
        <ele>937</ele>
        <time>2018-07-21T11:15:09.000Z</time>
      </trkpt>
      <trkpt lat="43.965" lon="7.13262">
        <ele>916</ele>
        <time>2018-07-21T11:15:15.000Z</time>
      </trkpt>
      <trkpt lat="43.96501" lon="7.13262">
        <ele>917</ele>
        <time>2018-07-21T11:15:17.000Z</time>
      </trkpt>
      <trkpt lat="43.96505" lon="7.13259">
        <ele>918</ele>
        <time>2018-07-21T11:15:24.000Z</time>
      </trkpt>
      <trkpt lat="43.96505" lon="7.13258">
        <ele>918</ele>
        <time>2018-07-21T11:15:25.000Z</time>
      </trkpt>
      <trkpt lat="43.9651" lon="7.13255">
        <ele>916</ele>
        <time>2018-07-21T11:15:33.000Z</time>
      </trkpt>
      <trkpt lat="43.96511" lon="7.13255">
        <ele>916</ele>
        <time>2018-07-21T11:15:34.000Z</time>
      </trkpt>
      <trkpt lat="43.96515" lon="7.13249">
        <ele>924</ele>
        <time>2018-07-21T11:15:42.000Z</time>
      </trkpt>
      <trkpt lat="43.96516" lon="7.13248">
        <ele>923</ele>
        <time>2018-07-21T11:15:44.000Z</time>
      </trkpt>
      <trkpt lat="43.9652" lon="7.13243">
        <ele>922</ele>
        <time>2018-07-21T11:15:52.000Z</time>
      </trkpt>
      <trkpt lat="43.96521" lon="7.13243">
        <ele>922</ele>
        <time>2018-07-21T11:15:53.000Z</time>
      </trkpt>
      <trkpt lat="43.96524" lon="7.13238">
        <ele>921</ele>
        <time>2018-07-21T11:15:58.000Z</time>
      </trkpt>
      <trkpt lat="43.96526" lon="7.13235">
        <ele>920</ele>
        <time>2018-07-21T11:16:02.000Z</time>
      </trkpt>
      <trkpt lat="43.96527" lon="7.13234">
        <ele>920</ele>
        <time>2018-07-21T11:16:04.000Z</time>
      </trkpt>
      <trkpt lat="43.9653" lon="7.13226">
        <ele>919</ele>
        <time>2018-07-21T11:16:12.000Z</time>
      </trkpt>
      <trkpt lat="43.96531" lon="7.13225">
        <ele>919</ele>
        <time>2018-07-21T11:16:13.000Z</time>
      </trkpt>
      <trkpt lat="43.96531" lon="7.13221">
        <ele>920</ele>
        <time>2018-07-21T11:16:17.000Z</time>
      </trkpt>
      <trkpt lat="43.96532" lon="7.13217">
        <ele>920</ele>
        <time>2018-07-21T11:16:22.000Z</time>
      </trkpt>
      <trkpt lat="43.96533" lon="7.13215">
        <ele>920</ele>
        <time>2018-07-21T11:16:24.000Z</time>
      </trkpt>
      <trkpt lat="43.96533" lon="7.13211">
        <ele>920</ele>
        <time>2018-07-21T11:16:30.000Z</time>
      </trkpt>
      <trkpt lat="43.96532" lon="7.13207">
        <ele>921</ele>
        <time>2018-07-21T11:16:36.000Z</time>
      </trkpt>
      <trkpt lat="43.96532" lon="7.13206">
        <ele>921</ele>
        <time>2018-07-21T11:16:44.000Z</time>
      </trkpt>
      <trkpt lat="43.96531" lon="7.13205">
        <ele>922</ele>
        <time>2018-07-21T11:17:08.000Z</time>
      </trkpt>
      <trkpt lat="43.96531" lon="7.13201">
        <ele>923</ele>
        <time>2018-07-21T11:17:13.000Z</time>
      </trkpt>
      <trkpt lat="43.9653" lon="7.13197">
        <ele>923</ele>
        <time>2018-07-21T11:17:15.000Z</time>
      </trkpt>
      <trkpt lat="43.96531" lon="7.13194">
        <ele>924</ele>
        <time>2018-07-21T11:17:17.000Z</time>
      </trkpt>
      <trkpt lat="43.9653" lon="7.13189">
        <ele>925</ele>
        <time>2018-07-21T11:17:21.000Z</time>
      </trkpt>
      <trkpt lat="43.9653" lon="7.13187">
        <ele>926</ele>
        <time>2018-07-21T11:17:22.000Z</time>
      </trkpt>
      <trkpt lat="43.9653" lon="7.13186">
        <ele>926</ele>
        <time>2018-07-21T11:17:23.000Z</time>
      </trkpt>
      <trkpt lat="43.96529" lon="7.13177">
        <ele>929</ele>
        <time>2018-07-21T11:17:29.000Z</time>
      </trkpt>
      <trkpt lat="43.96528" lon="7.13168">
        <ele>930</ele>
        <time>2018-07-21T11:17:35.000Z</time>
      </trkpt>
      <trkpt lat="43.96528" lon="7.13168">
        <ele>930</ele>
        <time>2018-07-21T11:17:36.000Z</time>
      </trkpt>
      <trkpt lat="43.96528" lon="7.13166">
        <ele>942</ele>
        <time>2018-07-21T11:17:37.000Z</time>
      </trkpt>
      <trkpt lat="43.96527" lon="7.13158">
        <ele>942</ele>
        <time>2018-07-21T11:17:41.000Z</time>
      </trkpt>
      <trkpt lat="43.96526" lon="7.13153">
        <ele>943</ele>
        <time>2018-07-21T11:17:45.000Z</time>
      </trkpt>
      <trkpt lat="43.96526" lon="7.1315">
        <ele>942</ele>
        <time>2018-07-21T11:17:47.000Z</time>
      </trkpt>
      <trkpt lat="43.96526" lon="7.13148">
        <ele>942</ele>
        <time>2018-07-21T11:17:50.000Z</time>
      </trkpt>
      <trkpt lat="43.96526" lon="7.13147">
        <ele>942</ele>
        <time>2018-07-21T11:17:52.000Z</time>
      </trkpt>
      <trkpt lat="43.96528" lon="7.13146">
        <ele>942</ele>
        <time>2018-07-21T11:17:56.000Z</time>
      </trkpt>
      <trkpt lat="43.96529" lon="7.13146">
        <ele>941</ele>
        <time>2018-07-21T11:17:58.000Z</time>
      </trkpt>
      <trkpt lat="43.96528" lon="7.13141">
        <ele>942</ele>
        <time>2018-07-21T11:18:04.000Z</time>
      </trkpt>
      <trkpt lat="43.96527" lon="7.1314">
        <ele>942</ele>
        <time>2018-07-21T11:18:05.000Z</time>
      </trkpt>
      <trkpt lat="43.96528" lon="7.13131">
        <ele>942</ele>
        <time>2018-07-21T11:18:12.000Z</time>
      </trkpt>
      <trkpt lat="43.96528" lon="7.13127">
        <ele>943</ele>
        <time>2018-07-21T11:18:16.000Z</time>
      </trkpt>
      <trkpt lat="43.96524" lon="7.1312">
        <ele>945</ele>
        <time>2018-07-21T11:18:23.000Z</time>
      </trkpt>
      <trkpt lat="43.96524" lon="7.1312">
        <ele>945</ele>
        <time>2018-07-21T11:18:24.000Z</time>
      </trkpt>
      <trkpt lat="43.96521" lon="7.13124">
        <ele>945</ele>
        <time>2018-07-21T11:18:30.000Z</time>
      </trkpt>
      <trkpt lat="43.9652" lon="7.13125">
        <ele>945</ele>
        <time>2018-07-21T11:18:31.000Z</time>
      </trkpt>
      <trkpt lat="43.96519" lon="7.13129">
        <ele>945</ele>
        <time>2018-07-21T11:18:38.000Z</time>
      </trkpt>
      <trkpt lat="43.96518" lon="7.13129">
        <ele>945</ele>
        <time>2018-07-21T11:18:45.000Z</time>
      </trkpt>
      <trkpt lat="43.96517" lon="7.13131">
        <ele>945</ele>
        <time>2018-07-21T11:18:58.000Z</time>
      </trkpt>
      <trkpt lat="43.96518" lon="7.13133">
        <ele>945</ele>
        <time>2018-07-21T11:19:05.000Z</time>
      </trkpt>
      <trkpt lat="43.96515" lon="7.13142">
        <ele>946</ele>
        <time>2018-07-21T11:19:10.000Z</time>
      </trkpt>
      <trkpt lat="43.96515" lon="7.13143">
        <ele>946</ele>
        <time>2018-07-21T11:19:11.000Z</time>
      </trkpt>
      <trkpt lat="43.96513" lon="7.13148">
        <ele>947</ele>
        <time>2018-07-21T11:19:14.000Z</time>
      </trkpt>
      <trkpt lat="43.96511" lon="7.13151">
        <ele>948</ele>
        <time>2018-07-21T11:19:16.000Z</time>
      </trkpt>
      <trkpt lat="43.9651" lon="7.13153">
        <ele>949</ele>
        <time>2018-07-21T11:19:17.000Z</time>
      </trkpt>
      <trkpt lat="43.96509" lon="7.13155">
        <ele>950</ele>
        <time>2018-07-21T11:19:19.000Z</time>
      </trkpt>
      <trkpt lat="43.96508" lon="7.13159">
        <ele>951</ele>
        <time>2018-07-21T11:19:21.000Z</time>
      </trkpt>
      <trkpt lat="43.96507" lon="7.13162">
        <ele>953</ele>
        <time>2018-07-21T11:19:23.000Z</time>
      </trkpt>
      <trkpt lat="43.96505" lon="7.13168">
        <ele>951</ele>
        <time>2018-07-21T11:19:27.000Z</time>
      </trkpt>
      <trkpt lat="43.96504" lon="7.13171">
        <ele>950</ele>
        <time>2018-07-21T11:19:29.000Z</time>
      </trkpt>
      <trkpt lat="43.96503" lon="7.13174">
        <ele>947</ele>
        <time>2018-07-21T11:19:31.000Z</time>
      </trkpt>
      <trkpt lat="43.96503" lon="7.1318">
        <ele>942</ele>
        <time>2018-07-21T11:19:35.000Z</time>
      </trkpt>
      <trkpt lat="43.96502" lon="7.13182">
        <ele>941</ele>
        <time>2018-07-21T11:19:36.000Z</time>
      </trkpt>
      <trkpt lat="43.965" lon="7.13187">
        <ele>937</ele>
        <time>2018-07-21T11:19:40.000Z</time>
      </trkpt>
      <trkpt lat="43.96498" lon="7.13191">
        <ele>967</ele>
        <time>2018-07-21T11:19:44.000Z</time>
      </trkpt>
      <trkpt lat="43.96496" lon="7.13194">
        <ele>967</ele>
        <time>2018-07-21T11:19:46.000Z</time>
      </trkpt>
      <trkpt lat="43.96494" lon="7.13196">
        <ele>968</ele>
        <time>2018-07-21T11:19:49.000Z</time>
      </trkpt>
      <trkpt lat="43.96494" lon="7.13198">
        <ele>968</ele>
        <time>2018-07-21T11:19:50.000Z</time>
      </trkpt>
      <trkpt lat="43.96491" lon="7.132">
        <ele>968</ele>
        <time>2018-07-21T11:19:55.000Z</time>
      </trkpt>
      <trkpt lat="43.96491" lon="7.13201">
        <ele>968</ele>
        <time>2018-07-21T11:20:02.000Z</time>
      </trkpt>
      <trkpt lat="43.96487" lon="7.13202">
        <ele>969</ele>
        <time>2018-07-21T11:20:11.000Z</time>
      </trkpt>
      <trkpt lat="43.96486" lon="7.132">
        <ele>969</ele>
        <time>2018-07-21T11:20:13.000Z</time>
      </trkpt>
      <trkpt lat="43.96487" lon="7.13196">
        <ele>969</ele>
        <time>2018-07-21T11:20:17.000Z</time>
      </trkpt>
      <trkpt lat="43.96488" lon="7.13195">
        <ele>969</ele>
        <time>2018-07-21T11:20:18.000Z</time>
      </trkpt>
      <trkpt lat="43.9649" lon="7.13194">
        <ele>969</ele>
        <time>2018-07-21T11:20:22.000Z</time>
      </trkpt>
      <trkpt lat="43.9649" lon="7.13193">
        <ele>969</ele>
        <time>2018-07-21T11:20:23.000Z</time>
      </trkpt>
      <trkpt lat="43.96493" lon="7.13189">
        <ele>968</ele>
        <time>2018-07-21T11:20:29.000Z</time>
      </trkpt>
      <trkpt lat="43.96494" lon="7.13186">
        <ele>967</ele>
        <time>2018-07-21T11:20:32.000Z</time>
      </trkpt>
      <trkpt lat="43.96494" lon="7.13183">
        <ele>967</ele>
        <time>2018-07-21T11:20:35.000Z</time>
      </trkpt>
      <trkpt lat="43.96494" lon="7.13177">
        <ele>966</ele>
        <time>2018-07-21T11:20:41.000Z</time>
      </trkpt>
      <trkpt lat="43.96494" lon="7.13175">
        <ele>965</ele>
        <time>2018-07-21T11:20:49.000Z</time>
      </trkpt>
      <trkpt lat="43.96493" lon="7.13169">
        <ele>964</ele>
        <time>2018-07-21T11:20:56.000Z</time>
      </trkpt>
      <trkpt lat="43.96492" lon="7.13164">
        <ele>971</ele>
        <time>2018-07-21T11:21:02.000Z</time>
      </trkpt>
      <trkpt lat="43.96492" lon="7.13162">
        <ele>972</ele>
        <time>2018-07-21T11:21:05.000Z</time>
      </trkpt>
      <trkpt lat="43.96492" lon="7.1316">
        <ele>974</ele>
        <time>2018-07-21T11:21:08.000Z</time>
      </trkpt>
      <trkpt lat="43.96491" lon="7.13154">
        <ele>978</ele>
        <time>2018-07-21T11:21:14.000Z</time>
      </trkpt>
      <trkpt lat="43.9649" lon="7.13148">
        <ele>982</ele>
        <time>2018-07-21T11:21:21.000Z</time>
      </trkpt>
      <trkpt lat="43.9649" lon="7.13146">
        <ele>983</ele>
        <time>2018-07-21T11:21:22.000Z</time>
      </trkpt>
      <trkpt lat="43.96489" lon="7.13143">
        <ele>985</ele>
        <time>2018-07-21T11:21:27.000Z</time>
      </trkpt>
      <trkpt lat="43.96489" lon="7.1314">
        <ele>986</ele>
        <time>2018-07-21T11:21:29.000Z</time>
      </trkpt>
      <trkpt lat="43.9649" lon="7.13136">
        <ele>987</ele>
        <time>2018-07-21T11:21:33.000Z</time>
      </trkpt>
      <trkpt lat="43.96489" lon="7.13132">
        <ele>988</ele>
        <time>2018-07-21T11:21:37.000Z</time>
      </trkpt>
      <trkpt lat="43.96489" lon="7.13131">
        <ele>989</ele>
        <time>2018-07-21T11:21:38.000Z</time>
      </trkpt>
      <trkpt lat="43.96488" lon="7.13128">
        <ele>989</ele>
        <time>2018-07-21T11:21:41.000Z</time>
      </trkpt>
      <trkpt lat="43.96487" lon="7.13124">
        <ele>990</ele>
        <time>2018-07-21T11:21:45.000Z</time>
      </trkpt>
      <trkpt lat="43.96486" lon="7.13123">
        <ele>991</ele>
        <time>2018-07-21T11:21:47.000Z</time>
      </trkpt>
      <trkpt lat="43.96486" lon="7.13122">
        <ele>991</ele>
        <time>2018-07-21T11:21:53.000Z</time>
      </trkpt>
      <trkpt lat="43.96485" lon="7.13119">
        <ele>991</ele>
        <time>2018-07-21T11:21:57.000Z</time>
      </trkpt>
      <trkpt lat="43.96485" lon="7.13116">
        <ele>991</ele>
        <time>2018-07-21T11:21:59.000Z</time>
      </trkpt>
      <trkpt lat="43.96485" lon="7.1311">
        <ele>991</ele>
        <time>2018-07-21T11:22:03.000Z</time>
      </trkpt>
      <trkpt lat="43.96485" lon="7.13106">
        <ele>991</ele>
        <time>2018-07-21T11:22:05.000Z</time>
      </trkpt>
      <trkpt lat="43.96484" lon="7.13102">
        <ele>990</ele>
        <time>2018-07-21T11:22:08.000Z</time>
      </trkpt>
      <trkpt lat="43.96484" lon="7.131">
        <ele>990</ele>
        <time>2018-07-21T11:22:09.000Z</time>
      </trkpt>
      <trkpt lat="43.96484" lon="7.13094">
        <ele>989</ele>
        <time>2018-07-21T11:22:12.000Z</time>
      </trkpt>
      <trkpt lat="43.96484" lon="7.13093">
        <ele>989</ele>
        <time>2018-07-21T11:22:13.000Z</time>
      </trkpt>
      <trkpt lat="43.96484" lon="7.13085">
        <ele>988</ele>
        <time>2018-07-21T11:22:18.000Z</time>
      </trkpt>
      <trkpt lat="43.96484" lon="7.13084">
        <ele>988</ele>
        <time>2018-07-21T11:22:19.000Z</time>
      </trkpt>
      <trkpt lat="43.96483" lon="7.13078">
        <ele>997</ele>
        <time>2018-07-21T11:22:23.000Z</time>
      </trkpt>
      <trkpt lat="43.96483" lon="7.13076">
        <ele>998</ele>
        <time>2018-07-21T11:22:24.000Z</time>
      </trkpt>
      <trkpt lat="43.96483" lon="7.13073">
        <ele>999</ele>
        <time>2018-07-21T11:22:26.000Z</time>
      </trkpt>
      <trkpt lat="43.96484" lon="7.13069">
        <ele>1000</ele>
        <time>2018-07-21T11:22:29.000Z</time>
      </trkpt>
      <trkpt lat="43.96485" lon="7.13061">
        <ele>1003</ele>
        <time>2018-07-21T11:22:34.000Z</time>
      </trkpt>
      <trkpt lat="43.96484" lon="7.13059">
        <ele>1004</ele>
        <time>2018-07-21T11:22:35.000Z</time>
      </trkpt>
      <trkpt lat="43.96485" lon="7.13057">
        <ele>1005</ele>
        <time>2018-07-21T11:22:37.000Z</time>
      </trkpt>
      <trkpt lat="43.96485" lon="7.13054">
        <ele>1005</ele>
        <time>2018-07-21T11:22:40.000Z</time>
      </trkpt>
      <trkpt lat="43.96486" lon="7.13052">
        <ele>1006</ele>
        <time>2018-07-21T11:22:42.000Z</time>
      </trkpt>
      <trkpt lat="43.96486" lon="7.13052">
        <ele>1006</ele>
        <time>2018-07-21T11:22:43.000Z</time>
      </trkpt>
      <trkpt lat="43.96486" lon="7.13051">
        <ele>1006</ele>
        <time>2018-07-21T11:22:45.000Z</time>
      </trkpt>
      <trkpt lat="43.96489" lon="7.13047">
        <ele>1006</ele>
        <time>2018-07-21T11:22:53.000Z</time>
      </trkpt>
      <trkpt lat="43.96489" lon="7.13045">
        <ele>1007</ele>
        <time>2018-07-21T11:22:55.000Z</time>
      </trkpt>
      <trkpt lat="43.96491" lon="7.13039">
        <ele>1007</ele>
        <time>2018-07-21T11:23:00.000Z</time>
      </trkpt>
      <trkpt lat="43.96492" lon="7.13037">
        <ele>1008</ele>
        <time>2018-07-21T11:23:02.000Z</time>
      </trkpt>
      <trkpt lat="43.96493" lon="7.13034">
        <ele>1008</ele>
        <time>2018-07-21T11:23:05.000Z</time>
      </trkpt>
      <trkpt lat="43.96494" lon="7.13032">
        <ele>1008</ele>
        <time>2018-07-21T11:23:07.000Z</time>
      </trkpt>
      <trkpt lat="43.96495" lon="7.1303">
        <ele>1008</ele>
        <time>2018-07-21T11:23:09.000Z</time>
      </trkpt>
      <trkpt lat="43.96497" lon="7.13026">
        <ele>1007</ele>
        <time>2018-07-21T11:23:14.000Z</time>
      </trkpt>
      <trkpt lat="43.96499" lon="7.13022">
        <ele>1007</ele>
        <time>2018-07-21T11:23:18.000Z</time>
      </trkpt>
      <trkpt lat="43.965" lon="7.1302">
        <ele>1006</ele>
        <time>2018-07-21T11:23:20.000Z</time>
      </trkpt>
      <trkpt lat="43.96501" lon="7.13014">
        <ele>982</ele>
        <time>2018-07-21T11:23:27.000Z</time>
      </trkpt>
      <trkpt lat="43.96505" lon="7.13008">
        <ele>986</ele>
        <time>2018-07-21T11:23:34.000Z</time>
      </trkpt>
      <trkpt lat="43.96508" lon="7.13004">
        <ele>986</ele>
        <time>2018-07-21T11:23:41.000Z</time>
      </trkpt>
      <trkpt lat="43.96509" lon="7.13004">
        <ele>986</ele>
        <time>2018-07-21T11:23:42.000Z</time>
      </trkpt>
      <trkpt lat="43.9651" lon="7.13003">
        <ele>985</ele>
        <time>2018-07-21T11:23:44.000Z</time>
      </trkpt>
      <trkpt lat="43.96513" lon="7.12998">
        <ele>993</ele>
        <time>2018-07-21T11:23:50.000Z</time>
      </trkpt>
      <trkpt lat="43.96515" lon="7.12996">
        <ele>992</ele>
        <time>2018-07-21T11:23:54.000Z</time>
      </trkpt>
      <trkpt lat="43.96518" lon="7.12992">
        <ele>991</ele>
        <time>2018-07-21T11:24:00.000Z</time>
      </trkpt>
      <trkpt lat="43.96518" lon="7.12991">
        <ele>991</ele>
        <time>2018-07-21T11:24:02.000Z</time>
      </trkpt>
      <trkpt lat="43.96519" lon="7.12986">
        <ele>991</ele>
        <time>2018-07-21T11:24:07.000Z</time>
      </trkpt>
      <trkpt lat="43.96519" lon="7.12982">
        <ele>991</ele>
        <time>2018-07-21T11:24:11.000Z</time>
      </trkpt>
      <trkpt lat="43.9652" lon="7.12981">
        <ele>990</ele>
        <time>2018-07-21T11:24:12.000Z</time>
      </trkpt>
      <trkpt lat="43.9652" lon="7.1298">
        <ele>991</ele>
        <time>2018-07-21T11:24:13.000Z</time>
      </trkpt>
      <trkpt lat="43.96519" lon="7.12975">
        <ele>991</ele>
        <time>2018-07-21T11:24:17.000Z</time>
      </trkpt>
      <trkpt lat="43.96519" lon="7.12973">
        <ele>991</ele>
        <time>2018-07-21T11:24:19.000Z</time>
      </trkpt>
      <trkpt lat="43.9652" lon="7.12969">
        <ele>991</ele>
        <time>2018-07-21T11:24:23.000Z</time>
      </trkpt>
      <trkpt lat="43.9652" lon="7.12967">
        <ele>992</ele>
        <time>2018-07-21T11:24:25.000Z</time>
      </trkpt>
      <trkpt lat="43.96521" lon="7.12965">
        <ele>992</ele>
        <time>2018-07-21T11:24:27.000Z</time>
      </trkpt>
      <trkpt lat="43.96522" lon="7.1296">
        <ele>993</ele>
        <time>2018-07-21T11:24:32.000Z</time>
      </trkpt>
      <trkpt lat="43.96522" lon="7.12957">
        <ele>993</ele>
        <time>2018-07-21T11:24:35.000Z</time>
      </trkpt>
      <trkpt lat="43.96523" lon="7.12956">
        <ele>993</ele>
        <time>2018-07-21T11:24:38.000Z</time>
      </trkpt>
      <trkpt lat="43.96523" lon="7.12954">
        <ele>994</ele>
        <time>2018-07-21T11:24:42.000Z</time>
      </trkpt>
      <trkpt lat="43.96525" lon="7.12947">
        <ele>995</ele>
        <time>2018-07-21T11:24:50.000Z</time>
      </trkpt>
      <trkpt lat="43.96526" lon="7.12942">
        <ele>996</ele>
        <time>2018-07-21T11:24:53.000Z</time>
      </trkpt>
      <trkpt lat="43.96529" lon="7.12935">
        <ele>996</ele>
        <time>2018-07-21T11:24:57.000Z</time>
      </trkpt>
      <trkpt lat="43.9653" lon="7.12932">
        <ele>996</ele>
        <time>2018-07-21T11:24:59.000Z</time>
      </trkpt>
      <trkpt lat="43.96532" lon="7.12926">
        <ele>997</ele>
        <time>2018-07-21T11:25:03.000Z</time>
      </trkpt>
      <trkpt lat="43.96534" lon="7.1292">
        <ele>996</ele>
        <time>2018-07-21T11:25:07.000Z</time>
      </trkpt>
      <trkpt lat="43.96534" lon="7.12919">
        <ele>996</ele>
        <time>2018-07-21T11:25:08.000Z</time>
      </trkpt>
      <trkpt lat="43.96535" lon="7.12911">
        <ele>1015</ele>
        <time>2018-07-21T11:25:14.000Z</time>
      </trkpt>
      <trkpt lat="43.96536" lon="7.12909">
        <ele>1015</ele>
        <time>2018-07-21T11:25:15.000Z</time>
      </trkpt>
      <trkpt lat="43.96536" lon="7.12907">
        <ele>1015</ele>
        <time>2018-07-21T11:25:17.000Z</time>
      </trkpt>
      <trkpt lat="43.96537" lon="7.12906">
        <ele>1015</ele>
        <time>2018-07-21T11:25:19.000Z</time>
      </trkpt>
      <trkpt lat="43.96537" lon="7.12904">
        <ele>1015</ele>
        <time>2018-07-21T11:25:20.000Z</time>
      </trkpt>
      <trkpt lat="43.96537" lon="7.12903">
        <ele>1015</ele>
        <time>2018-07-21T11:25:21.000Z</time>
      </trkpt>
      <trkpt lat="43.96538" lon="7.12901">
        <ele>1015</ele>
        <time>2018-07-21T11:25:22.000Z</time>
      </trkpt>
      <trkpt lat="43.96538" lon="7.129">
        <ele>1015</ele>
        <time>2018-07-21T11:25:23.000Z</time>
      </trkpt>
      <trkpt lat="43.9654" lon="7.12895">
        <ele>1015</ele>
        <time>2018-07-21T11:25:27.000Z</time>
      </trkpt>
      <trkpt lat="43.9654" lon="7.1289">
        <ele>1015</ele>
        <time>2018-07-21T11:25:30.000Z</time>
      </trkpt>
      <trkpt lat="43.96542" lon="7.12885">
        <ele>1016</ele>
        <time>2018-07-21T11:25:34.000Z</time>
      </trkpt>
      <trkpt lat="43.96542" lon="7.12884">
        <ele>1016</ele>
        <time>2018-07-21T11:25:35.000Z</time>
      </trkpt>
      <trkpt lat="43.96543" lon="7.12878">
        <ele>1017</ele>
        <time>2018-07-21T11:25:39.000Z</time>
      </trkpt>
      <trkpt lat="43.96544" lon="7.12877">
        <ele>1017</ele>
        <time>2018-07-21T11:25:40.000Z</time>
      </trkpt>
      <trkpt lat="43.96547" lon="7.12872">
        <ele>1017</ele>
        <time>2018-07-21T11:25:44.000Z</time>
      </trkpt>
      <trkpt lat="43.96549" lon="7.12871">
        <ele>1016</ele>
        <time>2018-07-21T11:25:47.000Z</time>
      </trkpt>
      <trkpt lat="43.9655" lon="7.1287">
        <ele>1017</ele>
        <time>2018-07-21T11:25:48.000Z</time>
      </trkpt>
      <trkpt lat="43.96553" lon="7.12867">
        <ele>1016</ele>
        <time>2018-07-21T11:25:52.000Z</time>
      </trkpt>
      <trkpt lat="43.96555" lon="7.12865">
        <ele>1016</ele>
        <time>2018-07-21T11:25:54.000Z</time>
      </trkpt>
      <trkpt lat="43.96558" lon="7.12863">
        <ele>1016</ele>
        <time>2018-07-21T11:25:57.000Z</time>
      </trkpt>
      <trkpt lat="43.96563" lon="7.1286">
        <ele>1015</ele>
        <time>2018-07-21T11:26:02.000Z</time>
      </trkpt>
      <trkpt lat="43.96568" lon="7.12854">
        <ele>1015</ele>
        <time>2018-07-21T11:26:08.000Z</time>
      </trkpt>
      <trkpt lat="43.9657" lon="7.12853">
        <ele>1015</ele>
        <time>2018-07-21T11:26:10.000Z</time>
      </trkpt>
      <trkpt lat="43.96572" lon="7.12847">
        <ele>1015</ele>
        <time>2018-07-21T11:26:15.000Z</time>
      </trkpt>
      <trkpt lat="43.96572" lon="7.12844">
        <ele>1015</ele>
        <time>2018-07-21T11:26:17.000Z</time>
      </trkpt>
      <trkpt lat="43.96574" lon="7.12836">
        <ele>1015</ele>
        <time>2018-07-21T11:26:23.000Z</time>
      </trkpt>
      <trkpt lat="43.96575" lon="7.12835">
        <ele>1015</ele>
        <time>2018-07-21T11:26:24.000Z</time>
      </trkpt>
      <trkpt lat="43.96576" lon="7.12828">
        <ele>1023</ele>
        <time>2018-07-21T11:26:30.000Z</time>
      </trkpt>
      <trkpt lat="43.96577" lon="7.12827">
        <ele>1023</ele>
        <time>2018-07-21T11:26:31.000Z</time>
      </trkpt>
      <trkpt lat="43.96578" lon="7.12822">
        <ele>1025</ele>
        <time>2018-07-21T11:26:35.000Z</time>
      </trkpt>
      <trkpt lat="43.96579" lon="7.12822">
        <ele>1025</ele>
        <time>2018-07-21T11:26:36.000Z</time>
      </trkpt>
      <trkpt lat="43.96582" lon="7.12817">
        <ele>1027</ele>
        <time>2018-07-21T11:26:41.000Z</time>
      </trkpt>
      <trkpt lat="43.96584" lon="7.12816">
        <ele>1006</ele>
        <time>2018-07-21T11:26:42.000Z</time>
      </trkpt>
      <trkpt lat="43.96585" lon="7.12814">
        <ele>1005</ele>
        <time>2018-07-21T11:26:44.000Z</time>
      </trkpt>
      <trkpt lat="43.96587" lon="7.12812">
        <ele>1004</ele>
        <time>2018-07-21T11:26:47.000Z</time>
      </trkpt>
      <trkpt lat="43.96588" lon="7.12808">
        <ele>1004</ele>
        <time>2018-07-21T11:26:50.000Z</time>
      </trkpt>
      <trkpt lat="43.9659" lon="7.12804">
        <ele>1003</ele>
        <time>2018-07-21T11:26:54.000Z</time>
      </trkpt>
      <trkpt lat="43.96591" lon="7.12801">
        <ele>1003</ele>
        <time>2018-07-21T11:26:56.000Z</time>
      </trkpt>
      <trkpt lat="43.96593" lon="7.12796">
        <ele>1003</ele>
        <time>2018-07-21T11:27:00.000Z</time>
      </trkpt>
      <trkpt lat="43.96593" lon="7.12794">
        <ele>1003</ele>
        <time>2018-07-21T11:27:02.000Z</time>
      </trkpt>
      <trkpt lat="43.96594" lon="7.12788">
        <ele>1004</ele>
        <time>2018-07-21T11:27:07.000Z</time>
      </trkpt>
      <trkpt lat="43.96595" lon="7.12787">
        <ele>1004</ele>
        <time>2018-07-21T11:27:08.000Z</time>
      </trkpt>
      <trkpt lat="43.96596" lon="7.12783">
        <ele>1005</ele>
        <time>2018-07-21T11:27:12.000Z</time>
      </trkpt>
      <trkpt lat="43.96596" lon="7.12781">
        <ele>1006</ele>
        <time>2018-07-21T11:27:13.000Z</time>
      </trkpt>
      <trkpt lat="43.96596" lon="7.1278">
        <ele>1006</ele>
        <time>2018-07-21T11:27:14.000Z</time>
      </trkpt>
      <trkpt lat="43.96596" lon="7.12775">
        <ele>1008</ele>
        <time>2018-07-21T11:27:18.000Z</time>
      </trkpt>
      <trkpt lat="43.96597" lon="7.12774">
        <ele>1008</ele>
        <time>2018-07-21T11:27:19.000Z</time>
      </trkpt>
      <trkpt lat="43.96596" lon="7.1277">
        <ele>1010</ele>
        <time>2018-07-21T11:27:21.000Z</time>
      </trkpt>
      <trkpt lat="43.96595" lon="7.12769">
        <ele>1011</ele>
        <time>2018-07-21T11:27:22.000Z</time>
      </trkpt>
      <trkpt lat="43.96594" lon="7.12763">
        <ele>1015</ele>
        <time>2018-07-21T11:27:26.000Z</time>
      </trkpt>
      <trkpt lat="43.96592" lon="7.12759">
        <ele>1019</ele>
        <time>2018-07-21T11:27:29.000Z</time>
      </trkpt>
      <trkpt lat="43.96588" lon="7.12748">
        <ele>1028</ele>
        <time>2018-07-21T11:27:36.000Z</time>
      </trkpt>
      <trkpt lat="43.96588" lon="7.12745">
        <ele>1027</ele>
        <time>2018-07-21T11:27:38.000Z</time>
      </trkpt>
      <trkpt lat="43.96585" lon="7.12737">
        <ele>1023</ele>
        <time>2018-07-21T11:27:43.000Z</time>
      </trkpt>
      <trkpt lat="43.96583" lon="7.12732">
        <ele>1042</ele>
        <time>2018-07-21T11:27:46.000Z</time>
      </trkpt>
      <trkpt lat="43.96581" lon="7.12724">
        <ele>1044</ele>
        <time>2018-07-21T11:27:52.000Z</time>
      </trkpt>
      <trkpt lat="43.9658" lon="7.12723">
        <ele>1044</ele>
        <time>2018-07-21T11:27:53.000Z</time>
      </trkpt>
      <trkpt lat="43.96579" lon="7.12719">
        <ele>1045</ele>
        <time>2018-07-21T11:27:55.000Z</time>
      </trkpt>
      <trkpt lat="43.96578" lon="7.12717">
        <ele>1045</ele>
        <time>2018-07-21T11:27:57.000Z</time>
      </trkpt>
      <trkpt lat="43.96577" lon="7.12714">
        <ele>1045</ele>
        <time>2018-07-21T11:27:59.000Z</time>
      </trkpt>
      <trkpt lat="43.96576" lon="7.12709">
        <ele>1046</ele>
        <time>2018-07-21T11:28:03.000Z</time>
      </trkpt>
      <trkpt lat="43.96575" lon="7.12707">
        <ele>1046</ele>
        <time>2018-07-21T11:28:05.000Z</time>
      </trkpt>
      <trkpt lat="43.96575" lon="7.12706">
        <ele>1046</ele>
        <time>2018-07-21T11:28:08.000Z</time>
      </trkpt>
      <trkpt lat="43.96573" lon="7.127">
        <ele>1046</ele>
        <time>2018-07-21T11:28:14.000Z</time>
      </trkpt>
      <trkpt lat="43.96572" lon="7.12698">
        <ele>1046</ele>
        <time>2018-07-21T11:28:15.000Z</time>
      </trkpt>
      <trkpt lat="43.9657" lon="7.12694">
        <ele>1046</ele>
        <time>2018-07-21T11:28:20.000Z</time>
      </trkpt>
      <trkpt lat="43.96569" lon="7.12693">
        <ele>1045</ele>
        <time>2018-07-21T11:28:21.000Z</time>
      </trkpt>
      <trkpt lat="43.96568" lon="7.12686">
        <ele>1045</ele>
        <time>2018-07-21T11:28:27.000Z</time>
      </trkpt>
      <trkpt lat="43.96567" lon="7.12682">
        <ele>1044</ele>
        <time>2018-07-21T11:28:30.000Z</time>
      </trkpt>
      <trkpt lat="43.96566" lon="7.1268">
        <ele>1044</ele>
        <time>2018-07-21T11:28:34.000Z</time>
      </trkpt>
      <trkpt lat="43.96566" lon="7.12677">
        <ele>1044</ele>
        <time>2018-07-21T11:28:37.000Z</time>
      </trkpt>
      <trkpt lat="43.96566" lon="7.12674">
        <ele>1043</ele>
        <time>2018-07-21T11:28:40.000Z</time>
      </trkpt>
      <trkpt lat="43.96565" lon="7.1267">
        <ele>1043</ele>
        <time>2018-07-21T11:28:44.000Z</time>
      </trkpt>
      <trkpt lat="43.96565" lon="7.12668">
        <ele>1043</ele>
        <time>2018-07-21T11:28:47.000Z</time>
      </trkpt>
      <trkpt lat="43.96564" lon="7.12663">
        <ele>1044</ele>
        <time>2018-07-21T11:28:51.000Z</time>
      </trkpt>
      <trkpt lat="43.96563" lon="7.12661">
        <ele>1045</ele>
        <time>2018-07-21T11:28:54.000Z</time>
      </trkpt>
      <trkpt lat="43.96562" lon="7.12656">
        <ele>1046</ele>
        <time>2018-07-21T11:28:59.000Z</time>
      </trkpt>
      <trkpt lat="43.96561" lon="7.12654">
        <ele>1046</ele>
        <time>2018-07-21T11:29:02.000Z</time>
      </trkpt>
      <trkpt lat="43.96561" lon="7.12653">
        <ele>1046</ele>
        <time>2018-07-21T11:29:06.000Z</time>
      </trkpt>
      <trkpt lat="43.9656" lon="7.12646">
        <ele>1048</ele>
        <time>2018-07-21T11:29:12.000Z</time>
      </trkpt>
      <trkpt lat="43.96559" lon="7.12644">
        <ele>1048</ele>
        <time>2018-07-21T11:29:13.000Z</time>
      </trkpt>
      <trkpt lat="43.96557" lon="7.12637">
        <ele>1049</ele>
        <time>2018-07-21T11:29:18.000Z</time>
      </trkpt>
      <trkpt lat="43.96557" lon="7.12636">
        <ele>1049</ele>
        <time>2018-07-21T11:29:19.000Z</time>
      </trkpt>
      <trkpt lat="43.96555" lon="7.12628">
        <ele>1050</ele>
        <time>2018-07-21T11:29:25.000Z</time>
      </trkpt>
      <trkpt lat="43.96554" lon="7.12627">
        <ele>1050</ele>
        <time>2018-07-21T11:29:26.000Z</time>
      </trkpt>
      <trkpt lat="43.9655" lon="7.12617">
        <ele>1051</ele>
        <time>2018-07-21T11:29:32.000Z</time>
      </trkpt>
      <trkpt lat="43.96547" lon="7.12609">
        <ele>1052</ele>
        <time>2018-07-21T11:29:36.000Z</time>
      </trkpt>
      <trkpt lat="43.96545" lon="7.12604">
        <ele>1052</ele>
        <time>2018-07-21T11:29:39.000Z</time>
      </trkpt>
      <trkpt lat="43.96544" lon="7.12601">
        <ele>1053</ele>
        <time>2018-07-21T11:29:41.000Z</time>
      </trkpt>
      <trkpt lat="43.96544" lon="7.126">
        <ele>1053</ele>
        <time>2018-07-21T11:29:42.000Z</time>
      </trkpt>
      <trkpt lat="43.96543" lon="7.12597">
        <ele>1053</ele>
        <time>2018-07-21T11:29:43.000Z</time>
      </trkpt>
      <trkpt lat="43.96541" lon="7.12593">
        <ele>1054</ele>
        <time>2018-07-21T11:29:45.000Z</time>
      </trkpt>
      <trkpt lat="43.96536" lon="7.12579">
        <ele>1056</ele>
        <time>2018-07-21T11:29:52.000Z</time>
      </trkpt>
      <trkpt lat="43.96532" lon="7.12564">
        <ele>1057</ele>
        <time>2018-07-21T11:29:59.000Z</time>
      </trkpt>
      <trkpt lat="43.96529" lon="7.12553">
        <ele>1057</ele>
        <time>2018-07-21T11:30:05.000Z</time>
      </trkpt>
      <trkpt lat="43.96528" lon="7.12548">
        <ele>1057</ele>
        <time>2018-07-21T11:30:08.000Z</time>
      </trkpt>
      <trkpt lat="43.96527" lon="7.12547">
        <ele>1057</ele>
        <time>2018-07-21T11:30:09.000Z</time>
      </trkpt>
      <trkpt lat="43.96525" lon="7.12543">
        <ele>1058</ele>
        <time>2018-07-21T11:30:11.000Z</time>
      </trkpt>
      <trkpt lat="43.96524" lon="7.12541">
        <ele>1058</ele>
        <time>2018-07-21T11:30:13.000Z</time>
      </trkpt>
      <trkpt lat="43.96523" lon="7.12539">
        <ele>1059</ele>
        <time>2018-07-21T11:30:15.000Z</time>
      </trkpt>
      <trkpt lat="43.96521" lon="7.12536">
        <ele>1059</ele>
        <time>2018-07-21T11:30:17.000Z</time>
      </trkpt>
      <trkpt lat="43.9652" lon="7.12534">
        <ele>1060</ele>
        <time>2018-07-21T11:30:19.000Z</time>
      </trkpt>
      <trkpt lat="43.96517" lon="7.12529">
        <ele>1061</ele>
        <time>2018-07-21T11:30:24.000Z</time>
      </trkpt>
      <trkpt lat="43.96517" lon="7.12527">
        <ele>1061</ele>
        <time>2018-07-21T11:30:25.000Z</time>
      </trkpt>
      <trkpt lat="43.96516" lon="7.12519">
        <ele>1063</ele>
        <time>2018-07-21T11:30:30.000Z</time>
      </trkpt>
      <trkpt lat="43.96516" lon="7.12517">
        <ele>1064</ele>
        <time>2018-07-21T11:30:32.000Z</time>
      </trkpt>
      <trkpt lat="43.96515" lon="7.1251">
        <ele>1066</ele>
        <time>2018-07-21T11:30:36.000Z</time>
      </trkpt>
      <trkpt lat="43.96515" lon="7.12508">
        <ele>1066</ele>
        <time>2018-07-21T11:30:37.000Z</time>
      </trkpt>
      <trkpt lat="43.96512" lon="7.125">
        <ele>1069</ele>
        <time>2018-07-21T11:30:42.000Z</time>
      </trkpt>
      <trkpt lat="43.96511" lon="7.12498">
        <ele>1071</ele>
        <time>2018-07-21T11:30:44.000Z</time>
      </trkpt>
      <trkpt lat="43.9651" lon="7.12493">
        <ele>1071</ele>
        <time>2018-07-21T11:30:48.000Z</time>
      </trkpt>
      <trkpt lat="43.96509" lon="7.1249">
        <ele>1070</ele>
        <time>2018-07-21T11:30:50.000Z</time>
      </trkpt>
      <trkpt lat="43.96507" lon="7.12484">
        <ele>1069</ele>
        <time>2018-07-21T11:30:54.000Z</time>
      </trkpt>
      <trkpt lat="43.96505" lon="7.12478">
        <ele>1068</ele>
        <time>2018-07-21T11:30:58.000Z</time>
      </trkpt>
      <trkpt lat="43.96503" lon="7.12463">
        <ele>1066</ele>
        <time>2018-07-21T11:31:06.000Z</time>
      </trkpt>
      <trkpt lat="43.96504" lon="7.1246">
        <ele>1066</ele>
        <time>2018-07-21T11:31:08.000Z</time>
      </trkpt>
      <trkpt lat="43.96505" lon="7.12453">
        <ele>1066</ele>
        <time>2018-07-21T11:31:12.000Z</time>
      </trkpt>
      <trkpt lat="43.96506" lon="7.1245">
        <ele>1067</ele>
        <time>2018-07-21T11:31:14.000Z</time>
      </trkpt>
      <trkpt lat="43.96508" lon="7.12447">
        <ele>1067</ele>
        <time>2018-07-21T11:31:16.000Z</time>
      </trkpt>
      <trkpt lat="43.96508" lon="7.12443">
        <ele>1068</ele>
        <time>2018-07-21T11:31:18.000Z</time>
      </trkpt>
      <trkpt lat="43.96508" lon="7.12439">
        <ele>1069</ele>
        <time>2018-07-21T11:31:20.000Z</time>
      </trkpt>
      <trkpt lat="43.96508" lon="7.12436">
        <ele>1070</ele>
        <time>2018-07-21T11:31:22.000Z</time>
      </trkpt>
      <trkpt lat="43.96508" lon="7.12432">
        <ele>1071</ele>
        <time>2018-07-21T11:31:24.000Z</time>
      </trkpt>
      <trkpt lat="43.96509" lon="7.12419">
        <ele>1077</ele>
        <time>2018-07-21T11:31:32.000Z</time>
      </trkpt>
      <trkpt lat="43.96511" lon="7.12412">
        <ele>1079</ele>
        <time>2018-07-21T11:31:37.000Z</time>
      </trkpt>
      <trkpt lat="43.96512" lon="7.12408">
        <ele>1078</ele>
        <time>2018-07-21T11:31:40.000Z</time>
      </trkpt>
      <trkpt lat="43.96512" lon="7.12403">
        <ele>1077</ele>
        <time>2018-07-21T11:31:43.000Z</time>
      </trkpt>
      <trkpt lat="43.96514" lon="7.12397">
        <ele>1076</ele>
        <time>2018-07-21T11:31:47.000Z</time>
      </trkpt>
      <trkpt lat="43.96516" lon="7.12392">
        <ele>1075</ele>
        <time>2018-07-21T11:31:51.000Z</time>
      </trkpt>
      <trkpt lat="43.96517" lon="7.12391">
        <ele>1075</ele>
        <time>2018-07-21T11:31:52.000Z</time>
      </trkpt>
      <trkpt lat="43.96518" lon="7.12386">
        <ele>1075</ele>
        <time>2018-07-21T11:31:56.000Z</time>
      </trkpt>
      <trkpt lat="43.96519" lon="7.12385">
        <ele>1075</ele>
        <time>2018-07-21T11:31:57.000Z</time>
      </trkpt>
      <trkpt lat="43.9652" lon="7.12384">
        <ele>1074</ele>
        <time>2018-07-21T11:31:58.000Z</time>
      </trkpt>
      <trkpt lat="43.96521" lon="7.12382">
        <ele>1074</ele>
        <time>2018-07-21T11:32:01.000Z</time>
      </trkpt>
      <trkpt lat="43.96522" lon="7.1238">
        <ele>1074</ele>
        <time>2018-07-21T11:32:02.000Z</time>
      </trkpt>
      <trkpt lat="43.96524" lon="7.12374">
        <ele>1074</ele>
        <time>2018-07-21T11:32:07.000Z</time>
      </trkpt>
      <trkpt lat="43.96524" lon="7.12372">
        <ele>1074</ele>
        <time>2018-07-21T11:32:08.000Z</time>
      </trkpt>
      <trkpt lat="43.96526" lon="7.12367">
        <ele>1075</ele>
        <time>2018-07-21T11:32:13.000Z</time>
      </trkpt>
      <trkpt lat="43.96527" lon="7.12364">
        <ele>1075</ele>
        <time>2018-07-21T11:32:15.000Z</time>
      </trkpt>
      <trkpt lat="43.96529" lon="7.12359">
        <ele>1075</ele>
        <time>2018-07-21T11:32:19.000Z</time>
      </trkpt>
      <trkpt lat="43.9653" lon="7.12356">
        <ele>1075</ele>
        <time>2018-07-21T11:32:21.000Z</time>
      </trkpt>
      <trkpt lat="43.96531" lon="7.12354">
        <ele>1075</ele>
        <time>2018-07-21T11:32:24.000Z</time>
      </trkpt>
      <trkpt lat="43.96531" lon="7.12354">
        <ele>1075</ele>
        <time>2018-07-21T11:32:25.000Z</time>
      </trkpt>
      <trkpt lat="43.96531" lon="7.12352">
        <ele>1075</ele>
        <time>2018-07-21T11:32:29.000Z</time>
      </trkpt>
      <trkpt lat="43.96532" lon="7.12352">
        <ele>1075</ele>
        <time>2018-07-21T11:32:34.000Z</time>
      </trkpt>
      <trkpt lat="43.96531" lon="7.12351">
        <ele>1075</ele>
        <time>2018-07-21T11:32:37.000Z</time>
      </trkpt>
      <trkpt lat="43.96532" lon="7.1235">
        <ele>1075</ele>
        <time>2018-07-21T11:32:46.000Z</time>
      </trkpt>
      <trkpt lat="43.9653" lon="7.12347">
        <ele>1076</ele>
        <time>2018-07-21T11:32:54.000Z</time>
      </trkpt>
      <trkpt lat="43.96532" lon="7.12339">
        <ele>1077</ele>
        <time>2018-07-21T11:33:02.000Z</time>
      </trkpt>
      <trkpt lat="43.96534" lon="7.12333">
        <ele>1085</ele>
        <time>2018-07-21T11:33:07.000Z</time>
      </trkpt>
      <trkpt lat="43.96535" lon="7.12332">
        <ele>1085</ele>
        <time>2018-07-21T11:33:08.000Z</time>
      </trkpt>
      <trkpt lat="43.96535" lon="7.12331">
        <ele>1085</ele>
        <time>2018-07-21T11:33:09.000Z</time>
      </trkpt>
      <trkpt lat="43.96535" lon="7.1233">
        <ele>1085</ele>
        <time>2018-07-21T11:33:10.000Z</time>
      </trkpt>
      <trkpt lat="43.96537" lon="7.12325">
        <ele>1085</ele>
        <time>2018-07-21T11:33:14.000Z</time>
      </trkpt>
      <trkpt lat="43.96537" lon="7.12324">
        <ele>1084</ele>
        <time>2018-07-21T11:33:15.000Z</time>
      </trkpt>
      <trkpt lat="43.96537" lon="7.1232">
        <ele>1085</ele>
        <time>2018-07-21T11:33:18.000Z</time>
      </trkpt>
      <trkpt lat="43.96537" lon="7.12316">
        <ele>1085</ele>
        <time>2018-07-21T11:33:21.000Z</time>
      </trkpt>
      <trkpt lat="43.96537" lon="7.12314">
        <ele>1085</ele>
        <time>2018-07-21T11:33:23.000Z</time>
      </trkpt>
      <trkpt lat="43.96538" lon="7.12306">
        <ele>1085</ele>
        <time>2018-07-21T11:33:29.000Z</time>
      </trkpt>
      <trkpt lat="43.96538" lon="7.12304">
        <ele>1085</ele>
        <time>2018-07-21T11:33:30.000Z</time>
      </trkpt>
      <trkpt lat="43.96537" lon="7.12296">
        <ele>1086</ele>
        <time>2018-07-21T11:33:36.000Z</time>
      </trkpt>
      <trkpt lat="43.96538" lon="7.12291">
        <ele>1086</ele>
        <time>2018-07-21T11:33:40.000Z</time>
      </trkpt>
      <trkpt lat="43.96538" lon="7.12286">
        <ele>1087</ele>
        <time>2018-07-21T11:33:43.000Z</time>
      </trkpt>
      <trkpt lat="43.96538" lon="7.12283">
        <ele>1087</ele>
        <time>2018-07-21T11:33:45.000Z</time>
      </trkpt>
      <trkpt lat="43.96539" lon="7.12278">
        <ele>1087</ele>
        <time>2018-07-21T11:33:49.000Z</time>
      </trkpt>
      <trkpt lat="43.96539" lon="7.12277">
        <ele>1088</ele>
        <time>2018-07-21T11:33:50.000Z</time>
      </trkpt>
      <trkpt lat="43.96538" lon="7.12274">
        <ele>1088</ele>
        <time>2018-07-21T11:33:52.000Z</time>
      </trkpt>
      <trkpt lat="43.96538" lon="7.12271">
        <ele>1088</ele>
        <time>2018-07-21T11:33:54.000Z</time>
      </trkpt>
      <trkpt lat="43.96538" lon="7.12269">
        <ele>1088</ele>
        <time>2018-07-21T11:33:55.000Z</time>
      </trkpt>
      <trkpt lat="43.96538" lon="7.12265">
        <ele>1089</ele>
        <time>2018-07-21T11:33:59.000Z</time>
      </trkpt>
      <trkpt lat="43.96539" lon="7.12263">
        <ele>1089</ele>
        <time>2018-07-21T11:34:01.000Z</time>
      </trkpt>
      <trkpt lat="43.96538" lon="7.1226">
        <ele>1089</ele>
        <time>2018-07-21T11:34:03.000Z</time>
      </trkpt>
      <trkpt lat="43.96537" lon="7.12257">
        <ele>1090</ele>
        <time>2018-07-21T11:34:06.000Z</time>
      </trkpt>
      <trkpt lat="43.96536" lon="7.12252">
        <ele>1091</ele>
        <time>2018-07-21T11:34:10.000Z</time>
      </trkpt>
      <trkpt lat="43.96534" lon="7.12249">
        <ele>1100</ele>
        <time>2018-07-21T11:34:13.000Z</time>
      </trkpt>
      <trkpt lat="43.96533" lon="7.12245">
        <ele>1101</ele>
        <time>2018-07-21T11:34:17.000Z</time>
      </trkpt>
      <trkpt lat="43.9653" lon="7.12241">
        <ele>1102</ele>
        <time>2018-07-21T11:34:21.000Z</time>
      </trkpt>
      <trkpt lat="43.96529" lon="7.12238">
        <ele>1103</ele>
        <time>2018-07-21T11:34:24.000Z</time>
      </trkpt>
      <trkpt lat="43.96528" lon="7.12234">
        <ele>1103</ele>
        <time>2018-07-21T11:34:27.000Z</time>
      </trkpt>
      <trkpt lat="43.96527" lon="7.12231">
        <ele>1103</ele>
        <time>2018-07-21T11:34:30.000Z</time>
      </trkpt>
      <trkpt lat="43.96526" lon="7.12225">
        <ele>1103</ele>
        <time>2018-07-21T11:34:34.000Z</time>
      </trkpt>
      <trkpt lat="43.96526" lon="7.12222">
        <ele>1103</ele>
        <time>2018-07-21T11:34:37.000Z</time>
      </trkpt>
      <trkpt lat="43.96525" lon="7.12218">
        <ele>1104</ele>
        <time>2018-07-21T11:34:40.000Z</time>
      </trkpt>
      <trkpt lat="43.96523" lon="7.12211">
        <ele>1104</ele>
        <time>2018-07-21T11:34:45.000Z</time>
      </trkpt>
      <trkpt lat="43.96523" lon="7.1221">
        <ele>1104</ele>
        <time>2018-07-21T11:34:46.000Z</time>
      </trkpt>
      <trkpt lat="43.96523" lon="7.12207">
        <ele>1105</ele>
        <time>2018-07-21T11:34:48.000Z</time>
      </trkpt>
      <trkpt lat="43.96524" lon="7.12203">
        <ele>1105</ele>
        <time>2018-07-21T11:34:52.000Z</time>
      </trkpt>
      <trkpt lat="43.96524" lon="7.12201">
        <ele>1105</ele>
        <time>2018-07-21T11:34:53.000Z</time>
      </trkpt>
      <trkpt lat="43.96525" lon="7.12194">
        <ele>1106</ele>
        <time>2018-07-21T11:34:59.000Z</time>
      </trkpt>
      <trkpt lat="43.96525" lon="7.12192">
        <ele>1106</ele>
        <time>2018-07-21T11:35:01.000Z</time>
      </trkpt>
      <trkpt lat="43.96525" lon="7.1219">
        <ele>1107</ele>
        <time>2018-07-21T11:35:03.000Z</time>
      </trkpt>
      <trkpt lat="43.96525" lon="7.12188">
        <ele>1107</ele>
        <time>2018-07-21T11:35:04.000Z</time>
      </trkpt>
      <trkpt lat="43.96525" lon="7.12185">
        <ele>1108</ele>
        <time>2018-07-21T11:35:06.000Z</time>
      </trkpt>
      <trkpt lat="43.96526" lon="7.12181">
        <ele>1108</ele>
        <time>2018-07-21T11:35:09.000Z</time>
      </trkpt>
      <trkpt lat="43.96526" lon="7.12179">
        <ele>1108</ele>
        <time>2018-07-21T11:35:11.000Z</time>
      </trkpt>
      <trkpt lat="43.96526" lon="7.12176">
        <ele>1108</ele>
        <time>2018-07-21T11:35:13.000Z</time>
      </trkpt>
      <trkpt lat="43.96527" lon="7.12175">
        <ele>1108</ele>
        <time>2018-07-21T11:35:14.000Z</time>
      </trkpt>
      <trkpt lat="43.96527" lon="7.12171">
        <ele>1109</ele>
        <time>2018-07-21T11:35:17.000Z</time>
      </trkpt>
      <trkpt lat="43.96528" lon="7.12169">
        <ele>1108</ele>
        <time>2018-07-21T11:35:18.000Z</time>
      </trkpt>
      <trkpt lat="43.96529" lon="7.12167">
        <ele>1108</ele>
        <time>2018-07-21T11:35:20.000Z</time>
      </trkpt>
      <trkpt lat="43.96531" lon="7.1216">
        <ele>1117</ele>
        <time>2018-07-21T11:35:26.000Z</time>
      </trkpt>
      <trkpt lat="43.96531" lon="7.12159">
        <ele>1117</ele>
        <time>2018-07-21T11:35:27.000Z</time>
      </trkpt>
      <trkpt lat="43.96532" lon="7.12152">
        <ele>1117</ele>
        <time>2018-07-21T11:35:32.000Z</time>
      </trkpt>
      <trkpt lat="43.96532" lon="7.1215">
        <ele>1118</ele>
        <time>2018-07-21T11:35:34.000Z</time>
      </trkpt>
      <trkpt lat="43.96532" lon="7.12149">
        <ele>1118</ele>
        <time>2018-07-21T11:35:35.000Z</time>
      </trkpt>
      <trkpt lat="43.96532" lon="7.12146">
        <ele>1118</ele>
        <time>2018-07-21T11:35:37.000Z</time>
      </trkpt>
      <trkpt lat="43.96532" lon="7.12141">
        <ele>1118</ele>
        <time>2018-07-21T11:35:41.000Z</time>
      </trkpt>
      <trkpt lat="43.96532" lon="7.12138">
        <ele>1118</ele>
        <time>2018-07-21T11:35:44.000Z</time>
      </trkpt>
      <trkpt lat="43.96532" lon="7.12133">
        <ele>1119</ele>
        <time>2018-07-21T11:35:48.000Z</time>
      </trkpt>
      <trkpt lat="43.96532" lon="7.1213">
        <ele>1119</ele>
        <time>2018-07-21T11:35:50.000Z</time>
      </trkpt>
      <trkpt lat="43.96532" lon="7.12123">
        <ele>1120</ele>
        <time>2018-07-21T11:35:56.000Z</time>
      </trkpt>
      <trkpt lat="43.96531" lon="7.12121">
        <ele>1120</ele>
        <time>2018-07-21T11:35:57.000Z</time>
      </trkpt>
      <trkpt lat="43.96531" lon="7.1212">
        <ele>1121</ele>
        <time>2018-07-21T11:35:58.000Z</time>
      </trkpt>
      <trkpt lat="43.96532" lon="7.12115">
        <ele>1121</ele>
        <time>2018-07-21T11:36:02.000Z</time>
      </trkpt>
      <trkpt lat="43.96532" lon="7.12114">
        <ele>1121</ele>
        <time>2018-07-21T11:36:03.000Z</time>
      </trkpt>
      <trkpt lat="43.96532" lon="7.12113">
        <ele>1121</ele>
        <time>2018-07-21T11:36:04.000Z</time>
      </trkpt>
      <trkpt lat="43.96532" lon="7.1211">
        <ele>1122</ele>
        <time>2018-07-21T11:36:06.000Z</time>
      </trkpt>
      <trkpt lat="43.96533" lon="7.12108">
        <ele>1122</ele>
        <time>2018-07-21T11:36:08.000Z</time>
      </trkpt>
      <trkpt lat="43.96534" lon="7.12103">
        <ele>1122</ele>
        <time>2018-07-21T11:36:14.000Z</time>
      </trkpt>
      <trkpt lat="43.96535" lon="7.12102">
        <ele>1122</ele>
        <time>2018-07-21T11:36:15.000Z</time>
      </trkpt>
      <trkpt lat="43.96536" lon="7.12098">
        <ele>1122</ele>
        <time>2018-07-21T11:36:19.000Z</time>
      </trkpt>
      <trkpt lat="43.96537" lon="7.12097">
        <ele>1122</ele>
        <time>2018-07-21T11:36:21.000Z</time>
      </trkpt>
      <trkpt lat="43.96538" lon="7.12095">
        <ele>1122</ele>
        <time>2018-07-21T11:36:23.000Z</time>
      </trkpt>
      <trkpt lat="43.96539" lon="7.12094">
        <ele>1122</ele>
        <time>2018-07-21T11:36:24.000Z</time>
      </trkpt>
      <trkpt lat="43.9654" lon="7.12093">
        <ele>1122</ele>
        <time>2018-07-21T11:36:26.000Z</time>
      </trkpt>
      <trkpt lat="43.9654" lon="7.12091">
        <ele>1122</ele>
        <time>2018-07-21T11:36:27.000Z</time>
      </trkpt>
      <trkpt lat="43.96541" lon="7.1209">
        <ele>1121</ele>
        <time>2018-07-21T11:36:29.000Z</time>
      </trkpt>
      <trkpt lat="43.96542" lon="7.12087">
        <ele>1121</ele>
        <time>2018-07-21T11:36:31.000Z</time>
      </trkpt>
      <trkpt lat="43.96545" lon="7.12083">
        <ele>1135</ele>
        <time>2018-07-21T11:36:34.000Z</time>
      </trkpt>
      <trkpt lat="43.96547" lon="7.12077">
        <ele>1134</ele>
        <time>2018-07-21T11:36:38.000Z</time>
      </trkpt>
      <trkpt lat="43.96548" lon="7.12075">
        <ele>1134</ele>
        <time>2018-07-21T11:36:39.000Z</time>
      </trkpt>
      <trkpt lat="43.9655" lon="7.12072">
        <ele>1134</ele>
        <time>2018-07-21T11:36:41.000Z</time>
      </trkpt>
      <trkpt lat="43.96551" lon="7.12069">
        <ele>1134</ele>
        <time>2018-07-21T11:36:44.000Z</time>
      </trkpt>
      <trkpt lat="43.96552" lon="7.12066">
        <ele>1134</ele>
        <time>2018-07-21T11:36:46.000Z</time>
      </trkpt>
      <trkpt lat="43.96553" lon="7.12064">
        <ele>1134</ele>
        <time>2018-07-21T11:36:48.000Z</time>
      </trkpt>
      <trkpt lat="43.96554" lon="7.12063">
        <ele>1134</ele>
        <time>2018-07-21T11:36:49.000Z</time>
      </trkpt>
      <trkpt lat="43.96557" lon="7.12058">
        <ele>1134</ele>
        <time>2018-07-21T11:36:54.000Z</time>
      </trkpt>
      <trkpt lat="43.96558" lon="7.12056">
        <ele>1134</ele>
        <time>2018-07-21T11:36:56.000Z</time>
      </trkpt>
      <trkpt lat="43.96561" lon="7.1205">
        <ele>1134</ele>
        <time>2018-07-21T11:37:01.000Z</time>
      </trkpt>
      <trkpt lat="43.96561" lon="7.12051">
        <ele>1134</ele>
        <time>2018-07-21T11:37:02.000Z</time>
      </trkpt>
      <trkpt lat="43.96561" lon="7.12048">
        <ele>1135</ele>
        <time>2018-07-21T11:37:06.000Z</time>
      </trkpt>
      <trkpt lat="43.96561" lon="7.12045">
        <ele>1136</ele>
        <time>2018-07-21T11:37:14.000Z</time>
      </trkpt>
      <trkpt lat="43.96561" lon="7.12044">
        <ele>1136</ele>
        <time>2018-07-21T11:37:24.000Z</time>
      </trkpt>
      <trkpt lat="43.96561" lon="7.12042">
        <ele>1136</ele>
        <time>2018-07-21T11:37:36.000Z</time>
      </trkpt>
      <trkpt lat="43.96562" lon="7.12041">
        <ele>1136</ele>
        <time>2018-07-21T11:37:37.000Z</time>
      </trkpt>
      <trkpt lat="43.96564" lon="7.12037">
        <ele>1136</ele>
        <time>2018-07-21T11:37:43.000Z</time>
      </trkpt>
      <trkpt lat="43.96566" lon="7.12035">
        <ele>1136</ele>
        <time>2018-07-21T11:37:46.000Z</time>
      </trkpt>
      <trkpt lat="43.96568" lon="7.12031">
        <ele>1137</ele>
        <time>2018-07-21T11:37:52.000Z</time>
      </trkpt>
      <trkpt lat="43.96569" lon="7.12029">
        <ele>1137</ele>
        <time>2018-07-21T11:37:54.000Z</time>
      </trkpt>
      <trkpt lat="43.96571" lon="7.12025">
        <ele>1137</ele>
        <time>2018-07-21T11:37:59.000Z</time>
      </trkpt>
      <trkpt lat="43.96572" lon="7.12023">
        <ele>1137</ele>
        <time>2018-07-21T11:38:02.000Z</time>
      </trkpt>
      <trkpt lat="43.96573" lon="7.1202">
        <ele>1137</ele>
        <time>2018-07-21T11:38:06.000Z</time>
      </trkpt>
      <trkpt lat="43.96575" lon="7.12017">
        <ele>1137</ele>
        <time>2018-07-21T11:38:10.000Z</time>
      </trkpt>
      <trkpt lat="43.96577" lon="7.12014">
        <ele>1136</ele>
        <time>2018-07-21T11:38:15.000Z</time>
      </trkpt>
      <trkpt lat="43.96578" lon="7.12013">
        <ele>1136</ele>
        <time>2018-07-21T11:38:17.000Z</time>
      </trkpt>
      <trkpt lat="43.96581" lon="7.12008">
        <ele>1136</ele>
        <time>2018-07-21T11:38:23.000Z</time>
      </trkpt>
      <trkpt lat="43.96582" lon="7.12006">
        <ele>1135</ele>
        <time>2018-07-21T11:38:25.000Z</time>
      </trkpt>
      <trkpt lat="43.96584" lon="7.11999">
        <ele>1134</ele>
        <time>2018-07-21T11:38:31.000Z</time>
      </trkpt>
      <trkpt lat="43.96584" lon="7.11998">
        <ele>1133</ele>
        <time>2018-07-21T11:38:32.000Z</time>
      </trkpt>
      <trkpt lat="43.96584" lon="7.11992">
        <ele>1132</ele>
        <time>2018-07-21T11:38:39.000Z</time>
      </trkpt>
      <trkpt lat="43.96584" lon="7.1199">
        <ele>1132</ele>
        <time>2018-07-21T11:38:41.000Z</time>
      </trkpt>
      <trkpt lat="43.96584" lon="7.11985">
        <ele>1131</ele>
        <time>2018-07-21T11:38:46.000Z</time>
      </trkpt>
      <trkpt lat="43.96583" lon="7.11983">
        <ele>1147</ele>
        <time>2018-07-21T11:38:48.000Z</time>
      </trkpt>
      <trkpt lat="43.96582" lon="7.1198">
        <ele>1149</ele>
        <time>2018-07-21T11:38:52.000Z</time>
      </trkpt>
      <trkpt lat="43.96582" lon="7.11978">
        <ele>1150</ele>
        <time>2018-07-21T11:38:56.000Z</time>
      </trkpt>
      <trkpt lat="43.96582" lon="7.11973">
        <ele>1151</ele>
        <time>2018-07-21T11:39:00.000Z</time>
      </trkpt>
      <trkpt lat="43.96582" lon="7.11968">
        <ele>1153</ele>
        <time>2018-07-21T11:39:05.000Z</time>
      </trkpt>
      <trkpt lat="43.96581" lon="7.11965">
        <ele>1154</ele>
        <time>2018-07-21T11:39:08.000Z</time>
      </trkpt>
      <trkpt lat="43.96582" lon="7.11958">
        <ele>1155</ele>
        <time>2018-07-21T11:39:14.000Z</time>
      </trkpt>
      <trkpt lat="43.96582" lon="7.11957">
        <ele>1155</ele>
        <time>2018-07-21T11:39:15.000Z</time>
      </trkpt>
      <trkpt lat="43.96582" lon="7.11949">
        <ele>1156</ele>
        <time>2018-07-21T11:39:22.000Z</time>
      </trkpt>
      <trkpt lat="43.96583" lon="7.11947">
        <ele>1156</ele>
        <time>2018-07-21T11:39:24.000Z</time>
      </trkpt>
      <trkpt lat="43.96583" lon="7.11942">
        <ele>1137</ele>
        <time>2018-07-21T11:39:28.000Z</time>
      </trkpt>
      <trkpt lat="43.96584" lon="7.11938">
        <ele>1139</ele>
        <time>2018-07-21T11:39:32.000Z</time>
      </trkpt>
      <trkpt lat="43.96585" lon="7.11933">
        <ele>1141</ele>
        <time>2018-07-21T11:39:36.000Z</time>
      </trkpt>
      <trkpt lat="43.96586" lon="7.1193">
        <ele>1143</ele>
        <time>2018-07-21T11:39:40.000Z</time>
      </trkpt>
      <trkpt lat="43.96587" lon="7.11926">
        <ele>1145</ele>
        <time>2018-07-21T11:39:43.000Z</time>
      </trkpt>
      <trkpt lat="43.96587" lon="7.11921">
        <ele>1148</ele>
        <time>2018-07-21T11:39:48.000Z</time>
      </trkpt>
      <trkpt lat="43.96588" lon="7.11917">
        <ele>1149</ele>
        <time>2018-07-21T11:39:51.000Z</time>
      </trkpt>
      <trkpt lat="43.96589" lon="7.11911">
        <ele>1152</ele>
        <time>2018-07-21T11:39:56.000Z</time>
      </trkpt>
      <trkpt lat="43.96589" lon="7.11909">
        <ele>1151</ele>
        <time>2018-07-21T11:39:58.000Z</time>
      </trkpt>
      <trkpt lat="43.96591" lon="7.11903">
        <ele>1150</ele>
        <time>2018-07-21T11:40:03.000Z</time>
      </trkpt>
      <trkpt lat="43.96591" lon="7.11902">
        <ele>1150</ele>
        <time>2018-07-21T11:40:04.000Z</time>
      </trkpt>
      <trkpt lat="43.96592" lon="7.11897">
        <ele>1150</ele>
        <time>2018-07-21T11:40:11.000Z</time>
      </trkpt>
      <trkpt lat="43.96592" lon="7.11895">
        <ele>1150</ele>
        <time>2018-07-21T11:40:19.000Z</time>
      </trkpt>
      <trkpt lat="43.96593" lon="7.11893">
        <ele>1149</ele>
        <time>2018-07-21T11:40:22.000Z</time>
      </trkpt>
      <trkpt lat="43.96594" lon="7.1189">
        <ele>1149</ele>
        <time>2018-07-21T11:40:24.000Z</time>
      </trkpt>
      <trkpt lat="43.96597" lon="7.11881">
        <ele>1150</ele>
        <time>2018-07-21T11:40:29.000Z</time>
      </trkpt>
      <trkpt lat="43.96597" lon="7.11879">
        <ele>1150</ele>
        <time>2018-07-21T11:40:30.000Z</time>
      </trkpt>
      <trkpt lat="43.966" lon="7.11876">
        <ele>1150</ele>
        <time>2018-07-21T11:40:33.000Z</time>
      </trkpt>
      <trkpt lat="43.96601" lon="7.11871">
        <ele>1150</ele>
        <time>2018-07-21T11:40:36.000Z</time>
      </trkpt>
      <trkpt lat="43.96605" lon="7.11865">
        <ele>1150</ele>
        <time>2018-07-21T11:40:41.000Z</time>
      </trkpt>
      <trkpt lat="43.96609" lon="7.11852">
        <ele>1152</ele>
        <time>2018-07-21T11:40:48.000Z</time>
      </trkpt>
      <trkpt lat="43.9661" lon="7.1185">
        <ele>1152</ele>
        <time>2018-07-21T11:40:49.000Z</time>
      </trkpt>
      <trkpt lat="43.96612" lon="7.11844">
        <ele>1152</ele>
        <time>2018-07-21T11:40:53.000Z</time>
      </trkpt>
      <trkpt lat="43.96613" lon="7.11841">
        <ele>1152</ele>
        <time>2018-07-21T11:40:55.000Z</time>
      </trkpt>
      <trkpt lat="43.96616" lon="7.11833">
        <ele>1162</ele>
        <time>2018-07-21T11:41:00.000Z</time>
      </trkpt>
      <trkpt lat="43.96617" lon="7.11828">
        <ele>1161</ele>
        <time>2018-07-21T11:41:03.000Z</time>
      </trkpt>
      <trkpt lat="43.96618" lon="7.11826">
        <ele>1161</ele>
        <time>2018-07-21T11:41:05.000Z</time>
      </trkpt>
      <trkpt lat="43.96619" lon="7.11824">
        <ele>1161</ele>
        <time>2018-07-21T11:41:07.000Z</time>
      </trkpt>
      <trkpt lat="43.96621" lon="7.11822">
        <ele>1161</ele>
        <time>2018-07-21T11:41:09.000Z</time>
      </trkpt>
      <trkpt lat="43.96623" lon="7.11817">
        <ele>1161</ele>
        <time>2018-07-21T11:41:12.000Z</time>
      </trkpt>
      <trkpt lat="43.96624" lon="7.11815">
        <ele>1161</ele>
        <time>2018-07-21T11:41:14.000Z</time>
      </trkpt>
      <trkpt lat="43.96626" lon="7.11808">
        <ele>1161</ele>
        <time>2018-07-21T11:41:18.000Z</time>
      </trkpt>
      <trkpt lat="43.96628" lon="7.11801">
        <ele>1161</ele>
        <time>2018-07-21T11:41:22.000Z</time>
      </trkpt>
      <trkpt lat="43.96629" lon="7.11797">
        <ele>1161</ele>
        <time>2018-07-21T11:41:24.000Z</time>
      </trkpt>
      <trkpt lat="43.96633" lon="7.11791">
        <ele>1161</ele>
        <time>2018-07-21T11:41:28.000Z</time>
      </trkpt>
      <trkpt lat="43.96634" lon="7.11788">
        <ele>1162</ele>
        <time>2018-07-21T11:41:29.000Z</time>
      </trkpt>
      <trkpt lat="43.96635" lon="7.11785">
        <ele>1162</ele>
        <time>2018-07-21T11:41:31.000Z</time>
      </trkpt>
      <trkpt lat="43.96637" lon="7.11779">
        <ele>1162</ele>
        <time>2018-07-21T11:41:34.000Z</time>
      </trkpt>
      <trkpt lat="43.96638" lon="7.11776">
        <ele>1162</ele>
        <time>2018-07-21T11:41:36.000Z</time>
      </trkpt>
      <trkpt lat="43.9664" lon="7.1177">
        <ele>1162</ele>
        <time>2018-07-21T11:41:39.000Z</time>
      </trkpt>
      <trkpt lat="43.96641" lon="7.11766">
        <ele>1162</ele>
        <time>2018-07-21T11:41:41.000Z</time>
      </trkpt>
      <trkpt lat="43.96642" lon="7.11763">
        <ele>1162</ele>
        <time>2018-07-21T11:41:43.000Z</time>
      </trkpt>
      <trkpt lat="43.96644" lon="7.11757">
        <ele>1162</ele>
        <time>2018-07-21T11:41:47.000Z</time>
      </trkpt>
      <trkpt lat="43.96645" lon="7.11752">
        <ele>1162</ele>
        <time>2018-07-21T11:41:50.000Z</time>
      </trkpt>
      <trkpt lat="43.96646" lon="7.1175">
        <ele>1169</ele>
        <time>2018-07-21T11:41:52.000Z</time>
      </trkpt>
      <trkpt lat="43.96647" lon="7.11749">
        <ele>1169</ele>
        <time>2018-07-21T11:41:53.000Z</time>
      </trkpt>
      <trkpt lat="43.96648" lon="7.11748">
        <ele>1169</ele>
        <time>2018-07-21T11:41:54.000Z</time>
      </trkpt>
      <trkpt lat="43.96651" lon="7.11742">
        <ele>1168</ele>
        <time>2018-07-21T11:41:58.000Z</time>
      </trkpt>
      <trkpt lat="43.96656" lon="7.11732">
        <ele>1169</ele>
        <time>2018-07-21T11:42:04.000Z</time>
      </trkpt>
      <trkpt lat="43.96657" lon="7.11731">
        <ele>1169</ele>
        <time>2018-07-21T11:42:05.000Z</time>
      </trkpt>
      <trkpt lat="43.96657" lon="7.11729">
        <ele>1170</ele>
        <time>2018-07-21T11:42:06.000Z</time>
      </trkpt>
      <trkpt lat="43.96659" lon="7.1172">
        <ele>1172</ele>
        <time>2018-07-21T11:42:10.000Z</time>
      </trkpt>
      <trkpt lat="43.96661" lon="7.11714">
        <ele>1173</ele>
        <time>2018-07-21T11:42:13.000Z</time>
      </trkpt>
      <trkpt lat="43.96662" lon="7.11706">
        <ele>1174</ele>
        <time>2018-07-21T11:42:17.000Z</time>
      </trkpt>
      <trkpt lat="43.96663" lon="7.11694">
        <ele>1175</ele>
        <time>2018-07-21T11:42:22.000Z</time>
      </trkpt>
      <trkpt lat="43.96664" lon="7.11691">
        <ele>1175</ele>
        <time>2018-07-21T11:42:23.000Z</time>
      </trkpt>
      <trkpt lat="43.9667" lon="7.11676">
        <ele>1166</ele>
        <time>2018-07-21T11:42:29.000Z</time>
      </trkpt>
      <trkpt lat="43.96675" lon="7.11662">
        <ele>1170</ele>
        <time>2018-07-21T11:42:35.000Z</time>
      </trkpt>
      <trkpt lat="43.96675" lon="7.11653">
        <ele>1169</ele>
        <time>2018-07-21T11:42:38.000Z</time>
      </trkpt>
      <trkpt lat="43.96674" lon="7.11645">
        <ele>1168</ele>
        <time>2018-07-21T11:42:41.000Z</time>
      </trkpt>
      <trkpt lat="43.96671" lon="7.11634">
        <ele>1168</ele>
        <time>2018-07-21T11:42:45.000Z</time>
      </trkpt>
      <trkpt lat="43.9667" lon="7.11631">
        <ele>1168</ele>
        <time>2018-07-21T11:42:46.000Z</time>
      </trkpt>
      <trkpt lat="43.96665" lon="7.11616">
        <ele>1186</ele>
        <time>2018-07-21T11:42:52.000Z</time>
      </trkpt>
      <trkpt lat="43.96664" lon="7.11605">
        <ele>1186</ele>
        <time>2018-07-21T11:42:56.000Z</time>
      </trkpt>
      <trkpt lat="43.96665" lon="7.11603">
        <ele>1186</ele>
        <time>2018-07-21T11:42:57.000Z</time>
      </trkpt>
      <trkpt lat="43.96667" lon="7.11595">
        <ele>1176</ele>
        <time>2018-07-21T11:43:00.000Z</time>
      </trkpt>
      <trkpt lat="43.96668" lon="7.11591">
        <ele>1178</ele>
        <time>2018-07-21T11:43:02.000Z</time>
      </trkpt>
      <trkpt lat="43.96669" lon="7.1159">
        <ele>1178</ele>
        <time>2018-07-21T11:43:03.000Z</time>
      </trkpt>
      <trkpt lat="43.9667" lon="7.11588">
        <ele>1179</ele>
        <time>2018-07-21T11:43:04.000Z</time>
      </trkpt>
      <trkpt lat="43.96672" lon="7.11584">
        <ele>1179</ele>
        <time>2018-07-21T11:43:06.000Z</time>
      </trkpt>
      <trkpt lat="43.96677" lon="7.11578">
        <ele>1179</ele>
        <time>2018-07-21T11:43:09.000Z</time>
      </trkpt>
      <trkpt lat="43.96681" lon="7.11571">
        <ele>1178</ele>
        <time>2018-07-21T11:43:12.000Z</time>
      </trkpt>
      <trkpt lat="43.96686" lon="7.11558">
        <ele>1177</ele>
        <time>2018-07-21T11:43:17.000Z</time>
      </trkpt>
      <trkpt lat="43.96687" lon="7.11552">
        <ele>1177</ele>
        <time>2018-07-21T11:43:19.000Z</time>
      </trkpt>
      <trkpt lat="43.96687" lon="7.1155">
        <ele>1177</ele>
        <time>2018-07-21T11:43:20.000Z</time>
      </trkpt>
      <trkpt lat="43.96687" lon="7.11547">
        <ele>1177</ele>
        <time>2018-07-21T11:43:21.000Z</time>
      </trkpt>
      <trkpt lat="43.96689" lon="7.11538">
        <ele>1177</ele>
        <time>2018-07-21T11:43:26.000Z</time>
      </trkpt>
      <trkpt lat="43.96689" lon="7.11536">
        <ele>1177</ele>
        <time>2018-07-21T11:43:27.000Z</time>
      </trkpt>
      <trkpt lat="43.96689" lon="7.11535">
        <ele>1178</ele>
        <time>2018-07-21T11:43:28.000Z</time>
      </trkpt>
      <trkpt lat="43.96689" lon="7.11531">
        <ele>1178</ele>
        <time>2018-07-21T11:43:30.000Z</time>
      </trkpt>
      <trkpt lat="43.96688" lon="7.11528">
        <ele>1179</ele>
        <time>2018-07-21T11:43:32.000Z</time>
      </trkpt>
      <trkpt lat="43.96687" lon="7.11525">
        <ele>1179</ele>
        <time>2018-07-21T11:43:34.000Z</time>
      </trkpt>
      <trkpt lat="43.96686" lon="7.11517">
        <ele>1181</ele>
        <time>2018-07-21T11:43:39.000Z</time>
      </trkpt>
      <trkpt lat="43.96682" lon="7.11508">
        <ele>1184</ele>
        <time>2018-07-21T11:43:45.000Z</time>
      </trkpt>
      <trkpt lat="43.96681" lon="7.11506">
        <ele>1185</ele>
        <time>2018-07-21T11:43:47.000Z</time>
      </trkpt>
      <trkpt lat="43.96677" lon="7.11497">
        <ele>1193</ele>
        <time>2018-07-21T11:43:52.000Z</time>
      </trkpt>
      <trkpt lat="43.96676" lon="7.1149">
        <ele>1193</ele>
        <time>2018-07-21T11:43:56.000Z</time>
      </trkpt>
      <trkpt lat="43.96676" lon="7.11484">
        <ele>1193</ele>
        <time>2018-07-21T11:43:59.000Z</time>
      </trkpt>
      <trkpt lat="43.96677" lon="7.11482">
        <ele>1193</ele>
        <time>2018-07-21T11:44:00.000Z</time>
      </trkpt>
      <trkpt lat="43.96682" lon="7.11475">
        <ele>1193</ele>
        <time>2018-07-21T11:44:04.000Z</time>
      </trkpt>
      <trkpt lat="43.96684" lon="7.11473">
        <ele>1192</ele>
        <time>2018-07-21T11:44:05.000Z</time>
      </trkpt>
      <trkpt lat="43.96694" lon="7.11468">
        <ele>1192</ele>
        <time>2018-07-21T11:44:11.000Z</time>
      </trkpt>
      <trkpt lat="43.96703" lon="7.1146">
        <ele>1191</ele>
        <time>2018-07-21T11:44:17.000Z</time>
      </trkpt>
      <trkpt lat="43.96715" lon="7.11442">
        <ele>1191</ele>
        <time>2018-07-21T11:44:25.000Z</time>
      </trkpt>
      <trkpt lat="43.96723" lon="7.11434">
        <ele>1191</ele>
        <time>2018-07-21T11:44:30.000Z</time>
      </trkpt>
      <trkpt lat="43.96725" lon="7.11433">
        <ele>1191</ele>
        <time>2018-07-21T11:44:31.000Z</time>
      </trkpt>
      <trkpt lat="43.96735" lon="7.11424">
        <ele>1191</ele>
        <time>2018-07-21T11:44:37.000Z</time>
      </trkpt>
      <trkpt lat="43.96736" lon="7.11423">
        <ele>1190</ele>
        <time>2018-07-21T11:44:38.000Z</time>
      </trkpt>
      <trkpt lat="43.96746" lon="7.11411">
        <ele>1196</ele>
        <time>2018-07-21T11:44:44.000Z</time>
      </trkpt>
      <trkpt lat="43.96758" lon="7.11401">
        <ele>1193</ele>
        <time>2018-07-21T11:44:50.000Z</time>
      </trkpt>
      <trkpt lat="43.9677" lon="7.11393">
        <ele>1194</ele>
        <time>2018-07-21T11:44:55.000Z</time>
      </trkpt>
      <trkpt lat="43.96773" lon="7.11392">
        <ele>1194</ele>
        <time>2018-07-21T11:44:56.000Z</time>
      </trkpt>
      <trkpt lat="43.96785" lon="7.11381">
        <ele>1195</ele>
        <time>2018-07-21T11:45:01.000Z</time>
      </trkpt>
      <trkpt lat="43.96798" lon="7.11372">
        <ele>1195</ele>
        <time>2018-07-21T11:45:06.000Z</time>
      </trkpt>
      <trkpt lat="43.968" lon="7.1137">
        <ele>1195</ele>
        <time>2018-07-21T11:45:07.000Z</time>
      </trkpt>
      <trkpt lat="43.96811" lon="7.11361">
        <ele>1196</ele>
        <time>2018-07-21T11:45:12.000Z</time>
      </trkpt>
      <trkpt lat="43.96813" lon="7.11359">
        <ele>1196</ele>
        <time>2018-07-21T11:45:13.000Z</time>
      </trkpt>
      <trkpt lat="43.9682" lon="7.11353">
        <ele>1197</ele>
        <time>2018-07-21T11:45:16.000Z</time>
      </trkpt>
      <trkpt lat="43.96832" lon="7.11344">
        <ele>1199</ele>
        <time>2018-07-21T11:45:21.000Z</time>
      </trkpt>
      <trkpt lat="43.96847" lon="7.11338">
        <ele>1193</ele>
        <time>2018-07-21T11:45:27.000Z</time>
      </trkpt>
      <trkpt lat="43.96861" lon="7.11334">
        <ele>1188</ele>
        <time>2018-07-21T11:45:32.000Z</time>
      </trkpt>
      <trkpt lat="43.96864" lon="7.11333">
        <ele>1205</ele>
        <time>2018-07-21T11:45:33.000Z</time>
      </trkpt>
      <trkpt lat="43.96882" lon="7.11329">
        <ele>1203</ele>
        <time>2018-07-21T11:45:39.000Z</time>
      </trkpt>
      <trkpt lat="43.96887" lon="7.11327">
        <ele>1202</ele>
        <time>2018-07-21T11:45:41.000Z</time>
      </trkpt>
      <trkpt lat="43.96897" lon="7.11322">
        <ele>1200</ele>
        <time>2018-07-21T11:45:45.000Z</time>
      </trkpt>
      <trkpt lat="43.96906" lon="7.11318">
        <ele>1199</ele>
        <time>2018-07-21T11:45:48.000Z</time>
      </trkpt>
      <trkpt lat="43.96916" lon="7.11314">
        <ele>1200</ele>
        <time>2018-07-21T11:45:52.000Z</time>
      </trkpt>
      <trkpt lat="43.96929" lon="7.11308">
        <ele>1195</ele>
        <time>2018-07-21T11:45:57.000Z</time>
      </trkpt>
      <trkpt lat="43.96932" lon="7.11307">
        <ele>1195</ele>
        <time>2018-07-21T11:45:58.000Z</time>
      </trkpt>
      <trkpt lat="43.96946" lon="7.11298">
        <ele>1196</ele>
        <time>2018-07-21T11:46:04.000Z</time>
      </trkpt>
      <trkpt lat="43.96948" lon="7.11297">
        <ele>1196</ele>
        <time>2018-07-21T11:46:05.000Z</time>
      </trkpt>
      <trkpt lat="43.96959" lon="7.1129">
        <ele>1197</ele>
        <time>2018-07-21T11:46:11.000Z</time>
      </trkpt>
      <trkpt lat="43.96961" lon="7.11289">
        <ele>1197</ele>
        <time>2018-07-21T11:46:12.000Z</time>
      </trkpt>
      <trkpt lat="43.96972" lon="7.11285">
        <ele>1197</ele>
        <time>2018-07-21T11:46:18.000Z</time>
      </trkpt>
      <trkpt lat="43.96974" lon="7.11284">
        <ele>1197</ele>
        <time>2018-07-21T11:46:19.000Z</time>
      </trkpt>
      <trkpt lat="43.96984" lon="7.11279">
        <ele>1197</ele>
        <time>2018-07-21T11:46:24.000Z</time>
      </trkpt>
      <trkpt lat="43.96991" lon="7.11275">
        <ele>1198</ele>
        <time>2018-07-21T11:46:28.000Z</time>
      </trkpt>
      <trkpt lat="43.96997" lon="7.11271">
        <ele>1199</ele>
        <time>2018-07-21T11:46:31.000Z</time>
      </trkpt>
      <trkpt lat="43.97" lon="7.11269">
        <ele>1200</ele>
        <time>2018-07-21T11:46:33.000Z</time>
      </trkpt>
      <trkpt lat="43.97006" lon="7.11265">
        <ele>1196</ele>
        <time>2018-07-21T11:46:36.000Z</time>
      </trkpt>
      <trkpt lat="43.97012" lon="7.1126">
        <ele>1196</ele>
        <time>2018-07-21T11:46:39.000Z</time>
      </trkpt>
      <trkpt lat="43.97016" lon="7.11255">
        <ele>1196</ele>
        <time>2018-07-21T11:46:42.000Z</time>
      </trkpt>
      <trkpt lat="43.9702" lon="7.1125">
        <ele>1204</ele>
        <time>2018-07-21T11:46:45.000Z</time>
      </trkpt>
      <trkpt lat="43.97025" lon="7.11245">
        <ele>1204</ele>
        <time>2018-07-21T11:46:48.000Z</time>
      </trkpt>
      <trkpt lat="43.97034" lon="7.11233">
        <ele>1204</ele>
        <time>2018-07-21T11:46:54.000Z</time>
      </trkpt>
      <trkpt lat="43.97046" lon="7.11219">
        <ele>1204</ele>
        <time>2018-07-21T11:47:00.000Z</time>
      </trkpt>
      <trkpt lat="43.97058" lon="7.11202">
        <ele>1204</ele>
        <time>2018-07-21T11:47:06.000Z</time>
      </trkpt>
      <trkpt lat="43.97073" lon="7.11192">
        <ele>1203</ele>
        <time>2018-07-21T11:47:12.000Z</time>
      </trkpt>
      <trkpt lat="43.97079" lon="7.11185">
        <ele>1203</ele>
        <time>2018-07-21T11:47:16.000Z</time>
      </trkpt>
      <trkpt lat="43.9708" lon="7.11183">
        <ele>1203</ele>
        <time>2018-07-21T11:47:17.000Z</time>
      </trkpt>
      <trkpt lat="43.97081" lon="7.11182">
        <ele>1203</ele>
        <time>2018-07-21T11:47:18.000Z</time>
      </trkpt>
      <trkpt lat="43.97082" lon="7.11181">
        <ele>1203</ele>
        <time>2018-07-21T11:47:21.000Z</time>
      </trkpt>
      <trkpt lat="43.97082" lon="7.11179">
        <ele>1203</ele>
        <time>2018-07-21T11:47:28.000Z</time>
      </trkpt>
      <trkpt lat="43.97081" lon="7.11178">
        <ele>1203</ele>
        <time>2018-07-21T11:47:30.000Z</time>
      </trkpt>
      <trkpt lat="43.97079" lon="7.11177">
        <ele>1203</ele>
        <time>2018-07-21T11:47:33.000Z</time>
      </trkpt>
      <trkpt lat="43.97078" lon="7.11174">
        <ele>1203</ele>
        <time>2018-07-21T11:47:43.000Z</time>
      </trkpt>
      <trkpt lat="43.97079" lon="7.11174">
        <ele>1203</ele>
        <time>2018-07-21T11:48:05.000Z</time>
      </trkpt>
      <trkpt lat="43.97081" lon="7.11176">
        <ele>1203</ele>
        <time>2018-07-21T11:48:16.000Z</time>
      </trkpt>
      <trkpt lat="43.97083" lon="7.11177">
        <ele>1203</ele>
        <time>2018-07-21T11:48:23.000Z</time>
      </trkpt>
      <trkpt lat="43.97084" lon="7.11178">
        <ele>1200</ele>
        <time>2018-07-21T11:48:29.000Z</time>
      </trkpt>
      <trkpt lat="43.97085" lon="7.11179">
        <ele>1200</ele>
        <time>2018-07-21T11:48:36.000Z</time>
      </trkpt>
      <trkpt lat="43.97085" lon="7.11179">
        <ele>1200</ele>
        <time>2018-07-21T11:48:48.000Z</time>
      </trkpt>
      <trkpt lat="43.97085" lon="7.1118">
        <ele>1200</ele>
        <time>2018-07-21T11:48:59.000Z</time>
      </trkpt>
      <trkpt lat="43.97085" lon="7.1118">
        <ele>1200</ele>
        <time>2018-07-21T11:49:05.000Z</time>
      </trkpt>
      <trkpt lat="43.97085" lon="7.11181">
        <ele>1200</ele>
        <time>2018-07-21T11:49:19.000Z</time>
      </trkpt>
      <trkpt lat="43.97085" lon="7.11181">
        <ele>1200</ele>
        <time>2018-07-21T11:49:26.000Z</time>
      </trkpt>
      <trkpt lat="43.97086" lon="7.11182">
        <ele>1200</ele>
        <time>2018-07-21T11:49:36.000Z</time>
      </trkpt>
      <trkpt lat="43.97086" lon="7.11181">
        <ele>1200</ele>
        <time>2018-07-21T11:49:47.000Z</time>
      </trkpt>
      <trkpt lat="43.97088" lon="7.11181">
        <ele>1200</ele>
        <time>2018-07-21T11:49:58.000Z</time>
      </trkpt>
      <trkpt lat="43.97088" lon="7.11182">
        <ele>1200</ele>
        <time>2018-07-21T11:50:13.000Z</time>
      </trkpt>
      <trkpt lat="43.97088" lon="7.11182">
        <ele>1200</ele>
        <time>2018-07-21T11:50:29.000Z</time>
      </trkpt>
      <trkpt lat="43.97088" lon="7.11182">
        <ele>1200</ele>
        <time>2018-07-21T11:50:33.000Z</time>
      </trkpt>
      <trkpt lat="43.97088" lon="7.11182">
        <ele>1200</ele>
        <time>2018-07-21T11:50:49.000Z</time>
      </trkpt>
      <trkpt lat="43.97088" lon="7.11182">
        <ele>1200</ele>
        <time>2018-07-21T11:51:00.000Z</time>
      </trkpt>
      <trkpt lat="43.97088" lon="7.11182">
        <ele>1200</ele>
        <time>2018-07-21T11:51:13.000Z</time>
      </trkpt>
      <trkpt lat="43.97087" lon="7.11182">
        <ele>1200</ele>
        <time>2018-07-21T11:51:27.000Z</time>
      </trkpt>
      <trkpt lat="43.97087" lon="7.11182">
        <ele>1200</ele>
        <time>2018-07-21T11:51:39.000Z</time>
      </trkpt>
      <trkpt lat="43.97087" lon="7.11182">
        <ele>1200</ele>
        <time>2018-07-21T11:51:46.000Z</time>
      </trkpt>
      <trkpt lat="43.97087" lon="7.11182">
        <ele>1200</ele>
        <time>2018-07-21T11:51:57.000Z</time>
      </trkpt>
      <trkpt lat="43.97088" lon="7.11183">
        <ele>1200</ele>
        <time>2018-07-21T11:52:04.000Z</time>
      </trkpt>
      <trkpt lat="43.97089" lon="7.11183">
        <ele>1200</ele>
        <time>2018-07-21T11:52:08.000Z</time>
      </trkpt>
      <trkpt lat="43.97089" lon="7.11183">
        <ele>1200</ele>
        <time>2018-07-21T11:52:15.000Z</time>
      </trkpt>
      <trkpt lat="43.97089" lon="7.11183">
        <ele>1200</ele>
        <time>2018-07-21T11:52:21.000Z</time>
      </trkpt>
      <trkpt lat="43.97089" lon="7.11183">
        <ele>1200</ele>
        <time>2018-07-21T11:52:26.000Z</time>
      </trkpt>
      <trkpt lat="43.9709" lon="7.11182">
        <ele>1200</ele>
        <time>2018-07-21T11:52:35.000Z</time>
      </trkpt>
      <trkpt lat="43.97089" lon="7.11182">
        <ele>1200</ele>
        <time>2018-07-21T11:52:44.000Z</time>
      </trkpt>
      <trkpt lat="43.97088" lon="7.11182">
        <ele>1200</ele>
        <time>2018-07-21T11:52:54.000Z</time>
      </trkpt>
      <trkpt lat="43.97087" lon="7.11182">
        <ele>1200</ele>
        <time>2018-07-21T11:53:02.000Z</time>
      </trkpt>
      <trkpt lat="43.97086" lon="7.11181">
        <ele>1200</ele>
        <time>2018-07-21T11:53:10.000Z</time>
      </trkpt>
      <trkpt lat="43.97086" lon="7.11181">
        <ele>1200</ele>
        <time>2018-07-21T11:53:18.000Z</time>
      </trkpt>
      <trkpt lat="43.97088" lon="7.1118">
        <ele>1200</ele>
        <time>2018-07-21T11:53:40.000Z</time>
      </trkpt>
      <trkpt lat="43.9709" lon="7.11181">
        <ele>1200</ele>
        <time>2018-07-21T11:53:59.000Z</time>
      </trkpt>
      <trkpt lat="43.97089" lon="7.11181">
        <ele>1200</ele>
        <time>2018-07-21T11:54:03.000Z</time>
      </trkpt>
      <trkpt lat="43.97087" lon="7.11181">
        <ele>1200</ele>
        <time>2018-07-21T11:54:10.000Z</time>
      </trkpt>
      <trkpt lat="43.97086" lon="7.11181">
        <ele>1200</ele>
        <time>2018-07-21T11:54:21.000Z</time>
      </trkpt>
      <trkpt lat="43.97085" lon="7.11181">
        <ele>1200</ele>
        <time>2018-07-21T11:54:45.000Z</time>
      </trkpt>
      <trkpt lat="43.97085" lon="7.11181">
        <ele>1200</ele>
        <time>2018-07-21T11:54:48.000Z</time>
      </trkpt>
      <trkpt lat="43.97084" lon="7.11181">
        <ele>1200</ele>
        <time>2018-07-21T11:55:04.000Z</time>
      </trkpt>
      <trkpt lat="43.97083" lon="7.1118">
        <ele>1203</ele>
        <time>2018-07-21T11:55:08.000Z</time>
      </trkpt>
      <trkpt lat="43.97082" lon="7.11181">
        <ele>1203</ele>
        <time>2018-07-21T11:55:09.000Z</time>
      </trkpt>
      <trkpt lat="43.97077" lon="7.11178">
        <ele>1203</ele>
        <time>2018-07-21T11:55:13.000Z</time>
      </trkpt>
      <trkpt lat="43.9707" lon="7.11177">
        <ele>1203</ele>
        <time>2018-07-21T11:55:17.000Z</time>
      </trkpt>
      <trkpt lat="43.97068" lon="7.11176">
        <ele>1203</ele>
        <time>2018-07-21T11:55:18.000Z</time>
      </trkpt>
      <trkpt lat="43.97057" lon="7.11163">
        <ele>1207</ele>
        <time>2018-07-21T11:55:23.000Z</time>
      </trkpt>
      <trkpt lat="43.97049" lon="7.11142">
        <ele>1208</ele>
        <time>2018-07-21T11:55:28.000Z</time>
      </trkpt>
      <trkpt lat="43.97047" lon="7.11128">
        <ele>1208</ele>
        <time>2018-07-21T11:55:32.000Z</time>
      </trkpt>
      <trkpt lat="43.97047" lon="7.11125">
        <ele>1208</ele>
        <time>2018-07-21T11:55:33.000Z</time>
      </trkpt>
      <trkpt lat="43.97048" lon="7.11107">
        <ele>1207</ele>
        <time>2018-07-21T11:55:38.000Z</time>
      </trkpt>
      <trkpt lat="43.97047" lon="7.11104">
        <ele>1207</ele>
        <time>2018-07-21T11:55:39.000Z</time>
      </trkpt>
      <trkpt lat="43.97042" lon="7.11094">
        <ele>1208</ele>
        <time>2018-07-21T11:55:42.000Z</time>
      </trkpt>
      <trkpt lat="43.97038" lon="7.11078">
        <ele>1201</ele>
        <time>2018-07-21T11:55:47.000Z</time>
      </trkpt>
      <trkpt lat="43.97036" lon="7.11075">
        <ele>1202</ele>
        <time>2018-07-21T11:55:48.000Z</time>
      </trkpt>
      <trkpt lat="43.97028" lon="7.11065">
        <ele>1202</ele>
        <time>2018-07-21T11:55:51.000Z</time>
      </trkpt>
      <trkpt lat="43.97019" lon="7.11049">
        <ele>1201</ele>
        <time>2018-07-21T11:55:56.000Z</time>
      </trkpt>
      <trkpt lat="43.97015" lon="7.11044">
        <ele>1200</ele>
        <time>2018-07-21T11:55:58.000Z</time>
      </trkpt>
      <trkpt lat="43.97007" lon="7.11036">
        <ele>1199</ele>
        <time>2018-07-21T11:56:01.000Z</time>
      </trkpt>
      <trkpt lat="43.96998" lon="7.11025">
        <ele>1209</ele>
        <time>2018-07-21T11:56:05.000Z</time>
      </trkpt>
      <trkpt lat="43.96996" lon="7.11023">
        <ele>1208</ele>
        <time>2018-07-21T11:56:06.000Z</time>
      </trkpt>
      <trkpt lat="43.96989" lon="7.11015">
        <ele>1206</ele>
        <time>2018-07-21T11:56:10.000Z</time>
      </trkpt>
      <trkpt lat="43.96984" lon="7.11012">
        <ele>1207</ele>
        <time>2018-07-21T11:56:12.000Z</time>
      </trkpt>
      <trkpt lat="43.96972" lon="7.11009">
        <ele>1209</ele>
        <time>2018-07-21T11:56:16.000Z</time>
      </trkpt>
      <trkpt lat="43.96963" lon="7.11008">
        <ele>1211</ele>
        <time>2018-07-21T11:56:19.000Z</time>
      </trkpt>
      <trkpt lat="43.96935" lon="7.10998">
        <ele>1197</ele>
        <time>2018-07-21T11:56:26.000Z</time>
      </trkpt>
      <trkpt lat="43.96914" lon="7.10987">
        <ele>1201</ele>
        <time>2018-07-21T11:56:31.000Z</time>
      </trkpt>
      <trkpt lat="43.96906" lon="7.10984">
        <ele>1197</ele>
        <time>2018-07-21T11:56:33.000Z</time>
      </trkpt>
      <trkpt lat="43.96892" lon="7.10984">
        <ele>1194</ele>
        <time>2018-07-21T11:56:37.000Z</time>
      </trkpt>
      <trkpt lat="43.96876" lon="7.10995">
        <ele>1194</ele>
        <time>2018-07-21T11:56:42.000Z</time>
      </trkpt>
      <trkpt lat="43.96862" lon="7.10999">
        <ele>1194</ele>
        <time>2018-07-21T11:56:46.000Z</time>
      </trkpt>
      <trkpt lat="43.96847" lon="7.10996">
        <ele>1198</ele>
        <time>2018-07-21T11:56:50.000Z</time>
      </trkpt>
      <trkpt lat="43.96843" lon="7.10993">
        <ele>1199</ele>
        <time>2018-07-21T11:56:51.000Z</time>
      </trkpt>
      <trkpt lat="43.96833" lon="7.10992">
        <ele>1201</ele>
        <time>2018-07-21T11:56:55.000Z</time>
      </trkpt>
      <trkpt lat="43.9683" lon="7.10993">
        <ele>1201</ele>
        <time>2018-07-21T11:56:57.000Z</time>
      </trkpt>
      <trkpt lat="43.96821" lon="7.10997">
        <ele>1199</ele>
        <time>2018-07-21T11:57:01.000Z</time>
      </trkpt>
      <trkpt lat="43.9681" lon="7.10999">
        <ele>1196</ele>
        <time>2018-07-21T11:57:06.000Z</time>
      </trkpt>
      <trkpt lat="43.96804" lon="7.11">
        <ele>1195</ele>
        <time>2018-07-21T11:57:12.000Z</time>
      </trkpt>
      <trkpt lat="43.96801" lon="7.11001">
        <ele>1222</ele>
        <time>2018-07-21T11:57:14.000Z</time>
      </trkpt>
      <trkpt lat="43.96799" lon="7.11003">
        <ele>1223</ele>
        <time>2018-07-21T11:57:17.000Z</time>
      </trkpt>
      <trkpt lat="43.96791" lon="7.11004">
        <ele>1224</ele>
        <time>2018-07-21T11:57:21.000Z</time>
      </trkpt>
      <trkpt lat="43.9679" lon="7.11004">
        <ele>1224</ele>
        <time>2018-07-21T11:57:25.000Z</time>
      </trkpt>
      <trkpt lat="43.96786" lon="7.11003">
        <ele>1224</ele>
        <time>2018-07-21T11:57:31.000Z</time>
      </trkpt>
      <trkpt lat="43.96783" lon="7.11002">
        <ele>1224</ele>
        <time>2018-07-21T11:57:37.000Z</time>
      </trkpt>
      <trkpt lat="43.96782" lon="7.11002">
        <ele>1223</ele>
        <time>2018-07-21T11:57:41.000Z</time>
      </trkpt>
      <trkpt lat="43.96779" lon="7.10998">
        <ele>1197</ele>
        <time>2018-07-21T11:57:43.000Z</time>
      </trkpt>
      <trkpt lat="43.96775" lon="7.10997">
        <ele>1198</ele>
        <time>2018-07-21T11:57:47.000Z</time>
      </trkpt>
      <trkpt lat="43.96771" lon="7.10998">
        <ele>1199</ele>
        <time>2018-07-21T11:57:53.000Z</time>
      </trkpt>
      <trkpt lat="43.96769" lon="7.10997">
        <ele>1200</ele>
        <time>2018-07-21T11:57:58.000Z</time>
      </trkpt>
      <trkpt lat="43.96768" lon="7.10997">
        <ele>1200</ele>
        <time>2018-07-21T11:58:03.000Z</time>
      </trkpt>
      <trkpt lat="43.96766" lon="7.10994">
        <ele>1200</ele>
        <time>2018-07-21T11:58:05.000Z</time>
      </trkpt>
      <trkpt lat="43.96766" lon="7.10994">
        <ele>1200</ele>
        <time>2018-07-21T11:58:10.000Z</time>
      </trkpt>
      <trkpt lat="43.96761" lon="7.10988">
        <ele>1200</ele>
        <time>2018-07-21T11:58:18.000Z</time>
      </trkpt>
      <trkpt lat="43.96749" lon="7.10977">
        <ele>1200</ele>
        <time>2018-07-21T11:58:24.000Z</time>
      </trkpt>
      <trkpt lat="43.96733" lon="7.10972">
        <ele>1197</ele>
        <time>2018-07-21T11:58:30.000Z</time>
      </trkpt>
      <trkpt lat="43.96715" lon="7.10965">
        <ele>1195</ele>
        <time>2018-07-21T11:58:36.000Z</time>
      </trkpt>
      <trkpt lat="43.96697" lon="7.10955">
        <ele>1193</ele>
        <time>2018-07-21T11:58:42.000Z</time>
      </trkpt>
      <trkpt lat="43.96683" lon="7.10949">
        <ele>1192</ele>
        <time>2018-07-21T11:58:47.000Z</time>
      </trkpt>
      <trkpt lat="43.96669" lon="7.10957">
        <ele>1194</ele>
        <time>2018-07-21T11:58:52.000Z</time>
      </trkpt>
      <trkpt lat="43.96657" lon="7.10972">
        <ele>1201</ele>
        <time>2018-07-21T11:58:56.000Z</time>
      </trkpt>
      <trkpt lat="43.96645" lon="7.10983">
        <ele>1203</ele>
        <time>2018-07-21T11:59:00.000Z</time>
      </trkpt>
      <trkpt lat="43.96629" lon="7.1098">
        <ele>1202</ele>
        <time>2018-07-21T11:59:04.000Z</time>
      </trkpt>
      <trkpt lat="43.96625" lon="7.1098">
        <ele>1202</ele>
        <time>2018-07-21T11:59:05.000Z</time>
      </trkpt>
      <trkpt lat="43.96621" lon="7.10978">
        <ele>1202</ele>
        <time>2018-07-21T11:59:06.000Z</time>
      </trkpt>
      <trkpt lat="43.96616" lon="7.10977">
        <ele>1202</ele>
        <time>2018-07-21T11:59:07.000Z</time>
      </trkpt>
      <trkpt lat="43.96608" lon="7.10975">
        <ele>1202</ele>
        <time>2018-07-21T11:59:09.000Z</time>
      </trkpt>
      <trkpt lat="43.96595" lon="7.10968">
        <ele>1201</ele>
        <time>2018-07-21T11:59:13.000Z</time>
      </trkpt>
      <trkpt lat="43.96579" lon="7.10959">
        <ele>1199</ele>
        <time>2018-07-21T11:59:18.000Z</time>
      </trkpt>
      <trkpt lat="43.96556" lon="7.10952">
        <ele>1197</ele>
        <time>2018-07-21T11:59:25.000Z</time>
      </trkpt>
      <trkpt lat="43.96545" lon="7.10949">
        <ele>1196</ele>
        <time>2018-07-21T11:59:28.000Z</time>
      </trkpt>
      <trkpt lat="43.96534" lon="7.1095">
        <ele>1197</ele>
        <time>2018-07-21T11:59:31.000Z</time>
      </trkpt>
      <trkpt lat="43.96522" lon="7.10956">
        <ele>1198</ele>
        <time>2018-07-21T11:59:36.000Z</time>
      </trkpt>
      <trkpt lat="43.96515" lon="7.10965">
        <ele>1201</ele>
        <time>2018-07-21T11:59:41.000Z</time>
      </trkpt>
      <trkpt lat="43.96507" lon="7.1097">
        <ele>1203</ele>
        <time>2018-07-21T11:59:45.000Z</time>
      </trkpt>
      <trkpt lat="43.96504" lon="7.10969">
        <ele>1203</ele>
        <time>2018-07-21T11:59:47.000Z</time>
      </trkpt>
      <trkpt lat="43.965" lon="7.10969">
        <ele>1208</ele>
        <time>2018-07-21T11:59:50.000Z</time>
      </trkpt>
      <trkpt lat="43.96491" lon="7.10969">
        <ele>1208</ele>
        <time>2018-07-21T11:59:55.000Z</time>
      </trkpt>
      <trkpt lat="43.96484" lon="7.10967">
        <ele>1208</ele>
        <time>2018-07-21T11:59:59.000Z</time>
      </trkpt>
      <trkpt lat="43.96481" lon="7.10967">
        <ele>1208</ele>
        <time>2018-07-21T12:00:01.000Z</time>
      </trkpt>
      <trkpt lat="43.9648" lon="7.10966">
        <ele>1208</ele>
        <time>2018-07-21T12:00:06.000Z</time>
      </trkpt>
      <trkpt lat="43.96477" lon="7.10963">
        <ele>1207</ele>
        <time>2018-07-21T12:00:12.000Z</time>
      </trkpt>
      <trkpt lat="43.96472" lon="7.10957">
        <ele>1206</ele>
        <time>2018-07-21T12:00:16.000Z</time>
      </trkpt>
      <trkpt lat="43.96465" lon="7.1095">
        <ele>1205</ele>
        <time>2018-07-21T12:00:21.000Z</time>
      </trkpt>
      <trkpt lat="43.96461" lon="7.10946">
        <ele>1205</ele>
        <time>2018-07-21T12:00:24.000Z</time>
      </trkpt>
      <trkpt lat="43.96459" lon="7.10942">
        <ele>1204</ele>
        <time>2018-07-21T12:00:26.000Z</time>
      </trkpt>
      <trkpt lat="43.96451" lon="7.10932">
        <ele>1203</ele>
        <time>2018-07-21T12:00:30.000Z</time>
      </trkpt>
      <trkpt lat="43.96445" lon="7.10928">
        <ele>1203</ele>
        <time>2018-07-21T12:00:32.000Z</time>
      </trkpt>
      <trkpt lat="43.9643" lon="7.10919">
        <ele>1201</ele>
        <time>2018-07-21T12:00:37.000Z</time>
      </trkpt>
      <trkpt lat="43.96412" lon="7.10907">
        <ele>1197</ele>
        <time>2018-07-21T12:00:43.000Z</time>
      </trkpt>
      <trkpt lat="43.96404" lon="7.10903">
        <ele>1196</ele>
        <time>2018-07-21T12:00:46.000Z</time>
      </trkpt>
      <trkpt lat="43.96401" lon="7.10902">
        <ele>1196</ele>
        <time>2018-07-21T12:00:48.000Z</time>
      </trkpt>
      <trkpt lat="43.96398" lon="7.10899">
        <ele>1196</ele>
        <time>2018-07-21T12:00:54.000Z</time>
      </trkpt>
      <trkpt lat="43.96393" lon="7.10896">
        <ele>1196</ele>
        <time>2018-07-21T12:01:00.000Z</time>
      </trkpt>
      <trkpt lat="43.96388" lon="7.10891">
        <ele>1196</ele>
        <time>2018-07-21T12:01:07.000Z</time>
      </trkpt>
      <trkpt lat="43.96385" lon="7.10889">
        <ele>1196</ele>
        <time>2018-07-21T12:01:13.000Z</time>
      </trkpt>
      <trkpt lat="43.96378" lon="7.10883">
        <ele>1195</ele>
        <time>2018-07-21T12:01:17.000Z</time>
      </trkpt>
      <trkpt lat="43.96364" lon="7.10871">
        <ele>1195</ele>
        <time>2018-07-21T12:01:24.000Z</time>
      </trkpt>
      <trkpt lat="43.96351" lon="7.10857">
        <ele>1194</ele>
        <time>2018-07-21T12:01:29.000Z</time>
      </trkpt>
      <trkpt lat="43.96349" lon="7.10855">
        <ele>1194</ele>
        <time>2018-07-21T12:01:30.000Z</time>
      </trkpt>
      <trkpt lat="43.96338" lon="7.10843">
        <ele>1193</ele>
        <time>2018-07-21T12:01:35.000Z</time>
      </trkpt>
      <trkpt lat="43.9633" lon="7.10834">
        <ele>1196</ele>
        <time>2018-07-21T12:01:38.000Z</time>
      </trkpt>
      <trkpt lat="43.96328" lon="7.10832">
        <ele>1192</ele>
        <time>2018-07-21T12:01:39.000Z</time>
      </trkpt>
      <trkpt lat="43.96316" lon="7.10818">
        <ele>1192</ele>
        <time>2018-07-21T12:01:44.000Z</time>
      </trkpt>
      <trkpt lat="43.96306" lon="7.10807">
        <ele>1191</ele>
        <time>2018-07-21T12:01:48.000Z</time>
      </trkpt>
      <trkpt lat="43.96299" lon="7.10803">
        <ele>1192</ele>
        <time>2018-07-21T12:01:50.000Z</time>
      </trkpt>
      <trkpt lat="43.96281" lon="7.10797">
        <ele>1194</ele>
        <time>2018-07-21T12:01:55.000Z</time>
      </trkpt>
      <trkpt lat="43.96275" lon="7.10793">
        <ele>1195</ele>
        <time>2018-07-21T12:01:57.000Z</time>
      </trkpt>
      <trkpt lat="43.96269" lon="7.10788">
        <ele>1194</ele>
        <time>2018-07-21T12:01:59.000Z</time>
      </trkpt>
      <trkpt lat="43.96263" lon="7.10781">
        <ele>1193</ele>
        <time>2018-07-21T12:02:01.000Z</time>
      </trkpt>
      <trkpt lat="43.96258" lon="7.10776">
        <ele>1193</ele>
        <time>2018-07-21T12:02:03.000Z</time>
      </trkpt>
      <trkpt lat="43.9625" lon="7.1076">
        <ele>1200</ele>
        <time>2018-07-21T12:02:08.000Z</time>
      </trkpt>
      <trkpt lat="43.96243" lon="7.10748">
        <ele>1191</ele>
        <time>2018-07-21T12:02:12.000Z</time>
      </trkpt>
      <trkpt lat="43.96237" lon="7.10736">
        <ele>1193</ele>
        <time>2018-07-21T12:02:16.000Z</time>
      </trkpt>
      <trkpt lat="43.96228" lon="7.10715">
        <ele>1192</ele>
        <time>2018-07-21T12:02:22.000Z</time>
      </trkpt>
      <trkpt lat="43.9622" lon="7.10693">
        <ele>1190</ele>
        <time>2018-07-21T12:02:27.000Z</time>
      </trkpt>
      <trkpt lat="43.96215" lon="7.10684">
        <ele>1190</ele>
        <time>2018-07-21T12:02:30.000Z</time>
      </trkpt>
      <trkpt lat="43.96213" lon="7.10678">
        <ele>1190</ele>
        <time>2018-07-21T12:02:32.000Z</time>
      </trkpt>
      <trkpt lat="43.96208" lon="7.10667">
        <ele>1191</ele>
        <time>2018-07-21T12:02:36.000Z</time>
      </trkpt>
      <trkpt lat="43.96196" lon="7.10649">
        <ele>1175</ele>
        <time>2018-07-21T12:02:41.000Z</time>
      </trkpt>
      <trkpt lat="43.96187" lon="7.10639">
        <ele>1175</ele>
        <time>2018-07-21T12:02:44.000Z</time>
      </trkpt>
      <trkpt lat="43.96178" lon="7.10631">
        <ele>1174</ele>
        <time>2018-07-21T12:02:47.000Z</time>
      </trkpt>
      <trkpt lat="43.9616" lon="7.10618">
        <ele>1188</ele>
        <time>2018-07-21T12:02:52.000Z</time>
      </trkpt>
      <trkpt lat="43.96156" lon="7.10616">
        <ele>1188</ele>
        <time>2018-07-21T12:02:53.000Z</time>
      </trkpt>
      <trkpt lat="43.96134" lon="7.10606">
        <ele>1189</ele>
        <time>2018-07-21T12:02:59.000Z</time>
      </trkpt>
      <trkpt lat="43.9613" lon="7.10604">
        <ele>1189</ele>
        <time>2018-07-21T12:03:00.000Z</time>
      </trkpt>
      <trkpt lat="43.96126" lon="7.10601">
        <ele>1189</ele>
        <time>2018-07-21T12:03:01.000Z</time>
      </trkpt>
      <trkpt lat="43.9611" lon="7.10592">
        <ele>1190</ele>
        <time>2018-07-21T12:03:05.000Z</time>
      </trkpt>
      <trkpt lat="43.96103" lon="7.10587">
        <ele>1190</ele>
        <time>2018-07-21T12:03:07.000Z</time>
      </trkpt>
      <trkpt lat="43.96092" lon="7.10577">
        <ele>1178</ele>
        <time>2018-07-21T12:03:10.000Z</time>
      </trkpt>
      <trkpt lat="43.9608" lon="7.10569">
        <ele>1180</ele>
        <time>2018-07-21T12:03:14.000Z</time>
      </trkpt>
      <trkpt lat="43.96064" lon="7.10564">
        <ele>1176</ele>
        <time>2018-07-21T12:03:19.000Z</time>
      </trkpt>
      <trkpt lat="43.9604" lon="7.10555">
        <ele>1173</ele>
        <time>2018-07-21T12:03:25.000Z</time>
      </trkpt>
      <trkpt lat="43.96036" lon="7.10552">
        <ele>1173</ele>
        <time>2018-07-21T12:03:26.000Z</time>
      </trkpt>
      <trkpt lat="43.96031" lon="7.10549">
        <ele>1173</ele>
        <time>2018-07-21T12:03:27.000Z</time>
      </trkpt>
      <trkpt lat="43.96018" lon="7.10539">
        <ele>1172</ele>
        <time>2018-07-21T12:03:30.000Z</time>
      </trkpt>
      <trkpt lat="43.96014" lon="7.10536">
        <ele>1171</ele>
        <time>2018-07-21T12:03:31.000Z</time>
      </trkpt>
      <trkpt lat="43.96" lon="7.10524">
        <ele>1161</ele>
        <time>2018-07-21T12:03:35.000Z</time>
      </trkpt>
      <trkpt lat="43.95995" lon="7.10519">
        <ele>1161</ele>
        <time>2018-07-21T12:03:36.000Z</time>
      </trkpt>
      <trkpt lat="43.95988" lon="7.10509">
        <ele>1161</ele>
        <time>2018-07-21T12:03:38.000Z</time>
      </trkpt>
      <trkpt lat="43.95984" lon="7.10506">
        <ele>1160</ele>
        <time>2018-07-21T12:03:39.000Z</time>
      </trkpt>
      <trkpt lat="43.95972" lon="7.10498">
        <ele>1152</ele>
        <time>2018-07-21T12:03:43.000Z</time>
      </trkpt>
      <trkpt lat="43.95972" lon="7.10489">
        <ele>1152</ele>
        <time>2018-07-21T12:03:46.000Z</time>
      </trkpt>
      <trkpt lat="43.95965" lon="7.10484">
        <ele>1149</ele>
        <time>2018-07-21T12:03:49.000Z</time>
      </trkpt>
      <trkpt lat="43.95959" lon="7.10478">
        <ele>1148</ele>
        <time>2018-07-21T12:03:51.000Z</time>
      </trkpt>
      <trkpt lat="43.95957" lon="7.10477">
        <ele>1148</ele>
        <time>2018-07-21T12:03:52.000Z</time>
      </trkpt>
      <trkpt lat="43.95955" lon="7.10478">
        <ele>1147</ele>
        <time>2018-07-21T12:03:53.000Z</time>
      </trkpt>
      <trkpt lat="43.95954" lon="7.10486">
        <ele>1147</ele>
        <time>2018-07-21T12:03:55.000Z</time>
      </trkpt>
      <trkpt lat="43.95953" lon="7.10499">
        <ele>1148</ele>
        <time>2018-07-21T12:03:57.000Z</time>
      </trkpt>
      <trkpt lat="43.95954" lon="7.10506">
        <ele>1151</ele>
        <time>2018-07-21T12:03:58.000Z</time>
      </trkpt>
      <trkpt lat="43.95954" lon="7.10514">
        <ele>1152</ele>
        <time>2018-07-21T12:03:59.000Z</time>
      </trkpt>
      <trkpt lat="43.95955" lon="7.10526">
        <ele>1152</ele>
        <time>2018-07-21T12:04:01.000Z</time>
      </trkpt>
      <trkpt lat="43.95955" lon="7.10541">
        <ele>1152</ele>
        <time>2018-07-21T12:04:04.000Z</time>
      </trkpt>
      <trkpt lat="43.95955" lon="7.10552">
        <ele>1152</ele>
        <time>2018-07-21T12:04:06.000Z</time>
      </trkpt>
      <trkpt lat="43.95955" lon="7.10559">
        <ele>1152</ele>
        <time>2018-07-21T12:04:07.000Z</time>
      </trkpt>
      <trkpt lat="43.95955" lon="7.1057">
        <ele>1152</ele>
        <time>2018-07-21T12:04:09.000Z</time>
      </trkpt>
      <trkpt lat="43.95954" lon="7.10576">
        <ele>1151</ele>
        <time>2018-07-21T12:04:10.000Z</time>
      </trkpt>
      <trkpt lat="43.95954" lon="7.10581">
        <ele>1151</ele>
        <time>2018-07-21T12:04:11.000Z</time>
      </trkpt>
      <trkpt lat="43.95952" lon="7.10596">
        <ele>1152</ele>
        <time>2018-07-21T12:04:14.000Z</time>
      </trkpt>
      <trkpt lat="43.95952" lon="7.10601">
        <ele>1152</ele>
        <time>2018-07-21T12:04:15.000Z</time>
      </trkpt>
      <trkpt lat="43.95951" lon="7.10607">
        <ele>1153</ele>
        <time>2018-07-21T12:04:16.000Z</time>
      </trkpt>
      <trkpt lat="43.95951" lon="7.10614">
        <ele>1153</ele>
        <time>2018-07-21T12:04:17.000Z</time>
      </trkpt>
      <trkpt lat="43.9595" lon="7.10621">
        <ele>1153</ele>
        <time>2018-07-21T12:04:18.000Z</time>
      </trkpt>
      <trkpt lat="43.9595" lon="7.10628">
        <ele>1153</ele>
        <time>2018-07-21T12:04:19.000Z</time>
      </trkpt>
      <trkpt lat="43.95949" lon="7.10635">
        <ele>1153</ele>
        <time>2018-07-21T12:04:20.000Z</time>
      </trkpt>
      <trkpt lat="43.95948" lon="7.10643">
        <ele>1152</ele>
        <time>2018-07-21T12:04:21.000Z</time>
      </trkpt>
      <trkpt lat="43.95945" lon="7.10649">
        <ele>1151</ele>
        <time>2018-07-21T12:04:22.000Z</time>
      </trkpt>
      <trkpt lat="43.95942" lon="7.10655">
        <ele>1150</ele>
        <time>2018-07-21T12:04:23.000Z</time>
      </trkpt>
      <trkpt lat="43.95939" lon="7.10663">
        <ele>1148</ele>
        <time>2018-07-21T12:04:24.000Z</time>
      </trkpt>
      <trkpt lat="43.95932" lon="7.10677">
        <ele>1145</ele>
        <time>2018-07-21T12:04:26.000Z</time>
      </trkpt>
      <trkpt lat="43.95923" lon="7.10692">
        <ele>1146</ele>
        <time>2018-07-21T12:04:28.000Z</time>
      </trkpt>
      <trkpt lat="43.95919" lon="7.107">
        <ele>1146</ele>
        <time>2018-07-21T12:04:29.000Z</time>
      </trkpt>
      <trkpt lat="43.95914" lon="7.10706">
        <ele>1121</ele>
        <time>2018-07-21T12:04:30.000Z</time>
      </trkpt>
      <trkpt lat="43.9591" lon="7.10712">
        <ele>1121</ele>
        <time>2018-07-21T12:04:31.000Z</time>
      </trkpt>
      <trkpt lat="43.95906" lon="7.10718">
        <ele>1121</ele>
        <time>2018-07-21T12:04:32.000Z</time>
      </trkpt>
      <trkpt lat="43.95903" lon="7.10722">
        <ele>1121</ele>
        <time>2018-07-21T12:04:33.000Z</time>
      </trkpt>
      <trkpt lat="43.95903" lon="7.10729">
        <ele>1122</ele>
        <time>2018-07-21T12:04:35.000Z</time>
      </trkpt>
      <trkpt lat="43.95905" lon="7.10734">
        <ele>1124</ele>
        <time>2018-07-21T12:04:36.000Z</time>
      </trkpt>
      <trkpt lat="43.95911" lon="7.10743">
        <ele>1129</ele>
        <time>2018-07-21T12:04:38.000Z</time>
      </trkpt>
      <trkpt lat="43.95915" lon="7.10748">
        <ele>1134</ele>
        <time>2018-07-21T12:04:39.000Z</time>
      </trkpt>
      <trkpt lat="43.95922" lon="7.10758">
        <ele>1135</ele>
        <time>2018-07-21T12:04:41.000Z</time>
      </trkpt>
      <trkpt lat="43.95926" lon="7.10765">
        <ele>1134</ele>
        <time>2018-07-21T12:04:42.000Z</time>
      </trkpt>
      <trkpt lat="43.95929" lon="7.1077">
        <ele>1133</ele>
        <time>2018-07-21T12:04:43.000Z</time>
      </trkpt>
      <trkpt lat="43.95933" lon="7.10775">
        <ele>1133</ele>
        <time>2018-07-21T12:04:44.000Z</time>
      </trkpt>
      <trkpt lat="43.95935" lon="7.10779">
        <ele>1132</ele>
        <time>2018-07-21T12:04:45.000Z</time>
      </trkpt>
      <trkpt lat="43.95937" lon="7.10782">
        <ele>1132</ele>
        <time>2018-07-21T12:04:46.000Z</time>
      </trkpt>
      <trkpt lat="43.95936" lon="7.10784">
        <ele>1131</ele>
        <time>2018-07-21T12:04:47.000Z</time>
      </trkpt>
      <trkpt lat="43.95932" lon="7.10782">
        <ele>1131</ele>
        <time>2018-07-21T12:04:49.000Z</time>
      </trkpt>
      <trkpt lat="43.95928" lon="7.1078">
        <ele>1131</ele>
        <time>2018-07-21T12:04:50.000Z</time>
      </trkpt>
      <trkpt lat="43.95918" lon="7.10777">
        <ele>1131</ele>
        <time>2018-07-21T12:04:52.000Z</time>
      </trkpt>
      <trkpt lat="43.95907" lon="7.10779">
        <ele>1114</ele>
        <time>2018-07-21T12:04:54.000Z</time>
      </trkpt>
      <trkpt lat="43.95896" lon="7.10781">
        <ele>1111</ele>
        <time>2018-07-21T12:04:56.000Z</time>
      </trkpt>
      <trkpt lat="43.9589" lon="7.10782">
        <ele>1110</ele>
        <time>2018-07-21T12:04:57.000Z</time>
      </trkpt>
      <trkpt lat="43.95884" lon="7.10783">
        <ele>1108</ele>
        <time>2018-07-21T12:04:58.000Z</time>
      </trkpt>
      <trkpt lat="43.95878" lon="7.10785">
        <ele>1107</ele>
        <time>2018-07-21T12:04:59.000Z</time>
      </trkpt>
      <trkpt lat="43.95865" lon="7.10787">
        <ele>1104</ele>
        <time>2018-07-21T12:05:01.000Z</time>
      </trkpt>
      <trkpt lat="43.95859" lon="7.10787">
        <ele>1103</ele>
        <time>2018-07-21T12:05:02.000Z</time>
      </trkpt>
      <trkpt lat="43.95847" lon="7.10789">
        <ele>1102</ele>
        <time>2018-07-21T12:05:04.000Z</time>
      </trkpt>
      <trkpt lat="43.95841" lon="7.10788">
        <ele>1101</ele>
        <time>2018-07-21T12:05:05.000Z</time>
      </trkpt>
      <trkpt lat="43.95835" lon="7.10787">
        <ele>1101</ele>
        <time>2018-07-21T12:05:06.000Z</time>
      </trkpt>
      <trkpt lat="43.9583" lon="7.10786">
        <ele>1087</ele>
        <time>2018-07-21T12:05:07.000Z</time>
      </trkpt>
      <trkpt lat="43.95826" lon="7.10785">
        <ele>1087</ele>
        <time>2018-07-21T12:05:08.000Z</time>
      </trkpt>
      <trkpt lat="43.95816" lon="7.10782">
        <ele>1087</ele>
        <time>2018-07-21T12:05:10.000Z</time>
      </trkpt>
      <trkpt lat="43.95804" lon="7.10777">
        <ele>1086</ele>
        <time>2018-07-21T12:05:13.000Z</time>
      </trkpt>
      <trkpt lat="43.95799" lon="7.10776">
        <ele>1085</ele>
        <time>2018-07-21T12:05:14.000Z</time>
      </trkpt>
      <trkpt lat="43.95794" lon="7.10772">
        <ele>1085</ele>
        <time>2018-07-21T12:05:16.000Z</time>
      </trkpt>
      <trkpt lat="43.95793" lon="7.1077">
        <ele>1085</ele>
        <time>2018-07-21T12:05:17.000Z</time>
      </trkpt>
      <trkpt lat="43.9579" lon="7.1077">
        <ele>1084</ele>
        <time>2018-07-21T12:05:19.000Z</time>
      </trkpt>
      <trkpt lat="43.95788" lon="7.1077">
        <ele>1084</ele>
        <time>2018-07-21T12:05:20.000Z</time>
      </trkpt>
      <trkpt lat="43.95786" lon="7.10769">
        <ele>1083</ele>
        <time>2018-07-21T12:05:21.000Z</time>
      </trkpt>
      <trkpt lat="43.95784" lon="7.10767">
        <ele>1083</ele>
        <time>2018-07-21T12:05:22.000Z</time>
      </trkpt>
      <trkpt lat="43.95783" lon="7.10765">
        <ele>1083</ele>
        <time>2018-07-21T12:05:23.000Z</time>
      </trkpt>
      <trkpt lat="43.9578" lon="7.10761">
        <ele>1083</ele>
        <time>2018-07-21T12:05:25.000Z</time>
      </trkpt>
      <trkpt lat="43.95781" lon="7.10759">
        <ele>1083</ele>
        <time>2018-07-21T12:05:27.000Z</time>
      </trkpt>
      <trkpt lat="43.95781" lon="7.10759">
        <ele>1083</ele>
        <time>2018-07-21T12:05:29.000Z</time>
      </trkpt>
      <trkpt lat="43.95781" lon="7.10758">
        <ele>1083</ele>
        <time>2018-07-21T12:05:35.000Z</time>
      </trkpt>
      <trkpt lat="43.95785" lon="7.10754">
        <ele>1084</ele>
        <time>2018-07-21T12:05:44.000Z</time>
      </trkpt>
      <trkpt lat="43.95784" lon="7.10754">
        <ele>1083</ele>
        <time>2018-07-21T12:05:50.000Z</time>
      </trkpt>
      <trkpt lat="43.95784" lon="7.10753">
        <ele>1083</ele>
        <time>2018-07-21T12:05:52.000Z</time>
      </trkpt>
      <trkpt lat="43.95785" lon="7.10753">
        <ele>1084</ele>
        <time>2018-07-21T12:05:56.000Z</time>
      </trkpt>
      <trkpt lat="43.95785" lon="7.10749">
        <ele>1080</ele>
        <time>2018-07-21T12:06:01.000Z</time>
      </trkpt>
      <trkpt lat="43.95784" lon="7.10743">
        <ele>1080</ele>
        <time>2018-07-21T12:06:04.000Z</time>
      </trkpt>
      <trkpt lat="43.95782" lon="7.10743">
        <ele>1079</ele>
        <time>2018-07-21T12:06:06.000Z</time>
      </trkpt>
      <trkpt lat="43.95777" lon="7.10745">
        <ele>1078</ele>
        <time>2018-07-21T12:06:08.000Z</time>
      </trkpt>
      <trkpt lat="43.9577" lon="7.10751">
        <ele>1081</ele>
        <time>2018-07-21T12:06:10.000Z</time>
      </trkpt>
      <trkpt lat="43.95767" lon="7.10754">
        <ele>1080</ele>
        <time>2018-07-21T12:06:11.000Z</time>
      </trkpt>
      <trkpt lat="43.95764" lon="7.10759">
        <ele>1080</ele>
        <time>2018-07-21T12:06:12.000Z</time>
      </trkpt>
      <trkpt lat="43.95757" lon="7.10764">
        <ele>1079</ele>
        <time>2018-07-21T12:06:14.000Z</time>
      </trkpt>
      <trkpt lat="43.95748" lon="7.10772">
        <ele>1070</ele>
        <time>2018-07-21T12:06:16.000Z</time>
      </trkpt>
      <trkpt lat="43.95742" lon="7.10777">
        <ele>1069</ele>
        <time>2018-07-21T12:06:17.000Z</time>
      </trkpt>
      <trkpt lat="43.95736" lon="7.1078">
        <ele>1068</ele>
        <time>2018-07-21T12:06:18.000Z</time>
      </trkpt>
      <trkpt lat="43.95721" lon="7.1079">
        <ele>1066</ele>
        <time>2018-07-21T12:06:20.000Z</time>
      </trkpt>
      <trkpt lat="43.95714" lon="7.10793">
        <ele>1065</ele>
        <time>2018-07-21T12:06:21.000Z</time>
      </trkpt>
      <trkpt lat="43.95707" lon="7.10795">
        <ele>1064</ele>
        <time>2018-07-21T12:06:22.000Z</time>
      </trkpt>
      <trkpt lat="43.95696" lon="7.10797">
        <ele>1063</ele>
        <time>2018-07-21T12:06:24.000Z</time>
      </trkpt>
      <trkpt lat="43.95692" lon="7.10799">
        <ele>1063</ele>
        <time>2018-07-21T12:06:25.000Z</time>
      </trkpt>
      <trkpt lat="43.95688" lon="7.108">
        <ele>1063</ele>
        <time>2018-07-21T12:06:26.000Z</time>
      </trkpt>
      <trkpt lat="43.95683" lon="7.10801">
        <ele>1062</ele>
        <time>2018-07-21T12:06:27.000Z</time>
      </trkpt>
      <trkpt lat="43.9568" lon="7.10802">
        <ele>1062</ele>
        <time>2018-07-21T12:06:28.000Z</time>
      </trkpt>
      <trkpt lat="43.95678" lon="7.10803">
        <ele>1062</ele>
        <time>2018-07-21T12:06:30.000Z</time>
      </trkpt>
      <trkpt lat="43.95676" lon="7.10804">
        <ele>1062</ele>
        <time>2018-07-21T12:06:31.000Z</time>
      </trkpt>
      <trkpt lat="43.95675" lon="7.10805">
        <ele>1062</ele>
        <time>2018-07-21T12:06:33.000Z</time>
      </trkpt>
      <trkpt lat="43.9567" lon="7.10808">
        <ele>1062</ele>
        <time>2018-07-21T12:06:35.000Z</time>
      </trkpt>
      <trkpt lat="43.95662" lon="7.1081">
        <ele>1047</ele>
        <time>2018-07-21T12:06:38.000Z</time>
      </trkpt>
      <trkpt lat="43.95658" lon="7.10812">
        <ele>1047</ele>
        <time>2018-07-21T12:06:40.000Z</time>
      </trkpt>
      <trkpt lat="43.95653" lon="7.10815">
        <ele>1047</ele>
        <time>2018-07-21T12:06:42.000Z</time>
      </trkpt>
      <trkpt lat="43.95647" lon="7.10813">
        <ele>1045</ele>
        <time>2018-07-21T12:06:44.000Z</time>
      </trkpt>
      <trkpt lat="43.95643" lon="7.10813">
        <ele>1044</ele>
        <time>2018-07-21T12:06:46.000Z</time>
      </trkpt>
      <trkpt lat="43.95642" lon="7.10818">
        <ele>1044</ele>
        <time>2018-07-21T12:06:48.000Z</time>
      </trkpt>
      <trkpt lat="43.95643" lon="7.1082">
        <ele>1045</ele>
        <time>2018-07-21T12:06:49.000Z</time>
      </trkpt>
      <trkpt lat="43.95645" lon="7.10826">
        <ele>1046</ele>
        <time>2018-07-21T12:06:51.000Z</time>
      </trkpt>
      <trkpt lat="43.95645" lon="7.10829">
        <ele>1047</ele>
        <time>2018-07-21T12:06:52.000Z</time>
      </trkpt>
      <trkpt lat="43.95644" lon="7.10833">
        <ele>1046</ele>
        <time>2018-07-21T12:06:53.000Z</time>
      </trkpt>
      <trkpt lat="43.95642" lon="7.10834">
        <ele>1044</ele>
        <time>2018-07-21T12:06:54.000Z</time>
      </trkpt>
      <trkpt lat="43.9564" lon="7.10833">
        <ele>1043</ele>
        <time>2018-07-21T12:06:55.000Z</time>
      </trkpt>
      <trkpt lat="43.95638" lon="7.10833">
        <ele>1044</ele>
        <time>2018-07-21T12:06:56.000Z</time>
      </trkpt>
      <trkpt lat="43.95632" lon="7.10831">
        <ele>1042</ele>
        <time>2018-07-21T12:06:58.000Z</time>
      </trkpt>
      <trkpt lat="43.95628" lon="7.10829">
        <ele>1041</ele>
        <time>2018-07-21T12:06:59.000Z</time>
      </trkpt>
      <trkpt lat="43.95626" lon="7.10828">
        <ele>1040</ele>
        <time>2018-07-21T12:07:00.000Z</time>
      </trkpt>
      <trkpt lat="43.95624" lon="7.10827">
        <ele>1039</ele>
        <time>2018-07-21T12:07:01.000Z</time>
      </trkpt>
      <trkpt lat="43.95623" lon="7.10828">
        <ele>1039</ele>
        <time>2018-07-21T12:07:02.000Z</time>
      </trkpt>
      <trkpt lat="43.95624" lon="7.10834">
        <ele>1038</ele>
        <time>2018-07-21T12:07:05.000Z</time>
      </trkpt>
      <trkpt lat="43.95624" lon="7.10837">
        <ele>1038</ele>
        <time>2018-07-21T12:07:06.000Z</time>
      </trkpt>
      <trkpt lat="43.95624" lon="7.10841">
        <ele>1038</ele>
        <time>2018-07-21T12:07:07.000Z</time>
      </trkpt>
      <trkpt lat="43.95623" lon="7.10843">
        <ele>1038</ele>
        <time>2018-07-21T12:07:08.000Z</time>
      </trkpt>
      <trkpt lat="43.95621" lon="7.10843">
        <ele>1037</ele>
        <time>2018-07-21T12:07:10.000Z</time>
      </trkpt>
      <trkpt lat="43.9562" lon="7.10842">
        <ele>1037</ele>
        <time>2018-07-21T12:07:11.000Z</time>
      </trkpt>
      <trkpt lat="43.95618" lon="7.10841">
        <ele>1037</ele>
        <time>2018-07-21T12:07:12.000Z</time>
      </trkpt>
      <trkpt lat="43.95616" lon="7.1084">
        <ele>1036</ele>
        <time>2018-07-21T12:07:13.000Z</time>
      </trkpt>
      <trkpt lat="43.95615" lon="7.10837">
        <ele>1036</ele>
        <time>2018-07-21T12:07:14.000Z</time>
      </trkpt>
      <trkpt lat="43.95613" lon="7.10831">
        <ele>1037</ele>
        <time>2018-07-21T12:07:16.000Z</time>
      </trkpt>
      <trkpt lat="43.95611" lon="7.10832">
        <ele>1036</ele>
        <time>2018-07-21T12:07:18.000Z</time>
      </trkpt>
      <trkpt lat="43.95611" lon="7.10835">
        <ele>1035</ele>
        <time>2018-07-21T12:07:19.000Z</time>
      </trkpt>
      <trkpt lat="43.95611" lon="7.10839">
        <ele>1035</ele>
        <time>2018-07-21T12:07:20.000Z</time>
      </trkpt>
      <trkpt lat="43.9561" lon="7.10843">
        <ele>1035</ele>
        <time>2018-07-21T12:07:21.000Z</time>
      </trkpt>
      <trkpt lat="43.95608" lon="7.10846">
        <ele>1034</ele>
        <time>2018-07-21T12:07:22.000Z</time>
      </trkpt>
      <trkpt lat="43.95606" lon="7.10848">
        <ele>1034</ele>
        <time>2018-07-21T12:07:23.000Z</time>
      </trkpt>
      <trkpt lat="43.95604" lon="7.10847">
        <ele>1034</ele>
        <time>2018-07-21T12:07:24.000Z</time>
      </trkpt>
      <trkpt lat="43.95602" lon="7.10845">
        <ele>1033</ele>
        <time>2018-07-21T12:07:25.000Z</time>
      </trkpt>
      <trkpt lat="43.95602" lon="7.10844">
        <ele>1033</ele>
        <time>2018-07-21T12:07:27.000Z</time>
      </trkpt>
      <trkpt lat="43.95601" lon="7.10846">
        <ele>1033</ele>
        <time>2018-07-21T12:07:29.000Z</time>
      </trkpt>
      <trkpt lat="43.95602" lon="7.10851">
        <ele>1033</ele>
        <time>2018-07-21T12:07:31.000Z</time>
      </trkpt>
      <trkpt lat="43.95603" lon="7.10857">
        <ele>1033</ele>
        <time>2018-07-21T12:07:33.000Z</time>
      </trkpt>
      <trkpt lat="43.95601" lon="7.10859">
        <ele>1033</ele>
        <time>2018-07-21T12:07:34.000Z</time>
      </trkpt>
      <trkpt lat="43.95594" lon="7.10857">
        <ele>1032</ele>
        <time>2018-07-21T12:07:37.000Z</time>
      </trkpt>
      <trkpt lat="43.95593" lon="7.10853">
        <ele>1032</ele>
        <time>2018-07-21T12:07:38.000Z</time>
      </trkpt>
      <trkpt lat="43.95591" lon="7.10849">
        <ele>1032</ele>
        <time>2018-07-21T12:07:39.000Z</time>
      </trkpt>
      <trkpt lat="43.95588" lon="7.10846">
        <ele>1032</ele>
        <time>2018-07-21T12:07:41.000Z</time>
      </trkpt>
      <trkpt lat="43.95586" lon="7.10846">
        <ele>1031</ele>
        <time>2018-07-21T12:07:42.000Z</time>
      </trkpt>
      <trkpt lat="43.95584" lon="7.10845">
        <ele>1031</ele>
        <time>2018-07-21T12:07:43.000Z</time>
      </trkpt>
      <trkpt lat="43.95581" lon="7.10845">
        <ele>1023</ele>
        <time>2018-07-21T12:07:44.000Z</time>
      </trkpt>
      <trkpt lat="43.95576" lon="7.10845">
        <ele>1022</ele>
        <time>2018-07-21T12:07:46.000Z</time>
      </trkpt>
      <trkpt lat="43.95573" lon="7.10847">
        <ele>1021</ele>
        <time>2018-07-21T12:07:47.000Z</time>
      </trkpt>
      <trkpt lat="43.95569" lon="7.1085">
        <ele>1019</ele>
        <time>2018-07-21T12:07:48.000Z</time>
      </trkpt>
      <trkpt lat="43.95558" lon="7.10858">
        <ele>1016</ele>
        <time>2018-07-21T12:07:50.000Z</time>
      </trkpt>
      <trkpt lat="43.95546" lon="7.10866">
        <ele>1014</ele>
        <time>2018-07-21T12:07:52.000Z</time>
      </trkpt>
      <trkpt lat="43.9554" lon="7.10871">
        <ele>1013</ele>
        <time>2018-07-21T12:07:53.000Z</time>
      </trkpt>
      <trkpt lat="43.95533" lon="7.10876">
        <ele>1012</ele>
        <time>2018-07-21T12:07:54.000Z</time>
      </trkpt>
      <trkpt lat="43.95526" lon="7.10881">
        <ele>1012</ele>
        <time>2018-07-21T12:07:55.000Z</time>
      </trkpt>
      <trkpt lat="43.9552" lon="7.10884">
        <ele>1011</ele>
        <time>2018-07-21T12:07:56.000Z</time>
      </trkpt>
      <trkpt lat="43.95513" lon="7.10887">
        <ele>1011</ele>
        <time>2018-07-21T12:07:57.000Z</time>
      </trkpt>
      <trkpt lat="43.95501" lon="7.1089">
        <ele>1011</ele>
        <time>2018-07-21T12:07:59.000Z</time>
      </trkpt>
      <trkpt lat="43.95496" lon="7.10892">
        <ele>999</ele>
        <time>2018-07-21T12:08:00.000Z</time>
      </trkpt>
      <trkpt lat="43.95482" lon="7.10903">
        <ele>999</ele>
        <time>2018-07-21T12:08:04.000Z</time>
      </trkpt>
      <trkpt lat="43.95479" lon="7.10907">
        <ele>999</ele>
        <time>2018-07-21T12:08:05.000Z</time>
      </trkpt>
      <trkpt lat="43.95466" lon="7.10919">
        <ele>1003</ele>
        <time>2018-07-21T12:08:09.000Z</time>
      </trkpt>
      <trkpt lat="43.95451" lon="7.1093">
        <ele>1000</ele>
        <time>2018-07-21T12:08:13.000Z</time>
      </trkpt>
      <trkpt lat="43.95442" lon="7.10936">
        <ele>999</ele>
        <time>2018-07-21T12:08:15.000Z</time>
      </trkpt>
      <trkpt lat="43.95431" lon="7.10942">
        <ele>999</ele>
        <time>2018-07-21T12:08:17.000Z</time>
      </trkpt>
      <trkpt lat="43.95427" lon="7.10944">
        <ele>998</ele>
        <time>2018-07-21T12:08:18.000Z</time>
      </trkpt>
      <trkpt lat="43.9542" lon="7.10953">
        <ele>998</ele>
        <time>2018-07-21T12:08:20.000Z</time>
      </trkpt>
      <trkpt lat="43.95416" lon="7.10957">
        <ele>992</ele>
        <time>2018-07-21T12:08:21.000Z</time>
      </trkpt>
      <trkpt lat="43.95412" lon="7.10958">
        <ele>991</ele>
        <time>2018-07-21T12:08:22.000Z</time>
      </trkpt>
      <trkpt lat="43.95408" lon="7.10958">
        <ele>991</ele>
        <time>2018-07-21T12:08:23.000Z</time>
      </trkpt>
      <trkpt lat="43.95399" lon="7.10966">
        <ele>991</ele>
        <time>2018-07-21T12:08:26.000Z</time>
      </trkpt>
      <trkpt lat="43.95396" lon="7.10968">
        <ele>991</ele>
        <time>2018-07-21T12:08:27.000Z</time>
      </trkpt>
      <trkpt lat="43.95389" lon="7.10975">
        <ele>991</ele>
        <time>2018-07-21T12:08:29.000Z</time>
      </trkpt>
      <trkpt lat="43.95385" lon="7.10979">
        <ele>991</ele>
        <time>2018-07-21T12:08:30.000Z</time>
      </trkpt>
      <trkpt lat="43.95379" lon="7.10981">
        <ele>991</ele>
        <time>2018-07-21T12:08:31.000Z</time>
      </trkpt>
      <trkpt lat="43.95375" lon="7.10984">
        <ele>991</ele>
        <time>2018-07-21T12:08:32.000Z</time>
      </trkpt>
      <trkpt lat="43.95366" lon="7.10992">
        <ele>991</ele>
        <time>2018-07-21T12:08:34.000Z</time>
      </trkpt>
      <trkpt lat="43.95362" lon="7.10994">
        <ele>991</ele>
        <time>2018-07-21T12:08:35.000Z</time>
      </trkpt>
      <trkpt lat="43.95358" lon="7.10996">
        <ele>991</ele>
        <time>2018-07-21T12:08:36.000Z</time>
      </trkpt>
      <trkpt lat="43.95355" lon="7.10994">
        <ele>991</ele>
        <time>2018-07-21T12:08:37.000Z</time>
      </trkpt>
      <trkpt lat="43.95352" lon="7.10989">
        <ele>991</ele>
        <time>2018-07-21T12:08:39.000Z</time>
      </trkpt>
      <trkpt lat="43.95349" lon="7.10991">
        <ele>991</ele>
        <time>2018-07-21T12:08:41.000Z</time>
      </trkpt>
      <trkpt lat="43.95347" lon="7.10994">
        <ele>992</ele>
        <time>2018-07-21T12:08:42.000Z</time>
      </trkpt>
      <trkpt lat="43.95345" lon="7.10998">
        <ele>992</ele>
        <time>2018-07-21T12:08:43.000Z</time>
      </trkpt>
      <trkpt lat="43.95338" lon="7.11001">
        <ele>992</ele>
        <time>2018-07-21T12:08:45.000Z</time>
      </trkpt>
      <trkpt lat="43.95334" lon="7.11004">
        <ele>992</ele>
        <time>2018-07-21T12:08:46.000Z</time>
      </trkpt>
      <trkpt lat="43.95331" lon="7.11008">
        <ele>990</ele>
        <time>2018-07-21T12:08:47.000Z</time>
      </trkpt>
      <trkpt lat="43.95322" lon="7.11017">
        <ele>987</ele>
        <time>2018-07-21T12:08:50.000Z</time>
      </trkpt>
      <trkpt lat="43.95319" lon="7.11022">
        <ele>986</ele>
        <time>2018-07-21T12:08:51.000Z</time>
      </trkpt>
      <trkpt lat="43.95315" lon="7.11026">
        <ele>985</ele>
        <time>2018-07-21T12:08:52.000Z</time>
      </trkpt>
      <trkpt lat="43.95313" lon="7.11031">
        <ele>984</ele>
        <time>2018-07-21T12:08:53.000Z</time>
      </trkpt>
      <trkpt lat="43.9531" lon="7.11035">
        <ele>984</ele>
        <time>2018-07-21T12:08:54.000Z</time>
      </trkpt>
      <trkpt lat="43.95307" lon="7.11039">
        <ele>983</ele>
        <time>2018-07-21T12:08:55.000Z</time>
      </trkpt>
      <trkpt lat="43.95305" lon="7.11044">
        <ele>982</ele>
        <time>2018-07-21T12:08:56.000Z</time>
      </trkpt>
      <trkpt lat="43.953" lon="7.11053">
        <ele>981</ele>
        <time>2018-07-21T12:08:58.000Z</time>
      </trkpt>
      <trkpt lat="43.95298" lon="7.11059">
        <ele>981</ele>
        <time>2018-07-21T12:08:59.000Z</time>
      </trkpt>
      <trkpt lat="43.95289" lon="7.11076">
        <ele>980</ele>
        <time>2018-07-21T12:09:02.000Z</time>
      </trkpt>
      <trkpt lat="43.95285" lon="7.11079">
        <ele>979</ele>
        <time>2018-07-21T12:09:03.000Z</time>
      </trkpt>
      <trkpt lat="43.95281" lon="7.11082">
        <ele>979</ele>
        <time>2018-07-21T12:09:04.000Z</time>
      </trkpt>
      <trkpt lat="43.95274" lon="7.11088">
        <ele>964</ele>
        <time>2018-07-21T12:09:06.000Z</time>
      </trkpt>
      <trkpt lat="43.95271" lon="7.11091">
        <ele>964</ele>
        <time>2018-07-21T12:09:07.000Z</time>
      </trkpt>
      <trkpt lat="43.95267" lon="7.11095">
        <ele>964</ele>
        <time>2018-07-21T12:09:08.000Z</time>
      </trkpt>
      <trkpt lat="43.95264" lon="7.11097">
        <ele>964</ele>
        <time>2018-07-21T12:09:09.000Z</time>
      </trkpt>
      <trkpt lat="43.95261" lon="7.11098">
        <ele>964</ele>
        <time>2018-07-21T12:09:10.000Z</time>
      </trkpt>
      <trkpt lat="43.95259" lon="7.11098">
        <ele>965</ele>
        <time>2018-07-21T12:09:11.000Z</time>
      </trkpt>
      <trkpt lat="43.95257" lon="7.111">
        <ele>965</ele>
        <time>2018-07-21T12:09:12.000Z</time>
      </trkpt>
      <trkpt lat="43.95255" lon="7.11102">
        <ele>964</ele>
        <time>2018-07-21T12:09:13.000Z</time>
      </trkpt>
      <trkpt lat="43.95254" lon="7.11104">
        <ele>963</ele>
        <time>2018-07-21T12:09:14.000Z</time>
      </trkpt>
      <trkpt lat="43.95252" lon="7.11105">
        <ele>963</ele>
        <time>2018-07-21T12:09:15.000Z</time>
      </trkpt>
      <trkpt lat="43.9525" lon="7.11107">
        <ele>958</ele>
        <time>2018-07-21T12:09:16.000Z</time>
      </trkpt>
      <trkpt lat="43.95247" lon="7.11107">
        <ele>958</ele>
        <time>2018-07-21T12:09:17.000Z</time>
      </trkpt>
      <trkpt lat="43.9524" lon="7.11111">
        <ele>956</ele>
        <time>2018-07-21T12:09:19.000Z</time>
      </trkpt>
      <trkpt lat="43.95237" lon="7.11112">
        <ele>955</ele>
        <time>2018-07-21T12:09:20.000Z</time>
      </trkpt>
      <trkpt lat="43.95233" lon="7.11114">
        <ele>954</ele>
        <time>2018-07-21T12:09:21.000Z</time>
      </trkpt>
      <trkpt lat="43.9523" lon="7.11116">
        <ele>953</ele>
        <time>2018-07-21T12:09:22.000Z</time>
      </trkpt>
      <trkpt lat="43.95227" lon="7.11118">
        <ele>952</ele>
        <time>2018-07-21T12:09:23.000Z</time>
      </trkpt>
      <trkpt lat="43.95223" lon="7.11119">
        <ele>951</ele>
        <time>2018-07-21T12:09:24.000Z</time>
      </trkpt>
      <trkpt lat="43.9522" lon="7.11119">
        <ele>951</ele>
        <time>2018-07-21T12:09:25.000Z</time>
      </trkpt>
      <trkpt lat="43.95217" lon="7.11121">
        <ele>951</ele>
        <time>2018-07-21T12:09:26.000Z</time>
      </trkpt>
      <trkpt lat="43.95211" lon="7.11125">
        <ele>949</ele>
        <time>2018-07-21T12:09:28.000Z</time>
      </trkpt>
      <trkpt lat="43.95206" lon="7.11127">
        <ele>949</ele>
        <time>2018-07-21T12:09:29.000Z</time>
      </trkpt>
      <trkpt lat="43.95203" lon="7.11128">
        <ele>948</ele>
        <time>2018-07-21T12:09:30.000Z</time>
      </trkpt>
      <trkpt lat="43.952" lon="7.11128">
        <ele>948</ele>
        <time>2018-07-21T12:09:31.000Z</time>
      </trkpt>
      <trkpt lat="43.95194" lon="7.11128">
        <ele>947</ele>
        <time>2018-07-21T12:09:33.000Z</time>
      </trkpt>
      <trkpt lat="43.95192" lon="7.11128">
        <ele>947</ele>
        <time>2018-07-21T12:09:34.000Z</time>
      </trkpt>
      <trkpt lat="43.95189" lon="7.11128">
        <ele>947</ele>
        <time>2018-07-21T12:09:35.000Z</time>
      </trkpt>
      <trkpt lat="43.95186" lon="7.1113">
        <ele>946</ele>
        <time>2018-07-21T12:09:36.000Z</time>
      </trkpt>
      <trkpt lat="43.95181" lon="7.11134">
        <ele>945</ele>
        <time>2018-07-21T12:09:38.000Z</time>
      </trkpt>
      <trkpt lat="43.95178" lon="7.11137">
        <ele>943</ele>
        <time>2018-07-21T12:09:39.000Z</time>
      </trkpt>
      <trkpt lat="43.95176" lon="7.11139">
        <ele>942</ele>
        <time>2018-07-21T12:09:40.000Z</time>
      </trkpt>
      <trkpt lat="43.95173" lon="7.11141">
        <ele>941</ele>
        <time>2018-07-21T12:09:41.000Z</time>
      </trkpt>
      <trkpt lat="43.95171" lon="7.11144">
        <ele>940</ele>
        <time>2018-07-21T12:09:42.000Z</time>
      </trkpt>
      <trkpt lat="43.95165" lon="7.11149">
        <ele>934</ele>
        <time>2018-07-21T12:09:44.000Z</time>
      </trkpt>
      <trkpt lat="43.95162" lon="7.11151">
        <ele>933</ele>
        <time>2018-07-21T12:09:45.000Z</time>
      </trkpt>
      <trkpt lat="43.95157" lon="7.11156">
        <ele>932</ele>
        <time>2018-07-21T12:09:47.000Z</time>
      </trkpt>
      <trkpt lat="43.95154" lon="7.11158">
        <ele>932</ele>
        <time>2018-07-21T12:09:48.000Z</time>
      </trkpt>
      <trkpt lat="43.95152" lon="7.11158">
        <ele>933</ele>
        <time>2018-07-21T12:09:49.000Z</time>
      </trkpt>
      <trkpt lat="43.95149" lon="7.11159">
        <ele>933</ele>
        <time>2018-07-21T12:09:50.000Z</time>
      </trkpt>
      <trkpt lat="43.95143" lon="7.11162">
        <ele>934</ele>
        <time>2018-07-21T12:09:52.000Z</time>
      </trkpt>
      <trkpt lat="43.95142" lon="7.11164">
        <ele>934</ele>
        <time>2018-07-21T12:09:54.000Z</time>
      </trkpt>
      <trkpt lat="43.95139" lon="7.11169">
        <ele>915</ele>
        <time>2018-07-21T12:09:56.000Z</time>
      </trkpt>
      <trkpt lat="43.95135" lon="7.11174">
        <ele>914</ele>
        <time>2018-07-21T12:09:58.000Z</time>
      </trkpt>
      <trkpt lat="43.95134" lon="7.11178">
        <ele>914</ele>
        <time>2018-07-21T12:09:59.000Z</time>
      </trkpt>
      <trkpt lat="43.95132" lon="7.11186">
        <ele>912</ele>
        <time>2018-07-21T12:10:01.000Z</time>
      </trkpt>
      <trkpt lat="43.95129" lon="7.11187">
        <ele>912</ele>
        <time>2018-07-21T12:10:02.000Z</time>
      </trkpt>
      <trkpt lat="43.95126" lon="7.11188">
        <ele>912</ele>
        <time>2018-07-21T12:10:03.000Z</time>
      </trkpt>
      <trkpt lat="43.95119" lon="7.11191">
        <ele>912</ele>
        <time>2018-07-21T12:10:05.000Z</time>
      </trkpt>
      <trkpt lat="43.95116" lon="7.11194">
        <ele>911</ele>
        <time>2018-07-21T12:10:06.000Z</time>
      </trkpt>
      <trkpt lat="43.95108" lon="7.11199">
        <ele>911</ele>
        <time>2018-07-21T12:10:08.000Z</time>
      </trkpt>
      <trkpt lat="43.95104" lon="7.11203">
        <ele>910</ele>
        <time>2018-07-21T12:10:09.000Z</time>
      </trkpt>
      <trkpt lat="43.95101" lon="7.11208">
        <ele>909</ele>
        <time>2018-07-21T12:10:10.000Z</time>
      </trkpt>
      <trkpt lat="43.95099" lon="7.11213">
        <ele>907</ele>
        <time>2018-07-21T12:10:11.000Z</time>
      </trkpt>
      <trkpt lat="43.95096" lon="7.11218">
        <ele>905</ele>
        <time>2018-07-21T12:10:12.000Z</time>
      </trkpt>
      <trkpt lat="43.95093" lon="7.11223">
        <ele>904</ele>
        <time>2018-07-21T12:10:13.000Z</time>
      </trkpt>
      <trkpt lat="43.95088" lon="7.11227">
        <ele>902</ele>
        <time>2018-07-21T12:10:14.000Z</time>
      </trkpt>
      <trkpt lat="43.95083" lon="7.11232">
        <ele>903</ele>
        <time>2018-07-21T12:10:15.000Z</time>
      </trkpt>
      <trkpt lat="43.95079" lon="7.11237">
        <ele>901</ele>
        <time>2018-07-21T12:10:16.000Z</time>
      </trkpt>
      <trkpt lat="43.95074" lon="7.11243">
        <ele>900</ele>
        <time>2018-07-21T12:10:17.000Z</time>
      </trkpt>
      <trkpt lat="43.9507" lon="7.11246">
        <ele>901</ele>
        <time>2018-07-21T12:10:18.000Z</time>
      </trkpt>
      <trkpt lat="43.95066" lon="7.11251">
        <ele>885</ele>
        <time>2018-07-21T12:10:19.000Z</time>
      </trkpt>
      <trkpt lat="43.95062" lon="7.11253">
        <ele>884</ele>
        <time>2018-07-21T12:10:20.000Z</time>
      </trkpt>
      <trkpt lat="43.95051" lon="7.11261">
        <ele>883</ele>
        <time>2018-07-21T12:10:23.000Z</time>
      </trkpt>
      <trkpt lat="43.95047" lon="7.11263">
        <ele>883</ele>
        <time>2018-07-21T12:10:24.000Z</time>
      </trkpt>
      <trkpt lat="43.95044" lon="7.11265">
        <ele>883</ele>
        <time>2018-07-21T12:10:25.000Z</time>
      </trkpt>
      <trkpt lat="43.95041" lon="7.11268">
        <ele>882</ele>
        <time>2018-07-21T12:10:26.000Z</time>
      </trkpt>
      <trkpt lat="43.95038" lon="7.11271">
        <ele>882</ele>
        <time>2018-07-21T12:10:27.000Z</time>
      </trkpt>
      <trkpt lat="43.95037" lon="7.11273">
        <ele>882</ele>
        <time>2018-07-21T12:10:28.000Z</time>
      </trkpt>
      <trkpt lat="43.95034" lon="7.11277">
        <ele>881</ele>
        <time>2018-07-21T12:10:29.000Z</time>
      </trkpt>
      <trkpt lat="43.95031" lon="7.1128">
        <ele>881</ele>
        <time>2018-07-21T12:10:30.000Z</time>
      </trkpt>
      <trkpt lat="43.95028" lon="7.11284">
        <ele>880</ele>
        <time>2018-07-21T12:10:31.000Z</time>
      </trkpt>
      <trkpt lat="43.95025" lon="7.11286">
        <ele>880</ele>
        <time>2018-07-21T12:10:32.000Z</time>
      </trkpt>
      <trkpt lat="43.95023" lon="7.11289">
        <ele>879</ele>
        <time>2018-07-21T12:10:33.000Z</time>
      </trkpt>
      <trkpt lat="43.95021" lon="7.11293">
        <ele>878</ele>
        <time>2018-07-21T12:10:34.000Z</time>
      </trkpt>
      <trkpt lat="43.95017" lon="7.11296">
        <ele>878</ele>
        <time>2018-07-21T12:10:35.000Z</time>
      </trkpt>
      <trkpt lat="43.95013" lon="7.113">
        <ele>877</ele>
        <time>2018-07-21T12:10:36.000Z</time>
      </trkpt>
      <trkpt lat="43.95009" lon="7.11303">
        <ele>876</ele>
        <time>2018-07-21T12:10:37.000Z</time>
      </trkpt>
      <trkpt lat="43.95005" lon="7.11306">
        <ele>875</ele>
        <time>2018-07-21T12:10:38.000Z</time>
      </trkpt>
      <trkpt lat="43.95001" lon="7.1131">
        <ele>875</ele>
        <time>2018-07-21T12:10:39.000Z</time>
      </trkpt>
      <trkpt lat="43.94998" lon="7.11313">
        <ele>882</ele>
        <time>2018-07-21T12:10:40.000Z</time>
      </trkpt>
      <trkpt lat="43.94994" lon="7.11315">
        <ele>882</ele>
        <time>2018-07-21T12:10:41.000Z</time>
      </trkpt>
      <trkpt lat="43.94993" lon="7.11316">
        <ele>882</ele>
        <time>2018-07-21T12:10:42.000Z</time>
      </trkpt>
      <trkpt lat="43.94993" lon="7.11316">
        <ele>882</ele>
        <time>2018-07-21T12:10:44.000Z</time>
      </trkpt>
      <trkpt lat="43.94992" lon="7.11316">
        <ele>881</ele>
        <time>2018-07-21T12:10:47.000Z</time>
      </trkpt>
      <trkpt lat="43.94993" lon="7.11316">
        <ele>881</ele>
        <time>2018-07-21T12:10:52.000Z</time>
      </trkpt>
      <trkpt lat="43.94993" lon="7.11316">
        <ele>882</ele>
        <time>2018-07-21T12:10:55.000Z</time>
      </trkpt>
      <trkpt lat="43.94993" lon="7.11316">
        <ele>882</ele>
        <time>2018-07-21T12:10:56.000Z</time>
      </trkpt>
      <trkpt lat="43.94992" lon="7.11317">
        <ele>881</ele>
        <time>2018-07-21T12:11:02.000Z</time>
      </trkpt>
      <trkpt lat="43.94991" lon="7.11317">
        <ele>881</ele>
        <time>2018-07-21T12:11:03.000Z</time>
      </trkpt>
      <trkpt lat="43.9499" lon="7.11314">
        <ele>883</ele>
        <time>2018-07-21T12:11:08.000Z</time>
      </trkpt>
      <trkpt lat="43.94989" lon="7.11313">
        <ele>884</ele>
        <time>2018-07-21T12:11:10.000Z</time>
      </trkpt>
      <trkpt lat="43.94989" lon="7.11312">
        <ele>884</ele>
        <time>2018-07-21T12:11:12.000Z</time>
      </trkpt>
      <trkpt lat="43.94988" lon="7.11314">
        <ele>883</ele>
        <time>2018-07-21T12:11:23.000Z</time>
      </trkpt>
      <trkpt lat="43.94988" lon="7.11314">
        <ele>883</ele>
        <time>2018-07-21T12:11:24.000Z</time>
      </trkpt>
      <trkpt lat="43.94988" lon="7.11317">
        <ele>882</ele>
        <time>2018-07-21T12:11:31.000Z</time>
      </trkpt>
      <trkpt lat="43.94988" lon="7.11317">
        <ele>882</ele>
        <time>2018-07-21T12:11:32.000Z</time>
      </trkpt>
      <trkpt lat="43.94984" lon="7.11326">
        <ele>881</ele>
        <time>2018-07-21T12:11:40.000Z</time>
      </trkpt>
      <trkpt lat="43.94977" lon="7.11339">
        <ele>866</ele>
        <time>2018-07-21T12:11:46.000Z</time>
      </trkpt>
      <trkpt lat="43.94975" lon="7.11342">
        <ele>866</ele>
        <time>2018-07-21T12:11:47.000Z</time>
      </trkpt>
      <trkpt lat="43.94971" lon="7.11341">
        <ele>866</ele>
        <time>2018-07-21T12:11:48.000Z</time>
      </trkpt>
      <trkpt lat="43.94971" lon="7.11344">
        <ele>866</ele>
        <time>2018-07-21T12:11:49.000Z</time>
      </trkpt>
      <trkpt lat="43.9497" lon="7.11345">
        <ele>866</ele>
        <time>2018-07-21T12:11:50.000Z</time>
      </trkpt>
      <trkpt lat="43.9497" lon="7.11345">
        <ele>866</ele>
        <time>2018-07-21T12:11:52.000Z</time>
      </trkpt>
      <trkpt lat="43.94969" lon="7.11345">
        <ele>866</ele>
        <time>2018-07-21T12:11:53.000Z</time>
      </trkpt>
      <trkpt lat="43.94969" lon="7.11344">
        <ele>866</ele>
        <time>2018-07-21T12:11:56.000Z</time>
      </trkpt>
      <trkpt lat="43.9497" lon="7.11343">
        <ele>866</ele>
        <time>2018-07-21T12:12:03.000Z</time>
      </trkpt>
      <trkpt lat="43.9497" lon="7.11344">
        <ele>866</ele>
        <time>2018-07-21T12:12:15.000Z</time>
      </trkpt>
      <trkpt lat="43.94969" lon="7.11344">
        <ele>866</ele>
        <time>2018-07-21T12:12:27.000Z</time>
      </trkpt>
      <trkpt lat="43.94969" lon="7.11344">
        <ele>866</ele>
        <time>2018-07-21T12:12:38.000Z</time>
      </trkpt>
      <trkpt lat="43.94969" lon="7.11344">
        <ele>866</ele>
        <time>2018-07-21T12:12:57.000Z</time>
      </trkpt>
      <trkpt lat="43.94969" lon="7.11343">
        <ele>866</ele>
        <time>2018-07-21T12:13:15.000Z</time>
      </trkpt>
      <trkpt lat="43.94969" lon="7.11343">
        <ele>866</ele>
        <time>2018-07-21T12:13:27.000Z</time>
      </trkpt>
      <trkpt lat="43.94969" lon="7.11343">
        <ele>866</ele>
        <time>2018-07-21T12:13:35.000Z</time>
      </trkpt>
      <trkpt lat="43.94968" lon="7.11344">
        <ele>866</ele>
        <time>2018-07-21T12:13:43.000Z</time>
      </trkpt>
      <trkpt lat="43.94964" lon="7.11353">
        <ele>866</ele>
        <time>2018-07-21T12:13:47.000Z</time>
      </trkpt>
      <trkpt lat="43.94963" lon="7.11354">
        <ele>866</ele>
        <time>2018-07-21T12:13:48.000Z</time>
      </trkpt>
      <trkpt lat="43.94959" lon="7.11362">
        <ele>865</ele>
        <time>2018-07-21T12:13:51.000Z</time>
      </trkpt>
      <trkpt lat="43.94959" lon="7.11366">
        <ele>864</ele>
        <time>2018-07-21T12:13:52.000Z</time>
      </trkpt>
      <trkpt lat="43.94958" lon="7.1137">
        <ele>864</ele>
        <time>2018-07-21T12:13:54.000Z</time>
      </trkpt>
      <trkpt lat="43.94958" lon="7.1137">
        <ele>864</ele>
        <time>2018-07-21T12:13:56.000Z</time>
      </trkpt>
      <trkpt lat="43.94958" lon="7.11371">
        <ele>864</ele>
        <time>2018-07-21T12:13:58.000Z</time>
      </trkpt>
      <trkpt lat="43.94958" lon="7.11371">
        <ele>864</ele>
        <time>2018-07-21T12:14:05.000Z</time>
      </trkpt>
      <trkpt lat="43.94957" lon="7.11372">
        <ele>864</ele>
        <time>2018-07-21T12:14:18.000Z</time>
      </trkpt>
      <trkpt lat="43.94956" lon="7.11372">
        <ele>864</ele>
        <time>2018-07-21T12:14:29.000Z</time>
      </trkpt>
      <trkpt lat="43.94956" lon="7.11372">
        <ele>864</ele>
        <time>2018-07-21T12:14:40.000Z</time>
      </trkpt>
      <trkpt lat="43.94956" lon="7.11372">
        <ele>864</ele>
        <time>2018-07-21T12:14:45.000Z</time>
      </trkpt>
      <trkpt lat="43.94956" lon="7.11374">
        <ele>863</ele>
        <time>2018-07-21T12:14:50.000Z</time>
      </trkpt>
      <trkpt lat="43.94955" lon="7.11378">
        <ele>863</ele>
        <time>2018-07-21T12:14:52.000Z</time>
      </trkpt>
      <trkpt lat="43.94955" lon="7.1138">
        <ele>862</ele>
        <time>2018-07-21T12:14:55.000Z</time>
      </trkpt>
      <trkpt lat="43.94955" lon="7.11379">
        <ele>862</ele>
        <time>2018-07-21T12:14:56.000Z</time>
      </trkpt>
      <trkpt lat="43.9496" lon="7.11376">
        <ele>862</ele>
        <time>2018-07-21T12:14:58.000Z</time>
      </trkpt>
      <trkpt lat="43.94962" lon="7.11375">
        <ele>862</ele>
        <time>2018-07-21T12:14:59.000Z</time>
      </trkpt>
      <trkpt lat="43.94965" lon="7.11378">
        <ele>861</ele>
        <time>2018-07-21T12:15:02.000Z</time>
      </trkpt>
      <trkpt lat="43.94965" lon="7.11379">
        <ele>861</ele>
        <time>2018-07-21T12:15:05.000Z</time>
      </trkpt>
      <trkpt lat="43.94965" lon="7.1138">
        <ele>861</ele>
        <time>2018-07-21T12:15:06.000Z</time>
      </trkpt>
      <trkpt lat="43.94966" lon="7.1138">
        <ele>861</ele>
        <time>2018-07-21T12:15:09.000Z</time>
      </trkpt>
      <trkpt lat="43.94966" lon="7.1138">
        <ele>861</ele>
        <time>2018-07-21T12:15:15.000Z</time>
      </trkpt>
      <trkpt lat="43.94967" lon="7.11379">
        <ele>861</ele>
        <time>2018-07-21T12:15:21.000Z</time>
      </trkpt>
      <trkpt lat="43.9497" lon="7.11377">
        <ele>861</ele>
        <time>2018-07-21T12:15:34.000Z</time>
      </trkpt>
      <trkpt lat="43.94973" lon="7.11378">
        <ele>860</ele>
        <time>2018-07-21T12:15:50.000Z</time>
      </trkpt>
      <trkpt lat="43.94973" lon="7.11378">
        <ele>860</ele>
        <time>2018-07-21T12:16:02.000Z</time>
      </trkpt>
      <trkpt lat="43.94974" lon="7.11378">
        <ele>860</ele>
        <time>2018-07-21T12:16:14.000Z</time>
      </trkpt>
      <trkpt lat="43.94976" lon="7.11377">
        <ele>860</ele>
        <time>2018-07-21T12:16:27.000Z</time>
      </trkpt>
      <trkpt lat="43.94975" lon="7.11378">
        <ele>860</ele>
        <time>2018-07-21T12:16:28.000Z</time>
      </trkpt>
      <trkpt lat="43.94975" lon="7.11379">
        <ele>859</ele>
        <time>2018-07-21T12:16:37.000Z</time>
      </trkpt>
      <trkpt lat="43.94973" lon="7.11385">
        <ele>858</ele>
        <time>2018-07-21T12:16:44.000Z</time>
      </trkpt>
      <trkpt lat="43.94971" lon="7.11402">
        <ele>855</ele>
        <time>2018-07-21T12:16:48.000Z</time>
      </trkpt>
      <trkpt lat="43.94972" lon="7.11412">
        <ele>853</ele>
        <time>2018-07-21T12:16:50.000Z</time>
      </trkpt>
      <trkpt lat="43.94972" lon="7.11417">
        <ele>833</ele>
        <time>2018-07-21T12:16:51.000Z</time>
      </trkpt>
      <trkpt lat="43.94971" lon="7.11422">
        <ele>832</ele>
        <time>2018-07-21T12:16:52.000Z</time>
      </trkpt>
      <trkpt lat="43.94971" lon="7.11425">
        <ele>832</ele>
        <time>2018-07-21T12:16:53.000Z</time>
      </trkpt>
      <trkpt lat="43.9497" lon="7.1143">
        <ele>831</ele>
        <time>2018-07-21T12:16:54.000Z</time>
      </trkpt>
      <trkpt lat="43.94969" lon="7.11435">
        <ele>831</ele>
        <time>2018-07-21T12:16:55.000Z</time>
      </trkpt>
      <trkpt lat="43.94966" lon="7.11443">
        <ele>830</ele>
        <time>2018-07-21T12:16:57.000Z</time>
      </trkpt>
      <trkpt lat="43.94963" lon="7.11451">
        <ele>829</ele>
        <time>2018-07-21T12:16:59.000Z</time>
      </trkpt>
      <trkpt lat="43.94959" lon="7.11459">
        <ele>828</ele>
        <time>2018-07-21T12:17:01.000Z</time>
      </trkpt>
      <trkpt lat="43.94956" lon="7.11462">
        <ele>827</ele>
        <time>2018-07-21T12:17:02.000Z</time>
      </trkpt>
      <trkpt lat="43.94953" lon="7.11466">
        <ele>827</ele>
        <time>2018-07-21T12:17:03.000Z</time>
      </trkpt>
      <trkpt lat="43.9495" lon="7.1147">
        <ele>827</ele>
        <time>2018-07-21T12:17:04.000Z</time>
      </trkpt>
      <trkpt lat="43.94941" lon="7.11485">
        <ele>825</ele>
        <time>2018-07-21T12:17:07.000Z</time>
      </trkpt>
      <trkpt lat="43.94939" lon="7.11489">
        <ele>824</ele>
        <time>2018-07-21T12:17:08.000Z</time>
      </trkpt>
      <trkpt lat="43.94937" lon="7.11494">
        <ele>823</ele>
        <time>2018-07-21T12:17:09.000Z</time>
      </trkpt>
      <trkpt lat="43.94934" lon="7.11499">
        <ele>823</ele>
        <time>2018-07-21T12:17:10.000Z</time>
      </trkpt>
      <trkpt lat="43.94931" lon="7.11503">
        <ele>807</ele>
        <time>2018-07-21T12:17:11.000Z</time>
      </trkpt>
      <trkpt lat="43.94927" lon="7.11505">
        <ele>809</ele>
        <time>2018-07-21T12:17:12.000Z</time>
      </trkpt>
      <trkpt lat="43.94923" lon="7.11508">
        <ele>810</ele>
        <time>2018-07-21T12:17:13.000Z</time>
      </trkpt>
      <trkpt lat="43.94915" lon="7.11514">
        <ele>815</ele>
        <time>2018-07-21T12:17:15.000Z</time>
      </trkpt>
      <trkpt lat="43.94911" lon="7.11517">
        <ele>814</ele>
        <time>2018-07-21T12:17:16.000Z</time>
      </trkpt>
      <trkpt lat="43.94907" lon="7.11518">
        <ele>813</ele>
        <time>2018-07-21T12:17:17.000Z</time>
      </trkpt>
      <trkpt lat="43.94905" lon="7.11519">
        <ele>813</ele>
        <time>2018-07-21T12:17:18.000Z</time>
      </trkpt>
      <trkpt lat="43.94906" lon="7.11525">
        <ele>812</ele>
        <time>2018-07-21T12:17:20.000Z</time>
      </trkpt>
      <trkpt lat="43.94908" lon="7.11529">
        <ele>810</ele>
        <time>2018-07-21T12:17:21.000Z</time>
      </trkpt>
      <trkpt lat="43.94908" lon="7.11541">
        <ele>806</ele>
        <time>2018-07-21T12:17:23.000Z</time>
      </trkpt>
      <trkpt lat="43.94903" lon="7.11549">
        <ele>804</ele>
        <time>2018-07-21T12:17:25.000Z</time>
      </trkpt>
      <trkpt lat="43.94901" lon="7.11552">
        <ele>803</ele>
        <time>2018-07-21T12:17:26.000Z</time>
      </trkpt>
      <trkpt lat="43.94898" lon="7.11552">
        <ele>803</ele>
        <time>2018-07-21T12:17:27.000Z</time>
      </trkpt>
      <trkpt lat="43.94889" lon="7.11551">
        <ele>805</ele>
        <time>2018-07-21T12:17:29.000Z</time>
      </trkpt>
      <trkpt lat="43.94881" lon="7.11552">
        <ele>806</ele>
        <time>2018-07-21T12:17:31.000Z</time>
      </trkpt>
      <trkpt lat="43.94878" lon="7.11556">
        <ele>806</ele>
        <time>2018-07-21T12:17:32.000Z</time>
      </trkpt>
      <trkpt lat="43.94877" lon="7.1156">
        <ele>805</ele>
        <time>2018-07-21T12:17:33.000Z</time>
      </trkpt>
      <trkpt lat="43.94873" lon="7.11567">
        <ele>805</ele>
        <time>2018-07-21T12:17:35.000Z</time>
      </trkpt>
      <trkpt lat="43.94869" lon="7.11573">
        <ele>804</ele>
        <time>2018-07-21T12:17:37.000Z</time>
      </trkpt>
      <trkpt lat="43.94867" lon="7.11575">
        <ele>804</ele>
        <time>2018-07-21T12:17:38.000Z</time>
      </trkpt>
      <trkpt lat="43.94864" lon="7.11579">
        <ele>804</ele>
        <time>2018-07-21T12:17:39.000Z</time>
      </trkpt>
      <trkpt lat="43.94861" lon="7.11582">
        <ele>804</ele>
        <time>2018-07-21T12:17:40.000Z</time>
      </trkpt>
      <trkpt lat="43.94857" lon="7.11584">
        <ele>784</ele>
        <time>2018-07-21T12:17:41.000Z</time>
      </trkpt>
      <trkpt lat="43.94855" lon="7.11588">
        <ele>784</ele>
        <time>2018-07-21T12:17:42.000Z</time>
      </trkpt>
      <trkpt lat="43.94852" lon="7.11596">
        <ele>784</ele>
        <time>2018-07-21T12:17:44.000Z</time>
      </trkpt>
      <trkpt lat="43.94854" lon="7.11596">
        <ele>783</ele>
        <time>2018-07-21T12:17:45.000Z</time>
      </trkpt>
      <trkpt lat="43.94856" lon="7.11596">
        <ele>782</ele>
        <time>2018-07-21T12:17:46.000Z</time>
      </trkpt>
      <trkpt lat="43.94859" lon="7.11596">
        <ele>781</ele>
        <time>2018-07-21T12:17:47.000Z</time>
      </trkpt>
      <trkpt lat="43.9486" lon="7.11599">
        <ele>780</ele>
        <time>2018-07-21T12:17:48.000Z</time>
      </trkpt>
      <trkpt lat="43.94858" lon="7.11602">
        <ele>780</ele>
        <time>2018-07-21T12:17:49.000Z</time>
      </trkpt>
      <trkpt lat="43.94858" lon="7.11606">
        <ele>779</ele>
        <time>2018-07-21T12:17:51.000Z</time>
      </trkpt>
      <trkpt lat="43.94861" lon="7.1161">
        <ele>777</ele>
        <time>2018-07-21T12:17:53.000Z</time>
      </trkpt>
      <trkpt lat="43.94857" lon="7.11615">
        <ele>776</ele>
        <time>2018-07-21T12:17:55.000Z</time>
      </trkpt>
      <trkpt lat="43.94856" lon="7.11618">
        <ele>776</ele>
        <time>2018-07-21T12:17:56.000Z</time>
      </trkpt>
      <trkpt lat="43.94855" lon="7.11622">
        <ele>775</ele>
        <time>2018-07-21T12:17:57.000Z</time>
      </trkpt>
      <trkpt lat="43.94853" lon="7.11633">
        <ele>772</ele>
        <time>2018-07-21T12:17:59.000Z</time>
      </trkpt>
      <trkpt lat="43.94852" lon="7.11636">
        <ele>772</ele>
        <time>2018-07-21T12:18:00.000Z</time>
      </trkpt>
      <trkpt lat="43.94854" lon="7.11639">
        <ele>771</ele>
        <time>2018-07-21T12:18:02.000Z</time>
      </trkpt>
      <trkpt lat="43.94853" lon="7.11643">
        <ele>770</ele>
        <time>2018-07-21T12:18:03.000Z</time>
      </trkpt>
      <trkpt lat="43.94851" lon="7.11643">
        <ele>770</ele>
        <time>2018-07-21T12:18:04.000Z</time>
      </trkpt>
      <trkpt lat="43.94846" lon="7.11649">
        <ele>769</ele>
        <time>2018-07-21T12:18:06.000Z</time>
      </trkpt>
      <trkpt lat="43.94842" lon="7.11657">
        <ele>768</ele>
        <time>2018-07-21T12:18:08.000Z</time>
      </trkpt>
      <trkpt lat="43.94834" lon="7.11663">
        <ele>766</ele>
        <time>2018-07-21T12:18:10.000Z</time>
      </trkpt>
      <trkpt lat="43.94831" lon="7.11665">
        <ele>768</ele>
        <time>2018-07-21T12:18:11.000Z</time>
      </trkpt>
      <trkpt lat="43.94826" lon="7.11672">
        <ele>757</ele>
        <time>2018-07-21T12:18:13.000Z</time>
      </trkpt>
      <trkpt lat="43.94823" lon="7.11676">
        <ele>754</ele>
        <time>2018-07-21T12:18:14.000Z</time>
      </trkpt>
      <trkpt lat="43.94821" lon="7.11678">
        <ele>752</ele>
        <time>2018-07-21T12:18:15.000Z</time>
      </trkpt>
      <trkpt lat="43.94818" lon="7.11681">
        <ele>751</ele>
        <time>2018-07-21T12:18:17.000Z</time>
      </trkpt>
      <trkpt lat="43.94817" lon="7.11683">
        <ele>750</ele>
        <time>2018-07-21T12:18:18.000Z</time>
      </trkpt>
      <trkpt lat="43.94818" lon="7.11685">
        <ele>749</ele>
        <time>2018-07-21T12:18:19.000Z</time>
      </trkpt>
      <trkpt lat="43.9482" lon="7.11685">
        <ele>750</ele>
        <time>2018-07-21T12:18:21.000Z</time>
      </trkpt>
      <trkpt lat="43.94822" lon="7.11687">
        <ele>749</ele>
        <time>2018-07-21T12:18:22.000Z</time>
      </trkpt>
      <trkpt lat="43.9482" lon="7.11691">
        <ele>747</ele>
        <time>2018-07-21T12:18:24.000Z</time>
      </trkpt>
      <trkpt lat="43.94814" lon="7.11695">
        <ele>745</ele>
        <time>2018-07-21T12:18:26.000Z</time>
      </trkpt>
      <trkpt lat="43.94809" lon="7.11699">
        <ele>743</ele>
        <time>2018-07-21T12:18:28.000Z</time>
      </trkpt>
      <trkpt lat="43.94806" lon="7.117">
        <ele>743</ele>
        <time>2018-07-21T12:18:29.000Z</time>
      </trkpt>
      <trkpt lat="43.94802" lon="7.11699">
        <ele>743</ele>
        <time>2018-07-21T12:18:31.000Z</time>
      </trkpt>
      <trkpt lat="43.94799" lon="7.117">
        <ele>742</ele>
        <time>2018-07-21T12:18:32.000Z</time>
      </trkpt>
      <trkpt lat="43.94797" lon="7.11701">
        <ele>742</ele>
        <time>2018-07-21T12:18:33.000Z</time>
      </trkpt>
      <trkpt lat="43.94793" lon="7.11702">
        <ele>741</ele>
        <time>2018-07-21T12:18:35.000Z</time>
      </trkpt>
      <trkpt lat="43.94787" lon="7.11703">
        <ele>741</ele>
        <time>2018-07-21T12:18:37.000Z</time>
      </trkpt>
      <trkpt lat="43.94785" lon="7.11704">
        <ele>741</ele>
        <time>2018-07-21T12:18:38.000Z</time>
      </trkpt>
      <trkpt lat="43.94783" lon="7.11705">
        <ele>740</ele>
        <time>2018-07-21T12:18:39.000Z</time>
      </trkpt>
      <trkpt lat="43.94781" lon="7.11707">
        <ele>740</ele>
        <time>2018-07-21T12:18:40.000Z</time>
      </trkpt>
      <trkpt lat="43.94775" lon="7.11709">
        <ele>739</ele>
        <time>2018-07-21T12:18:42.000Z</time>
      </trkpt>
      <trkpt lat="43.94768" lon="7.11712">
        <ele>737</ele>
        <time>2018-07-21T12:18:44.000Z</time>
      </trkpt>
      <trkpt lat="43.94761" lon="7.11714">
        <ele>736</ele>
        <time>2018-07-21T12:18:46.000Z</time>
      </trkpt>
      <trkpt lat="43.94753" lon="7.11715">
        <ele>735</ele>
        <time>2018-07-21T12:18:48.000Z</time>
      </trkpt>
      <trkpt lat="43.94748" lon="7.11717">
        <ele>732</ele>
        <time>2018-07-21T12:18:50.000Z</time>
      </trkpt>
      <trkpt lat="43.94742" lon="7.11717">
        <ele>733</ele>
        <time>2018-07-21T12:18:52.000Z</time>
      </trkpt>
      <trkpt lat="43.94738" lon="7.11718">
        <ele>732</ele>
        <time>2018-07-21T12:18:54.000Z</time>
      </trkpt>
      <trkpt lat="43.9473" lon="7.11719">
        <ele>732</ele>
        <time>2018-07-21T12:18:56.000Z</time>
      </trkpt>
      <trkpt lat="43.94726" lon="7.11719">
        <ele>732</ele>
        <time>2018-07-21T12:18:57.000Z</time>
      </trkpt>
      <trkpt lat="43.94723" lon="7.11719">
        <ele>733</ele>
        <time>2018-07-21T12:18:58.000Z</time>
      </trkpt>
      <trkpt lat="43.94719" lon="7.11718">
        <ele>733</ele>
        <time>2018-07-21T12:18:59.000Z</time>
      </trkpt>
      <trkpt lat="43.94711" lon="7.11716">
        <ele>734</ele>
        <time>2018-07-21T12:19:01.000Z</time>
      </trkpt>
      <trkpt lat="43.94707" lon="7.11717">
        <ele>733</ele>
        <time>2018-07-21T12:19:02.000Z</time>
      </trkpt>
      <trkpt lat="43.94703" lon="7.11718">
        <ele>733</ele>
        <time>2018-07-21T12:19:03.000Z</time>
      </trkpt>
      <trkpt lat="43.94697" lon="7.11725">
        <ele>730</ele>
        <time>2018-07-21T12:19:05.000Z</time>
      </trkpt>
      <trkpt lat="43.94692" lon="7.11729">
        <ele>728</ele>
        <time>2018-07-21T12:19:07.000Z</time>
      </trkpt>
      <trkpt lat="43.9469" lon="7.11731">
        <ele>727</ele>
        <time>2018-07-21T12:19:08.000Z</time>
      </trkpt>
      <trkpt lat="43.94688" lon="7.11733">
        <ele>726</ele>
        <time>2018-07-21T12:19:09.000Z</time>
      </trkpt>
      <trkpt lat="43.94681" lon="7.11737">
        <ele>723</ele>
        <time>2018-07-21T12:19:12.000Z</time>
      </trkpt>
      <trkpt lat="43.94677" lon="7.11737">
        <ele>722</ele>
        <time>2018-07-21T12:19:14.000Z</time>
      </trkpt>
      <trkpt lat="43.94675" lon="7.11738">
        <ele>720</ele>
        <time>2018-07-21T12:19:15.000Z</time>
      </trkpt>
      <trkpt lat="43.9467" lon="7.11739">
        <ele>718</ele>
        <time>2018-07-21T12:19:17.000Z</time>
      </trkpt>
      <trkpt lat="43.94666" lon="7.11739">
        <ele>720</ele>
        <time>2018-07-21T12:19:19.000Z</time>
      </trkpt>
      <trkpt lat="43.94659" lon="7.1174">
        <ele>721</ele>
        <time>2018-07-21T12:19:21.000Z</time>
      </trkpt>
      <trkpt lat="43.94653" lon="7.1174">
        <ele>724</ele>
        <time>2018-07-21T12:19:23.000Z</time>
      </trkpt>
      <trkpt lat="43.94649" lon="7.11742">
        <ele>725</ele>
        <time>2018-07-21T12:19:25.000Z</time>
      </trkpt>
      <trkpt lat="43.94646" lon="7.11744">
        <ele>726</ele>
        <time>2018-07-21T12:19:26.000Z</time>
      </trkpt>
      <trkpt lat="43.94644" lon="7.11746">
        <ele>726</ele>
        <time>2018-07-21T12:19:27.000Z</time>
      </trkpt>
      <trkpt lat="43.9464" lon="7.1175">
        <ele>704</ele>
        <time>2018-07-21T12:19:29.000Z</time>
      </trkpt>
      <trkpt lat="43.94638" lon="7.11751">
        <ele>704</ele>
        <time>2018-07-21T12:19:30.000Z</time>
      </trkpt>
      <trkpt lat="43.94636" lon="7.11751">
        <ele>704</ele>
        <time>2018-07-21T12:19:31.000Z</time>
      </trkpt>
      <trkpt lat="43.94632" lon="7.11751">
        <ele>705</ele>
        <time>2018-07-21T12:19:33.000Z</time>
      </trkpt>
      <trkpt lat="43.9463" lon="7.11752">
        <ele>705</ele>
        <time>2018-07-21T12:19:34.000Z</time>
      </trkpt>
      <trkpt lat="43.94622" lon="7.11758">
        <ele>706</ele>
        <time>2018-07-21T12:19:37.000Z</time>
      </trkpt>
      <trkpt lat="43.94619" lon="7.11761">
        <ele>706</ele>
        <time>2018-07-21T12:19:38.000Z</time>
      </trkpt>
      <trkpt lat="43.94616" lon="7.11765">
        <ele>707</ele>
        <time>2018-07-21T12:19:39.000Z</time>
      </trkpt>
      <trkpt lat="43.94615" lon="7.11774">
        <ele>705</ele>
        <time>2018-07-21T12:19:41.000Z</time>
      </trkpt>
      <trkpt lat="43.94611" lon="7.11786">
        <ele>702</ele>
        <time>2018-07-21T12:19:44.000Z</time>
      </trkpt>
      <trkpt lat="43.9461" lon="7.1179">
        <ele>702</ele>
        <time>2018-07-21T12:19:45.000Z</time>
      </trkpt>
      <trkpt lat="43.94608" lon="7.11797">
        <ele>700</ele>
        <time>2018-07-21T12:19:47.000Z</time>
      </trkpt>
      <trkpt lat="43.94607" lon="7.11805">
        <ele>699</ele>
        <time>2018-07-21T12:19:49.000Z</time>
      </trkpt>
      <trkpt lat="43.94606" lon="7.11809">
        <ele>698</ele>
        <time>2018-07-21T12:19:50.000Z</time>
      </trkpt>
      <trkpt lat="43.94606" lon="7.11813">
        <ele>698</ele>
        <time>2018-07-21T12:19:51.000Z</time>
      </trkpt>
      <trkpt lat="43.94605" lon="7.11821">
        <ele>697</ele>
        <time>2018-07-21T12:19:53.000Z</time>
      </trkpt>
      <trkpt lat="43.94604" lon="7.11828">
        <ele>696</ele>
        <time>2018-07-21T12:19:55.000Z</time>
      </trkpt>
      <trkpt lat="43.94604" lon="7.11829">
        <ele>696</ele>
        <time>2018-07-21T12:19:57.000Z</time>
      </trkpt>
      <trkpt lat="43.94604" lon="7.11829">
        <ele>696</ele>
        <time>2018-07-21T12:19:58.000Z</time>
      </trkpt>
      <trkpt lat="43.94604" lon="7.1183">
        <ele>696</ele>
        <time>2018-07-21T12:19:59.000Z</time>
      </trkpt>
      <trkpt lat="43.94603" lon="7.11832">
        <ele>696</ele>
        <time>2018-07-21T12:20:03.000Z</time>
      </trkpt>
      <trkpt lat="43.94602" lon="7.11835">
        <ele>677</ele>
        <time>2018-07-21T12:20:05.000Z</time>
      </trkpt>
      <trkpt lat="43.94597" lon="7.11849">
        <ele>675</ele>
        <time>2018-07-21T12:20:11.000Z</time>
      </trkpt>
      <trkpt lat="43.94584" lon="7.11862">
        <ele>671</ele>
        <time>2018-07-21T12:20:17.000Z</time>
      </trkpt>
      <trkpt lat="43.94566" lon="7.11871">
        <ele>676</ele>
        <time>2018-07-21T12:20:22.000Z</time>
      </trkpt>
      <trkpt lat="43.94562" lon="7.11873">
        <ele>675</ele>
        <time>2018-07-21T12:20:23.000Z</time>
      </trkpt>
      <trkpt lat="43.94542" lon="7.11881">
        <ele>672</ele>
        <time>2018-07-21T12:20:28.000Z</time>
      </trkpt>
      <trkpt lat="43.9451" lon="7.11886">
        <ele>669</ele>
        <time>2018-07-21T12:20:36.000Z</time>
      </trkpt>
      <trkpt lat="43.94508" lon="7.11884">
        <ele>670</ele>
        <time>2018-07-21T12:20:37.000Z</time>
      </trkpt>
      <trkpt lat="43.94504" lon="7.11875">
        <ele>671</ele>
        <time>2018-07-21T12:20:39.000Z</time>
      </trkpt>
      <trkpt lat="43.94501" lon="7.11864">
        <ele>673</ele>
        <time>2018-07-21T12:20:41.000Z</time>
      </trkpt>
      <trkpt lat="43.94498" lon="7.11852">
        <ele>660</ele>
        <time>2018-07-21T12:20:43.000Z</time>
      </trkpt>
      <trkpt lat="43.94495" lon="7.11845">
        <ele>664</ele>
        <time>2018-07-21T12:20:45.000Z</time>
      </trkpt>
      <trkpt lat="43.94495" lon="7.11846">
        <ele>663</ele>
        <time>2018-07-21T12:20:46.000Z</time>
      </trkpt>
      <trkpt lat="43.94495" lon="7.11848">
        <ele>662</ele>
        <time>2018-07-21T12:20:47.000Z</time>
      </trkpt>
      <trkpt lat="43.94496" lon="7.11859">
        <ele>656</ele>
        <time>2018-07-21T12:20:50.000Z</time>
      </trkpt>
      <trkpt lat="43.94496" lon="7.11865">
        <ele>654</ele>
        <time>2018-07-21T12:20:51.000Z</time>
      </trkpt>
      <trkpt lat="43.94495" lon="7.11879">
        <ele>651</ele>
        <time>2018-07-21T12:20:54.000Z</time>
      </trkpt>
      <trkpt lat="43.94494" lon="7.1188">
        <ele>650</ele>
        <time>2018-07-21T12:20:55.000Z</time>
      </trkpt>
      <trkpt lat="43.94493" lon="7.11879">
        <ele>650</ele>
        <time>2018-07-21T12:20:56.000Z</time>
      </trkpt>
      <trkpt lat="43.94489" lon="7.11861">
        <ele>654</ele>
        <time>2018-07-21T12:21:00.000Z</time>
      </trkpt>
      <trkpt lat="43.94483" lon="7.11841">
        <ele>658</ele>
        <time>2018-07-21T12:21:03.000Z</time>
      </trkpt>
      <trkpt lat="43.9448" lon="7.11835">
        <ele>657</ele>
        <time>2018-07-21T12:21:04.000Z</time>
      </trkpt>
      <trkpt lat="43.94477" lon="7.11828">
        <ele>665</ele>
        <time>2018-07-21T12:21:05.000Z</time>
      </trkpt>
      <trkpt lat="43.94475" lon="7.11822">
        <ele>664</ele>
        <time>2018-07-21T12:21:06.000Z</time>
      </trkpt>
      <trkpt lat="43.94471" lon="7.1181">
        <ele>662</ele>
        <time>2018-07-21T12:21:08.000Z</time>
      </trkpt>
      <trkpt lat="43.94469" lon="7.11803">
        <ele>662</ele>
        <time>2018-07-21T12:21:09.000Z</time>
      </trkpt>
      <trkpt lat="43.94468" lon="7.11797">
        <ele>662</ele>
        <time>2018-07-21T12:21:10.000Z</time>
      </trkpt>
      <trkpt lat="43.94463" lon="7.11786">
        <ele>662</ele>
        <time>2018-07-21T12:21:12.000Z</time>
      </trkpt>
      <trkpt lat="43.94461" lon="7.11781">
        <ele>662</ele>
        <time>2018-07-21T12:21:13.000Z</time>
      </trkpt>
      <trkpt lat="43.94458" lon="7.11776">
        <ele>661</ele>
        <time>2018-07-21T12:21:14.000Z</time>
      </trkpt>
      <trkpt lat="43.94455" lon="7.1177">
        <ele>661</ele>
        <time>2018-07-21T12:21:15.000Z</time>
      </trkpt>
      <trkpt lat="43.94454" lon="7.11764">
        <ele>661</ele>
        <time>2018-07-21T12:21:16.000Z</time>
      </trkpt>
      <trkpt lat="43.94453" lon="7.11751">
        <ele>661</ele>
        <time>2018-07-21T12:21:18.000Z</time>
      </trkpt>
      <trkpt lat="43.94455" lon="7.11745">
        <ele>674</ele>
        <time>2018-07-21T12:21:19.000Z</time>
      </trkpt>
      <trkpt lat="43.94456" lon="7.11733">
        <ele>676</ele>
        <time>2018-07-21T12:21:21.000Z</time>
      </trkpt>
      <trkpt lat="43.94456" lon="7.11727">
        <ele>676</ele>
        <time>2018-07-21T12:21:22.000Z</time>
      </trkpt>
      <trkpt lat="43.94452" lon="7.11715">
        <ele>676</ele>
        <time>2018-07-21T12:21:24.000Z</time>
      </trkpt>
      <trkpt lat="43.94451" lon="7.11709">
        <ele>677</ele>
        <time>2018-07-21T12:21:25.000Z</time>
      </trkpt>
      <trkpt lat="43.94451" lon="7.11703">
        <ele>677</ele>
        <time>2018-07-21T12:21:26.000Z</time>
      </trkpt>
      <trkpt lat="43.9445" lon="7.11683">
        <ele>678</ele>
        <time>2018-07-21T12:21:30.000Z</time>
      </trkpt>
      <trkpt lat="43.94445" lon="7.11681">
        <ele>676</ele>
        <time>2018-07-21T12:21:33.000Z</time>
      </trkpt>
      <trkpt lat="43.94435" lon="7.11675">
        <ele>672</ele>
        <time>2018-07-21T12:21:37.000Z</time>
      </trkpt>
      <trkpt lat="43.94424" lon="7.11665">
        <ele>671</ele>
        <time>2018-07-21T12:21:42.000Z</time>
      </trkpt>
      <trkpt lat="43.94422" lon="7.11662">
        <ele>671</ele>
        <time>2018-07-21T12:21:45.000Z</time>
      </trkpt>
      <trkpt lat="43.94421" lon="7.11659">
        <ele>672</ele>
        <time>2018-07-21T12:21:46.000Z</time>
      </trkpt>
      <trkpt lat="43.94416" lon="7.11641">
        <ele>651</ele>
        <time>2018-07-21T12:21:51.000Z</time>
      </trkpt>
      <trkpt lat="43.94415" lon="7.11635">
        <ele>651</ele>
        <time>2018-07-21T12:21:52.000Z</time>
      </trkpt>
      <trkpt lat="43.94412" lon="7.11624">
        <ele>652</ele>
        <time>2018-07-21T12:21:54.000Z</time>
      </trkpt>
      <trkpt lat="43.94409" lon="7.11619">
        <ele>652</ele>
        <time>2018-07-21T12:21:55.000Z</time>
      </trkpt>
      <trkpt lat="43.944" lon="7.116">
        <ele>656</ele>
        <time>2018-07-21T12:21:59.000Z</time>
      </trkpt>
      <trkpt lat="43.94398" lon="7.11594">
        <ele>658</ele>
        <time>2018-07-21T12:22:00.000Z</time>
      </trkpt>
      <trkpt lat="43.94394" lon="7.11574">
        <ele>662</ele>
        <time>2018-07-21T12:22:03.000Z</time>
      </trkpt>
      <trkpt lat="43.94392" lon="7.11567">
        <ele>660</ele>
        <time>2018-07-21T12:22:04.000Z</time>
      </trkpt>
      <trkpt lat="43.9439" lon="7.1156">
        <ele>658</ele>
        <time>2018-07-21T12:22:05.000Z</time>
      </trkpt>
      <trkpt lat="43.94386" lon="7.11544">
        <ele>656</ele>
        <time>2018-07-21T12:22:07.000Z</time>
      </trkpt>
      <trkpt lat="43.94383" lon="7.11528">
        <ele>655</ele>
        <time>2018-07-21T12:22:09.000Z</time>
      </trkpt>
      <trkpt lat="43.94382" lon="7.1152">
        <ele>656</ele>
        <time>2018-07-21T12:22:10.000Z</time>
      </trkpt>
      <trkpt lat="43.94381" lon="7.11513">
        <ele>656</ele>
        <time>2018-07-21T12:22:11.000Z</time>
      </trkpt>
      <trkpt lat="43.94377" lon="7.11503">
        <ele>653</ele>
        <time>2018-07-21T12:22:13.000Z</time>
      </trkpt>
      <trkpt lat="43.94376" lon="7.11498">
        <ele>656</ele>
        <time>2018-07-21T12:22:14.000Z</time>
      </trkpt>
      <trkpt lat="43.94383" lon="7.11487">
        <ele>660</ele>
        <time>2018-07-21T12:22:17.000Z</time>
      </trkpt>
      <trkpt lat="43.94386" lon="7.11475">
        <ele>661</ele>
        <time>2018-07-21T12:22:20.000Z</time>
      </trkpt>
      <trkpt lat="43.94384" lon="7.11471">
        <ele>660</ele>
        <time>2018-07-21T12:22:21.000Z</time>
      </trkpt>
      <trkpt lat="43.94381" lon="7.11467">
        <ele>658</ele>
        <time>2018-07-21T12:22:22.000Z</time>
      </trkpt>
      <trkpt lat="43.94377" lon="7.11462">
        <ele>657</ele>
        <time>2018-07-21T12:22:23.000Z</time>
      </trkpt>
      <trkpt lat="43.94372" lon="7.11458">
        <ele>655</ele>
        <time>2018-07-21T12:22:24.000Z</time>
      </trkpt>
      <trkpt lat="43.94363" lon="7.11451">
        <ele>652</ele>
        <time>2018-07-21T12:22:26.000Z</time>
      </trkpt>
      <trkpt lat="43.9436" lon="7.11447">
        <ele>650</ele>
        <time>2018-07-21T12:22:27.000Z</time>
      </trkpt>
      <trkpt lat="43.94358" lon="7.11442">
        <ele>649</ele>
        <time>2018-07-21T12:22:28.000Z</time>
      </trkpt>
      <trkpt lat="43.94355" lon="7.11429">
        <ele>646</ele>
        <time>2018-07-21T12:22:30.000Z</time>
      </trkpt>
      <trkpt lat="43.94353" lon="7.11424">
        <ele>644</ele>
        <time>2018-07-21T12:22:31.000Z</time>
      </trkpt>
      <trkpt lat="43.94352" lon="7.11418">
        <ele>643</ele>
        <time>2018-07-21T12:22:32.000Z</time>
      </trkpt>
      <trkpt lat="43.94351" lon="7.11405">
        <ele>643</ele>
        <time>2018-07-21T12:22:34.000Z</time>
      </trkpt>
      <trkpt lat="43.9435" lon="7.11398">
        <ele>644</ele>
        <time>2018-07-21T12:22:35.000Z</time>
      </trkpt>
      <trkpt lat="43.94348" lon="7.11379">
        <ele>645</ele>
        <time>2018-07-21T12:22:38.000Z</time>
      </trkpt>
      <trkpt lat="43.94346" lon="7.11372">
        <ele>645</ele>
        <time>2018-07-21T12:22:39.000Z</time>
      </trkpt>
      <trkpt lat="43.94343" lon="7.11365">
        <ele>643</ele>
        <time>2018-07-21T12:22:40.000Z</time>
      </trkpt>
      <trkpt lat="43.94336" lon="7.11349">
        <ele>637</ele>
        <time>2018-07-21T12:22:42.000Z</time>
      </trkpt>
      <trkpt lat="43.94331" lon="7.11337">
        <ele>621</ele>
        <time>2018-07-21T12:22:44.000Z</time>
      </trkpt>
      <trkpt lat="43.94329" lon="7.11331">
        <ele>617</ele>
        <time>2018-07-21T12:22:46.000Z</time>
      </trkpt>
      <trkpt lat="43.94328" lon="7.11332">
        <ele>617</ele>
        <time>2018-07-21T12:22:48.000Z</time>
      </trkpt>
      <trkpt lat="43.94329" lon="7.11335">
        <ele>620</ele>
        <time>2018-07-21T12:22:50.000Z</time>
      </trkpt>
      <trkpt lat="43.94333" lon="7.11352">
        <ele>612</ele>
        <time>2018-07-21T12:22:54.000Z</time>
      </trkpt>
      <trkpt lat="43.94334" lon="7.11355">
        <ele>639</ele>
        <time>2018-07-21T12:22:55.000Z</time>
      </trkpt>
      <trkpt lat="43.94334" lon="7.11358">
        <ele>640</ele>
        <time>2018-07-21T12:22:56.000Z</time>
      </trkpt>
      <trkpt lat="43.94332" lon="7.11359">
        <ele>610</ele>
        <time>2018-07-21T12:22:58.000Z</time>
      </trkpt>
      <trkpt lat="43.94332" lon="7.11358">
        <ele>610</ele>
        <time>2018-07-21T12:22:59.000Z</time>
      </trkpt>
      <trkpt lat="43.9433" lon="7.11352">
        <ele>612</ele>
        <time>2018-07-21T12:23:02.000Z</time>
      </trkpt>
      <trkpt lat="43.94323" lon="7.11333">
        <ele>611</ele>
        <time>2018-07-21T12:23:06.000Z</time>
      </trkpt>
      <trkpt lat="43.94322" lon="7.11331">
        <ele>610</ele>
        <time>2018-07-21T12:23:07.000Z</time>
      </trkpt>
      <trkpt lat="43.94321" lon="7.1133">
        <ele>609</ele>
        <time>2018-07-21T12:23:08.000Z</time>
      </trkpt>
      <trkpt lat="43.94321" lon="7.11332">
        <ele>609</ele>
        <time>2018-07-21T12:23:09.000Z</time>
      </trkpt>
      <trkpt lat="43.94323" lon="7.11341">
        <ele>614</ele>
        <time>2018-07-21T12:23:12.000Z</time>
      </trkpt>
      <trkpt lat="43.94324" lon="7.11345">
        <ele>613</ele>
        <time>2018-07-21T12:23:13.000Z</time>
      </trkpt>
      <trkpt lat="43.94326" lon="7.11354">
        <ele>610</ele>
        <time>2018-07-21T12:23:16.000Z</time>
      </trkpt>
      <trkpt lat="43.94325" lon="7.11355">
        <ele>610</ele>
        <time>2018-07-21T12:23:17.000Z</time>
      </trkpt>
      <trkpt lat="43.94324" lon="7.11352">
        <ele>610</ele>
        <time>2018-07-21T12:23:19.000Z</time>
      </trkpt>
      <trkpt lat="43.94319" lon="7.11344">
        <ele>611</ele>
        <time>2018-07-21T12:23:22.000Z</time>
      </trkpt>
      <trkpt lat="43.94314" lon="7.11336">
        <ele>610</ele>
        <time>2018-07-21T12:23:24.000Z</time>
      </trkpt>
      <trkpt lat="43.9431" lon="7.11326">
        <ele>599</ele>
        <time>2018-07-21T12:23:27.000Z</time>
      </trkpt>
      <trkpt lat="43.94309" lon="7.11327">
        <ele>599</ele>
        <time>2018-07-21T12:23:29.000Z</time>
      </trkpt>
      <trkpt lat="43.94311" lon="7.11332">
        <ele>601</ele>
        <time>2018-07-21T12:23:31.000Z</time>
      </trkpt>
      <trkpt lat="43.94312" lon="7.11338">
        <ele>608</ele>
        <time>2018-07-21T12:23:32.000Z</time>
      </trkpt>
      <trkpt lat="43.94315" lon="7.11348">
        <ele>608</ele>
        <time>2018-07-21T12:23:34.000Z</time>
      </trkpt>
      <trkpt lat="43.94316" lon="7.11351">
        <ele>608</ele>
        <time>2018-07-21T12:23:35.000Z</time>
      </trkpt>
      <trkpt lat="43.94316" lon="7.11353">
        <ele>607</ele>
        <time>2018-07-21T12:23:36.000Z</time>
      </trkpt>
      <trkpt lat="43.94315" lon="7.11353">
        <ele>607</ele>
        <time>2018-07-21T12:23:38.000Z</time>
      </trkpt>
      <trkpt lat="43.94314" lon="7.11351">
        <ele>607</ele>
        <time>2018-07-21T12:23:40.000Z</time>
      </trkpt>
      <trkpt lat="43.94308" lon="7.11342">
        <ele>606</ele>
        <time>2018-07-21T12:23:45.000Z</time>
      </trkpt>
      <trkpt lat="43.94301" lon="7.1133">
        <ele>595</ele>
        <time>2018-07-21T12:23:48.000Z</time>
      </trkpt>
      <trkpt lat="43.94301" lon="7.11329">
        <ele>595</ele>
        <time>2018-07-21T12:23:49.000Z</time>
      </trkpt>
      <trkpt lat="43.943" lon="7.1133">
        <ele>595</ele>
        <time>2018-07-21T12:23:50.000Z</time>
      </trkpt>
      <trkpt lat="43.943" lon="7.11331">
        <ele>595</ele>
        <time>2018-07-21T12:23:51.000Z</time>
      </trkpt>
      <trkpt lat="43.94302" lon="7.1134">
        <ele>603</ele>
        <time>2018-07-21T12:23:54.000Z</time>
      </trkpt>
      <trkpt lat="43.94304" lon="7.11348">
        <ele>604</ele>
        <time>2018-07-21T12:23:57.000Z</time>
      </trkpt>
      <trkpt lat="43.94303" lon="7.11349">
        <ele>603</ele>
        <time>2018-07-21T12:23:58.000Z</time>
      </trkpt>
      <trkpt lat="43.94301" lon="7.11347">
        <ele>602</ele>
        <time>2018-07-21T12:23:59.000Z</time>
      </trkpt>
      <trkpt lat="43.94296" lon="7.11342">
        <ele>600</ele>
        <time>2018-07-21T12:24:01.000Z</time>
      </trkpt>
      <trkpt lat="43.94293" lon="7.11338">
        <ele>599</ele>
        <time>2018-07-21T12:24:02.000Z</time>
      </trkpt>
      <trkpt lat="43.94291" lon="7.11332">
        <ele>591</ele>
        <time>2018-07-21T12:24:04.000Z</time>
      </trkpt>
      <trkpt lat="43.9429" lon="7.11332">
        <ele>590</ele>
        <time>2018-07-21T12:24:05.000Z</time>
      </trkpt>
      <trkpt lat="43.9429" lon="7.11332">
        <ele>590</ele>
        <time>2018-07-21T12:24:07.000Z</time>
      </trkpt>
      <trkpt lat="43.9429" lon="7.11332">
        <ele>590</ele>
        <time>2018-07-21T12:24:09.000Z</time>
      </trkpt>
      <trkpt lat="43.9429" lon="7.11333">
        <ele>590</ele>
        <time>2018-07-21T12:24:10.000Z</time>
      </trkpt>
      <trkpt lat="43.9429" lon="7.11334">
        <ele>598</ele>
        <time>2018-07-21T12:24:12.000Z</time>
      </trkpt>
      <trkpt lat="43.94294" lon="7.11344">
        <ele>599</ele>
        <time>2018-07-21T12:24:15.000Z</time>
      </trkpt>
      <trkpt lat="43.94297" lon="7.11353">
        <ele>600</ele>
        <time>2018-07-21T12:24:18.000Z</time>
      </trkpt>
      <trkpt lat="43.94297" lon="7.11354">
        <ele>600</ele>
        <time>2018-07-21T12:24:19.000Z</time>
      </trkpt>
      <trkpt lat="43.94296" lon="7.11355">
        <ele>600</ele>
        <time>2018-07-21T12:24:24.000Z</time>
      </trkpt>
      <trkpt lat="43.94296" lon="7.11355">
        <ele>600</ele>
        <time>2018-07-21T12:24:25.000Z</time>
      </trkpt>
      <trkpt lat="43.94294" lon="7.11354">
        <ele>599</ele>
        <time>2018-07-21T12:24:30.000Z</time>
      </trkpt>
      <trkpt lat="43.94288" lon="7.11346">
        <ele>597</ele>
        <time>2018-07-21T12:24:34.000Z</time>
      </trkpt>
      <trkpt lat="43.94285" lon="7.11344">
        <ele>596</ele>
        <time>2018-07-21T12:24:36.000Z</time>
      </trkpt>
      <trkpt lat="43.94285" lon="7.11344">
        <ele>596</ele>
        <time>2018-07-21T12:24:37.000Z</time>
      </trkpt>
      <trkpt lat="43.94286" lon="7.11347">
        <ele>596</ele>
        <time>2018-07-21T12:24:39.000Z</time>
      </trkpt>
      <trkpt lat="43.94288" lon="7.11353">
        <ele>597</ele>
        <time>2018-07-21T12:24:41.000Z</time>
      </trkpt>
      <trkpt lat="43.94291" lon="7.1136">
        <ele>598</ele>
        <time>2018-07-21T12:24:44.000Z</time>
      </trkpt>
      <trkpt lat="43.94291" lon="7.1136">
        <ele>598</ele>
        <time>2018-07-21T12:24:45.000Z</time>
      </trkpt>
      <trkpt lat="43.94291" lon="7.1136">
        <ele>598</ele>
        <time>2018-07-21T12:24:47.000Z</time>
      </trkpt>
      <trkpt lat="43.94291" lon="7.11362">
        <ele>598</ele>
        <time>2018-07-21T12:24:52.000Z</time>
      </trkpt>
      <trkpt lat="43.94291" lon="7.11361">
        <ele>597</ele>
        <time>2018-07-21T12:24:59.000Z</time>
      </trkpt>
      <trkpt lat="43.9429" lon="7.1136">
        <ele>597</ele>
        <time>2018-07-21T12:25:01.000Z</time>
      </trkpt>
      <trkpt lat="43.94286" lon="7.11357">
        <ele>596</ele>
        <time>2018-07-21T12:25:04.000Z</time>
      </trkpt>
      <trkpt lat="43.9428" lon="7.1135">
        <ele>594</ele>
        <time>2018-07-21T12:25:09.000Z</time>
      </trkpt>
      <trkpt lat="43.94284" lon="7.11358">
        <ele>595</ele>
        <time>2018-07-21T12:25:14.000Z</time>
      </trkpt>
      <trkpt lat="43.94288" lon="7.11367">
        <ele>596</ele>
        <time>2018-07-21T12:25:19.000Z</time>
      </trkpt>
      <trkpt lat="43.94288" lon="7.11368">
        <ele>596</ele>
        <time>2018-07-21T12:25:21.000Z</time>
      </trkpt>
      <trkpt lat="43.94287" lon="7.11368">
        <ele>596</ele>
        <time>2018-07-21T12:25:24.000Z</time>
      </trkpt>
      <trkpt lat="43.94283" lon="7.11365">
        <ele>595</ele>
        <time>2018-07-21T12:25:28.000Z</time>
      </trkpt>
      <trkpt lat="43.94276" lon="7.11356">
        <ele>592</ele>
        <time>2018-07-21T12:25:32.000Z</time>
      </trkpt>
      <trkpt lat="43.94277" lon="7.1136">
        <ele>593</ele>
        <time>2018-07-21T12:25:36.000Z</time>
      </trkpt>
      <trkpt lat="43.94282" lon="7.11372">
        <ele>594</ele>
        <time>2018-07-21T12:25:40.000Z</time>
      </trkpt>
      <trkpt lat="43.94287" lon="7.11378">
        <ele>595</ele>
        <time>2018-07-21T12:25:42.000Z</time>
      </trkpt>
      <trkpt lat="43.94291" lon="7.11385">
        <ele>597</ele>
        <time>2018-07-21T12:25:44.000Z</time>
      </trkpt>
      <trkpt lat="43.94293" lon="7.11388">
        <ele>597</ele>
        <time>2018-07-21T12:25:45.000Z</time>
      </trkpt>
      <trkpt lat="43.94293" lon="7.11397">
        <ele>597</ele>
        <time>2018-07-21T12:25:48.000Z</time>
      </trkpt>
      <trkpt lat="43.94291" lon="7.11405">
        <ele>595</ele>
        <time>2018-07-21T12:25:50.000Z</time>
      </trkpt>
      <trkpt lat="43.94289" lon="7.11412">
        <ele>594</ele>
        <time>2018-07-21T12:25:52.000Z</time>
      </trkpt>
      <trkpt lat="43.94289" lon="7.11418">
        <ele>591</ele>
        <time>2018-07-21T12:25:54.000Z</time>
      </trkpt>
      <trkpt lat="43.94288" lon="7.11419">
        <ele>590</ele>
        <time>2018-07-21T12:25:55.000Z</time>
      </trkpt>
      <trkpt lat="43.94287" lon="7.11414">
        <ele>593</ele>
        <time>2018-07-21T12:25:58.000Z</time>
      </trkpt>
      <trkpt lat="43.94289" lon="7.11397">
        <ele>595</ele>
        <time>2018-07-21T12:26:02.000Z</time>
      </trkpt>
      <trkpt lat="43.94288" lon="7.11393">
        <ele>595</ele>
        <time>2018-07-21T12:26:03.000Z</time>
      </trkpt>
      <trkpt lat="43.94286" lon="7.11389">
        <ele>594</ele>
        <time>2018-07-21T12:26:04.000Z</time>
      </trkpt>
      <trkpt lat="43.94276" lon="7.11382">
        <ele>591</ele>
        <time>2018-07-21T12:26:07.000Z</time>
      </trkpt>
      <trkpt lat="43.94268" lon="7.11377">
        <ele>589</ele>
        <time>2018-07-21T12:26:10.000Z</time>
      </trkpt>
      <trkpt lat="43.94265" lon="7.11375">
        <ele>589</ele>
        <time>2018-07-21T12:26:11.000Z</time>
      </trkpt>
      <trkpt lat="43.94263" lon="7.11373">
        <ele>589</ele>
        <time>2018-07-21T12:26:12.000Z</time>
      </trkpt>
      <trkpt lat="43.94263" lon="7.1137">
        <ele>589</ele>
        <time>2018-07-21T12:26:13.000Z</time>
      </trkpt>
      <trkpt lat="43.94262" lon="7.11368">
        <ele>589</ele>
        <time>2018-07-21T12:26:14.000Z</time>
      </trkpt>
      <trkpt lat="43.94259" lon="7.11366">
        <ele>588</ele>
        <time>2018-07-21T12:26:15.000Z</time>
      </trkpt>
      <trkpt lat="43.94257" lon="7.11359">
        <ele>588</ele>
        <time>2018-07-21T12:26:18.000Z</time>
      </trkpt>
      <trkpt lat="43.9426" lon="7.11357">
        <ele>588</ele>
        <time>2018-07-21T12:26:21.000Z</time>
      </trkpt>
      <trkpt lat="43.9426" lon="7.11356">
        <ele>588</ele>
        <time>2018-07-21T12:26:22.000Z</time>
      </trkpt>
      <trkpt lat="43.9426" lon="7.11351">
        <ele>587</ele>
        <time>2018-07-21T12:26:24.000Z</time>
      </trkpt>
      <trkpt lat="43.94259" lon="7.11347">
        <ele>586</ele>
        <time>2018-07-21T12:26:25.000Z</time>
      </trkpt>
      <trkpt lat="43.94254" lon="7.11334">
        <ele>580</ele>
        <time>2018-07-21T12:26:29.000Z</time>
      </trkpt>
      <trkpt lat="43.94244" lon="7.11323">
        <ele>570</ele>
        <time>2018-07-21T12:26:33.000Z</time>
      </trkpt>
      <trkpt lat="43.94237" lon="7.11313">
        <ele>565</ele>
        <time>2018-07-21T12:26:36.000Z</time>
      </trkpt>
      <trkpt lat="43.94236" lon="7.1131">
        <ele>564</ele>
        <time>2018-07-21T12:26:37.000Z</time>
      </trkpt>
      <trkpt lat="43.94235" lon="7.11307">
        <ele>563</ele>
        <time>2018-07-21T12:26:38.000Z</time>
      </trkpt>
      <trkpt lat="43.94231" lon="7.11307">
        <ele>563</ele>
        <time>2018-07-21T12:26:39.000Z</time>
      </trkpt>
      <trkpt lat="43.94224" lon="7.11306">
        <ele>561</ele>
        <time>2018-07-21T12:26:41.000Z</time>
      </trkpt>
      <trkpt lat="43.94214" lon="7.11301">
        <ele>559</ele>
        <time>2018-07-21T12:26:44.000Z</time>
      </trkpt>
      <trkpt lat="43.94207" lon="7.11296">
        <ele>558</ele>
        <time>2018-07-21T12:26:46.000Z</time>
      </trkpt>
      <trkpt lat="43.942" lon="7.11287">
        <ele>557</ele>
        <time>2018-07-21T12:26:50.000Z</time>
      </trkpt>
      <trkpt lat="43.94197" lon="7.11285">
        <ele>557</ele>
        <time>2018-07-21T12:26:52.000Z</time>
      </trkpt>
      <trkpt lat="43.94192" lon="7.11283">
        <ele>556</ele>
        <time>2018-07-21T12:26:55.000Z</time>
      </trkpt>
      <trkpt lat="43.9419" lon="7.11281">
        <ele>556</ele>
        <time>2018-07-21T12:26:56.000Z</time>
      </trkpt>
      <trkpt lat="43.94188" lon="7.11279">
        <ele>556</ele>
        <time>2018-07-21T12:26:57.000Z</time>
      </trkpt>
      <trkpt lat="43.94186" lon="7.11277">
        <ele>555</ele>
        <time>2018-07-21T12:26:59.000Z</time>
      </trkpt>
      <trkpt lat="43.94184" lon="7.11277">
        <ele>555</ele>
        <time>2018-07-21T12:27:00.000Z</time>
      </trkpt>
      <trkpt lat="43.94182" lon="7.11278">
        <ele>555</ele>
        <time>2018-07-21T12:27:01.000Z</time>
      </trkpt>
      <trkpt lat="43.94179" lon="7.11278">
        <ele>555</ele>
        <time>2018-07-21T12:27:03.000Z</time>
      </trkpt>
      <trkpt lat="43.94179" lon="7.11276">
        <ele>555</ele>
        <time>2018-07-21T12:27:04.000Z</time>
      </trkpt>
      <trkpt lat="43.94178" lon="7.11272">
        <ele>554</ele>
        <time>2018-07-21T12:27:05.000Z</time>
      </trkpt>
      <trkpt lat="43.94177" lon="7.11262">
        <ele>553</ele>
        <time>2018-07-21T12:27:07.000Z</time>
      </trkpt>
      <trkpt lat="43.94177" lon="7.11256">
        <ele>553</ele>
        <time>2018-07-21T12:27:08.000Z</time>
      </trkpt>
      <trkpt lat="43.94176" lon="7.1125">
        <ele>552</ele>
        <time>2018-07-21T12:27:10.000Z</time>
      </trkpt>
      <trkpt lat="43.94174" lon="7.11252">
        <ele>552</ele>
        <time>2018-07-21T12:27:11.000Z</time>
      </trkpt>
      <trkpt lat="43.94173" lon="7.11254">
        <ele>552</ele>
        <time>2018-07-21T12:27:12.000Z</time>
      </trkpt>
      <trkpt lat="43.94169" lon="7.11263">
        <ele>553</ele>
        <time>2018-07-21T12:27:14.000Z</time>
      </trkpt>
      <trkpt lat="43.94167" lon="7.11269">
        <ele>543</ele>
        <time>2018-07-21T12:27:15.000Z</time>
      </trkpt>
      <trkpt lat="43.94163" lon="7.11278">
        <ele>541</ele>
        <time>2018-07-21T12:27:17.000Z</time>
      </trkpt>
      <trkpt lat="43.94158" lon="7.11281">
        <ele>540</ele>
        <time>2018-07-21T12:27:19.000Z</time>
      </trkpt>
      <trkpt lat="43.94157" lon="7.11279">
        <ele>540</ele>
        <time>2018-07-21T12:27:20.000Z</time>
      </trkpt>
      <trkpt lat="43.94156" lon="7.1127">
        <ele>541</ele>
        <time>2018-07-21T12:27:23.000Z</time>
      </trkpt>
      <trkpt lat="43.94156" lon="7.11256">
        <ele>544</ele>
        <time>2018-07-21T12:27:25.000Z</time>
      </trkpt>
      <trkpt lat="43.94156" lon="7.11248">
        <ele>542</ele>
        <time>2018-07-21T12:27:26.000Z</time>
      </trkpt>
      <trkpt lat="43.94157" lon="7.1124">
        <ele>541</ele>
        <time>2018-07-21T12:27:27.000Z</time>
      </trkpt>
      <trkpt lat="43.94158" lon="7.11222">
        <ele>535</ele>
        <time>2018-07-21T12:27:29.000Z</time>
      </trkpt>
      <trkpt lat="43.94159" lon="7.11207">
        <ele>532</ele>
        <time>2018-07-21T12:27:31.000Z</time>
      </trkpt>
      <trkpt lat="43.94159" lon="7.11202">
        <ele>531</ele>
        <time>2018-07-21T12:27:32.000Z</time>
      </trkpt>
      <trkpt lat="43.94157" lon="7.11198">
        <ele>530</ele>
        <time>2018-07-21T12:27:35.000Z</time>
      </trkpt>
      <trkpt lat="43.94156" lon="7.112">
        <ele>530</ele>
        <time>2018-07-21T12:27:37.000Z</time>
      </trkpt>
      <trkpt lat="43.94152" lon="7.11207">
        <ele>531</ele>
        <time>2018-07-21T12:27:40.000Z</time>
      </trkpt>
      <trkpt lat="43.94151" lon="7.1121">
        <ele>532</ele>
        <time>2018-07-21T12:27:41.000Z</time>
      </trkpt>
      <trkpt lat="43.94145" lon="7.11214">
        <ele>532</ele>
        <time>2018-07-21T12:27:44.000Z</time>
      </trkpt>
      <trkpt lat="43.94145" lon="7.11206">
        <ele>531</ele>
        <time>2018-07-21T12:27:47.000Z</time>
      </trkpt>
      <trkpt lat="43.94146" lon="7.112">
        <ele>530</ele>
        <time>2018-07-21T12:27:49.000Z</time>
      </trkpt>
      <trkpt lat="43.94146" lon="7.11197">
        <ele>529</ele>
        <time>2018-07-21T12:27:50.000Z</time>
      </trkpt>
      <trkpt lat="43.94147" lon="7.11189">
        <ele>529</ele>
        <time>2018-07-21T12:27:53.000Z</time>
      </trkpt>
      <trkpt lat="43.94146" lon="7.1119">
        <ele>529</ele>
        <time>2018-07-21T12:27:54.000Z</time>
      </trkpt>
      <trkpt lat="43.94145" lon="7.11191">
        <ele>529</ele>
        <time>2018-07-21T12:27:55.000Z</time>
      </trkpt>
      <trkpt lat="43.94144" lon="7.11193">
        <ele>529</ele>
        <time>2018-07-21T12:27:56.000Z</time>
      </trkpt>
      <trkpt lat="43.94143" lon="7.11196">
        <ele>529</ele>
        <time>2018-07-21T12:27:57.000Z</time>
      </trkpt>
      <trkpt lat="43.9414" lon="7.112">
        <ele>529</ele>
        <time>2018-07-21T12:27:59.000Z</time>
      </trkpt>
      <trkpt lat="43.94138" lon="7.112">
        <ele>529</ele>
        <time>2018-07-21T12:28:00.000Z</time>
      </trkpt>
      <trkpt lat="43.94137" lon="7.11199">
        <ele>529</ele>
        <time>2018-07-21T12:28:01.000Z</time>
      </trkpt>
      <trkpt lat="43.94136" lon="7.11194">
        <ele>528</ele>
        <time>2018-07-21T12:28:03.000Z</time>
      </trkpt>
      <trkpt lat="43.94137" lon="7.11185">
        <ele>528</ele>
        <time>2018-07-21T12:28:05.000Z</time>
      </trkpt>
      <trkpt lat="43.94137" lon="7.11179">
        <ele>527</ele>
        <time>2018-07-21T12:28:07.000Z</time>
      </trkpt>
      <trkpt lat="43.94136" lon="7.11179">
        <ele>527</ele>
        <time>2018-07-21T12:28:09.000Z</time>
      </trkpt>
      <trkpt lat="43.94135" lon="7.1118">
        <ele>527</ele>
        <time>2018-07-21T12:28:12.000Z</time>
      </trkpt>
      <trkpt lat="43.94134" lon="7.11181">
        <ele>527</ele>
        <time>2018-07-21T12:28:13.000Z</time>
      </trkpt>
      <trkpt lat="43.94134" lon="7.1118">
        <ele>527</ele>
        <time>2018-07-21T12:28:17.000Z</time>
      </trkpt>
      <trkpt lat="43.9413" lon="7.11187">
        <ele>527</ele>
        <time>2018-07-21T12:28:26.000Z</time>
      </trkpt>
      <trkpt lat="43.94123" lon="7.11199">
        <ele>528</ele>
        <time>2018-07-21T12:28:31.000Z</time>
      </trkpt>
      <trkpt lat="43.94122" lon="7.11198">
        <ele>528</ele>
        <time>2018-07-21T12:28:32.000Z</time>
      </trkpt>
      <trkpt lat="43.94122" lon="7.11192">
        <ele>527</ele>
        <time>2018-07-21T12:28:35.000Z</time>
      </trkpt>
      <trkpt lat="43.94123" lon="7.11181">
        <ele>526</ele>
        <time>2018-07-21T12:28:38.000Z</time>
      </trkpt>
      <trkpt lat="43.94123" lon="7.11175">
        <ele>526</ele>
        <time>2018-07-21T12:28:40.000Z</time>
      </trkpt>
      <trkpt lat="43.94122" lon="7.11175">
        <ele>526</ele>
        <time>2018-07-21T12:28:41.000Z</time>
      </trkpt>
      <trkpt lat="43.94121" lon="7.11176">
        <ele>526</ele>
        <time>2018-07-21T12:28:43.000Z</time>
      </trkpt>
      <trkpt lat="43.94119" lon="7.11179">
        <ele>526</ele>
        <time>2018-07-21T12:28:44.000Z</time>
      </trkpt>
      <trkpt lat="43.94115" lon="7.11187">
        <ele>526</ele>
        <time>2018-07-21T12:28:46.000Z</time>
      </trkpt>
      <trkpt lat="43.94113" lon="7.11188">
        <ele>526</ele>
        <time>2018-07-21T12:28:47.000Z</time>
      </trkpt>
      <trkpt lat="43.94112" lon="7.11186">
        <ele>525</ele>
        <time>2018-07-21T12:28:49.000Z</time>
      </trkpt>
      <trkpt lat="43.94112" lon="7.11182">
        <ele>525</ele>
        <time>2018-07-21T12:28:50.000Z</time>
      </trkpt>
      <trkpt lat="43.94112" lon="7.11171">
        <ele>524</ele>
        <time>2018-07-21T12:28:52.000Z</time>
      </trkpt>
      <trkpt lat="43.94111" lon="7.11165">
        <ele>515</ele>
        <time>2018-07-21T12:28:53.000Z</time>
      </trkpt>
      <trkpt lat="43.94111" lon="7.11146">
        <ele>514</ele>
        <time>2018-07-21T12:28:55.000Z</time>
      </trkpt>
      <trkpt lat="43.9411" lon="7.11137">
        <ele>513</ele>
        <time>2018-07-21T12:28:56.000Z</time>
      </trkpt>
      <trkpt lat="43.9411" lon="7.1113">
        <ele>512</ele>
        <time>2018-07-21T12:28:57.000Z</time>
      </trkpt>
      <trkpt lat="43.9411" lon="7.11124">
        <ele>512</ele>
        <time>2018-07-21T12:28:59.000Z</time>
      </trkpt>
      <trkpt lat="43.94109" lon="7.11121">
        <ele>512</ele>
        <time>2018-07-21T12:29:06.000Z</time>
      </trkpt>
      <trkpt lat="43.94109" lon="7.11121">
        <ele>511</ele>
        <time>2018-07-21T12:29:09.000Z</time>
      </trkpt>
      <trkpt lat="43.94107" lon="7.11119">
        <ele>511</ele>
        <time>2018-07-21T12:29:23.000Z</time>
      </trkpt>
      <trkpt lat="43.94105" lon="7.11119">
        <ele>511</ele>
        <time>2018-07-21T12:29:27.000Z</time>
      </trkpt>
      <trkpt lat="43.94103" lon="7.11123">
        <ele>512</ele>
        <time>2018-07-21T12:29:29.000Z</time>
      </trkpt>
      <trkpt lat="43.94095" lon="7.11143">
        <ele>514</ele>
        <time>2018-07-21T12:29:33.000Z</time>
      </trkpt>
      <trkpt lat="43.94088" lon="7.11161">
        <ele>516</ele>
        <time>2018-07-21T12:29:36.000Z</time>
      </trkpt>
      <trkpt lat="43.94087" lon="7.11165">
        <ele>516</ele>
        <time>2018-07-21T12:29:37.000Z</time>
      </trkpt>
      <trkpt lat="43.94086" lon="7.11168">
        <ele>518</ele>
        <time>2018-07-21T12:29:38.000Z</time>
      </trkpt>
      <trkpt lat="43.94085" lon="7.11166">
        <ele>517</ele>
        <time>2018-07-21T12:29:39.000Z</time>
      </trkpt>
      <trkpt lat="43.94084" lon="7.11164">
        <ele>517</ele>
        <time>2018-07-21T12:29:40.000Z</time>
      </trkpt>
      <trkpt lat="43.94082" lon="7.11152">
        <ele>509</ele>
        <time>2018-07-21T12:29:43.000Z</time>
      </trkpt>
      <trkpt lat="43.94082" lon="7.1115">
        <ele>508</ele>
        <time>2018-07-21T12:29:44.000Z</time>
      </trkpt>
      <trkpt lat="43.94082" lon="7.1115">
        <ele>508</ele>
        <time>2018-07-21T12:29:46.000Z</time>
      </trkpt>
      <trkpt lat="43.94081" lon="7.11148">
        <ele>507</ele>
        <time>2018-07-21T12:29:47.000Z</time>
      </trkpt>
      <trkpt lat="43.94081" lon="7.11145">
        <ele>507</ele>
        <time>2018-07-21T12:29:49.000Z</time>
      </trkpt>
      <trkpt lat="43.94081" lon="7.11139">
        <ele>505</ele>
        <time>2018-07-21T12:29:51.000Z</time>
      </trkpt>
      <trkpt lat="43.9408" lon="7.11136">
        <ele>504</ele>
        <time>2018-07-21T12:29:52.000Z</time>
      </trkpt>
      <trkpt lat="43.94076" lon="7.11112">
        <ele>502</ele>
        <time>2018-07-21T12:29:56.000Z</time>
      </trkpt>
      <trkpt lat="43.94075" lon="7.11104">
        <ele>502</ele>
        <time>2018-07-21T12:29:57.000Z</time>
      </trkpt>
      <trkpt lat="43.94074" lon="7.11088">
        <ele>503</ele>
        <time>2018-07-21T12:30:00.000Z</time>
      </trkpt>
      <trkpt lat="43.94072" lon="7.11086">
        <ele>503</ele>
        <time>2018-07-21T12:30:01.000Z</time>
      </trkpt>
      <trkpt lat="43.94069" lon="7.11087">
        <ele>503</ele>
        <time>2018-07-21T12:30:03.000Z</time>
      </trkpt>
      <trkpt lat="43.94069" lon="7.1109">
        <ele>502</ele>
        <time>2018-07-21T12:30:04.000Z</time>
      </trkpt>
      <trkpt lat="43.94067" lon="7.11095">
        <ele>502</ele>
        <time>2018-07-21T12:30:05.000Z</time>
      </trkpt>
      <trkpt lat="43.94065" lon="7.111">
        <ele>501</ele>
        <time>2018-07-21T12:30:06.000Z</time>
      </trkpt>
      <trkpt lat="43.94059" lon="7.11113">
        <ele>500</ele>
        <time>2018-07-21T12:30:09.000Z</time>
      </trkpt>
      <trkpt lat="43.94057" lon="7.11115">
        <ele>500</ele>
        <time>2018-07-21T12:30:10.000Z</time>
      </trkpt>
      <trkpt lat="43.94056" lon="7.11111">
        <ele>500</ele>
        <time>2018-07-21T12:30:11.000Z</time>
      </trkpt>
      <trkpt lat="43.94055" lon="7.11106">
        <ele>500</ele>
        <time>2018-07-21T12:30:12.000Z</time>
      </trkpt>
      <trkpt lat="43.94054" lon="7.11096">
        <ele>500</ele>
        <time>2018-07-21T12:30:14.000Z</time>
      </trkpt>
      <trkpt lat="43.94049" lon="7.11068">
        <ele>491</ele>
        <time>2018-07-21T12:30:18.000Z</time>
      </trkpt>
      <trkpt lat="43.94048" lon="7.11061">
        <ele>490</ele>
        <time>2018-07-21T12:30:19.000Z</time>
      </trkpt>
      <trkpt lat="43.94047" lon="7.11053">
        <ele>489</ele>
        <time>2018-07-21T12:30:21.000Z</time>
      </trkpt>
      <trkpt lat="43.94046" lon="7.11051">
        <ele>489</ele>
        <time>2018-07-21T12:30:22.000Z</time>
      </trkpt>
      <trkpt lat="43.94045" lon="7.11052">
        <ele>489</ele>
        <time>2018-07-21T12:30:23.000Z</time>
      </trkpt>
      <trkpt lat="43.94044" lon="7.11055">
        <ele>489</ele>
        <time>2018-07-21T12:30:24.000Z</time>
      </trkpt>
      <trkpt lat="43.94042" lon="7.11058">
        <ele>489</ele>
        <time>2018-07-21T12:30:25.000Z</time>
      </trkpt>
      <trkpt lat="43.94038" lon="7.11068">
        <ele>490</ele>
        <time>2018-07-21T12:30:27.000Z</time>
      </trkpt>
      <trkpt lat="43.94032" lon="7.1108">
        <ele>489</ele>
        <time>2018-07-21T12:30:30.000Z</time>
      </trkpt>
      <trkpt lat="43.9403" lon="7.11079">
        <ele>489</ele>
        <time>2018-07-21T12:30:31.000Z</time>
      </trkpt>
      <trkpt lat="43.94027" lon="7.11071">
        <ele>489</ele>
        <time>2018-07-21T12:30:33.000Z</time>
      </trkpt>
      <trkpt lat="43.94024" lon="7.11058">
        <ele>488</ele>
        <time>2018-07-21T12:30:35.000Z</time>
      </trkpt>
      <trkpt lat="43.94022" lon="7.1105">
        <ele>487</ele>
        <time>2018-07-21T12:30:36.000Z</time>
      </trkpt>
      <trkpt lat="43.94018" lon="7.11034">
        <ele>486</ele>
        <time>2018-07-21T12:30:38.000Z</time>
      </trkpt>
      <trkpt lat="43.94013" lon="7.11015">
        <ele>484</ele>
        <time>2018-07-21T12:30:40.000Z</time>
      </trkpt>
      <trkpt lat="43.9401" lon="7.11002">
        <ele>483</ele>
        <time>2018-07-21T12:30:42.000Z</time>
      </trkpt>
      <trkpt lat="43.94007" lon="7.10999">
        <ele>477</ele>
        <time>2018-07-21T12:30:44.000Z</time>
      </trkpt>
      <trkpt lat="43.94006" lon="7.11">
        <ele>482</ele>
        <time>2018-07-21T12:30:45.000Z</time>
      </trkpt>
      <trkpt lat="43.94004" lon="7.11007">
        <ele>483</ele>
        <time>2018-07-21T12:30:47.000Z</time>
      </trkpt>
      <trkpt lat="43.93998" lon="7.11023">
        <ele>477</ele>
        <time>2018-07-21T12:30:50.000Z</time>
      </trkpt>
      <trkpt lat="43.93994" lon="7.11037">
        <ele>476</ele>
        <time>2018-07-21T12:30:53.000Z</time>
      </trkpt>
      <trkpt lat="43.93991" lon="7.11034">
        <ele>476</ele>
        <time>2018-07-21T12:30:54.000Z</time>
      </trkpt>
      <trkpt lat="43.93989" lon="7.11032">
        <ele>476</ele>
        <time>2018-07-21T12:30:55.000Z</time>
      </trkpt>
      <trkpt lat="43.9398" lon="7.11018">
        <ele>475</ele>
        <time>2018-07-21T12:30:59.000Z</time>
      </trkpt>
      <trkpt lat="43.93979" lon="7.11017">
        <ele>475</ele>
        <time>2018-07-21T12:31:00.000Z</time>
      </trkpt>
      <trkpt lat="43.93977" lon="7.11019">
        <ele>475</ele>
        <time>2018-07-21T12:31:02.000Z</time>
      </trkpt>
      <trkpt lat="43.93972" lon="7.11033">
        <ele>474</ele>
        <time>2018-07-21T12:31:05.000Z</time>
      </trkpt>
      <trkpt lat="43.93968" lon="7.11041">
        <ele>474</ele>
        <time>2018-07-21T12:31:07.000Z</time>
      </trkpt>
      <trkpt lat="43.93966" lon="7.11038">
        <ele>473</ele>
        <time>2018-07-21T12:31:09.000Z</time>
      </trkpt>
      <trkpt lat="43.93965" lon="7.11035">
        <ele>473</ele>
        <time>2018-07-21T12:31:10.000Z</time>
      </trkpt>
      <trkpt lat="43.93962" lon="7.11025">
        <ele>472</ele>
        <time>2018-07-21T12:31:12.000Z</time>
      </trkpt>
      <trkpt lat="43.9396" lon="7.1102">
        <ele>472</ele>
        <time>2018-07-21T12:31:13.000Z</time>
      </trkpt>
      <trkpt lat="43.93958" lon="7.11014">
        <ele>471</ele>
        <time>2018-07-21T12:31:15.000Z</time>
      </trkpt>
      <trkpt lat="43.93957" lon="7.11014">
        <ele>471</ele>
        <time>2018-07-21T12:31:16.000Z</time>
      </trkpt>
      <trkpt lat="43.93956" lon="7.11016">
        <ele>471</ele>
        <time>2018-07-21T12:31:17.000Z</time>
      </trkpt>
      <trkpt lat="43.93952" lon="7.11022">
        <ele>471</ele>
        <time>2018-07-21T12:31:19.000Z</time>
      </trkpt>
      <trkpt lat="43.93949" lon="7.11027">
        <ele>470</ele>
        <time>2018-07-21T12:31:20.000Z</time>
      </trkpt>
      <trkpt lat="43.9394" lon="7.11041">
        <ele>470</ele>
        <time>2018-07-21T12:31:23.000Z</time>
      </trkpt>
      <trkpt lat="43.93939" lon="7.11048">
        <ele>470</ele>
        <time>2018-07-21T12:31:25.000Z</time>
      </trkpt>
      <trkpt lat="43.93941" lon="7.1105">
        <ele>470</ele>
        <time>2018-07-21T12:31:26.000Z</time>
      </trkpt>
      <trkpt lat="43.93944" lon="7.11061">
        <ele>471</ele>
        <time>2018-07-21T12:31:29.000Z</time>
      </trkpt>
      <trkpt lat="43.93945" lon="7.11062">
        <ele>471</ele>
        <time>2018-07-21T12:31:30.000Z</time>
      </trkpt>
      <trkpt lat="43.93946" lon="7.11066">
        <ele>471</ele>
        <time>2018-07-21T12:31:32.000Z</time>
      </trkpt>
      <trkpt lat="43.93945" lon="7.11067">
        <ele>471</ele>
        <time>2018-07-21T12:31:33.000Z</time>
      </trkpt>
      <trkpt lat="43.93943" lon="7.11067">
        <ele>470</ele>
        <time>2018-07-21T12:31:34.000Z</time>
      </trkpt>
      <trkpt lat="43.93937" lon="7.11068">
        <ele>470</ele>
        <time>2018-07-21T12:31:36.000Z</time>
      </trkpt>
      <trkpt lat="43.93935" lon="7.11068">
        <ele>469</ele>
        <time>2018-07-21T12:31:37.000Z</time>
      </trkpt>
      <trkpt lat="43.93934" lon="7.11067">
        <ele>469</ele>
        <time>2018-07-21T12:31:38.000Z</time>
      </trkpt>
      <trkpt lat="43.93935" lon="7.1107">
        <ele>469</ele>
        <time>2018-07-21T12:31:40.000Z</time>
      </trkpt>
      <trkpt lat="43.93936" lon="7.1107">
        <ele>469</ele>
        <time>2018-07-21T12:31:42.000Z</time>
      </trkpt>
      <trkpt lat="43.93939" lon="7.11072">
        <ele>470</ele>
        <time>2018-07-21T12:31:44.000Z</time>
      </trkpt>
      <trkpt lat="43.93939" lon="7.11076">
        <ele>470</ele>
        <time>2018-07-21T12:31:46.000Z</time>
      </trkpt>
      <trkpt lat="43.93938" lon="7.11075">
        <ele>469</ele>
        <time>2018-07-21T12:31:47.000Z</time>
      </trkpt>
      <trkpt lat="43.93934" lon="7.11074">
        <ele>469</ele>
        <time>2018-07-21T12:31:49.000Z</time>
      </trkpt>
      <trkpt lat="43.93929" lon="7.11075">
        <ele>468</ele>
        <time>2018-07-21T12:31:51.000Z</time>
      </trkpt>
      <trkpt lat="43.9393" lon="7.11077">
        <ele>468</ele>
        <time>2018-07-21T12:31:54.000Z</time>
      </trkpt>
      <trkpt lat="43.93931" lon="7.11077">
        <ele>468</ele>
        <time>2018-07-21T12:31:55.000Z</time>
      </trkpt>
      <trkpt lat="43.9394" lon="7.1108">
        <ele>470</ele>
        <time>2018-07-21T12:31:58.000Z</time>
      </trkpt>
      <trkpt lat="43.93937" lon="7.11082">
        <ele>469</ele>
        <time>2018-07-21T12:31:59.000Z</time>
      </trkpt>
      <trkpt lat="43.93936" lon="7.11082">
        <ele>469</ele>
        <time>2018-07-21T12:32:00.000Z</time>
      </trkpt>
      <trkpt lat="43.93934" lon="7.11082">
        <ele>468</ele>
        <time>2018-07-21T12:32:01.000Z</time>
      </trkpt>
      <trkpt lat="43.93929" lon="7.11082">
        <ele>467</ele>
        <time>2018-07-21T12:32:03.000Z</time>
      </trkpt>
      <trkpt lat="43.93926" lon="7.11082">
        <ele>467</ele>
        <time>2018-07-21T12:32:04.000Z</time>
      </trkpt>
      <trkpt lat="43.93925" lon="7.11083">
        <ele>467</ele>
        <time>2018-07-21T12:32:06.000Z</time>
      </trkpt>
      <trkpt lat="43.93925" lon="7.11084">
        <ele>467</ele>
        <time>2018-07-21T12:32:07.000Z</time>
      </trkpt>
      <trkpt lat="43.93926" lon="7.11086">
        <ele>467</ele>
        <time>2018-07-21T12:32:19.000Z</time>
      </trkpt>
      <trkpt lat="43.93934" lon="7.11089">
        <ele>469</ele>
        <time>2018-07-21T12:32:25.000Z</time>
      </trkpt>
      <trkpt lat="43.93933" lon="7.11093">
        <ele>469</ele>
        <time>2018-07-21T12:32:27.000Z</time>
      </trkpt>
      <trkpt lat="43.93931" lon="7.11094">
        <ele>469</ele>
        <time>2018-07-21T12:32:28.000Z</time>
      </trkpt>
      <trkpt lat="43.93923" lon="7.11099">
        <ele>468</ele>
        <time>2018-07-21T12:32:31.000Z</time>
      </trkpt>
      <trkpt lat="43.93922" lon="7.11101">
        <ele>468</ele>
        <time>2018-07-21T12:32:32.000Z</time>
      </trkpt>
      <trkpt lat="43.9392" lon="7.11104">
        <ele>468</ele>
        <time>2018-07-21T12:32:34.000Z</time>
      </trkpt>
      <trkpt lat="43.9392" lon="7.11104">
        <ele>468</ele>
        <time>2018-07-21T12:32:36.000Z</time>
      </trkpt>
      <trkpt lat="43.9392" lon="7.11105">
        <ele>469</ele>
        <time>2018-07-21T12:32:48.000Z</time>
      </trkpt>
      <trkpt lat="43.93919" lon="7.11105">
        <ele>469</ele>
        <time>2018-07-21T12:32:49.000Z</time>
      </trkpt>
      <trkpt lat="43.93917" lon="7.11101">
        <ele>468</ele>
        <time>2018-07-21T12:32:52.000Z</time>
      </trkpt>
      <trkpt lat="43.93917" lon="7.11092">
        <ele>467</ele>
        <time>2018-07-21T12:32:56.000Z</time>
      </trkpt>
      <trkpt lat="43.93916" lon="7.11089">
        <ele>462</ele>
        <time>2018-07-21T12:32:57.000Z</time>
      </trkpt>
      <trkpt lat="43.93908" lon="7.11063">
        <ele>457</ele>
        <time>2018-07-21T12:33:05.000Z</time>
      </trkpt>
      <trkpt lat="43.93903" lon="7.11029">
        <ele>453</ele>
        <time>2018-07-21T12:33:13.000Z</time>
      </trkpt>
      <trkpt lat="43.93902" lon="7.11017">
        <ele>454</ele>
        <time>2018-07-21T12:33:15.000Z</time>
      </trkpt>
      <trkpt lat="43.93903" lon="7.11004">
        <ele>454</ele>
        <time>2018-07-21T12:33:17.000Z</time>
      </trkpt>
      <trkpt lat="43.93917" lon="7.10987">
        <ele>456</ele>
        <time>2018-07-21T12:33:20.000Z</time>
      </trkpt>
      <trkpt lat="43.93922" lon="7.10981">
        <ele>455</ele>
        <time>2018-07-21T12:33:21.000Z</time>
      </trkpt>
      <trkpt lat="43.93933" lon="7.10961">
        <ele>451</ele>
        <time>2018-07-21T12:33:24.000Z</time>
      </trkpt>
      <trkpt lat="43.93937" lon="7.10953">
        <ele>450</ele>
        <time>2018-07-21T12:33:25.000Z</time>
      </trkpt>
      <trkpt lat="43.93945" lon="7.1094">
        <ele>448</ele>
        <time>2018-07-21T12:33:27.000Z</time>
      </trkpt>
      <trkpt lat="43.93956" lon="7.10927">
        <ele>449</ele>
        <time>2018-07-21T12:33:29.000Z</time>
      </trkpt>
      <trkpt lat="43.93962" lon="7.10923">
        <ele>449</ele>
        <time>2018-07-21T12:33:30.000Z</time>
      </trkpt>
      <trkpt lat="43.93984" lon="7.10912">
        <ele>442</ele>
        <time>2018-07-21T12:33:33.000Z</time>
      </trkpt>
      <trkpt lat="43.93991" lon="7.10911">
        <ele>444</ele>
        <time>2018-07-21T12:33:34.000Z</time>
      </trkpt>
      <trkpt lat="43.94009" lon="7.10912">
        <ele>450</ele>
        <time>2018-07-21T12:33:36.000Z</time>
      </trkpt>
      <trkpt lat="43.94017" lon="7.10913">
        <ele>450</ele>
        <time>2018-07-21T12:33:37.000Z</time>
      </trkpt>
      <trkpt lat="43.94032" lon="7.1092">
        <ele>461</ele>
        <time>2018-07-21T12:33:39.000Z</time>
      </trkpt>
      <trkpt lat="43.94046" lon="7.10917">
        <ele>461</ele>
        <time>2018-07-21T12:33:41.000Z</time>
      </trkpt>
      <trkpt lat="43.94051" lon="7.10911">
        <ele>451</ele>
        <time>2018-07-21T12:33:42.000Z</time>
      </trkpt>
      <trkpt lat="43.9406" lon="7.10898">
        <ele>451</ele>
        <time>2018-07-21T12:33:44.000Z</time>
      </trkpt>
      <trkpt lat="43.94071" lon="7.10882">
        <ele>451</ele>
        <time>2018-07-21T12:33:47.000Z</time>
      </trkpt>
      <trkpt lat="43.94074" lon="7.10876">
        <ele>451</ele>
        <time>2018-07-21T12:33:48.000Z</time>
      </trkpt>
      <trkpt lat="43.94075" lon="7.1087">
        <ele>450</ele>
        <time>2018-07-21T12:33:49.000Z</time>
      </trkpt>
      <trkpt lat="43.94075" lon="7.10858">
        <ele>450</ele>
        <time>2018-07-21T12:33:51.000Z</time>
      </trkpt>
      <trkpt lat="43.94073" lon="7.10846">
        <ele>450</ele>
        <time>2018-07-21T12:33:53.000Z</time>
      </trkpt>
      <trkpt lat="43.94068" lon="7.10824">
        <ele>452</ele>
        <time>2018-07-21T12:33:57.000Z</time>
      </trkpt>
      <trkpt lat="43.94068" lon="7.10819">
        <ele>452</ele>
        <time>2018-07-21T12:33:58.000Z</time>
      </trkpt>
      <trkpt lat="43.9407" lon="7.10795">
        <ele>453</ele>
        <time>2018-07-21T12:34:03.000Z</time>
      </trkpt>
      <trkpt lat="43.94073" lon="7.10776">
        <ele>454</ele>
        <time>2018-07-21T12:34:07.000Z</time>
      </trkpt>
      <trkpt lat="43.94074" lon="7.10768">
        <ele>455</ele>
        <time>2018-07-21T12:34:09.000Z</time>
      </trkpt>
      <trkpt lat="43.94078" lon="7.1075">
        <ele>457</ele>
        <time>2018-07-21T12:34:13.000Z</time>
      </trkpt>
      <trkpt lat="43.94087" lon="7.1073">
        <ele>456</ele>
        <time>2018-07-21T12:34:18.000Z</time>
      </trkpt>
      <trkpt lat="43.94091" lon="7.10728">
        <ele>456</ele>
        <time>2018-07-21T12:34:19.000Z</time>
      </trkpt>
      <trkpt lat="43.941" lon="7.10725">
        <ele>456</ele>
        <time>2018-07-21T12:34:21.000Z</time>
      </trkpt>
      <trkpt lat="43.94133" lon="7.10715">
        <ele>455</ele>
        <time>2018-07-21T12:34:27.000Z</time>
      </trkpt>
      <trkpt lat="43.94146" lon="7.10715">
        <ele>455</ele>
        <time>2018-07-21T12:34:29.000Z</time>
      </trkpt>
      <trkpt lat="43.94151" lon="7.10717">
        <ele>455</ele>
        <time>2018-07-21T12:34:30.000Z</time>
      </trkpt>
      <trkpt lat="43.94161" lon="7.10725">
        <ele>457</ele>
        <time>2018-07-21T12:34:32.000Z</time>
      </trkpt>
      <trkpt lat="43.94172" lon="7.10731">
        <ele>461</ele>
        <time>2018-07-21T12:34:34.000Z</time>
      </trkpt>
      <trkpt lat="43.94178" lon="7.10728">
        <ele>460</ele>
        <time>2018-07-21T12:34:35.000Z</time>
      </trkpt>
      <trkpt lat="43.94181" lon="7.10712">
        <ele>458</ele>
        <time>2018-07-21T12:34:37.000Z</time>
      </trkpt>
      <trkpt lat="43.94181" lon="7.10703">
        <ele>456</ele>
        <time>2018-07-21T12:34:38.000Z</time>
      </trkpt>
      <trkpt lat="43.94184" lon="7.10694">
        <ele>454</ele>
        <time>2018-07-21T12:34:39.000Z</time>
      </trkpt>
      <trkpt lat="43.94188" lon="7.10686">
        <ele>453</ele>
        <time>2018-07-21T12:34:40.000Z</time>
      </trkpt>
      <trkpt lat="43.94194" lon="7.10681">
        <ele>453</ele>
        <time>2018-07-21T12:34:41.000Z</time>
      </trkpt>
      <trkpt lat="43.942" lon="7.10677">
        <ele>454</ele>
        <time>2018-07-21T12:34:42.000Z</time>
      </trkpt>
      <trkpt lat="43.94214" lon="7.10674">
        <ele>455</ele>
        <time>2018-07-21T12:34:44.000Z</time>
      </trkpt>
      <trkpt lat="43.94228" lon="7.10676">
        <ele>456</ele>
        <time>2018-07-21T12:34:46.000Z</time>
      </trkpt>
      <trkpt lat="43.94242" lon="7.10679">
        <ele>455</ele>
        <time>2018-07-21T12:34:48.000Z</time>
      </trkpt>
      <trkpt lat="43.94249" lon="7.10678">
        <ele>455</ele>
        <time>2018-07-21T12:34:49.000Z</time>
      </trkpt>
      <trkpt lat="43.94259" lon="7.10663">
        <ele>450</ele>
        <time>2018-07-21T12:34:51.000Z</time>
      </trkpt>
      <trkpt lat="43.94263" lon="7.10655">
        <ele>449</ele>
        <time>2018-07-21T12:34:52.000Z</time>
      </trkpt>
      <trkpt lat="43.94273" lon="7.10637">
        <ele>447</ele>
        <time>2018-07-21T12:34:54.000Z</time>
      </trkpt>
      <trkpt lat="43.94275" lon="7.10617">
        <ele>444</ele>
        <time>2018-07-21T12:34:56.000Z</time>
      </trkpt>
      <trkpt lat="43.94274" lon="7.10595">
        <ele>441</ele>
        <time>2018-07-21T12:34:58.000Z</time>
      </trkpt>
      <trkpt lat="43.9428" lon="7.10586">
        <ele>441</ele>
        <time>2018-07-21T12:34:59.000Z</time>
      </trkpt>
      <trkpt lat="43.9429" lon="7.1057">
        <ele>429</ele>
        <time>2018-07-21T12:35:01.000Z</time>
      </trkpt>
      <trkpt lat="43.94297" lon="7.10563">
        <ele>428</ele>
        <time>2018-07-21T12:35:02.000Z</time>
      </trkpt>
      <trkpt lat="43.94311" lon="7.10557">
        <ele>429</ele>
        <time>2018-07-21T12:35:04.000Z</time>
      </trkpt>
      <trkpt lat="43.94318" lon="7.10566">
        <ele>431</ele>
        <time>2018-07-21T12:35:05.000Z</time>
      </trkpt>
      <trkpt lat="43.94322" lon="7.10576">
        <ele>433</ele>
        <time>2018-07-21T12:35:06.000Z</time>
      </trkpt>
      <trkpt lat="43.94326" lon="7.10597">
        <ele>442</ele>
        <time>2018-07-21T12:35:08.000Z</time>
      </trkpt>
      <trkpt lat="43.94331" lon="7.10603">
        <ele>443</ele>
        <time>2018-07-21T12:35:09.000Z</time>
      </trkpt>
      <trkpt lat="43.94336" lon="7.10609">
        <ele>447</ele>
        <time>2018-07-21T12:35:10.000Z</time>
      </trkpt>
      <trkpt lat="43.94344" lon="7.10605">
        <ele>446</ele>
        <time>2018-07-21T12:35:11.000Z</time>
      </trkpt>
      <trkpt lat="43.9435" lon="7.10602">
        <ele>446</ele>
        <time>2018-07-21T12:35:12.000Z</time>
      </trkpt>
      <trkpt lat="43.94364" lon="7.10593">
        <ele>446</ele>
        <time>2018-07-21T12:35:14.000Z</time>
      </trkpt>
      <trkpt lat="43.94374" lon="7.10578">
        <ele>432</ele>
        <time>2018-07-21T12:35:16.000Z</time>
      </trkpt>
      <trkpt lat="43.9439" lon="7.1056">
        <ele>431</ele>
        <time>2018-07-21T12:35:19.000Z</time>
      </trkpt>
      <trkpt lat="43.94397" lon="7.10563">
        <ele>432</ele>
        <time>2018-07-21T12:35:20.000Z</time>
      </trkpt>
      <trkpt lat="43.94404" lon="7.10567">
        <ele>433</ele>
        <time>2018-07-21T12:35:21.000Z</time>
      </trkpt>
      <trkpt lat="43.94419" lon="7.10571">
        <ele>435</ele>
        <time>2018-07-21T12:35:23.000Z</time>
      </trkpt>
      <trkpt lat="43.94426" lon="7.10565">
        <ele>434</ele>
        <time>2018-07-21T12:35:24.000Z</time>
      </trkpt>
      <trkpt lat="43.94439" lon="7.10555">
        <ele>433</ele>
        <time>2018-07-21T12:35:26.000Z</time>
      </trkpt>
      <trkpt lat="43.94458" lon="7.1054">
        <ele>432</ele>
        <time>2018-07-21T12:35:29.000Z</time>
      </trkpt>
      <trkpt lat="43.94465" lon="7.10536">
        <ele>432</ele>
        <time>2018-07-21T12:35:30.000Z</time>
      </trkpt>
      <trkpt lat="43.94495" lon="7.10519">
        <ele>431</ele>
        <time>2018-07-21T12:35:35.000Z</time>
      </trkpt>
      <trkpt lat="43.94501" lon="7.10517">
        <ele>436</ele>
        <time>2018-07-21T12:35:36.000Z</time>
      </trkpt>
      <trkpt lat="43.94506" lon="7.10514">
        <ele>436</ele>
        <time>2018-07-21T12:35:37.000Z</time>
      </trkpt>
      <trkpt lat="43.94516" lon="7.10505">
        <ele>436</ele>
        <time>2018-07-21T12:35:39.000Z</time>
      </trkpt>
      <trkpt lat="43.9452" lon="7.10491">
        <ele>434</ele>
        <time>2018-07-21T12:35:41.000Z</time>
      </trkpt>
      <trkpt lat="43.94517" lon="7.10469">
        <ele>434</ele>
        <time>2018-07-21T12:35:44.000Z</time>
      </trkpt>
      <trkpt lat="43.94511" lon="7.10447">
        <ele>433</ele>
        <time>2018-07-21T12:35:47.000Z</time>
      </trkpt>
      <trkpt lat="43.94511" lon="7.10433">
        <ele>430</ele>
        <time>2018-07-21T12:35:49.000Z</time>
      </trkpt>
      <trkpt lat="43.94512" lon="7.10426">
        <ele>429</ele>
        <time>2018-07-21T12:35:50.000Z</time>
      </trkpt>
      <trkpt lat="43.94524" lon="7.10386">
        <ele>436</ele>
        <time>2018-07-21T12:35:57.000Z</time>
      </trkpt>
      <trkpt lat="43.94531" lon="7.10364">
        <ele>438</ele>
        <time>2018-07-21T12:36:01.000Z</time>
      </trkpt>
      <trkpt lat="43.94533" lon="7.10352">
        <ele>438</ele>
        <time>2018-07-21T12:36:03.000Z</time>
      </trkpt>
      <trkpt lat="43.94534" lon="7.10346">
        <ele>438</ele>
        <time>2018-07-21T12:36:04.000Z</time>
      </trkpt>
      <trkpt lat="43.94531" lon="7.10335">
        <ele>437</ele>
        <time>2018-07-21T12:36:06.000Z</time>
      </trkpt>
      <trkpt lat="43.94528" lon="7.10331">
        <ele>438</ele>
        <time>2018-07-21T12:36:07.000Z</time>
      </trkpt>
      <trkpt lat="43.94524" lon="7.1032">
        <ele>437</ele>
        <time>2018-07-21T12:36:09.000Z</time>
      </trkpt>
      <trkpt lat="43.94522" lon="7.1031">
        <ele>438</ele>
        <time>2018-07-21T12:36:11.000Z</time>
      </trkpt>
      <trkpt lat="43.94524" lon="7.10293">
        <ele>440</ele>
        <time>2018-07-21T12:36:14.000Z</time>
      </trkpt>
      <trkpt lat="43.94527" lon="7.10282">
        <ele>441</ele>
        <time>2018-07-21T12:36:16.000Z</time>
      </trkpt>
      <trkpt lat="43.94533" lon="7.10263">
        <ele>443</ele>
        <time>2018-07-21T12:36:20.000Z</time>
      </trkpt>
      <trkpt lat="43.94538" lon="7.10242">
        <ele>446</ele>
        <time>2018-07-21T12:36:24.000Z</time>
      </trkpt>
      <trkpt lat="43.94532" lon="7.10214">
        <ele>446</ele>
        <time>2018-07-21T12:36:29.000Z</time>
      </trkpt>
      <trkpt lat="43.94523" lon="7.10187">
        <ele>445</ele>
        <time>2018-07-21T12:36:34.000Z</time>
      </trkpt>
      <trkpt lat="43.94519" lon="7.10171">
        <ele>444</ele>
        <time>2018-07-21T12:36:37.000Z</time>
      </trkpt>
      <trkpt lat="43.94516" lon="7.10153">
        <ele>441</ele>
        <time>2018-07-21T12:36:40.000Z</time>
      </trkpt>
      <trkpt lat="43.94517" lon="7.10139">
        <ele>442</ele>
        <time>2018-07-21T12:36:42.000Z</time>
      </trkpt>
      <trkpt lat="43.94528" lon="7.10116">
        <ele>441</ele>
        <time>2018-07-21T12:36:46.000Z</time>
      </trkpt>
      <trkpt lat="43.94532" lon="7.10111">
        <ele>441</ele>
        <time>2018-07-21T12:36:47.000Z</time>
      </trkpt>
      <trkpt lat="43.9454" lon="7.101">
        <ele>442</ele>
        <time>2018-07-21T12:36:49.000Z</time>
      </trkpt>
      <trkpt lat="43.94547" lon="7.10086">
        <ele>442</ele>
        <time>2018-07-21T12:36:51.000Z</time>
      </trkpt>
      <trkpt lat="43.94549" lon="7.10069">
        <ele>440</ele>
        <time>2018-07-21T12:36:53.000Z</time>
      </trkpt>
      <trkpt lat="43.94548" lon="7.10059">
        <ele>440</ele>
        <time>2018-07-21T12:36:54.000Z</time>
      </trkpt>
      <trkpt lat="43.94544" lon="7.1005">
        <ele>439</ele>
        <time>2018-07-21T12:36:55.000Z</time>
      </trkpt>
      <trkpt lat="43.94535" lon="7.10033">
        <ele>438</ele>
        <time>2018-07-21T12:36:57.000Z</time>
      </trkpt>
      <trkpt lat="43.94524" lon="7.10017">
        <ele>436</ele>
        <time>2018-07-21T12:36:59.000Z</time>
      </trkpt>
      <trkpt lat="43.94517" lon="7.10011">
        <ele>435</ele>
        <time>2018-07-21T12:37:00.000Z</time>
      </trkpt>
      <trkpt lat="43.94509" lon="7.10008">
        <ele>433</ele>
        <time>2018-07-21T12:37:01.000Z</time>
      </trkpt>
      <trkpt lat="43.94493" lon="7.10003">
        <ele>429</ele>
        <time>2018-07-21T12:37:03.000Z</time>
      </trkpt>
      <trkpt lat="43.94484" lon="7.09997">
        <ele>430</ele>
        <time>2018-07-21T12:37:04.000Z</time>
      </trkpt>
      <trkpt lat="43.94476" lon="7.0999">
        <ele>430</ele>
        <time>2018-07-21T12:37:05.000Z</time>
      </trkpt>
      <trkpt lat="43.9446" lon="7.09982">
        <ele>429</ele>
        <time>2018-07-21T12:37:07.000Z</time>
      </trkpt>
      <trkpt lat="43.94452" lon="7.09981">
        <ele>429</ele>
        <time>2018-07-21T12:37:08.000Z</time>
      </trkpt>
      <trkpt lat="43.94443" lon="7.09978">
        <ele>428</ele>
        <time>2018-07-21T12:37:09.000Z</time>
      </trkpt>
      <trkpt lat="43.94436" lon="7.09972">
        <ele>428</ele>
        <time>2018-07-21T12:37:10.000Z</time>
      </trkpt>
      <trkpt lat="43.94428" lon="7.09952">
        <ele>427</ele>
        <time>2018-07-21T12:37:12.000Z</time>
      </trkpt>
      <trkpt lat="43.94425" lon="7.09941">
        <ele>427</ele>
        <time>2018-07-21T12:37:13.000Z</time>
      </trkpt>
      <trkpt lat="43.94419" lon="7.09916">
        <ele>422</ele>
        <time>2018-07-21T12:37:15.000Z</time>
      </trkpt>
      <trkpt lat="43.94413" lon="7.09891">
        <ele>413</ele>
        <time>2018-07-21T12:37:17.000Z</time>
      </trkpt>
      <trkpt lat="43.94412" lon="7.09878">
        <ele>411</ele>
        <time>2018-07-21T12:37:18.000Z</time>
      </trkpt>
      <trkpt lat="43.94411" lon="7.09865">
        <ele>410</ele>
        <time>2018-07-21T12:37:19.000Z</time>
      </trkpt>
      <trkpt lat="43.94407" lon="7.0984">
        <ele>411</ele>
        <time>2018-07-21T12:37:21.000Z</time>
      </trkpt>
      <trkpt lat="43.94395" lon="7.09821">
        <ele>402</ele>
        <time>2018-07-21T12:37:23.000Z</time>
      </trkpt>
      <trkpt lat="43.94387" lon="7.09815">
        <ele>400</ele>
        <time>2018-07-21T12:37:24.000Z</time>
      </trkpt>
      <trkpt lat="43.94379" lon="7.09798">
        <ele>398</ele>
        <time>2018-07-21T12:37:26.000Z</time>
      </trkpt>
      <trkpt lat="43.94385" lon="7.09788">
        <ele>397</ele>
        <time>2018-07-21T12:37:28.000Z</time>
      </trkpt>
      <trkpt lat="43.94398" lon="7.09788">
        <ele>398</ele>
        <time>2018-07-21T12:37:30.000Z</time>
      </trkpt>
      <trkpt lat="43.94405" lon="7.09787">
        <ele>399</ele>
        <time>2018-07-21T12:37:31.000Z</time>
      </trkpt>
      <trkpt lat="43.94418" lon="7.09783">
        <ele>409</ele>
        <time>2018-07-21T12:37:33.000Z</time>
      </trkpt>
      <trkpt lat="43.94425" lon="7.09779">
        <ele>409</ele>
        <time>2018-07-21T12:37:34.000Z</time>
      </trkpt>
      <trkpt lat="43.94433" lon="7.09775">
        <ele>408</ele>
        <time>2018-07-21T12:37:35.000Z</time>
      </trkpt>
      <trkpt lat="43.94448" lon="7.09769">
        <ele>410</ele>
        <time>2018-07-21T12:37:37.000Z</time>
      </trkpt>
      <trkpt lat="43.94455" lon="7.09766">
        <ele>411</ele>
        <time>2018-07-21T12:37:38.000Z</time>
      </trkpt>
      <trkpt lat="43.94471" lon="7.0976">
        <ele>412</ele>
        <time>2018-07-21T12:37:40.000Z</time>
      </trkpt>
      <trkpt lat="43.94477" lon="7.09754">
        <ele>412</ele>
        <time>2018-07-21T12:37:41.000Z</time>
      </trkpt>
      <trkpt lat="43.94481" lon="7.09744">
        <ele>406</ele>
        <time>2018-07-21T12:37:42.000Z</time>
      </trkpt>
      <trkpt lat="43.94483" lon="7.09723">
        <ele>405</ele>
        <time>2018-07-21T12:37:44.000Z</time>
      </trkpt>
      <trkpt lat="43.94483" lon="7.09713">
        <ele>404</ele>
        <time>2018-07-21T12:37:45.000Z</time>
      </trkpt>
      <trkpt lat="43.94472" lon="7.09687">
        <ele>403</ele>
        <time>2018-07-21T12:37:48.000Z</time>
      </trkpt>
      <trkpt lat="43.94447" lon="7.09669">
        <ele>403</ele>
        <time>2018-07-21T12:37:52.000Z</time>
      </trkpt>
      <trkpt lat="43.94427" lon="7.09671">
        <ele>403</ele>
        <time>2018-07-21T12:37:55.000Z</time>
      </trkpt>
      <trkpt lat="43.94421" lon="7.09673">
        <ele>404</ele>
        <time>2018-07-21T12:37:56.000Z</time>
      </trkpt>
      <trkpt lat="43.94386" lon="7.09675">
        <ele>401</ele>
        <time>2018-07-21T12:38:02.000Z</time>
      </trkpt>
      <trkpt lat="43.94348" lon="7.09673">
        <ele>404</ele>
        <time>2018-07-21T12:38:09.000Z</time>
      </trkpt>
      <trkpt lat="43.94333" lon="7.09674">
        <ele>408</ele>
        <time>2018-07-21T12:38:12.000Z</time>
      </trkpt>
      <trkpt lat="43.94319" lon="7.09675">
        <ele>408</ele>
        <time>2018-07-21T12:38:15.000Z</time>
      </trkpt>
      <trkpt lat="43.94309" lon="7.09677">
        <ele>409</ele>
        <time>2018-07-21T12:38:17.000Z</time>
      </trkpt>
      <trkpt lat="43.9429" lon="7.09682">
        <ele>412</ele>
        <time>2018-07-21T12:38:21.000Z</time>
      </trkpt>
      <trkpt lat="43.94286" lon="7.09684">
        <ele>412</ele>
        <time>2018-07-21T12:38:22.000Z</time>
      </trkpt>
      <trkpt lat="43.94279" lon="7.09691">
        <ele>413</ele>
        <time>2018-07-21T12:38:24.000Z</time>
      </trkpt>
      <trkpt lat="43.94275" lon="7.09695">
        <ele>413</ele>
        <time>2018-07-21T12:38:25.000Z</time>
      </trkpt>
      <trkpt lat="43.94266" lon="7.0971">
        <ele>410</ele>
        <time>2018-07-21T12:38:28.000Z</time>
      </trkpt>
      <trkpt lat="43.94256" lon="7.09734">
        <ele>404</ele>
        <time>2018-07-21T12:38:32.000Z</time>
      </trkpt>
      <trkpt lat="43.94248" lon="7.09743">
        <ele>402</ele>
        <time>2018-07-21T12:38:34.000Z</time>
      </trkpt>
      <trkpt lat="43.94231" lon="7.09751">
        <ele>391</ele>
        <time>2018-07-21T12:38:38.000Z</time>
      </trkpt>
      <trkpt lat="43.94208" lon="7.09745">
        <ele>405</ele>
        <time>2018-07-21T12:38:43.000Z</time>
      </trkpt>
      <trkpt lat="43.94199" lon="7.0974">
        <ele>405</ele>
        <time>2018-07-21T12:38:45.000Z</time>
      </trkpt>
      <trkpt lat="43.94187" lon="7.0973">
        <ele>405</ele>
        <time>2018-07-21T12:38:48.000Z</time>
      </trkpt>
      <trkpt lat="43.94175" lon="7.0972">
        <ele>407</ele>
        <time>2018-07-21T12:38:51.000Z</time>
      </trkpt>
      <trkpt lat="43.94163" lon="7.09713">
        <ele>402</ele>
        <time>2018-07-21T12:38:54.000Z</time>
      </trkpt>
      <trkpt lat="43.94127" lon="7.09704">
        <ele>402</ele>
        <time>2018-07-21T12:39:02.000Z</time>
      </trkpt>
      <trkpt lat="43.94118" lon="7.097">
        <ele>403</ele>
        <time>2018-07-21T12:39:04.000Z</time>
      </trkpt>
      <trkpt lat="43.94105" lon="7.09686">
        <ele>406</ele>
        <time>2018-07-21T12:39:08.000Z</time>
      </trkpt>
      <trkpt lat="43.94093" lon="7.09673">
        <ele>411</ele>
        <time>2018-07-21T12:39:12.000Z</time>
      </trkpt>
      <trkpt lat="43.94089" lon="7.09671">
        <ele>412</ele>
        <time>2018-07-21T12:39:13.000Z</time>
      </trkpt>
      <trkpt lat="43.9408" lon="7.09668">
        <ele>414</ele>
        <time>2018-07-21T12:39:15.000Z</time>
      </trkpt>
      <trkpt lat="43.94068" lon="7.09668">
        <ele>410</ele>
        <time>2018-07-21T12:39:18.000Z</time>
      </trkpt>
      <trkpt lat="43.94056" lon="7.09672">
        <ele>408</ele>
        <time>2018-07-21T12:39:21.000Z</time>
      </trkpt>
      <trkpt lat="43.94049" lon="7.09677">
        <ele>407</ele>
        <time>2018-07-21T12:39:23.000Z</time>
      </trkpt>
      <trkpt lat="43.94041" lon="7.09682">
        <ele>407</ele>
        <time>2018-07-21T12:39:25.000Z</time>
      </trkpt>
      <trkpt lat="43.9403" lon="7.09685">
        <ele>408</ele>
        <time>2018-07-21T12:39:28.000Z</time>
      </trkpt>
      <trkpt lat="43.93987" lon="7.09693">
        <ele>420</ele>
        <time>2018-07-21T12:39:38.000Z</time>
      </trkpt>
      <trkpt lat="43.93975" lon="7.09698">
        <ele>420</ele>
        <time>2018-07-21T12:39:41.000Z</time>
      </trkpt>
      <trkpt lat="43.93971" lon="7.09701">
        <ele>420</ele>
        <time>2018-07-21T12:39:42.000Z</time>
      </trkpt>
      <trkpt lat="43.93964" lon="7.09707">
        <ele>419</ele>
        <time>2018-07-21T12:39:44.000Z</time>
      </trkpt>
      <trkpt lat="43.93938" lon="7.09741">
        <ele>417</ele>
        <time>2018-07-21T12:39:52.000Z</time>
      </trkpt>
      <trkpt lat="43.93924" lon="7.09764">
        <ele>403</ele>
        <time>2018-07-21T12:39:57.000Z</time>
      </trkpt>
      <trkpt lat="43.93918" lon="7.09772">
        <ele>399</ele>
        <time>2018-07-21T12:39:59.000Z</time>
      </trkpt>
      <trkpt lat="43.93898" lon="7.09803">
        <ele>404</ele>
        <time>2018-07-21T12:40:06.000Z</time>
      </trkpt>
      <trkpt lat="43.93882" lon="7.09809">
        <ele>405</ele>
        <time>2018-07-21T12:40:10.000Z</time>
      </trkpt>
      <trkpt lat="43.93878" lon="7.09809">
        <ele>405</ele>
        <time>2018-07-21T12:40:11.000Z</time>
      </trkpt>
      <trkpt lat="43.93859" lon="7.09801">
        <ele>408</ele>
        <time>2018-07-21T12:40:16.000Z</time>
      </trkpt>
      <trkpt lat="43.93836" lon="7.09796">
        <ele>410</ele>
        <time>2018-07-21T12:40:22.000Z</time>
      </trkpt>
      <trkpt lat="43.93833" lon="7.09798">
        <ele>414</ele>
        <time>2018-07-21T12:40:23.000Z</time>
      </trkpt>
      <trkpt lat="43.93823" lon="7.09808">
        <ele>411</ele>
        <time>2018-07-21T12:40:26.000Z</time>
      </trkpt>
      <trkpt lat="43.93819" lon="7.09811">
        <ele>411</ele>
        <time>2018-07-21T12:40:27.000Z</time>
      </trkpt>
      <trkpt lat="43.93803" lon="7.09814">
        <ele>412</ele>
        <time>2018-07-21T12:40:31.000Z</time>
      </trkpt>
      <trkpt lat="43.93799" lon="7.09813">
        <ele>413</ele>
        <time>2018-07-21T12:40:32.000Z</time>
      </trkpt>
      <trkpt lat="43.93795" lon="7.09812">
        <ele>413</ele>
        <time>2018-07-21T12:40:33.000Z</time>
      </trkpt>
      <trkpt lat="43.93787" lon="7.09812">
        <ele>413</ele>
        <time>2018-07-21T12:40:35.000Z</time>
      </trkpt>
      <trkpt lat="43.93779" lon="7.09814">
        <ele>413</ele>
        <time>2018-07-21T12:40:37.000Z</time>
      </trkpt>
      <trkpt lat="43.93769" lon="7.09825">
        <ele>412</ele>
        <time>2018-07-21T12:40:40.000Z</time>
      </trkpt>
      <trkpt lat="43.93766" lon="7.09828">
        <ele>411</ele>
        <time>2018-07-21T12:40:41.000Z</time>
      </trkpt>
      <trkpt lat="43.93745" lon="7.09838">
        <ele>403</ele>
        <time>2018-07-21T12:40:46.000Z</time>
      </trkpt>
      <trkpt lat="43.93736" lon="7.09837">
        <ele>400</ele>
        <time>2018-07-21T12:40:48.000Z</time>
      </trkpt>
      <trkpt lat="43.93728" lon="7.09834">
        <ele>398</ele>
        <time>2018-07-21T12:40:50.000Z</time>
      </trkpt>
      <trkpt lat="43.93723" lon="7.09832">
        <ele>412</ele>
        <time>2018-07-21T12:40:51.000Z</time>
      </trkpt>
      <trkpt lat="43.93711" lon="7.09828">
        <ele>413</ele>
        <time>2018-07-21T12:40:54.000Z</time>
      </trkpt>
      <trkpt lat="43.937" lon="7.09822">
        <ele>413</ele>
        <time>2018-07-21T12:40:57.000Z</time>
      </trkpt>
      <trkpt lat="43.93683" lon="7.09809">
        <ele>413</ele>
        <time>2018-07-21T12:41:02.000Z</time>
      </trkpt>
      <trkpt lat="43.93675" lon="7.09799">
        <ele>414</ele>
        <time>2018-07-21T12:41:05.000Z</time>
      </trkpt>
      <trkpt lat="43.93666" lon="7.09779">
        <ele>412</ele>
        <time>2018-07-21T12:41:11.000Z</time>
      </trkpt>
      <trkpt lat="43.9366" lon="7.09762">
        <ele>414</ele>
        <time>2018-07-21T12:41:17.000Z</time>
      </trkpt>
      <trkpt lat="43.93659" lon="7.0976">
        <ele>414</ele>
        <time>2018-07-21T12:41:18.000Z</time>
      </trkpt>
      <trkpt lat="43.93653" lon="7.09748">
        <ele>414</ele>
        <time>2018-07-21T12:41:22.000Z</time>
      </trkpt>
      <trkpt lat="43.93649" lon="7.09736">
        <ele>413</ele>
        <time>2018-07-21T12:41:26.000Z</time>
      </trkpt>
      <trkpt lat="43.93649" lon="7.09735">
        <ele>413</ele>
        <time>2018-07-21T12:41:30.000Z</time>
      </trkpt>
      <trkpt lat="43.93648" lon="7.09736">
        <ele>413</ele>
        <time>2018-07-21T12:41:35.000Z</time>
      </trkpt>
      <trkpt lat="43.93647" lon="7.09739">
        <ele>413</ele>
        <time>2018-07-21T12:41:50.000Z</time>
      </trkpt>
      <trkpt lat="43.93647" lon="7.09739">
        <ele>413</ele>
        <time>2018-07-21T12:41:55.000Z</time>
      </trkpt>
    </trkseg>
  </trk>
</gpx>